<?xml version="1.0" encoding="UTF-8" standalone="no" ?>
<gpx xmlns="http://www.topografix.com/GPX/1/1" xmlns:xsi="http://www.w3.org/2001/XMLSchema-instance" xsi:schemaLocation="http://www.topografix.com/GPX/1/1 http://www.topografix.com/GPX/1/1/gpx.xsd" version="1.1" creator="VisuGPX - https://www.visugpx.com">
  <metadata>
    <name>Auzon</name>
    <desc><![CDATA[Parcours de 19km
pour un dénivelée de 750 mètres]]></desc>
  </metadata>
  <trk>
    <name><![CDATA[exercise]]></name>
    <trkseg>
      <trkpt lat="45.39167" lon="3.36794">
        <ele>419.5</ele>
        <time>2020-09-17T09:27:23Z</time>
      </trkpt>
      <trkpt lat="45.39166" lon="3.36794">
        <ele>419.6</ele>
        <time>2020-09-17T09:27:24Z</time>
      </trkpt>
      <trkpt lat="45.39166" lon="3.36795">
        <ele>419.6</ele>
        <time>2020-09-17T09:27:25Z</time>
      </trkpt>
      <trkpt lat="45.39165" lon="3.36796">
        <ele>419.6</ele>
        <time>2020-09-17T09:27:26Z</time>
      </trkpt>
      <trkpt lat="45.39165" lon="3.36797">
        <ele>419.7</ele>
        <time>2020-09-17T09:27:27Z</time>
      </trkpt>
      <trkpt lat="45.39164" lon="3.36799">
        <ele>419.7</ele>
        <time>2020-09-17T09:27:28Z</time>
      </trkpt>
      <trkpt lat="45.39164" lon="3.368">
        <ele>419.8</ele>
        <time>2020-09-17T09:27:29Z</time>
      </trkpt>
      <trkpt lat="45.39164" lon="3.36801">
        <ele>419.8</ele>
        <time>2020-09-17T09:27:30Z</time>
      </trkpt>
      <trkpt lat="45.39163" lon="3.36803">
        <ele>419.9</ele>
        <time>2020-09-17T09:27:31Z</time>
      </trkpt>
      <trkpt lat="45.39163" lon="3.36804">
        <ele>419.9</ele>
        <time>2020-09-17T09:27:32Z</time>
      </trkpt>
      <trkpt lat="45.39162" lon="3.36805">
        <ele>420</ele>
        <time>2020-09-17T09:27:33Z</time>
      </trkpt>
      <trkpt lat="45.39162" lon="3.36806">
        <ele>420</ele>
        <time>2020-09-17T09:27:34Z</time>
      </trkpt>
      <trkpt lat="45.39161" lon="3.36808">
        <ele>420</ele>
        <time>2020-09-17T09:27:35Z</time>
      </trkpt>
      <trkpt lat="45.39161" lon="3.36809">
        <ele>420</ele>
        <time>2020-09-17T09:27:36Z</time>
      </trkpt>
      <trkpt lat="45.3916" lon="3.3681">
        <ele>420.1</ele>
        <time>2020-09-17T09:27:37Z</time>
      </trkpt>
      <trkpt lat="45.3916" lon="3.36811">
        <ele>420.1</ele>
        <time>2020-09-17T09:27:38Z</time>
      </trkpt>
      <trkpt lat="45.39159" lon="3.36812">
        <ele>420.1</ele>
        <time>2020-09-17T09:27:39Z</time>
      </trkpt>
      <trkpt lat="45.39159" lon="3.36813">
        <ele>420.1</ele>
        <time>2020-09-17T09:27:40Z</time>
      </trkpt>
      <trkpt lat="45.39159" lon="3.36814">
        <ele>420.2</ele>
        <time>2020-09-17T09:27:41Z</time>
      </trkpt>
      <trkpt lat="45.39158" lon="3.36815">
        <ele>420.2</ele>
        <time>2020-09-17T09:27:42Z</time>
      </trkpt>
      <trkpt lat="45.39158" lon="3.36816">
        <ele>420.2</ele>
        <time>2020-09-17T09:27:43Z</time>
      </trkpt>
      <trkpt lat="45.39158" lon="3.36818">
        <ele>420.3</ele>
        <time>2020-09-17T09:27:44Z</time>
      </trkpt>
      <trkpt lat="45.39157" lon="3.36819">
        <ele>420.3</ele>
        <time>2020-09-17T09:27:45Z</time>
      </trkpt>
      <trkpt lat="45.39156" lon="3.3682">
        <ele>420.4</ele>
        <time>2020-09-17T09:27:46Z</time>
      </trkpt>
      <trkpt lat="45.39156" lon="3.36821">
        <ele>420.4</ele>
        <time>2020-09-17T09:27:47Z</time>
      </trkpt>
      <trkpt lat="45.39155" lon="3.36822">
        <ele>420.5</ele>
        <time>2020-09-17T09:27:48Z</time>
      </trkpt>
      <trkpt lat="45.39154" lon="3.36822">
        <ele>420.6</ele>
        <time>2020-09-17T09:27:49Z</time>
      </trkpt>
      <trkpt lat="45.39154" lon="3.36823">
        <ele>420.6</ele>
        <time>2020-09-17T09:27:50Z</time>
      </trkpt>
      <trkpt lat="45.39153" lon="3.36825">
        <ele>420.7</ele>
        <time>2020-09-17T09:27:51Z</time>
      </trkpt>
      <trkpt lat="45.39153" lon="3.36826">
        <ele>420.7</ele>
        <time>2020-09-17T09:27:52Z</time>
      </trkpt>
      <trkpt lat="45.39154" lon="3.36827">
        <ele>420.7</ele>
        <time>2020-09-17T09:27:53Z</time>
      </trkpt>
      <trkpt lat="45.39154" lon="3.36828">
        <ele>420.8</ele>
        <time>2020-09-17T09:27:54Z</time>
      </trkpt>
      <trkpt lat="45.39154" lon="3.36829">
        <ele>420.8</ele>
        <time>2020-09-17T09:27:55Z</time>
      </trkpt>
      <trkpt lat="45.39154" lon="3.3683">
        <ele>420.8</ele>
        <time>2020-09-17T09:27:56Z</time>
      </trkpt>
      <trkpt lat="45.39155" lon="3.36831">
        <ele>420.8</ele>
        <time>2020-09-17T09:27:57Z</time>
      </trkpt>
      <trkpt lat="45.39155" lon="3.36832">
        <ele>420.8</ele>
        <time>2020-09-17T09:27:58Z</time>
      </trkpt>
      <trkpt lat="45.39156" lon="3.36833">
        <ele>420.8</ele>
        <time>2020-09-17T09:27:59Z</time>
      </trkpt>
      <trkpt lat="45.39156" lon="3.36834">
        <ele>420.9</ele>
        <time>2020-09-17T09:28:00Z</time>
      </trkpt>
      <trkpt lat="45.39156" lon="3.36836">
        <ele>421.1</ele>
        <time>2020-09-17T09:28:01Z</time>
      </trkpt>
      <trkpt lat="45.39156" lon="3.36837">
        <ele>421.2</ele>
        <time>2020-09-17T09:28:02Z</time>
      </trkpt>
      <trkpt lat="45.39157" lon="3.36838">
        <ele>421.4</ele>
        <time>2020-09-17T09:28:03Z</time>
      </trkpt>
      <trkpt lat="45.39157" lon="3.36839">
        <ele>421.5</ele>
        <time>2020-09-17T09:28:04Z</time>
      </trkpt>
      <trkpt lat="45.39157" lon="3.3684">
        <ele>421.6</ele>
        <time>2020-09-17T09:28:05Z</time>
      </trkpt>
      <trkpt lat="45.39158" lon="3.36842">
        <ele>421.7</ele>
        <time>2020-09-17T09:28:06Z</time>
      </trkpt>
      <trkpt lat="45.39158" lon="3.36843">
        <ele>421.8</ele>
        <time>2020-09-17T09:28:07Z</time>
      </trkpt>
      <trkpt lat="45.39159" lon="3.36844">
        <ele>421.9</ele>
        <time>2020-09-17T09:28:08Z</time>
      </trkpt>
      <trkpt lat="45.39159" lon="3.36846">
        <ele>422.1</ele>
        <time>2020-09-17T09:28:09Z</time>
      </trkpt>
      <trkpt lat="45.3916" lon="3.36847">
        <ele>422.1</ele>
        <time>2020-09-17T09:28:10Z</time>
      </trkpt>
      <trkpt lat="45.3916" lon="3.36848">
        <ele>422.2</ele>
        <time>2020-09-17T09:28:11Z</time>
      </trkpt>
      <trkpt lat="45.3916" lon="3.36849">
        <ele>422.3</ele>
        <time>2020-09-17T09:28:12Z</time>
      </trkpt>
      <trkpt lat="45.39161" lon="3.36851">
        <ele>422.4</ele>
        <time>2020-09-17T09:28:13Z</time>
      </trkpt>
      <trkpt lat="45.39161" lon="3.36852">
        <ele>422.4</ele>
        <time>2020-09-17T09:28:14Z</time>
      </trkpt>
      <trkpt lat="45.39162" lon="3.36853">
        <ele>422.5</ele>
        <time>2020-09-17T09:28:15Z</time>
      </trkpt>
      <trkpt lat="45.39162" lon="3.36854">
        <ele>422.6</ele>
        <time>2020-09-17T09:28:16Z</time>
      </trkpt>
      <trkpt lat="45.39162" lon="3.36856">
        <ele>422.7</ele>
        <time>2020-09-17T09:28:17Z</time>
      </trkpt>
      <trkpt lat="45.39162" lon="3.36857">
        <ele>422.7</ele>
        <time>2020-09-17T09:28:18Z</time>
      </trkpt>
      <trkpt lat="45.39162" lon="3.36858">
        <ele>422.8</ele>
        <time>2020-09-17T09:28:19Z</time>
      </trkpt>
      <trkpt lat="45.39163" lon="3.3686">
        <ele>422.9</ele>
        <time>2020-09-17T09:28:20Z</time>
      </trkpt>
      <trkpt lat="45.39163" lon="3.36862">
        <ele>423</ele>
        <time>2020-09-17T09:28:21Z</time>
      </trkpt>
      <trkpt lat="45.39163" lon="3.36863">
        <ele>423</ele>
        <time>2020-09-17T09:28:22Z</time>
      </trkpt>
      <trkpt lat="45.39164" lon="3.36865">
        <ele>423.1</ele>
        <time>2020-09-17T09:28:23Z</time>
      </trkpt>
      <trkpt lat="45.39164" lon="3.36866">
        <ele>423.1</ele>
        <time>2020-09-17T09:28:24Z</time>
      </trkpt>
      <trkpt lat="45.39164" lon="3.36868">
        <ele>423.1</ele>
        <time>2020-09-17T09:28:25Z</time>
      </trkpt>
      <trkpt lat="45.39164" lon="3.36869">
        <ele>423.1</ele>
        <time>2020-09-17T09:28:26Z</time>
      </trkpt>
      <trkpt lat="45.39165" lon="3.36871">
        <ele>423.1</ele>
        <time>2020-09-17T09:28:27Z</time>
      </trkpt>
      <trkpt lat="45.39165" lon="3.36873">
        <ele>423.2</ele>
        <time>2020-09-17T09:28:28Z</time>
      </trkpt>
      <trkpt lat="45.39165" lon="3.36874">
        <ele>423.1</ele>
        <time>2020-09-17T09:28:29Z</time>
      </trkpt>
      <trkpt lat="45.39165" lon="3.36876">
        <ele>423.1</ele>
        <time>2020-09-17T09:28:30Z</time>
      </trkpt>
      <trkpt lat="45.39166" lon="3.36877">
        <ele>423</ele>
        <time>2020-09-17T09:28:31Z</time>
      </trkpt>
      <trkpt lat="45.39166" lon="3.36879">
        <ele>422.9</ele>
        <time>2020-09-17T09:28:32Z</time>
      </trkpt>
      <trkpt lat="45.39167" lon="3.3688">
        <ele>422.7</ele>
        <time>2020-09-17T09:28:33Z</time>
      </trkpt>
      <trkpt lat="45.39167" lon="3.36881">
        <ele>422.7</ele>
        <time>2020-09-17T09:28:34Z</time>
      </trkpt>
      <trkpt lat="45.39168" lon="3.36882">
        <ele>422.7</ele>
        <time>2020-09-17T09:28:35Z</time>
      </trkpt>
      <trkpt lat="45.39169" lon="3.36884">
        <ele>422.7</ele>
        <time>2020-09-17T09:28:36Z</time>
      </trkpt>
      <trkpt lat="45.39169" lon="3.36885">
        <ele>422.7</ele>
        <time>2020-09-17T09:28:37Z</time>
      </trkpt>
      <trkpt lat="45.39169" lon="3.36887">
        <ele>422.7</ele>
        <time>2020-09-17T09:28:38Z</time>
      </trkpt>
      <trkpt lat="45.3917" lon="3.36888">
        <ele>422.8</ele>
        <time>2020-09-17T09:28:39Z</time>
      </trkpt>
      <trkpt lat="45.3917" lon="3.3689">
        <ele>422.8</ele>
        <time>2020-09-17T09:28:40Z</time>
      </trkpt>
      <trkpt lat="45.3917" lon="3.36891">
        <ele>422.8</ele>
        <time>2020-09-17T09:28:41Z</time>
      </trkpt>
      <trkpt lat="45.3917" lon="3.36893">
        <ele>422.7</ele>
        <time>2020-09-17T09:28:42Z</time>
      </trkpt>
      <trkpt lat="45.3917" lon="3.36894">
        <ele>422.7</ele>
        <time>2020-09-17T09:28:43Z</time>
      </trkpt>
      <trkpt lat="45.39171" lon="3.36896">
        <ele>422.7</ele>
        <time>2020-09-17T09:28:44Z</time>
      </trkpt>
      <trkpt lat="45.39171" lon="3.36897">
        <ele>422.7</ele>
        <time>2020-09-17T09:28:45Z</time>
      </trkpt>
      <trkpt lat="45.39171" lon="3.36899">
        <ele>422.6</ele>
        <time>2020-09-17T09:28:46Z</time>
      </trkpt>
      <trkpt lat="45.39171" lon="3.369">
        <ele>422.6</ele>
        <time>2020-09-17T09:28:47Z</time>
      </trkpt>
      <trkpt lat="45.39171" lon="3.36902">
        <ele>422.6</ele>
        <time>2020-09-17T09:28:48Z</time>
      </trkpt>
      <trkpt lat="45.39172" lon="3.36903">
        <ele>422.5</ele>
        <time>2020-09-17T09:28:49Z</time>
      </trkpt>
      <trkpt lat="45.39172" lon="3.36905">
        <ele>422.5</ele>
        <time>2020-09-17T09:28:50Z</time>
      </trkpt>
      <trkpt lat="45.39172" lon="3.36906">
        <ele>422.5</ele>
        <time>2020-09-17T09:28:51Z</time>
      </trkpt>
      <trkpt lat="45.39173" lon="3.36908">
        <ele>422.4</ele>
        <time>2020-09-17T09:28:52Z</time>
      </trkpt>
      <trkpt lat="45.39173" lon="3.3691">
        <ele>422.4</ele>
        <time>2020-09-17T09:28:53Z</time>
      </trkpt>
      <trkpt lat="45.39173" lon="3.36911">
        <ele>422.3</ele>
        <time>2020-09-17T09:28:54Z</time>
      </trkpt>
      <trkpt lat="45.39174" lon="3.36913">
        <ele>422.3</ele>
        <time>2020-09-17T09:28:55Z</time>
      </trkpt>
      <trkpt lat="45.39174" lon="3.36914">
        <ele>422.3</ele>
        <time>2020-09-17T09:28:56Z</time>
      </trkpt>
      <trkpt lat="45.39174" lon="3.36916">
        <ele>422.2</ele>
        <time>2020-09-17T09:28:57Z</time>
      </trkpt>
      <trkpt lat="45.39174" lon="3.36918">
        <ele>422.2</ele>
        <time>2020-09-17T09:28:58Z</time>
      </trkpt>
      <trkpt lat="45.39174" lon="3.36919">
        <ele>422.2</ele>
        <time>2020-09-17T09:28:59Z</time>
      </trkpt>
      <trkpt lat="45.39174" lon="3.36921">
        <ele>422.2</ele>
        <time>2020-09-17T09:29:00Z</time>
      </trkpt>
      <trkpt lat="45.39175" lon="3.36922">
        <ele>422.1</ele>
        <time>2020-09-17T09:29:01Z</time>
      </trkpt>
      <trkpt lat="45.39175" lon="3.36924">
        <ele>422.1</ele>
        <time>2020-09-17T09:29:02Z</time>
      </trkpt>
      <trkpt lat="45.39175" lon="3.36925">
        <ele>422.1</ele>
        <time>2020-09-17T09:29:03Z</time>
      </trkpt>
      <trkpt lat="45.39175" lon="3.36927">
        <ele>422.1</ele>
        <time>2020-09-17T09:29:04Z</time>
      </trkpt>
      <trkpt lat="45.39175" lon="3.36929">
        <ele>422.1</ele>
        <time>2020-09-17T09:29:05Z</time>
      </trkpt>
      <trkpt lat="45.39175" lon="3.3693">
        <ele>422.1</ele>
        <time>2020-09-17T09:29:06Z</time>
      </trkpt>
      <trkpt lat="45.39176" lon="3.36931">
        <ele>422</ele>
        <time>2020-09-17T09:29:07Z</time>
      </trkpt>
      <trkpt lat="45.39176" lon="3.36933">
        <ele>422</ele>
        <time>2020-09-17T09:29:08Z</time>
      </trkpt>
      <trkpt lat="45.39176" lon="3.36934">
        <ele>422</ele>
        <time>2020-09-17T09:29:09Z</time>
      </trkpt>
      <trkpt lat="45.39176" lon="3.36936">
        <ele>422</ele>
        <time>2020-09-17T09:29:10Z</time>
      </trkpt>
      <trkpt lat="45.39176" lon="3.36937">
        <ele>422</ele>
        <time>2020-09-17T09:29:11Z</time>
      </trkpt>
      <trkpt lat="45.39177" lon="3.36939">
        <ele>421.9</ele>
        <time>2020-09-17T09:29:12Z</time>
      </trkpt>
      <trkpt lat="45.39177" lon="3.3694">
        <ele>421.9</ele>
        <time>2020-09-17T09:29:13Z</time>
      </trkpt>
      <trkpt lat="45.39177" lon="3.36941">
        <ele>421.9</ele>
        <time>2020-09-17T09:29:14Z</time>
      </trkpt>
      <trkpt lat="45.39177" lon="3.36943">
        <ele>421.8</ele>
        <time>2020-09-17T09:29:15Z</time>
      </trkpt>
      <trkpt lat="45.39178" lon="3.36944">
        <ele>421.8</ele>
        <time>2020-09-17T09:29:16Z</time>
      </trkpt>
      <trkpt lat="45.39178" lon="3.36946">
        <ele>421.8</ele>
        <time>2020-09-17T09:29:17Z</time>
      </trkpt>
      <trkpt lat="45.39179" lon="3.36947">
        <ele>421.8</ele>
        <time>2020-09-17T09:29:18Z</time>
      </trkpt>
      <trkpt lat="45.39179" lon="3.36949">
        <ele>421.8</ele>
        <time>2020-09-17T09:29:19Z</time>
      </trkpt>
      <trkpt lat="45.39179" lon="3.3695">
        <ele>421.9</ele>
        <time>2020-09-17T09:29:20Z</time>
      </trkpt>
      <trkpt lat="45.39179" lon="3.36951">
        <ele>421.9</ele>
        <time>2020-09-17T09:29:21Z</time>
      </trkpt>
      <trkpt lat="45.3918" lon="3.36953">
        <ele>421.9</ele>
        <time>2020-09-17T09:29:22Z</time>
      </trkpt>
      <trkpt lat="45.3918" lon="3.36954">
        <ele>421.9</ele>
        <time>2020-09-17T09:29:23Z</time>
      </trkpt>
      <trkpt lat="45.39181" lon="3.36956">
        <ele>421.9</ele>
        <time>2020-09-17T09:29:24Z</time>
      </trkpt>
      <trkpt lat="45.39181" lon="3.36957">
        <ele>421.9</ele>
        <time>2020-09-17T09:29:25Z</time>
      </trkpt>
      <trkpt lat="45.39182" lon="3.36959">
        <ele>421.9</ele>
        <time>2020-09-17T09:29:26Z</time>
      </trkpt>
      <trkpt lat="45.39182" lon="3.3696">
        <ele>421.9</ele>
        <time>2020-09-17T09:29:27Z</time>
      </trkpt>
      <trkpt lat="45.39183" lon="3.36962">
        <ele>421.9</ele>
        <time>2020-09-17T09:29:28Z</time>
      </trkpt>
      <trkpt lat="45.39183" lon="3.36963">
        <ele>421.9</ele>
        <time>2020-09-17T09:29:29Z</time>
      </trkpt>
      <trkpt lat="45.39183" lon="3.36965">
        <ele>421.9</ele>
        <time>2020-09-17T09:29:30Z</time>
      </trkpt>
      <trkpt lat="45.39184" lon="3.36966">
        <ele>421.9</ele>
        <time>2020-09-17T09:29:31Z</time>
      </trkpt>
      <trkpt lat="45.39184" lon="3.36967">
        <ele>422</ele>
        <time>2020-09-17T09:29:32Z</time>
      </trkpt>
      <trkpt lat="45.39184" lon="3.36969">
        <ele>422</ele>
        <time>2020-09-17T09:29:33Z</time>
      </trkpt>
      <trkpt lat="45.39185" lon="3.3697">
        <ele>422</ele>
        <time>2020-09-17T09:29:34Z</time>
      </trkpt>
      <trkpt lat="45.39185" lon="3.36971">
        <ele>422</ele>
        <time>2020-09-17T09:29:35Z</time>
      </trkpt>
      <trkpt lat="45.39185" lon="3.36972">
        <ele>422.1</ele>
        <time>2020-09-17T09:29:36Z</time>
      </trkpt>
      <trkpt lat="45.39185" lon="3.36973">
        <ele>422.2</ele>
        <time>2020-09-17T09:29:37Z</time>
      </trkpt>
      <trkpt lat="45.39184" lon="3.36974">
        <ele>422.4</ele>
        <time>2020-09-17T09:29:38Z</time>
      </trkpt>
      <trkpt lat="45.39184" lon="3.36976">
        <ele>422.6</ele>
        <time>2020-09-17T09:29:39Z</time>
      </trkpt>
      <trkpt lat="45.39184" lon="3.36976">
        <ele>422.7</ele>
        <time>2020-09-17T09:29:40Z</time>
      </trkpt>
      <trkpt lat="45.39183" lon="3.36977">
        <ele>422.9</ele>
        <time>2020-09-17T09:29:41Z</time>
      </trkpt>
      <trkpt lat="45.39183" lon="3.36979">
        <ele>423.1</ele>
        <time>2020-09-17T09:29:42Z</time>
      </trkpt>
      <trkpt lat="45.39183" lon="3.36979">
        <ele>423.3</ele>
        <time>2020-09-17T09:29:43Z</time>
      </trkpt>
      <trkpt lat="45.39183" lon="3.3698">
        <ele>423.4</ele>
        <time>2020-09-17T09:29:44Z</time>
      </trkpt>
      <trkpt lat="45.39183" lon="3.36981">
        <ele>423.5</ele>
        <time>2020-09-17T09:29:45Z</time>
      </trkpt>
      <trkpt lat="45.39183" lon="3.36982">
        <ele>423.6</ele>
        <time>2020-09-17T09:29:46Z</time>
      </trkpt>
      <trkpt lat="45.39183" lon="3.36982">
        <ele>423.7</ele>
        <time>2020-09-17T09:29:47Z</time>
      </trkpt>
      <trkpt lat="45.39183" lon="3.36983">
        <ele>423.7</ele>
        <time>2020-09-17T09:29:48Z</time>
      </trkpt>
      <trkpt lat="45.39183" lon="3.36983">
        <ele>423.8</ele>
        <time>2020-09-17T09:29:49Z</time>
      </trkpt>
      <trkpt lat="45.39183" lon="3.36983">
        <ele>423.8</ele>
        <time>2020-09-17T09:29:50Z</time>
      </trkpt>
      <trkpt lat="45.39183" lon="3.36983">
        <ele>423.8</ele>
        <time>2020-09-17T09:29:51Z</time>
      </trkpt>
      <trkpt lat="45.39183" lon="3.36983">
        <ele>423.7</ele>
        <time>2020-09-17T09:29:52Z</time>
      </trkpt>
      <trkpt lat="45.39183" lon="3.36982">
        <ele>423.7</ele>
        <time>2020-09-17T09:29:53Z</time>
      </trkpt>
      <trkpt lat="45.39183" lon="3.36982">
        <ele>423.6</ele>
        <time>2020-09-17T09:29:54Z</time>
      </trkpt>
      <trkpt lat="45.39183" lon="3.36981">
        <ele>423.5</ele>
        <time>2020-09-17T09:29:55Z</time>
      </trkpt>
      <trkpt lat="45.39183" lon="3.36981">
        <ele>423.4</ele>
        <time>2020-09-17T09:29:56Z</time>
      </trkpt>
      <trkpt lat="45.39183" lon="3.3698">
        <ele>423.2</ele>
        <time>2020-09-17T09:29:57Z</time>
      </trkpt>
      <trkpt lat="45.39184" lon="3.36979">
        <ele>423</ele>
        <time>2020-09-17T09:29:58Z</time>
      </trkpt>
      <trkpt lat="45.39184" lon="3.36978">
        <ele>422.8</ele>
        <time>2020-09-17T09:29:59Z</time>
      </trkpt>
      <trkpt lat="45.39185" lon="3.36977">
        <ele>422.6</ele>
        <time>2020-09-17T09:30:00Z</time>
      </trkpt>
      <trkpt lat="45.39185" lon="3.36976">
        <ele>422.5</ele>
        <time>2020-09-17T09:30:01Z</time>
      </trkpt>
      <trkpt lat="45.39186" lon="3.36975">
        <ele>422.2</ele>
        <time>2020-09-17T09:30:02Z</time>
      </trkpt>
      <trkpt lat="45.39186" lon="3.36974">
        <ele>422.1</ele>
        <time>2020-09-17T09:30:03Z</time>
      </trkpt>
      <trkpt lat="45.39187" lon="3.36973">
        <ele>422</ele>
        <time>2020-09-17T09:30:04Z</time>
      </trkpt>
      <trkpt lat="45.39187" lon="3.36974">
        <ele>422</ele>
        <time>2020-09-17T09:30:05Z</time>
      </trkpt>
      <trkpt lat="45.39187" lon="3.36974">
        <ele>422</ele>
        <time>2020-09-17T09:30:06Z</time>
      </trkpt>
      <trkpt lat="45.39187" lon="3.36974">
        <ele>421.9</ele>
        <time>2020-09-17T09:30:07Z</time>
      </trkpt>
      <trkpt lat="45.39188" lon="3.36974">
        <ele>421.9</ele>
        <time>2020-09-17T09:30:08Z</time>
      </trkpt>
      <trkpt lat="45.39188" lon="3.36974">
        <ele>421.9</ele>
        <time>2020-09-17T09:30:09Z</time>
      </trkpt>
      <trkpt lat="45.39188" lon="3.36974">
        <ele>421.9</ele>
        <time>2020-09-17T09:30:10Z</time>
      </trkpt>
      <trkpt lat="45.39188" lon="3.36974">
        <ele>421.9</ele>
        <time>2020-09-17T09:30:11Z</time>
      </trkpt>
      <trkpt lat="45.39188" lon="3.36974">
        <ele>421.9</ele>
        <time>2020-09-17T09:30:12Z</time>
      </trkpt>
      <trkpt lat="45.39188" lon="3.36974">
        <ele>421.9</ele>
        <time>2020-09-17T09:30:13Z</time>
      </trkpt>
      <trkpt lat="45.39188" lon="3.36974">
        <ele>421.9</ele>
        <time>2020-09-17T09:30:14Z</time>
      </trkpt>
      <trkpt lat="45.39188" lon="3.36974">
        <ele>421.9</ele>
        <time>2020-09-17T09:30:15Z</time>
      </trkpt>
      <trkpt lat="45.39188" lon="3.36975">
        <ele>421.9</ele>
        <time>2020-09-17T09:30:16Z</time>
      </trkpt>
      <trkpt lat="45.39188" lon="3.36975">
        <ele>421.9</ele>
        <time>2020-09-17T09:30:17Z</time>
      </trkpt>
      <trkpt lat="45.39188" lon="3.36975">
        <ele>421.9</ele>
        <time>2020-09-17T09:30:18Z</time>
      </trkpt>
      <trkpt lat="45.39188" lon="3.36975">
        <ele>421.9</ele>
        <time>2020-09-17T09:30:19Z</time>
      </trkpt>
      <trkpt lat="45.39189" lon="3.36975">
        <ele>421.9</ele>
        <time>2020-09-17T09:30:20Z</time>
      </trkpt>
      <trkpt lat="45.39189" lon="3.36975">
        <ele>421.8</ele>
        <time>2020-09-17T09:30:21Z</time>
      </trkpt>
      <trkpt lat="45.3919" lon="3.36975">
        <ele>421.7</ele>
        <time>2020-09-17T09:30:22Z</time>
      </trkpt>
      <trkpt lat="45.39191" lon="3.36976">
        <ele>421.7</ele>
        <time>2020-09-17T09:30:23Z</time>
      </trkpt>
      <trkpt lat="45.39192" lon="3.36976">
        <ele>421.5</ele>
        <time>2020-09-17T09:30:24Z</time>
      </trkpt>
      <trkpt lat="45.39192" lon="3.36976">
        <ele>421.5</ele>
        <time>2020-09-17T09:30:25Z</time>
      </trkpt>
      <trkpt lat="45.39193" lon="3.36976">
        <ele>421.3</ele>
        <time>2020-09-17T09:30:26Z</time>
      </trkpt>
      <trkpt lat="45.39194" lon="3.36976">
        <ele>421.2</ele>
        <time>2020-09-17T09:30:27Z</time>
      </trkpt>
      <trkpt lat="45.39195" lon="3.36976">
        <ele>421.2</ele>
        <time>2020-09-17T09:30:28Z</time>
      </trkpt>
      <trkpt lat="45.39196" lon="3.36977">
        <ele>421.2</ele>
        <time>2020-09-17T09:30:29Z</time>
      </trkpt>
      <trkpt lat="45.39197" lon="3.36977">
        <ele>421.2</ele>
        <time>2020-09-17T09:30:30Z</time>
      </trkpt>
      <trkpt lat="45.39198" lon="3.36977">
        <ele>421.3</ele>
        <time>2020-09-17T09:30:31Z</time>
      </trkpt>
      <trkpt lat="45.39199" lon="3.36977">
        <ele>421.3</ele>
        <time>2020-09-17T09:30:32Z</time>
      </trkpt>
      <trkpt lat="45.392" lon="3.36977">
        <ele>421.3</ele>
        <time>2020-09-17T09:30:33Z</time>
      </trkpt>
      <trkpt lat="45.392" lon="3.36978">
        <ele>421.4</ele>
        <time>2020-09-17T09:30:34Z</time>
      </trkpt>
      <trkpt lat="45.39201" lon="3.36978">
        <ele>421.4</ele>
        <time>2020-09-17T09:30:35Z</time>
      </trkpt>
      <trkpt lat="45.39202" lon="3.36979">
        <ele>421.4</ele>
        <time>2020-09-17T09:30:36Z</time>
      </trkpt>
      <trkpt lat="45.39203" lon="3.3698">
        <ele>421.5</ele>
        <time>2020-09-17T09:30:37Z</time>
      </trkpt>
      <trkpt lat="45.39203" lon="3.36981">
        <ele>421.5</ele>
        <time>2020-09-17T09:30:38Z</time>
      </trkpt>
      <trkpt lat="45.39203" lon="3.36982">
        <ele>421.6</ele>
        <time>2020-09-17T09:30:39Z</time>
      </trkpt>
      <trkpt lat="45.39204" lon="3.36984">
        <ele>421.6</ele>
        <time>2020-09-17T09:30:40Z</time>
      </trkpt>
      <trkpt lat="45.39204" lon="3.36985">
        <ele>421.6</ele>
        <time>2020-09-17T09:30:41Z</time>
      </trkpt>
      <trkpt lat="45.39204" lon="3.36986">
        <ele>421.7</ele>
        <time>2020-09-17T09:30:42Z</time>
      </trkpt>
      <trkpt lat="45.39205" lon="3.36988">
        <ele>421.7</ele>
        <time>2020-09-17T09:30:43Z</time>
      </trkpt>
      <trkpt lat="45.39205" lon="3.36989">
        <ele>421.8</ele>
        <time>2020-09-17T09:30:44Z</time>
      </trkpt>
      <trkpt lat="45.39206" lon="3.36991">
        <ele>421.8</ele>
        <time>2020-09-17T09:30:45Z</time>
      </trkpt>
      <trkpt lat="45.39206" lon="3.36992">
        <ele>421.8</ele>
        <time>2020-09-17T09:30:46Z</time>
      </trkpt>
      <trkpt lat="45.39207" lon="3.36994">
        <ele>421.9</ele>
        <time>2020-09-17T09:30:47Z</time>
      </trkpt>
      <trkpt lat="45.39207" lon="3.36995">
        <ele>421.9</ele>
        <time>2020-09-17T09:30:48Z</time>
      </trkpt>
      <trkpt lat="45.39208" lon="3.36997">
        <ele>421.9</ele>
        <time>2020-09-17T09:30:49Z</time>
      </trkpt>
      <trkpt lat="45.39209" lon="3.36998">
        <ele>422</ele>
        <time>2020-09-17T09:30:50Z</time>
      </trkpt>
      <trkpt lat="45.39209" lon="3.36999">
        <ele>422</ele>
        <time>2020-09-17T09:30:51Z</time>
      </trkpt>
      <trkpt lat="45.3921" lon="3.37001">
        <ele>422</ele>
        <time>2020-09-17T09:30:52Z</time>
      </trkpt>
      <trkpt lat="45.3921" lon="3.37002">
        <ele>422.1</ele>
        <time>2020-09-17T09:30:53Z</time>
      </trkpt>
      <trkpt lat="45.39211" lon="3.37003">
        <ele>422.1</ele>
        <time>2020-09-17T09:30:54Z</time>
      </trkpt>
      <trkpt lat="45.39211" lon="3.37005">
        <ele>422.2</ele>
        <time>2020-09-17T09:30:55Z</time>
      </trkpt>
      <trkpt lat="45.39212" lon="3.37006">
        <ele>422.2</ele>
        <time>2020-09-17T09:30:56Z</time>
      </trkpt>
      <trkpt lat="45.39212" lon="3.37006">
        <ele>422.2</ele>
        <time>2020-09-17T09:30:57Z</time>
      </trkpt>
      <trkpt lat="45.39212" lon="3.37007">
        <ele>422.3</ele>
        <time>2020-09-17T09:30:58Z</time>
      </trkpt>
      <trkpt lat="45.39212" lon="3.37007">
        <ele>422.3</ele>
        <time>2020-09-17T09:30:59Z</time>
      </trkpt>
      <trkpt lat="45.39212" lon="3.37007">
        <ele>422.3</ele>
        <time>2020-09-17T09:31:00Z</time>
      </trkpt>
      <trkpt lat="45.39212" lon="3.37007">
        <ele>422.3</ele>
        <time>2020-09-17T09:31:01Z</time>
      </trkpt>
      <trkpt lat="45.39212" lon="3.37007">
        <ele>422.3</ele>
        <time>2020-09-17T09:31:02Z</time>
      </trkpt>
      <trkpt lat="45.39212" lon="3.37007">
        <ele>422.3</ele>
        <time>2020-09-17T09:31:03Z</time>
      </trkpt>
      <trkpt lat="45.39213" lon="3.37007">
        <ele>422.3</ele>
        <time>2020-09-17T09:31:04Z</time>
      </trkpt>
      <trkpt lat="45.39213" lon="3.37007">
        <ele>422.3</ele>
        <time>2020-09-17T09:31:05Z</time>
      </trkpt>
      <trkpt lat="45.39213" lon="3.37007">
        <ele>422.3</ele>
        <time>2020-09-17T09:31:06Z</time>
      </trkpt>
      <trkpt lat="45.39213" lon="3.37007">
        <ele>422.3</ele>
        <time>2020-09-17T09:31:07Z</time>
      </trkpt>
      <trkpt lat="45.39213" lon="3.37007">
        <ele>422.3</ele>
        <time>2020-09-17T09:31:08Z</time>
      </trkpt>
      <trkpt lat="45.39213" lon="3.37007">
        <ele>422.3</ele>
        <time>2020-09-17T09:31:09Z</time>
      </trkpt>
      <trkpt lat="45.39213" lon="3.37008">
        <ele>422.3</ele>
        <time>2020-09-17T09:31:10Z</time>
      </trkpt>
      <trkpt lat="45.39213" lon="3.37008">
        <ele>422.3</ele>
        <time>2020-09-17T09:31:11Z</time>
      </trkpt>
      <trkpt lat="45.39213" lon="3.37009">
        <ele>422.3</ele>
        <time>2020-09-17T09:31:12Z</time>
      </trkpt>
      <trkpt lat="45.39214" lon="3.3701">
        <ele>422.3</ele>
        <time>2020-09-17T09:31:13Z</time>
      </trkpt>
      <trkpt lat="45.39214" lon="3.37011">
        <ele>422.3</ele>
        <time>2020-09-17T09:31:14Z</time>
      </trkpt>
      <trkpt lat="45.39215" lon="3.37012">
        <ele>422.4</ele>
        <time>2020-09-17T09:31:15Z</time>
      </trkpt>
      <trkpt lat="45.39215" lon="3.37014">
        <ele>422.4</ele>
        <time>2020-09-17T09:31:16Z</time>
      </trkpt>
      <trkpt lat="45.39216" lon="3.37015">
        <ele>422.4</ele>
        <time>2020-09-17T09:31:17Z</time>
      </trkpt>
      <trkpt lat="45.39216" lon="3.37016">
        <ele>422.4</ele>
        <time>2020-09-17T09:31:18Z</time>
      </trkpt>
      <trkpt lat="45.39217" lon="3.37018">
        <ele>422.4</ele>
        <time>2020-09-17T09:31:19Z</time>
      </trkpt>
      <trkpt lat="45.39217" lon="3.37019">
        <ele>422.4</ele>
        <time>2020-09-17T09:31:20Z</time>
      </trkpt>
      <trkpt lat="45.39218" lon="3.3702">
        <ele>422.4</ele>
        <time>2020-09-17T09:31:21Z</time>
      </trkpt>
      <trkpt lat="45.39218" lon="3.37022">
        <ele>422.3</ele>
        <time>2020-09-17T09:31:22Z</time>
      </trkpt>
      <trkpt lat="45.39219" lon="3.37023">
        <ele>422.3</ele>
        <time>2020-09-17T09:31:23Z</time>
      </trkpt>
      <trkpt lat="45.3922" lon="3.37024">
        <ele>422.2</ele>
        <time>2020-09-17T09:31:24Z</time>
      </trkpt>
      <trkpt lat="45.3922" lon="3.37026">
        <ele>422.2</ele>
        <time>2020-09-17T09:31:25Z</time>
      </trkpt>
      <trkpt lat="45.39221" lon="3.37027">
        <ele>422.1</ele>
        <time>2020-09-17T09:31:26Z</time>
      </trkpt>
      <trkpt lat="45.39222" lon="3.37028">
        <ele>422.1</ele>
        <time>2020-09-17T09:31:27Z</time>
      </trkpt>
      <trkpt lat="45.39223" lon="3.37029">
        <ele>422.1</ele>
        <time>2020-09-17T09:31:28Z</time>
      </trkpt>
      <trkpt lat="45.39224" lon="3.3703">
        <ele>422.1</ele>
        <time>2020-09-17T09:31:29Z</time>
      </trkpt>
      <trkpt lat="45.39225" lon="3.37031">
        <ele>422.2</ele>
        <time>2020-09-17T09:31:30Z</time>
      </trkpt>
      <trkpt lat="45.39226" lon="3.37032">
        <ele>422.3</ele>
        <time>2020-09-17T09:31:31Z</time>
      </trkpt>
      <trkpt lat="45.39226" lon="3.37033">
        <ele>422.3</ele>
        <time>2020-09-17T09:31:32Z</time>
      </trkpt>
      <trkpt lat="45.39227" lon="3.37034">
        <ele>422.4</ele>
        <time>2020-09-17T09:31:33Z</time>
      </trkpt>
      <trkpt lat="45.39228" lon="3.37035">
        <ele>422.4</ele>
        <time>2020-09-17T09:31:34Z</time>
      </trkpt>
      <trkpt lat="45.39229" lon="3.37036">
        <ele>422.5</ele>
        <time>2020-09-17T09:31:35Z</time>
      </trkpt>
      <trkpt lat="45.3923" lon="3.37037">
        <ele>422.5</ele>
        <time>2020-09-17T09:31:36Z</time>
      </trkpt>
      <trkpt lat="45.39231" lon="3.37038">
        <ele>422.6</ele>
        <time>2020-09-17T09:31:37Z</time>
      </trkpt>
      <trkpt lat="45.39232" lon="3.37039">
        <ele>422.6</ele>
        <time>2020-09-17T09:31:38Z</time>
      </trkpt>
      <trkpt lat="45.39233" lon="3.3704">
        <ele>422.7</ele>
        <time>2020-09-17T09:31:39Z</time>
      </trkpt>
      <trkpt lat="45.39233" lon="3.37041">
        <ele>422.7</ele>
        <time>2020-09-17T09:31:40Z</time>
      </trkpt>
      <trkpt lat="45.39234" lon="3.37042">
        <ele>422.7</ele>
        <time>2020-09-17T09:31:41Z</time>
      </trkpt>
      <trkpt lat="45.39235" lon="3.37043">
        <ele>422.8</ele>
        <time>2020-09-17T09:31:42Z</time>
      </trkpt>
      <trkpt lat="45.39236" lon="3.37044">
        <ele>422.8</ele>
        <time>2020-09-17T09:31:43Z</time>
      </trkpt>
      <trkpt lat="45.39237" lon="3.37045">
        <ele>422.8</ele>
        <time>2020-09-17T09:31:44Z</time>
      </trkpt>
      <trkpt lat="45.39238" lon="3.37046">
        <ele>422.8</ele>
        <time>2020-09-17T09:31:45Z</time>
      </trkpt>
      <trkpt lat="45.39239" lon="3.37047">
        <ele>422.9</ele>
        <time>2020-09-17T09:31:46Z</time>
      </trkpt>
      <trkpt lat="45.3924" lon="3.37047">
        <ele>422.9</ele>
        <time>2020-09-17T09:31:47Z</time>
      </trkpt>
      <trkpt lat="45.39241" lon="3.37048">
        <ele>422.9</ele>
        <time>2020-09-17T09:31:48Z</time>
      </trkpt>
      <trkpt lat="45.39242" lon="3.37049">
        <ele>422.9</ele>
        <time>2020-09-17T09:31:49Z</time>
      </trkpt>
      <trkpt lat="45.39243" lon="3.3705">
        <ele>423</ele>
        <time>2020-09-17T09:31:50Z</time>
      </trkpt>
      <trkpt lat="45.39244" lon="3.37052">
        <ele>423</ele>
        <time>2020-09-17T09:31:51Z</time>
      </trkpt>
      <trkpt lat="45.39245" lon="3.37053">
        <ele>423</ele>
        <time>2020-09-17T09:31:52Z</time>
      </trkpt>
      <trkpt lat="45.39246" lon="3.37054">
        <ele>423</ele>
        <time>2020-09-17T09:31:53Z</time>
      </trkpt>
      <trkpt lat="45.39246" lon="3.37055">
        <ele>423</ele>
        <time>2020-09-17T09:31:54Z</time>
      </trkpt>
      <trkpt lat="45.39247" lon="3.37057">
        <ele>423</ele>
        <time>2020-09-17T09:31:55Z</time>
      </trkpt>
      <trkpt lat="45.39248" lon="3.37058">
        <ele>422.9</ele>
        <time>2020-09-17T09:31:56Z</time>
      </trkpt>
      <trkpt lat="45.39249" lon="3.37059">
        <ele>422.9</ele>
        <time>2020-09-17T09:31:57Z</time>
      </trkpt>
      <trkpt lat="45.39249" lon="3.3706">
        <ele>422.8</ele>
        <time>2020-09-17T09:31:58Z</time>
      </trkpt>
      <trkpt lat="45.3925" lon="3.37061">
        <ele>422.8</ele>
        <time>2020-09-17T09:31:59Z</time>
      </trkpt>
      <trkpt lat="45.39251" lon="3.37063">
        <ele>422.8</ele>
        <time>2020-09-17T09:32:00Z</time>
      </trkpt>
      <trkpt lat="45.39251" lon="3.37064">
        <ele>422.8</ele>
        <time>2020-09-17T09:32:01Z</time>
      </trkpt>
      <trkpt lat="45.39252" lon="3.37065">
        <ele>422.9</ele>
        <time>2020-09-17T09:32:02Z</time>
      </trkpt>
      <trkpt lat="45.39253" lon="3.37067">
        <ele>422.9</ele>
        <time>2020-09-17T09:32:03Z</time>
      </trkpt>
      <trkpt lat="45.39254" lon="3.37068">
        <ele>422.9</ele>
        <time>2020-09-17T09:32:04Z</time>
      </trkpt>
      <trkpt lat="45.39254" lon="3.3707">
        <ele>423</ele>
        <time>2020-09-17T09:32:05Z</time>
      </trkpt>
      <trkpt lat="45.39255" lon="3.37071">
        <ele>423</ele>
        <time>2020-09-17T09:32:06Z</time>
      </trkpt>
      <trkpt lat="45.39256" lon="3.37073">
        <ele>423</ele>
        <time>2020-09-17T09:32:07Z</time>
      </trkpt>
      <trkpt lat="45.39257" lon="3.37074">
        <ele>423</ele>
        <time>2020-09-17T09:32:08Z</time>
      </trkpt>
      <trkpt lat="45.39257" lon="3.37075">
        <ele>423.1</ele>
        <time>2020-09-17T09:32:09Z</time>
      </trkpt>
      <trkpt lat="45.39258" lon="3.37077">
        <ele>423.1</ele>
        <time>2020-09-17T09:32:10Z</time>
      </trkpt>
      <trkpt lat="45.39259" lon="3.37078">
        <ele>423.1</ele>
        <time>2020-09-17T09:32:11Z</time>
      </trkpt>
      <trkpt lat="45.39259" lon="3.3708">
        <ele>423.1</ele>
        <time>2020-09-17T09:32:12Z</time>
      </trkpt>
      <trkpt lat="45.3926" lon="3.37081">
        <ele>423.2</ele>
        <time>2020-09-17T09:32:13Z</time>
      </trkpt>
      <trkpt lat="45.39261" lon="3.37083">
        <ele>423.2</ele>
        <time>2020-09-17T09:32:14Z</time>
      </trkpt>
      <trkpt lat="45.39261" lon="3.37084">
        <ele>423.2</ele>
        <time>2020-09-17T09:32:15Z</time>
      </trkpt>
      <trkpt lat="45.39262" lon="3.37086">
        <ele>423.3</ele>
        <time>2020-09-17T09:32:16Z</time>
      </trkpt>
      <trkpt lat="45.39263" lon="3.37087">
        <ele>423.4</ele>
        <time>2020-09-17T09:32:17Z</time>
      </trkpt>
      <trkpt lat="45.39263" lon="3.37089">
        <ele>423.4</ele>
        <time>2020-09-17T09:32:18Z</time>
      </trkpt>
      <trkpt lat="45.39264" lon="3.3709">
        <ele>423.5</ele>
        <time>2020-09-17T09:32:19Z</time>
      </trkpt>
      <trkpt lat="45.39264" lon="3.37092">
        <ele>423.5</ele>
        <time>2020-09-17T09:32:20Z</time>
      </trkpt>
      <trkpt lat="45.39265" lon="3.37093">
        <ele>423.6</ele>
        <time>2020-09-17T09:32:21Z</time>
      </trkpt>
      <trkpt lat="45.39266" lon="3.37095">
        <ele>423.6</ele>
        <time>2020-09-17T09:32:22Z</time>
      </trkpt>
      <trkpt lat="45.39266" lon="3.37096">
        <ele>423.7</ele>
        <time>2020-09-17T09:32:23Z</time>
      </trkpt>
      <trkpt lat="45.39267" lon="3.37098">
        <ele>423.7</ele>
        <time>2020-09-17T09:32:24Z</time>
      </trkpt>
      <trkpt lat="45.39267" lon="3.371">
        <ele>423.7</ele>
        <time>2020-09-17T09:32:25Z</time>
      </trkpt>
      <trkpt lat="45.39268" lon="3.37101">
        <ele>423.7</ele>
        <time>2020-09-17T09:32:26Z</time>
      </trkpt>
      <trkpt lat="45.39268" lon="3.37103">
        <ele>423.7</ele>
        <time>2020-09-17T09:32:27Z</time>
      </trkpt>
      <trkpt lat="45.39268" lon="3.37105">
        <ele>423.7</ele>
        <time>2020-09-17T09:32:28Z</time>
      </trkpt>
      <trkpt lat="45.39269" lon="3.37106">
        <ele>423.7</ele>
        <time>2020-09-17T09:32:29Z</time>
      </trkpt>
      <trkpt lat="45.39269" lon="3.37108">
        <ele>423.7</ele>
        <time>2020-09-17T09:32:30Z</time>
      </trkpt>
      <trkpt lat="45.39269" lon="3.3711">
        <ele>423.7</ele>
        <time>2020-09-17T09:32:31Z</time>
      </trkpt>
      <trkpt lat="45.3927" lon="3.37112">
        <ele>423.7</ele>
        <time>2020-09-17T09:32:32Z</time>
      </trkpt>
      <trkpt lat="45.3927" lon="3.37114">
        <ele>423.7</ele>
        <time>2020-09-17T09:32:33Z</time>
      </trkpt>
      <trkpt lat="45.3927" lon="3.37115">
        <ele>423.8</ele>
        <time>2020-09-17T09:32:34Z</time>
      </trkpt>
      <trkpt lat="45.39271" lon="3.37117">
        <ele>423.8</ele>
        <time>2020-09-17T09:32:35Z</time>
      </trkpt>
      <trkpt lat="45.39271" lon="3.37119">
        <ele>423.8</ele>
        <time>2020-09-17T09:32:36Z</time>
      </trkpt>
      <trkpt lat="45.39271" lon="3.37121">
        <ele>423.8</ele>
        <time>2020-09-17T09:32:37Z</time>
      </trkpt>
      <trkpt lat="45.39271" lon="3.37122">
        <ele>423.9</ele>
        <time>2020-09-17T09:32:38Z</time>
      </trkpt>
      <trkpt lat="45.39272" lon="3.37124">
        <ele>423.9</ele>
        <time>2020-09-17T09:32:39Z</time>
      </trkpt>
      <trkpt lat="45.39272" lon="3.37126">
        <ele>423.9</ele>
        <time>2020-09-17T09:32:40Z</time>
      </trkpt>
      <trkpt lat="45.39272" lon="3.37128">
        <ele>423.9</ele>
        <time>2020-09-17T09:32:41Z</time>
      </trkpt>
      <trkpt lat="45.39272" lon="3.37129">
        <ele>423.9</ele>
        <time>2020-09-17T09:32:42Z</time>
      </trkpt>
      <trkpt lat="45.39272" lon="3.37131">
        <ele>423.9</ele>
        <time>2020-09-17T09:32:43Z</time>
      </trkpt>
      <trkpt lat="45.39273" lon="3.37132">
        <ele>424</ele>
        <time>2020-09-17T09:32:44Z</time>
      </trkpt>
      <trkpt lat="45.39273" lon="3.37134">
        <ele>424</ele>
        <time>2020-09-17T09:32:45Z</time>
      </trkpt>
      <trkpt lat="45.39273" lon="3.37136">
        <ele>424</ele>
        <time>2020-09-17T09:32:46Z</time>
      </trkpt>
      <trkpt lat="45.39274" lon="3.37137">
        <ele>424</ele>
        <time>2020-09-17T09:32:47Z</time>
      </trkpt>
      <trkpt lat="45.39274" lon="3.37139">
        <ele>424</ele>
        <time>2020-09-17T09:32:48Z</time>
      </trkpt>
      <trkpt lat="45.39274" lon="3.37141">
        <ele>424</ele>
        <time>2020-09-17T09:32:49Z</time>
      </trkpt>
      <trkpt lat="45.39274" lon="3.37142">
        <ele>424</ele>
        <time>2020-09-17T09:32:50Z</time>
      </trkpt>
      <trkpt lat="45.39275" lon="3.37144">
        <ele>424</ele>
        <time>2020-09-17T09:32:51Z</time>
      </trkpt>
      <trkpt lat="45.39275" lon="3.37146">
        <ele>424.1</ele>
        <time>2020-09-17T09:32:52Z</time>
      </trkpt>
      <trkpt lat="45.39275" lon="3.37147">
        <ele>424.1</ele>
        <time>2020-09-17T09:32:53Z</time>
      </trkpt>
      <trkpt lat="45.39275" lon="3.37149">
        <ele>424.1</ele>
        <time>2020-09-17T09:32:54Z</time>
      </trkpt>
      <trkpt lat="45.39275" lon="3.3715">
        <ele>424.1</ele>
        <time>2020-09-17T09:32:55Z</time>
      </trkpt>
      <trkpt lat="45.39276" lon="3.37152">
        <ele>424.1</ele>
        <time>2020-09-17T09:32:56Z</time>
      </trkpt>
      <trkpt lat="45.39276" lon="3.37154">
        <ele>424.1</ele>
        <time>2020-09-17T09:32:57Z</time>
      </trkpt>
      <trkpt lat="45.39276" lon="3.37155">
        <ele>424.1</ele>
        <time>2020-09-17T09:32:58Z</time>
      </trkpt>
      <trkpt lat="45.39277" lon="3.37157">
        <ele>424.1</ele>
        <time>2020-09-17T09:32:59Z</time>
      </trkpt>
      <trkpt lat="45.39277" lon="3.37158">
        <ele>424</ele>
        <time>2020-09-17T09:33:00Z</time>
      </trkpt>
      <trkpt lat="45.39277" lon="3.3716">
        <ele>424</ele>
        <time>2020-09-17T09:33:01Z</time>
      </trkpt>
      <trkpt lat="45.39277" lon="3.37162">
        <ele>424</ele>
        <time>2020-09-17T09:33:02Z</time>
      </trkpt>
      <trkpt lat="45.39278" lon="3.37163">
        <ele>424</ele>
        <time>2020-09-17T09:33:03Z</time>
      </trkpt>
      <trkpt lat="45.39278" lon="3.37165">
        <ele>424.1</ele>
        <time>2020-09-17T09:33:04Z</time>
      </trkpt>
      <trkpt lat="45.39279" lon="3.37166">
        <ele>424.2</ele>
        <time>2020-09-17T09:33:05Z</time>
      </trkpt>
      <trkpt lat="45.39279" lon="3.37168">
        <ele>424.3</ele>
        <time>2020-09-17T09:33:06Z</time>
      </trkpt>
      <trkpt lat="45.39279" lon="3.37169">
        <ele>424.5</ele>
        <time>2020-09-17T09:33:07Z</time>
      </trkpt>
      <trkpt lat="45.3928" lon="3.37171">
        <ele>424.7</ele>
        <time>2020-09-17T09:33:08Z</time>
      </trkpt>
      <trkpt lat="45.3928" lon="3.37173">
        <ele>424.9</ele>
        <time>2020-09-17T09:33:09Z</time>
      </trkpt>
      <trkpt lat="45.39281" lon="3.37174">
        <ele>425</ele>
        <time>2020-09-17T09:33:10Z</time>
      </trkpt>
      <trkpt lat="45.39281" lon="3.37176">
        <ele>425.2</ele>
        <time>2020-09-17T09:33:11Z</time>
      </trkpt>
      <trkpt lat="45.39281" lon="3.37177">
        <ele>425.3</ele>
        <time>2020-09-17T09:33:12Z</time>
      </trkpt>
      <trkpt lat="45.39282" lon="3.37179">
        <ele>425.4</ele>
        <time>2020-09-17T09:33:13Z</time>
      </trkpt>
      <trkpt lat="45.39282" lon="3.3718">
        <ele>425.5</ele>
        <time>2020-09-17T09:33:14Z</time>
      </trkpt>
      <trkpt lat="45.39283" lon="3.37182">
        <ele>425.7</ele>
        <time>2020-09-17T09:33:15Z</time>
      </trkpt>
      <trkpt lat="45.39283" lon="3.37183">
        <ele>425.7</ele>
        <time>2020-09-17T09:33:16Z</time>
      </trkpt>
      <trkpt lat="45.39284" lon="3.37185">
        <ele>425.8</ele>
        <time>2020-09-17T09:33:17Z</time>
      </trkpt>
      <trkpt lat="45.39284" lon="3.37187">
        <ele>425.9</ele>
        <time>2020-09-17T09:33:18Z</time>
      </trkpt>
      <trkpt lat="45.39284" lon="3.37188">
        <ele>425.9</ele>
        <time>2020-09-17T09:33:19Z</time>
      </trkpt>
      <trkpt lat="45.39285" lon="3.3719">
        <ele>426</ele>
        <time>2020-09-17T09:33:20Z</time>
      </trkpt>
      <trkpt lat="45.39285" lon="3.37192">
        <ele>426</ele>
        <time>2020-09-17T09:33:21Z</time>
      </trkpt>
      <trkpt lat="45.39286" lon="3.37193">
        <ele>426</ele>
        <time>2020-09-17T09:33:22Z</time>
      </trkpt>
      <trkpt lat="45.39286" lon="3.37195">
        <ele>426</ele>
        <time>2020-09-17T09:33:23Z</time>
      </trkpt>
      <trkpt lat="45.39287" lon="3.37196">
        <ele>426</ele>
        <time>2020-09-17T09:33:24Z</time>
      </trkpt>
      <trkpt lat="45.39287" lon="3.37198">
        <ele>426</ele>
        <time>2020-09-17T09:33:25Z</time>
      </trkpt>
      <trkpt lat="45.39287" lon="3.37199">
        <ele>425.9</ele>
        <time>2020-09-17T09:33:26Z</time>
      </trkpt>
      <trkpt lat="45.39288" lon="3.37201">
        <ele>425.9</ele>
        <time>2020-09-17T09:33:27Z</time>
      </trkpt>
      <trkpt lat="45.39288" lon="3.37202">
        <ele>425.9</ele>
        <time>2020-09-17T09:33:28Z</time>
      </trkpt>
      <trkpt lat="45.39289" lon="3.37204">
        <ele>425.9</ele>
        <time>2020-09-17T09:33:29Z</time>
      </trkpt>
      <trkpt lat="45.39289" lon="3.37205">
        <ele>425.9</ele>
        <time>2020-09-17T09:33:30Z</time>
      </trkpt>
      <trkpt lat="45.3929" lon="3.37207">
        <ele>425.9</ele>
        <time>2020-09-17T09:33:31Z</time>
      </trkpt>
      <trkpt lat="45.39291" lon="3.37208">
        <ele>426</ele>
        <time>2020-09-17T09:33:32Z</time>
      </trkpt>
      <trkpt lat="45.39291" lon="3.3721">
        <ele>426</ele>
        <time>2020-09-17T09:33:33Z</time>
      </trkpt>
      <trkpt lat="45.39291" lon="3.37211">
        <ele>426</ele>
        <time>2020-09-17T09:33:34Z</time>
      </trkpt>
      <trkpt lat="45.39292" lon="3.37213">
        <ele>426</ele>
        <time>2020-09-17T09:33:35Z</time>
      </trkpt>
      <trkpt lat="45.39292" lon="3.37214">
        <ele>426</ele>
        <time>2020-09-17T09:33:36Z</time>
      </trkpt>
      <trkpt lat="45.39292" lon="3.37216">
        <ele>426</ele>
        <time>2020-09-17T09:33:37Z</time>
      </trkpt>
      <trkpt lat="45.39293" lon="3.37218">
        <ele>426</ele>
        <time>2020-09-17T09:33:38Z</time>
      </trkpt>
      <trkpt lat="45.39293" lon="3.37219">
        <ele>426.1</ele>
        <time>2020-09-17T09:33:39Z</time>
      </trkpt>
      <trkpt lat="45.39293" lon="3.37221">
        <ele>426.1</ele>
        <time>2020-09-17T09:33:40Z</time>
      </trkpt>
      <trkpt lat="45.39293" lon="3.37223">
        <ele>426.1</ele>
        <time>2020-09-17T09:33:41Z</time>
      </trkpt>
      <trkpt lat="45.39294" lon="3.37224">
        <ele>426.1</ele>
        <time>2020-09-17T09:33:42Z</time>
      </trkpt>
      <trkpt lat="45.39294" lon="3.37225">
        <ele>426</ele>
        <time>2020-09-17T09:33:43Z</time>
      </trkpt>
      <trkpt lat="45.39294" lon="3.37227">
        <ele>426</ele>
        <time>2020-09-17T09:33:44Z</time>
      </trkpt>
      <trkpt lat="45.39295" lon="3.37228">
        <ele>426</ele>
        <time>2020-09-17T09:33:45Z</time>
      </trkpt>
      <trkpt lat="45.39296" lon="3.3723">
        <ele>426</ele>
        <time>2020-09-17T09:33:46Z</time>
      </trkpt>
      <trkpt lat="45.39296" lon="3.37231">
        <ele>426</ele>
        <time>2020-09-17T09:33:47Z</time>
      </trkpt>
      <trkpt lat="45.39297" lon="3.37233">
        <ele>426</ele>
        <time>2020-09-17T09:33:48Z</time>
      </trkpt>
      <trkpt lat="45.39297" lon="3.37234">
        <ele>426</ele>
        <time>2020-09-17T09:33:49Z</time>
      </trkpt>
      <trkpt lat="45.39298" lon="3.37236">
        <ele>426</ele>
        <time>2020-09-17T09:33:50Z</time>
      </trkpt>
      <trkpt lat="45.39299" lon="3.37237">
        <ele>426</ele>
        <time>2020-09-17T09:33:51Z</time>
      </trkpt>
      <trkpt lat="45.39299" lon="3.37238">
        <ele>426</ele>
        <time>2020-09-17T09:33:52Z</time>
      </trkpt>
      <trkpt lat="45.393" lon="3.3724">
        <ele>425.9</ele>
        <time>2020-09-17T09:33:53Z</time>
      </trkpt>
      <trkpt lat="45.393" lon="3.37241">
        <ele>425.9</ele>
        <time>2020-09-17T09:33:54Z</time>
      </trkpt>
      <trkpt lat="45.39301" lon="3.37242">
        <ele>425.9</ele>
        <time>2020-09-17T09:33:55Z</time>
      </trkpt>
      <trkpt lat="45.39302" lon="3.37244">
        <ele>425.9</ele>
        <time>2020-09-17T09:33:56Z</time>
      </trkpt>
      <trkpt lat="45.39302" lon="3.37245">
        <ele>426</ele>
        <time>2020-09-17T09:33:57Z</time>
      </trkpt>
      <trkpt lat="45.39303" lon="3.37246">
        <ele>426</ele>
        <time>2020-09-17T09:33:58Z</time>
      </trkpt>
      <trkpt lat="45.39304" lon="3.37247">
        <ele>426</ele>
        <time>2020-09-17T09:33:59Z</time>
      </trkpt>
      <trkpt lat="45.39305" lon="3.37248">
        <ele>426</ele>
        <time>2020-09-17T09:34:00Z</time>
      </trkpt>
      <trkpt lat="45.39305" lon="3.3725">
        <ele>426</ele>
        <time>2020-09-17T09:34:01Z</time>
      </trkpt>
      <trkpt lat="45.39306" lon="3.37251">
        <ele>426</ele>
        <time>2020-09-17T09:34:02Z</time>
      </trkpt>
      <trkpt lat="45.39306" lon="3.37253">
        <ele>426.1</ele>
        <time>2020-09-17T09:34:03Z</time>
      </trkpt>
      <trkpt lat="45.39307" lon="3.37254">
        <ele>426.2</ele>
        <time>2020-09-17T09:34:04Z</time>
      </trkpt>
      <trkpt lat="45.39308" lon="3.37256">
        <ele>426.3</ele>
        <time>2020-09-17T09:34:05Z</time>
      </trkpt>
      <trkpt lat="45.39308" lon="3.37257">
        <ele>426.4</ele>
        <time>2020-09-17T09:34:06Z</time>
      </trkpt>
      <trkpt lat="45.39309" lon="3.37259">
        <ele>426.4</ele>
        <time>2020-09-17T09:34:07Z</time>
      </trkpt>
      <trkpt lat="45.39309" lon="3.3726">
        <ele>426.5</ele>
        <time>2020-09-17T09:34:08Z</time>
      </trkpt>
      <trkpt lat="45.3931" lon="3.37262">
        <ele>426.5</ele>
        <time>2020-09-17T09:34:09Z</time>
      </trkpt>
      <trkpt lat="45.3931" lon="3.37263">
        <ele>426.6</ele>
        <time>2020-09-17T09:34:10Z</time>
      </trkpt>
      <trkpt lat="45.39311" lon="3.37265">
        <ele>426.6</ele>
        <time>2020-09-17T09:34:11Z</time>
      </trkpt>
      <trkpt lat="45.39311" lon="3.37266">
        <ele>426.6</ele>
        <time>2020-09-17T09:34:12Z</time>
      </trkpt>
      <trkpt lat="45.39312" lon="3.37268">
        <ele>426.7</ele>
        <time>2020-09-17T09:34:13Z</time>
      </trkpt>
      <trkpt lat="45.39313" lon="3.37269">
        <ele>426.8</ele>
        <time>2020-09-17T09:34:14Z</time>
      </trkpt>
      <trkpt lat="45.39314" lon="3.3727">
        <ele>426.9</ele>
        <time>2020-09-17T09:34:15Z</time>
      </trkpt>
      <trkpt lat="45.39314" lon="3.37272">
        <ele>426.9</ele>
        <time>2020-09-17T09:34:16Z</time>
      </trkpt>
      <trkpt lat="45.39315" lon="3.37273">
        <ele>426.9</ele>
        <time>2020-09-17T09:34:17Z</time>
      </trkpt>
      <trkpt lat="45.39315" lon="3.37275">
        <ele>426.9</ele>
        <time>2020-09-17T09:34:18Z</time>
      </trkpt>
      <trkpt lat="45.39316" lon="3.37276">
        <ele>426.9</ele>
        <time>2020-09-17T09:34:19Z</time>
      </trkpt>
      <trkpt lat="45.39316" lon="3.37278">
        <ele>426.9</ele>
        <time>2020-09-17T09:34:20Z</time>
      </trkpt>
      <trkpt lat="45.39317" lon="3.3728">
        <ele>426.9</ele>
        <time>2020-09-17T09:34:21Z</time>
      </trkpt>
      <trkpt lat="45.39318" lon="3.37281">
        <ele>427</ele>
        <time>2020-09-17T09:34:22Z</time>
      </trkpt>
      <trkpt lat="45.39318" lon="3.37283">
        <ele>427</ele>
        <time>2020-09-17T09:34:23Z</time>
      </trkpt>
      <trkpt lat="45.39319" lon="3.37284">
        <ele>427</ele>
        <time>2020-09-17T09:34:24Z</time>
      </trkpt>
      <trkpt lat="45.39319" lon="3.37286">
        <ele>427</ele>
        <time>2020-09-17T09:34:25Z</time>
      </trkpt>
      <trkpt lat="45.3932" lon="3.37287">
        <ele>427.1</ele>
        <time>2020-09-17T09:34:26Z</time>
      </trkpt>
      <trkpt lat="45.3932" lon="3.37289">
        <ele>427</ele>
        <time>2020-09-17T09:34:27Z</time>
      </trkpt>
      <trkpt lat="45.39321" lon="3.3729">
        <ele>427</ele>
        <time>2020-09-17T09:34:28Z</time>
      </trkpt>
      <trkpt lat="45.39321" lon="3.37292">
        <ele>427</ele>
        <time>2020-09-17T09:34:29Z</time>
      </trkpt>
      <trkpt lat="45.39322" lon="3.37293">
        <ele>426.9</ele>
        <time>2020-09-17T09:34:30Z</time>
      </trkpt>
      <trkpt lat="45.39322" lon="3.37295">
        <ele>426.9</ele>
        <time>2020-09-17T09:34:31Z</time>
      </trkpt>
      <trkpt lat="45.39323" lon="3.37296">
        <ele>426.8</ele>
        <time>2020-09-17T09:34:32Z</time>
      </trkpt>
      <trkpt lat="45.39323" lon="3.37297">
        <ele>426.8</ele>
        <time>2020-09-17T09:34:33Z</time>
      </trkpt>
      <trkpt lat="45.39323" lon="3.37298">
        <ele>426.8</ele>
        <time>2020-09-17T09:34:34Z</time>
      </trkpt>
      <trkpt lat="45.39323" lon="3.37299">
        <ele>426.7</ele>
        <time>2020-09-17T09:34:35Z</time>
      </trkpt>
      <trkpt lat="45.39323" lon="3.37299">
        <ele>426.6</ele>
        <time>2020-09-17T09:34:36Z</time>
      </trkpt>
      <trkpt lat="45.39323" lon="3.373">
        <ele>426.6</ele>
        <time>2020-09-17T09:34:37Z</time>
      </trkpt>
      <trkpt lat="45.39323" lon="3.373">
        <ele>426.6</ele>
        <time>2020-09-17T09:34:38Z</time>
      </trkpt>
      <trkpt lat="45.39322" lon="3.37301">
        <ele>426.5</ele>
        <time>2020-09-17T09:34:39Z</time>
      </trkpt>
      <trkpt lat="45.39322" lon="3.37301">
        <ele>426.5</ele>
        <time>2020-09-17T09:34:40Z</time>
      </trkpt>
      <trkpt lat="45.39322" lon="3.37302">
        <ele>426.5</ele>
        <time>2020-09-17T09:34:41Z</time>
      </trkpt>
      <trkpt lat="45.39323" lon="3.37303">
        <ele>426.4</ele>
        <time>2020-09-17T09:34:42Z</time>
      </trkpt>
      <trkpt lat="45.39323" lon="3.37304">
        <ele>426.4</ele>
        <time>2020-09-17T09:34:43Z</time>
      </trkpt>
      <trkpt lat="45.39323" lon="3.37304">
        <ele>426.3</ele>
        <time>2020-09-17T09:34:44Z</time>
      </trkpt>
      <trkpt lat="45.39323" lon="3.37304">
        <ele>426.3</ele>
        <time>2020-09-17T09:34:45Z</time>
      </trkpt>
      <trkpt lat="45.39323" lon="3.37304">
        <ele>426.3</ele>
        <time>2020-09-17T09:34:46Z</time>
      </trkpt>
      <trkpt lat="45.39323" lon="3.37304">
        <ele>426.3</ele>
        <time>2020-09-17T09:34:47Z</time>
      </trkpt>
      <trkpt lat="45.39323" lon="3.37304">
        <ele>426.3</ele>
        <time>2020-09-17T09:34:48Z</time>
      </trkpt>
      <trkpt lat="45.39323" lon="3.37304">
        <ele>426.3</ele>
        <time>2020-09-17T09:34:49Z</time>
      </trkpt>
      <trkpt lat="45.39323" lon="3.37304">
        <ele>426.4</ele>
        <time>2020-09-17T09:34:50Z</time>
      </trkpt>
      <trkpt lat="45.39323" lon="3.37304">
        <ele>426.4</ele>
        <time>2020-09-17T09:34:51Z</time>
      </trkpt>
      <trkpt lat="45.39323" lon="3.37304">
        <ele>426.4</ele>
        <time>2020-09-17T09:34:52Z</time>
      </trkpt>
      <trkpt lat="45.39323" lon="3.37304">
        <ele>426.4</ele>
        <time>2020-09-17T09:34:53Z</time>
      </trkpt>
      <trkpt lat="45.39323" lon="3.37305">
        <ele>426.3</ele>
        <time>2020-09-17T09:34:54Z</time>
      </trkpt>
      <trkpt lat="45.39323" lon="3.37305">
        <ele>426.3</ele>
        <time>2020-09-17T09:34:55Z</time>
      </trkpt>
      <trkpt lat="45.39323" lon="3.37305">
        <ele>426.4</ele>
        <time>2020-09-17T09:34:56Z</time>
      </trkpt>
      <trkpt lat="45.39323" lon="3.37305">
        <ele>426.4</ele>
        <time>2020-09-17T09:34:57Z</time>
      </trkpt>
      <trkpt lat="45.39323" lon="3.37304">
        <ele>426.4</ele>
        <time>2020-09-17T09:34:58Z</time>
      </trkpt>
      <trkpt lat="45.39324" lon="3.37304">
        <ele>426.4</ele>
        <time>2020-09-17T09:34:59Z</time>
      </trkpt>
      <trkpt lat="45.39324" lon="3.37304">
        <ele>426.4</ele>
        <time>2020-09-17T09:35:00Z</time>
      </trkpt>
      <trkpt lat="45.39324" lon="3.37303">
        <ele>426.5</ele>
        <time>2020-09-17T09:35:01Z</time>
      </trkpt>
      <trkpt lat="45.39325" lon="3.37303">
        <ele>426.6</ele>
        <time>2020-09-17T09:35:02Z</time>
      </trkpt>
      <trkpt lat="45.39326" lon="3.37302">
        <ele>426.8</ele>
        <time>2020-09-17T09:35:03Z</time>
      </trkpt>
      <trkpt lat="45.39327" lon="3.37301">
        <ele>426.9</ele>
        <time>2020-09-17T09:35:04Z</time>
      </trkpt>
      <trkpt lat="45.39327" lon="3.373">
        <ele>427.1</ele>
        <time>2020-09-17T09:35:05Z</time>
      </trkpt>
      <trkpt lat="45.39328" lon="3.37299">
        <ele>427.2</ele>
        <time>2020-09-17T09:35:06Z</time>
      </trkpt>
      <trkpt lat="45.39329" lon="3.37298">
        <ele>427.4</ele>
        <time>2020-09-17T09:35:07Z</time>
      </trkpt>
      <trkpt lat="45.3933" lon="3.37297">
        <ele>427.5</ele>
        <time>2020-09-17T09:35:08Z</time>
      </trkpt>
      <trkpt lat="45.39331" lon="3.37297">
        <ele>427.7</ele>
        <time>2020-09-17T09:35:09Z</time>
      </trkpt>
      <trkpt lat="45.39332" lon="3.37297">
        <ele>427.8</ele>
        <time>2020-09-17T09:35:10Z</time>
      </trkpt>
      <trkpt lat="45.39333" lon="3.37296">
        <ele>427.9</ele>
        <time>2020-09-17T09:35:11Z</time>
      </trkpt>
      <trkpt lat="45.39333" lon="3.37296">
        <ele>428</ele>
        <time>2020-09-17T09:35:12Z</time>
      </trkpt>
      <trkpt lat="45.39334" lon="3.37295">
        <ele>428.6</ele>
        <time>2020-09-17T09:35:13Z</time>
      </trkpt>
      <trkpt lat="45.39335" lon="3.37295">
        <ele>429.1</ele>
        <time>2020-09-17T09:35:14Z</time>
      </trkpt>
      <trkpt lat="45.39336" lon="3.37294">
        <ele>429.5</ele>
        <time>2020-09-17T09:35:15Z</time>
      </trkpt>
      <trkpt lat="45.39336" lon="3.37294">
        <ele>430</ele>
        <time>2020-09-17T09:35:16Z</time>
      </trkpt>
      <trkpt lat="45.39337" lon="3.37294">
        <ele>430.3</ele>
        <time>2020-09-17T09:35:17Z</time>
      </trkpt>
      <trkpt lat="45.39337" lon="3.37293">
        <ele>430.8</ele>
        <time>2020-09-17T09:35:18Z</time>
      </trkpt>
      <trkpt lat="45.39338" lon="3.37292">
        <ele>431.2</ele>
        <time>2020-09-17T09:35:19Z</time>
      </trkpt>
      <trkpt lat="45.39338" lon="3.37292">
        <ele>431.5</ele>
        <time>2020-09-17T09:35:20Z</time>
      </trkpt>
      <trkpt lat="45.39338" lon="3.37291">
        <ele>431.8</ele>
        <time>2020-09-17T09:35:21Z</time>
      </trkpt>
      <trkpt lat="45.39338" lon="3.3729">
        <ele>432</ele>
        <time>2020-09-17T09:35:22Z</time>
      </trkpt>
      <trkpt lat="45.39338" lon="3.37289">
        <ele>432.1</ele>
        <time>2020-09-17T09:35:23Z</time>
      </trkpt>
      <trkpt lat="45.39338" lon="3.37288">
        <ele>432.3</ele>
        <time>2020-09-17T09:35:24Z</time>
      </trkpt>
      <trkpt lat="45.39338" lon="3.37287">
        <ele>432.3</ele>
        <time>2020-09-17T09:35:25Z</time>
      </trkpt>
      <trkpt lat="45.39338" lon="3.37286">
        <ele>432.5</ele>
        <time>2020-09-17T09:35:26Z</time>
      </trkpt>
      <trkpt lat="45.39338" lon="3.37285">
        <ele>432.6</ele>
        <time>2020-09-17T09:35:27Z</time>
      </trkpt>
      <trkpt lat="45.39338" lon="3.37284">
        <ele>432.8</ele>
        <time>2020-09-17T09:35:28Z</time>
      </trkpt>
      <trkpt lat="45.39338" lon="3.37283">
        <ele>432.8</ele>
        <time>2020-09-17T09:35:29Z</time>
      </trkpt>
      <trkpt lat="45.39338" lon="3.37282">
        <ele>433</ele>
        <time>2020-09-17T09:35:30Z</time>
      </trkpt>
      <trkpt lat="45.39338" lon="3.37281">
        <ele>433.1</ele>
        <time>2020-09-17T09:35:31Z</time>
      </trkpt>
      <trkpt lat="45.39338" lon="3.3728">
        <ele>433.5</ele>
        <time>2020-09-17T09:35:32Z</time>
      </trkpt>
      <trkpt lat="45.39338" lon="3.37279">
        <ele>433.8</ele>
        <time>2020-09-17T09:35:33Z</time>
      </trkpt>
      <trkpt lat="45.39339" lon="3.37278">
        <ele>434.2</ele>
        <time>2020-09-17T09:35:34Z</time>
      </trkpt>
      <trkpt lat="45.39339" lon="3.37277">
        <ele>434.5</ele>
        <time>2020-09-17T09:35:35Z</time>
      </trkpt>
      <trkpt lat="45.39339" lon="3.37276">
        <ele>434.7</ele>
        <time>2020-09-17T09:35:36Z</time>
      </trkpt>
      <trkpt lat="45.39339" lon="3.37275">
        <ele>435</ele>
        <time>2020-09-17T09:35:37Z</time>
      </trkpt>
      <trkpt lat="45.39339" lon="3.37274">
        <ele>435.3</ele>
        <time>2020-09-17T09:35:38Z</time>
      </trkpt>
      <trkpt lat="45.3934" lon="3.37273">
        <ele>435.5</ele>
        <time>2020-09-17T09:35:39Z</time>
      </trkpt>
      <trkpt lat="45.3934" lon="3.37272">
        <ele>435.6</ele>
        <time>2020-09-17T09:35:40Z</time>
      </trkpt>
      <trkpt lat="45.3934" lon="3.37271">
        <ele>435.7</ele>
        <time>2020-09-17T09:35:41Z</time>
      </trkpt>
      <trkpt lat="45.3934" lon="3.3727">
        <ele>435.9</ele>
        <time>2020-09-17T09:35:42Z</time>
      </trkpt>
      <trkpt lat="45.39339" lon="3.37269">
        <ele>435.9</ele>
        <time>2020-09-17T09:35:43Z</time>
      </trkpt>
      <trkpt lat="45.39339" lon="3.37268">
        <ele>436</ele>
        <time>2020-09-17T09:35:44Z</time>
      </trkpt>
      <trkpt lat="45.39339" lon="3.37267">
        <ele>436.1</ele>
        <time>2020-09-17T09:35:45Z</time>
      </trkpt>
      <trkpt lat="45.39339" lon="3.37266">
        <ele>436.2</ele>
        <time>2020-09-17T09:35:46Z</time>
      </trkpt>
      <trkpt lat="45.39339" lon="3.37265">
        <ele>436.4</ele>
        <time>2020-09-17T09:35:47Z</time>
      </trkpt>
      <trkpt lat="45.39339" lon="3.37264">
        <ele>436.5</ele>
        <time>2020-09-17T09:35:48Z</time>
      </trkpt>
      <trkpt lat="45.3934" lon="3.37263">
        <ele>436.7</ele>
        <time>2020-09-17T09:35:49Z</time>
      </trkpt>
      <trkpt lat="45.39339" lon="3.37262">
        <ele>436.7</ele>
        <time>2020-09-17T09:35:50Z</time>
      </trkpt>
      <trkpt lat="45.39339" lon="3.37261">
        <ele>436.6</ele>
        <time>2020-09-17T09:35:51Z</time>
      </trkpt>
      <trkpt lat="45.39339" lon="3.37261">
        <ele>436.6</ele>
        <time>2020-09-17T09:35:52Z</time>
      </trkpt>
      <trkpt lat="45.39339" lon="3.3726">
        <ele>436.6</ele>
        <time>2020-09-17T09:35:53Z</time>
      </trkpt>
      <trkpt lat="45.39339" lon="3.37259">
        <ele>436.6</ele>
        <time>2020-09-17T09:35:54Z</time>
      </trkpt>
      <trkpt lat="45.39339" lon="3.37257">
        <ele>436.7</ele>
        <time>2020-09-17T09:35:55Z</time>
      </trkpt>
      <trkpt lat="45.39339" lon="3.37256">
        <ele>436.9</ele>
        <time>2020-09-17T09:35:56Z</time>
      </trkpt>
      <trkpt lat="45.39338" lon="3.37255">
        <ele>436.7</ele>
        <time>2020-09-17T09:35:57Z</time>
      </trkpt>
      <trkpt lat="45.39338" lon="3.37254">
        <ele>436.7</ele>
        <time>2020-09-17T09:35:58Z</time>
      </trkpt>
      <trkpt lat="45.39338" lon="3.37253">
        <ele>436.5</ele>
        <time>2020-09-17T09:35:59Z</time>
      </trkpt>
      <trkpt lat="45.39338" lon="3.37252">
        <ele>436.5</ele>
        <time>2020-09-17T09:36:00Z</time>
      </trkpt>
      <trkpt lat="45.39338" lon="3.37251">
        <ele>436.7</ele>
        <time>2020-09-17T09:36:01Z</time>
      </trkpt>
      <trkpt lat="45.39338" lon="3.3725">
        <ele>436.8</ele>
        <time>2020-09-17T09:36:02Z</time>
      </trkpt>
      <trkpt lat="45.39338" lon="3.37249">
        <ele>436.8</ele>
        <time>2020-09-17T09:36:03Z</time>
      </trkpt>
      <trkpt lat="45.39338" lon="3.37248">
        <ele>437</ele>
        <time>2020-09-17T09:36:04Z</time>
      </trkpt>
      <trkpt lat="45.39337" lon="3.37246">
        <ele>437</ele>
        <time>2020-09-17T09:36:05Z</time>
      </trkpt>
      <trkpt lat="45.39337" lon="3.37245">
        <ele>437</ele>
        <time>2020-09-17T09:36:06Z</time>
      </trkpt>
      <trkpt lat="45.39337" lon="3.37244">
        <ele>437.1</ele>
        <time>2020-09-17T09:36:07Z</time>
      </trkpt>
      <trkpt lat="45.39337" lon="3.37243">
        <ele>437.3</ele>
        <time>2020-09-17T09:36:08Z</time>
      </trkpt>
      <trkpt lat="45.39337" lon="3.37242">
        <ele>437.3</ele>
        <time>2020-09-17T09:36:09Z</time>
      </trkpt>
      <trkpt lat="45.39337" lon="3.37241">
        <ele>437.5</ele>
        <time>2020-09-17T09:36:10Z</time>
      </trkpt>
      <trkpt lat="45.39337" lon="3.3724">
        <ele>437.6</ele>
        <time>2020-09-17T09:36:11Z</time>
      </trkpt>
      <trkpt lat="45.39337" lon="3.37239">
        <ele>437.8</ele>
        <time>2020-09-17T09:36:12Z</time>
      </trkpt>
      <trkpt lat="45.39337" lon="3.37237">
        <ele>437.9</ele>
        <time>2020-09-17T09:36:13Z</time>
      </trkpt>
      <trkpt lat="45.39337" lon="3.37236">
        <ele>438.2</ele>
        <time>2020-09-17T09:36:14Z</time>
      </trkpt>
      <trkpt lat="45.39337" lon="3.37235">
        <ele>438.4</ele>
        <time>2020-09-17T09:36:15Z</time>
      </trkpt>
      <trkpt lat="45.39337" lon="3.37234">
        <ele>438.7</ele>
        <time>2020-09-17T09:36:16Z</time>
      </trkpt>
      <trkpt lat="45.39337" lon="3.37233">
        <ele>439</ele>
        <time>2020-09-17T09:36:17Z</time>
      </trkpt>
      <trkpt lat="45.39337" lon="3.37232">
        <ele>439.3</ele>
        <time>2020-09-17T09:36:18Z</time>
      </trkpt>
      <trkpt lat="45.39337" lon="3.37231">
        <ele>439.5</ele>
        <time>2020-09-17T09:36:19Z</time>
      </trkpt>
      <trkpt lat="45.39337" lon="3.3723">
        <ele>439.6</ele>
        <time>2020-09-17T09:36:20Z</time>
      </trkpt>
      <trkpt lat="45.39338" lon="3.37228">
        <ele>439.9</ele>
        <time>2020-09-17T09:36:21Z</time>
      </trkpt>
      <trkpt lat="45.39338" lon="3.37227">
        <ele>440.1</ele>
        <time>2020-09-17T09:36:22Z</time>
      </trkpt>
      <trkpt lat="45.39338" lon="3.37226">
        <ele>440.5</ele>
        <time>2020-09-17T09:36:23Z</time>
      </trkpt>
      <trkpt lat="45.39338" lon="3.37225">
        <ele>440.7</ele>
        <time>2020-09-17T09:36:24Z</time>
      </trkpt>
      <trkpt lat="45.39338" lon="3.37224">
        <ele>441</ele>
        <time>2020-09-17T09:36:25Z</time>
      </trkpt>
      <trkpt lat="45.39338" lon="3.37222">
        <ele>441.3</ele>
        <time>2020-09-17T09:36:26Z</time>
      </trkpt>
      <trkpt lat="45.39338" lon="3.37221">
        <ele>441.5</ele>
        <time>2020-09-17T09:36:27Z</time>
      </trkpt>
      <trkpt lat="45.39338" lon="3.3722">
        <ele>441.8</ele>
        <time>2020-09-17T09:36:28Z</time>
      </trkpt>
      <trkpt lat="45.39338" lon="3.37219">
        <ele>442</ele>
        <time>2020-09-17T09:36:29Z</time>
      </trkpt>
      <trkpt lat="45.39338" lon="3.37218">
        <ele>442.1</ele>
        <time>2020-09-17T09:36:30Z</time>
      </trkpt>
      <trkpt lat="45.39338" lon="3.37217">
        <ele>442.2</ele>
        <time>2020-09-17T09:36:31Z</time>
      </trkpt>
      <trkpt lat="45.39338" lon="3.37216">
        <ele>442.2</ele>
        <time>2020-09-17T09:36:32Z</time>
      </trkpt>
      <trkpt lat="45.39337" lon="3.37215">
        <ele>442.2</ele>
        <time>2020-09-17T09:36:33Z</time>
      </trkpt>
      <trkpt lat="45.39337" lon="3.37215">
        <ele>442.2</ele>
        <time>2020-09-17T09:36:34Z</time>
      </trkpt>
      <trkpt lat="45.39336" lon="3.37214">
        <ele>442</ele>
        <time>2020-09-17T09:36:35Z</time>
      </trkpt>
      <trkpt lat="45.39336" lon="3.37213">
        <ele>441.9</ele>
        <time>2020-09-17T09:36:36Z</time>
      </trkpt>
      <trkpt lat="45.39335" lon="3.37212">
        <ele>441.9</ele>
        <time>2020-09-17T09:36:37Z</time>
      </trkpt>
      <trkpt lat="45.39335" lon="3.37211">
        <ele>441.9</ele>
        <time>2020-09-17T09:36:38Z</time>
      </trkpt>
      <trkpt lat="45.39335" lon="3.3721">
        <ele>441.7</ele>
        <time>2020-09-17T09:36:39Z</time>
      </trkpt>
      <trkpt lat="45.39334" lon="3.37209">
        <ele>441.7</ele>
        <time>2020-09-17T09:36:40Z</time>
      </trkpt>
      <trkpt lat="45.39334" lon="3.37208">
        <ele>441.6</ele>
        <time>2020-09-17T09:36:41Z</time>
      </trkpt>
      <trkpt lat="45.39333" lon="3.37207">
        <ele>441.7</ele>
        <time>2020-09-17T09:36:42Z</time>
      </trkpt>
      <trkpt lat="45.39333" lon="3.37206">
        <ele>441.7</ele>
        <time>2020-09-17T09:36:43Z</time>
      </trkpt>
      <trkpt lat="45.39332" lon="3.37205">
        <ele>441.7</ele>
        <time>2020-09-17T09:36:44Z</time>
      </trkpt>
      <trkpt lat="45.39332" lon="3.37204">
        <ele>441.7</ele>
        <time>2020-09-17T09:36:45Z</time>
      </trkpt>
      <trkpt lat="45.39331" lon="3.37203">
        <ele>441.8</ele>
        <time>2020-09-17T09:36:46Z</time>
      </trkpt>
      <trkpt lat="45.39331" lon="3.37201">
        <ele>441.7</ele>
        <time>2020-09-17T09:36:47Z</time>
      </trkpt>
      <trkpt lat="45.3933" lon="3.372">
        <ele>441.7</ele>
        <time>2020-09-17T09:36:48Z</time>
      </trkpt>
      <trkpt lat="45.3933" lon="3.37199">
        <ele>441.7</ele>
        <time>2020-09-17T09:36:49Z</time>
      </trkpt>
      <trkpt lat="45.3933" lon="3.37198">
        <ele>441.8</ele>
        <time>2020-09-17T09:36:50Z</time>
      </trkpt>
      <trkpt lat="45.39329" lon="3.37197">
        <ele>441.7</ele>
        <time>2020-09-17T09:36:51Z</time>
      </trkpt>
      <trkpt lat="45.39329" lon="3.37196">
        <ele>441.7</ele>
        <time>2020-09-17T09:36:52Z</time>
      </trkpt>
      <trkpt lat="45.39329" lon="3.37194">
        <ele>441.7</ele>
        <time>2020-09-17T09:36:53Z</time>
      </trkpt>
      <trkpt lat="45.39328" lon="3.37193">
        <ele>441.8</ele>
        <time>2020-09-17T09:36:54Z</time>
      </trkpt>
      <trkpt lat="45.39328" lon="3.37192">
        <ele>441.8</ele>
        <time>2020-09-17T09:36:55Z</time>
      </trkpt>
      <trkpt lat="45.39328" lon="3.37191">
        <ele>441.8</ele>
        <time>2020-09-17T09:36:56Z</time>
      </trkpt>
      <trkpt lat="45.39327" lon="3.37189">
        <ele>441.8</ele>
        <time>2020-09-17T09:36:57Z</time>
      </trkpt>
      <trkpt lat="45.39327" lon="3.37188">
        <ele>441.9</ele>
        <time>2020-09-17T09:36:58Z</time>
      </trkpt>
      <trkpt lat="45.39327" lon="3.37187">
        <ele>442.1</ele>
        <time>2020-09-17T09:36:59Z</time>
      </trkpt>
      <trkpt lat="45.39327" lon="3.37186">
        <ele>442</ele>
        <time>2020-09-17T09:37:00Z</time>
      </trkpt>
      <trkpt lat="45.39326" lon="3.37185">
        <ele>442.2</ele>
        <time>2020-09-17T09:37:01Z</time>
      </trkpt>
      <trkpt lat="45.39326" lon="3.37184">
        <ele>442.4</ele>
        <time>2020-09-17T09:37:02Z</time>
      </trkpt>
      <trkpt lat="45.39326" lon="3.37183">
        <ele>442.5</ele>
        <time>2020-09-17T09:37:03Z</time>
      </trkpt>
      <trkpt lat="45.39327" lon="3.37182">
        <ele>443</ele>
        <time>2020-09-17T09:37:04Z</time>
      </trkpt>
      <trkpt lat="45.39327" lon="3.37181">
        <ele>443.3</ele>
        <time>2020-09-17T09:37:05Z</time>
      </trkpt>
      <trkpt lat="45.39327" lon="3.3718">
        <ele>443.8</ele>
        <time>2020-09-17T09:37:06Z</time>
      </trkpt>
      <trkpt lat="45.39327" lon="3.37179">
        <ele>443.9</ele>
        <time>2020-09-17T09:37:07Z</time>
      </trkpt>
      <trkpt lat="45.39327" lon="3.37178">
        <ele>444.2</ele>
        <time>2020-09-17T09:37:08Z</time>
      </trkpt>
      <trkpt lat="45.39328" lon="3.37178">
        <ele>444.9</ele>
        <time>2020-09-17T09:37:09Z</time>
      </trkpt>
      <trkpt lat="45.39329" lon="3.37178">
        <ele>445.4</ele>
        <time>2020-09-17T09:37:10Z</time>
      </trkpt>
      <trkpt lat="45.39329" lon="3.37178">
        <ele>445.8</ele>
        <time>2020-09-17T09:37:11Z</time>
      </trkpt>
      <trkpt lat="45.3933" lon="3.37179">
        <ele>445.7</ele>
        <time>2020-09-17T09:37:12Z</time>
      </trkpt>
      <trkpt lat="45.3933" lon="3.37179">
        <ele>445.7</ele>
        <time>2020-09-17T09:37:13Z</time>
      </trkpt>
      <trkpt lat="45.3933" lon="3.3718">
        <ele>445.7</ele>
        <time>2020-09-17T09:37:14Z</time>
      </trkpt>
      <trkpt lat="45.3933" lon="3.37181">
        <ele>445.5</ele>
        <time>2020-09-17T09:37:15Z</time>
      </trkpt>
      <trkpt lat="45.3933" lon="3.37182">
        <ele>445.5</ele>
        <time>2020-09-17T09:37:16Z</time>
      </trkpt>
      <trkpt lat="45.3933" lon="3.37183">
        <ele>445.4</ele>
        <time>2020-09-17T09:37:17Z</time>
      </trkpt>
      <trkpt lat="45.3933" lon="3.37184">
        <ele>445.2</ele>
        <time>2020-09-17T09:37:18Z</time>
      </trkpt>
      <trkpt lat="45.39331" lon="3.37185">
        <ele>445.2</ele>
        <time>2020-09-17T09:37:19Z</time>
      </trkpt>
      <trkpt lat="45.39331" lon="3.37186">
        <ele>445.1</ele>
        <time>2020-09-17T09:37:20Z</time>
      </trkpt>
      <trkpt lat="45.39331" lon="3.37186">
        <ele>445.2</ele>
        <time>2020-09-17T09:37:21Z</time>
      </trkpt>
      <trkpt lat="45.39331" lon="3.37187">
        <ele>445.2</ele>
        <time>2020-09-17T09:37:22Z</time>
      </trkpt>
      <trkpt lat="45.39332" lon="3.37188">
        <ele>445.4</ele>
        <time>2020-09-17T09:37:23Z</time>
      </trkpt>
      <trkpt lat="45.39332" lon="3.37189">
        <ele>445.4</ele>
        <time>2020-09-17T09:37:24Z</time>
      </trkpt>
      <trkpt lat="45.39333" lon="3.3719">
        <ele>445.6</ele>
        <time>2020-09-17T09:37:25Z</time>
      </trkpt>
      <trkpt lat="45.39333" lon="3.37191">
        <ele>445.7</ele>
        <time>2020-09-17T09:37:26Z</time>
      </trkpt>
      <trkpt lat="45.39334" lon="3.37191">
        <ele>445.8</ele>
        <time>2020-09-17T09:37:27Z</time>
      </trkpt>
      <trkpt lat="45.39334" lon="3.37192">
        <ele>445.9</ele>
        <time>2020-09-17T09:37:28Z</time>
      </trkpt>
      <trkpt lat="45.39335" lon="3.37193">
        <ele>446</ele>
        <time>2020-09-17T09:37:29Z</time>
      </trkpt>
      <trkpt lat="45.39335" lon="3.37193">
        <ele>446.2</ele>
        <time>2020-09-17T09:37:30Z</time>
      </trkpt>
      <trkpt lat="45.39336" lon="3.37194">
        <ele>446.3</ele>
        <time>2020-09-17T09:37:31Z</time>
      </trkpt>
      <trkpt lat="45.39336" lon="3.37195">
        <ele>446.4</ele>
        <time>2020-09-17T09:37:32Z</time>
      </trkpt>
      <trkpt lat="45.39337" lon="3.37196">
        <ele>446.6</ele>
        <time>2020-09-17T09:37:33Z</time>
      </trkpt>
      <trkpt lat="45.39338" lon="3.37197">
        <ele>446.7</ele>
        <time>2020-09-17T09:37:34Z</time>
      </trkpt>
      <trkpt lat="45.39338" lon="3.37198">
        <ele>446.8</ele>
        <time>2020-09-17T09:37:35Z</time>
      </trkpt>
      <trkpt lat="45.39339" lon="3.37198">
        <ele>447.1</ele>
        <time>2020-09-17T09:37:36Z</time>
      </trkpt>
      <trkpt lat="45.3934" lon="3.37198">
        <ele>447.3</ele>
        <time>2020-09-17T09:37:37Z</time>
      </trkpt>
      <trkpt lat="45.3934" lon="3.37199">
        <ele>447.6</ele>
        <time>2020-09-17T09:37:38Z</time>
      </trkpt>
      <trkpt lat="45.39341" lon="3.372">
        <ele>447.8</ele>
        <time>2020-09-17T09:37:39Z</time>
      </trkpt>
      <trkpt lat="45.39342" lon="3.372">
        <ele>448.1</ele>
        <time>2020-09-17T09:37:40Z</time>
      </trkpt>
      <trkpt lat="45.39342" lon="3.37201">
        <ele>448.4</ele>
        <time>2020-09-17T09:37:41Z</time>
      </trkpt>
      <trkpt lat="45.39343" lon="3.37201">
        <ele>448.6</ele>
        <time>2020-09-17T09:37:42Z</time>
      </trkpt>
      <trkpt lat="45.39344" lon="3.37201">
        <ele>448.9</ele>
        <time>2020-09-17T09:37:43Z</time>
      </trkpt>
      <trkpt lat="45.39344" lon="3.37202">
        <ele>449.1</ele>
        <time>2020-09-17T09:37:44Z</time>
      </trkpt>
      <trkpt lat="45.39345" lon="3.37202">
        <ele>449.2</ele>
        <time>2020-09-17T09:37:45Z</time>
      </trkpt>
      <trkpt lat="45.39345" lon="3.37203">
        <ele>449.4</ele>
        <time>2020-09-17T09:37:46Z</time>
      </trkpt>
      <trkpt lat="45.39346" lon="3.37203">
        <ele>449.7</ele>
        <time>2020-09-17T09:37:47Z</time>
      </trkpt>
      <trkpt lat="45.39346" lon="3.37204">
        <ele>450</ele>
        <time>2020-09-17T09:37:48Z</time>
      </trkpt>
      <trkpt lat="45.39347" lon="3.37204">
        <ele>450.2</ele>
        <time>2020-09-17T09:37:49Z</time>
      </trkpt>
      <trkpt lat="45.39348" lon="3.37204">
        <ele>450.6</ele>
        <time>2020-09-17T09:37:50Z</time>
      </trkpt>
      <trkpt lat="45.39348" lon="3.37205">
        <ele>450.8</ele>
        <time>2020-09-17T09:37:51Z</time>
      </trkpt>
      <trkpt lat="45.39349" lon="3.37205">
        <ele>451.1</ele>
        <time>2020-09-17T09:37:52Z</time>
      </trkpt>
      <trkpt lat="45.39349" lon="3.37206">
        <ele>451.4</ele>
        <time>2020-09-17T09:37:53Z</time>
      </trkpt>
      <trkpt lat="45.3935" lon="3.37206">
        <ele>451.6</ele>
        <time>2020-09-17T09:37:54Z</time>
      </trkpt>
      <trkpt lat="45.39351" lon="3.37207">
        <ele>452</ele>
        <time>2020-09-17T09:37:55Z</time>
      </trkpt>
      <trkpt lat="45.39351" lon="3.37207">
        <ele>452.3</ele>
        <time>2020-09-17T09:37:56Z</time>
      </trkpt>
      <trkpt lat="45.39352" lon="3.37207">
        <ele>452.6</ele>
        <time>2020-09-17T09:37:57Z</time>
      </trkpt>
      <trkpt lat="45.39352" lon="3.37208">
        <ele>452.9</ele>
        <time>2020-09-17T09:37:58Z</time>
      </trkpt>
      <trkpt lat="45.39353" lon="3.37208">
        <ele>453.1</ele>
        <time>2020-09-17T09:37:59Z</time>
      </trkpt>
      <trkpt lat="45.39353" lon="3.37209">
        <ele>453.4</ele>
        <time>2020-09-17T09:38:00Z</time>
      </trkpt>
      <trkpt lat="45.39354" lon="3.37209">
        <ele>453.6</ele>
        <time>2020-09-17T09:38:01Z</time>
      </trkpt>
      <trkpt lat="45.39354" lon="3.37209">
        <ele>453.9</ele>
        <time>2020-09-17T09:38:02Z</time>
      </trkpt>
      <trkpt lat="45.39355" lon="3.37209">
        <ele>454.1</ele>
        <time>2020-09-17T09:38:03Z</time>
      </trkpt>
      <trkpt lat="45.39355" lon="3.37209">
        <ele>454.4</ele>
        <time>2020-09-17T09:38:04Z</time>
      </trkpt>
      <trkpt lat="45.39356" lon="3.37209">
        <ele>454.7</ele>
        <time>2020-09-17T09:38:05Z</time>
      </trkpt>
      <trkpt lat="45.39356" lon="3.37208">
        <ele>454.9</ele>
        <time>2020-09-17T09:38:06Z</time>
      </trkpt>
      <trkpt lat="45.39356" lon="3.37207">
        <ele>455</ele>
        <time>2020-09-17T09:38:07Z</time>
      </trkpt>
      <trkpt lat="45.39356" lon="3.37207">
        <ele>454.9</ele>
        <time>2020-09-17T09:38:08Z</time>
      </trkpt>
      <trkpt lat="45.39355" lon="3.37206">
        <ele>454.7</ele>
        <time>2020-09-17T09:38:09Z</time>
      </trkpt>
      <trkpt lat="45.39355" lon="3.37205">
        <ele>454.7</ele>
        <time>2020-09-17T09:38:10Z</time>
      </trkpt>
      <trkpt lat="45.39355" lon="3.37205">
        <ele>454.6</ele>
        <time>2020-09-17T09:38:11Z</time>
      </trkpt>
      <trkpt lat="45.39354" lon="3.37204">
        <ele>454.5</ele>
        <time>2020-09-17T09:38:12Z</time>
      </trkpt>
      <trkpt lat="45.39354" lon="3.37203">
        <ele>454.4</ele>
        <time>2020-09-17T09:38:13Z</time>
      </trkpt>
      <trkpt lat="45.39354" lon="3.37203">
        <ele>454.3</ele>
        <time>2020-09-17T09:38:14Z</time>
      </trkpt>
      <trkpt lat="45.39353" lon="3.37202">
        <ele>454.2</ele>
        <time>2020-09-17T09:38:15Z</time>
      </trkpt>
      <trkpt lat="45.39353" lon="3.37201">
        <ele>454.1</ele>
        <time>2020-09-17T09:38:16Z</time>
      </trkpt>
      <trkpt lat="45.39353" lon="3.37201">
        <ele>454.1</ele>
        <time>2020-09-17T09:38:17Z</time>
      </trkpt>
      <trkpt lat="45.39353" lon="3.372">
        <ele>454</ele>
        <time>2020-09-17T09:38:18Z</time>
      </trkpt>
      <trkpt lat="45.39352" lon="3.37199">
        <ele>453.9</ele>
        <time>2020-09-17T09:38:19Z</time>
      </trkpt>
      <trkpt lat="45.39352" lon="3.37198">
        <ele>453.7</ele>
        <time>2020-09-17T09:38:20Z</time>
      </trkpt>
      <trkpt lat="45.39351" lon="3.37197">
        <ele>453.6</ele>
        <time>2020-09-17T09:38:21Z</time>
      </trkpt>
      <trkpt lat="45.39351" lon="3.37196">
        <ele>453.5</ele>
        <time>2020-09-17T09:38:22Z</time>
      </trkpt>
      <trkpt lat="45.3935" lon="3.37196">
        <ele>453.3</ele>
        <time>2020-09-17T09:38:23Z</time>
      </trkpt>
      <trkpt lat="45.3935" lon="3.37195">
        <ele>453.2</ele>
        <time>2020-09-17T09:38:24Z</time>
      </trkpt>
      <trkpt lat="45.39349" lon="3.37194">
        <ele>453.1</ele>
        <time>2020-09-17T09:38:25Z</time>
      </trkpt>
      <trkpt lat="45.39349" lon="3.37193">
        <ele>453.2</ele>
        <time>2020-09-17T09:38:26Z</time>
      </trkpt>
      <trkpt lat="45.39348" lon="3.37192">
        <ele>453.1</ele>
        <time>2020-09-17T09:38:27Z</time>
      </trkpt>
      <trkpt lat="45.39348" lon="3.37191">
        <ele>453.1</ele>
        <time>2020-09-17T09:38:28Z</time>
      </trkpt>
      <trkpt lat="45.39347" lon="3.3719">
        <ele>453.1</ele>
        <time>2020-09-17T09:38:29Z</time>
      </trkpt>
      <trkpt lat="45.39347" lon="3.37189">
        <ele>453</ele>
        <time>2020-09-17T09:38:30Z</time>
      </trkpt>
      <trkpt lat="45.39346" lon="3.37188">
        <ele>453</ele>
        <time>2020-09-17T09:38:31Z</time>
      </trkpt>
      <trkpt lat="45.39346" lon="3.37187">
        <ele>453</ele>
        <time>2020-09-17T09:38:32Z</time>
      </trkpt>
      <trkpt lat="45.39346" lon="3.37187">
        <ele>453.1</ele>
        <time>2020-09-17T09:38:33Z</time>
      </trkpt>
      <trkpt lat="45.39345" lon="3.37186">
        <ele>453.1</ele>
        <time>2020-09-17T09:38:34Z</time>
      </trkpt>
      <trkpt lat="45.39345" lon="3.37185">
        <ele>453.4</ele>
        <time>2020-09-17T09:38:35Z</time>
      </trkpt>
      <trkpt lat="45.39345" lon="3.37183">
        <ele>453.7</ele>
        <time>2020-09-17T09:38:36Z</time>
      </trkpt>
      <trkpt lat="45.39345" lon="3.37182">
        <ele>453.9</ele>
        <time>2020-09-17T09:38:37Z</time>
      </trkpt>
      <trkpt lat="45.39345" lon="3.37181">
        <ele>454.2</ele>
        <time>2020-09-17T09:38:38Z</time>
      </trkpt>
      <trkpt lat="45.39346" lon="3.3718">
        <ele>454.6</ele>
        <time>2020-09-17T09:38:39Z</time>
      </trkpt>
      <trkpt lat="45.39346" lon="3.37179">
        <ele>454.9</ele>
        <time>2020-09-17T09:38:40Z</time>
      </trkpt>
      <trkpt lat="45.39346" lon="3.37178">
        <ele>455.3</ele>
        <time>2020-09-17T09:38:41Z</time>
      </trkpt>
      <trkpt lat="45.39346" lon="3.37177">
        <ele>455.6</ele>
        <time>2020-09-17T09:38:42Z</time>
      </trkpt>
      <trkpt lat="45.39346" lon="3.37176">
        <ele>456</ele>
        <time>2020-09-17T09:38:43Z</time>
      </trkpt>
      <trkpt lat="45.39347" lon="3.37175">
        <ele>456.4</ele>
        <time>2020-09-17T09:38:44Z</time>
      </trkpt>
      <trkpt lat="45.39347" lon="3.37174">
        <ele>456.9</ele>
        <time>2020-09-17T09:38:45Z</time>
      </trkpt>
      <trkpt lat="45.39348" lon="3.37173">
        <ele>457.2</ele>
        <time>2020-09-17T09:38:46Z</time>
      </trkpt>
      <trkpt lat="45.39348" lon="3.37172">
        <ele>457.7</ele>
        <time>2020-09-17T09:38:47Z</time>
      </trkpt>
      <trkpt lat="45.39348" lon="3.37171">
        <ele>458.1</ele>
        <time>2020-09-17T09:38:48Z</time>
      </trkpt>
      <trkpt lat="45.39349" lon="3.3717">
        <ele>458.6</ele>
        <time>2020-09-17T09:38:49Z</time>
      </trkpt>
      <trkpt lat="45.39349" lon="3.37169">
        <ele>459</ele>
        <time>2020-09-17T09:38:50Z</time>
      </trkpt>
      <trkpt lat="45.39349" lon="3.37168">
        <ele>459.3</ele>
        <time>2020-09-17T09:38:51Z</time>
      </trkpt>
      <trkpt lat="45.3935" lon="3.37167">
        <ele>459.7</ele>
        <time>2020-09-17T09:38:52Z</time>
      </trkpt>
      <trkpt lat="45.3935" lon="3.37166">
        <ele>460.1</ele>
        <time>2020-09-17T09:38:53Z</time>
      </trkpt>
      <trkpt lat="45.3935" lon="3.37165">
        <ele>460.4</ele>
        <time>2020-09-17T09:38:54Z</time>
      </trkpt>
      <trkpt lat="45.39351" lon="3.37164">
        <ele>460.7</ele>
        <time>2020-09-17T09:38:55Z</time>
      </trkpt>
      <trkpt lat="45.39351" lon="3.37163">
        <ele>461</ele>
        <time>2020-09-17T09:38:56Z</time>
      </trkpt>
      <trkpt lat="45.39351" lon="3.37162">
        <ele>461.2</ele>
        <time>2020-09-17T09:38:57Z</time>
      </trkpt>
      <trkpt lat="45.39351" lon="3.37161">
        <ele>461.4</ele>
        <time>2020-09-17T09:38:58Z</time>
      </trkpt>
      <trkpt lat="45.39351" lon="3.3716">
        <ele>461.6</ele>
        <time>2020-09-17T09:38:59Z</time>
      </trkpt>
      <trkpt lat="45.39352" lon="3.3716">
        <ele>461.9</ele>
        <time>2020-09-17T09:39:00Z</time>
      </trkpt>
      <trkpt lat="45.39352" lon="3.37159">
        <ele>462.1</ele>
        <time>2020-09-17T09:39:01Z</time>
      </trkpt>
      <trkpt lat="45.39352" lon="3.37158">
        <ele>462.2</ele>
        <time>2020-09-17T09:39:02Z</time>
      </trkpt>
      <trkpt lat="45.39352" lon="3.37157">
        <ele>462.4</ele>
        <time>2020-09-17T09:39:03Z</time>
      </trkpt>
      <trkpt lat="45.39352" lon="3.37156">
        <ele>462.5</ele>
        <time>2020-09-17T09:39:04Z</time>
      </trkpt>
      <trkpt lat="45.39352" lon="3.37155">
        <ele>462.7</ele>
        <time>2020-09-17T09:39:05Z</time>
      </trkpt>
      <trkpt lat="45.39352" lon="3.37154">
        <ele>462.9</ele>
        <time>2020-09-17T09:39:06Z</time>
      </trkpt>
      <trkpt lat="45.39352" lon="3.37153">
        <ele>463</ele>
        <time>2020-09-17T09:39:07Z</time>
      </trkpt>
      <trkpt lat="45.39352" lon="3.37151">
        <ele>463.2</ele>
        <time>2020-09-17T09:39:08Z</time>
      </trkpt>
      <trkpt lat="45.39352" lon="3.3715">
        <ele>463.3</ele>
        <time>2020-09-17T09:39:09Z</time>
      </trkpt>
      <trkpt lat="45.39352" lon="3.37149">
        <ele>463.4</ele>
        <time>2020-09-17T09:39:10Z</time>
      </trkpt>
      <trkpt lat="45.39351" lon="3.37148">
        <ele>463.3</ele>
        <time>2020-09-17T09:39:11Z</time>
      </trkpt>
      <trkpt lat="45.39351" lon="3.37147">
        <ele>463.4</ele>
        <time>2020-09-17T09:39:12Z</time>
      </trkpt>
      <trkpt lat="45.39351" lon="3.37146">
        <ele>463.5</ele>
        <time>2020-09-17T09:39:13Z</time>
      </trkpt>
      <trkpt lat="45.39351" lon="3.37145">
        <ele>463.6</ele>
        <time>2020-09-17T09:39:14Z</time>
      </trkpt>
      <trkpt lat="45.3935" lon="3.37143">
        <ele>463.7</ele>
        <time>2020-09-17T09:39:15Z</time>
      </trkpt>
      <trkpt lat="45.3935" lon="3.37142">
        <ele>463.8</ele>
        <time>2020-09-17T09:39:16Z</time>
      </trkpt>
      <trkpt lat="45.3935" lon="3.37141">
        <ele>463.9</ele>
        <time>2020-09-17T09:39:17Z</time>
      </trkpt>
      <trkpt lat="45.3935" lon="3.3714">
        <ele>464</ele>
        <time>2020-09-17T09:39:18Z</time>
      </trkpt>
      <trkpt lat="45.3935" lon="3.37139">
        <ele>464</ele>
        <time>2020-09-17T09:39:19Z</time>
      </trkpt>
      <trkpt lat="45.3935" lon="3.37138">
        <ele>464.1</ele>
        <time>2020-09-17T09:39:20Z</time>
      </trkpt>
      <trkpt lat="45.39349" lon="3.37137">
        <ele>464.2</ele>
        <time>2020-09-17T09:39:21Z</time>
      </trkpt>
      <trkpt lat="45.39349" lon="3.37136">
        <ele>464.3</ele>
        <time>2020-09-17T09:39:22Z</time>
      </trkpt>
      <trkpt lat="45.39349" lon="3.37134">
        <ele>464.4</ele>
        <time>2020-09-17T09:39:23Z</time>
      </trkpt>
      <trkpt lat="45.39349" lon="3.37133">
        <ele>464.4</ele>
        <time>2020-09-17T09:39:24Z</time>
      </trkpt>
      <trkpt lat="45.39349" lon="3.37132">
        <ele>464.6</ele>
        <time>2020-09-17T09:39:25Z</time>
      </trkpt>
      <trkpt lat="45.39349" lon="3.37131">
        <ele>464.7</ele>
        <time>2020-09-17T09:39:26Z</time>
      </trkpt>
      <trkpt lat="45.39349" lon="3.3713">
        <ele>465</ele>
        <time>2020-09-17T09:39:27Z</time>
      </trkpt>
      <trkpt lat="45.3935" lon="3.37128">
        <ele>465.4</ele>
        <time>2020-09-17T09:39:28Z</time>
      </trkpt>
      <trkpt lat="45.3935" lon="3.37127">
        <ele>465.7</ele>
        <time>2020-09-17T09:39:29Z</time>
      </trkpt>
      <trkpt lat="45.3935" lon="3.37126">
        <ele>465.8</ele>
        <time>2020-09-17T09:39:30Z</time>
      </trkpt>
      <trkpt lat="45.3935" lon="3.37125">
        <ele>466</ele>
        <time>2020-09-17T09:39:31Z</time>
      </trkpt>
      <trkpt lat="45.3935" lon="3.37124">
        <ele>466.2</ele>
        <time>2020-09-17T09:39:32Z</time>
      </trkpt>
      <trkpt lat="45.3935" lon="3.37123">
        <ele>466.4</ele>
        <time>2020-09-17T09:39:33Z</time>
      </trkpt>
      <trkpt lat="45.3935" lon="3.37122">
        <ele>466.6</ele>
        <time>2020-09-17T09:39:34Z</time>
      </trkpt>
      <trkpt lat="45.39351" lon="3.37121">
        <ele>466.8</ele>
        <time>2020-09-17T09:39:35Z</time>
      </trkpt>
      <trkpt lat="45.39351" lon="3.3712">
        <ele>467</ele>
        <time>2020-09-17T09:39:36Z</time>
      </trkpt>
      <trkpt lat="45.39351" lon="3.37119">
        <ele>467.1</ele>
        <time>2020-09-17T09:39:37Z</time>
      </trkpt>
      <trkpt lat="45.39351" lon="3.37118">
        <ele>467.4</ele>
        <time>2020-09-17T09:39:38Z</time>
      </trkpt>
      <trkpt lat="45.39351" lon="3.37116">
        <ele>467.7</ele>
        <time>2020-09-17T09:39:39Z</time>
      </trkpt>
      <trkpt lat="45.39351" lon="3.37115">
        <ele>467.9</ele>
        <time>2020-09-17T09:39:40Z</time>
      </trkpt>
      <trkpt lat="45.39351" lon="3.37114">
        <ele>468.1</ele>
        <time>2020-09-17T09:39:41Z</time>
      </trkpt>
      <trkpt lat="45.39352" lon="3.37113">
        <ele>468.3</ele>
        <time>2020-09-17T09:39:42Z</time>
      </trkpt>
      <trkpt lat="45.39352" lon="3.37112">
        <ele>468.5</ele>
        <time>2020-09-17T09:39:43Z</time>
      </trkpt>
      <trkpt lat="45.39352" lon="3.37111">
        <ele>468.7</ele>
        <time>2020-09-17T09:39:44Z</time>
      </trkpt>
      <trkpt lat="45.39352" lon="3.3711">
        <ele>468.8</ele>
        <time>2020-09-17T09:39:45Z</time>
      </trkpt>
      <trkpt lat="45.39352" lon="3.37108">
        <ele>468.9</ele>
        <time>2020-09-17T09:39:46Z</time>
      </trkpt>
      <trkpt lat="45.39352" lon="3.37108">
        <ele>469.1</ele>
        <time>2020-09-17T09:39:47Z</time>
      </trkpt>
      <trkpt lat="45.39352" lon="3.37107">
        <ele>469.2</ele>
        <time>2020-09-17T09:39:48Z</time>
      </trkpt>
      <trkpt lat="45.39353" lon="3.37105">
        <ele>469.4</ele>
        <time>2020-09-17T09:39:49Z</time>
      </trkpt>
      <trkpt lat="45.39353" lon="3.37104">
        <ele>469.6</ele>
        <time>2020-09-17T09:39:50Z</time>
      </trkpt>
      <trkpt lat="45.39353" lon="3.37103">
        <ele>469.8</ele>
        <time>2020-09-17T09:39:51Z</time>
      </trkpt>
      <trkpt lat="45.39353" lon="3.37102">
        <ele>470</ele>
        <time>2020-09-17T09:39:52Z</time>
      </trkpt>
      <trkpt lat="45.39354" lon="3.37101">
        <ele>470.2</ele>
        <time>2020-09-17T09:39:53Z</time>
      </trkpt>
      <trkpt lat="45.39354" lon="3.37101">
        <ele>470.2</ele>
        <time>2020-09-17T09:39:54Z</time>
      </trkpt>
      <trkpt lat="45.39354" lon="3.371">
        <ele>470.3</ele>
        <time>2020-09-17T09:39:55Z</time>
      </trkpt>
      <trkpt lat="45.39354" lon="3.37099">
        <ele>470.5</ele>
        <time>2020-09-17T09:39:56Z</time>
      </trkpt>
      <trkpt lat="45.39354" lon="3.37098">
        <ele>470.6</ele>
        <time>2020-09-17T09:39:57Z</time>
      </trkpt>
      <trkpt lat="45.39354" lon="3.37097">
        <ele>470.7</ele>
        <time>2020-09-17T09:39:58Z</time>
      </trkpt>
      <trkpt lat="45.39354" lon="3.37096">
        <ele>470.9</ele>
        <time>2020-09-17T09:39:59Z</time>
      </trkpt>
      <trkpt lat="45.39355" lon="3.37095">
        <ele>471.1</ele>
        <time>2020-09-17T09:40:00Z</time>
      </trkpt>
      <trkpt lat="45.39354" lon="3.37094">
        <ele>471.1</ele>
        <time>2020-09-17T09:40:01Z</time>
      </trkpt>
      <trkpt lat="45.39355" lon="3.37093">
        <ele>471.2</ele>
        <time>2020-09-17T09:40:02Z</time>
      </trkpt>
      <trkpt lat="45.39355" lon="3.37092">
        <ele>471.3</ele>
        <time>2020-09-17T09:40:03Z</time>
      </trkpt>
      <trkpt lat="45.39355" lon="3.37091">
        <ele>471.5</ele>
        <time>2020-09-17T09:40:04Z</time>
      </trkpt>
      <trkpt lat="45.39355" lon="3.3709">
        <ele>471.6</ele>
        <time>2020-09-17T09:40:05Z</time>
      </trkpt>
      <trkpt lat="45.39355" lon="3.3709">
        <ele>471.7</ele>
        <time>2020-09-17T09:40:06Z</time>
      </trkpt>
      <trkpt lat="45.39355" lon="3.37088">
        <ele>471.9</ele>
        <time>2020-09-17T09:40:07Z</time>
      </trkpt>
      <trkpt lat="45.39355" lon="3.37088">
        <ele>472</ele>
        <time>2020-09-17T09:40:08Z</time>
      </trkpt>
      <trkpt lat="45.39356" lon="3.37087">
        <ele>472.1</ele>
        <time>2020-09-17T09:40:09Z</time>
      </trkpt>
      <trkpt lat="45.39356" lon="3.37085">
        <ele>472.3</ele>
        <time>2020-09-17T09:40:10Z</time>
      </trkpt>
      <trkpt lat="45.39356" lon="3.37085">
        <ele>472.4</ele>
        <time>2020-09-17T09:40:11Z</time>
      </trkpt>
      <trkpt lat="45.39356" lon="3.37084">
        <ele>472.5</ele>
        <time>2020-09-17T09:40:12Z</time>
      </trkpt>
      <trkpt lat="45.39356" lon="3.37082">
        <ele>472.7</ele>
        <time>2020-09-17T09:40:13Z</time>
      </trkpt>
      <trkpt lat="45.39356" lon="3.37081">
        <ele>472.8</ele>
        <time>2020-09-17T09:40:14Z</time>
      </trkpt>
      <trkpt lat="45.39356" lon="3.3708">
        <ele>472.9</ele>
        <time>2020-09-17T09:40:15Z</time>
      </trkpt>
      <trkpt lat="45.39356" lon="3.37079">
        <ele>472.9</ele>
        <time>2020-09-17T09:40:16Z</time>
      </trkpt>
      <trkpt lat="45.39357" lon="3.37078">
        <ele>473.1</ele>
        <time>2020-09-17T09:40:17Z</time>
      </trkpt>
      <trkpt lat="45.39357" lon="3.37076">
        <ele>473.1</ele>
        <time>2020-09-17T09:40:18Z</time>
      </trkpt>
      <trkpt lat="45.39357" lon="3.37075">
        <ele>473.2</ele>
        <time>2020-09-17T09:40:19Z</time>
      </trkpt>
      <trkpt lat="45.39357" lon="3.37074">
        <ele>473.3</ele>
        <time>2020-09-17T09:40:20Z</time>
      </trkpt>
      <trkpt lat="45.39357" lon="3.37073">
        <ele>473.4</ele>
        <time>2020-09-17T09:40:21Z</time>
      </trkpt>
      <trkpt lat="45.39357" lon="3.37072">
        <ele>473.5</ele>
        <time>2020-09-17T09:40:22Z</time>
      </trkpt>
      <trkpt lat="45.39357" lon="3.3707">
        <ele>473.6</ele>
        <time>2020-09-17T09:40:23Z</time>
      </trkpt>
      <trkpt lat="45.39357" lon="3.37069">
        <ele>473.7</ele>
        <time>2020-09-17T09:40:24Z</time>
      </trkpt>
      <trkpt lat="45.39358" lon="3.37068">
        <ele>473.9</ele>
        <time>2020-09-17T09:40:25Z</time>
      </trkpt>
      <trkpt lat="45.39358" lon="3.37067">
        <ele>474</ele>
        <time>2020-09-17T09:40:26Z</time>
      </trkpt>
      <trkpt lat="45.39358" lon="3.37066">
        <ele>474.2</ele>
        <time>2020-09-17T09:40:27Z</time>
      </trkpt>
      <trkpt lat="45.39358" lon="3.37065">
        <ele>474.4</ele>
        <time>2020-09-17T09:40:28Z</time>
      </trkpt>
      <trkpt lat="45.39359" lon="3.37064">
        <ele>474.6</ele>
        <time>2020-09-17T09:40:29Z</time>
      </trkpt>
      <trkpt lat="45.39359" lon="3.37062">
        <ele>474.8</ele>
        <time>2020-09-17T09:40:30Z</time>
      </trkpt>
      <trkpt lat="45.39359" lon="3.37062">
        <ele>474.9</ele>
        <time>2020-09-17T09:40:31Z</time>
      </trkpt>
      <trkpt lat="45.39359" lon="3.37061">
        <ele>475</ele>
        <time>2020-09-17T09:40:32Z</time>
      </trkpt>
      <trkpt lat="45.3936" lon="3.3706">
        <ele>475.2</ele>
        <time>2020-09-17T09:40:33Z</time>
      </trkpt>
      <trkpt lat="45.3936" lon="3.37059">
        <ele>475.3</ele>
        <time>2020-09-17T09:40:34Z</time>
      </trkpt>
      <trkpt lat="45.3936" lon="3.37058">
        <ele>475.5</ele>
        <time>2020-09-17T09:40:35Z</time>
      </trkpt>
      <trkpt lat="45.3936" lon="3.37057">
        <ele>475.6</ele>
        <time>2020-09-17T09:40:36Z</time>
      </trkpt>
      <trkpt lat="45.39361" lon="3.37057">
        <ele>475.7</ele>
        <time>2020-09-17T09:40:37Z</time>
      </trkpt>
      <trkpt lat="45.39361" lon="3.37056">
        <ele>475.9</ele>
        <time>2020-09-17T09:40:38Z</time>
      </trkpt>
      <trkpt lat="45.39361" lon="3.37055">
        <ele>476</ele>
        <time>2020-09-17T09:40:39Z</time>
      </trkpt>
      <trkpt lat="45.39362" lon="3.37055">
        <ele>476</ele>
        <time>2020-09-17T09:40:40Z</time>
      </trkpt>
      <trkpt lat="45.39362" lon="3.37054">
        <ele>475.9</ele>
        <time>2020-09-17T09:40:41Z</time>
      </trkpt>
      <trkpt lat="45.39362" lon="3.37053">
        <ele>475.8</ele>
        <time>2020-09-17T09:40:42Z</time>
      </trkpt>
      <trkpt lat="45.39362" lon="3.37052">
        <ele>475.7</ele>
        <time>2020-09-17T09:40:43Z</time>
      </trkpt>
      <trkpt lat="45.39363" lon="3.37051">
        <ele>475.5</ele>
        <time>2020-09-17T09:40:44Z</time>
      </trkpt>
      <trkpt lat="45.39363" lon="3.3705">
        <ele>475.4</ele>
        <time>2020-09-17T09:40:45Z</time>
      </trkpt>
      <trkpt lat="45.39363" lon="3.37049">
        <ele>475.3</ele>
        <time>2020-09-17T09:40:46Z</time>
      </trkpt>
      <trkpt lat="45.39364" lon="3.37048">
        <ele>475.4</ele>
        <time>2020-09-17T09:40:47Z</time>
      </trkpt>
      <trkpt lat="45.39364" lon="3.37047">
        <ele>475.3</ele>
        <time>2020-09-17T09:40:48Z</time>
      </trkpt>
      <trkpt lat="45.39365" lon="3.37046">
        <ele>475.3</ele>
        <time>2020-09-17T09:40:49Z</time>
      </trkpt>
      <trkpt lat="45.39365" lon="3.37045">
        <ele>475.3</ele>
        <time>2020-09-17T09:40:50Z</time>
      </trkpt>
      <trkpt lat="45.39366" lon="3.37044">
        <ele>475.2</ele>
        <time>2020-09-17T09:40:51Z</time>
      </trkpt>
      <trkpt lat="45.39367" lon="3.37043">
        <ele>475.3</ele>
        <time>2020-09-17T09:40:52Z</time>
      </trkpt>
      <trkpt lat="45.39367" lon="3.37042">
        <ele>475.3</ele>
        <time>2020-09-17T09:40:53Z</time>
      </trkpt>
      <trkpt lat="45.39368" lon="3.37041">
        <ele>475.5</ele>
        <time>2020-09-17T09:40:54Z</time>
      </trkpt>
      <trkpt lat="45.39369" lon="3.37041">
        <ele>475.6</ele>
        <time>2020-09-17T09:40:55Z</time>
      </trkpt>
      <trkpt lat="45.39369" lon="3.3704">
        <ele>475.6</ele>
        <time>2020-09-17T09:40:56Z</time>
      </trkpt>
      <trkpt lat="45.3937" lon="3.3704">
        <ele>475.9</ele>
        <time>2020-09-17T09:40:57Z</time>
      </trkpt>
      <trkpt lat="45.3937" lon="3.37039">
        <ele>476</ele>
        <time>2020-09-17T09:40:58Z</time>
      </trkpt>
      <trkpt lat="45.39371" lon="3.37038">
        <ele>476.1</ele>
        <time>2020-09-17T09:40:59Z</time>
      </trkpt>
      <trkpt lat="45.39372" lon="3.37038">
        <ele>476.3</ele>
        <time>2020-09-17T09:41:00Z</time>
      </trkpt>
      <trkpt lat="45.39372" lon="3.37037">
        <ele>476.4</ele>
        <time>2020-09-17T09:41:01Z</time>
      </trkpt>
      <trkpt lat="45.39373" lon="3.37036">
        <ele>476.6</ele>
        <time>2020-09-17T09:41:02Z</time>
      </trkpt>
      <trkpt lat="45.39374" lon="3.37036">
        <ele>476.7</ele>
        <time>2020-09-17T09:41:03Z</time>
      </trkpt>
      <trkpt lat="45.39374" lon="3.37035">
        <ele>476.8</ele>
        <time>2020-09-17T09:41:04Z</time>
      </trkpt>
      <trkpt lat="45.39375" lon="3.37034">
        <ele>477</ele>
        <time>2020-09-17T09:41:05Z</time>
      </trkpt>
      <trkpt lat="45.39376" lon="3.37033">
        <ele>477.2</ele>
        <time>2020-09-17T09:41:06Z</time>
      </trkpt>
      <trkpt lat="45.39376" lon="3.37033">
        <ele>477.3</ele>
        <time>2020-09-17T09:41:07Z</time>
      </trkpt>
      <trkpt lat="45.39377" lon="3.37032">
        <ele>477.4</ele>
        <time>2020-09-17T09:41:08Z</time>
      </trkpt>
      <trkpt lat="45.39378" lon="3.37031">
        <ele>477.6</ele>
        <time>2020-09-17T09:41:09Z</time>
      </trkpt>
      <trkpt lat="45.39378" lon="3.3703">
        <ele>477.7</ele>
        <time>2020-09-17T09:41:10Z</time>
      </trkpt>
      <trkpt lat="45.39379" lon="3.37029">
        <ele>477.8</ele>
        <time>2020-09-17T09:41:11Z</time>
      </trkpt>
      <trkpt lat="45.3938" lon="3.37028">
        <ele>478.1</ele>
        <time>2020-09-17T09:41:12Z</time>
      </trkpt>
      <trkpt lat="45.39381" lon="3.37028">
        <ele>478.4</ele>
        <time>2020-09-17T09:41:13Z</time>
      </trkpt>
      <trkpt lat="45.39381" lon="3.37027">
        <ele>478.5</ele>
        <time>2020-09-17T09:41:14Z</time>
      </trkpt>
      <trkpt lat="45.39382" lon="3.37027">
        <ele>478.6</ele>
        <time>2020-09-17T09:41:15Z</time>
      </trkpt>
      <trkpt lat="45.39383" lon="3.37026">
        <ele>478.7</ele>
        <time>2020-09-17T09:41:16Z</time>
      </trkpt>
      <trkpt lat="45.39383" lon="3.37025">
        <ele>478.9</ele>
        <time>2020-09-17T09:41:17Z</time>
      </trkpt>
      <trkpt lat="45.39384" lon="3.37025">
        <ele>479</ele>
        <time>2020-09-17T09:41:18Z</time>
      </trkpt>
      <trkpt lat="45.39385" lon="3.37024">
        <ele>479.2</ele>
        <time>2020-09-17T09:41:19Z</time>
      </trkpt>
      <trkpt lat="45.39385" lon="3.37024">
        <ele>479.3</ele>
        <time>2020-09-17T09:41:20Z</time>
      </trkpt>
      <trkpt lat="45.39386" lon="3.37023">
        <ele>479.4</ele>
        <time>2020-09-17T09:41:21Z</time>
      </trkpt>
      <trkpt lat="45.39387" lon="3.37022">
        <ele>479.5</ele>
        <time>2020-09-17T09:41:22Z</time>
      </trkpt>
      <trkpt lat="45.39388" lon="3.37022">
        <ele>479.7</ele>
        <time>2020-09-17T09:41:23Z</time>
      </trkpt>
      <trkpt lat="45.39389" lon="3.37021">
        <ele>479.9</ele>
        <time>2020-09-17T09:41:24Z</time>
      </trkpt>
      <trkpt lat="45.39389" lon="3.37021">
        <ele>480</ele>
        <time>2020-09-17T09:41:25Z</time>
      </trkpt>
      <trkpt lat="45.3939" lon="3.3702">
        <ele>480.1</ele>
        <time>2020-09-17T09:41:26Z</time>
      </trkpt>
      <trkpt lat="45.39391" lon="3.3702">
        <ele>480.2</ele>
        <time>2020-09-17T09:41:27Z</time>
      </trkpt>
      <trkpt lat="45.39392" lon="3.37019">
        <ele>480.3</ele>
        <time>2020-09-17T09:41:28Z</time>
      </trkpt>
      <trkpt lat="45.39393" lon="3.37019">
        <ele>480.5</ele>
        <time>2020-09-17T09:41:29Z</time>
      </trkpt>
      <trkpt lat="45.39394" lon="3.37019">
        <ele>480.6</ele>
        <time>2020-09-17T09:41:30Z</time>
      </trkpt>
      <trkpt lat="45.39395" lon="3.37019">
        <ele>480.7</ele>
        <time>2020-09-17T09:41:31Z</time>
      </trkpt>
      <trkpt lat="45.39396" lon="3.37018">
        <ele>480.8</ele>
        <time>2020-09-17T09:41:32Z</time>
      </trkpt>
      <trkpt lat="45.39397" lon="3.37018">
        <ele>480.9</ele>
        <time>2020-09-17T09:41:33Z</time>
      </trkpt>
      <trkpt lat="45.39398" lon="3.37018">
        <ele>481.1</ele>
        <time>2020-09-17T09:41:34Z</time>
      </trkpt>
      <trkpt lat="45.39399" lon="3.37017">
        <ele>481.1</ele>
        <time>2020-09-17T09:41:35Z</time>
      </trkpt>
      <trkpt lat="45.39399" lon="3.37017">
        <ele>481.1</ele>
        <time>2020-09-17T09:41:36Z</time>
      </trkpt>
      <trkpt lat="45.394" lon="3.37016">
        <ele>481.1</ele>
        <time>2020-09-17T09:41:37Z</time>
      </trkpt>
      <trkpt lat="45.39401" lon="3.37016">
        <ele>481.1</ele>
        <time>2020-09-17T09:41:38Z</time>
      </trkpt>
      <trkpt lat="45.39402" lon="3.37015">
        <ele>481.2</ele>
        <time>2020-09-17T09:41:39Z</time>
      </trkpt>
      <trkpt lat="45.39403" lon="3.37015">
        <ele>481.2</ele>
        <time>2020-09-17T09:41:40Z</time>
      </trkpt>
      <trkpt lat="45.39404" lon="3.37014">
        <ele>481.3</ele>
        <time>2020-09-17T09:41:41Z</time>
      </trkpt>
      <trkpt lat="45.39405" lon="3.37014">
        <ele>481.5</ele>
        <time>2020-09-17T09:41:42Z</time>
      </trkpt>
      <trkpt lat="45.39405" lon="3.37014">
        <ele>481.4</ele>
        <time>2020-09-17T09:41:43Z</time>
      </trkpt>
      <trkpt lat="45.39406" lon="3.37013">
        <ele>481.6</ele>
        <time>2020-09-17T09:41:44Z</time>
      </trkpt>
      <trkpt lat="45.39407" lon="3.37013">
        <ele>481.6</ele>
        <time>2020-09-17T09:41:45Z</time>
      </trkpt>
      <trkpt lat="45.39408" lon="3.37013">
        <ele>481.7</ele>
        <time>2020-09-17T09:41:46Z</time>
      </trkpt>
      <trkpt lat="45.39409" lon="3.37012">
        <ele>481.8</ele>
        <time>2020-09-17T09:41:47Z</time>
      </trkpt>
      <trkpt lat="45.3941" lon="3.37012">
        <ele>481.9</ele>
        <time>2020-09-17T09:41:48Z</time>
      </trkpt>
      <trkpt lat="45.39411" lon="3.37012">
        <ele>482.1</ele>
        <time>2020-09-17T09:41:49Z</time>
      </trkpt>
      <trkpt lat="45.39411" lon="3.37011">
        <ele>482.1</ele>
        <time>2020-09-17T09:41:50Z</time>
      </trkpt>
      <trkpt lat="45.39412" lon="3.37011">
        <ele>482.3</ele>
        <time>2020-09-17T09:41:51Z</time>
      </trkpt>
      <trkpt lat="45.39413" lon="3.37011">
        <ele>482.4</ele>
        <time>2020-09-17T09:41:52Z</time>
      </trkpt>
      <trkpt lat="45.39414" lon="3.37011">
        <ele>482.6</ele>
        <time>2020-09-17T09:41:53Z</time>
      </trkpt>
      <trkpt lat="45.39415" lon="3.37011">
        <ele>482.7</ele>
        <time>2020-09-17T09:41:54Z</time>
      </trkpt>
      <trkpt lat="45.39416" lon="3.37011">
        <ele>482.9</ele>
        <time>2020-09-17T09:41:55Z</time>
      </trkpt>
      <trkpt lat="45.39417" lon="3.3701">
        <ele>483</ele>
        <time>2020-09-17T09:41:56Z</time>
      </trkpt>
      <trkpt lat="45.39418" lon="3.3701">
        <ele>483.1</ele>
        <time>2020-09-17T09:41:57Z</time>
      </trkpt>
      <trkpt lat="45.39419" lon="3.3701">
        <ele>483.2</ele>
        <time>2020-09-17T09:41:58Z</time>
      </trkpt>
      <trkpt lat="45.3942" lon="3.3701">
        <ele>483.3</ele>
        <time>2020-09-17T09:41:59Z</time>
      </trkpt>
      <trkpt lat="45.39421" lon="3.3701">
        <ele>483.4</ele>
        <time>2020-09-17T09:42:00Z</time>
      </trkpt>
      <trkpt lat="45.39422" lon="3.37009">
        <ele>483.5</ele>
        <time>2020-09-17T09:42:01Z</time>
      </trkpt>
      <trkpt lat="45.39423" lon="3.37009">
        <ele>483.5</ele>
        <time>2020-09-17T09:42:02Z</time>
      </trkpt>
      <trkpt lat="45.39424" lon="3.37009">
        <ele>483.6</ele>
        <time>2020-09-17T09:42:03Z</time>
      </trkpt>
      <trkpt lat="45.39425" lon="3.37008">
        <ele>483.7</ele>
        <time>2020-09-17T09:42:04Z</time>
      </trkpt>
      <trkpt lat="45.39426" lon="3.37008">
        <ele>483.8</ele>
        <time>2020-09-17T09:42:05Z</time>
      </trkpt>
      <trkpt lat="45.39427" lon="3.37008">
        <ele>483.9</ele>
        <time>2020-09-17T09:42:06Z</time>
      </trkpt>
      <trkpt lat="45.39427" lon="3.37008">
        <ele>484</ele>
        <time>2020-09-17T09:42:07Z</time>
      </trkpt>
      <trkpt lat="45.39428" lon="3.37008">
        <ele>484.1</ele>
        <time>2020-09-17T09:42:08Z</time>
      </trkpt>
      <trkpt lat="45.39429" lon="3.37008">
        <ele>484.2</ele>
        <time>2020-09-17T09:42:09Z</time>
      </trkpt>
      <trkpt lat="45.3943" lon="3.37007">
        <ele>484.3</ele>
        <time>2020-09-17T09:42:10Z</time>
      </trkpt>
      <trkpt lat="45.39431" lon="3.37007">
        <ele>484.3</ele>
        <time>2020-09-17T09:42:11Z</time>
      </trkpt>
      <trkpt lat="45.39432" lon="3.37007">
        <ele>484.4</ele>
        <time>2020-09-17T09:42:12Z</time>
      </trkpt>
      <trkpt lat="45.39432" lon="3.37007">
        <ele>484.4</ele>
        <time>2020-09-17T09:42:13Z</time>
      </trkpt>
      <trkpt lat="45.39433" lon="3.37006">
        <ele>484.5</ele>
        <time>2020-09-17T09:42:14Z</time>
      </trkpt>
      <trkpt lat="45.39434" lon="3.37006">
        <ele>484.5</ele>
        <time>2020-09-17T09:42:15Z</time>
      </trkpt>
      <trkpt lat="45.39435" lon="3.37006">
        <ele>484.6</ele>
        <time>2020-09-17T09:42:16Z</time>
      </trkpt>
      <trkpt lat="45.39436" lon="3.37005">
        <ele>484.7</ele>
        <time>2020-09-17T09:42:17Z</time>
      </trkpt>
      <trkpt lat="45.39436" lon="3.37005">
        <ele>484.8</ele>
        <time>2020-09-17T09:42:18Z</time>
      </trkpt>
      <trkpt lat="45.39437" lon="3.37005">
        <ele>484.9</ele>
        <time>2020-09-17T09:42:19Z</time>
      </trkpt>
      <trkpt lat="45.39439" lon="3.37005">
        <ele>485</ele>
        <time>2020-09-17T09:42:20Z</time>
      </trkpt>
      <trkpt lat="45.39439" lon="3.37005">
        <ele>485.1</ele>
        <time>2020-09-17T09:42:21Z</time>
      </trkpt>
      <trkpt lat="45.3944" lon="3.37004">
        <ele>485.2</ele>
        <time>2020-09-17T09:42:22Z</time>
      </trkpt>
      <trkpt lat="45.39441" lon="3.37004">
        <ele>485.3</ele>
        <time>2020-09-17T09:42:23Z</time>
      </trkpt>
      <trkpt lat="45.39442" lon="3.37004">
        <ele>485.5</ele>
        <time>2020-09-17T09:42:24Z</time>
      </trkpt>
      <trkpt lat="45.39443" lon="3.37004">
        <ele>485.6</ele>
        <time>2020-09-17T09:42:25Z</time>
      </trkpt>
      <trkpt lat="45.39444" lon="3.37003">
        <ele>485.7</ele>
        <time>2020-09-17T09:42:26Z</time>
      </trkpt>
      <trkpt lat="45.39445" lon="3.37003">
        <ele>485.8</ele>
        <time>2020-09-17T09:42:27Z</time>
      </trkpt>
      <trkpt lat="45.39446" lon="3.37003">
        <ele>485.9</ele>
        <time>2020-09-17T09:42:28Z</time>
      </trkpt>
      <trkpt lat="45.39447" lon="3.37003">
        <ele>486</ele>
        <time>2020-09-17T09:42:29Z</time>
      </trkpt>
      <trkpt lat="45.39448" lon="3.37002">
        <ele>486.1</ele>
        <time>2020-09-17T09:42:30Z</time>
      </trkpt>
      <trkpt lat="45.39449" lon="3.37002">
        <ele>486.2</ele>
        <time>2020-09-17T09:42:31Z</time>
      </trkpt>
      <trkpt lat="45.3945" lon="3.37002">
        <ele>486.3</ele>
        <time>2020-09-17T09:42:32Z</time>
      </trkpt>
      <trkpt lat="45.39451" lon="3.37002">
        <ele>486.4</ele>
        <time>2020-09-17T09:42:33Z</time>
      </trkpt>
      <trkpt lat="45.39451" lon="3.37002">
        <ele>486.5</ele>
        <time>2020-09-17T09:42:34Z</time>
      </trkpt>
      <trkpt lat="45.39452" lon="3.37002">
        <ele>486.7</ele>
        <time>2020-09-17T09:42:35Z</time>
      </trkpt>
      <trkpt lat="45.39453" lon="3.37002">
        <ele>486.9</ele>
        <time>2020-09-17T09:42:36Z</time>
      </trkpt>
      <trkpt lat="45.39454" lon="3.37002">
        <ele>487.1</ele>
        <time>2020-09-17T09:42:37Z</time>
      </trkpt>
      <trkpt lat="45.39455" lon="3.37002">
        <ele>487.2</ele>
        <time>2020-09-17T09:42:38Z</time>
      </trkpt>
      <trkpt lat="45.39456" lon="3.37001">
        <ele>487.3</ele>
        <time>2020-09-17T09:42:39Z</time>
      </trkpt>
      <trkpt lat="45.39457" lon="3.37001">
        <ele>487.5</ele>
        <time>2020-09-17T09:42:40Z</time>
      </trkpt>
      <trkpt lat="45.39458" lon="3.37001">
        <ele>487.6</ele>
        <time>2020-09-17T09:42:41Z</time>
      </trkpt>
      <trkpt lat="45.39459" lon="3.37001">
        <ele>487.7</ele>
        <time>2020-09-17T09:42:42Z</time>
      </trkpt>
      <trkpt lat="45.3946" lon="3.37001">
        <ele>487.9</ele>
        <time>2020-09-17T09:42:43Z</time>
      </trkpt>
      <trkpt lat="45.39461" lon="3.37">
        <ele>488</ele>
        <time>2020-09-17T09:42:44Z</time>
      </trkpt>
      <trkpt lat="45.39462" lon="3.37">
        <ele>488.1</ele>
        <time>2020-09-17T09:42:45Z</time>
      </trkpt>
      <trkpt lat="45.39463" lon="3.37">
        <ele>488.2</ele>
        <time>2020-09-17T09:42:46Z</time>
      </trkpt>
      <trkpt lat="45.39463" lon="3.37">
        <ele>488.4</ele>
        <time>2020-09-17T09:42:47Z</time>
      </trkpt>
      <trkpt lat="45.39465" lon="3.37">
        <ele>488.6</ele>
        <time>2020-09-17T09:42:48Z</time>
      </trkpt>
      <trkpt lat="45.39466" lon="3.37">
        <ele>488.7</ele>
        <time>2020-09-17T09:42:49Z</time>
      </trkpt>
      <trkpt lat="45.39467" lon="3.36999">
        <ele>488.9</ele>
        <time>2020-09-17T09:42:50Z</time>
      </trkpt>
      <trkpt lat="45.39468" lon="3.36999">
        <ele>489</ele>
        <time>2020-09-17T09:42:51Z</time>
      </trkpt>
      <trkpt lat="45.39469" lon="3.36999">
        <ele>489.1</ele>
        <time>2020-09-17T09:42:52Z</time>
      </trkpt>
      <trkpt lat="45.3947" lon="3.36998">
        <ele>489.2</ele>
        <time>2020-09-17T09:42:53Z</time>
      </trkpt>
      <trkpt lat="45.39471" lon="3.36998">
        <ele>489.4</ele>
        <time>2020-09-17T09:42:54Z</time>
      </trkpt>
      <trkpt lat="45.39472" lon="3.36998">
        <ele>489.5</ele>
        <time>2020-09-17T09:42:55Z</time>
      </trkpt>
      <trkpt lat="45.39473" lon="3.36997">
        <ele>489.6</ele>
        <time>2020-09-17T09:42:56Z</time>
      </trkpt>
      <trkpt lat="45.39474" lon="3.36997">
        <ele>489.6</ele>
        <time>2020-09-17T09:42:57Z</time>
      </trkpt>
      <trkpt lat="45.39475" lon="3.36997">
        <ele>489.7</ele>
        <time>2020-09-17T09:42:58Z</time>
      </trkpt>
      <trkpt lat="45.39476" lon="3.36996">
        <ele>489.7</ele>
        <time>2020-09-17T09:42:59Z</time>
      </trkpt>
      <trkpt lat="45.39477" lon="3.36995">
        <ele>489.7</ele>
        <time>2020-09-17T09:43:00Z</time>
      </trkpt>
      <trkpt lat="45.39478" lon="3.36995">
        <ele>489.7</ele>
        <time>2020-09-17T09:43:01Z</time>
      </trkpt>
      <trkpt lat="45.39479" lon="3.36994">
        <ele>489.7</ele>
        <time>2020-09-17T09:43:02Z</time>
      </trkpt>
      <trkpt lat="45.3948" lon="3.36993">
        <ele>489.7</ele>
        <time>2020-09-17T09:43:03Z</time>
      </trkpt>
      <trkpt lat="45.39481" lon="3.36993">
        <ele>489.7</ele>
        <time>2020-09-17T09:43:04Z</time>
      </trkpt>
      <trkpt lat="45.39482" lon="3.36992">
        <ele>489.7</ele>
        <time>2020-09-17T09:43:05Z</time>
      </trkpt>
      <trkpt lat="45.39483" lon="3.36991">
        <ele>489.7</ele>
        <time>2020-09-17T09:43:06Z</time>
      </trkpt>
      <trkpt lat="45.39484" lon="3.36991">
        <ele>489.7</ele>
        <time>2020-09-17T09:43:07Z</time>
      </trkpt>
      <trkpt lat="45.39485" lon="3.3699">
        <ele>489.7</ele>
        <time>2020-09-17T09:43:08Z</time>
      </trkpt>
      <trkpt lat="45.39485" lon="3.3699">
        <ele>489.7</ele>
        <time>2020-09-17T09:43:09Z</time>
      </trkpt>
      <trkpt lat="45.39486" lon="3.36989">
        <ele>489.7</ele>
        <time>2020-09-17T09:43:10Z</time>
      </trkpt>
      <trkpt lat="45.39487" lon="3.36988">
        <ele>489.7</ele>
        <time>2020-09-17T09:43:11Z</time>
      </trkpt>
      <trkpt lat="45.39488" lon="3.36988">
        <ele>489.7</ele>
        <time>2020-09-17T09:43:12Z</time>
      </trkpt>
      <trkpt lat="45.39489" lon="3.36987">
        <ele>489.7</ele>
        <time>2020-09-17T09:43:13Z</time>
      </trkpt>
      <trkpt lat="45.3949" lon="3.36987">
        <ele>489.8</ele>
        <time>2020-09-17T09:43:14Z</time>
      </trkpt>
      <trkpt lat="45.39491" lon="3.36986">
        <ele>489.8</ele>
        <time>2020-09-17T09:43:15Z</time>
      </trkpt>
      <trkpt lat="45.39491" lon="3.36985">
        <ele>489.8</ele>
        <time>2020-09-17T09:43:16Z</time>
      </trkpt>
      <trkpt lat="45.39492" lon="3.36985">
        <ele>489.8</ele>
        <time>2020-09-17T09:43:17Z</time>
      </trkpt>
      <trkpt lat="45.39493" lon="3.36984">
        <ele>489.8</ele>
        <time>2020-09-17T09:43:18Z</time>
      </trkpt>
      <trkpt lat="45.39494" lon="3.36984">
        <ele>489.9</ele>
        <time>2020-09-17T09:43:19Z</time>
      </trkpt>
      <trkpt lat="45.39495" lon="3.36983">
        <ele>489.9</ele>
        <time>2020-09-17T09:43:20Z</time>
      </trkpt>
      <trkpt lat="45.39496" lon="3.36983">
        <ele>490</ele>
        <time>2020-09-17T09:43:21Z</time>
      </trkpt>
      <trkpt lat="45.39497" lon="3.36982">
        <ele>490</ele>
        <time>2020-09-17T09:43:22Z</time>
      </trkpt>
      <trkpt lat="45.39498" lon="3.36982">
        <ele>490</ele>
        <time>2020-09-17T09:43:23Z</time>
      </trkpt>
      <trkpt lat="45.39499" lon="3.36981">
        <ele>490.1</ele>
        <time>2020-09-17T09:43:24Z</time>
      </trkpt>
      <trkpt lat="45.395" lon="3.3698">
        <ele>490.1</ele>
        <time>2020-09-17T09:43:25Z</time>
      </trkpt>
      <trkpt lat="45.39501" lon="3.3698">
        <ele>490.2</ele>
        <time>2020-09-17T09:43:26Z</time>
      </trkpt>
      <trkpt lat="45.39502" lon="3.36979">
        <ele>490.2</ele>
        <time>2020-09-17T09:43:27Z</time>
      </trkpt>
      <trkpt lat="45.39503" lon="3.36979">
        <ele>490.3</ele>
        <time>2020-09-17T09:43:28Z</time>
      </trkpt>
      <trkpt lat="45.39504" lon="3.36979">
        <ele>490.4</ele>
        <time>2020-09-17T09:43:29Z</time>
      </trkpt>
      <trkpt lat="45.39504" lon="3.36978">
        <ele>490.5</ele>
        <time>2020-09-17T09:43:30Z</time>
      </trkpt>
      <trkpt lat="45.39505" lon="3.36977">
        <ele>490.5</ele>
        <time>2020-09-17T09:43:31Z</time>
      </trkpt>
      <trkpt lat="45.39506" lon="3.36977">
        <ele>490.6</ele>
        <time>2020-09-17T09:43:32Z</time>
      </trkpt>
      <trkpt lat="45.39507" lon="3.36976">
        <ele>490.6</ele>
        <time>2020-09-17T09:43:33Z</time>
      </trkpt>
      <trkpt lat="45.39508" lon="3.36976">
        <ele>490.6</ele>
        <time>2020-09-17T09:43:34Z</time>
      </trkpt>
      <trkpt lat="45.39509" lon="3.36975">
        <ele>490.7</ele>
        <time>2020-09-17T09:43:35Z</time>
      </trkpt>
      <trkpt lat="45.3951" lon="3.36975">
        <ele>490.8</ele>
        <time>2020-09-17T09:43:36Z</time>
      </trkpt>
      <trkpt lat="45.39511" lon="3.36974">
        <ele>490.8</ele>
        <time>2020-09-17T09:43:37Z</time>
      </trkpt>
      <trkpt lat="45.39512" lon="3.36974">
        <ele>490.9</ele>
        <time>2020-09-17T09:43:38Z</time>
      </trkpt>
      <trkpt lat="45.39513" lon="3.36973">
        <ele>491</ele>
        <time>2020-09-17T09:43:39Z</time>
      </trkpt>
      <trkpt lat="45.39514" lon="3.36973">
        <ele>491</ele>
        <time>2020-09-17T09:43:40Z</time>
      </trkpt>
      <trkpt lat="45.39514" lon="3.36972">
        <ele>491.1</ele>
        <time>2020-09-17T09:43:41Z</time>
      </trkpt>
      <trkpt lat="45.39515" lon="3.36972">
        <ele>491.2</ele>
        <time>2020-09-17T09:43:42Z</time>
      </trkpt>
      <trkpt lat="45.39516" lon="3.36972">
        <ele>491.4</ele>
        <time>2020-09-17T09:43:43Z</time>
      </trkpt>
      <trkpt lat="45.39517" lon="3.36971">
        <ele>491.5</ele>
        <time>2020-09-17T09:43:44Z</time>
      </trkpt>
      <trkpt lat="45.39518" lon="3.36971">
        <ele>491.7</ele>
        <time>2020-09-17T09:43:45Z</time>
      </trkpt>
      <trkpt lat="45.39519" lon="3.3697">
        <ele>491.9</ele>
        <time>2020-09-17T09:43:46Z</time>
      </trkpt>
      <trkpt lat="45.3952" lon="3.3697">
        <ele>492</ele>
        <time>2020-09-17T09:43:47Z</time>
      </trkpt>
      <trkpt lat="45.39521" lon="3.36969">
        <ele>492.2</ele>
        <time>2020-09-17T09:43:48Z</time>
      </trkpt>
      <trkpt lat="45.39522" lon="3.36969">
        <ele>492.3</ele>
        <time>2020-09-17T09:43:49Z</time>
      </trkpt>
      <trkpt lat="45.39522" lon="3.36968">
        <ele>492.4</ele>
        <time>2020-09-17T09:43:50Z</time>
      </trkpt>
      <trkpt lat="45.39523" lon="3.36968">
        <ele>492.6</ele>
        <time>2020-09-17T09:43:51Z</time>
      </trkpt>
      <trkpt lat="45.39524" lon="3.36967">
        <ele>492.7</ele>
        <time>2020-09-17T09:43:52Z</time>
      </trkpt>
      <trkpt lat="45.39525" lon="3.36966">
        <ele>492.9</ele>
        <time>2020-09-17T09:43:53Z</time>
      </trkpt>
      <trkpt lat="45.39526" lon="3.36966">
        <ele>493</ele>
        <time>2020-09-17T09:43:54Z</time>
      </trkpt>
      <trkpt lat="45.39527" lon="3.36965">
        <ele>493.1</ele>
        <time>2020-09-17T09:43:55Z</time>
      </trkpt>
      <trkpt lat="45.39527" lon="3.36964">
        <ele>493.2</ele>
        <time>2020-09-17T09:43:56Z</time>
      </trkpt>
      <trkpt lat="45.39528" lon="3.36964">
        <ele>493.4</ele>
        <time>2020-09-17T09:43:57Z</time>
      </trkpt>
      <trkpt lat="45.39529" lon="3.36963">
        <ele>493.5</ele>
        <time>2020-09-17T09:43:58Z</time>
      </trkpt>
      <trkpt lat="45.3953" lon="3.36962">
        <ele>493.7</ele>
        <time>2020-09-17T09:43:59Z</time>
      </trkpt>
      <trkpt lat="45.39531" lon="3.36961">
        <ele>493.8</ele>
        <time>2020-09-17T09:44:00Z</time>
      </trkpt>
      <trkpt lat="45.39531" lon="3.3696">
        <ele>494</ele>
        <time>2020-09-17T09:44:01Z</time>
      </trkpt>
      <trkpt lat="45.39532" lon="3.3696">
        <ele>494.1</ele>
        <time>2020-09-17T09:44:02Z</time>
      </trkpt>
      <trkpt lat="45.39532" lon="3.36959">
        <ele>494.2</ele>
        <time>2020-09-17T09:44:03Z</time>
      </trkpt>
      <trkpt lat="45.39533" lon="3.36958">
        <ele>494.3</ele>
        <time>2020-09-17T09:44:04Z</time>
      </trkpt>
      <trkpt lat="45.39533" lon="3.36957">
        <ele>494.4</ele>
        <time>2020-09-17T09:44:05Z</time>
      </trkpt>
      <trkpt lat="45.39533" lon="3.36956">
        <ele>494.4</ele>
        <time>2020-09-17T09:44:06Z</time>
      </trkpt>
      <trkpt lat="45.39533" lon="3.36955">
        <ele>494.4</ele>
        <time>2020-09-17T09:44:07Z</time>
      </trkpt>
      <trkpt lat="45.39533" lon="3.36954">
        <ele>494.5</ele>
        <time>2020-09-17T09:44:08Z</time>
      </trkpt>
      <trkpt lat="45.39533" lon="3.36953">
        <ele>494.5</ele>
        <time>2020-09-17T09:44:09Z</time>
      </trkpt>
      <trkpt lat="45.39533" lon="3.36952">
        <ele>494.5</ele>
        <time>2020-09-17T09:44:10Z</time>
      </trkpt>
      <trkpt lat="45.39533" lon="3.36951">
        <ele>494.5</ele>
        <time>2020-09-17T09:44:11Z</time>
      </trkpt>
      <trkpt lat="45.39532" lon="3.3695">
        <ele>494.5</ele>
        <time>2020-09-17T09:44:12Z</time>
      </trkpt>
      <trkpt lat="45.39532" lon="3.36949">
        <ele>494.5</ele>
        <time>2020-09-17T09:44:13Z</time>
      </trkpt>
      <trkpt lat="45.39531" lon="3.36948">
        <ele>494.4</ele>
        <time>2020-09-17T09:44:14Z</time>
      </trkpt>
      <trkpt lat="45.39531" lon="3.36947">
        <ele>494.4</ele>
        <time>2020-09-17T09:44:15Z</time>
      </trkpt>
      <trkpt lat="45.3953" lon="3.36946">
        <ele>494.3</ele>
        <time>2020-09-17T09:44:16Z</time>
      </trkpt>
      <trkpt lat="45.3953" lon="3.36945">
        <ele>494.3</ele>
        <time>2020-09-17T09:44:17Z</time>
      </trkpt>
      <trkpt lat="45.39529" lon="3.36944">
        <ele>494.2</ele>
        <time>2020-09-17T09:44:18Z</time>
      </trkpt>
      <trkpt lat="45.39529" lon="3.36943">
        <ele>494.4</ele>
        <time>2020-09-17T09:44:19Z</time>
      </trkpt>
      <trkpt lat="45.39528" lon="3.36943">
        <ele>494.5</ele>
        <time>2020-09-17T09:44:20Z</time>
      </trkpt>
      <trkpt lat="45.39528" lon="3.36942">
        <ele>494.6</ele>
        <time>2020-09-17T09:44:21Z</time>
      </trkpt>
      <trkpt lat="45.39527" lon="3.36941">
        <ele>494.7</ele>
        <time>2020-09-17T09:44:22Z</time>
      </trkpt>
      <trkpt lat="45.39527" lon="3.3694">
        <ele>494.9</ele>
        <time>2020-09-17T09:44:23Z</time>
      </trkpt>
      <trkpt lat="45.39526" lon="3.36939">
        <ele>495</ele>
        <time>2020-09-17T09:44:24Z</time>
      </trkpt>
      <trkpt lat="45.39526" lon="3.36938">
        <ele>495.2</ele>
        <time>2020-09-17T09:44:25Z</time>
      </trkpt>
      <trkpt lat="45.39525" lon="3.36937">
        <ele>495.3</ele>
        <time>2020-09-17T09:44:26Z</time>
      </trkpt>
      <trkpt lat="45.39525" lon="3.36937">
        <ele>495.5</ele>
        <time>2020-09-17T09:44:27Z</time>
      </trkpt>
      <trkpt lat="45.39524" lon="3.36936">
        <ele>495.6</ele>
        <time>2020-09-17T09:44:28Z</time>
      </trkpt>
      <trkpt lat="45.39524" lon="3.36935">
        <ele>495.8</ele>
        <time>2020-09-17T09:44:29Z</time>
      </trkpt>
      <trkpt lat="45.39523" lon="3.36934">
        <ele>495.9</ele>
        <time>2020-09-17T09:44:30Z</time>
      </trkpt>
      <trkpt lat="45.39523" lon="3.36933">
        <ele>496.1</ele>
        <time>2020-09-17T09:44:31Z</time>
      </trkpt>
      <trkpt lat="45.39522" lon="3.36932">
        <ele>496.2</ele>
        <time>2020-09-17T09:44:32Z</time>
      </trkpt>
      <trkpt lat="45.39522" lon="3.36931">
        <ele>496.3</ele>
        <time>2020-09-17T09:44:33Z</time>
      </trkpt>
      <trkpt lat="45.39522" lon="3.36931">
        <ele>496.3</ele>
        <time>2020-09-17T09:44:34Z</time>
      </trkpt>
      <trkpt lat="45.39522" lon="3.36931">
        <ele>496.3</ele>
        <time>2020-09-17T09:44:35Z</time>
      </trkpt>
      <trkpt lat="45.39521" lon="3.36931">
        <ele>496.3</ele>
        <time>2020-09-17T09:44:36Z</time>
      </trkpt>
      <trkpt lat="45.39521" lon="3.36931">
        <ele>496.4</ele>
        <time>2020-09-17T09:44:37Z</time>
      </trkpt>
      <trkpt lat="45.39521" lon="3.36931">
        <ele>496.4</ele>
        <time>2020-09-17T09:44:38Z</time>
      </trkpt>
      <trkpt lat="45.39521" lon="3.3693">
        <ele>496.4</ele>
        <time>2020-09-17T09:44:39Z</time>
      </trkpt>
      <trkpt lat="45.3952" lon="3.3693">
        <ele>496.5</ele>
        <time>2020-09-17T09:44:40Z</time>
      </trkpt>
      <trkpt lat="45.3952" lon="3.36929">
        <ele>496.6</ele>
        <time>2020-09-17T09:44:41Z</time>
      </trkpt>
      <trkpt lat="45.39519" lon="3.36928">
        <ele>496.7</ele>
        <time>2020-09-17T09:44:42Z</time>
      </trkpt>
      <trkpt lat="45.39519" lon="3.36928">
        <ele>496.8</ele>
        <time>2020-09-17T09:44:43Z</time>
      </trkpt>
      <trkpt lat="45.39518" lon="3.36927">
        <ele>496.9</ele>
        <time>2020-09-17T09:44:44Z</time>
      </trkpt>
      <trkpt lat="45.39518" lon="3.36926">
        <ele>497</ele>
        <time>2020-09-17T09:44:45Z</time>
      </trkpt>
      <trkpt lat="45.39517" lon="3.36925">
        <ele>497.2</ele>
        <time>2020-09-17T09:44:46Z</time>
      </trkpt>
      <trkpt lat="45.39517" lon="3.36924">
        <ele>497.3</ele>
        <time>2020-09-17T09:44:47Z</time>
      </trkpt>
      <trkpt lat="45.39517" lon="3.36924">
        <ele>497.4</ele>
        <time>2020-09-17T09:44:48Z</time>
      </trkpt>
      <trkpt lat="45.39517" lon="3.36923">
        <ele>497.6</ele>
        <time>2020-09-17T09:44:49Z</time>
      </trkpt>
      <trkpt lat="45.39516" lon="3.36922">
        <ele>497.8</ele>
        <time>2020-09-17T09:44:50Z</time>
      </trkpt>
      <trkpt lat="45.39516" lon="3.3692">
        <ele>498</ele>
        <time>2020-09-17T09:44:51Z</time>
      </trkpt>
      <trkpt lat="45.39516" lon="3.3692">
        <ele>498.2</ele>
        <time>2020-09-17T09:44:52Z</time>
      </trkpt>
      <trkpt lat="45.39516" lon="3.36918">
        <ele>498.4</ele>
        <time>2020-09-17T09:44:53Z</time>
      </trkpt>
      <trkpt lat="45.39516" lon="3.36917">
        <ele>498.7</ele>
        <time>2020-09-17T09:44:54Z</time>
      </trkpt>
      <trkpt lat="45.39517" lon="3.36916">
        <ele>498.9</ele>
        <time>2020-09-17T09:44:55Z</time>
      </trkpt>
      <trkpt lat="45.39517" lon="3.36915">
        <ele>499.1</ele>
        <time>2020-09-17T09:44:56Z</time>
      </trkpt>
      <trkpt lat="45.39518" lon="3.36914">
        <ele>499.4</ele>
        <time>2020-09-17T09:44:57Z</time>
      </trkpt>
      <trkpt lat="45.39518" lon="3.36914">
        <ele>499.6</ele>
        <time>2020-09-17T09:44:58Z</time>
      </trkpt>
      <trkpt lat="45.39519" lon="3.36913">
        <ele>499.8</ele>
        <time>2020-09-17T09:44:59Z</time>
      </trkpt>
      <trkpt lat="45.3952" lon="3.36912">
        <ele>500</ele>
        <time>2020-09-17T09:45:00Z</time>
      </trkpt>
      <trkpt lat="45.3952" lon="3.36912">
        <ele>500.2</ele>
        <time>2020-09-17T09:45:01Z</time>
      </trkpt>
      <trkpt lat="45.39521" lon="3.36911">
        <ele>500.3</ele>
        <time>2020-09-17T09:45:02Z</time>
      </trkpt>
      <trkpt lat="45.39522" lon="3.36911">
        <ele>500.5</ele>
        <time>2020-09-17T09:45:03Z</time>
      </trkpt>
      <trkpt lat="45.39523" lon="3.3691">
        <ele>500.7</ele>
        <time>2020-09-17T09:45:04Z</time>
      </trkpt>
      <trkpt lat="45.39523" lon="3.3691">
        <ele>500.8</ele>
        <time>2020-09-17T09:45:05Z</time>
      </trkpt>
      <trkpt lat="45.39524" lon="3.3691">
        <ele>500.9</ele>
        <time>2020-09-17T09:45:06Z</time>
      </trkpt>
      <trkpt lat="45.39525" lon="3.36909">
        <ele>501.1</ele>
        <time>2020-09-17T09:45:07Z</time>
      </trkpt>
      <trkpt lat="45.39525" lon="3.36909">
        <ele>501.2</ele>
        <time>2020-09-17T09:45:08Z</time>
      </trkpt>
      <trkpt lat="45.39526" lon="3.36908">
        <ele>501.4</ele>
        <time>2020-09-17T09:45:09Z</time>
      </trkpt>
      <trkpt lat="45.39527" lon="3.36908">
        <ele>501.5</ele>
        <time>2020-09-17T09:45:10Z</time>
      </trkpt>
      <trkpt lat="45.39528" lon="3.36908">
        <ele>501.6</ele>
        <time>2020-09-17T09:45:11Z</time>
      </trkpt>
      <trkpt lat="45.39528" lon="3.36907">
        <ele>501.8</ele>
        <time>2020-09-17T09:45:12Z</time>
      </trkpt>
      <trkpt lat="45.39529" lon="3.36907">
        <ele>501.8</ele>
        <time>2020-09-17T09:45:13Z</time>
      </trkpt>
      <trkpt lat="45.3953" lon="3.36907">
        <ele>501.9</ele>
        <time>2020-09-17T09:45:14Z</time>
      </trkpt>
      <trkpt lat="45.39531" lon="3.36906">
        <ele>502</ele>
        <time>2020-09-17T09:45:15Z</time>
      </trkpt>
      <trkpt lat="45.39532" lon="3.36906">
        <ele>502.1</ele>
        <time>2020-09-17T09:45:16Z</time>
      </trkpt>
      <trkpt lat="45.39533" lon="3.36905">
        <ele>502.2</ele>
        <time>2020-09-17T09:45:17Z</time>
      </trkpt>
      <trkpt lat="45.39534" lon="3.36905">
        <ele>502.3</ele>
        <time>2020-09-17T09:45:18Z</time>
      </trkpt>
      <trkpt lat="45.39535" lon="3.36905">
        <ele>502.4</ele>
        <time>2020-09-17T09:45:19Z</time>
      </trkpt>
      <trkpt lat="45.39535" lon="3.36904">
        <ele>502.5</ele>
        <time>2020-09-17T09:45:20Z</time>
      </trkpt>
      <trkpt lat="45.39536" lon="3.36904">
        <ele>502.6</ele>
        <time>2020-09-17T09:45:21Z</time>
      </trkpt>
      <trkpt lat="45.39537" lon="3.36903">
        <ele>502.7</ele>
        <time>2020-09-17T09:45:22Z</time>
      </trkpt>
      <trkpt lat="45.39538" lon="3.36903">
        <ele>502.8</ele>
        <time>2020-09-17T09:45:23Z</time>
      </trkpt>
      <trkpt lat="45.39539" lon="3.36903">
        <ele>502.9</ele>
        <time>2020-09-17T09:45:24Z</time>
      </trkpt>
      <trkpt lat="45.3954" lon="3.36902">
        <ele>503</ele>
        <time>2020-09-17T09:45:25Z</time>
      </trkpt>
      <trkpt lat="45.39541" lon="3.36902">
        <ele>503.1</ele>
        <time>2020-09-17T09:45:26Z</time>
      </trkpt>
      <trkpt lat="45.39542" lon="3.36902">
        <ele>503.2</ele>
        <time>2020-09-17T09:45:27Z</time>
      </trkpt>
      <trkpt lat="45.39542" lon="3.36901">
        <ele>503.3</ele>
        <time>2020-09-17T09:45:28Z</time>
      </trkpt>
      <trkpt lat="45.39543" lon="3.36901">
        <ele>503.4</ele>
        <time>2020-09-17T09:45:29Z</time>
      </trkpt>
      <trkpt lat="45.39544" lon="3.369">
        <ele>503.5</ele>
        <time>2020-09-17T09:45:30Z</time>
      </trkpt>
      <trkpt lat="45.39545" lon="3.369">
        <ele>503.6</ele>
        <time>2020-09-17T09:45:31Z</time>
      </trkpt>
      <trkpt lat="45.39546" lon="3.369">
        <ele>503.7</ele>
        <time>2020-09-17T09:45:32Z</time>
      </trkpt>
      <trkpt lat="45.39546" lon="3.36899">
        <ele>503.8</ele>
        <time>2020-09-17T09:45:33Z</time>
      </trkpt>
      <trkpt lat="45.39547" lon="3.36899">
        <ele>503.9</ele>
        <time>2020-09-17T09:45:34Z</time>
      </trkpt>
      <trkpt lat="45.39548" lon="3.36899">
        <ele>504</ele>
        <time>2020-09-17T09:45:35Z</time>
      </trkpt>
      <trkpt lat="45.39549" lon="3.36898">
        <ele>504.1</ele>
        <time>2020-09-17T09:45:36Z</time>
      </trkpt>
      <trkpt lat="45.3955" lon="3.36898">
        <ele>504.2</ele>
        <time>2020-09-17T09:45:37Z</time>
      </trkpt>
      <trkpt lat="45.3955" lon="3.36897">
        <ele>504.3</ele>
        <time>2020-09-17T09:45:38Z</time>
      </trkpt>
      <trkpt lat="45.39551" lon="3.36897">
        <ele>504.5</ele>
        <time>2020-09-17T09:45:39Z</time>
      </trkpt>
      <trkpt lat="45.39552" lon="3.36896">
        <ele>504.6</ele>
        <time>2020-09-17T09:45:40Z</time>
      </trkpt>
      <trkpt lat="45.39553" lon="3.36896">
        <ele>504.7</ele>
        <time>2020-09-17T09:45:41Z</time>
      </trkpt>
      <trkpt lat="45.39554" lon="3.36895">
        <ele>504.8</ele>
        <time>2020-09-17T09:45:42Z</time>
      </trkpt>
      <trkpt lat="45.39555" lon="3.36895">
        <ele>504.9</ele>
        <time>2020-09-17T09:45:43Z</time>
      </trkpt>
      <trkpt lat="45.39556" lon="3.36894">
        <ele>505</ele>
        <time>2020-09-17T09:45:44Z</time>
      </trkpt>
      <trkpt lat="45.39557" lon="3.36894">
        <ele>505.1</ele>
        <time>2020-09-17T09:45:45Z</time>
      </trkpt>
      <trkpt lat="45.39558" lon="3.36893">
        <ele>505.2</ele>
        <time>2020-09-17T09:45:46Z</time>
      </trkpt>
      <trkpt lat="45.39559" lon="3.36893">
        <ele>505.3</ele>
        <time>2020-09-17T09:45:47Z</time>
      </trkpt>
      <trkpt lat="45.3956" lon="3.36893">
        <ele>505.4</ele>
        <time>2020-09-17T09:45:48Z</time>
      </trkpt>
      <trkpt lat="45.3956" lon="3.36892">
        <ele>505.5</ele>
        <time>2020-09-17T09:45:49Z</time>
      </trkpt>
      <trkpt lat="45.39561" lon="3.36892">
        <ele>505.5</ele>
        <time>2020-09-17T09:45:50Z</time>
      </trkpt>
      <trkpt lat="45.39562" lon="3.36891">
        <ele>505.6</ele>
        <time>2020-09-17T09:45:51Z</time>
      </trkpt>
      <trkpt lat="45.39563" lon="3.36891">
        <ele>505.6</ele>
        <time>2020-09-17T09:45:52Z</time>
      </trkpt>
      <trkpt lat="45.39564" lon="3.36891">
        <ele>505.7</ele>
        <time>2020-09-17T09:45:53Z</time>
      </trkpt>
      <trkpt lat="45.39565" lon="3.3689">
        <ele>505.8</ele>
        <time>2020-09-17T09:45:54Z</time>
      </trkpt>
      <trkpt lat="45.39566" lon="3.3689">
        <ele>505.8</ele>
        <time>2020-09-17T09:45:55Z</time>
      </trkpt>
      <trkpt lat="45.39567" lon="3.3689">
        <ele>505.9</ele>
        <time>2020-09-17T09:45:56Z</time>
      </trkpt>
      <trkpt lat="45.39568" lon="3.36889">
        <ele>506</ele>
        <time>2020-09-17T09:45:57Z</time>
      </trkpt>
      <trkpt lat="45.39569" lon="3.36889">
        <ele>506</ele>
        <time>2020-09-17T09:45:58Z</time>
      </trkpt>
      <trkpt lat="45.3957" lon="3.36888">
        <ele>506.1</ele>
        <time>2020-09-17T09:45:59Z</time>
      </trkpt>
      <trkpt lat="45.39571" lon="3.36888">
        <ele>506.2</ele>
        <time>2020-09-17T09:46:00Z</time>
      </trkpt>
      <trkpt lat="45.39571" lon="3.36887">
        <ele>506.3</ele>
        <time>2020-09-17T09:46:01Z</time>
      </trkpt>
      <trkpt lat="45.39572" lon="3.36887">
        <ele>506.4</ele>
        <time>2020-09-17T09:46:02Z</time>
      </trkpt>
      <trkpt lat="45.39573" lon="3.36886">
        <ele>506.5</ele>
        <time>2020-09-17T09:46:03Z</time>
      </trkpt>
      <trkpt lat="45.39573" lon="3.36886">
        <ele>506.5</ele>
        <time>2020-09-17T09:46:04Z</time>
      </trkpt>
      <trkpt lat="45.39574" lon="3.36886">
        <ele>506.6</ele>
        <time>2020-09-17T09:46:05Z</time>
      </trkpt>
      <trkpt lat="45.39575" lon="3.36885">
        <ele>506.7</ele>
        <time>2020-09-17T09:46:06Z</time>
      </trkpt>
      <trkpt lat="45.39576" lon="3.36885">
        <ele>506.8</ele>
        <time>2020-09-17T09:46:07Z</time>
      </trkpt>
      <trkpt lat="45.39577" lon="3.36884">
        <ele>506.8</ele>
        <time>2020-09-17T09:46:08Z</time>
      </trkpt>
      <trkpt lat="45.39578" lon="3.36884">
        <ele>506.9</ele>
        <time>2020-09-17T09:46:09Z</time>
      </trkpt>
      <trkpt lat="45.39578" lon="3.36884">
        <ele>506.9</ele>
        <time>2020-09-17T09:46:10Z</time>
      </trkpt>
      <trkpt lat="45.39579" lon="3.36883">
        <ele>507</ele>
        <time>2020-09-17T09:46:11Z</time>
      </trkpt>
      <trkpt lat="45.3958" lon="3.36883">
        <ele>507.1</ele>
        <time>2020-09-17T09:46:12Z</time>
      </trkpt>
      <trkpt lat="45.39582" lon="3.36882">
        <ele>507.2</ele>
        <time>2020-09-17T09:46:13Z</time>
      </trkpt>
      <trkpt lat="45.39583" lon="3.36882">
        <ele>507.3</ele>
        <time>2020-09-17T09:46:14Z</time>
      </trkpt>
      <trkpt lat="45.39584" lon="3.36881">
        <ele>507.4</ele>
        <time>2020-09-17T09:46:15Z</time>
      </trkpt>
      <trkpt lat="45.39585" lon="3.36881">
        <ele>507.5</ele>
        <time>2020-09-17T09:46:16Z</time>
      </trkpt>
      <trkpt lat="45.39586" lon="3.3688">
        <ele>507.6</ele>
        <time>2020-09-17T09:46:17Z</time>
      </trkpt>
      <trkpt lat="45.39587" lon="3.3688">
        <ele>507.7</ele>
        <time>2020-09-17T09:46:18Z</time>
      </trkpt>
      <trkpt lat="45.39588" lon="3.3688">
        <ele>507.8</ele>
        <time>2020-09-17T09:46:19Z</time>
      </trkpt>
      <trkpt lat="45.39589" lon="3.36879">
        <ele>507.9</ele>
        <time>2020-09-17T09:46:20Z</time>
      </trkpt>
      <trkpt lat="45.3959" lon="3.36879">
        <ele>508.1</ele>
        <time>2020-09-17T09:46:21Z</time>
      </trkpt>
      <trkpt lat="45.39591" lon="3.36878">
        <ele>508.2</ele>
        <time>2020-09-17T09:46:22Z</time>
      </trkpt>
      <trkpt lat="45.39592" lon="3.36878">
        <ele>508.3</ele>
        <time>2020-09-17T09:46:23Z</time>
      </trkpt>
      <trkpt lat="45.39593" lon="3.36877">
        <ele>508.4</ele>
        <time>2020-09-17T09:46:24Z</time>
      </trkpt>
      <trkpt lat="45.39594" lon="3.36877">
        <ele>508.5</ele>
        <time>2020-09-17T09:46:25Z</time>
      </trkpt>
      <trkpt lat="45.39595" lon="3.36877">
        <ele>508.6</ele>
        <time>2020-09-17T09:46:26Z</time>
      </trkpt>
      <trkpt lat="45.39596" lon="3.36876">
        <ele>508.7</ele>
        <time>2020-09-17T09:46:27Z</time>
      </trkpt>
      <trkpt lat="45.39597" lon="3.36876">
        <ele>508.9</ele>
        <time>2020-09-17T09:46:28Z</time>
      </trkpt>
      <trkpt lat="45.39598" lon="3.36875">
        <ele>509</ele>
        <time>2020-09-17T09:46:29Z</time>
      </trkpt>
      <trkpt lat="45.39599" lon="3.36875">
        <ele>509.1</ele>
        <time>2020-09-17T09:46:30Z</time>
      </trkpt>
      <trkpt lat="45.396" lon="3.36874">
        <ele>509.2</ele>
        <time>2020-09-17T09:46:31Z</time>
      </trkpt>
      <trkpt lat="45.39601" lon="3.36874">
        <ele>509.3</ele>
        <time>2020-09-17T09:46:32Z</time>
      </trkpt>
      <trkpt lat="45.39602" lon="3.36874">
        <ele>509.4</ele>
        <time>2020-09-17T09:46:33Z</time>
      </trkpt>
      <trkpt lat="45.39603" lon="3.36874">
        <ele>509.5</ele>
        <time>2020-09-17T09:46:34Z</time>
      </trkpt>
      <trkpt lat="45.39604" lon="3.36873">
        <ele>509.6</ele>
        <time>2020-09-17T09:46:35Z</time>
      </trkpt>
      <trkpt lat="45.39605" lon="3.36873">
        <ele>509.7</ele>
        <time>2020-09-17T09:46:36Z</time>
      </trkpt>
      <trkpt lat="45.39606" lon="3.36872">
        <ele>509.8</ele>
        <time>2020-09-17T09:46:37Z</time>
      </trkpt>
      <trkpt lat="45.39607" lon="3.36872">
        <ele>509.9</ele>
        <time>2020-09-17T09:46:38Z</time>
      </trkpt>
      <trkpt lat="45.39608" lon="3.36872">
        <ele>510</ele>
        <time>2020-09-17T09:46:39Z</time>
      </trkpt>
      <trkpt lat="45.39609" lon="3.36872">
        <ele>510</ele>
        <time>2020-09-17T09:46:40Z</time>
      </trkpt>
      <trkpt lat="45.3961" lon="3.36871">
        <ele>510.1</ele>
        <time>2020-09-17T09:46:41Z</time>
      </trkpt>
      <trkpt lat="45.39611" lon="3.36871">
        <ele>510.2</ele>
        <time>2020-09-17T09:46:42Z</time>
      </trkpt>
      <trkpt lat="45.39612" lon="3.3687">
        <ele>510.4</ele>
        <time>2020-09-17T09:46:43Z</time>
      </trkpt>
      <trkpt lat="45.39613" lon="3.3687">
        <ele>510.5</ele>
        <time>2020-09-17T09:46:44Z</time>
      </trkpt>
      <trkpt lat="45.39614" lon="3.3687">
        <ele>510.6</ele>
        <time>2020-09-17T09:46:45Z</time>
      </trkpt>
      <trkpt lat="45.39615" lon="3.3687">
        <ele>510.7</ele>
        <time>2020-09-17T09:46:46Z</time>
      </trkpt>
      <trkpt lat="45.39616" lon="3.36869">
        <ele>510.8</ele>
        <time>2020-09-17T09:46:47Z</time>
      </trkpt>
      <trkpt lat="45.39617" lon="3.36869">
        <ele>510.8</ele>
        <time>2020-09-17T09:46:48Z</time>
      </trkpt>
      <trkpt lat="45.39618" lon="3.36869">
        <ele>510.9</ele>
        <time>2020-09-17T09:46:49Z</time>
      </trkpt>
      <trkpt lat="45.39619" lon="3.36869">
        <ele>511</ele>
        <time>2020-09-17T09:46:50Z</time>
      </trkpt>
      <trkpt lat="45.3962" lon="3.36868">
        <ele>511.1</ele>
        <time>2020-09-17T09:46:51Z</time>
      </trkpt>
      <trkpt lat="45.39621" lon="3.36868">
        <ele>511.2</ele>
        <time>2020-09-17T09:46:52Z</time>
      </trkpt>
      <trkpt lat="45.39622" lon="3.36868">
        <ele>511.3</ele>
        <time>2020-09-17T09:46:53Z</time>
      </trkpt>
      <trkpt lat="45.39622" lon="3.36868">
        <ele>511.3</ele>
        <time>2020-09-17T09:46:54Z</time>
      </trkpt>
      <trkpt lat="45.39623" lon="3.36867">
        <ele>511.4</ele>
        <time>2020-09-17T09:46:55Z</time>
      </trkpt>
      <trkpt lat="45.39624" lon="3.36867">
        <ele>511.5</ele>
        <time>2020-09-17T09:46:56Z</time>
      </trkpt>
      <trkpt lat="45.39625" lon="3.36867">
        <ele>511.6</ele>
        <time>2020-09-17T09:46:57Z</time>
      </trkpt>
      <trkpt lat="45.39626" lon="3.36867">
        <ele>511.6</ele>
        <time>2020-09-17T09:46:58Z</time>
      </trkpt>
      <trkpt lat="45.39627" lon="3.36867">
        <ele>511.7</ele>
        <time>2020-09-17T09:46:59Z</time>
      </trkpt>
      <trkpt lat="45.39628" lon="3.36866">
        <ele>511.8</ele>
        <time>2020-09-17T09:47:00Z</time>
      </trkpt>
      <trkpt lat="45.39629" lon="3.36866">
        <ele>511.8</ele>
        <time>2020-09-17T09:47:01Z</time>
      </trkpt>
      <trkpt lat="45.3963" lon="3.36866">
        <ele>511.9</ele>
        <time>2020-09-17T09:47:02Z</time>
      </trkpt>
      <trkpt lat="45.39631" lon="3.36866">
        <ele>512</ele>
        <time>2020-09-17T09:47:03Z</time>
      </trkpt>
      <trkpt lat="45.39632" lon="3.36865">
        <ele>512.1</ele>
        <time>2020-09-17T09:47:04Z</time>
      </trkpt>
      <trkpt lat="45.39632" lon="3.36865">
        <ele>512.1</ele>
        <time>2020-09-17T09:47:05Z</time>
      </trkpt>
      <trkpt lat="45.39633" lon="3.36865">
        <ele>512.2</ele>
        <time>2020-09-17T09:47:06Z</time>
      </trkpt>
      <trkpt lat="45.39634" lon="3.36865">
        <ele>512.3</ele>
        <time>2020-09-17T09:47:07Z</time>
      </trkpt>
      <trkpt lat="45.39635" lon="3.36864">
        <ele>512.4</ele>
        <time>2020-09-17T09:47:08Z</time>
      </trkpt>
      <trkpt lat="45.39636" lon="3.36864">
        <ele>512.5</ele>
        <time>2020-09-17T09:47:09Z</time>
      </trkpt>
      <trkpt lat="45.39637" lon="3.36864">
        <ele>512.5</ele>
        <time>2020-09-17T09:47:10Z</time>
      </trkpt>
      <trkpt lat="45.39638" lon="3.36864">
        <ele>512.6</ele>
        <time>2020-09-17T09:47:11Z</time>
      </trkpt>
      <trkpt lat="45.39639" lon="3.36864">
        <ele>512.7</ele>
        <time>2020-09-17T09:47:12Z</time>
      </trkpt>
      <trkpt lat="45.3964" lon="3.36863">
        <ele>512.7</ele>
        <time>2020-09-17T09:47:13Z</time>
      </trkpt>
      <trkpt lat="45.39641" lon="3.36863">
        <ele>512.8</ele>
        <time>2020-09-17T09:47:14Z</time>
      </trkpt>
      <trkpt lat="45.39642" lon="3.36863">
        <ele>512.9</ele>
        <time>2020-09-17T09:47:15Z</time>
      </trkpt>
      <trkpt lat="45.39642" lon="3.36863">
        <ele>512.9</ele>
        <time>2020-09-17T09:47:16Z</time>
      </trkpt>
      <trkpt lat="45.39643" lon="3.36862">
        <ele>513</ele>
        <time>2020-09-17T09:47:17Z</time>
      </trkpt>
      <trkpt lat="45.39644" lon="3.36862">
        <ele>513.1</ele>
        <time>2020-09-17T09:47:18Z</time>
      </trkpt>
      <trkpt lat="45.39645" lon="3.36862">
        <ele>513.1</ele>
        <time>2020-09-17T09:47:19Z</time>
      </trkpt>
      <trkpt lat="45.39646" lon="3.36862">
        <ele>513.2</ele>
        <time>2020-09-17T09:47:20Z</time>
      </trkpt>
      <trkpt lat="45.39647" lon="3.36862">
        <ele>513.2</ele>
        <time>2020-09-17T09:47:21Z</time>
      </trkpt>
      <trkpt lat="45.39648" lon="3.36861">
        <ele>513.3</ele>
        <time>2020-09-17T09:47:22Z</time>
      </trkpt>
      <trkpt lat="45.39649" lon="3.36861">
        <ele>513.4</ele>
        <time>2020-09-17T09:47:23Z</time>
      </trkpt>
      <trkpt lat="45.3965" lon="3.36861">
        <ele>513.4</ele>
        <time>2020-09-17T09:47:24Z</time>
      </trkpt>
      <trkpt lat="45.39651" lon="3.36861">
        <ele>513.5</ele>
        <time>2020-09-17T09:47:25Z</time>
      </trkpt>
      <trkpt lat="45.39652" lon="3.36861">
        <ele>513.6</ele>
        <time>2020-09-17T09:47:26Z</time>
      </trkpt>
      <trkpt lat="45.39653" lon="3.3686">
        <ele>513.7</ele>
        <time>2020-09-17T09:47:27Z</time>
      </trkpt>
      <trkpt lat="45.39654" lon="3.3686">
        <ele>513.7</ele>
        <time>2020-09-17T09:47:28Z</time>
      </trkpt>
      <trkpt lat="45.39655" lon="3.3686">
        <ele>513.8</ele>
        <time>2020-09-17T09:47:29Z</time>
      </trkpt>
      <trkpt lat="45.39656" lon="3.3686">
        <ele>513.9</ele>
        <time>2020-09-17T09:47:30Z</time>
      </trkpt>
      <trkpt lat="45.39657" lon="3.3686">
        <ele>513.9</ele>
        <time>2020-09-17T09:47:31Z</time>
      </trkpt>
      <trkpt lat="45.39658" lon="3.36859">
        <ele>514</ele>
        <time>2020-09-17T09:47:32Z</time>
      </trkpt>
      <trkpt lat="45.39659" lon="3.36859">
        <ele>514.1</ele>
        <time>2020-09-17T09:47:33Z</time>
      </trkpt>
      <trkpt lat="45.3966" lon="3.36859">
        <ele>514.1</ele>
        <time>2020-09-17T09:47:34Z</time>
      </trkpt>
      <trkpt lat="45.39661" lon="3.36859">
        <ele>514.2</ele>
        <time>2020-09-17T09:47:35Z</time>
      </trkpt>
      <trkpt lat="45.39662" lon="3.36858">
        <ele>514.3</ele>
        <time>2020-09-17T09:47:36Z</time>
      </trkpt>
      <trkpt lat="45.39663" lon="3.36858">
        <ele>514.3</ele>
        <time>2020-09-17T09:47:37Z</time>
      </trkpt>
      <trkpt lat="45.39664" lon="3.36858">
        <ele>514.4</ele>
        <time>2020-09-17T09:47:38Z</time>
      </trkpt>
      <trkpt lat="45.39665" lon="3.36858">
        <ele>514.5</ele>
        <time>2020-09-17T09:47:39Z</time>
      </trkpt>
      <trkpt lat="45.39666" lon="3.36858">
        <ele>514.5</ele>
        <time>2020-09-17T09:47:40Z</time>
      </trkpt>
      <trkpt lat="45.39667" lon="3.36857">
        <ele>514.6</ele>
        <time>2020-09-17T09:47:41Z</time>
      </trkpt>
      <trkpt lat="45.39668" lon="3.36857">
        <ele>514.7</ele>
        <time>2020-09-17T09:47:42Z</time>
      </trkpt>
      <trkpt lat="45.39669" lon="3.36857">
        <ele>514.8</ele>
        <time>2020-09-17T09:47:43Z</time>
      </trkpt>
      <trkpt lat="45.3967" lon="3.36857">
        <ele>514.9</ele>
        <time>2020-09-17T09:47:44Z</time>
      </trkpt>
      <trkpt lat="45.39671" lon="3.36856">
        <ele>515</ele>
        <time>2020-09-17T09:47:45Z</time>
      </trkpt>
      <trkpt lat="45.39672" lon="3.36856">
        <ele>515.1</ele>
        <time>2020-09-17T09:47:46Z</time>
      </trkpt>
      <trkpt lat="45.39673" lon="3.36856">
        <ele>515.2</ele>
        <time>2020-09-17T09:47:47Z</time>
      </trkpt>
      <trkpt lat="45.39674" lon="3.36855">
        <ele>515.3</ele>
        <time>2020-09-17T09:47:48Z</time>
      </trkpt>
      <trkpt lat="45.39675" lon="3.36855">
        <ele>515.5</ele>
        <time>2020-09-17T09:47:49Z</time>
      </trkpt>
      <trkpt lat="45.39676" lon="3.36855">
        <ele>515.6</ele>
        <time>2020-09-17T09:47:50Z</time>
      </trkpt>
      <trkpt lat="45.39677" lon="3.36854">
        <ele>515.7</ele>
        <time>2020-09-17T09:47:51Z</time>
      </trkpt>
      <trkpt lat="45.39678" lon="3.36854">
        <ele>515.8</ele>
        <time>2020-09-17T09:47:52Z</time>
      </trkpt>
      <trkpt lat="45.39678" lon="3.36854">
        <ele>515.9</ele>
        <time>2020-09-17T09:47:53Z</time>
      </trkpt>
      <trkpt lat="45.39679" lon="3.36853">
        <ele>516</ele>
        <time>2020-09-17T09:47:54Z</time>
      </trkpt>
      <trkpt lat="45.3968" lon="3.36853">
        <ele>516.2</ele>
        <time>2020-09-17T09:47:55Z</time>
      </trkpt>
      <trkpt lat="45.39681" lon="3.36853">
        <ele>516.2</ele>
        <time>2020-09-17T09:47:56Z</time>
      </trkpt>
      <trkpt lat="45.39682" lon="3.36853">
        <ele>516.4</ele>
        <time>2020-09-17T09:47:57Z</time>
      </trkpt>
      <trkpt lat="45.39683" lon="3.36852">
        <ele>516.5</ele>
        <time>2020-09-17T09:47:58Z</time>
      </trkpt>
      <trkpt lat="45.39684" lon="3.36852">
        <ele>516.6</ele>
        <time>2020-09-17T09:47:59Z</time>
      </trkpt>
      <trkpt lat="45.39685" lon="3.36851">
        <ele>516.7</ele>
        <time>2020-09-17T09:48:00Z</time>
      </trkpt>
      <trkpt lat="45.39686" lon="3.36851">
        <ele>516.8</ele>
        <time>2020-09-17T09:48:01Z</time>
      </trkpt>
      <trkpt lat="45.39687" lon="3.36851">
        <ele>516.9</ele>
        <time>2020-09-17T09:48:02Z</time>
      </trkpt>
      <trkpt lat="45.39688" lon="3.3685">
        <ele>517.1</ele>
        <time>2020-09-17T09:48:03Z</time>
      </trkpt>
      <trkpt lat="45.39688" lon="3.3685">
        <ele>517.2</ele>
        <time>2020-09-17T09:48:04Z</time>
      </trkpt>
      <trkpt lat="45.39689" lon="3.3685">
        <ele>517.3</ele>
        <time>2020-09-17T09:48:05Z</time>
      </trkpt>
      <trkpt lat="45.3969" lon="3.36849">
        <ele>517.4</ele>
        <time>2020-09-17T09:48:06Z</time>
      </trkpt>
      <trkpt lat="45.39691" lon="3.36849">
        <ele>517.5</ele>
        <time>2020-09-17T09:48:07Z</time>
      </trkpt>
      <trkpt lat="45.39692" lon="3.36849">
        <ele>517.7</ele>
        <time>2020-09-17T09:48:08Z</time>
      </trkpt>
      <trkpt lat="45.39693" lon="3.36848">
        <ele>517.7</ele>
        <time>2020-09-17T09:48:09Z</time>
      </trkpt>
      <trkpt lat="45.39694" lon="3.36848">
        <ele>517.9</ele>
        <time>2020-09-17T09:48:10Z</time>
      </trkpt>
      <trkpt lat="45.39695" lon="3.36848">
        <ele>518</ele>
        <time>2020-09-17T09:48:11Z</time>
      </trkpt>
      <trkpt lat="45.39696" lon="3.36847">
        <ele>518.1</ele>
        <time>2020-09-17T09:48:12Z</time>
      </trkpt>
      <trkpt lat="45.39696" lon="3.36847">
        <ele>518.2</ele>
        <time>2020-09-17T09:48:13Z</time>
      </trkpt>
      <trkpt lat="45.39697" lon="3.36847">
        <ele>518.3</ele>
        <time>2020-09-17T09:48:14Z</time>
      </trkpt>
      <trkpt lat="45.39698" lon="3.36846">
        <ele>518.4</ele>
        <time>2020-09-17T09:48:15Z</time>
      </trkpt>
      <trkpt lat="45.39699" lon="3.36846">
        <ele>518.4</ele>
        <time>2020-09-17T09:48:16Z</time>
      </trkpt>
      <trkpt lat="45.39699" lon="3.36846">
        <ele>518.6</ele>
        <time>2020-09-17T09:48:17Z</time>
      </trkpt>
      <trkpt lat="45.397" lon="3.36845">
        <ele>518.7</ele>
        <time>2020-09-17T09:48:18Z</time>
      </trkpt>
      <trkpt lat="45.39701" lon="3.36845">
        <ele>518.9</ele>
        <time>2020-09-17T09:48:19Z</time>
      </trkpt>
      <trkpt lat="45.39702" lon="3.36845">
        <ele>518.9</ele>
        <time>2020-09-17T09:48:20Z</time>
      </trkpt>
      <trkpt lat="45.39703" lon="3.36844">
        <ele>519.1</ele>
        <time>2020-09-17T09:48:21Z</time>
      </trkpt>
      <trkpt lat="45.39704" lon="3.36844">
        <ele>519.2</ele>
        <time>2020-09-17T09:48:22Z</time>
      </trkpt>
      <trkpt lat="45.39705" lon="3.36843">
        <ele>519.3</ele>
        <time>2020-09-17T09:48:23Z</time>
      </trkpt>
      <trkpt lat="45.39706" lon="3.36843">
        <ele>519.4</ele>
        <time>2020-09-17T09:48:24Z</time>
      </trkpt>
      <trkpt lat="45.39707" lon="3.36843">
        <ele>519.5</ele>
        <time>2020-09-17T09:48:25Z</time>
      </trkpt>
      <trkpt lat="45.39707" lon="3.36843">
        <ele>519.6</ele>
        <time>2020-09-17T09:48:26Z</time>
      </trkpt>
      <trkpt lat="45.39708" lon="3.36842">
        <ele>519.7</ele>
        <time>2020-09-17T09:48:27Z</time>
      </trkpt>
      <trkpt lat="45.39709" lon="3.36842">
        <ele>519.9</ele>
        <time>2020-09-17T09:48:28Z</time>
      </trkpt>
      <trkpt lat="45.3971" lon="3.36841">
        <ele>520</ele>
        <time>2020-09-17T09:48:29Z</time>
      </trkpt>
      <trkpt lat="45.39711" lon="3.36841">
        <ele>520.1</ele>
        <time>2020-09-17T09:48:30Z</time>
      </trkpt>
      <trkpt lat="45.39712" lon="3.36841">
        <ele>520.2</ele>
        <time>2020-09-17T09:48:31Z</time>
      </trkpt>
      <trkpt lat="45.39713" lon="3.3684">
        <ele>520.4</ele>
        <time>2020-09-17T09:48:32Z</time>
      </trkpt>
      <trkpt lat="45.39714" lon="3.3684">
        <ele>520.5</ele>
        <time>2020-09-17T09:48:33Z</time>
      </trkpt>
      <trkpt lat="45.39715" lon="3.3684">
        <ele>520.6</ele>
        <time>2020-09-17T09:48:34Z</time>
      </trkpt>
      <trkpt lat="45.39716" lon="3.36839">
        <ele>520.7</ele>
        <time>2020-09-17T09:48:35Z</time>
      </trkpt>
      <trkpt lat="45.39717" lon="3.36839">
        <ele>520.8</ele>
        <time>2020-09-17T09:48:36Z</time>
      </trkpt>
      <trkpt lat="45.39718" lon="3.36838">
        <ele>521</ele>
        <time>2020-09-17T09:48:37Z</time>
      </trkpt>
      <trkpt lat="45.39718" lon="3.36837">
        <ele>521.2</ele>
        <time>2020-09-17T09:48:38Z</time>
      </trkpt>
      <trkpt lat="45.39719" lon="3.36837">
        <ele>521.3</ele>
        <time>2020-09-17T09:48:39Z</time>
      </trkpt>
      <trkpt lat="45.3972" lon="3.36836">
        <ele>521.5</ele>
        <time>2020-09-17T09:48:40Z</time>
      </trkpt>
      <trkpt lat="45.39721" lon="3.36835">
        <ele>521.7</ele>
        <time>2020-09-17T09:48:41Z</time>
      </trkpt>
      <trkpt lat="45.39722" lon="3.36835">
        <ele>521.8</ele>
        <time>2020-09-17T09:48:42Z</time>
      </trkpt>
      <trkpt lat="45.39723" lon="3.36834">
        <ele>521.9</ele>
        <time>2020-09-17T09:48:43Z</time>
      </trkpt>
      <trkpt lat="45.39724" lon="3.36833">
        <ele>522</ele>
        <time>2020-09-17T09:48:44Z</time>
      </trkpt>
      <trkpt lat="45.39724" lon="3.36833">
        <ele>522.1</ele>
        <time>2020-09-17T09:48:45Z</time>
      </trkpt>
      <trkpt lat="45.39725" lon="3.36832">
        <ele>522.2</ele>
        <time>2020-09-17T09:48:46Z</time>
      </trkpt>
      <trkpt lat="45.39726" lon="3.36831">
        <ele>522.3</ele>
        <time>2020-09-17T09:48:47Z</time>
      </trkpt>
      <trkpt lat="45.39727" lon="3.36831">
        <ele>522.3</ele>
        <time>2020-09-17T09:48:48Z</time>
      </trkpt>
      <trkpt lat="45.39728" lon="3.3683">
        <ele>522.4</ele>
        <time>2020-09-17T09:48:49Z</time>
      </trkpt>
      <trkpt lat="45.39728" lon="3.36829">
        <ele>522.5</ele>
        <time>2020-09-17T09:48:50Z</time>
      </trkpt>
      <trkpt lat="45.39729" lon="3.36829">
        <ele>522.6</ele>
        <time>2020-09-17T09:48:51Z</time>
      </trkpt>
      <trkpt lat="45.3973" lon="3.36828">
        <ele>522.6</ele>
        <time>2020-09-17T09:48:52Z</time>
      </trkpt>
      <trkpt lat="45.39731" lon="3.36827">
        <ele>522.7</ele>
        <time>2020-09-17T09:48:53Z</time>
      </trkpt>
      <trkpt lat="45.39732" lon="3.36827">
        <ele>522.7</ele>
        <time>2020-09-17T09:48:54Z</time>
      </trkpt>
      <trkpt lat="45.39732" lon="3.36826">
        <ele>522.8</ele>
        <time>2020-09-17T09:48:55Z</time>
      </trkpt>
      <trkpt lat="45.39733" lon="3.36825">
        <ele>522.9</ele>
        <time>2020-09-17T09:48:56Z</time>
      </trkpt>
      <trkpt lat="45.39734" lon="3.36825">
        <ele>522.9</ele>
        <time>2020-09-17T09:48:57Z</time>
      </trkpt>
      <trkpt lat="45.39735" lon="3.36824">
        <ele>523</ele>
        <time>2020-09-17T09:48:58Z</time>
      </trkpt>
      <trkpt lat="45.39736" lon="3.36824">
        <ele>523</ele>
        <time>2020-09-17T09:48:59Z</time>
      </trkpt>
      <trkpt lat="45.39737" lon="3.36823">
        <ele>523.1</ele>
        <time>2020-09-17T09:49:00Z</time>
      </trkpt>
      <trkpt lat="45.39738" lon="3.36823">
        <ele>523.1</ele>
        <time>2020-09-17T09:49:01Z</time>
      </trkpt>
      <trkpt lat="45.39738" lon="3.36822">
        <ele>523.1</ele>
        <time>2020-09-17T09:49:02Z</time>
      </trkpt>
      <trkpt lat="45.39739" lon="3.36822">
        <ele>523.2</ele>
        <time>2020-09-17T09:49:03Z</time>
      </trkpt>
      <trkpt lat="45.3974" lon="3.36821">
        <ele>523.2</ele>
        <time>2020-09-17T09:49:04Z</time>
      </trkpt>
      <trkpt lat="45.39741" lon="3.36821">
        <ele>523.3</ele>
        <time>2020-09-17T09:49:05Z</time>
      </trkpt>
      <trkpt lat="45.39741" lon="3.3682">
        <ele>523.3</ele>
        <time>2020-09-17T09:49:06Z</time>
      </trkpt>
      <trkpt lat="45.39742" lon="3.3682">
        <ele>523.3</ele>
        <time>2020-09-17T09:49:07Z</time>
      </trkpt>
      <trkpt lat="45.39743" lon="3.3682">
        <ele>523.4</ele>
        <time>2020-09-17T09:49:08Z</time>
      </trkpt>
      <trkpt lat="45.39743" lon="3.3682">
        <ele>523.4</ele>
        <time>2020-09-17T09:49:09Z</time>
      </trkpt>
      <trkpt lat="45.39744" lon="3.36819">
        <ele>523.4</ele>
        <time>2020-09-17T09:49:10Z</time>
      </trkpt>
      <trkpt lat="45.39744" lon="3.36819">
        <ele>523.4</ele>
        <time>2020-09-17T09:49:11Z</time>
      </trkpt>
      <trkpt lat="45.39744" lon="3.36819">
        <ele>523.4</ele>
        <time>2020-09-17T09:49:12Z</time>
      </trkpt>
      <trkpt lat="45.39744" lon="3.36819">
        <ele>523.4</ele>
        <time>2020-09-17T09:49:13Z</time>
      </trkpt>
      <trkpt lat="45.39744" lon="3.36819">
        <ele>523.4</ele>
        <time>2020-09-17T09:49:14Z</time>
      </trkpt>
      <trkpt lat="45.39744" lon="3.36819">
        <ele>523.4</ele>
        <time>2020-09-17T09:49:15Z</time>
      </trkpt>
      <trkpt lat="45.39744" lon="3.36819">
        <ele>523.4</ele>
        <time>2020-09-17T09:49:16Z</time>
      </trkpt>
      <trkpt lat="45.39743" lon="3.36818">
        <ele>523.5</ele>
        <time>2020-09-17T09:49:17Z</time>
      </trkpt>
      <trkpt lat="45.39743" lon="3.36818">
        <ele>523.5</ele>
        <time>2020-09-17T09:49:18Z</time>
      </trkpt>
      <trkpt lat="45.39742" lon="3.36817">
        <ele>523.5</ele>
        <time>2020-09-17T09:49:19Z</time>
      </trkpt>
      <trkpt lat="45.39742" lon="3.36817">
        <ele>523.5</ele>
        <time>2020-09-17T09:49:20Z</time>
      </trkpt>
      <trkpt lat="45.39741" lon="3.36816">
        <ele>523.5</ele>
        <time>2020-09-17T09:49:21Z</time>
      </trkpt>
      <trkpt lat="45.39739" lon="3.36816">
        <ele>523.5</ele>
        <time>2020-09-17T09:49:22Z</time>
      </trkpt>
      <trkpt lat="45.39738" lon="3.36815">
        <ele>523.5</ele>
        <time>2020-09-17T09:49:23Z</time>
      </trkpt>
      <trkpt lat="45.39737" lon="3.36815">
        <ele>523.5</ele>
        <time>2020-09-17T09:49:24Z</time>
      </trkpt>
      <trkpt lat="45.39736" lon="3.36814">
        <ele>523.5</ele>
        <time>2020-09-17T09:49:25Z</time>
      </trkpt>
      <trkpt lat="45.39735" lon="3.36814">
        <ele>523.6</ele>
        <time>2020-09-17T09:49:26Z</time>
      </trkpt>
      <trkpt lat="45.39734" lon="3.36813">
        <ele>523.6</ele>
        <time>2020-09-17T09:49:27Z</time>
      </trkpt>
      <trkpt lat="45.39733" lon="3.36813">
        <ele>523.6</ele>
        <time>2020-09-17T09:49:28Z</time>
      </trkpt>
      <trkpt lat="45.39732" lon="3.36812">
        <ele>523.6</ele>
        <time>2020-09-17T09:49:29Z</time>
      </trkpt>
      <trkpt lat="45.39731" lon="3.36812">
        <ele>523.6</ele>
        <time>2020-09-17T09:49:30Z</time>
      </trkpt>
      <trkpt lat="45.3973" lon="3.36811">
        <ele>523.7</ele>
        <time>2020-09-17T09:49:31Z</time>
      </trkpt>
      <trkpt lat="45.39729" lon="3.36811">
        <ele>523.7</ele>
        <time>2020-09-17T09:49:32Z</time>
      </trkpt>
      <trkpt lat="45.39728" lon="3.3681">
        <ele>523.7</ele>
        <time>2020-09-17T09:49:33Z</time>
      </trkpt>
      <trkpt lat="45.39727" lon="3.36809">
        <ele>523.7</ele>
        <time>2020-09-17T09:49:34Z</time>
      </trkpt>
      <trkpt lat="45.39726" lon="3.36809">
        <ele>523.8</ele>
        <time>2020-09-17T09:49:35Z</time>
      </trkpt>
      <trkpt lat="45.39725" lon="3.36808">
        <ele>523.9</ele>
        <time>2020-09-17T09:49:36Z</time>
      </trkpt>
      <trkpt lat="45.39724" lon="3.36807">
        <ele>523.9</ele>
        <time>2020-09-17T09:49:37Z</time>
      </trkpt>
      <trkpt lat="45.39723" lon="3.36806">
        <ele>524</ele>
        <time>2020-09-17T09:49:38Z</time>
      </trkpt>
      <trkpt lat="45.39722" lon="3.36805">
        <ele>524</ele>
        <time>2020-09-17T09:49:39Z</time>
      </trkpt>
      <trkpt lat="45.39722" lon="3.36804">
        <ele>524</ele>
        <time>2020-09-17T09:49:40Z</time>
      </trkpt>
      <trkpt lat="45.39721" lon="3.36803">
        <ele>524</ele>
        <time>2020-09-17T09:49:41Z</time>
      </trkpt>
      <trkpt lat="45.3972" lon="3.36802">
        <ele>524</ele>
        <time>2020-09-17T09:49:42Z</time>
      </trkpt>
      <trkpt lat="45.39719" lon="3.36801">
        <ele>524</ele>
        <time>2020-09-17T09:49:43Z</time>
      </trkpt>
      <trkpt lat="45.39718" lon="3.36799">
        <ele>524</ele>
        <time>2020-09-17T09:49:44Z</time>
      </trkpt>
      <trkpt lat="45.39717" lon="3.36799">
        <ele>524</ele>
        <time>2020-09-17T09:49:45Z</time>
      </trkpt>
      <trkpt lat="45.39717" lon="3.36798">
        <ele>524.1</ele>
        <time>2020-09-17T09:49:46Z</time>
      </trkpt>
      <trkpt lat="45.39716" lon="3.36796">
        <ele>524.1</ele>
        <time>2020-09-17T09:49:47Z</time>
      </trkpt>
      <trkpt lat="45.39715" lon="3.36795">
        <ele>524.1</ele>
        <time>2020-09-17T09:49:48Z</time>
      </trkpt>
      <trkpt lat="45.39714" lon="3.36794">
        <ele>524.1</ele>
        <time>2020-09-17T09:49:49Z</time>
      </trkpt>
      <trkpt lat="45.39713" lon="3.36793">
        <ele>524.1</ele>
        <time>2020-09-17T09:49:50Z</time>
      </trkpt>
      <trkpt lat="45.39713" lon="3.36792">
        <ele>524.2</ele>
        <time>2020-09-17T09:49:51Z</time>
      </trkpt>
      <trkpt lat="45.39712" lon="3.36791">
        <ele>524.2</ele>
        <time>2020-09-17T09:49:52Z</time>
      </trkpt>
      <trkpt lat="45.39711" lon="3.36789">
        <ele>524.2</ele>
        <time>2020-09-17T09:49:53Z</time>
      </trkpt>
      <trkpt lat="45.3971" lon="3.36788">
        <ele>524.3</ele>
        <time>2020-09-17T09:49:54Z</time>
      </trkpt>
      <trkpt lat="45.39709" lon="3.36787">
        <ele>524.3</ele>
        <time>2020-09-17T09:49:55Z</time>
      </trkpt>
      <trkpt lat="45.39708" lon="3.36786">
        <ele>524.4</ele>
        <time>2020-09-17T09:49:56Z</time>
      </trkpt>
      <trkpt lat="45.39707" lon="3.36784">
        <ele>524.4</ele>
        <time>2020-09-17T09:49:57Z</time>
      </trkpt>
      <trkpt lat="45.39706" lon="3.36783">
        <ele>524.5</ele>
        <time>2020-09-17T09:49:58Z</time>
      </trkpt>
      <trkpt lat="45.39705" lon="3.36782">
        <ele>524.5</ele>
        <time>2020-09-17T09:49:59Z</time>
      </trkpt>
      <trkpt lat="45.39705" lon="3.36781">
        <ele>524.6</ele>
        <time>2020-09-17T09:50:00Z</time>
      </trkpt>
      <trkpt lat="45.39704" lon="3.3678">
        <ele>524.6</ele>
        <time>2020-09-17T09:50:01Z</time>
      </trkpt>
      <trkpt lat="45.39703" lon="3.36778">
        <ele>524.7</ele>
        <time>2020-09-17T09:50:02Z</time>
      </trkpt>
      <trkpt lat="45.39702" lon="3.36777">
        <ele>524.7</ele>
        <time>2020-09-17T09:50:03Z</time>
      </trkpt>
      <trkpt lat="45.39701" lon="3.36776">
        <ele>524.6</ele>
        <time>2020-09-17T09:50:04Z</time>
      </trkpt>
      <trkpt lat="45.39701" lon="3.36775">
        <ele>524.6</ele>
        <time>2020-09-17T09:50:05Z</time>
      </trkpt>
      <trkpt lat="45.397" lon="3.36773">
        <ele>524.6</ele>
        <time>2020-09-17T09:50:06Z</time>
      </trkpt>
      <trkpt lat="45.39699" lon="3.36772">
        <ele>524.6</ele>
        <time>2020-09-17T09:50:07Z</time>
      </trkpt>
      <trkpt lat="45.39698" lon="3.36771">
        <ele>524.6</ele>
        <time>2020-09-17T09:50:08Z</time>
      </trkpt>
      <trkpt lat="45.39697" lon="3.36769">
        <ele>524.6</ele>
        <time>2020-09-17T09:50:09Z</time>
      </trkpt>
      <trkpt lat="45.39697" lon="3.36768">
        <ele>524.5</ele>
        <time>2020-09-17T09:50:10Z</time>
      </trkpt>
      <trkpt lat="45.39696" lon="3.36767">
        <ele>524.5</ele>
        <time>2020-09-17T09:50:11Z</time>
      </trkpt>
      <trkpt lat="45.39695" lon="3.36766">
        <ele>524.5</ele>
        <time>2020-09-17T09:50:12Z</time>
      </trkpt>
      <trkpt lat="45.39694" lon="3.36764">
        <ele>524.5</ele>
        <time>2020-09-17T09:50:13Z</time>
      </trkpt>
      <trkpt lat="45.39693" lon="3.36763">
        <ele>524.5</ele>
        <time>2020-09-17T09:50:14Z</time>
      </trkpt>
      <trkpt lat="45.39692" lon="3.36762">
        <ele>524.5</ele>
        <time>2020-09-17T09:50:15Z</time>
      </trkpt>
      <trkpt lat="45.39692" lon="3.3676">
        <ele>524.4</ele>
        <time>2020-09-17T09:50:16Z</time>
      </trkpt>
      <trkpt lat="45.39691" lon="3.36759">
        <ele>524.4</ele>
        <time>2020-09-17T09:50:17Z</time>
      </trkpt>
      <trkpt lat="45.3969" lon="3.36758">
        <ele>524.4</ele>
        <time>2020-09-17T09:50:18Z</time>
      </trkpt>
      <trkpt lat="45.39689" lon="3.36757">
        <ele>524.4</ele>
        <time>2020-09-17T09:50:19Z</time>
      </trkpt>
      <trkpt lat="45.39689" lon="3.36756">
        <ele>524.4</ele>
        <time>2020-09-17T09:50:20Z</time>
      </trkpt>
      <trkpt lat="45.39688" lon="3.36754">
        <ele>524.3</ele>
        <time>2020-09-17T09:50:21Z</time>
      </trkpt>
      <trkpt lat="45.39687" lon="3.36753">
        <ele>524.3</ele>
        <time>2020-09-17T09:50:22Z</time>
      </trkpt>
      <trkpt lat="45.39686" lon="3.36752">
        <ele>524.3</ele>
        <time>2020-09-17T09:50:23Z</time>
      </trkpt>
      <trkpt lat="45.39686" lon="3.3675">
        <ele>524.3</ele>
        <time>2020-09-17T09:50:24Z</time>
      </trkpt>
      <trkpt lat="45.39685" lon="3.36749">
        <ele>524.2</ele>
        <time>2020-09-17T09:50:25Z</time>
      </trkpt>
      <trkpt lat="45.39684" lon="3.36748">
        <ele>524.1</ele>
        <time>2020-09-17T09:50:26Z</time>
      </trkpt>
      <trkpt lat="45.39684" lon="3.36747">
        <ele>524</ele>
        <time>2020-09-17T09:50:27Z</time>
      </trkpt>
      <trkpt lat="45.39683" lon="3.36745">
        <ele>523.9</ele>
        <time>2020-09-17T09:50:28Z</time>
      </trkpt>
      <trkpt lat="45.39682" lon="3.36744">
        <ele>523.8</ele>
        <time>2020-09-17T09:50:29Z</time>
      </trkpt>
      <trkpt lat="45.39681" lon="3.36743">
        <ele>523.7</ele>
        <time>2020-09-17T09:50:30Z</time>
      </trkpt>
      <trkpt lat="45.3968" lon="3.36742">
        <ele>523.6</ele>
        <time>2020-09-17T09:50:31Z</time>
      </trkpt>
      <trkpt lat="45.3968" lon="3.36741">
        <ele>523.5</ele>
        <time>2020-09-17T09:50:32Z</time>
      </trkpt>
      <trkpt lat="45.39679" lon="3.36739">
        <ele>523.4</ele>
        <time>2020-09-17T09:50:33Z</time>
      </trkpt>
      <trkpt lat="45.39678" lon="3.36738">
        <ele>523.3</ele>
        <time>2020-09-17T09:50:34Z</time>
      </trkpt>
      <trkpt lat="45.39677" lon="3.36737">
        <ele>523.2</ele>
        <time>2020-09-17T09:50:35Z</time>
      </trkpt>
      <trkpt lat="45.39677" lon="3.36736">
        <ele>523.1</ele>
        <time>2020-09-17T09:50:36Z</time>
      </trkpt>
      <trkpt lat="45.39676" lon="3.36735">
        <ele>523</ele>
        <time>2020-09-17T09:50:37Z</time>
      </trkpt>
      <trkpt lat="45.39675" lon="3.36734">
        <ele>523</ele>
        <time>2020-09-17T09:50:38Z</time>
      </trkpt>
      <trkpt lat="45.39674" lon="3.36733">
        <ele>522.9</ele>
        <time>2020-09-17T09:50:39Z</time>
      </trkpt>
      <trkpt lat="45.39673" lon="3.36732">
        <ele>522.8</ele>
        <time>2020-09-17T09:50:40Z</time>
      </trkpt>
      <trkpt lat="45.39673" lon="3.3673">
        <ele>522.6</ele>
        <time>2020-09-17T09:50:41Z</time>
      </trkpt>
      <trkpt lat="45.39672" lon="3.36729">
        <ele>522.5</ele>
        <time>2020-09-17T09:50:42Z</time>
      </trkpt>
      <trkpt lat="45.39671" lon="3.36728">
        <ele>522.4</ele>
        <time>2020-09-17T09:50:43Z</time>
      </trkpt>
      <trkpt lat="45.3967" lon="3.36727">
        <ele>522.4</ele>
        <time>2020-09-17T09:50:44Z</time>
      </trkpt>
      <trkpt lat="45.39669" lon="3.36726">
        <ele>522.3</ele>
        <time>2020-09-17T09:50:45Z</time>
      </trkpt>
      <trkpt lat="45.39669" lon="3.36725">
        <ele>522.2</ele>
        <time>2020-09-17T09:50:46Z</time>
      </trkpt>
      <trkpt lat="45.39668" lon="3.36724">
        <ele>522.1</ele>
        <time>2020-09-17T09:50:47Z</time>
      </trkpt>
      <trkpt lat="45.39667" lon="3.36723">
        <ele>522.1</ele>
        <time>2020-09-17T09:50:48Z</time>
      </trkpt>
      <trkpt lat="45.39666" lon="3.36722">
        <ele>521.9</ele>
        <time>2020-09-17T09:50:49Z</time>
      </trkpt>
      <trkpt lat="45.39666" lon="3.3672">
        <ele>521.6</ele>
        <time>2020-09-17T09:50:50Z</time>
      </trkpt>
      <trkpt lat="45.39666" lon="3.36718">
        <ele>521.3</ele>
        <time>2020-09-17T09:50:51Z</time>
      </trkpt>
      <trkpt lat="45.39665" lon="3.36717">
        <ele>521.1</ele>
        <time>2020-09-17T09:50:52Z</time>
      </trkpt>
      <trkpt lat="45.39666" lon="3.36715">
        <ele>520.8</ele>
        <time>2020-09-17T09:50:53Z</time>
      </trkpt>
      <trkpt lat="45.39666" lon="3.36714">
        <ele>520.5</ele>
        <time>2020-09-17T09:50:54Z</time>
      </trkpt>
      <trkpt lat="45.39666" lon="3.36712">
        <ele>520.2</ele>
        <time>2020-09-17T09:50:55Z</time>
      </trkpt>
      <trkpt lat="45.39667" lon="3.36711">
        <ele>519.9</ele>
        <time>2020-09-17T09:50:56Z</time>
      </trkpt>
      <trkpt lat="45.39667" lon="3.36709">
        <ele>519.6</ele>
        <time>2020-09-17T09:50:57Z</time>
      </trkpt>
      <trkpt lat="45.39668" lon="3.36708">
        <ele>519.4</ele>
        <time>2020-09-17T09:50:58Z</time>
      </trkpt>
      <trkpt lat="45.39669" lon="3.36707">
        <ele>519.2</ele>
        <time>2020-09-17T09:50:59Z</time>
      </trkpt>
      <trkpt lat="45.3967" lon="3.36706">
        <ele>519</ele>
        <time>2020-09-17T09:51:00Z</time>
      </trkpt>
      <trkpt lat="45.39671" lon="3.36706">
        <ele>518.9</ele>
        <time>2020-09-17T09:51:01Z</time>
      </trkpt>
      <trkpt lat="45.39672" lon="3.36705">
        <ele>518.8</ele>
        <time>2020-09-17T09:51:02Z</time>
      </trkpt>
      <trkpt lat="45.39673" lon="3.36704">
        <ele>518.7</ele>
        <time>2020-09-17T09:51:03Z</time>
      </trkpt>
      <trkpt lat="45.39674" lon="3.36704">
        <ele>518.5</ele>
        <time>2020-09-17T09:51:04Z</time>
      </trkpt>
      <trkpt lat="45.39675" lon="3.36703">
        <ele>518.5</ele>
        <time>2020-09-17T09:51:05Z</time>
      </trkpt>
      <trkpt lat="45.39676" lon="3.36703">
        <ele>518.4</ele>
        <time>2020-09-17T09:51:06Z</time>
      </trkpt>
      <trkpt lat="45.39678" lon="3.36703">
        <ele>518.3</ele>
        <time>2020-09-17T09:51:07Z</time>
      </trkpt>
      <trkpt lat="45.39679" lon="3.36702">
        <ele>518.3</ele>
        <time>2020-09-17T09:51:08Z</time>
      </trkpt>
      <trkpt lat="45.3968" lon="3.36702">
        <ele>518.2</ele>
        <time>2020-09-17T09:51:09Z</time>
      </trkpt>
      <trkpt lat="45.39681" lon="3.36702">
        <ele>518.2</ele>
        <time>2020-09-17T09:51:10Z</time>
      </trkpt>
      <trkpt lat="45.39682" lon="3.36702">
        <ele>518.1</ele>
        <time>2020-09-17T09:51:11Z</time>
      </trkpt>
      <trkpt lat="45.39683" lon="3.36701">
        <ele>518</ele>
        <time>2020-09-17T09:51:12Z</time>
      </trkpt>
      <trkpt lat="45.39684" lon="3.36701">
        <ele>518</ele>
        <time>2020-09-17T09:51:13Z</time>
      </trkpt>
      <trkpt lat="45.39685" lon="3.36701">
        <ele>517.9</ele>
        <time>2020-09-17T09:51:14Z</time>
      </trkpt>
      <trkpt lat="45.39686" lon="3.36701">
        <ele>517.9</ele>
        <time>2020-09-17T09:51:15Z</time>
      </trkpt>
      <trkpt lat="45.39687" lon="3.36701">
        <ele>517.9</ele>
        <time>2020-09-17T09:51:16Z</time>
      </trkpt>
      <trkpt lat="45.39688" lon="3.367">
        <ele>517.9</ele>
        <time>2020-09-17T09:51:17Z</time>
      </trkpt>
      <trkpt lat="45.39689" lon="3.367">
        <ele>517.8</ele>
        <time>2020-09-17T09:51:18Z</time>
      </trkpt>
      <trkpt lat="45.3969" lon="3.367">
        <ele>517.8</ele>
        <time>2020-09-17T09:51:19Z</time>
      </trkpt>
      <trkpt lat="45.39692" lon="3.36699">
        <ele>517.7</ele>
        <time>2020-09-17T09:51:20Z</time>
      </trkpt>
      <trkpt lat="45.39693" lon="3.36699">
        <ele>517.7</ele>
        <time>2020-09-17T09:51:21Z</time>
      </trkpt>
      <trkpt lat="45.39694" lon="3.36699">
        <ele>517.7</ele>
        <time>2020-09-17T09:51:22Z</time>
      </trkpt>
      <trkpt lat="45.39695" lon="3.36699">
        <ele>517.6</ele>
        <time>2020-09-17T09:51:23Z</time>
      </trkpt>
      <trkpt lat="45.39696" lon="3.36698">
        <ele>517.5</ele>
        <time>2020-09-17T09:51:24Z</time>
      </trkpt>
      <trkpt lat="45.39697" lon="3.36698">
        <ele>517.5</ele>
        <time>2020-09-17T09:51:25Z</time>
      </trkpt>
      <trkpt lat="45.39698" lon="3.36697">
        <ele>517.4</ele>
        <time>2020-09-17T09:51:26Z</time>
      </trkpt>
      <trkpt lat="45.39699" lon="3.36697">
        <ele>517.3</ele>
        <time>2020-09-17T09:51:27Z</time>
      </trkpt>
      <trkpt lat="45.397" lon="3.36696">
        <ele>517.2</ele>
        <time>2020-09-17T09:51:28Z</time>
      </trkpt>
      <trkpt lat="45.39701" lon="3.36696">
        <ele>517.1</ele>
        <time>2020-09-17T09:51:29Z</time>
      </trkpt>
      <trkpt lat="45.39702" lon="3.36695">
        <ele>517.1</ele>
        <time>2020-09-17T09:51:30Z</time>
      </trkpt>
      <trkpt lat="45.39704" lon="3.36694">
        <ele>517</ele>
        <time>2020-09-17T09:51:31Z</time>
      </trkpt>
      <trkpt lat="45.39705" lon="3.36694">
        <ele>516.9</ele>
        <time>2020-09-17T09:51:32Z</time>
      </trkpt>
      <trkpt lat="45.39706" lon="3.36693">
        <ele>516.8</ele>
        <time>2020-09-17T09:51:33Z</time>
      </trkpt>
      <trkpt lat="45.39707" lon="3.36692">
        <ele>516.8</ele>
        <time>2020-09-17T09:51:34Z</time>
      </trkpt>
      <trkpt lat="45.39708" lon="3.36691">
        <ele>516.7</ele>
        <time>2020-09-17T09:51:35Z</time>
      </trkpt>
      <trkpt lat="45.39709" lon="3.3669">
        <ele>516.6</ele>
        <time>2020-09-17T09:51:36Z</time>
      </trkpt>
      <trkpt lat="45.3971" lon="3.36689">
        <ele>516.5</ele>
        <time>2020-09-17T09:51:37Z</time>
      </trkpt>
      <trkpt lat="45.39711" lon="3.36688">
        <ele>516.4</ele>
        <time>2020-09-17T09:51:38Z</time>
      </trkpt>
      <trkpt lat="45.39712" lon="3.36688">
        <ele>516.3</ele>
        <time>2020-09-17T09:51:39Z</time>
      </trkpt>
      <trkpt lat="45.39713" lon="3.36687">
        <ele>516.2</ele>
        <time>2020-09-17T09:51:40Z</time>
      </trkpt>
      <trkpt lat="45.39714" lon="3.36686">
        <ele>516.2</ele>
        <time>2020-09-17T09:51:41Z</time>
      </trkpt>
      <trkpt lat="45.39715" lon="3.36685">
        <ele>516</ele>
        <time>2020-09-17T09:51:42Z</time>
      </trkpt>
      <trkpt lat="45.39715" lon="3.36684">
        <ele>515.9</ele>
        <time>2020-09-17T09:51:43Z</time>
      </trkpt>
      <trkpt lat="45.39716" lon="3.36683">
        <ele>515.8</ele>
        <time>2020-09-17T09:51:44Z</time>
      </trkpt>
      <trkpt lat="45.39717" lon="3.36682">
        <ele>515.7</ele>
        <time>2020-09-17T09:51:45Z</time>
      </trkpt>
      <trkpt lat="45.39718" lon="3.36681">
        <ele>515.6</ele>
        <time>2020-09-17T09:51:46Z</time>
      </trkpt>
      <trkpt lat="45.39719" lon="3.3668">
        <ele>515.5</ele>
        <time>2020-09-17T09:51:47Z</time>
      </trkpt>
      <trkpt lat="45.3972" lon="3.36679">
        <ele>515.3</ele>
        <time>2020-09-17T09:51:48Z</time>
      </trkpt>
      <trkpt lat="45.39721" lon="3.36678">
        <ele>515.2</ele>
        <time>2020-09-17T09:51:49Z</time>
      </trkpt>
      <trkpt lat="45.39722" lon="3.36677">
        <ele>515.1</ele>
        <time>2020-09-17T09:51:50Z</time>
      </trkpt>
      <trkpt lat="45.39722" lon="3.36676">
        <ele>515</ele>
        <time>2020-09-17T09:51:51Z</time>
      </trkpt>
      <trkpt lat="45.39723" lon="3.36675">
        <ele>514.9</ele>
        <time>2020-09-17T09:51:52Z</time>
      </trkpt>
      <trkpt lat="45.39724" lon="3.36674">
        <ele>514.8</ele>
        <time>2020-09-17T09:51:53Z</time>
      </trkpt>
      <trkpt lat="45.39725" lon="3.36672">
        <ele>514.6</ele>
        <time>2020-09-17T09:51:54Z</time>
      </trkpt>
      <trkpt lat="45.39725" lon="3.36671">
        <ele>514.5</ele>
        <time>2020-09-17T09:51:55Z</time>
      </trkpt>
      <trkpt lat="45.39726" lon="3.3667">
        <ele>514.4</ele>
        <time>2020-09-17T09:51:56Z</time>
      </trkpt>
      <trkpt lat="45.39727" lon="3.36669">
        <ele>514.3</ele>
        <time>2020-09-17T09:51:57Z</time>
      </trkpt>
      <trkpt lat="45.39728" lon="3.36668">
        <ele>514.3</ele>
        <time>2020-09-17T09:51:58Z</time>
      </trkpt>
      <trkpt lat="45.39729" lon="3.36667">
        <ele>514.2</ele>
        <time>2020-09-17T09:51:59Z</time>
      </trkpt>
      <trkpt lat="45.3973" lon="3.36666">
        <ele>514.2</ele>
        <time>2020-09-17T09:52:00Z</time>
      </trkpt>
      <trkpt lat="45.39731" lon="3.36665">
        <ele>514.2</ele>
        <time>2020-09-17T09:52:01Z</time>
      </trkpt>
      <trkpt lat="45.39731" lon="3.36664">
        <ele>514.1</ele>
        <time>2020-09-17T09:52:02Z</time>
      </trkpt>
      <trkpt lat="45.39732" lon="3.36663">
        <ele>514.1</ele>
        <time>2020-09-17T09:52:03Z</time>
      </trkpt>
      <trkpt lat="45.39733" lon="3.36662">
        <ele>514</ele>
        <time>2020-09-17T09:52:04Z</time>
      </trkpt>
      <trkpt lat="45.39734" lon="3.36662">
        <ele>514</ele>
        <time>2020-09-17T09:52:05Z</time>
      </trkpt>
      <trkpt lat="45.39734" lon="3.36661">
        <ele>514</ele>
        <time>2020-09-17T09:52:06Z</time>
      </trkpt>
      <trkpt lat="45.39735" lon="3.3666">
        <ele>513.9</ele>
        <time>2020-09-17T09:52:07Z</time>
      </trkpt>
      <trkpt lat="45.39736" lon="3.3666">
        <ele>513.9</ele>
        <time>2020-09-17T09:52:08Z</time>
      </trkpt>
      <trkpt lat="45.39736" lon="3.36659">
        <ele>513.8</ele>
        <time>2020-09-17T09:52:09Z</time>
      </trkpt>
      <trkpt lat="45.39737" lon="3.36659">
        <ele>513.8</ele>
        <time>2020-09-17T09:52:10Z</time>
      </trkpt>
      <trkpt lat="45.39738" lon="3.36658">
        <ele>513.7</ele>
        <time>2020-09-17T09:52:11Z</time>
      </trkpt>
      <trkpt lat="45.39739" lon="3.36658">
        <ele>513.7</ele>
        <time>2020-09-17T09:52:12Z</time>
      </trkpt>
      <trkpt lat="45.39739" lon="3.36657">
        <ele>513.6</ele>
        <time>2020-09-17T09:52:13Z</time>
      </trkpt>
      <trkpt lat="45.3974" lon="3.36656">
        <ele>513.5</ele>
        <time>2020-09-17T09:52:14Z</time>
      </trkpt>
      <trkpt lat="45.3974" lon="3.36655">
        <ele>513.4</ele>
        <time>2020-09-17T09:52:15Z</time>
      </trkpt>
      <trkpt lat="45.39741" lon="3.36654">
        <ele>513.3</ele>
        <time>2020-09-17T09:52:16Z</time>
      </trkpt>
      <trkpt lat="45.39742" lon="3.36653">
        <ele>513.2</ele>
        <time>2020-09-17T09:52:17Z</time>
      </trkpt>
      <trkpt lat="45.39742" lon="3.36652">
        <ele>513</ele>
        <time>2020-09-17T09:52:18Z</time>
      </trkpt>
      <trkpt lat="45.39743" lon="3.36651">
        <ele>512.9</ele>
        <time>2020-09-17T09:52:19Z</time>
      </trkpt>
      <trkpt lat="45.39744" lon="3.3665">
        <ele>512.8</ele>
        <time>2020-09-17T09:52:20Z</time>
      </trkpt>
      <trkpt lat="45.39745" lon="3.36649">
        <ele>512.6</ele>
        <time>2020-09-17T09:52:21Z</time>
      </trkpt>
      <trkpt lat="45.39746" lon="3.36649">
        <ele>512.5</ele>
        <time>2020-09-17T09:52:22Z</time>
      </trkpt>
      <trkpt lat="45.39747" lon="3.36648">
        <ele>512.4</ele>
        <time>2020-09-17T09:52:23Z</time>
      </trkpt>
      <trkpt lat="45.39748" lon="3.36647">
        <ele>512.3</ele>
        <time>2020-09-17T09:52:24Z</time>
      </trkpt>
      <trkpt lat="45.39749" lon="3.36646">
        <ele>512.1</ele>
        <time>2020-09-17T09:52:25Z</time>
      </trkpt>
      <trkpt lat="45.3975" lon="3.36646">
        <ele>512</ele>
        <time>2020-09-17T09:52:26Z</time>
      </trkpt>
      <trkpt lat="45.3975" lon="3.36645">
        <ele>511.8</ele>
        <time>2020-09-17T09:52:27Z</time>
      </trkpt>
      <trkpt lat="45.39751" lon="3.36644">
        <ele>511.7</ele>
        <time>2020-09-17T09:52:28Z</time>
      </trkpt>
      <trkpt lat="45.39752" lon="3.36644">
        <ele>511.6</ele>
        <time>2020-09-17T09:52:29Z</time>
      </trkpt>
      <trkpt lat="45.39753" lon="3.36643">
        <ele>511.4</ele>
        <time>2020-09-17T09:52:30Z</time>
      </trkpt>
      <trkpt lat="45.39754" lon="3.36642">
        <ele>511.3</ele>
        <time>2020-09-17T09:52:31Z</time>
      </trkpt>
      <trkpt lat="45.39755" lon="3.36642">
        <ele>511.2</ele>
        <time>2020-09-17T09:52:32Z</time>
      </trkpt>
      <trkpt lat="45.39756" lon="3.36641">
        <ele>511.1</ele>
        <time>2020-09-17T09:52:33Z</time>
      </trkpt>
      <trkpt lat="45.39757" lon="3.36641">
        <ele>511</ele>
        <time>2020-09-17T09:52:34Z</time>
      </trkpt>
      <trkpt lat="45.39758" lon="3.3664">
        <ele>510.9</ele>
        <time>2020-09-17T09:52:35Z</time>
      </trkpt>
      <trkpt lat="45.3976" lon="3.3664">
        <ele>510.8</ele>
        <time>2020-09-17T09:52:36Z</time>
      </trkpt>
      <trkpt lat="45.39761" lon="3.3664">
        <ele>510.7</ele>
        <time>2020-09-17T09:52:37Z</time>
      </trkpt>
      <trkpt lat="45.39762" lon="3.36639">
        <ele>510.6</ele>
        <time>2020-09-17T09:52:38Z</time>
      </trkpt>
      <trkpt lat="45.39763" lon="3.36638">
        <ele>510.5</ele>
        <time>2020-09-17T09:52:39Z</time>
      </trkpt>
      <trkpt lat="45.39764" lon="3.36638">
        <ele>510.5</ele>
        <time>2020-09-17T09:52:40Z</time>
      </trkpt>
      <trkpt lat="45.39765" lon="3.36637">
        <ele>510.4</ele>
        <time>2020-09-17T09:52:41Z</time>
      </trkpt>
      <trkpt lat="45.39766" lon="3.36637">
        <ele>510.4</ele>
        <time>2020-09-17T09:52:42Z</time>
      </trkpt>
      <trkpt lat="45.39767" lon="3.36636">
        <ele>510.3</ele>
        <time>2020-09-17T09:52:43Z</time>
      </trkpt>
      <trkpt lat="45.39768" lon="3.36636">
        <ele>510.3</ele>
        <time>2020-09-17T09:52:44Z</time>
      </trkpt>
      <trkpt lat="45.39769" lon="3.36635">
        <ele>510.2</ele>
        <time>2020-09-17T09:52:45Z</time>
      </trkpt>
      <trkpt lat="45.3977" lon="3.36635">
        <ele>510.2</ele>
        <time>2020-09-17T09:52:46Z</time>
      </trkpt>
      <trkpt lat="45.39771" lon="3.36634">
        <ele>510.1</ele>
        <time>2020-09-17T09:52:47Z</time>
      </trkpt>
      <trkpt lat="45.39773" lon="3.36634">
        <ele>510</ele>
        <time>2020-09-17T09:52:48Z</time>
      </trkpt>
      <trkpt lat="45.39774" lon="3.36633">
        <ele>510</ele>
        <time>2020-09-17T09:52:49Z</time>
      </trkpt>
      <trkpt lat="45.39775" lon="3.36633">
        <ele>509.9</ele>
        <time>2020-09-17T09:52:50Z</time>
      </trkpt>
      <trkpt lat="45.39776" lon="3.36632">
        <ele>509.8</ele>
        <time>2020-09-17T09:52:51Z</time>
      </trkpt>
      <trkpt lat="45.39777" lon="3.36632">
        <ele>509.8</ele>
        <time>2020-09-17T09:52:52Z</time>
      </trkpt>
      <trkpt lat="45.39778" lon="3.36631">
        <ele>509.7</ele>
        <time>2020-09-17T09:52:53Z</time>
      </trkpt>
      <trkpt lat="45.39779" lon="3.36631">
        <ele>509.6</ele>
        <time>2020-09-17T09:52:54Z</time>
      </trkpt>
      <trkpt lat="45.3978" lon="3.36631">
        <ele>509.5</ele>
        <time>2020-09-17T09:52:55Z</time>
      </trkpt>
      <trkpt lat="45.39782" lon="3.3663">
        <ele>509.4</ele>
        <time>2020-09-17T09:52:56Z</time>
      </trkpt>
      <trkpt lat="45.39783" lon="3.3663">
        <ele>509.3</ele>
        <time>2020-09-17T09:52:57Z</time>
      </trkpt>
      <trkpt lat="45.39784" lon="3.36629">
        <ele>509.2</ele>
        <time>2020-09-17T09:52:58Z</time>
      </trkpt>
      <trkpt lat="45.39785" lon="3.36629">
        <ele>509</ele>
        <time>2020-09-17T09:52:59Z</time>
      </trkpt>
      <trkpt lat="45.39786" lon="3.36628">
        <ele>508.9</ele>
        <time>2020-09-17T09:53:00Z</time>
      </trkpt>
      <trkpt lat="45.39787" lon="3.36628">
        <ele>508.8</ele>
        <time>2020-09-17T09:53:01Z</time>
      </trkpt>
      <trkpt lat="45.39788" lon="3.36627">
        <ele>508.7</ele>
        <time>2020-09-17T09:53:02Z</time>
      </trkpt>
      <trkpt lat="45.39789" lon="3.36627">
        <ele>508.6</ele>
        <time>2020-09-17T09:53:03Z</time>
      </trkpt>
      <trkpt lat="45.3979" lon="3.36627">
        <ele>508.5</ele>
        <time>2020-09-17T09:53:04Z</time>
      </trkpt>
      <trkpt lat="45.39791" lon="3.36627">
        <ele>508.4</ele>
        <time>2020-09-17T09:53:05Z</time>
      </trkpt>
      <trkpt lat="45.39792" lon="3.36627">
        <ele>508.3</ele>
        <time>2020-09-17T09:53:06Z</time>
      </trkpt>
      <trkpt lat="45.39794" lon="3.36627">
        <ele>508.2</ele>
        <time>2020-09-17T09:53:07Z</time>
      </trkpt>
      <trkpt lat="45.39795" lon="3.36627">
        <ele>508.1</ele>
        <time>2020-09-17T09:53:08Z</time>
      </trkpt>
      <trkpt lat="45.39796" lon="3.36627">
        <ele>508</ele>
        <time>2020-09-17T09:53:09Z</time>
      </trkpt>
      <trkpt lat="45.39797" lon="3.36627">
        <ele>507.9</ele>
        <time>2020-09-17T09:53:10Z</time>
      </trkpt>
      <trkpt lat="45.39798" lon="3.36627">
        <ele>507.8</ele>
        <time>2020-09-17T09:53:11Z</time>
      </trkpt>
      <trkpt lat="45.39799" lon="3.36627">
        <ele>507.7</ele>
        <time>2020-09-17T09:53:12Z</time>
      </trkpt>
      <trkpt lat="45.398" lon="3.36627">
        <ele>507.6</ele>
        <time>2020-09-17T09:53:13Z</time>
      </trkpt>
      <trkpt lat="45.39802" lon="3.36627">
        <ele>507.5</ele>
        <time>2020-09-17T09:53:14Z</time>
      </trkpt>
      <trkpt lat="45.39803" lon="3.36627">
        <ele>507.4</ele>
        <time>2020-09-17T09:53:15Z</time>
      </trkpt>
      <trkpt lat="45.39804" lon="3.36627">
        <ele>507.3</ele>
        <time>2020-09-17T09:53:16Z</time>
      </trkpt>
      <trkpt lat="45.39805" lon="3.36627">
        <ele>507.2</ele>
        <time>2020-09-17T09:53:17Z</time>
      </trkpt>
      <trkpt lat="45.39806" lon="3.36627">
        <ele>507.1</ele>
        <time>2020-09-17T09:53:18Z</time>
      </trkpt>
      <trkpt lat="45.39808" lon="3.36627">
        <ele>507</ele>
        <time>2020-09-17T09:53:19Z</time>
      </trkpt>
      <trkpt lat="45.39809" lon="3.36627">
        <ele>507</ele>
        <time>2020-09-17T09:53:20Z</time>
      </trkpt>
      <trkpt lat="45.3981" lon="3.36628">
        <ele>506.9</ele>
        <time>2020-09-17T09:53:21Z</time>
      </trkpt>
      <trkpt lat="45.39811" lon="3.36628">
        <ele>506.8</ele>
        <time>2020-09-17T09:53:22Z</time>
      </trkpt>
      <trkpt lat="45.39812" lon="3.36628">
        <ele>506.8</ele>
        <time>2020-09-17T09:53:23Z</time>
      </trkpt>
      <trkpt lat="45.39813" lon="3.36628">
        <ele>506.7</ele>
        <time>2020-09-17T09:53:24Z</time>
      </trkpt>
      <trkpt lat="45.39814" lon="3.36629">
        <ele>506.6</ele>
        <time>2020-09-17T09:53:25Z</time>
      </trkpt>
      <trkpt lat="45.39815" lon="3.36629">
        <ele>506.6</ele>
        <time>2020-09-17T09:53:26Z</time>
      </trkpt>
      <trkpt lat="45.39816" lon="3.36629">
        <ele>506.5</ele>
        <time>2020-09-17T09:53:27Z</time>
      </trkpt>
      <trkpt lat="45.39818" lon="3.36629">
        <ele>506.4</ele>
        <time>2020-09-17T09:53:28Z</time>
      </trkpt>
      <trkpt lat="45.39819" lon="3.36629">
        <ele>506.4</ele>
        <time>2020-09-17T09:53:29Z</time>
      </trkpt>
      <trkpt lat="45.3982" lon="3.36629">
        <ele>506.3</ele>
        <time>2020-09-17T09:53:30Z</time>
      </trkpt>
      <trkpt lat="45.39821" lon="3.36629">
        <ele>506.2</ele>
        <time>2020-09-17T09:53:31Z</time>
      </trkpt>
      <trkpt lat="45.39822" lon="3.36629">
        <ele>506.1</ele>
        <time>2020-09-17T09:53:32Z</time>
      </trkpt>
      <trkpt lat="45.39823" lon="3.36629">
        <ele>506</ele>
        <time>2020-09-17T09:53:33Z</time>
      </trkpt>
      <trkpt lat="45.39824" lon="3.36629">
        <ele>506</ele>
        <time>2020-09-17T09:53:34Z</time>
      </trkpt>
      <trkpt lat="45.39825" lon="3.36629">
        <ele>505.9</ele>
        <time>2020-09-17T09:53:35Z</time>
      </trkpt>
      <trkpt lat="45.39827" lon="3.36629">
        <ele>505.8</ele>
        <time>2020-09-17T09:53:36Z</time>
      </trkpt>
      <trkpt lat="45.39828" lon="3.36629">
        <ele>505.7</ele>
        <time>2020-09-17T09:53:37Z</time>
      </trkpt>
      <trkpt lat="45.39829" lon="3.36629">
        <ele>505.6</ele>
        <time>2020-09-17T09:53:38Z</time>
      </trkpt>
      <trkpt lat="45.3983" lon="3.36629">
        <ele>505.5</ele>
        <time>2020-09-17T09:53:39Z</time>
      </trkpt>
      <trkpt lat="45.39831" lon="3.36629">
        <ele>505.5</ele>
        <time>2020-09-17T09:53:40Z</time>
      </trkpt>
      <trkpt lat="45.39832" lon="3.36629">
        <ele>505.4</ele>
        <time>2020-09-17T09:53:41Z</time>
      </trkpt>
      <trkpt lat="45.39833" lon="3.36629">
        <ele>505.3</ele>
        <time>2020-09-17T09:53:42Z</time>
      </trkpt>
      <trkpt lat="45.39834" lon="3.36629">
        <ele>505.2</ele>
        <time>2020-09-17T09:53:43Z</time>
      </trkpt>
      <trkpt lat="45.39836" lon="3.36629">
        <ele>505.1</ele>
        <time>2020-09-17T09:53:44Z</time>
      </trkpt>
      <trkpt lat="45.39837" lon="3.36629">
        <ele>505.1</ele>
        <time>2020-09-17T09:53:45Z</time>
      </trkpt>
      <trkpt lat="45.39838" lon="3.36629">
        <ele>505</ele>
        <time>2020-09-17T09:53:46Z</time>
      </trkpt>
      <trkpt lat="45.39839" lon="3.36629">
        <ele>504.9</ele>
        <time>2020-09-17T09:53:47Z</time>
      </trkpt>
      <trkpt lat="45.3984" lon="3.36628">
        <ele>504.8</ele>
        <time>2020-09-17T09:53:48Z</time>
      </trkpt>
      <trkpt lat="45.39841" lon="3.36628">
        <ele>504.7</ele>
        <time>2020-09-17T09:53:49Z</time>
      </trkpt>
      <trkpt lat="45.39843" lon="3.36628">
        <ele>504.6</ele>
        <time>2020-09-17T09:53:50Z</time>
      </trkpt>
      <trkpt lat="45.39844" lon="3.36628">
        <ele>504.5</ele>
        <time>2020-09-17T09:53:51Z</time>
      </trkpt>
      <trkpt lat="45.39845" lon="3.36628">
        <ele>504.4</ele>
        <time>2020-09-17T09:53:52Z</time>
      </trkpt>
      <trkpt lat="45.39846" lon="3.36627">
        <ele>504.3</ele>
        <time>2020-09-17T09:53:53Z</time>
      </trkpt>
      <trkpt lat="45.39847" lon="3.36627">
        <ele>504.2</ele>
        <time>2020-09-17T09:53:54Z</time>
      </trkpt>
      <trkpt lat="45.39848" lon="3.36627">
        <ele>504.1</ele>
        <time>2020-09-17T09:53:55Z</time>
      </trkpt>
      <trkpt lat="45.39849" lon="3.36627">
        <ele>504</ele>
        <time>2020-09-17T09:53:56Z</time>
      </trkpt>
      <trkpt lat="45.39851" lon="3.36626">
        <ele>503.9</ele>
        <time>2020-09-17T09:53:57Z</time>
      </trkpt>
      <trkpt lat="45.39852" lon="3.36626">
        <ele>503.8</ele>
        <time>2020-09-17T09:53:58Z</time>
      </trkpt>
      <trkpt lat="45.39853" lon="3.36626">
        <ele>503.7</ele>
        <time>2020-09-17T09:53:59Z</time>
      </trkpt>
      <trkpt lat="45.39854" lon="3.36626">
        <ele>503.6</ele>
        <time>2020-09-17T09:54:00Z</time>
      </trkpt>
      <trkpt lat="45.39855" lon="3.36626">
        <ele>503.5</ele>
        <time>2020-09-17T09:54:01Z</time>
      </trkpt>
      <trkpt lat="45.39856" lon="3.36625">
        <ele>503.4</ele>
        <time>2020-09-17T09:54:02Z</time>
      </trkpt>
      <trkpt lat="45.39857" lon="3.36625">
        <ele>503.3</ele>
        <time>2020-09-17T09:54:03Z</time>
      </trkpt>
      <trkpt lat="45.39858" lon="3.36625">
        <ele>503.1</ele>
        <time>2020-09-17T09:54:04Z</time>
      </trkpt>
      <trkpt lat="45.3986" lon="3.36624">
        <ele>503</ele>
        <time>2020-09-17T09:54:05Z</time>
      </trkpt>
      <trkpt lat="45.39861" lon="3.36624">
        <ele>502.9</ele>
        <time>2020-09-17T09:54:06Z</time>
      </trkpt>
      <trkpt lat="45.39862" lon="3.36624">
        <ele>502.8</ele>
        <time>2020-09-17T09:54:07Z</time>
      </trkpt>
      <trkpt lat="45.39863" lon="3.36624">
        <ele>502.8</ele>
        <time>2020-09-17T09:54:08Z</time>
      </trkpt>
      <trkpt lat="45.39864" lon="3.36623">
        <ele>502.7</ele>
        <time>2020-09-17T09:54:09Z</time>
      </trkpt>
      <trkpt lat="45.39865" lon="3.36623">
        <ele>502.6</ele>
        <time>2020-09-17T09:54:10Z</time>
      </trkpt>
      <trkpt lat="45.39866" lon="3.36623">
        <ele>502.6</ele>
        <time>2020-09-17T09:54:11Z</time>
      </trkpt>
      <trkpt lat="45.39867" lon="3.36623">
        <ele>502.5</ele>
        <time>2020-09-17T09:54:12Z</time>
      </trkpt>
      <trkpt lat="45.39868" lon="3.36623">
        <ele>502.5</ele>
        <time>2020-09-17T09:54:13Z</time>
      </trkpt>
      <trkpt lat="45.39869" lon="3.36622">
        <ele>502.4</ele>
        <time>2020-09-17T09:54:14Z</time>
      </trkpt>
      <trkpt lat="45.39871" lon="3.36622">
        <ele>502.3</ele>
        <time>2020-09-17T09:54:15Z</time>
      </trkpt>
      <trkpt lat="45.39872" lon="3.36622">
        <ele>502.3</ele>
        <time>2020-09-17T09:54:16Z</time>
      </trkpt>
      <trkpt lat="45.39873" lon="3.36621">
        <ele>502.2</ele>
        <time>2020-09-17T09:54:17Z</time>
      </trkpt>
      <trkpt lat="45.39874" lon="3.36621">
        <ele>502.1</ele>
        <time>2020-09-17T09:54:18Z</time>
      </trkpt>
      <trkpt lat="45.39875" lon="3.36621">
        <ele>502.1</ele>
        <time>2020-09-17T09:54:19Z</time>
      </trkpt>
      <trkpt lat="45.39876" lon="3.36621">
        <ele>502</ele>
        <time>2020-09-17T09:54:20Z</time>
      </trkpt>
      <trkpt lat="45.39877" lon="3.3662">
        <ele>501.9</ele>
        <time>2020-09-17T09:54:21Z</time>
      </trkpt>
      <trkpt lat="45.39878" lon="3.3662">
        <ele>501.9</ele>
        <time>2020-09-17T09:54:22Z</time>
      </trkpt>
      <trkpt lat="45.39879" lon="3.3662">
        <ele>501.8</ele>
        <time>2020-09-17T09:54:23Z</time>
      </trkpt>
      <trkpt lat="45.3988" lon="3.36619">
        <ele>501.7</ele>
        <time>2020-09-17T09:54:24Z</time>
      </trkpt>
      <trkpt lat="45.39881" lon="3.36619">
        <ele>501.6</ele>
        <time>2020-09-17T09:54:25Z</time>
      </trkpt>
      <trkpt lat="45.39882" lon="3.36619">
        <ele>501.6</ele>
        <time>2020-09-17T09:54:26Z</time>
      </trkpt>
      <trkpt lat="45.39884" lon="3.36618">
        <ele>501.4</ele>
        <time>2020-09-17T09:54:27Z</time>
      </trkpt>
      <trkpt lat="45.39885" lon="3.36618">
        <ele>501.4</ele>
        <time>2020-09-17T09:54:28Z</time>
      </trkpt>
      <trkpt lat="45.39886" lon="3.36618">
        <ele>501.2</ele>
        <time>2020-09-17T09:54:29Z</time>
      </trkpt>
      <trkpt lat="45.39887" lon="3.36617">
        <ele>501.1</ele>
        <time>2020-09-17T09:54:30Z</time>
      </trkpt>
      <trkpt lat="45.39888" lon="3.36617">
        <ele>501</ele>
        <time>2020-09-17T09:54:31Z</time>
      </trkpt>
      <trkpt lat="45.39889" lon="3.36616">
        <ele>500.9</ele>
        <time>2020-09-17T09:54:32Z</time>
      </trkpt>
      <trkpt lat="45.3989" lon="3.36616">
        <ele>500.8</ele>
        <time>2020-09-17T09:54:33Z</time>
      </trkpt>
      <trkpt lat="45.39891" lon="3.36615">
        <ele>500.7</ele>
        <time>2020-09-17T09:54:34Z</time>
      </trkpt>
      <trkpt lat="45.39892" lon="3.36615">
        <ele>500.7</ele>
        <time>2020-09-17T09:54:35Z</time>
      </trkpt>
      <trkpt lat="45.39894" lon="3.36614">
        <ele>500.6</ele>
        <time>2020-09-17T09:54:36Z</time>
      </trkpt>
      <trkpt lat="45.39895" lon="3.36614">
        <ele>500.5</ele>
        <time>2020-09-17T09:54:37Z</time>
      </trkpt>
      <trkpt lat="45.39896" lon="3.36613">
        <ele>500.4</ele>
        <time>2020-09-17T09:54:38Z</time>
      </trkpt>
      <trkpt lat="45.39897" lon="3.36613">
        <ele>500.3</ele>
        <time>2020-09-17T09:54:39Z</time>
      </trkpt>
      <trkpt lat="45.39898" lon="3.36613">
        <ele>500.3</ele>
        <time>2020-09-17T09:54:40Z</time>
      </trkpt>
      <trkpt lat="45.39899" lon="3.36612">
        <ele>500.2</ele>
        <time>2020-09-17T09:54:41Z</time>
      </trkpt>
      <trkpt lat="45.399" lon="3.36612">
        <ele>500.2</ele>
        <time>2020-09-17T09:54:42Z</time>
      </trkpt>
      <trkpt lat="45.39901" lon="3.36612">
        <ele>500.1</ele>
        <time>2020-09-17T09:54:43Z</time>
      </trkpt>
      <trkpt lat="45.39903" lon="3.36612">
        <ele>500.1</ele>
        <time>2020-09-17T09:54:44Z</time>
      </trkpt>
      <trkpt lat="45.39904" lon="3.36611">
        <ele>500</ele>
        <time>2020-09-17T09:54:45Z</time>
      </trkpt>
      <trkpt lat="45.39905" lon="3.36611">
        <ele>499.9</ele>
        <time>2020-09-17T09:54:46Z</time>
      </trkpt>
      <trkpt lat="45.39906" lon="3.3661">
        <ele>499.8</ele>
        <time>2020-09-17T09:54:47Z</time>
      </trkpt>
      <trkpt lat="45.39907" lon="3.3661">
        <ele>499.7</ele>
        <time>2020-09-17T09:54:48Z</time>
      </trkpt>
      <trkpt lat="45.39908" lon="3.36609">
        <ele>499.7</ele>
        <time>2020-09-17T09:54:49Z</time>
      </trkpt>
      <trkpt lat="45.39909" lon="3.36609">
        <ele>499.6</ele>
        <time>2020-09-17T09:54:50Z</time>
      </trkpt>
      <trkpt lat="45.3991" lon="3.36609">
        <ele>499.6</ele>
        <time>2020-09-17T09:54:51Z</time>
      </trkpt>
      <trkpt lat="45.39911" lon="3.36608">
        <ele>499.4</ele>
        <time>2020-09-17T09:54:52Z</time>
      </trkpt>
      <trkpt lat="45.39912" lon="3.36607">
        <ele>499.3</ele>
        <time>2020-09-17T09:54:53Z</time>
      </trkpt>
      <trkpt lat="45.39913" lon="3.36607">
        <ele>499.2</ele>
        <time>2020-09-17T09:54:54Z</time>
      </trkpt>
      <trkpt lat="45.39914" lon="3.36606">
        <ele>499.1</ele>
        <time>2020-09-17T09:54:55Z</time>
      </trkpt>
      <trkpt lat="45.39915" lon="3.36606">
        <ele>499</ele>
        <time>2020-09-17T09:54:56Z</time>
      </trkpt>
      <trkpt lat="45.39916" lon="3.36605">
        <ele>499</ele>
        <time>2020-09-17T09:54:57Z</time>
      </trkpt>
      <trkpt lat="45.39917" lon="3.36605">
        <ele>498.9</ele>
        <time>2020-09-17T09:54:58Z</time>
      </trkpt>
      <trkpt lat="45.39918" lon="3.36604">
        <ele>498.7</ele>
        <time>2020-09-17T09:54:59Z</time>
      </trkpt>
      <trkpt lat="45.39919" lon="3.36604">
        <ele>498.6</ele>
        <time>2020-09-17T09:55:00Z</time>
      </trkpt>
      <trkpt lat="45.3992" lon="3.36604">
        <ele>498.5</ele>
        <time>2020-09-17T09:55:01Z</time>
      </trkpt>
      <trkpt lat="45.39922" lon="3.36604">
        <ele>498.5</ele>
        <time>2020-09-17T09:55:02Z</time>
      </trkpt>
      <trkpt lat="45.39923" lon="3.36603">
        <ele>498.4</ele>
        <time>2020-09-17T09:55:03Z</time>
      </trkpt>
      <trkpt lat="45.39924" lon="3.36603">
        <ele>498.3</ele>
        <time>2020-09-17T09:55:04Z</time>
      </trkpt>
      <trkpt lat="45.39925" lon="3.36603">
        <ele>498.2</ele>
        <time>2020-09-17T09:55:05Z</time>
      </trkpt>
      <trkpt lat="45.39926" lon="3.36603">
        <ele>498.2</ele>
        <time>2020-09-17T09:55:06Z</time>
      </trkpt>
      <trkpt lat="45.39927" lon="3.36602">
        <ele>498</ele>
        <time>2020-09-17T09:55:07Z</time>
      </trkpt>
      <trkpt lat="45.39928" lon="3.36602">
        <ele>497.9</ele>
        <time>2020-09-17T09:55:08Z</time>
      </trkpt>
      <trkpt lat="45.39929" lon="3.36602">
        <ele>497.8</ele>
        <time>2020-09-17T09:55:09Z</time>
      </trkpt>
      <trkpt lat="45.3993" lon="3.36601">
        <ele>497.7</ele>
        <time>2020-09-17T09:55:10Z</time>
      </trkpt>
      <trkpt lat="45.39931" lon="3.36601">
        <ele>497.6</ele>
        <time>2020-09-17T09:55:11Z</time>
      </trkpt>
      <trkpt lat="45.39932" lon="3.366">
        <ele>497.5</ele>
        <time>2020-09-17T09:55:12Z</time>
      </trkpt>
      <trkpt lat="45.39934" lon="3.366">
        <ele>497.3</ele>
        <time>2020-09-17T09:55:13Z</time>
      </trkpt>
      <trkpt lat="45.39935" lon="3.36599">
        <ele>497.2</ele>
        <time>2020-09-17T09:55:14Z</time>
      </trkpt>
      <trkpt lat="45.39936" lon="3.36599">
        <ele>497.1</ele>
        <time>2020-09-17T09:55:15Z</time>
      </trkpt>
      <trkpt lat="45.39937" lon="3.36598">
        <ele>496.9</ele>
        <time>2020-09-17T09:55:16Z</time>
      </trkpt>
      <trkpt lat="45.39938" lon="3.36598">
        <ele>496.8</ele>
        <time>2020-09-17T09:55:17Z</time>
      </trkpt>
      <trkpt lat="45.39939" lon="3.36597">
        <ele>496.6</ele>
        <time>2020-09-17T09:55:18Z</time>
      </trkpt>
      <trkpt lat="45.3994" lon="3.36596">
        <ele>496.5</ele>
        <time>2020-09-17T09:55:19Z</time>
      </trkpt>
      <trkpt lat="45.39941" lon="3.36596">
        <ele>496.3</ele>
        <time>2020-09-17T09:55:20Z</time>
      </trkpt>
      <trkpt lat="45.39943" lon="3.36595">
        <ele>496.2</ele>
        <time>2020-09-17T09:55:21Z</time>
      </trkpt>
      <trkpt lat="45.39944" lon="3.36595">
        <ele>496</ele>
        <time>2020-09-17T09:55:22Z</time>
      </trkpt>
      <trkpt lat="45.39945" lon="3.36594">
        <ele>495.9</ele>
        <time>2020-09-17T09:55:23Z</time>
      </trkpt>
      <trkpt lat="45.39946" lon="3.36593">
        <ele>495.7</ele>
        <time>2020-09-17T09:55:24Z</time>
      </trkpt>
      <trkpt lat="45.39947" lon="3.36592">
        <ele>495.6</ele>
        <time>2020-09-17T09:55:25Z</time>
      </trkpt>
      <trkpt lat="45.39948" lon="3.36592">
        <ele>495.5</ele>
        <time>2020-09-17T09:55:26Z</time>
      </trkpt>
      <trkpt lat="45.39949" lon="3.36591">
        <ele>495.3</ele>
        <time>2020-09-17T09:55:27Z</time>
      </trkpt>
      <trkpt lat="45.3995" lon="3.3659">
        <ele>495.2</ele>
        <time>2020-09-17T09:55:28Z</time>
      </trkpt>
      <trkpt lat="45.39951" lon="3.3659">
        <ele>495.1</ele>
        <time>2020-09-17T09:55:29Z</time>
      </trkpt>
      <trkpt lat="45.39952" lon="3.36589">
        <ele>494.9</ele>
        <time>2020-09-17T09:55:30Z</time>
      </trkpt>
      <trkpt lat="45.39953" lon="3.36588">
        <ele>494.8</ele>
        <time>2020-09-17T09:55:31Z</time>
      </trkpt>
      <trkpt lat="45.39954" lon="3.36587">
        <ele>494.7</ele>
        <time>2020-09-17T09:55:32Z</time>
      </trkpt>
      <trkpt lat="45.39955" lon="3.36587">
        <ele>494.6</ele>
        <time>2020-09-17T09:55:33Z</time>
      </trkpt>
      <trkpt lat="45.39956" lon="3.36586">
        <ele>494.4</ele>
        <time>2020-09-17T09:55:34Z</time>
      </trkpt>
      <trkpt lat="45.39957" lon="3.36585">
        <ele>494.3</ele>
        <time>2020-09-17T09:55:35Z</time>
      </trkpt>
      <trkpt lat="45.39957" lon="3.36584">
        <ele>494.2</ele>
        <time>2020-09-17T09:55:36Z</time>
      </trkpt>
      <trkpt lat="45.39958" lon="3.36584">
        <ele>494</ele>
        <time>2020-09-17T09:55:37Z</time>
      </trkpt>
      <trkpt lat="45.39959" lon="3.36583">
        <ele>493.9</ele>
        <time>2020-09-17T09:55:38Z</time>
      </trkpt>
      <trkpt lat="45.3996" lon="3.36582">
        <ele>493.8</ele>
        <time>2020-09-17T09:55:39Z</time>
      </trkpt>
      <trkpt lat="45.39961" lon="3.36581">
        <ele>493.6</ele>
        <time>2020-09-17T09:55:40Z</time>
      </trkpt>
      <trkpt lat="45.39962" lon="3.3658">
        <ele>493.5</ele>
        <time>2020-09-17T09:55:41Z</time>
      </trkpt>
      <trkpt lat="45.39963" lon="3.3658">
        <ele>493.3</ele>
        <time>2020-09-17T09:55:42Z</time>
      </trkpt>
      <trkpt lat="45.39964" lon="3.36579">
        <ele>493.2</ele>
        <time>2020-09-17T09:55:43Z</time>
      </trkpt>
      <trkpt lat="45.39965" lon="3.36578">
        <ele>493</ele>
        <time>2020-09-17T09:55:44Z</time>
      </trkpt>
      <trkpt lat="45.39965" lon="3.36577">
        <ele>492.8</ele>
        <time>2020-09-17T09:55:45Z</time>
      </trkpt>
      <trkpt lat="45.39966" lon="3.36576">
        <ele>492.6</ele>
        <time>2020-09-17T09:55:46Z</time>
      </trkpt>
      <trkpt lat="45.39967" lon="3.36575">
        <ele>492.5</ele>
        <time>2020-09-17T09:55:47Z</time>
      </trkpt>
      <trkpt lat="45.39968" lon="3.36574">
        <ele>492.3</ele>
        <time>2020-09-17T09:55:48Z</time>
      </trkpt>
      <trkpt lat="45.39969" lon="3.36573">
        <ele>492.1</ele>
        <time>2020-09-17T09:55:49Z</time>
      </trkpt>
      <trkpt lat="45.3997" lon="3.36572">
        <ele>492</ele>
        <time>2020-09-17T09:55:50Z</time>
      </trkpt>
      <trkpt lat="45.39971" lon="3.36571">
        <ele>491.8</ele>
        <time>2020-09-17T09:55:51Z</time>
      </trkpt>
      <trkpt lat="45.39972" lon="3.3657">
        <ele>491.6</ele>
        <time>2020-09-17T09:55:52Z</time>
      </trkpt>
      <trkpt lat="45.39973" lon="3.3657">
        <ele>491.5</ele>
        <time>2020-09-17T09:55:53Z</time>
      </trkpt>
      <trkpt lat="45.39973" lon="3.36569">
        <ele>491.3</ele>
        <time>2020-09-17T09:55:54Z</time>
      </trkpt>
      <trkpt lat="45.39974" lon="3.36568">
        <ele>491.1</ele>
        <time>2020-09-17T09:55:55Z</time>
      </trkpt>
      <trkpt lat="45.39975" lon="3.36567">
        <ele>491</ele>
        <time>2020-09-17T09:55:56Z</time>
      </trkpt>
      <trkpt lat="45.39976" lon="3.36566">
        <ele>490.8</ele>
        <time>2020-09-17T09:55:57Z</time>
      </trkpt>
      <trkpt lat="45.39976" lon="3.36565">
        <ele>490.6</ele>
        <time>2020-09-17T09:55:58Z</time>
      </trkpt>
      <trkpt lat="45.39977" lon="3.36564">
        <ele>490.5</ele>
        <time>2020-09-17T09:55:59Z</time>
      </trkpt>
      <trkpt lat="45.39978" lon="3.36563">
        <ele>490.3</ele>
        <time>2020-09-17T09:56:00Z</time>
      </trkpt>
      <trkpt lat="45.39979" lon="3.36562">
        <ele>490.2</ele>
        <time>2020-09-17T09:56:01Z</time>
      </trkpt>
      <trkpt lat="45.39979" lon="3.36562">
        <ele>490.1</ele>
        <time>2020-09-17T09:56:02Z</time>
      </trkpt>
      <trkpt lat="45.3998" lon="3.36561">
        <ele>489.9</ele>
        <time>2020-09-17T09:56:03Z</time>
      </trkpt>
      <trkpt lat="45.39981" lon="3.3656">
        <ele>489.8</ele>
        <time>2020-09-17T09:56:04Z</time>
      </trkpt>
      <trkpt lat="45.39982" lon="3.36559">
        <ele>489.7</ele>
        <time>2020-09-17T09:56:05Z</time>
      </trkpt>
      <trkpt lat="45.39982" lon="3.36559">
        <ele>489.5</ele>
        <time>2020-09-17T09:56:06Z</time>
      </trkpt>
      <trkpt lat="45.39983" lon="3.36558">
        <ele>489.4</ele>
        <time>2020-09-17T09:56:07Z</time>
      </trkpt>
      <trkpt lat="45.39984" lon="3.36557">
        <ele>489.2</ele>
        <time>2020-09-17T09:56:08Z</time>
      </trkpt>
      <trkpt lat="45.39985" lon="3.36556">
        <ele>489.1</ele>
        <time>2020-09-17T09:56:09Z</time>
      </trkpt>
      <trkpt lat="45.39985" lon="3.36555">
        <ele>489</ele>
        <time>2020-09-17T09:56:10Z</time>
      </trkpt>
      <trkpt lat="45.39986" lon="3.36555">
        <ele>488.9</ele>
        <time>2020-09-17T09:56:11Z</time>
      </trkpt>
      <trkpt lat="45.39987" lon="3.36554">
        <ele>488.8</ele>
        <time>2020-09-17T09:56:12Z</time>
      </trkpt>
      <trkpt lat="45.39987" lon="3.36554">
        <ele>488.6</ele>
        <time>2020-09-17T09:56:13Z</time>
      </trkpt>
      <trkpt lat="45.39988" lon="3.36553">
        <ele>488.5</ele>
        <time>2020-09-17T09:56:14Z</time>
      </trkpt>
      <trkpt lat="45.39988" lon="3.36553">
        <ele>488.4</ele>
        <time>2020-09-17T09:56:15Z</time>
      </trkpt>
      <trkpt lat="45.39989" lon="3.36552">
        <ele>488.3</ele>
        <time>2020-09-17T09:56:16Z</time>
      </trkpt>
      <trkpt lat="45.3999" lon="3.36551">
        <ele>488.2</ele>
        <time>2020-09-17T09:56:17Z</time>
      </trkpt>
      <trkpt lat="45.3999" lon="3.36551">
        <ele>488.1</ele>
        <time>2020-09-17T09:56:18Z</time>
      </trkpt>
      <trkpt lat="45.39991" lon="3.3655">
        <ele>488</ele>
        <time>2020-09-17T09:56:19Z</time>
      </trkpt>
      <trkpt lat="45.39992" lon="3.3655">
        <ele>487.8</ele>
        <time>2020-09-17T09:56:20Z</time>
      </trkpt>
      <trkpt lat="45.39993" lon="3.36549">
        <ele>487.7</ele>
        <time>2020-09-17T09:56:21Z</time>
      </trkpt>
      <trkpt lat="45.39994" lon="3.36548">
        <ele>487.6</ele>
        <time>2020-09-17T09:56:22Z</time>
      </trkpt>
      <trkpt lat="45.39995" lon="3.36548">
        <ele>487.5</ele>
        <time>2020-09-17T09:56:23Z</time>
      </trkpt>
      <trkpt lat="45.39995" lon="3.36547">
        <ele>487.4</ele>
        <time>2020-09-17T09:56:24Z</time>
      </trkpt>
      <trkpt lat="45.39996" lon="3.36546">
        <ele>487.3</ele>
        <time>2020-09-17T09:56:25Z</time>
      </trkpt>
      <trkpt lat="45.39997" lon="3.36545">
        <ele>487.1</ele>
        <time>2020-09-17T09:56:26Z</time>
      </trkpt>
      <trkpt lat="45.39997" lon="3.36545">
        <ele>487</ele>
        <time>2020-09-17T09:56:27Z</time>
      </trkpt>
      <trkpt lat="45.39998" lon="3.36544">
        <ele>487</ele>
        <time>2020-09-17T09:56:28Z</time>
      </trkpt>
      <trkpt lat="45.39999" lon="3.36544">
        <ele>486.9</ele>
        <time>2020-09-17T09:56:29Z</time>
      </trkpt>
      <trkpt lat="45.4" lon="3.36544">
        <ele>486.9</ele>
        <time>2020-09-17T09:56:30Z</time>
      </trkpt>
      <trkpt lat="45.40001" lon="3.36543">
        <ele>486.7</ele>
        <time>2020-09-17T09:56:31Z</time>
      </trkpt>
      <trkpt lat="45.40002" lon="3.36543">
        <ele>486.6</ele>
        <time>2020-09-17T09:56:32Z</time>
      </trkpt>
      <trkpt lat="45.40003" lon="3.36543">
        <ele>486.6</ele>
        <time>2020-09-17T09:56:33Z</time>
      </trkpt>
      <trkpt lat="45.40004" lon="3.36542">
        <ele>486.4</ele>
        <time>2020-09-17T09:56:34Z</time>
      </trkpt>
      <trkpt lat="45.40005" lon="3.36542">
        <ele>486.3</ele>
        <time>2020-09-17T09:56:35Z</time>
      </trkpt>
      <trkpt lat="45.40006" lon="3.36542">
        <ele>486.2</ele>
        <time>2020-09-17T09:56:36Z</time>
      </trkpt>
      <trkpt lat="45.40007" lon="3.36541">
        <ele>486.1</ele>
        <time>2020-09-17T09:56:37Z</time>
      </trkpt>
      <trkpt lat="45.40008" lon="3.36541">
        <ele>485.9</ele>
        <time>2020-09-17T09:56:38Z</time>
      </trkpt>
      <trkpt lat="45.40009" lon="3.36541">
        <ele>485.8</ele>
        <time>2020-09-17T09:56:39Z</time>
      </trkpt>
      <trkpt lat="45.4001" lon="3.3654">
        <ele>485.7</ele>
        <time>2020-09-17T09:56:40Z</time>
      </trkpt>
      <trkpt lat="45.40011" lon="3.3654">
        <ele>485.6</ele>
        <time>2020-09-17T09:56:41Z</time>
      </trkpt>
      <trkpt lat="45.40012" lon="3.3654">
        <ele>485.5</ele>
        <time>2020-09-17T09:56:42Z</time>
      </trkpt>
      <trkpt lat="45.40013" lon="3.3654">
        <ele>485.4</ele>
        <time>2020-09-17T09:56:43Z</time>
      </trkpt>
      <trkpt lat="45.40015" lon="3.3654">
        <ele>485.3</ele>
        <time>2020-09-17T09:56:44Z</time>
      </trkpt>
      <trkpt lat="45.40016" lon="3.3654">
        <ele>485.2</ele>
        <time>2020-09-17T09:56:45Z</time>
      </trkpt>
      <trkpt lat="45.40017" lon="3.3654">
        <ele>485.1</ele>
        <time>2020-09-17T09:56:46Z</time>
      </trkpt>
      <trkpt lat="45.40019" lon="3.36539">
        <ele>485</ele>
        <time>2020-09-17T09:56:47Z</time>
      </trkpt>
      <trkpt lat="45.4002" lon="3.36539">
        <ele>484.9</ele>
        <time>2020-09-17T09:56:48Z</time>
      </trkpt>
      <trkpt lat="45.40021" lon="3.36539">
        <ele>484.8</ele>
        <time>2020-09-17T09:56:49Z</time>
      </trkpt>
      <trkpt lat="45.40023" lon="3.36539">
        <ele>484.7</ele>
        <time>2020-09-17T09:56:50Z</time>
      </trkpt>
      <trkpt lat="45.40024" lon="3.36539">
        <ele>484.6</ele>
        <time>2020-09-17T09:56:51Z</time>
      </trkpt>
      <trkpt lat="45.40025" lon="3.36539">
        <ele>484.6</ele>
        <time>2020-09-17T09:56:52Z</time>
      </trkpt>
      <trkpt lat="45.40027" lon="3.36539">
        <ele>484.5</ele>
        <time>2020-09-17T09:56:53Z</time>
      </trkpt>
      <trkpt lat="45.40028" lon="3.36539">
        <ele>484.4</ele>
        <time>2020-09-17T09:56:54Z</time>
      </trkpt>
      <trkpt lat="45.40029" lon="3.36539">
        <ele>484.3</ele>
        <time>2020-09-17T09:56:55Z</time>
      </trkpt>
      <trkpt lat="45.4003" lon="3.36539">
        <ele>484.3</ele>
        <time>2020-09-17T09:56:56Z</time>
      </trkpt>
      <trkpt lat="45.40031" lon="3.3654">
        <ele>484.3</ele>
        <time>2020-09-17T09:56:57Z</time>
      </trkpt>
      <trkpt lat="45.40033" lon="3.3654">
        <ele>484.2</ele>
        <time>2020-09-17T09:56:58Z</time>
      </trkpt>
      <trkpt lat="45.40034" lon="3.3654">
        <ele>484.1</ele>
        <time>2020-09-17T09:56:59Z</time>
      </trkpt>
      <trkpt lat="45.40035" lon="3.3654">
        <ele>483.9</ele>
        <time>2020-09-17T09:57:00Z</time>
      </trkpt>
      <trkpt lat="45.40036" lon="3.3654">
        <ele>483.8</ele>
        <time>2020-09-17T09:57:01Z</time>
      </trkpt>
      <trkpt lat="45.40038" lon="3.36539">
        <ele>483.7</ele>
        <time>2020-09-17T09:57:02Z</time>
      </trkpt>
      <trkpt lat="45.40039" lon="3.36539">
        <ele>483.5</ele>
        <time>2020-09-17T09:57:03Z</time>
      </trkpt>
      <trkpt lat="45.4004" lon="3.36539">
        <ele>483.4</ele>
        <time>2020-09-17T09:57:04Z</time>
      </trkpt>
      <trkpt lat="45.40041" lon="3.36539">
        <ele>483.3</ele>
        <time>2020-09-17T09:57:05Z</time>
      </trkpt>
      <trkpt lat="45.40042" lon="3.3654">
        <ele>483.3</ele>
        <time>2020-09-17T09:57:06Z</time>
      </trkpt>
      <trkpt lat="45.40043" lon="3.36539">
        <ele>483.1</ele>
        <time>2020-09-17T09:57:07Z</time>
      </trkpt>
      <trkpt lat="45.40044" lon="3.36539">
        <ele>482.9</ele>
        <time>2020-09-17T09:57:08Z</time>
      </trkpt>
      <trkpt lat="45.40046" lon="3.36538">
        <ele>482.7</ele>
        <time>2020-09-17T09:57:09Z</time>
      </trkpt>
      <trkpt lat="45.40047" lon="3.36538">
        <ele>482.5</ele>
        <time>2020-09-17T09:57:10Z</time>
      </trkpt>
      <trkpt lat="45.40048" lon="3.36537">
        <ele>482.4</ele>
        <time>2020-09-17T09:57:11Z</time>
      </trkpt>
      <trkpt lat="45.40049" lon="3.36537">
        <ele>482.3</ele>
        <time>2020-09-17T09:57:12Z</time>
      </trkpt>
      <trkpt lat="45.4005" lon="3.36537">
        <ele>482.2</ele>
        <time>2020-09-17T09:57:13Z</time>
      </trkpt>
      <trkpt lat="45.40051" lon="3.36537">
        <ele>482.1</ele>
        <time>2020-09-17T09:57:14Z</time>
      </trkpt>
      <trkpt lat="45.40052" lon="3.36537">
        <ele>482</ele>
        <time>2020-09-17T09:57:15Z</time>
      </trkpt>
      <trkpt lat="45.40053" lon="3.36538">
        <ele>481.9</ele>
        <time>2020-09-17T09:57:16Z</time>
      </trkpt>
      <trkpt lat="45.40054" lon="3.36538">
        <ele>481.9</ele>
        <time>2020-09-17T09:57:17Z</time>
      </trkpt>
      <trkpt lat="45.40055" lon="3.36538">
        <ele>481.8</ele>
        <time>2020-09-17T09:57:18Z</time>
      </trkpt>
      <trkpt lat="45.40056" lon="3.36538">
        <ele>481.6</ele>
        <time>2020-09-17T09:57:19Z</time>
      </trkpt>
      <trkpt lat="45.40058" lon="3.36538">
        <ele>481.5</ele>
        <time>2020-09-17T09:57:20Z</time>
      </trkpt>
      <trkpt lat="45.40059" lon="3.36538">
        <ele>481.4</ele>
        <time>2020-09-17T09:57:21Z</time>
      </trkpt>
      <trkpt lat="45.4006" lon="3.36539">
        <ele>481.3</ele>
        <time>2020-09-17T09:57:22Z</time>
      </trkpt>
      <trkpt lat="45.40061" lon="3.36539">
        <ele>481.2</ele>
        <time>2020-09-17T09:57:23Z</time>
      </trkpt>
      <trkpt lat="45.40062" lon="3.3654">
        <ele>481.1</ele>
        <time>2020-09-17T09:57:24Z</time>
      </trkpt>
      <trkpt lat="45.40063" lon="3.3654">
        <ele>481</ele>
        <time>2020-09-17T09:57:25Z</time>
      </trkpt>
      <trkpt lat="45.40064" lon="3.36541">
        <ele>480.9</ele>
        <time>2020-09-17T09:57:26Z</time>
      </trkpt>
      <trkpt lat="45.40065" lon="3.36541">
        <ele>480.7</ele>
        <time>2020-09-17T09:57:27Z</time>
      </trkpt>
      <trkpt lat="45.40066" lon="3.36541">
        <ele>480.6</ele>
        <time>2020-09-17T09:57:28Z</time>
      </trkpt>
      <trkpt lat="45.40067" lon="3.36542">
        <ele>480.4</ele>
        <time>2020-09-17T09:57:29Z</time>
      </trkpt>
      <trkpt lat="45.40068" lon="3.36542">
        <ele>480.3</ele>
        <time>2020-09-17T09:57:30Z</time>
      </trkpt>
      <trkpt lat="45.40069" lon="3.36542">
        <ele>480.2</ele>
        <time>2020-09-17T09:57:31Z</time>
      </trkpt>
      <trkpt lat="45.4007" lon="3.36543">
        <ele>480.1</ele>
        <time>2020-09-17T09:57:32Z</time>
      </trkpt>
      <trkpt lat="45.40071" lon="3.36543">
        <ele>479.9</ele>
        <time>2020-09-17T09:57:33Z</time>
      </trkpt>
      <trkpt lat="45.40072" lon="3.36543">
        <ele>479.8</ele>
        <time>2020-09-17T09:57:34Z</time>
      </trkpt>
      <trkpt lat="45.40073" lon="3.36544">
        <ele>479.7</ele>
        <time>2020-09-17T09:57:35Z</time>
      </trkpt>
      <trkpt lat="45.40074" lon="3.36544">
        <ele>479.5</ele>
        <time>2020-09-17T09:57:36Z</time>
      </trkpt>
      <trkpt lat="45.40075" lon="3.36544">
        <ele>479.4</ele>
        <time>2020-09-17T09:57:37Z</time>
      </trkpt>
      <trkpt lat="45.40076" lon="3.36545">
        <ele>479.2</ele>
        <time>2020-09-17T09:57:38Z</time>
      </trkpt>
      <trkpt lat="45.40077" lon="3.36545">
        <ele>479.1</ele>
        <time>2020-09-17T09:57:39Z</time>
      </trkpt>
      <trkpt lat="45.40079" lon="3.36546">
        <ele>478.9</ele>
        <time>2020-09-17T09:57:40Z</time>
      </trkpt>
      <trkpt lat="45.4008" lon="3.36546">
        <ele>478.7</ele>
        <time>2020-09-17T09:57:41Z</time>
      </trkpt>
      <trkpt lat="45.40081" lon="3.36546">
        <ele>478.5</ele>
        <time>2020-09-17T09:57:42Z</time>
      </trkpt>
      <trkpt lat="45.40082" lon="3.36547">
        <ele>478.2</ele>
        <time>2020-09-17T09:57:43Z</time>
      </trkpt>
      <trkpt lat="45.40083" lon="3.36547">
        <ele>478.1</ele>
        <time>2020-09-17T09:57:44Z</time>
      </trkpt>
      <trkpt lat="45.40085" lon="3.36548">
        <ele>478</ele>
        <time>2020-09-17T09:57:45Z</time>
      </trkpt>
      <trkpt lat="45.40086" lon="3.36549">
        <ele>477.9</ele>
        <time>2020-09-17T09:57:46Z</time>
      </trkpt>
      <trkpt lat="45.40087" lon="3.3655">
        <ele>477.9</ele>
        <time>2020-09-17T09:57:47Z</time>
      </trkpt>
      <trkpt lat="45.40088" lon="3.3655">
        <ele>477.8</ele>
        <time>2020-09-17T09:57:48Z</time>
      </trkpt>
      <trkpt lat="45.40089" lon="3.36551">
        <ele>477.7</ele>
        <time>2020-09-17T09:57:49Z</time>
      </trkpt>
      <trkpt lat="45.40091" lon="3.36552">
        <ele>477.6</ele>
        <time>2020-09-17T09:57:50Z</time>
      </trkpt>
      <trkpt lat="45.40092" lon="3.36553">
        <ele>477.6</ele>
        <time>2020-09-17T09:57:51Z</time>
      </trkpt>
      <trkpt lat="45.40092" lon="3.36554">
        <ele>477.5</ele>
        <time>2020-09-17T09:57:52Z</time>
      </trkpt>
      <trkpt lat="45.40093" lon="3.36555">
        <ele>477.5</ele>
        <time>2020-09-17T09:57:53Z</time>
      </trkpt>
      <trkpt lat="45.40094" lon="3.36556">
        <ele>477.5</ele>
        <time>2020-09-17T09:57:54Z</time>
      </trkpt>
      <trkpt lat="45.40094" lon="3.36557">
        <ele>477.5</ele>
        <time>2020-09-17T09:57:55Z</time>
      </trkpt>
      <trkpt lat="45.40095" lon="3.36558">
        <ele>477.5</ele>
        <time>2020-09-17T09:57:56Z</time>
      </trkpt>
      <trkpt lat="45.40096" lon="3.36559">
        <ele>477.4</ele>
        <time>2020-09-17T09:57:57Z</time>
      </trkpt>
      <trkpt lat="45.40096" lon="3.3656">
        <ele>477.4</ele>
        <time>2020-09-17T09:57:58Z</time>
      </trkpt>
      <trkpt lat="45.40097" lon="3.3656">
        <ele>477.3</ele>
        <time>2020-09-17T09:57:59Z</time>
      </trkpt>
      <trkpt lat="45.40098" lon="3.36562">
        <ele>477.2</ele>
        <time>2020-09-17T09:58:00Z</time>
      </trkpt>
      <trkpt lat="45.40099" lon="3.36563">
        <ele>477.1</ele>
        <time>2020-09-17T09:58:01Z</time>
      </trkpt>
      <trkpt lat="45.401" lon="3.36564">
        <ele>477.1</ele>
        <time>2020-09-17T09:58:02Z</time>
      </trkpt>
      <trkpt lat="45.401" lon="3.36565">
        <ele>477.1</ele>
        <time>2020-09-17T09:58:03Z</time>
      </trkpt>
      <trkpt lat="45.40101" lon="3.36566">
        <ele>477</ele>
        <time>2020-09-17T09:58:04Z</time>
      </trkpt>
      <trkpt lat="45.40102" lon="3.36567">
        <ele>476.9</ele>
        <time>2020-09-17T09:58:05Z</time>
      </trkpt>
      <trkpt lat="45.40103" lon="3.36568">
        <ele>476.8</ele>
        <time>2020-09-17T09:58:06Z</time>
      </trkpt>
      <trkpt lat="45.40103" lon="3.36569">
        <ele>476.8</ele>
        <time>2020-09-17T09:58:07Z</time>
      </trkpt>
      <trkpt lat="45.40104" lon="3.3657">
        <ele>476.7</ele>
        <time>2020-09-17T09:58:08Z</time>
      </trkpt>
      <trkpt lat="45.40105" lon="3.3657">
        <ele>476.5</ele>
        <time>2020-09-17T09:58:09Z</time>
      </trkpt>
      <trkpt lat="45.40106" lon="3.36571">
        <ele>476.4</ele>
        <time>2020-09-17T09:58:10Z</time>
      </trkpt>
      <trkpt lat="45.40107" lon="3.36572">
        <ele>476.3</ele>
        <time>2020-09-17T09:58:11Z</time>
      </trkpt>
      <trkpt lat="45.40108" lon="3.36573">
        <ele>476.1</ele>
        <time>2020-09-17T09:58:12Z</time>
      </trkpt>
      <trkpt lat="45.40109" lon="3.36573">
        <ele>476</ele>
        <time>2020-09-17T09:58:13Z</time>
      </trkpt>
      <trkpt lat="45.4011" lon="3.36574">
        <ele>475.8</ele>
        <time>2020-09-17T09:58:14Z</time>
      </trkpt>
      <trkpt lat="45.40111" lon="3.36574">
        <ele>475.7</ele>
        <time>2020-09-17T09:58:15Z</time>
      </trkpt>
      <trkpt lat="45.40112" lon="3.36575">
        <ele>475.6</ele>
        <time>2020-09-17T09:58:16Z</time>
      </trkpt>
      <trkpt lat="45.40113" lon="3.36575">
        <ele>475.6</ele>
        <time>2020-09-17T09:58:17Z</time>
      </trkpt>
      <trkpt lat="45.40114" lon="3.36576">
        <ele>475.5</ele>
        <time>2020-09-17T09:58:18Z</time>
      </trkpt>
      <trkpt lat="45.40115" lon="3.36576">
        <ele>475.5</ele>
        <time>2020-09-17T09:58:19Z</time>
      </trkpt>
      <trkpt lat="45.40117" lon="3.36576">
        <ele>475.4</ele>
        <time>2020-09-17T09:58:20Z</time>
      </trkpt>
      <trkpt lat="45.40118" lon="3.36576">
        <ele>475.4</ele>
        <time>2020-09-17T09:58:21Z</time>
      </trkpt>
      <trkpt lat="45.40119" lon="3.36577">
        <ele>475.3</ele>
        <time>2020-09-17T09:58:22Z</time>
      </trkpt>
      <trkpt lat="45.4012" lon="3.36576">
        <ele>475.3</ele>
        <time>2020-09-17T09:58:23Z</time>
      </trkpt>
      <trkpt lat="45.40122" lon="3.36576">
        <ele>475.2</ele>
        <time>2020-09-17T09:58:24Z</time>
      </trkpt>
      <trkpt lat="45.40123" lon="3.36576">
        <ele>475.1</ele>
        <time>2020-09-17T09:58:25Z</time>
      </trkpt>
      <trkpt lat="45.40124" lon="3.36576">
        <ele>475</ele>
        <time>2020-09-17T09:58:26Z</time>
      </trkpt>
      <trkpt lat="45.40125" lon="3.36575">
        <ele>474.8</ele>
        <time>2020-09-17T09:58:27Z</time>
      </trkpt>
      <trkpt lat="45.40127" lon="3.36575">
        <ele>474.7</ele>
        <time>2020-09-17T09:58:28Z</time>
      </trkpt>
      <trkpt lat="45.40128" lon="3.36575">
        <ele>474.6</ele>
        <time>2020-09-17T09:58:29Z</time>
      </trkpt>
      <trkpt lat="45.40129" lon="3.36575">
        <ele>474.5</ele>
        <time>2020-09-17T09:58:30Z</time>
      </trkpt>
      <trkpt lat="45.4013" lon="3.36574">
        <ele>474.3</ele>
        <time>2020-09-17T09:58:31Z</time>
      </trkpt>
      <trkpt lat="45.40131" lon="3.36574">
        <ele>474.2</ele>
        <time>2020-09-17T09:58:32Z</time>
      </trkpt>
      <trkpt lat="45.40132" lon="3.36573">
        <ele>474</ele>
        <time>2020-09-17T09:58:33Z</time>
      </trkpt>
      <trkpt lat="45.40134" lon="3.36573">
        <ele>473.8</ele>
        <time>2020-09-17T09:58:34Z</time>
      </trkpt>
      <trkpt lat="45.40135" lon="3.36572">
        <ele>473.6</ele>
        <time>2020-09-17T09:58:35Z</time>
      </trkpt>
      <trkpt lat="45.40136" lon="3.36572">
        <ele>473.4</ele>
        <time>2020-09-17T09:58:36Z</time>
      </trkpt>
      <trkpt lat="45.40137" lon="3.36572">
        <ele>473.2</ele>
        <time>2020-09-17T09:58:37Z</time>
      </trkpt>
      <trkpt lat="45.40138" lon="3.36571">
        <ele>472.9</ele>
        <time>2020-09-17T09:58:38Z</time>
      </trkpt>
      <trkpt lat="45.40139" lon="3.3657">
        <ele>472.7</ele>
        <time>2020-09-17T09:58:39Z</time>
      </trkpt>
      <trkpt lat="45.40141" lon="3.3657">
        <ele>472.6</ele>
        <time>2020-09-17T09:58:40Z</time>
      </trkpt>
      <trkpt lat="45.40142" lon="3.36569">
        <ele>472.6</ele>
        <time>2020-09-17T09:58:41Z</time>
      </trkpt>
      <trkpt lat="45.40143" lon="3.36569">
        <ele>472.5</ele>
        <time>2020-09-17T09:58:42Z</time>
      </trkpt>
      <trkpt lat="45.40144" lon="3.36568">
        <ele>472.3</ele>
        <time>2020-09-17T09:58:43Z</time>
      </trkpt>
      <trkpt lat="45.40145" lon="3.36567">
        <ele>472.3</ele>
        <time>2020-09-17T09:58:44Z</time>
      </trkpt>
      <trkpt lat="45.40146" lon="3.36566">
        <ele>472.1</ele>
        <time>2020-09-17T09:58:45Z</time>
      </trkpt>
      <trkpt lat="45.40148" lon="3.36566">
        <ele>472</ele>
        <time>2020-09-17T09:58:46Z</time>
      </trkpt>
      <trkpt lat="45.40149" lon="3.36565">
        <ele>471.9</ele>
        <time>2020-09-17T09:58:47Z</time>
      </trkpt>
      <trkpt lat="45.4015" lon="3.36564">
        <ele>471.8</ele>
        <time>2020-09-17T09:58:48Z</time>
      </trkpt>
      <trkpt lat="45.40151" lon="3.36564">
        <ele>471.7</ele>
        <time>2020-09-17T09:58:49Z</time>
      </trkpt>
      <trkpt lat="45.40152" lon="3.36563">
        <ele>471.7</ele>
        <time>2020-09-17T09:58:50Z</time>
      </trkpt>
      <trkpt lat="45.40153" lon="3.36562">
        <ele>471.6</ele>
        <time>2020-09-17T09:58:51Z</time>
      </trkpt>
      <trkpt lat="45.40154" lon="3.36562">
        <ele>471.5</ele>
        <time>2020-09-17T09:58:52Z</time>
      </trkpt>
      <trkpt lat="45.40156" lon="3.36561">
        <ele>471.5</ele>
        <time>2020-09-17T09:58:53Z</time>
      </trkpt>
      <trkpt lat="45.40157" lon="3.36561">
        <ele>471.4</ele>
        <time>2020-09-17T09:58:54Z</time>
      </trkpt>
      <trkpt lat="45.40158" lon="3.3656">
        <ele>471.4</ele>
        <time>2020-09-17T09:58:55Z</time>
      </trkpt>
      <trkpt lat="45.4016" lon="3.3656">
        <ele>471.4</ele>
        <time>2020-09-17T09:58:56Z</time>
      </trkpt>
      <trkpt lat="45.40161" lon="3.36559">
        <ele>471.4</ele>
        <time>2020-09-17T09:58:57Z</time>
      </trkpt>
      <trkpt lat="45.40162" lon="3.36559">
        <ele>471.4</ele>
        <time>2020-09-17T09:58:58Z</time>
      </trkpt>
      <trkpt lat="45.40164" lon="3.36559">
        <ele>471.5</ele>
        <time>2020-09-17T09:58:59Z</time>
      </trkpt>
      <trkpt lat="45.40165" lon="3.36558">
        <ele>471.5</ele>
        <time>2020-09-17T09:59:00Z</time>
      </trkpt>
      <trkpt lat="45.40167" lon="3.36558">
        <ele>471.5</ele>
        <time>2020-09-17T09:59:01Z</time>
      </trkpt>
      <trkpt lat="45.40168" lon="3.36558">
        <ele>471.5</ele>
        <time>2020-09-17T09:59:02Z</time>
      </trkpt>
      <trkpt lat="45.40169" lon="3.36558">
        <ele>471.5</ele>
        <time>2020-09-17T09:59:03Z</time>
      </trkpt>
      <trkpt lat="45.4017" lon="3.36557">
        <ele>471.4</ele>
        <time>2020-09-17T09:59:04Z</time>
      </trkpt>
      <trkpt lat="45.40172" lon="3.36557">
        <ele>471.3</ele>
        <time>2020-09-17T09:59:05Z</time>
      </trkpt>
      <trkpt lat="45.40173" lon="3.36556">
        <ele>471.1</ele>
        <time>2020-09-17T09:59:06Z</time>
      </trkpt>
      <trkpt lat="45.40174" lon="3.36556">
        <ele>471</ele>
        <time>2020-09-17T09:59:07Z</time>
      </trkpt>
      <trkpt lat="45.40175" lon="3.36555">
        <ele>470.9</ele>
        <time>2020-09-17T09:59:08Z</time>
      </trkpt>
      <trkpt lat="45.40176" lon="3.36554">
        <ele>470.7</ele>
        <time>2020-09-17T09:59:09Z</time>
      </trkpt>
      <trkpt lat="45.40177" lon="3.36554">
        <ele>470.5</ele>
        <time>2020-09-17T09:59:10Z</time>
      </trkpt>
      <trkpt lat="45.40178" lon="3.36553">
        <ele>470.3</ele>
        <time>2020-09-17T09:59:11Z</time>
      </trkpt>
      <trkpt lat="45.40179" lon="3.36552">
        <ele>470.1</ele>
        <time>2020-09-17T09:59:12Z</time>
      </trkpt>
      <trkpt lat="45.40179" lon="3.36551">
        <ele>469.9</ele>
        <time>2020-09-17T09:59:13Z</time>
      </trkpt>
      <trkpt lat="45.4018" lon="3.3655">
        <ele>469.6</ele>
        <time>2020-09-17T09:59:14Z</time>
      </trkpt>
      <trkpt lat="45.40181" lon="3.36549">
        <ele>469.4</ele>
        <time>2020-09-17T09:59:15Z</time>
      </trkpt>
      <trkpt lat="45.40182" lon="3.36548">
        <ele>469.2</ele>
        <time>2020-09-17T09:59:16Z</time>
      </trkpt>
      <trkpt lat="45.40182" lon="3.36548">
        <ele>469</ele>
        <time>2020-09-17T09:59:17Z</time>
      </trkpt>
      <trkpt lat="45.40183" lon="3.36547">
        <ele>468.8</ele>
        <time>2020-09-17T09:59:18Z</time>
      </trkpt>
      <trkpt lat="45.40183" lon="3.36546">
        <ele>468.6</ele>
        <time>2020-09-17T09:59:19Z</time>
      </trkpt>
      <trkpt lat="45.40184" lon="3.36545">
        <ele>468.3</ele>
        <time>2020-09-17T09:59:20Z</time>
      </trkpt>
      <trkpt lat="45.40184" lon="3.36543">
        <ele>468</ele>
        <time>2020-09-17T09:59:21Z</time>
      </trkpt>
      <trkpt lat="45.40185" lon="3.36542">
        <ele>467.8</ele>
        <time>2020-09-17T09:59:22Z</time>
      </trkpt>
      <trkpt lat="45.40186" lon="3.36542">
        <ele>467.7</ele>
        <time>2020-09-17T09:59:23Z</time>
      </trkpt>
      <trkpt lat="45.40187" lon="3.36541">
        <ele>467.5</ele>
        <time>2020-09-17T09:59:24Z</time>
      </trkpt>
      <trkpt lat="45.40187" lon="3.3654">
        <ele>467.3</ele>
        <time>2020-09-17T09:59:25Z</time>
      </trkpt>
      <trkpt lat="45.40188" lon="3.36539">
        <ele>467.1</ele>
        <time>2020-09-17T09:59:26Z</time>
      </trkpt>
      <trkpt lat="45.40189" lon="3.36538">
        <ele>466.9</ele>
        <time>2020-09-17T09:59:27Z</time>
      </trkpt>
      <trkpt lat="45.4019" lon="3.36537">
        <ele>466.7</ele>
        <time>2020-09-17T09:59:28Z</time>
      </trkpt>
      <trkpt lat="45.40191" lon="3.36536">
        <ele>466.6</ele>
        <time>2020-09-17T09:59:29Z</time>
      </trkpt>
      <trkpt lat="45.40192" lon="3.36535">
        <ele>466.5</ele>
        <time>2020-09-17T09:59:30Z</time>
      </trkpt>
      <trkpt lat="45.40193" lon="3.36535">
        <ele>466.5</ele>
        <time>2020-09-17T09:59:31Z</time>
      </trkpt>
      <trkpt lat="45.40193" lon="3.36534">
        <ele>466.4</ele>
        <time>2020-09-17T09:59:32Z</time>
      </trkpt>
      <trkpt lat="45.40194" lon="3.36534">
        <ele>466.3</ele>
        <time>2020-09-17T09:59:33Z</time>
      </trkpt>
      <trkpt lat="45.40195" lon="3.36534">
        <ele>466.2</ele>
        <time>2020-09-17T09:59:34Z</time>
      </trkpt>
      <trkpt lat="45.40196" lon="3.36533">
        <ele>466</ele>
        <time>2020-09-17T09:59:35Z</time>
      </trkpt>
      <trkpt lat="45.40197" lon="3.36533">
        <ele>465.8</ele>
        <time>2020-09-17T09:59:36Z</time>
      </trkpt>
      <trkpt lat="45.40198" lon="3.36532">
        <ele>465.6</ele>
        <time>2020-09-17T09:59:37Z</time>
      </trkpt>
      <trkpt lat="45.40199" lon="3.36532">
        <ele>465.5</ele>
        <time>2020-09-17T09:59:38Z</time>
      </trkpt>
      <trkpt lat="45.402" lon="3.36532">
        <ele>465.4</ele>
        <time>2020-09-17T09:59:39Z</time>
      </trkpt>
      <trkpt lat="45.40201" lon="3.36532">
        <ele>465.3</ele>
        <time>2020-09-17T09:59:40Z</time>
      </trkpt>
      <trkpt lat="45.40202" lon="3.36532">
        <ele>465.2</ele>
        <time>2020-09-17T09:59:41Z</time>
      </trkpt>
      <trkpt lat="45.40203" lon="3.36532">
        <ele>465.2</ele>
        <time>2020-09-17T09:59:42Z</time>
      </trkpt>
      <trkpt lat="45.40204" lon="3.36532">
        <ele>465.1</ele>
        <time>2020-09-17T09:59:43Z</time>
      </trkpt>
      <trkpt lat="45.40205" lon="3.36533">
        <ele>465.1</ele>
        <time>2020-09-17T09:59:44Z</time>
      </trkpt>
      <trkpt lat="45.40206" lon="3.36533">
        <ele>465</ele>
        <time>2020-09-17T09:59:45Z</time>
      </trkpt>
      <trkpt lat="45.40207" lon="3.36533">
        <ele>465</ele>
        <time>2020-09-17T09:59:46Z</time>
      </trkpt>
      <trkpt lat="45.40209" lon="3.36534">
        <ele>464.9</ele>
        <time>2020-09-17T09:59:47Z</time>
      </trkpt>
      <trkpt lat="45.4021" lon="3.36535">
        <ele>464.9</ele>
        <time>2020-09-17T09:59:48Z</time>
      </trkpt>
      <trkpt lat="45.40211" lon="3.36535">
        <ele>464.9</ele>
        <time>2020-09-17T09:59:49Z</time>
      </trkpt>
      <trkpt lat="45.40213" lon="3.36536">
        <ele>464.8</ele>
        <time>2020-09-17T09:59:50Z</time>
      </trkpt>
      <trkpt lat="45.40214" lon="3.36536">
        <ele>464.8</ele>
        <time>2020-09-17T09:59:51Z</time>
      </trkpt>
      <trkpt lat="45.40214" lon="3.36536">
        <ele>464.7</ele>
        <time>2020-09-17T09:59:52Z</time>
      </trkpt>
      <trkpt lat="45.40215" lon="3.36536">
        <ele>464.7</ele>
        <time>2020-09-17T09:59:53Z</time>
      </trkpt>
      <trkpt lat="45.40215" lon="3.36537">
        <ele>464.8</ele>
        <time>2020-09-17T09:59:54Z</time>
      </trkpt>
      <trkpt lat="45.40216" lon="3.36538">
        <ele>464.8</ele>
        <time>2020-09-17T09:59:55Z</time>
      </trkpt>
      <trkpt lat="45.40216" lon="3.36539">
        <ele>464.8</ele>
        <time>2020-09-17T09:59:56Z</time>
      </trkpt>
      <trkpt lat="45.40217" lon="3.36539">
        <ele>464.9</ele>
        <time>2020-09-17T09:59:57Z</time>
      </trkpt>
      <trkpt lat="45.40217" lon="3.3654">
        <ele>464.9</ele>
        <time>2020-09-17T09:59:58Z</time>
      </trkpt>
      <trkpt lat="45.40218" lon="3.3654">
        <ele>464.9</ele>
        <time>2020-09-17T09:59:59Z</time>
      </trkpt>
      <trkpt lat="45.40219" lon="3.36541">
        <ele>464.9</ele>
        <time>2020-09-17T10:00:00Z</time>
      </trkpt>
      <trkpt lat="45.40219" lon="3.36541">
        <ele>464.8</ele>
        <time>2020-09-17T10:00:01Z</time>
      </trkpt>
      <trkpt lat="45.4022" lon="3.36542">
        <ele>464.8</ele>
        <time>2020-09-17T10:00:02Z</time>
      </trkpt>
      <trkpt lat="45.40221" lon="3.36543">
        <ele>464.8</ele>
        <time>2020-09-17T10:00:03Z</time>
      </trkpt>
      <trkpt lat="45.40222" lon="3.36544">
        <ele>464.8</ele>
        <time>2020-09-17T10:00:04Z</time>
      </trkpt>
      <trkpt lat="45.40223" lon="3.36544">
        <ele>464.7</ele>
        <time>2020-09-17T10:00:05Z</time>
      </trkpt>
      <trkpt lat="45.40224" lon="3.36545">
        <ele>464.5</ele>
        <time>2020-09-17T10:00:06Z</time>
      </trkpt>
      <trkpt lat="45.40225" lon="3.36546">
        <ele>464.4</ele>
        <time>2020-09-17T10:00:07Z</time>
      </trkpt>
      <trkpt lat="45.40226" lon="3.36546">
        <ele>464.2</ele>
        <time>2020-09-17T10:00:08Z</time>
      </trkpt>
      <trkpt lat="45.40227" lon="3.36547">
        <ele>464.1</ele>
        <time>2020-09-17T10:00:09Z</time>
      </trkpt>
      <trkpt lat="45.40227" lon="3.36547">
        <ele>464.1</ele>
        <time>2020-09-17T10:00:10Z</time>
      </trkpt>
      <trkpt lat="45.40228" lon="3.36548">
        <ele>464</ele>
        <time>2020-09-17T10:00:11Z</time>
      </trkpt>
      <trkpt lat="45.40228" lon="3.36548">
        <ele>464</ele>
        <time>2020-09-17T10:00:12Z</time>
      </trkpt>
      <trkpt lat="45.40229" lon="3.36549">
        <ele>464</ele>
        <time>2020-09-17T10:00:13Z</time>
      </trkpt>
      <trkpt lat="45.4023" lon="3.3655">
        <ele>463.9</ele>
        <time>2020-09-17T10:00:14Z</time>
      </trkpt>
      <trkpt lat="45.4023" lon="3.36551">
        <ele>463.8</ele>
        <time>2020-09-17T10:00:15Z</time>
      </trkpt>
      <trkpt lat="45.40231" lon="3.36552">
        <ele>463.8</ele>
        <time>2020-09-17T10:00:16Z</time>
      </trkpt>
      <trkpt lat="45.40232" lon="3.36553">
        <ele>463.7</ele>
        <time>2020-09-17T10:00:17Z</time>
      </trkpt>
      <trkpt lat="45.40233" lon="3.36554">
        <ele>463.6</ele>
        <time>2020-09-17T10:00:18Z</time>
      </trkpt>
      <trkpt lat="45.40234" lon="3.36554">
        <ele>463.4</ele>
        <time>2020-09-17T10:00:19Z</time>
      </trkpt>
      <trkpt lat="45.40235" lon="3.36555">
        <ele>463.2</ele>
        <time>2020-09-17T10:00:20Z</time>
      </trkpt>
      <trkpt lat="45.40236" lon="3.36555">
        <ele>463</ele>
        <time>2020-09-17T10:00:21Z</time>
      </trkpt>
      <trkpt lat="45.40237" lon="3.36556">
        <ele>462.9</ele>
        <time>2020-09-17T10:00:22Z</time>
      </trkpt>
      <trkpt lat="45.40238" lon="3.36556">
        <ele>462.8</ele>
        <time>2020-09-17T10:00:23Z</time>
      </trkpt>
      <trkpt lat="45.40239" lon="3.36557">
        <ele>462.7</ele>
        <time>2020-09-17T10:00:24Z</time>
      </trkpt>
      <trkpt lat="45.4024" lon="3.36557">
        <ele>462.5</ele>
        <time>2020-09-17T10:00:25Z</time>
      </trkpt>
      <trkpt lat="45.40241" lon="3.36558">
        <ele>462.3</ele>
        <time>2020-09-17T10:00:26Z</time>
      </trkpt>
      <trkpt lat="45.40243" lon="3.36558">
        <ele>462</ele>
        <time>2020-09-17T10:00:27Z</time>
      </trkpt>
      <trkpt lat="45.40244" lon="3.36558">
        <ele>461.8</ele>
        <time>2020-09-17T10:00:28Z</time>
      </trkpt>
      <trkpt lat="45.40246" lon="3.36559">
        <ele>461.6</ele>
        <time>2020-09-17T10:00:29Z</time>
      </trkpt>
      <trkpt lat="45.40247" lon="3.36559">
        <ele>461.3</ele>
        <time>2020-09-17T10:00:30Z</time>
      </trkpt>
      <trkpt lat="45.40248" lon="3.36559">
        <ele>460.9</ele>
        <time>2020-09-17T10:00:31Z</time>
      </trkpt>
      <trkpt lat="45.4025" lon="3.36558">
        <ele>460.6</ele>
        <time>2020-09-17T10:00:32Z</time>
      </trkpt>
      <trkpt lat="45.40251" lon="3.36558">
        <ele>460.3</ele>
        <time>2020-09-17T10:00:33Z</time>
      </trkpt>
      <trkpt lat="45.40252" lon="3.36558">
        <ele>460</ele>
        <time>2020-09-17T10:00:34Z</time>
      </trkpt>
      <trkpt lat="45.40254" lon="3.36557">
        <ele>459.8</ele>
        <time>2020-09-17T10:00:35Z</time>
      </trkpt>
      <trkpt lat="45.40255" lon="3.36557">
        <ele>459.6</ele>
        <time>2020-09-17T10:00:36Z</time>
      </trkpt>
      <trkpt lat="45.40256" lon="3.36557">
        <ele>459.4</ele>
        <time>2020-09-17T10:00:37Z</time>
      </trkpt>
      <trkpt lat="45.40258" lon="3.36557">
        <ele>459.1</ele>
        <time>2020-09-17T10:00:38Z</time>
      </trkpt>
      <trkpt lat="45.40259" lon="3.36557">
        <ele>458.9</ele>
        <time>2020-09-17T10:00:39Z</time>
      </trkpt>
      <trkpt lat="45.4026" lon="3.36557">
        <ele>458.8</ele>
        <time>2020-09-17T10:00:40Z</time>
      </trkpt>
      <trkpt lat="45.40261" lon="3.36557">
        <ele>458.6</ele>
        <time>2020-09-17T10:00:41Z</time>
      </trkpt>
      <trkpt lat="45.40262" lon="3.36556">
        <ele>458.4</ele>
        <time>2020-09-17T10:00:42Z</time>
      </trkpt>
      <trkpt lat="45.40263" lon="3.36556">
        <ele>458.2</ele>
        <time>2020-09-17T10:00:43Z</time>
      </trkpt>
      <trkpt lat="45.40264" lon="3.36556">
        <ele>458</ele>
        <time>2020-09-17T10:00:44Z</time>
      </trkpt>
      <trkpt lat="45.40265" lon="3.36555">
        <ele>457.8</ele>
        <time>2020-09-17T10:00:45Z</time>
      </trkpt>
      <trkpt lat="45.40266" lon="3.36555">
        <ele>457.6</ele>
        <time>2020-09-17T10:00:46Z</time>
      </trkpt>
      <trkpt lat="45.40267" lon="3.36555">
        <ele>457.4</ele>
        <time>2020-09-17T10:00:47Z</time>
      </trkpt>
      <trkpt lat="45.40268" lon="3.36554">
        <ele>457.3</ele>
        <time>2020-09-17T10:00:48Z</time>
      </trkpt>
      <trkpt lat="45.40269" lon="3.36554">
        <ele>457.1</ele>
        <time>2020-09-17T10:00:49Z</time>
      </trkpt>
      <trkpt lat="45.4027" lon="3.36554">
        <ele>456.9</ele>
        <time>2020-09-17T10:00:50Z</time>
      </trkpt>
      <trkpt lat="45.40271" lon="3.36554">
        <ele>456.8</ele>
        <time>2020-09-17T10:00:51Z</time>
      </trkpt>
      <trkpt lat="45.40272" lon="3.36553">
        <ele>456.6</ele>
        <time>2020-09-17T10:00:52Z</time>
      </trkpt>
      <trkpt lat="45.40273" lon="3.36553">
        <ele>456.4</ele>
        <time>2020-09-17T10:00:53Z</time>
      </trkpt>
      <trkpt lat="45.40274" lon="3.36552">
        <ele>456.2</ele>
        <time>2020-09-17T10:00:54Z</time>
      </trkpt>
      <trkpt lat="45.40275" lon="3.36552">
        <ele>456</ele>
        <time>2020-09-17T10:00:55Z</time>
      </trkpt>
      <trkpt lat="45.40276" lon="3.36551">
        <ele>455.8</ele>
        <time>2020-09-17T10:00:56Z</time>
      </trkpt>
      <trkpt lat="45.40277" lon="3.36551">
        <ele>455.6</ele>
        <time>2020-09-17T10:00:57Z</time>
      </trkpt>
      <trkpt lat="45.40278" lon="3.36551">
        <ele>455.4</ele>
        <time>2020-09-17T10:00:58Z</time>
      </trkpt>
      <trkpt lat="45.40279" lon="3.3655">
        <ele>455.2</ele>
        <time>2020-09-17T10:00:59Z</time>
      </trkpt>
      <trkpt lat="45.4028" lon="3.3655">
        <ele>455</ele>
        <time>2020-09-17T10:01:00Z</time>
      </trkpt>
      <trkpt lat="45.4028" lon="3.36549">
        <ele>454.9</ele>
        <time>2020-09-17T10:01:01Z</time>
      </trkpt>
      <trkpt lat="45.40281" lon="3.36549">
        <ele>454.8</ele>
        <time>2020-09-17T10:01:02Z</time>
      </trkpt>
      <trkpt lat="45.40281" lon="3.36548">
        <ele>454.6</ele>
        <time>2020-09-17T10:01:03Z</time>
      </trkpt>
      <trkpt lat="45.40282" lon="3.36548">
        <ele>454.5</ele>
        <time>2020-09-17T10:01:04Z</time>
      </trkpt>
      <trkpt lat="45.40283" lon="3.36548">
        <ele>454.3</ele>
        <time>2020-09-17T10:01:05Z</time>
      </trkpt>
      <trkpt lat="45.40284" lon="3.36547">
        <ele>454.1</ele>
        <time>2020-09-17T10:01:06Z</time>
      </trkpt>
      <trkpt lat="45.40285" lon="3.36547">
        <ele>453.9</ele>
        <time>2020-09-17T10:01:07Z</time>
      </trkpt>
      <trkpt lat="45.40285" lon="3.36547">
        <ele>453.8</ele>
        <time>2020-09-17T10:01:08Z</time>
      </trkpt>
      <trkpt lat="45.40286" lon="3.36547">
        <ele>453.7</ele>
        <time>2020-09-17T10:01:09Z</time>
      </trkpt>
      <trkpt lat="45.40287" lon="3.36547">
        <ele>453.6</ele>
        <time>2020-09-17T10:01:10Z</time>
      </trkpt>
      <trkpt lat="45.40288" lon="3.36547">
        <ele>453.4</ele>
        <time>2020-09-17T10:01:11Z</time>
      </trkpt>
      <trkpt lat="45.40289" lon="3.36546">
        <ele>453.2</ele>
        <time>2020-09-17T10:01:12Z</time>
      </trkpt>
      <trkpt lat="45.40289" lon="3.36546">
        <ele>453</ele>
        <time>2020-09-17T10:01:13Z</time>
      </trkpt>
      <trkpt lat="45.4029" lon="3.36546">
        <ele>452.9</ele>
        <time>2020-09-17T10:01:14Z</time>
      </trkpt>
      <trkpt lat="45.40291" lon="3.36545">
        <ele>452.7</ele>
        <time>2020-09-17T10:01:15Z</time>
      </trkpt>
      <trkpt lat="45.40292" lon="3.36545">
        <ele>452.4</ele>
        <time>2020-09-17T10:01:16Z</time>
      </trkpt>
      <trkpt lat="45.40293" lon="3.36544">
        <ele>452.2</ele>
        <time>2020-09-17T10:01:17Z</time>
      </trkpt>
      <trkpt lat="45.40294" lon="3.36544">
        <ele>451.9</ele>
        <time>2020-09-17T10:01:18Z</time>
      </trkpt>
      <trkpt lat="45.40295" lon="3.36543">
        <ele>451.6</ele>
        <time>2020-09-17T10:01:19Z</time>
      </trkpt>
      <trkpt lat="45.40296" lon="3.36542">
        <ele>451.3</ele>
        <time>2020-09-17T10:01:20Z</time>
      </trkpt>
      <trkpt lat="45.40297" lon="3.36542">
        <ele>451.1</ele>
        <time>2020-09-17T10:01:21Z</time>
      </trkpt>
      <trkpt lat="45.40298" lon="3.36542">
        <ele>450.9</ele>
        <time>2020-09-17T10:01:22Z</time>
      </trkpt>
      <trkpt lat="45.40299" lon="3.36541">
        <ele>450.5</ele>
        <time>2020-09-17T10:01:23Z</time>
      </trkpt>
      <trkpt lat="45.403" lon="3.36541">
        <ele>450.3</ele>
        <time>2020-09-17T10:01:24Z</time>
      </trkpt>
      <trkpt lat="45.40301" lon="3.3654">
        <ele>450</ele>
        <time>2020-09-17T10:01:25Z</time>
      </trkpt>
      <trkpt lat="45.40303" lon="3.3654">
        <ele>449.8</ele>
        <time>2020-09-17T10:01:26Z</time>
      </trkpt>
      <trkpt lat="45.40304" lon="3.36541">
        <ele>449.6</ele>
        <time>2020-09-17T10:01:27Z</time>
      </trkpt>
      <trkpt lat="45.40305" lon="3.36541">
        <ele>449.5</ele>
        <time>2020-09-17T10:01:28Z</time>
      </trkpt>
      <trkpt lat="45.40306" lon="3.36541">
        <ele>449.3</ele>
        <time>2020-09-17T10:01:29Z</time>
      </trkpt>
      <trkpt lat="45.40307" lon="3.36542">
        <ele>449.1</ele>
        <time>2020-09-17T10:01:30Z</time>
      </trkpt>
      <trkpt lat="45.40309" lon="3.36542">
        <ele>448.8</ele>
        <time>2020-09-17T10:01:31Z</time>
      </trkpt>
      <trkpt lat="45.4031" lon="3.36543">
        <ele>448.7</ele>
        <time>2020-09-17T10:01:32Z</time>
      </trkpt>
      <trkpt lat="45.40311" lon="3.36543">
        <ele>448.4</ele>
        <time>2020-09-17T10:01:33Z</time>
      </trkpt>
      <trkpt lat="45.40312" lon="3.36544">
        <ele>448.2</ele>
        <time>2020-09-17T10:01:34Z</time>
      </trkpt>
      <trkpt lat="45.40313" lon="3.36544">
        <ele>448</ele>
        <time>2020-09-17T10:01:35Z</time>
      </trkpt>
      <trkpt lat="45.40314" lon="3.36544">
        <ele>447.7</ele>
        <time>2020-09-17T10:01:36Z</time>
      </trkpt>
      <trkpt lat="45.40315" lon="3.36544">
        <ele>447.5</ele>
        <time>2020-09-17T10:01:37Z</time>
      </trkpt>
      <trkpt lat="45.40316" lon="3.36545">
        <ele>447.3</ele>
        <time>2020-09-17T10:01:38Z</time>
      </trkpt>
      <trkpt lat="45.40317" lon="3.36545">
        <ele>447.1</ele>
        <time>2020-09-17T10:01:39Z</time>
      </trkpt>
      <trkpt lat="45.40318" lon="3.36545">
        <ele>446.9</ele>
        <time>2020-09-17T10:01:40Z</time>
      </trkpt>
      <trkpt lat="45.40319" lon="3.36546">
        <ele>446.8</ele>
        <time>2020-09-17T10:01:41Z</time>
      </trkpt>
      <trkpt lat="45.4032" lon="3.36546">
        <ele>446.6</ele>
        <time>2020-09-17T10:01:42Z</time>
      </trkpt>
      <trkpt lat="45.40321" lon="3.36546">
        <ele>446.4</ele>
        <time>2020-09-17T10:01:43Z</time>
      </trkpt>
      <trkpt lat="45.40322" lon="3.36547">
        <ele>446.1</ele>
        <time>2020-09-17T10:01:44Z</time>
      </trkpt>
      <trkpt lat="45.40323" lon="3.36547">
        <ele>446</ele>
        <time>2020-09-17T10:01:45Z</time>
      </trkpt>
      <trkpt lat="45.40324" lon="3.36547">
        <ele>445.7</ele>
        <time>2020-09-17T10:01:46Z</time>
      </trkpt>
      <trkpt lat="45.40325" lon="3.36547">
        <ele>445.5</ele>
        <time>2020-09-17T10:01:47Z</time>
      </trkpt>
      <trkpt lat="45.40326" lon="3.36548">
        <ele>445.4</ele>
        <time>2020-09-17T10:01:48Z</time>
      </trkpt>
      <trkpt lat="45.40327" lon="3.36548">
        <ele>445.3</ele>
        <time>2020-09-17T10:01:49Z</time>
      </trkpt>
      <trkpt lat="45.40328" lon="3.36549">
        <ele>445.2</ele>
        <time>2020-09-17T10:01:50Z</time>
      </trkpt>
      <trkpt lat="45.40328" lon="3.36549">
        <ele>445.1</ele>
        <time>2020-09-17T10:01:51Z</time>
      </trkpt>
      <trkpt lat="45.40329" lon="3.36549">
        <ele>444.9</ele>
        <time>2020-09-17T10:01:52Z</time>
      </trkpt>
      <trkpt lat="45.4033" lon="3.3655">
        <ele>444.7</ele>
        <time>2020-09-17T10:01:53Z</time>
      </trkpt>
      <trkpt lat="45.40331" lon="3.3655">
        <ele>444.6</ele>
        <time>2020-09-17T10:01:54Z</time>
      </trkpt>
      <trkpt lat="45.40331" lon="3.3655">
        <ele>444.6</ele>
        <time>2020-09-17T10:01:55Z</time>
      </trkpt>
      <trkpt lat="45.40332" lon="3.36551">
        <ele>444.6</ele>
        <time>2020-09-17T10:01:56Z</time>
      </trkpt>
      <trkpt lat="45.40333" lon="3.36552">
        <ele>444.5</ele>
        <time>2020-09-17T10:01:57Z</time>
      </trkpt>
      <trkpt lat="45.40334" lon="3.36553">
        <ele>444.4</ele>
        <time>2020-09-17T10:01:58Z</time>
      </trkpt>
      <trkpt lat="45.40334" lon="3.36554">
        <ele>444.4</ele>
        <time>2020-09-17T10:01:59Z</time>
      </trkpt>
      <trkpt lat="45.40335" lon="3.36555">
        <ele>444.5</ele>
        <time>2020-09-17T10:02:00Z</time>
      </trkpt>
      <trkpt lat="45.40336" lon="3.36556">
        <ele>444.4</ele>
        <time>2020-09-17T10:02:01Z</time>
      </trkpt>
      <trkpt lat="45.40337" lon="3.36556">
        <ele>444.4</ele>
        <time>2020-09-17T10:02:02Z</time>
      </trkpt>
      <trkpt lat="45.40338" lon="3.36557">
        <ele>444.2</ele>
        <time>2020-09-17T10:02:03Z</time>
      </trkpt>
      <trkpt lat="45.40339" lon="3.36557">
        <ele>444.1</ele>
        <time>2020-09-17T10:02:04Z</time>
      </trkpt>
      <trkpt lat="45.4034" lon="3.36557">
        <ele>443.9</ele>
        <time>2020-09-17T10:02:05Z</time>
      </trkpt>
      <trkpt lat="45.40341" lon="3.36558">
        <ele>443.8</ele>
        <time>2020-09-17T10:02:06Z</time>
      </trkpt>
      <trkpt lat="45.40342" lon="3.36558">
        <ele>443.7</ele>
        <time>2020-09-17T10:02:07Z</time>
      </trkpt>
      <trkpt lat="45.40342" lon="3.36558">
        <ele>443.6</ele>
        <time>2020-09-17T10:02:08Z</time>
      </trkpt>
      <trkpt lat="45.40343" lon="3.36559">
        <ele>443.5</ele>
        <time>2020-09-17T10:02:09Z</time>
      </trkpt>
      <trkpt lat="45.40344" lon="3.36559">
        <ele>443.4</ele>
        <time>2020-09-17T10:02:10Z</time>
      </trkpt>
      <trkpt lat="45.40345" lon="3.36559">
        <ele>443.3</ele>
        <time>2020-09-17T10:02:11Z</time>
      </trkpt>
      <trkpt lat="45.40346" lon="3.36559">
        <ele>443.1</ele>
        <time>2020-09-17T10:02:12Z</time>
      </trkpt>
      <trkpt lat="45.40347" lon="3.36559">
        <ele>442.9</ele>
        <time>2020-09-17T10:02:13Z</time>
      </trkpt>
      <trkpt lat="45.40348" lon="3.3656">
        <ele>442.8</ele>
        <time>2020-09-17T10:02:14Z</time>
      </trkpt>
      <trkpt lat="45.40349" lon="3.3656">
        <ele>442.6</ele>
        <time>2020-09-17T10:02:15Z</time>
      </trkpt>
      <trkpt lat="45.4035" lon="3.3656">
        <ele>442.5</ele>
        <time>2020-09-17T10:02:16Z</time>
      </trkpt>
      <trkpt lat="45.40351" lon="3.36561">
        <ele>442.4</ele>
        <time>2020-09-17T10:02:17Z</time>
      </trkpt>
      <trkpt lat="45.40352" lon="3.36561">
        <ele>442.3</ele>
        <time>2020-09-17T10:02:18Z</time>
      </trkpt>
      <trkpt lat="45.40353" lon="3.36561">
        <ele>442.1</ele>
        <time>2020-09-17T10:02:19Z</time>
      </trkpt>
      <trkpt lat="45.40354" lon="3.36561">
        <ele>441.9</ele>
        <time>2020-09-17T10:02:20Z</time>
      </trkpt>
      <trkpt lat="45.40355" lon="3.36562">
        <ele>441.8</ele>
        <time>2020-09-17T10:02:21Z</time>
      </trkpt>
      <trkpt lat="45.40356" lon="3.36562">
        <ele>441.7</ele>
        <time>2020-09-17T10:02:22Z</time>
      </trkpt>
      <trkpt lat="45.40357" lon="3.36562">
        <ele>441.6</ele>
        <time>2020-09-17T10:02:23Z</time>
      </trkpt>
      <trkpt lat="45.40358" lon="3.36563">
        <ele>441.5</ele>
        <time>2020-09-17T10:02:24Z</time>
      </trkpt>
      <trkpt lat="45.40359" lon="3.36563">
        <ele>441.3</ele>
        <time>2020-09-17T10:02:25Z</time>
      </trkpt>
      <trkpt lat="45.4036" lon="3.36563">
        <ele>441.1</ele>
        <time>2020-09-17T10:02:26Z</time>
      </trkpt>
      <trkpt lat="45.40361" lon="3.36563">
        <ele>440.9</ele>
        <time>2020-09-17T10:02:27Z</time>
      </trkpt>
      <trkpt lat="45.40362" lon="3.36563">
        <ele>440.8</ele>
        <time>2020-09-17T10:02:28Z</time>
      </trkpt>
      <trkpt lat="45.40363" lon="3.36563">
        <ele>440.6</ele>
        <time>2020-09-17T10:02:29Z</time>
      </trkpt>
      <trkpt lat="45.40364" lon="3.36563">
        <ele>440.5</ele>
        <time>2020-09-17T10:02:30Z</time>
      </trkpt>
      <trkpt lat="45.40365" lon="3.36563">
        <ele>440.4</ele>
        <time>2020-09-17T10:02:31Z</time>
      </trkpt>
      <trkpt lat="45.40366" lon="3.36563">
        <ele>440.3</ele>
        <time>2020-09-17T10:02:32Z</time>
      </trkpt>
      <trkpt lat="45.40368" lon="3.36563">
        <ele>440.1</ele>
        <time>2020-09-17T10:02:33Z</time>
      </trkpt>
      <trkpt lat="45.40369" lon="3.36563">
        <ele>440</ele>
        <time>2020-09-17T10:02:34Z</time>
      </trkpt>
      <trkpt lat="45.4037" lon="3.36563">
        <ele>439.9</ele>
        <time>2020-09-17T10:02:35Z</time>
      </trkpt>
      <trkpt lat="45.40371" lon="3.36564">
        <ele>439.8</ele>
        <time>2020-09-17T10:02:36Z</time>
      </trkpt>
      <trkpt lat="45.40372" lon="3.36564">
        <ele>439.7</ele>
        <time>2020-09-17T10:02:37Z</time>
      </trkpt>
      <trkpt lat="45.40373" lon="3.36564">
        <ele>439.5</ele>
        <time>2020-09-17T10:02:38Z</time>
      </trkpt>
      <trkpt lat="45.40374" lon="3.36564">
        <ele>439.4</ele>
        <time>2020-09-17T10:02:39Z</time>
      </trkpt>
      <trkpt lat="45.40376" lon="3.36565">
        <ele>439.3</ele>
        <time>2020-09-17T10:02:40Z</time>
      </trkpt>
      <trkpt lat="45.40377" lon="3.36565">
        <ele>439.3</ele>
        <time>2020-09-17T10:02:41Z</time>
      </trkpt>
      <trkpt lat="45.40378" lon="3.36566">
        <ele>439.2</ele>
        <time>2020-09-17T10:02:42Z</time>
      </trkpt>
      <trkpt lat="45.40379" lon="3.36566">
        <ele>439.1</ele>
        <time>2020-09-17T10:02:43Z</time>
      </trkpt>
      <trkpt lat="45.40381" lon="3.36566">
        <ele>439</ele>
        <time>2020-09-17T10:02:44Z</time>
      </trkpt>
      <trkpt lat="45.40382" lon="3.36566">
        <ele>438.9</ele>
        <time>2020-09-17T10:02:45Z</time>
      </trkpt>
      <trkpt lat="45.40383" lon="3.36567">
        <ele>438.8</ele>
        <time>2020-09-17T10:02:46Z</time>
      </trkpt>
      <trkpt lat="45.40384" lon="3.36567">
        <ele>438.7</ele>
        <time>2020-09-17T10:02:47Z</time>
      </trkpt>
      <trkpt lat="45.40386" lon="3.36567">
        <ele>438.6</ele>
        <time>2020-09-17T10:02:48Z</time>
      </trkpt>
      <trkpt lat="45.40387" lon="3.36568">
        <ele>438.5</ele>
        <time>2020-09-17T10:02:49Z</time>
      </trkpt>
      <trkpt lat="45.40388" lon="3.36568">
        <ele>438.4</ele>
        <time>2020-09-17T10:02:50Z</time>
      </trkpt>
      <trkpt lat="45.40389" lon="3.36568">
        <ele>438.3</ele>
        <time>2020-09-17T10:02:51Z</time>
      </trkpt>
      <trkpt lat="45.4039" lon="3.36569">
        <ele>438.3</ele>
        <time>2020-09-17T10:02:52Z</time>
      </trkpt>
      <trkpt lat="45.40391" lon="3.3657">
        <ele>438.3</ele>
        <time>2020-09-17T10:02:53Z</time>
      </trkpt>
      <trkpt lat="45.40392" lon="3.3657">
        <ele>438.3</ele>
        <time>2020-09-17T10:02:54Z</time>
      </trkpt>
      <trkpt lat="45.40394" lon="3.36571">
        <ele>438.4</ele>
        <time>2020-09-17T10:02:55Z</time>
      </trkpt>
      <trkpt lat="45.40395" lon="3.36571">
        <ele>438.4</ele>
        <time>2020-09-17T10:02:56Z</time>
      </trkpt>
      <trkpt lat="45.40396" lon="3.36572">
        <ele>438.4</ele>
        <time>2020-09-17T10:02:57Z</time>
      </trkpt>
      <trkpt lat="45.40397" lon="3.36572">
        <ele>438.3</ele>
        <time>2020-09-17T10:02:58Z</time>
      </trkpt>
      <trkpt lat="45.40398" lon="3.36573">
        <ele>438.3</ele>
        <time>2020-09-17T10:02:59Z</time>
      </trkpt>
      <trkpt lat="45.40399" lon="3.36573">
        <ele>438.3</ele>
        <time>2020-09-17T10:03:00Z</time>
      </trkpt>
      <trkpt lat="45.404" lon="3.36574">
        <ele>438.3</ele>
        <time>2020-09-17T10:03:01Z</time>
      </trkpt>
      <trkpt lat="45.40401" lon="3.36574">
        <ele>438.3</ele>
        <time>2020-09-17T10:03:02Z</time>
      </trkpt>
      <trkpt lat="45.40402" lon="3.36575">
        <ele>438.3</ele>
        <time>2020-09-17T10:03:03Z</time>
      </trkpt>
      <trkpt lat="45.40403" lon="3.36575">
        <ele>438.3</ele>
        <time>2020-09-17T10:03:04Z</time>
      </trkpt>
      <trkpt lat="45.40404" lon="3.36576">
        <ele>438.3</ele>
        <time>2020-09-17T10:03:05Z</time>
      </trkpt>
      <trkpt lat="45.40405" lon="3.36576">
        <ele>438.2</ele>
        <time>2020-09-17T10:03:06Z</time>
      </trkpt>
      <trkpt lat="45.40407" lon="3.36576">
        <ele>438.2</ele>
        <time>2020-09-17T10:03:07Z</time>
      </trkpt>
      <trkpt lat="45.40408" lon="3.36577">
        <ele>438.1</ele>
        <time>2020-09-17T10:03:08Z</time>
      </trkpt>
      <trkpt lat="45.40409" lon="3.36577">
        <ele>438.1</ele>
        <time>2020-09-17T10:03:09Z</time>
      </trkpt>
      <trkpt lat="45.4041" lon="3.36578">
        <ele>438</ele>
        <time>2020-09-17T10:03:10Z</time>
      </trkpt>
      <trkpt lat="45.40411" lon="3.36578">
        <ele>438</ele>
        <time>2020-09-17T10:03:11Z</time>
      </trkpt>
      <trkpt lat="45.40412" lon="3.36578">
        <ele>437.9</ele>
        <time>2020-09-17T10:03:12Z</time>
      </trkpt>
      <trkpt lat="45.40413" lon="3.36578">
        <ele>437.9</ele>
        <time>2020-09-17T10:03:13Z</time>
      </trkpt>
      <trkpt lat="45.40413" lon="3.36579">
        <ele>437.8</ele>
        <time>2020-09-17T10:03:14Z</time>
      </trkpt>
      <trkpt lat="45.40414" lon="3.36579">
        <ele>437.7</ele>
        <time>2020-09-17T10:03:15Z</time>
      </trkpt>
      <trkpt lat="45.40416" lon="3.36579">
        <ele>437.6</ele>
        <time>2020-09-17T10:03:16Z</time>
      </trkpt>
      <trkpt lat="45.40417" lon="3.36579">
        <ele>437.5</ele>
        <time>2020-09-17T10:03:17Z</time>
      </trkpt>
      <trkpt lat="45.40418" lon="3.3658">
        <ele>437.5</ele>
        <time>2020-09-17T10:03:18Z</time>
      </trkpt>
      <trkpt lat="45.40419" lon="3.3658">
        <ele>437.4</ele>
        <time>2020-09-17T10:03:19Z</time>
      </trkpt>
      <trkpt lat="45.4042" lon="3.36581">
        <ele>437.3</ele>
        <time>2020-09-17T10:03:20Z</time>
      </trkpt>
      <trkpt lat="45.40421" lon="3.36581">
        <ele>437.2</ele>
        <time>2020-09-17T10:03:21Z</time>
      </trkpt>
      <trkpt lat="45.40422" lon="3.36581">
        <ele>437.1</ele>
        <time>2020-09-17T10:03:22Z</time>
      </trkpt>
      <trkpt lat="45.40423" lon="3.36581">
        <ele>436.9</ele>
        <time>2020-09-17T10:03:23Z</time>
      </trkpt>
      <trkpt lat="45.40424" lon="3.36581">
        <ele>436.8</ele>
        <time>2020-09-17T10:03:24Z</time>
      </trkpt>
      <trkpt lat="45.40425" lon="3.36582">
        <ele>436.7</ele>
        <time>2020-09-17T10:03:25Z</time>
      </trkpt>
      <trkpt lat="45.40426" lon="3.36582">
        <ele>436.6</ele>
        <time>2020-09-17T10:03:26Z</time>
      </trkpt>
      <trkpt lat="45.40427" lon="3.36582">
        <ele>436.5</ele>
        <time>2020-09-17T10:03:27Z</time>
      </trkpt>
      <trkpt lat="45.40428" lon="3.36583">
        <ele>436.3</ele>
        <time>2020-09-17T10:03:28Z</time>
      </trkpt>
      <trkpt lat="45.4043" lon="3.36583">
        <ele>436.1</ele>
        <time>2020-09-17T10:03:29Z</time>
      </trkpt>
      <trkpt lat="45.40431" lon="3.36583">
        <ele>435.9</ele>
        <time>2020-09-17T10:03:30Z</time>
      </trkpt>
      <trkpt lat="45.40432" lon="3.36584">
        <ele>435.8</ele>
        <time>2020-09-17T10:03:31Z</time>
      </trkpt>
      <trkpt lat="45.40434" lon="3.36584">
        <ele>435.6</ele>
        <time>2020-09-17T10:03:32Z</time>
      </trkpt>
      <trkpt lat="45.40435" lon="3.36585">
        <ele>435.5</ele>
        <time>2020-09-17T10:03:33Z</time>
      </trkpt>
      <trkpt lat="45.40437" lon="3.36586">
        <ele>435.3</ele>
        <time>2020-09-17T10:03:34Z</time>
      </trkpt>
      <trkpt lat="45.40438" lon="3.36586">
        <ele>435.1</ele>
        <time>2020-09-17T10:03:35Z</time>
      </trkpt>
      <trkpt lat="45.40439" lon="3.36587">
        <ele>435</ele>
        <time>2020-09-17T10:03:36Z</time>
      </trkpt>
      <trkpt lat="45.40441" lon="3.36587">
        <ele>434.8</ele>
        <time>2020-09-17T10:03:37Z</time>
      </trkpt>
      <trkpt lat="45.40442" lon="3.36588">
        <ele>434.7</ele>
        <time>2020-09-17T10:03:38Z</time>
      </trkpt>
      <trkpt lat="45.40442" lon="3.36588">
        <ele>434.6</ele>
        <time>2020-09-17T10:03:39Z</time>
      </trkpt>
      <trkpt lat="45.40443" lon="3.36589">
        <ele>434.4</ele>
        <time>2020-09-17T10:03:40Z</time>
      </trkpt>
      <trkpt lat="45.40444" lon="3.36589">
        <ele>434.3</ele>
        <time>2020-09-17T10:03:41Z</time>
      </trkpt>
      <trkpt lat="45.40445" lon="3.3659">
        <ele>434.2</ele>
        <time>2020-09-17T10:03:42Z</time>
      </trkpt>
      <trkpt lat="45.40446" lon="3.3659">
        <ele>434.1</ele>
        <time>2020-09-17T10:03:43Z</time>
      </trkpt>
      <trkpt lat="45.40447" lon="3.3659">
        <ele>434</ele>
        <time>2020-09-17T10:03:44Z</time>
      </trkpt>
      <trkpt lat="45.40448" lon="3.3659">
        <ele>434</ele>
        <time>2020-09-17T10:03:45Z</time>
      </trkpt>
      <trkpt lat="45.40449" lon="3.3659">
        <ele>433.9</ele>
        <time>2020-09-17T10:03:46Z</time>
      </trkpt>
      <trkpt lat="45.4045" lon="3.3659">
        <ele>433.9</ele>
        <time>2020-09-17T10:03:47Z</time>
      </trkpt>
      <trkpt lat="45.40452" lon="3.3659">
        <ele>433.8</ele>
        <time>2020-09-17T10:03:48Z</time>
      </trkpt>
      <trkpt lat="45.40453" lon="3.3659">
        <ele>433.7</ele>
        <time>2020-09-17T10:03:49Z</time>
      </trkpt>
      <trkpt lat="45.40454" lon="3.3659">
        <ele>433.7</ele>
        <time>2020-09-17T10:03:50Z</time>
      </trkpt>
      <trkpt lat="45.40455" lon="3.3659">
        <ele>433.6</ele>
        <time>2020-09-17T10:03:51Z</time>
      </trkpt>
      <trkpt lat="45.40456" lon="3.3659">
        <ele>433.5</ele>
        <time>2020-09-17T10:03:52Z</time>
      </trkpt>
      <trkpt lat="45.40457" lon="3.36589">
        <ele>433.3</ele>
        <time>2020-09-17T10:03:53Z</time>
      </trkpt>
      <trkpt lat="45.40458" lon="3.36589">
        <ele>433.2</ele>
        <time>2020-09-17T10:03:54Z</time>
      </trkpt>
      <trkpt lat="45.40459" lon="3.36589">
        <ele>433.2</ele>
        <time>2020-09-17T10:03:55Z</time>
      </trkpt>
      <trkpt lat="45.4046" lon="3.36589">
        <ele>433.1</ele>
        <time>2020-09-17T10:03:56Z</time>
      </trkpt>
      <trkpt lat="45.40462" lon="3.36589">
        <ele>433</ele>
        <time>2020-09-17T10:03:57Z</time>
      </trkpt>
      <trkpt lat="45.40463" lon="3.36589">
        <ele>432.8</ele>
        <time>2020-09-17T10:03:58Z</time>
      </trkpt>
      <trkpt lat="45.40464" lon="3.36588">
        <ele>432.6</ele>
        <time>2020-09-17T10:03:59Z</time>
      </trkpt>
      <trkpt lat="45.40465" lon="3.36587">
        <ele>432.3</ele>
        <time>2020-09-17T10:04:00Z</time>
      </trkpt>
      <trkpt lat="45.40467" lon="3.36586">
        <ele>432</ele>
        <time>2020-09-17T10:04:01Z</time>
      </trkpt>
      <trkpt lat="45.40468" lon="3.36584">
        <ele>431.7</ele>
        <time>2020-09-17T10:04:02Z</time>
      </trkpt>
      <trkpt lat="45.40468" lon="3.36583">
        <ele>431.4</ele>
        <time>2020-09-17T10:04:03Z</time>
      </trkpt>
      <trkpt lat="45.40469" lon="3.36582">
        <ele>431.4</ele>
        <time>2020-09-17T10:04:04Z</time>
      </trkpt>
      <trkpt lat="45.4047" lon="3.36581">
        <ele>431.4</ele>
        <time>2020-09-17T10:04:05Z</time>
      </trkpt>
      <trkpt lat="45.40471" lon="3.36579">
        <ele>431.4</ele>
        <time>2020-09-17T10:04:06Z</time>
      </trkpt>
      <trkpt lat="45.40472" lon="3.36577">
        <ele>431.4</ele>
        <time>2020-09-17T10:04:07Z</time>
      </trkpt>
      <trkpt lat="45.40473" lon="3.36576">
        <ele>431.6</ele>
        <time>2020-09-17T10:04:08Z</time>
      </trkpt>
      <trkpt lat="45.40474" lon="3.36575">
        <ele>431.7</ele>
        <time>2020-09-17T10:04:09Z</time>
      </trkpt>
      <trkpt lat="45.40474" lon="3.36573">
        <ele>431.8</ele>
        <time>2020-09-17T10:04:10Z</time>
      </trkpt>
      <trkpt lat="45.40475" lon="3.36572">
        <ele>431.9</ele>
        <time>2020-09-17T10:04:11Z</time>
      </trkpt>
      <trkpt lat="45.40475" lon="3.3657">
        <ele>432</ele>
        <time>2020-09-17T10:04:12Z</time>
      </trkpt>
      <trkpt lat="45.40476" lon="3.36568">
        <ele>432.1</ele>
        <time>2020-09-17T10:04:13Z</time>
      </trkpt>
      <trkpt lat="45.40476" lon="3.36566">
        <ele>432.1</ele>
        <time>2020-09-17T10:04:14Z</time>
      </trkpt>
      <trkpt lat="45.40477" lon="3.36564">
        <ele>432.2</ele>
        <time>2020-09-17T10:04:15Z</time>
      </trkpt>
      <trkpt lat="45.40477" lon="3.36563">
        <ele>432.3</ele>
        <time>2020-09-17T10:04:16Z</time>
      </trkpt>
      <trkpt lat="45.40477" lon="3.36561">
        <ele>432.3</ele>
        <time>2020-09-17T10:04:17Z</time>
      </trkpt>
      <trkpt lat="45.40477" lon="3.36559">
        <ele>432.4</ele>
        <time>2020-09-17T10:04:18Z</time>
      </trkpt>
      <trkpt lat="45.40477" lon="3.36557">
        <ele>432.4</ele>
        <time>2020-09-17T10:04:19Z</time>
      </trkpt>
      <trkpt lat="45.40477" lon="3.36555">
        <ele>432.4</ele>
        <time>2020-09-17T10:04:20Z</time>
      </trkpt>
      <trkpt lat="45.40477" lon="3.36553">
        <ele>432.1</ele>
        <time>2020-09-17T10:04:21Z</time>
      </trkpt>
      <trkpt lat="45.40477" lon="3.36552">
        <ele>431.9</ele>
        <time>2020-09-17T10:04:22Z</time>
      </trkpt>
      <trkpt lat="45.40477" lon="3.3655">
        <ele>431.6</ele>
        <time>2020-09-17T10:04:23Z</time>
      </trkpt>
      <trkpt lat="45.40477" lon="3.36549">
        <ele>431.4</ele>
        <time>2020-09-17T10:04:24Z</time>
      </trkpt>
      <trkpt lat="45.40477" lon="3.36548">
        <ele>431.3</ele>
        <time>2020-09-17T10:04:25Z</time>
      </trkpt>
      <trkpt lat="45.40477" lon="3.36547">
        <ele>431.1</ele>
        <time>2020-09-17T10:04:26Z</time>
      </trkpt>
      <trkpt lat="45.40478" lon="3.36545">
        <ele>430.8</ele>
        <time>2020-09-17T10:04:27Z</time>
      </trkpt>
      <trkpt lat="45.40478" lon="3.36544">
        <ele>430.6</ele>
        <time>2020-09-17T10:04:28Z</time>
      </trkpt>
      <trkpt lat="45.40478" lon="3.36543">
        <ele>430.4</ele>
        <time>2020-09-17T10:04:29Z</time>
      </trkpt>
      <trkpt lat="45.40479" lon="3.36542">
        <ele>430.2</ele>
        <time>2020-09-17T10:04:30Z</time>
      </trkpt>
      <trkpt lat="45.4048" lon="3.36541">
        <ele>430.1</ele>
        <time>2020-09-17T10:04:31Z</time>
      </trkpt>
      <trkpt lat="45.4048" lon="3.3654">
        <ele>429.9</ele>
        <time>2020-09-17T10:04:32Z</time>
      </trkpt>
      <trkpt lat="45.4048" lon="3.36539">
        <ele>429.8</ele>
        <time>2020-09-17T10:04:33Z</time>
      </trkpt>
      <trkpt lat="45.40481" lon="3.36538">
        <ele>429.7</ele>
        <time>2020-09-17T10:04:34Z</time>
      </trkpt>
      <trkpt lat="45.40481" lon="3.36538">
        <ele>429.6</ele>
        <time>2020-09-17T10:04:35Z</time>
      </trkpt>
      <trkpt lat="45.40482" lon="3.36537">
        <ele>429.5</ele>
        <time>2020-09-17T10:04:36Z</time>
      </trkpt>
      <trkpt lat="45.40483" lon="3.36536">
        <ele>429.4</ele>
        <time>2020-09-17T10:04:37Z</time>
      </trkpt>
      <trkpt lat="45.40483" lon="3.36535">
        <ele>429.3</ele>
        <time>2020-09-17T10:04:38Z</time>
      </trkpt>
      <trkpt lat="45.40484" lon="3.36535">
        <ele>429.2</ele>
        <time>2020-09-17T10:04:39Z</time>
      </trkpt>
      <trkpt lat="45.40485" lon="3.36534">
        <ele>429.1</ele>
        <time>2020-09-17T10:04:40Z</time>
      </trkpt>
      <trkpt lat="45.40486" lon="3.36532">
        <ele>429</ele>
        <time>2020-09-17T10:04:41Z</time>
      </trkpt>
      <trkpt lat="45.40486" lon="3.36531">
        <ele>428.9</ele>
        <time>2020-09-17T10:04:42Z</time>
      </trkpt>
      <trkpt lat="45.40487" lon="3.3653">
        <ele>428.8</ele>
        <time>2020-09-17T10:04:43Z</time>
      </trkpt>
      <trkpt lat="45.40487" lon="3.36529">
        <ele>428.7</ele>
        <time>2020-09-17T10:04:44Z</time>
      </trkpt>
      <trkpt lat="45.40488" lon="3.36528">
        <ele>428.6</ele>
        <time>2020-09-17T10:04:45Z</time>
      </trkpt>
      <trkpt lat="45.40488" lon="3.36526">
        <ele>428.6</ele>
        <time>2020-09-17T10:04:46Z</time>
      </trkpt>
      <trkpt lat="45.40489" lon="3.36525">
        <ele>428.6</ele>
        <time>2020-09-17T10:04:47Z</time>
      </trkpt>
      <trkpt lat="45.4049" lon="3.36524">
        <ele>428.7</ele>
        <time>2020-09-17T10:04:48Z</time>
      </trkpt>
      <trkpt lat="45.4049" lon="3.36523">
        <ele>428.7</ele>
        <time>2020-09-17T10:04:49Z</time>
      </trkpt>
      <trkpt lat="45.40491" lon="3.36522">
        <ele>428.7</ele>
        <time>2020-09-17T10:04:50Z</time>
      </trkpt>
      <trkpt lat="45.40492" lon="3.36521">
        <ele>428.8</ele>
        <time>2020-09-17T10:04:51Z</time>
      </trkpt>
      <trkpt lat="45.40493" lon="3.3652">
        <ele>428.8</ele>
        <time>2020-09-17T10:04:52Z</time>
      </trkpt>
      <trkpt lat="45.40494" lon="3.36519">
        <ele>428.8</ele>
        <time>2020-09-17T10:04:53Z</time>
      </trkpt>
      <trkpt lat="45.40494" lon="3.36518">
        <ele>428.9</ele>
        <time>2020-09-17T10:04:54Z</time>
      </trkpt>
      <trkpt lat="45.40495" lon="3.36518">
        <ele>428.9</ele>
        <time>2020-09-17T10:04:55Z</time>
      </trkpt>
      <trkpt lat="45.40495" lon="3.36517">
        <ele>428.9</ele>
        <time>2020-09-17T10:04:56Z</time>
      </trkpt>
      <trkpt lat="45.40495" lon="3.36516">
        <ele>428.9</ele>
        <time>2020-09-17T10:04:57Z</time>
      </trkpt>
      <trkpt lat="45.40496" lon="3.36515">
        <ele>428.9</ele>
        <time>2020-09-17T10:04:58Z</time>
      </trkpt>
      <trkpt lat="45.40496" lon="3.36514">
        <ele>428.9</ele>
        <time>2020-09-17T10:04:59Z</time>
      </trkpt>
      <trkpt lat="45.40496" lon="3.36514">
        <ele>428.9</ele>
        <time>2020-09-17T10:05:00Z</time>
      </trkpt>
      <trkpt lat="45.40497" lon="3.36513">
        <ele>428.9</ele>
        <time>2020-09-17T10:05:01Z</time>
      </trkpt>
      <trkpt lat="45.40496" lon="3.36513">
        <ele>428.9</ele>
        <time>2020-09-17T10:05:02Z</time>
      </trkpt>
      <trkpt lat="45.40496" lon="3.36513">
        <ele>428.9</ele>
        <time>2020-09-17T10:05:03Z</time>
      </trkpt>
      <trkpt lat="45.40497" lon="3.36513">
        <ele>428.9</ele>
        <time>2020-09-17T10:05:04Z</time>
      </trkpt>
      <trkpt lat="45.40497" lon="3.36512">
        <ele>428.9</ele>
        <time>2020-09-17T10:05:05Z</time>
      </trkpt>
      <trkpt lat="45.40497" lon="3.36512">
        <ele>428.9</ele>
        <time>2020-09-17T10:05:06Z</time>
      </trkpt>
      <trkpt lat="45.40497" lon="3.36512">
        <ele>428.9</ele>
        <time>2020-09-17T10:05:07Z</time>
      </trkpt>
      <trkpt lat="45.40497" lon="3.36512">
        <ele>428.9</ele>
        <time>2020-09-17T10:05:08Z</time>
      </trkpt>
      <trkpt lat="45.40497" lon="3.36512">
        <ele>429</ele>
        <time>2020-09-17T10:05:09Z</time>
      </trkpt>
      <trkpt lat="45.40497" lon="3.36511">
        <ele>429</ele>
        <time>2020-09-17T10:05:10Z</time>
      </trkpt>
      <trkpt lat="45.40497" lon="3.36511">
        <ele>429</ele>
        <time>2020-09-17T10:05:11Z</time>
      </trkpt>
      <trkpt lat="45.40497" lon="3.36511">
        <ele>429</ele>
        <time>2020-09-17T10:05:12Z</time>
      </trkpt>
      <trkpt lat="45.40497" lon="3.36511">
        <ele>429</ele>
        <time>2020-09-17T10:05:13Z</time>
      </trkpt>
      <trkpt lat="45.40497" lon="3.36511">
        <ele>429</ele>
        <time>2020-09-17T10:05:14Z</time>
      </trkpt>
      <trkpt lat="45.40497" lon="3.36511">
        <ele>429</ele>
        <time>2020-09-17T10:05:15Z</time>
      </trkpt>
      <trkpt lat="45.40497" lon="3.36511">
        <ele>429</ele>
        <time>2020-09-17T10:05:16Z</time>
      </trkpt>
      <trkpt lat="45.40497" lon="3.36511">
        <ele>429</ele>
        <time>2020-09-17T10:05:17Z</time>
      </trkpt>
      <trkpt lat="45.40497" lon="3.36511">
        <ele>429</ele>
        <time>2020-09-17T10:05:18Z</time>
      </trkpt>
      <trkpt lat="45.40497" lon="3.36511">
        <ele>429</ele>
        <time>2020-09-17T10:05:19Z</time>
      </trkpt>
      <trkpt lat="45.40497" lon="3.36511">
        <ele>429</ele>
        <time>2020-09-17T10:05:20Z</time>
      </trkpt>
      <trkpt lat="45.40497" lon="3.36511">
        <ele>429</ele>
        <time>2020-09-17T10:05:21Z</time>
      </trkpt>
      <trkpt lat="45.40497" lon="3.36511">
        <ele>429</ele>
        <time>2020-09-17T10:05:22Z</time>
      </trkpt>
      <trkpt lat="45.40498" lon="3.36511">
        <ele>429</ele>
        <time>2020-09-17T10:05:23Z</time>
      </trkpt>
      <trkpt lat="45.40498" lon="3.36512">
        <ele>429</ele>
        <time>2020-09-17T10:05:24Z</time>
      </trkpt>
      <trkpt lat="45.40499" lon="3.36512">
        <ele>429</ele>
        <time>2020-09-17T10:05:25Z</time>
      </trkpt>
      <trkpt lat="45.405" lon="3.36513">
        <ele>429</ele>
        <time>2020-09-17T10:05:26Z</time>
      </trkpt>
      <trkpt lat="45.40501" lon="3.36514">
        <ele>429</ele>
        <time>2020-09-17T10:05:27Z</time>
      </trkpt>
      <trkpt lat="45.40502" lon="3.36514">
        <ele>429.1</ele>
        <time>2020-09-17T10:05:28Z</time>
      </trkpt>
      <trkpt lat="45.40502" lon="3.36515">
        <ele>429.1</ele>
        <time>2020-09-17T10:05:29Z</time>
      </trkpt>
      <trkpt lat="45.40503" lon="3.36516">
        <ele>429.1</ele>
        <time>2020-09-17T10:05:30Z</time>
      </trkpt>
      <trkpt lat="45.40504" lon="3.36516">
        <ele>429.2</ele>
        <time>2020-09-17T10:05:31Z</time>
      </trkpt>
      <trkpt lat="45.40505" lon="3.36517">
        <ele>429.2</ele>
        <time>2020-09-17T10:05:32Z</time>
      </trkpt>
      <trkpt lat="45.40506" lon="3.36518">
        <ele>429.2</ele>
        <time>2020-09-17T10:05:33Z</time>
      </trkpt>
      <trkpt lat="45.40507" lon="3.36518">
        <ele>429.2</ele>
        <time>2020-09-17T10:05:34Z</time>
      </trkpt>
      <trkpt lat="45.40508" lon="3.3652">
        <ele>429.3</ele>
        <time>2020-09-17T10:05:35Z</time>
      </trkpt>
      <trkpt lat="45.40508" lon="3.36521">
        <ele>429.3</ele>
        <time>2020-09-17T10:05:36Z</time>
      </trkpt>
      <trkpt lat="45.40509" lon="3.36522">
        <ele>429.3</ele>
        <time>2020-09-17T10:05:37Z</time>
      </trkpt>
      <trkpt lat="45.4051" lon="3.36523">
        <ele>429.4</ele>
        <time>2020-09-17T10:05:38Z</time>
      </trkpt>
      <trkpt lat="45.40511" lon="3.36523">
        <ele>429.4</ele>
        <time>2020-09-17T10:05:39Z</time>
      </trkpt>
      <trkpt lat="45.40512" lon="3.36524">
        <ele>429.4</ele>
        <time>2020-09-17T10:05:40Z</time>
      </trkpt>
      <trkpt lat="45.40513" lon="3.36525">
        <ele>429.4</ele>
        <time>2020-09-17T10:05:41Z</time>
      </trkpt>
      <trkpt lat="45.40513" lon="3.36526">
        <ele>429.5</ele>
        <time>2020-09-17T10:05:42Z</time>
      </trkpt>
      <trkpt lat="45.40514" lon="3.36527">
        <ele>429.5</ele>
        <time>2020-09-17T10:05:43Z</time>
      </trkpt>
      <trkpt lat="45.40515" lon="3.36528">
        <ele>429.5</ele>
        <time>2020-09-17T10:05:44Z</time>
      </trkpt>
      <trkpt lat="45.40516" lon="3.36529">
        <ele>429.6</ele>
        <time>2020-09-17T10:05:45Z</time>
      </trkpt>
      <trkpt lat="45.40517" lon="3.3653">
        <ele>429.6</ele>
        <time>2020-09-17T10:05:46Z</time>
      </trkpt>
      <trkpt lat="45.40517" lon="3.36531">
        <ele>429.6</ele>
        <time>2020-09-17T10:05:47Z</time>
      </trkpt>
      <trkpt lat="45.40518" lon="3.36532">
        <ele>429.6</ele>
        <time>2020-09-17T10:05:48Z</time>
      </trkpt>
      <trkpt lat="45.40519" lon="3.36532">
        <ele>429.6</ele>
        <time>2020-09-17T10:05:49Z</time>
      </trkpt>
      <trkpt lat="45.4052" lon="3.36533">
        <ele>429.6</ele>
        <time>2020-09-17T10:05:50Z</time>
      </trkpt>
      <trkpt lat="45.4052" lon="3.36534">
        <ele>429.6</ele>
        <time>2020-09-17T10:05:51Z</time>
      </trkpt>
      <trkpt lat="45.40521" lon="3.36535">
        <ele>429.6</ele>
        <time>2020-09-17T10:05:52Z</time>
      </trkpt>
      <trkpt lat="45.40522" lon="3.36536">
        <ele>429.6</ele>
        <time>2020-09-17T10:05:53Z</time>
      </trkpt>
      <trkpt lat="45.40523" lon="3.36537">
        <ele>429.6</ele>
        <time>2020-09-17T10:05:54Z</time>
      </trkpt>
      <trkpt lat="45.40523" lon="3.36538">
        <ele>429.6</ele>
        <time>2020-09-17T10:05:55Z</time>
      </trkpt>
      <trkpt lat="45.40524" lon="3.36539">
        <ele>429.6</ele>
        <time>2020-09-17T10:05:56Z</time>
      </trkpt>
      <trkpt lat="45.40525" lon="3.36539">
        <ele>429.6</ele>
        <time>2020-09-17T10:05:57Z</time>
      </trkpt>
      <trkpt lat="45.40526" lon="3.3654">
        <ele>429.5</ele>
        <time>2020-09-17T10:05:58Z</time>
      </trkpt>
      <trkpt lat="45.40527" lon="3.36541">
        <ele>429.5</ele>
        <time>2020-09-17T10:05:59Z</time>
      </trkpt>
      <trkpt lat="45.40527" lon="3.36542">
        <ele>429.5</ele>
        <time>2020-09-17T10:06:00Z</time>
      </trkpt>
      <trkpt lat="45.40528" lon="3.36543">
        <ele>429.5</ele>
        <time>2020-09-17T10:06:01Z</time>
      </trkpt>
      <trkpt lat="45.40529" lon="3.36544">
        <ele>429.5</ele>
        <time>2020-09-17T10:06:02Z</time>
      </trkpt>
      <trkpt lat="45.40529" lon="3.36544">
        <ele>429.4</ele>
        <time>2020-09-17T10:06:03Z</time>
      </trkpt>
      <trkpt lat="45.4053" lon="3.36545">
        <ele>429.4</ele>
        <time>2020-09-17T10:06:04Z</time>
      </trkpt>
      <trkpt lat="45.40531" lon="3.36546">
        <ele>429.4</ele>
        <time>2020-09-17T10:06:05Z</time>
      </trkpt>
      <trkpt lat="45.40532" lon="3.36547">
        <ele>429.4</ele>
        <time>2020-09-17T10:06:06Z</time>
      </trkpt>
      <trkpt lat="45.40533" lon="3.36547">
        <ele>429.4</ele>
        <time>2020-09-17T10:06:07Z</time>
      </trkpt>
      <trkpt lat="45.40534" lon="3.36547">
        <ele>429.4</ele>
        <time>2020-09-17T10:06:08Z</time>
      </trkpt>
      <trkpt lat="45.40535" lon="3.36548">
        <ele>429.4</ele>
        <time>2020-09-17T10:06:09Z</time>
      </trkpt>
      <trkpt lat="45.40535" lon="3.36549">
        <ele>429.4</ele>
        <time>2020-09-17T10:06:10Z</time>
      </trkpt>
      <trkpt lat="45.40536" lon="3.3655">
        <ele>429.4</ele>
        <time>2020-09-17T10:06:11Z</time>
      </trkpt>
      <trkpt lat="45.40537" lon="3.36551">
        <ele>429.4</ele>
        <time>2020-09-17T10:06:12Z</time>
      </trkpt>
      <trkpt lat="45.40538" lon="3.36552">
        <ele>429.5</ele>
        <time>2020-09-17T10:06:13Z</time>
      </trkpt>
      <trkpt lat="45.40539" lon="3.36553">
        <ele>429.5</ele>
        <time>2020-09-17T10:06:14Z</time>
      </trkpt>
      <trkpt lat="45.4054" lon="3.36553">
        <ele>429.5</ele>
        <time>2020-09-17T10:06:15Z</time>
      </trkpt>
      <trkpt lat="45.4054" lon="3.36553">
        <ele>429.5</ele>
        <time>2020-09-17T10:06:16Z</time>
      </trkpt>
      <trkpt lat="45.4054" lon="3.36553">
        <ele>429.5</ele>
        <time>2020-09-17T10:06:17Z</time>
      </trkpt>
      <trkpt lat="45.40541" lon="3.36554">
        <ele>429.5</ele>
        <time>2020-09-17T10:06:18Z</time>
      </trkpt>
      <trkpt lat="45.40541" lon="3.36555">
        <ele>429.5</ele>
        <time>2020-09-17T10:06:19Z</time>
      </trkpt>
      <trkpt lat="45.40542" lon="3.36556">
        <ele>429.5</ele>
        <time>2020-09-17T10:06:20Z</time>
      </trkpt>
      <trkpt lat="45.40543" lon="3.36556">
        <ele>429.6</ele>
        <time>2020-09-17T10:06:21Z</time>
      </trkpt>
      <trkpt lat="45.40544" lon="3.36557">
        <ele>429.6</ele>
        <time>2020-09-17T10:06:22Z</time>
      </trkpt>
      <trkpt lat="45.40545" lon="3.36557">
        <ele>429.7</ele>
        <time>2020-09-17T10:06:23Z</time>
      </trkpt>
      <trkpt lat="45.40546" lon="3.36558">
        <ele>429.7</ele>
        <time>2020-09-17T10:06:24Z</time>
      </trkpt>
      <trkpt lat="45.40547" lon="3.36559">
        <ele>429.7</ele>
        <time>2020-09-17T10:06:25Z</time>
      </trkpt>
      <trkpt lat="45.40548" lon="3.36559">
        <ele>429.8</ele>
        <time>2020-09-17T10:06:26Z</time>
      </trkpt>
      <trkpt lat="45.40549" lon="3.3656">
        <ele>429.8</ele>
        <time>2020-09-17T10:06:27Z</time>
      </trkpt>
      <trkpt lat="45.4055" lon="3.3656">
        <ele>429.8</ele>
        <time>2020-09-17T10:06:28Z</time>
      </trkpt>
      <trkpt lat="45.40551" lon="3.36561">
        <ele>429.8</ele>
        <time>2020-09-17T10:06:29Z</time>
      </trkpt>
      <trkpt lat="45.40552" lon="3.36561">
        <ele>429.8</ele>
        <time>2020-09-17T10:06:30Z</time>
      </trkpt>
      <trkpt lat="45.40553" lon="3.36562">
        <ele>429.8</ele>
        <time>2020-09-17T10:06:31Z</time>
      </trkpt>
      <trkpt lat="45.40554" lon="3.36562">
        <ele>429.8</ele>
        <time>2020-09-17T10:06:32Z</time>
      </trkpt>
      <trkpt lat="45.40554" lon="3.36563">
        <ele>429.8</ele>
        <time>2020-09-17T10:06:33Z</time>
      </trkpt>
      <trkpt lat="45.40555" lon="3.36563">
        <ele>429.7</ele>
        <time>2020-09-17T10:06:34Z</time>
      </trkpt>
      <trkpt lat="45.40556" lon="3.36563">
        <ele>429.7</ele>
        <time>2020-09-17T10:06:35Z</time>
      </trkpt>
      <trkpt lat="45.40557" lon="3.36564">
        <ele>429.8</ele>
        <time>2020-09-17T10:06:36Z</time>
      </trkpt>
      <trkpt lat="45.40558" lon="3.36564">
        <ele>429.8</ele>
        <time>2020-09-17T10:06:37Z</time>
      </trkpt>
      <trkpt lat="45.40558" lon="3.36564">
        <ele>429.8</ele>
        <time>2020-09-17T10:06:38Z</time>
      </trkpt>
      <trkpt lat="45.40559" lon="3.36564">
        <ele>429.8</ele>
        <time>2020-09-17T10:06:39Z</time>
      </trkpt>
      <trkpt lat="45.40559" lon="3.36564">
        <ele>429.8</ele>
        <time>2020-09-17T10:06:40Z</time>
      </trkpt>
      <trkpt lat="45.40559" lon="3.36564">
        <ele>429.8</ele>
        <time>2020-09-17T10:06:41Z</time>
      </trkpt>
      <trkpt lat="45.40559" lon="3.36564">
        <ele>429.8</ele>
        <time>2020-09-17T10:06:42Z</time>
      </trkpt>
      <trkpt lat="45.4056" lon="3.36564">
        <ele>429.9</ele>
        <time>2020-09-17T10:06:43Z</time>
      </trkpt>
      <trkpt lat="45.4056" lon="3.36564">
        <ele>429.9</ele>
        <time>2020-09-17T10:06:44Z</time>
      </trkpt>
      <trkpt lat="45.4056" lon="3.36564">
        <ele>429.9</ele>
        <time>2020-09-17T10:06:45Z</time>
      </trkpt>
      <trkpt lat="45.4056" lon="3.36564">
        <ele>429.9</ele>
        <time>2020-09-17T10:06:46Z</time>
      </trkpt>
      <trkpt lat="45.4056" lon="3.36564">
        <ele>429.9</ele>
        <time>2020-09-17T10:06:47Z</time>
      </trkpt>
      <trkpt lat="45.4056" lon="3.36564">
        <ele>429.9</ele>
        <time>2020-09-17T10:06:48Z</time>
      </trkpt>
      <trkpt lat="45.4056" lon="3.36564">
        <ele>429.9</ele>
        <time>2020-09-17T10:06:49Z</time>
      </trkpt>
      <trkpt lat="45.40561" lon="3.36564">
        <ele>429.9</ele>
        <time>2020-09-17T10:06:50Z</time>
      </trkpt>
      <trkpt lat="45.40561" lon="3.36564">
        <ele>429.9</ele>
        <time>2020-09-17T10:06:51Z</time>
      </trkpt>
      <trkpt lat="45.40561" lon="3.36564">
        <ele>429.9</ele>
        <time>2020-09-17T10:06:52Z</time>
      </trkpt>
      <trkpt lat="45.40561" lon="3.36563">
        <ele>429.9</ele>
        <time>2020-09-17T10:06:53Z</time>
      </trkpt>
      <trkpt lat="45.40561" lon="3.36563">
        <ele>429.9</ele>
        <time>2020-09-17T10:06:54Z</time>
      </trkpt>
      <trkpt lat="45.40561" lon="3.36563">
        <ele>429.9</ele>
        <time>2020-09-17T10:06:55Z</time>
      </trkpt>
      <trkpt lat="45.40561" lon="3.36563">
        <ele>429.9</ele>
        <time>2020-09-17T10:06:56Z</time>
      </trkpt>
      <trkpt lat="45.40561" lon="3.36563">
        <ele>429.9</ele>
        <time>2020-09-17T10:06:57Z</time>
      </trkpt>
      <trkpt lat="45.40561" lon="3.36564">
        <ele>429.9</ele>
        <time>2020-09-17T10:06:58Z</time>
      </trkpt>
      <trkpt lat="45.40561" lon="3.36564">
        <ele>429.9</ele>
        <time>2020-09-17T10:06:59Z</time>
      </trkpt>
      <trkpt lat="45.40562" lon="3.36564">
        <ele>429.9</ele>
        <time>2020-09-17T10:07:00Z</time>
      </trkpt>
      <trkpt lat="45.40562" lon="3.36564">
        <ele>429.9</ele>
        <time>2020-09-17T10:07:01Z</time>
      </trkpt>
      <trkpt lat="45.40562" lon="3.36564">
        <ele>429.9</ele>
        <time>2020-09-17T10:07:02Z</time>
      </trkpt>
      <trkpt lat="45.40562" lon="3.36564">
        <ele>429.9</ele>
        <time>2020-09-17T10:07:03Z</time>
      </trkpt>
      <trkpt lat="45.40562" lon="3.36564">
        <ele>429.9</ele>
        <time>2020-09-17T10:07:04Z</time>
      </trkpt>
      <trkpt lat="45.40562" lon="3.36564">
        <ele>429.9</ele>
        <time>2020-09-17T10:07:05Z</time>
      </trkpt>
      <trkpt lat="45.40562" lon="3.36564">
        <ele>429.9</ele>
        <time>2020-09-17T10:07:06Z</time>
      </trkpt>
      <trkpt lat="45.40562" lon="3.36564">
        <ele>429.9</ele>
        <time>2020-09-17T10:07:07Z</time>
      </trkpt>
      <trkpt lat="45.40563" lon="3.36564">
        <ele>429.9</ele>
        <time>2020-09-17T10:07:08Z</time>
      </trkpt>
      <trkpt lat="45.40563" lon="3.36564">
        <ele>429.9</ele>
        <time>2020-09-17T10:07:09Z</time>
      </trkpt>
      <trkpt lat="45.40563" lon="3.36565">
        <ele>429.9</ele>
        <time>2020-09-17T10:07:10Z</time>
      </trkpt>
      <trkpt lat="45.40563" lon="3.36565">
        <ele>429.9</ele>
        <time>2020-09-17T10:07:11Z</time>
      </trkpt>
      <trkpt lat="45.40563" lon="3.36565">
        <ele>429.9</ele>
        <time>2020-09-17T10:07:12Z</time>
      </trkpt>
      <trkpt lat="45.40563" lon="3.36565">
        <ele>429.9</ele>
        <time>2020-09-17T10:07:13Z</time>
      </trkpt>
      <trkpt lat="45.40563" lon="3.36565">
        <ele>429.9</ele>
        <time>2020-09-17T10:07:14Z</time>
      </trkpt>
      <trkpt lat="45.40564" lon="3.36566">
        <ele>429.9</ele>
        <time>2020-09-17T10:07:15Z</time>
      </trkpt>
      <trkpt lat="45.40564" lon="3.36566">
        <ele>429.9</ele>
        <time>2020-09-17T10:07:16Z</time>
      </trkpt>
      <trkpt lat="45.40564" lon="3.36566">
        <ele>429.9</ele>
        <time>2020-09-17T10:07:17Z</time>
      </trkpt>
      <trkpt lat="45.40564" lon="3.36566">
        <ele>429.9</ele>
        <time>2020-09-17T10:07:18Z</time>
      </trkpt>
      <trkpt lat="45.40565" lon="3.36567">
        <ele>429.9</ele>
        <time>2020-09-17T10:07:19Z</time>
      </trkpt>
      <trkpt lat="45.40566" lon="3.36568">
        <ele>429.9</ele>
        <time>2020-09-17T10:07:20Z</time>
      </trkpt>
      <trkpt lat="45.40567" lon="3.36568">
        <ele>429.9</ele>
        <time>2020-09-17T10:07:21Z</time>
      </trkpt>
      <trkpt lat="45.40568" lon="3.36569">
        <ele>429.9</ele>
        <time>2020-09-17T10:07:22Z</time>
      </trkpt>
      <trkpt lat="45.40569" lon="3.3657">
        <ele>430</ele>
        <time>2020-09-17T10:07:23Z</time>
      </trkpt>
      <trkpt lat="45.4057" lon="3.3657">
        <ele>430</ele>
        <time>2020-09-17T10:07:24Z</time>
      </trkpt>
      <trkpt lat="45.40571" lon="3.36571">
        <ele>430</ele>
        <time>2020-09-17T10:07:25Z</time>
      </trkpt>
      <trkpt lat="45.40572" lon="3.36571">
        <ele>430</ele>
        <time>2020-09-17T10:07:26Z</time>
      </trkpt>
      <trkpt lat="45.40573" lon="3.36572">
        <ele>430</ele>
        <time>2020-09-17T10:07:27Z</time>
      </trkpt>
      <trkpt lat="45.40573" lon="3.36572">
        <ele>430</ele>
        <time>2020-09-17T10:07:28Z</time>
      </trkpt>
      <trkpt lat="45.40575" lon="3.36573">
        <ele>430</ele>
        <time>2020-09-17T10:07:29Z</time>
      </trkpt>
      <trkpt lat="45.40576" lon="3.36574">
        <ele>430.1</ele>
        <time>2020-09-17T10:07:30Z</time>
      </trkpt>
      <trkpt lat="45.40577" lon="3.36574">
        <ele>430.1</ele>
        <time>2020-09-17T10:07:31Z</time>
      </trkpt>
      <trkpt lat="45.40578" lon="3.36574">
        <ele>430.1</ele>
        <time>2020-09-17T10:07:32Z</time>
      </trkpt>
      <trkpt lat="45.40578" lon="3.36575">
        <ele>430.1</ele>
        <time>2020-09-17T10:07:33Z</time>
      </trkpt>
      <trkpt lat="45.40579" lon="3.36575">
        <ele>430.1</ele>
        <time>2020-09-17T10:07:34Z</time>
      </trkpt>
      <trkpt lat="45.40581" lon="3.36576">
        <ele>430.2</ele>
        <time>2020-09-17T10:07:35Z</time>
      </trkpt>
      <trkpt lat="45.40582" lon="3.36576">
        <ele>430.2</ele>
        <time>2020-09-17T10:07:36Z</time>
      </trkpt>
      <trkpt lat="45.40583" lon="3.36577">
        <ele>430.2</ele>
        <time>2020-09-17T10:07:37Z</time>
      </trkpt>
      <trkpt lat="45.40584" lon="3.36577">
        <ele>430.2</ele>
        <time>2020-09-17T10:07:38Z</time>
      </trkpt>
      <trkpt lat="45.40585" lon="3.36578">
        <ele>430.3</ele>
        <time>2020-09-17T10:07:39Z</time>
      </trkpt>
      <trkpt lat="45.40586" lon="3.36579">
        <ele>430.3</ele>
        <time>2020-09-17T10:07:40Z</time>
      </trkpt>
      <trkpt lat="45.40587" lon="3.3658">
        <ele>430.4</ele>
        <time>2020-09-17T10:07:41Z</time>
      </trkpt>
      <trkpt lat="45.40588" lon="3.36581">
        <ele>430.4</ele>
        <time>2020-09-17T10:07:42Z</time>
      </trkpt>
      <trkpt lat="45.40589" lon="3.36583">
        <ele>430.4</ele>
        <time>2020-09-17T10:07:43Z</time>
      </trkpt>
      <trkpt lat="45.4059" lon="3.36584">
        <ele>430.5</ele>
        <time>2020-09-17T10:07:44Z</time>
      </trkpt>
      <trkpt lat="45.40591" lon="3.36585">
        <ele>430.5</ele>
        <time>2020-09-17T10:07:45Z</time>
      </trkpt>
      <trkpt lat="45.40592" lon="3.36587">
        <ele>430.6</ele>
        <time>2020-09-17T10:07:46Z</time>
      </trkpt>
      <trkpt lat="45.40593" lon="3.36588">
        <ele>430.6</ele>
        <time>2020-09-17T10:07:47Z</time>
      </trkpt>
      <trkpt lat="45.40594" lon="3.3659">
        <ele>430.7</ele>
        <time>2020-09-17T10:07:48Z</time>
      </trkpt>
      <trkpt lat="45.40595" lon="3.36591">
        <ele>430.7</ele>
        <time>2020-09-17T10:07:49Z</time>
      </trkpt>
      <trkpt lat="45.40596" lon="3.36593">
        <ele>430.7</ele>
        <time>2020-09-17T10:07:50Z</time>
      </trkpt>
      <trkpt lat="45.40597" lon="3.36594">
        <ele>430.8</ele>
        <time>2020-09-17T10:07:51Z</time>
      </trkpt>
      <trkpt lat="45.40598" lon="3.36596">
        <ele>430.8</ele>
        <time>2020-09-17T10:07:52Z</time>
      </trkpt>
      <trkpt lat="45.40599" lon="3.36598">
        <ele>430.8</ele>
        <time>2020-09-17T10:07:53Z</time>
      </trkpt>
      <trkpt lat="45.406" lon="3.366">
        <ele>430.8</ele>
        <time>2020-09-17T10:07:54Z</time>
      </trkpt>
      <trkpt lat="45.40601" lon="3.36601">
        <ele>430.9</ele>
        <time>2020-09-17T10:07:55Z</time>
      </trkpt>
      <trkpt lat="45.40603" lon="3.36603">
        <ele>430.9</ele>
        <time>2020-09-17T10:07:56Z</time>
      </trkpt>
      <trkpt lat="45.40604" lon="3.36605">
        <ele>430.9</ele>
        <time>2020-09-17T10:07:57Z</time>
      </trkpt>
      <trkpt lat="45.40605" lon="3.36606">
        <ele>430.9</ele>
        <time>2020-09-17T10:07:58Z</time>
      </trkpt>
      <trkpt lat="45.40607" lon="3.36608">
        <ele>430.9</ele>
        <time>2020-09-17T10:07:59Z</time>
      </trkpt>
      <trkpt lat="45.40608" lon="3.3661">
        <ele>430.9</ele>
        <time>2020-09-17T10:08:00Z</time>
      </trkpt>
      <trkpt lat="45.40609" lon="3.36611">
        <ele>430.9</ele>
        <time>2020-09-17T10:08:01Z</time>
      </trkpt>
      <trkpt lat="45.40611" lon="3.36613">
        <ele>431</ele>
        <time>2020-09-17T10:08:02Z</time>
      </trkpt>
      <trkpt lat="45.40612" lon="3.36614">
        <ele>431</ele>
        <time>2020-09-17T10:08:03Z</time>
      </trkpt>
      <trkpt lat="45.40614" lon="3.36616">
        <ele>431.1</ele>
        <time>2020-09-17T10:08:04Z</time>
      </trkpt>
      <trkpt lat="45.40615" lon="3.36618">
        <ele>431.1</ele>
        <time>2020-09-17T10:08:05Z</time>
      </trkpt>
      <trkpt lat="45.40617" lon="3.36619">
        <ele>431.2</ele>
        <time>2020-09-17T10:08:06Z</time>
      </trkpt>
      <trkpt lat="45.40618" lon="3.3662">
        <ele>431.2</ele>
        <time>2020-09-17T10:08:07Z</time>
      </trkpt>
      <trkpt lat="45.40619" lon="3.36622">
        <ele>431.3</ele>
        <time>2020-09-17T10:08:08Z</time>
      </trkpt>
      <trkpt lat="45.40621" lon="3.36624">
        <ele>431.3</ele>
        <time>2020-09-17T10:08:09Z</time>
      </trkpt>
      <trkpt lat="45.40622" lon="3.36626">
        <ele>431.4</ele>
        <time>2020-09-17T10:08:10Z</time>
      </trkpt>
      <trkpt lat="45.40624" lon="3.36627">
        <ele>431.5</ele>
        <time>2020-09-17T10:08:11Z</time>
      </trkpt>
      <trkpt lat="45.40625" lon="3.36629">
        <ele>431.5</ele>
        <time>2020-09-17T10:08:12Z</time>
      </trkpt>
      <trkpt lat="45.40626" lon="3.3663">
        <ele>431.5</ele>
        <time>2020-09-17T10:08:13Z</time>
      </trkpt>
      <trkpt lat="45.40628" lon="3.36631">
        <ele>431.6</ele>
        <time>2020-09-17T10:08:14Z</time>
      </trkpt>
      <trkpt lat="45.40629" lon="3.36633">
        <ele>431.6</ele>
        <time>2020-09-17T10:08:15Z</time>
      </trkpt>
      <trkpt lat="45.4063" lon="3.36634">
        <ele>431.7</ele>
        <time>2020-09-17T10:08:16Z</time>
      </trkpt>
      <trkpt lat="45.40631" lon="3.36635">
        <ele>431.7</ele>
        <time>2020-09-17T10:08:17Z</time>
      </trkpt>
      <trkpt lat="45.40632" lon="3.36636">
        <ele>431.7</ele>
        <time>2020-09-17T10:08:18Z</time>
      </trkpt>
      <trkpt lat="45.40633" lon="3.36637">
        <ele>431.8</ele>
        <time>2020-09-17T10:08:19Z</time>
      </trkpt>
      <trkpt lat="45.40634" lon="3.36637">
        <ele>431.8</ele>
        <time>2020-09-17T10:08:20Z</time>
      </trkpt>
      <trkpt lat="45.40635" lon="3.36638">
        <ele>431.9</ele>
        <time>2020-09-17T10:08:21Z</time>
      </trkpt>
      <trkpt lat="45.40637" lon="3.36639">
        <ele>431.9</ele>
        <time>2020-09-17T10:08:22Z</time>
      </trkpt>
      <trkpt lat="45.40638" lon="3.36639">
        <ele>432</ele>
        <time>2020-09-17T10:08:23Z</time>
      </trkpt>
      <trkpt lat="45.40639" lon="3.36639">
        <ele>432</ele>
        <time>2020-09-17T10:08:24Z</time>
      </trkpt>
      <trkpt lat="45.4064" lon="3.36639">
        <ele>432</ele>
        <time>2020-09-17T10:08:25Z</time>
      </trkpt>
      <trkpt lat="45.40641" lon="3.36639">
        <ele>432</ele>
        <time>2020-09-17T10:08:26Z</time>
      </trkpt>
      <trkpt lat="45.40642" lon="3.36639">
        <ele>432</ele>
        <time>2020-09-17T10:08:27Z</time>
      </trkpt>
      <trkpt lat="45.40643" lon="3.36638">
        <ele>432</ele>
        <time>2020-09-17T10:08:28Z</time>
      </trkpt>
      <trkpt lat="45.40645" lon="3.36638">
        <ele>432</ele>
        <time>2020-09-17T10:08:29Z</time>
      </trkpt>
      <trkpt lat="45.40646" lon="3.36637">
        <ele>432</ele>
        <time>2020-09-17T10:08:30Z</time>
      </trkpt>
      <trkpt lat="45.40647" lon="3.36636">
        <ele>432</ele>
        <time>2020-09-17T10:08:31Z</time>
      </trkpt>
      <trkpt lat="45.40648" lon="3.36636">
        <ele>432</ele>
        <time>2020-09-17T10:08:32Z</time>
      </trkpt>
      <trkpt lat="45.40649" lon="3.36636">
        <ele>432</ele>
        <time>2020-09-17T10:08:33Z</time>
      </trkpt>
      <trkpt lat="45.4065" lon="3.36636">
        <ele>432</ele>
        <time>2020-09-17T10:08:34Z</time>
      </trkpt>
      <trkpt lat="45.40651" lon="3.36637">
        <ele>432</ele>
        <time>2020-09-17T10:08:35Z</time>
      </trkpt>
      <trkpt lat="45.40652" lon="3.36637">
        <ele>432</ele>
        <time>2020-09-17T10:08:36Z</time>
      </trkpt>
      <trkpt lat="45.40653" lon="3.36637">
        <ele>432</ele>
        <time>2020-09-17T10:08:37Z</time>
      </trkpt>
      <trkpt lat="45.40653" lon="3.36638">
        <ele>432</ele>
        <time>2020-09-17T10:08:38Z</time>
      </trkpt>
      <trkpt lat="45.40654" lon="3.36638">
        <ele>432</ele>
        <time>2020-09-17T10:08:39Z</time>
      </trkpt>
      <trkpt lat="45.40655" lon="3.36639">
        <ele>432</ele>
        <time>2020-09-17T10:08:40Z</time>
      </trkpt>
      <trkpt lat="45.40656" lon="3.36639">
        <ele>432</ele>
        <time>2020-09-17T10:08:41Z</time>
      </trkpt>
      <trkpt lat="45.40656" lon="3.3664">
        <ele>432</ele>
        <time>2020-09-17T10:08:42Z</time>
      </trkpt>
      <trkpt lat="45.40656" lon="3.36641">
        <ele>432</ele>
        <time>2020-09-17T10:08:43Z</time>
      </trkpt>
      <trkpt lat="45.40656" lon="3.36642">
        <ele>432.1</ele>
        <time>2020-09-17T10:08:44Z</time>
      </trkpt>
      <trkpt lat="45.40656" lon="3.36642">
        <ele>432.1</ele>
        <time>2020-09-17T10:08:45Z</time>
      </trkpt>
      <trkpt lat="45.40656" lon="3.36643">
        <ele>432.1</ele>
        <time>2020-09-17T10:08:46Z</time>
      </trkpt>
      <trkpt lat="45.40656" lon="3.36644">
        <ele>432.1</ele>
        <time>2020-09-17T10:08:47Z</time>
      </trkpt>
      <trkpt lat="45.40656" lon="3.36644">
        <ele>432.1</ele>
        <time>2020-09-17T10:08:48Z</time>
      </trkpt>
      <trkpt lat="45.40656" lon="3.36645">
        <ele>432.1</ele>
        <time>2020-09-17T10:08:49Z</time>
      </trkpt>
      <trkpt lat="45.40656" lon="3.36646">
        <ele>432.2</ele>
        <time>2020-09-17T10:08:50Z</time>
      </trkpt>
      <trkpt lat="45.40657" lon="3.36646">
        <ele>432.2</ele>
        <time>2020-09-17T10:08:51Z</time>
      </trkpt>
      <trkpt lat="45.40657" lon="3.36647">
        <ele>432.2</ele>
        <time>2020-09-17T10:08:52Z</time>
      </trkpt>
      <trkpt lat="45.40658" lon="3.36647">
        <ele>432.2</ele>
        <time>2020-09-17T10:08:53Z</time>
      </trkpt>
      <trkpt lat="45.40658" lon="3.36648">
        <ele>432.2</ele>
        <time>2020-09-17T10:08:54Z</time>
      </trkpt>
      <trkpt lat="45.40659" lon="3.36648">
        <ele>432.2</ele>
        <time>2020-09-17T10:08:55Z</time>
      </trkpt>
      <trkpt lat="45.40659" lon="3.36648">
        <ele>432.2</ele>
        <time>2020-09-17T10:08:56Z</time>
      </trkpt>
      <trkpt lat="45.4066" lon="3.36648">
        <ele>432.2</ele>
        <time>2020-09-17T10:08:57Z</time>
      </trkpt>
      <trkpt lat="45.40661" lon="3.36648">
        <ele>432.3</ele>
        <time>2020-09-17T10:08:58Z</time>
      </trkpt>
      <trkpt lat="45.40662" lon="3.36649">
        <ele>432.3</ele>
        <time>2020-09-17T10:08:59Z</time>
      </trkpt>
      <trkpt lat="45.40663" lon="3.3665">
        <ele>432.3</ele>
        <time>2020-09-17T10:09:00Z</time>
      </trkpt>
      <trkpt lat="45.40664" lon="3.3665">
        <ele>432.4</ele>
        <time>2020-09-17T10:09:01Z</time>
      </trkpt>
      <trkpt lat="45.40665" lon="3.36651">
        <ele>432.4</ele>
        <time>2020-09-17T10:09:02Z</time>
      </trkpt>
      <trkpt lat="45.40666" lon="3.36652">
        <ele>432.5</ele>
        <time>2020-09-17T10:09:03Z</time>
      </trkpt>
      <trkpt lat="45.40667" lon="3.36653">
        <ele>432.5</ele>
        <time>2020-09-17T10:09:04Z</time>
      </trkpt>
      <trkpt lat="45.40668" lon="3.36655">
        <ele>432.6</ele>
        <time>2020-09-17T10:09:05Z</time>
      </trkpt>
      <trkpt lat="45.40669" lon="3.36655">
        <ele>432.6</ele>
        <time>2020-09-17T10:09:06Z</time>
      </trkpt>
      <trkpt lat="45.40669" lon="3.36656">
        <ele>432.7</ele>
        <time>2020-09-17T10:09:07Z</time>
      </trkpt>
      <trkpt lat="45.4067" lon="3.36657">
        <ele>432.7</ele>
        <time>2020-09-17T10:09:08Z</time>
      </trkpt>
      <trkpt lat="45.40671" lon="3.36658">
        <ele>432.7</ele>
        <time>2020-09-17T10:09:09Z</time>
      </trkpt>
      <trkpt lat="45.40672" lon="3.36659">
        <ele>432.8</ele>
        <time>2020-09-17T10:09:10Z</time>
      </trkpt>
      <trkpt lat="45.40673" lon="3.3666">
        <ele>432.8</ele>
        <time>2020-09-17T10:09:11Z</time>
      </trkpt>
      <trkpt lat="45.40673" lon="3.3666">
        <ele>432.8</ele>
        <time>2020-09-17T10:09:12Z</time>
      </trkpt>
      <trkpt lat="45.40674" lon="3.36661">
        <ele>432.9</ele>
        <time>2020-09-17T10:09:13Z</time>
      </trkpt>
      <trkpt lat="45.40675" lon="3.36662">
        <ele>432.9</ele>
        <time>2020-09-17T10:09:14Z</time>
      </trkpt>
      <trkpt lat="45.40676" lon="3.36663">
        <ele>432.9</ele>
        <time>2020-09-17T10:09:15Z</time>
      </trkpt>
      <trkpt lat="45.40677" lon="3.36664">
        <ele>432.9</ele>
        <time>2020-09-17T10:09:16Z</time>
      </trkpt>
      <trkpt lat="45.40678" lon="3.36664">
        <ele>432.9</ele>
        <time>2020-09-17T10:09:17Z</time>
      </trkpt>
      <trkpt lat="45.40679" lon="3.36665">
        <ele>433</ele>
        <time>2020-09-17T10:09:18Z</time>
      </trkpt>
      <trkpt lat="45.40681" lon="3.36665">
        <ele>433</ele>
        <time>2020-09-17T10:09:19Z</time>
      </trkpt>
      <trkpt lat="45.40682" lon="3.36666">
        <ele>433</ele>
        <time>2020-09-17T10:09:20Z</time>
      </trkpt>
      <trkpt lat="45.40683" lon="3.36666">
        <ele>433</ele>
        <time>2020-09-17T10:09:21Z</time>
      </trkpt>
      <trkpt lat="45.40684" lon="3.36667">
        <ele>433</ele>
        <time>2020-09-17T10:09:22Z</time>
      </trkpt>
      <trkpt lat="45.40685" lon="3.36667">
        <ele>433</ele>
        <time>2020-09-17T10:09:23Z</time>
      </trkpt>
      <trkpt lat="45.40686" lon="3.36668">
        <ele>433</ele>
        <time>2020-09-17T10:09:24Z</time>
      </trkpt>
      <trkpt lat="45.40687" lon="3.36668">
        <ele>433</ele>
        <time>2020-09-17T10:09:25Z</time>
      </trkpt>
      <trkpt lat="45.40688" lon="3.36669">
        <ele>433</ele>
        <time>2020-09-17T10:09:26Z</time>
      </trkpt>
      <trkpt lat="45.40689" lon="3.36669">
        <ele>433</ele>
        <time>2020-09-17T10:09:27Z</time>
      </trkpt>
      <trkpt lat="45.4069" lon="3.3667">
        <ele>433</ele>
        <time>2020-09-17T10:09:28Z</time>
      </trkpt>
      <trkpt lat="45.40691" lon="3.3667">
        <ele>433</ele>
        <time>2020-09-17T10:09:29Z</time>
      </trkpt>
      <trkpt lat="45.40692" lon="3.3667">
        <ele>433</ele>
        <time>2020-09-17T10:09:30Z</time>
      </trkpt>
      <trkpt lat="45.40693" lon="3.3667">
        <ele>433</ele>
        <time>2020-09-17T10:09:31Z</time>
      </trkpt>
      <trkpt lat="45.40694" lon="3.3667">
        <ele>433</ele>
        <time>2020-09-17T10:09:32Z</time>
      </trkpt>
      <trkpt lat="45.40695" lon="3.3667">
        <ele>433</ele>
        <time>2020-09-17T10:09:33Z</time>
      </trkpt>
      <trkpt lat="45.40696" lon="3.3667">
        <ele>433</ele>
        <time>2020-09-17T10:09:34Z</time>
      </trkpt>
      <trkpt lat="45.40697" lon="3.3667">
        <ele>433</ele>
        <time>2020-09-17T10:09:35Z</time>
      </trkpt>
      <trkpt lat="45.40698" lon="3.3667">
        <ele>433</ele>
        <time>2020-09-17T10:09:36Z</time>
      </trkpt>
      <trkpt lat="45.40699" lon="3.3667">
        <ele>433</ele>
        <time>2020-09-17T10:09:37Z</time>
      </trkpt>
      <trkpt lat="45.407" lon="3.3667">
        <ele>433</ele>
        <time>2020-09-17T10:09:38Z</time>
      </trkpt>
      <trkpt lat="45.40701" lon="3.3667">
        <ele>433</ele>
        <time>2020-09-17T10:09:39Z</time>
      </trkpt>
      <trkpt lat="45.40701" lon="3.3667">
        <ele>433</ele>
        <time>2020-09-17T10:09:40Z</time>
      </trkpt>
      <trkpt lat="45.40702" lon="3.3667">
        <ele>433</ele>
        <time>2020-09-17T10:09:41Z</time>
      </trkpt>
      <trkpt lat="45.40703" lon="3.3667">
        <ele>433</ele>
        <time>2020-09-17T10:09:42Z</time>
      </trkpt>
      <trkpt lat="45.40704" lon="3.3667">
        <ele>433</ele>
        <time>2020-09-17T10:09:43Z</time>
      </trkpt>
      <trkpt lat="45.40705" lon="3.36671">
        <ele>433</ele>
        <time>2020-09-17T10:09:44Z</time>
      </trkpt>
      <trkpt lat="45.40706" lon="3.36671">
        <ele>433</ele>
        <time>2020-09-17T10:09:45Z</time>
      </trkpt>
      <trkpt lat="45.40707" lon="3.36672">
        <ele>433</ele>
        <time>2020-09-17T10:09:46Z</time>
      </trkpt>
      <trkpt lat="45.40708" lon="3.36673">
        <ele>433</ele>
        <time>2020-09-17T10:09:47Z</time>
      </trkpt>
      <trkpt lat="45.40709" lon="3.36674">
        <ele>433</ele>
        <time>2020-09-17T10:09:48Z</time>
      </trkpt>
      <trkpt lat="45.4071" lon="3.36675">
        <ele>433</ele>
        <time>2020-09-17T10:09:49Z</time>
      </trkpt>
      <trkpt lat="45.4071" lon="3.36675">
        <ele>433</ele>
        <time>2020-09-17T10:09:50Z</time>
      </trkpt>
      <trkpt lat="45.40711" lon="3.36676">
        <ele>433</ele>
        <time>2020-09-17T10:09:51Z</time>
      </trkpt>
      <trkpt lat="45.40712" lon="3.36677">
        <ele>433</ele>
        <time>2020-09-17T10:09:52Z</time>
      </trkpt>
      <trkpt lat="45.40713" lon="3.36677">
        <ele>433</ele>
        <time>2020-09-17T10:09:53Z</time>
      </trkpt>
      <trkpt lat="45.40713" lon="3.36678">
        <ele>433</ele>
        <time>2020-09-17T10:09:54Z</time>
      </trkpt>
      <trkpt lat="45.40714" lon="3.36679">
        <ele>433</ele>
        <time>2020-09-17T10:09:55Z</time>
      </trkpt>
      <trkpt lat="45.40714" lon="3.3668">
        <ele>433</ele>
        <time>2020-09-17T10:09:56Z</time>
      </trkpt>
      <trkpt lat="45.40715" lon="3.36681">
        <ele>433</ele>
        <time>2020-09-17T10:09:57Z</time>
      </trkpt>
      <trkpt lat="45.40716" lon="3.36681">
        <ele>433</ele>
        <time>2020-09-17T10:09:58Z</time>
      </trkpt>
      <trkpt lat="45.40716" lon="3.36682">
        <ele>433</ele>
        <time>2020-09-17T10:09:59Z</time>
      </trkpt>
      <trkpt lat="45.40717" lon="3.36682">
        <ele>433</ele>
        <time>2020-09-17T10:10:00Z</time>
      </trkpt>
      <trkpt lat="45.40718" lon="3.36683">
        <ele>433</ele>
        <time>2020-09-17T10:10:01Z</time>
      </trkpt>
      <trkpt lat="45.40719" lon="3.36684">
        <ele>433</ele>
        <time>2020-09-17T10:10:02Z</time>
      </trkpt>
      <trkpt lat="45.4072" lon="3.36685">
        <ele>433</ele>
        <time>2020-09-17T10:10:03Z</time>
      </trkpt>
      <trkpt lat="45.4072" lon="3.36686">
        <ele>433</ele>
        <time>2020-09-17T10:10:04Z</time>
      </trkpt>
      <trkpt lat="45.40721" lon="3.36687">
        <ele>433</ele>
        <time>2020-09-17T10:10:05Z</time>
      </trkpt>
      <trkpt lat="45.40722" lon="3.36688">
        <ele>433</ele>
        <time>2020-09-17T10:10:06Z</time>
      </trkpt>
      <trkpt lat="45.40723" lon="3.36688">
        <ele>433</ele>
        <time>2020-09-17T10:10:07Z</time>
      </trkpt>
      <trkpt lat="45.40724" lon="3.36689">
        <ele>433</ele>
        <time>2020-09-17T10:10:08Z</time>
      </trkpt>
      <trkpt lat="45.40724" lon="3.3669">
        <ele>433</ele>
        <time>2020-09-17T10:10:09Z</time>
      </trkpt>
      <trkpt lat="45.40725" lon="3.36691">
        <ele>433</ele>
        <time>2020-09-17T10:10:10Z</time>
      </trkpt>
      <trkpt lat="45.40726" lon="3.36692">
        <ele>433</ele>
        <time>2020-09-17T10:10:11Z</time>
      </trkpt>
      <trkpt lat="45.40727" lon="3.36693">
        <ele>433</ele>
        <time>2020-09-17T10:10:12Z</time>
      </trkpt>
      <trkpt lat="45.40728" lon="3.36693">
        <ele>433</ele>
        <time>2020-09-17T10:10:13Z</time>
      </trkpt>
      <trkpt lat="45.4073" lon="3.36694">
        <ele>433</ele>
        <time>2020-09-17T10:10:14Z</time>
      </trkpt>
      <trkpt lat="45.40731" lon="3.36695">
        <ele>433</ele>
        <time>2020-09-17T10:10:15Z</time>
      </trkpt>
      <trkpt lat="45.40732" lon="3.36696">
        <ele>433.1</ele>
        <time>2020-09-17T10:10:16Z</time>
      </trkpt>
      <trkpt lat="45.40733" lon="3.36696">
        <ele>433.2</ele>
        <time>2020-09-17T10:10:17Z</time>
      </trkpt>
      <trkpt lat="45.40735" lon="3.36697">
        <ele>433.2</ele>
        <time>2020-09-17T10:10:18Z</time>
      </trkpt>
      <trkpt lat="45.40735" lon="3.36698">
        <ele>433.3</ele>
        <time>2020-09-17T10:10:19Z</time>
      </trkpt>
      <trkpt lat="45.40736" lon="3.36699">
        <ele>433.4</ele>
        <time>2020-09-17T10:10:20Z</time>
      </trkpt>
      <trkpt lat="45.40737" lon="3.36699">
        <ele>433.4</ele>
        <time>2020-09-17T10:10:21Z</time>
      </trkpt>
      <trkpt lat="45.40738" lon="3.367">
        <ele>433.4</ele>
        <time>2020-09-17T10:10:22Z</time>
      </trkpt>
      <trkpt lat="45.4074" lon="3.367">
        <ele>433.4</ele>
        <time>2020-09-17T10:10:23Z</time>
      </trkpt>
      <trkpt lat="45.40741" lon="3.36701">
        <ele>433.5</ele>
        <time>2020-09-17T10:10:24Z</time>
      </trkpt>
      <trkpt lat="45.40742" lon="3.36701">
        <ele>433.5</ele>
        <time>2020-09-17T10:10:25Z</time>
      </trkpt>
      <trkpt lat="45.40743" lon="3.36702">
        <ele>433.5</ele>
        <time>2020-09-17T10:10:26Z</time>
      </trkpt>
      <trkpt lat="45.40744" lon="3.36703">
        <ele>433.5</ele>
        <time>2020-09-17T10:10:27Z</time>
      </trkpt>
      <trkpt lat="45.40745" lon="3.36703">
        <ele>433.5</ele>
        <time>2020-09-17T10:10:28Z</time>
      </trkpt>
      <trkpt lat="45.40746" lon="3.36704">
        <ele>433.5</ele>
        <time>2020-09-17T10:10:29Z</time>
      </trkpt>
      <trkpt lat="45.40747" lon="3.36705">
        <ele>433.5</ele>
        <time>2020-09-17T10:10:30Z</time>
      </trkpt>
      <trkpt lat="45.40748" lon="3.36705">
        <ele>433.5</ele>
        <time>2020-09-17T10:10:31Z</time>
      </trkpt>
      <trkpt lat="45.40749" lon="3.36706">
        <ele>433.5</ele>
        <time>2020-09-17T10:10:32Z</time>
      </trkpt>
      <trkpt lat="45.4075" lon="3.36707">
        <ele>433.4</ele>
        <time>2020-09-17T10:10:33Z</time>
      </trkpt>
      <trkpt lat="45.40751" lon="3.36707">
        <ele>433.5</ele>
        <time>2020-09-17T10:10:34Z</time>
      </trkpt>
      <trkpt lat="45.40752" lon="3.36708">
        <ele>433.5</ele>
        <time>2020-09-17T10:10:35Z</time>
      </trkpt>
      <trkpt lat="45.40753" lon="3.36709">
        <ele>433.6</ele>
        <time>2020-09-17T10:10:36Z</time>
      </trkpt>
      <trkpt lat="45.40754" lon="3.36709">
        <ele>433.6</ele>
        <time>2020-09-17T10:10:37Z</time>
      </trkpt>
      <trkpt lat="45.40755" lon="3.3671">
        <ele>433.6</ele>
        <time>2020-09-17T10:10:38Z</time>
      </trkpt>
      <trkpt lat="45.40756" lon="3.36711">
        <ele>433.7</ele>
        <time>2020-09-17T10:10:39Z</time>
      </trkpt>
      <trkpt lat="45.40757" lon="3.36711">
        <ele>433.7</ele>
        <time>2020-09-17T10:10:40Z</time>
      </trkpt>
      <trkpt lat="45.40758" lon="3.36712">
        <ele>433.7</ele>
        <time>2020-09-17T10:10:41Z</time>
      </trkpt>
      <trkpt lat="45.40759" lon="3.36713">
        <ele>433.8</ele>
        <time>2020-09-17T10:10:42Z</time>
      </trkpt>
      <trkpt lat="45.4076" lon="3.36714">
        <ele>433.8</ele>
        <time>2020-09-17T10:10:43Z</time>
      </trkpt>
      <trkpt lat="45.40761" lon="3.36715">
        <ele>433.8</ele>
        <time>2020-09-17T10:10:44Z</time>
      </trkpt>
      <trkpt lat="45.40762" lon="3.36715">
        <ele>433.9</ele>
        <time>2020-09-17T10:10:45Z</time>
      </trkpt>
      <trkpt lat="45.40763" lon="3.36716">
        <ele>433.9</ele>
        <time>2020-09-17T10:10:46Z</time>
      </trkpt>
      <trkpt lat="45.40764" lon="3.36717">
        <ele>433.9</ele>
        <time>2020-09-17T10:10:47Z</time>
      </trkpt>
      <trkpt lat="45.40765" lon="3.36718">
        <ele>433.9</ele>
        <time>2020-09-17T10:10:48Z</time>
      </trkpt>
      <trkpt lat="45.40766" lon="3.36718">
        <ele>433.9</ele>
        <time>2020-09-17T10:10:49Z</time>
      </trkpt>
      <trkpt lat="45.40767" lon="3.36719">
        <ele>434</ele>
        <time>2020-09-17T10:10:50Z</time>
      </trkpt>
      <trkpt lat="45.40768" lon="3.3672">
        <ele>434</ele>
        <time>2020-09-17T10:10:51Z</time>
      </trkpt>
      <trkpt lat="45.40768" lon="3.36721">
        <ele>434</ele>
        <time>2020-09-17T10:10:52Z</time>
      </trkpt>
      <trkpt lat="45.40769" lon="3.36722">
        <ele>434</ele>
        <time>2020-09-17T10:10:53Z</time>
      </trkpt>
      <trkpt lat="45.4077" lon="3.36723">
        <ele>434.1</ele>
        <time>2020-09-17T10:10:54Z</time>
      </trkpt>
      <trkpt lat="45.40771" lon="3.36724">
        <ele>434.3</ele>
        <time>2020-09-17T10:10:55Z</time>
      </trkpt>
      <trkpt lat="45.40772" lon="3.36724">
        <ele>434.4</ele>
        <time>2020-09-17T10:10:56Z</time>
      </trkpt>
      <trkpt lat="45.40773" lon="3.36725">
        <ele>434.6</ele>
        <time>2020-09-17T10:10:57Z</time>
      </trkpt>
      <trkpt lat="45.40774" lon="3.36726">
        <ele>434.7</ele>
        <time>2020-09-17T10:10:58Z</time>
      </trkpt>
      <trkpt lat="45.40775" lon="3.36727">
        <ele>434.8</ele>
        <time>2020-09-17T10:10:59Z</time>
      </trkpt>
      <trkpt lat="45.40776" lon="3.36728">
        <ele>434.9</ele>
        <time>2020-09-17T10:11:00Z</time>
      </trkpt>
      <trkpt lat="45.40777" lon="3.36729">
        <ele>435</ele>
        <time>2020-09-17T10:11:01Z</time>
      </trkpt>
      <trkpt lat="45.40778" lon="3.3673">
        <ele>435.1</ele>
        <time>2020-09-17T10:11:02Z</time>
      </trkpt>
      <trkpt lat="45.40779" lon="3.36731">
        <ele>435.2</ele>
        <time>2020-09-17T10:11:03Z</time>
      </trkpt>
      <trkpt lat="45.4078" lon="3.36732">
        <ele>435.3</ele>
        <time>2020-09-17T10:11:04Z</time>
      </trkpt>
      <trkpt lat="45.40781" lon="3.36732">
        <ele>435.3</ele>
        <time>2020-09-17T10:11:05Z</time>
      </trkpt>
      <trkpt lat="45.40782" lon="3.36733">
        <ele>435.3</ele>
        <time>2020-09-17T10:11:06Z</time>
      </trkpt>
      <trkpt lat="45.40783" lon="3.36733">
        <ele>435.4</ele>
        <time>2020-09-17T10:11:07Z</time>
      </trkpt>
      <trkpt lat="45.40784" lon="3.36734">
        <ele>435.4</ele>
        <time>2020-09-17T10:11:08Z</time>
      </trkpt>
      <trkpt lat="45.40785" lon="3.36734">
        <ele>435.4</ele>
        <time>2020-09-17T10:11:09Z</time>
      </trkpt>
      <trkpt lat="45.40786" lon="3.36735">
        <ele>435.4</ele>
        <time>2020-09-17T10:11:10Z</time>
      </trkpt>
      <trkpt lat="45.40787" lon="3.36736">
        <ele>435.5</ele>
        <time>2020-09-17T10:11:11Z</time>
      </trkpt>
      <trkpt lat="45.40788" lon="3.36737">
        <ele>435.5</ele>
        <time>2020-09-17T10:11:12Z</time>
      </trkpt>
      <trkpt lat="45.40789" lon="3.36737">
        <ele>435.5</ele>
        <time>2020-09-17T10:11:13Z</time>
      </trkpt>
      <trkpt lat="45.40791" lon="3.36738">
        <ele>435.4</ele>
        <time>2020-09-17T10:11:14Z</time>
      </trkpt>
      <trkpt lat="45.40792" lon="3.36738">
        <ele>435.4</ele>
        <time>2020-09-17T10:11:15Z</time>
      </trkpt>
      <trkpt lat="45.40793" lon="3.36738">
        <ele>435.4</ele>
        <time>2020-09-17T10:11:16Z</time>
      </trkpt>
      <trkpt lat="45.40794" lon="3.36739">
        <ele>435.4</ele>
        <time>2020-09-17T10:11:17Z</time>
      </trkpt>
      <trkpt lat="45.40795" lon="3.3674">
        <ele>435.4</ele>
        <time>2020-09-17T10:11:18Z</time>
      </trkpt>
      <trkpt lat="45.40796" lon="3.36741">
        <ele>435.4</ele>
        <time>2020-09-17T10:11:19Z</time>
      </trkpt>
      <trkpt lat="45.40797" lon="3.36742">
        <ele>435.4</ele>
        <time>2020-09-17T10:11:20Z</time>
      </trkpt>
      <trkpt lat="45.40798" lon="3.36742">
        <ele>435.3</ele>
        <time>2020-09-17T10:11:21Z</time>
      </trkpt>
      <trkpt lat="45.40799" lon="3.36743">
        <ele>435.3</ele>
        <time>2020-09-17T10:11:22Z</time>
      </trkpt>
      <trkpt lat="45.408" lon="3.36744">
        <ele>435.2</ele>
        <time>2020-09-17T10:11:23Z</time>
      </trkpt>
      <trkpt lat="45.40801" lon="3.36744">
        <ele>435.1</ele>
        <time>2020-09-17T10:11:24Z</time>
      </trkpt>
      <trkpt lat="45.40803" lon="3.36744">
        <ele>435</ele>
        <time>2020-09-17T10:11:25Z</time>
      </trkpt>
      <trkpt lat="45.40804" lon="3.36745">
        <ele>435</ele>
        <time>2020-09-17T10:11:26Z</time>
      </trkpt>
      <trkpt lat="45.40805" lon="3.36745">
        <ele>434.9</ele>
        <time>2020-09-17T10:11:27Z</time>
      </trkpt>
      <trkpt lat="45.40806" lon="3.36746">
        <ele>434.8</ele>
        <time>2020-09-17T10:11:28Z</time>
      </trkpt>
      <trkpt lat="45.40806" lon="3.36746">
        <ele>434.8</ele>
        <time>2020-09-17T10:11:29Z</time>
      </trkpt>
      <trkpt lat="45.40807" lon="3.36746">
        <ele>434.8</ele>
        <time>2020-09-17T10:11:30Z</time>
      </trkpt>
      <trkpt lat="45.40808" lon="3.36746">
        <ele>434.8</ele>
        <time>2020-09-17T10:11:31Z</time>
      </trkpt>
      <trkpt lat="45.4081" lon="3.36747">
        <ele>434.8</ele>
        <time>2020-09-17T10:11:32Z</time>
      </trkpt>
      <trkpt lat="45.40811" lon="3.36747">
        <ele>434.8</ele>
        <time>2020-09-17T10:11:33Z</time>
      </trkpt>
      <trkpt lat="45.40812" lon="3.36748">
        <ele>434.8</ele>
        <time>2020-09-17T10:11:34Z</time>
      </trkpt>
      <trkpt lat="45.40813" lon="3.36749">
        <ele>434.7</ele>
        <time>2020-09-17T10:11:35Z</time>
      </trkpt>
      <trkpt lat="45.40814" lon="3.3675">
        <ele>434.7</ele>
        <time>2020-09-17T10:11:36Z</time>
      </trkpt>
      <trkpt lat="45.40815" lon="3.36751">
        <ele>434.8</ele>
        <time>2020-09-17T10:11:37Z</time>
      </trkpt>
      <trkpt lat="45.40816" lon="3.36751">
        <ele>434.9</ele>
        <time>2020-09-17T10:11:38Z</time>
      </trkpt>
      <trkpt lat="45.40817" lon="3.36752">
        <ele>435</ele>
        <time>2020-09-17T10:11:39Z</time>
      </trkpt>
      <trkpt lat="45.40818" lon="3.36752">
        <ele>435</ele>
        <time>2020-09-17T10:11:40Z</time>
      </trkpt>
      <trkpt lat="45.40819" lon="3.36753">
        <ele>435.1</ele>
        <time>2020-09-17T10:11:41Z</time>
      </trkpt>
      <trkpt lat="45.4082" lon="3.36754">
        <ele>435.2</ele>
        <time>2020-09-17T10:11:42Z</time>
      </trkpt>
      <trkpt lat="45.4082" lon="3.36754">
        <ele>435.2</ele>
        <time>2020-09-17T10:11:43Z</time>
      </trkpt>
      <trkpt lat="45.40821" lon="3.36754">
        <ele>435.3</ele>
        <time>2020-09-17T10:11:44Z</time>
      </trkpt>
      <trkpt lat="45.40822" lon="3.36755">
        <ele>435.3</ele>
        <time>2020-09-17T10:11:45Z</time>
      </trkpt>
      <trkpt lat="45.40822" lon="3.36756">
        <ele>435.4</ele>
        <time>2020-09-17T10:11:46Z</time>
      </trkpt>
      <trkpt lat="45.40823" lon="3.36756">
        <ele>435.5</ele>
        <time>2020-09-17T10:11:47Z</time>
      </trkpt>
      <trkpt lat="45.40824" lon="3.36757">
        <ele>435.5</ele>
        <time>2020-09-17T10:11:48Z</time>
      </trkpt>
      <trkpt lat="45.40825" lon="3.36758">
        <ele>435.6</ele>
        <time>2020-09-17T10:11:49Z</time>
      </trkpt>
      <trkpt lat="45.40825" lon="3.36758">
        <ele>435.6</ele>
        <time>2020-09-17T10:11:50Z</time>
      </trkpt>
      <trkpt lat="45.40826" lon="3.36759">
        <ele>435.7</ele>
        <time>2020-09-17T10:11:51Z</time>
      </trkpt>
      <trkpt lat="45.40827" lon="3.3676">
        <ele>435.7</ele>
        <time>2020-09-17T10:11:52Z</time>
      </trkpt>
      <trkpt lat="45.40827" lon="3.3676">
        <ele>435.8</ele>
        <time>2020-09-17T10:11:53Z</time>
      </trkpt>
      <trkpt lat="45.40828" lon="3.36761">
        <ele>435.8</ele>
        <time>2020-09-17T10:11:54Z</time>
      </trkpt>
      <trkpt lat="45.40829" lon="3.36761">
        <ele>435.7</ele>
        <time>2020-09-17T10:11:55Z</time>
      </trkpt>
      <trkpt lat="45.4083" lon="3.36762">
        <ele>435.6</ele>
        <time>2020-09-17T10:11:56Z</time>
      </trkpt>
      <trkpt lat="45.40831" lon="3.36763">
        <ele>435.6</ele>
        <time>2020-09-17T10:11:57Z</time>
      </trkpt>
      <trkpt lat="45.40832" lon="3.36764">
        <ele>435.6</ele>
        <time>2020-09-17T10:11:58Z</time>
      </trkpt>
      <trkpt lat="45.40833" lon="3.36765">
        <ele>435.6</ele>
        <time>2020-09-17T10:11:59Z</time>
      </trkpt>
      <trkpt lat="45.40834" lon="3.36766">
        <ele>435.6</ele>
        <time>2020-09-17T10:12:00Z</time>
      </trkpt>
      <trkpt lat="45.40836" lon="3.36766">
        <ele>435.7</ele>
        <time>2020-09-17T10:12:01Z</time>
      </trkpt>
      <trkpt lat="45.40836" lon="3.36767">
        <ele>435.7</ele>
        <time>2020-09-17T10:12:02Z</time>
      </trkpt>
      <trkpt lat="45.40837" lon="3.36767">
        <ele>435.7</ele>
        <time>2020-09-17T10:12:03Z</time>
      </trkpt>
      <trkpt lat="45.40838" lon="3.36768">
        <ele>435.8</ele>
        <time>2020-09-17T10:12:04Z</time>
      </trkpt>
      <trkpt lat="45.40839" lon="3.36769">
        <ele>435.8</ele>
        <time>2020-09-17T10:12:05Z</time>
      </trkpt>
      <trkpt lat="45.4084" lon="3.36769">
        <ele>435.8</ele>
        <time>2020-09-17T10:12:06Z</time>
      </trkpt>
      <trkpt lat="45.40841" lon="3.3677">
        <ele>435.9</ele>
        <time>2020-09-17T10:12:07Z</time>
      </trkpt>
      <trkpt lat="45.40841" lon="3.36771">
        <ele>435.9</ele>
        <time>2020-09-17T10:12:08Z</time>
      </trkpt>
      <trkpt lat="45.40842" lon="3.36771">
        <ele>435.9</ele>
        <time>2020-09-17T10:12:09Z</time>
      </trkpt>
      <trkpt lat="45.40843" lon="3.36772">
        <ele>435.9</ele>
        <time>2020-09-17T10:12:10Z</time>
      </trkpt>
      <trkpt lat="45.40844" lon="3.36772">
        <ele>435.8</ele>
        <time>2020-09-17T10:12:11Z</time>
      </trkpt>
      <trkpt lat="45.40845" lon="3.36772">
        <ele>435.8</ele>
        <time>2020-09-17T10:12:12Z</time>
      </trkpt>
      <trkpt lat="45.40846" lon="3.36773">
        <ele>435.8</ele>
        <time>2020-09-17T10:12:13Z</time>
      </trkpt>
      <trkpt lat="45.40848" lon="3.36774">
        <ele>435.8</ele>
        <time>2020-09-17T10:12:14Z</time>
      </trkpt>
      <trkpt lat="45.40849" lon="3.36774">
        <ele>435.7</ele>
        <time>2020-09-17T10:12:15Z</time>
      </trkpt>
      <trkpt lat="45.4085" lon="3.36775">
        <ele>435.7</ele>
        <time>2020-09-17T10:12:16Z</time>
      </trkpt>
      <trkpt lat="45.40851" lon="3.36775">
        <ele>435.6</ele>
        <time>2020-09-17T10:12:17Z</time>
      </trkpt>
      <trkpt lat="45.40852" lon="3.36776">
        <ele>435.6</ele>
        <time>2020-09-17T10:12:18Z</time>
      </trkpt>
      <trkpt lat="45.40853" lon="3.36777">
        <ele>435.5</ele>
        <time>2020-09-17T10:12:19Z</time>
      </trkpt>
      <trkpt lat="45.40855" lon="3.36777">
        <ele>435.4</ele>
        <time>2020-09-17T10:12:20Z</time>
      </trkpt>
      <trkpt lat="45.40856" lon="3.36777">
        <ele>435.4</ele>
        <time>2020-09-17T10:12:21Z</time>
      </trkpt>
      <trkpt lat="45.40857" lon="3.36777">
        <ele>435.3</ele>
        <time>2020-09-17T10:12:22Z</time>
      </trkpt>
      <trkpt lat="45.40858" lon="3.36777">
        <ele>435.2</ele>
        <time>2020-09-17T10:12:23Z</time>
      </trkpt>
      <trkpt lat="45.4086" lon="3.36777">
        <ele>435.1</ele>
        <time>2020-09-17T10:12:24Z</time>
      </trkpt>
      <trkpt lat="45.4086" lon="3.36777">
        <ele>435.1</ele>
        <time>2020-09-17T10:12:25Z</time>
      </trkpt>
      <trkpt lat="45.40861" lon="3.36777">
        <ele>435</ele>
        <time>2020-09-17T10:12:26Z</time>
      </trkpt>
      <trkpt lat="45.40862" lon="3.36778">
        <ele>435</ele>
        <time>2020-09-17T10:12:27Z</time>
      </trkpt>
      <trkpt lat="45.40863" lon="3.36778">
        <ele>434.9</ele>
        <time>2020-09-17T10:12:28Z</time>
      </trkpt>
      <trkpt lat="45.40864" lon="3.36778">
        <ele>434.9</ele>
        <time>2020-09-17T10:12:29Z</time>
      </trkpt>
      <trkpt lat="45.40865" lon="3.36778">
        <ele>434.9</ele>
        <time>2020-09-17T10:12:30Z</time>
      </trkpt>
      <trkpt lat="45.40866" lon="3.36778">
        <ele>434.9</ele>
        <time>2020-09-17T10:12:31Z</time>
      </trkpt>
      <trkpt lat="45.40866" lon="3.36778">
        <ele>434.8</ele>
        <time>2020-09-17T10:12:32Z</time>
      </trkpt>
      <trkpt lat="45.40867" lon="3.36778">
        <ele>434.8</ele>
        <time>2020-09-17T10:12:33Z</time>
      </trkpt>
      <trkpt lat="45.40867" lon="3.36778">
        <ele>434.8</ele>
        <time>2020-09-17T10:12:34Z</time>
      </trkpt>
      <trkpt lat="45.40868" lon="3.36778">
        <ele>434.8</ele>
        <time>2020-09-17T10:12:35Z</time>
      </trkpt>
      <trkpt lat="45.40869" lon="3.36778">
        <ele>434.7</ele>
        <time>2020-09-17T10:12:36Z</time>
      </trkpt>
      <trkpt lat="45.4087" lon="3.36777">
        <ele>434.7</ele>
        <time>2020-09-17T10:12:37Z</time>
      </trkpt>
      <trkpt lat="45.40871" lon="3.36777">
        <ele>434.7</ele>
        <time>2020-09-17T10:12:38Z</time>
      </trkpt>
      <trkpt lat="45.40871" lon="3.36777">
        <ele>434.7</ele>
        <time>2020-09-17T10:12:39Z</time>
      </trkpt>
      <trkpt lat="45.40872" lon="3.36777">
        <ele>434.6</ele>
        <time>2020-09-17T10:12:40Z</time>
      </trkpt>
      <trkpt lat="45.40873" lon="3.36778">
        <ele>434.6</ele>
        <time>2020-09-17T10:12:41Z</time>
      </trkpt>
      <trkpt lat="45.40874" lon="3.36778">
        <ele>434.5</ele>
        <time>2020-09-17T10:12:42Z</time>
      </trkpt>
      <trkpt lat="45.40875" lon="3.36778">
        <ele>434.6</ele>
        <time>2020-09-17T10:12:43Z</time>
      </trkpt>
      <trkpt lat="45.40876" lon="3.36778">
        <ele>434.6</ele>
        <time>2020-09-17T10:12:44Z</time>
      </trkpt>
      <trkpt lat="45.40877" lon="3.36779">
        <ele>434.7</ele>
        <time>2020-09-17T10:12:45Z</time>
      </trkpt>
      <trkpt lat="45.40879" lon="3.36779">
        <ele>434.8</ele>
        <time>2020-09-17T10:12:46Z</time>
      </trkpt>
      <trkpt lat="45.4088" lon="3.36779">
        <ele>434.9</ele>
        <time>2020-09-17T10:12:47Z</time>
      </trkpt>
      <trkpt lat="45.40881" lon="3.3678">
        <ele>434.9</ele>
        <time>2020-09-17T10:12:48Z</time>
      </trkpt>
      <trkpt lat="45.40882" lon="3.3678">
        <ele>434.9</ele>
        <time>2020-09-17T10:12:49Z</time>
      </trkpt>
      <trkpt lat="45.40883" lon="3.3678">
        <ele>434.9</ele>
        <time>2020-09-17T10:12:50Z</time>
      </trkpt>
      <trkpt lat="45.40884" lon="3.3678">
        <ele>434.9</ele>
        <time>2020-09-17T10:12:51Z</time>
      </trkpt>
      <trkpt lat="45.40886" lon="3.36781">
        <ele>434.9</ele>
        <time>2020-09-17T10:12:52Z</time>
      </trkpt>
      <trkpt lat="45.40887" lon="3.36781">
        <ele>435</ele>
        <time>2020-09-17T10:12:53Z</time>
      </trkpt>
      <trkpt lat="45.40888" lon="3.36781">
        <ele>435</ele>
        <time>2020-09-17T10:12:54Z</time>
      </trkpt>
      <trkpt lat="45.40889" lon="3.36782">
        <ele>435.1</ele>
        <time>2020-09-17T10:12:55Z</time>
      </trkpt>
      <trkpt lat="45.4089" lon="3.36782">
        <ele>435.3</ele>
        <time>2020-09-17T10:12:56Z</time>
      </trkpt>
      <trkpt lat="45.40891" lon="3.36782">
        <ele>435.4</ele>
        <time>2020-09-17T10:12:57Z</time>
      </trkpt>
      <trkpt lat="45.40892" lon="3.36783">
        <ele>435.5</ele>
        <time>2020-09-17T10:12:58Z</time>
      </trkpt>
      <trkpt lat="45.40893" lon="3.36783">
        <ele>435.6</ele>
        <time>2020-09-17T10:12:59Z</time>
      </trkpt>
      <trkpt lat="45.40894" lon="3.36783">
        <ele>435.6</ele>
        <time>2020-09-17T10:13:00Z</time>
      </trkpt>
      <trkpt lat="45.40895" lon="3.36783">
        <ele>435.6</ele>
        <time>2020-09-17T10:13:01Z</time>
      </trkpt>
      <trkpt lat="45.40895" lon="3.36783">
        <ele>435.7</ele>
        <time>2020-09-17T10:13:02Z</time>
      </trkpt>
      <trkpt lat="45.40896" lon="3.36783">
        <ele>435.7</ele>
        <time>2020-09-17T10:13:03Z</time>
      </trkpt>
      <trkpt lat="45.40896" lon="3.36783">
        <ele>435.7</ele>
        <time>2020-09-17T10:13:04Z</time>
      </trkpt>
      <trkpt lat="45.40897" lon="3.36783">
        <ele>435.7</ele>
        <time>2020-09-17T10:13:05Z</time>
      </trkpt>
      <trkpt lat="45.40897" lon="3.36783">
        <ele>435.8</ele>
        <time>2020-09-17T10:13:06Z</time>
      </trkpt>
      <trkpt lat="45.40897" lon="3.36783">
        <ele>435.8</ele>
        <time>2020-09-17T10:13:07Z</time>
      </trkpt>
      <trkpt lat="45.40897" lon="3.36783">
        <ele>435.8</ele>
        <time>2020-09-17T10:13:08Z</time>
      </trkpt>
      <trkpt lat="45.40897" lon="3.36783">
        <ele>435.8</ele>
        <time>2020-09-17T10:13:09Z</time>
      </trkpt>
      <trkpt lat="45.40897" lon="3.36783">
        <ele>435.8</ele>
        <time>2020-09-17T10:13:10Z</time>
      </trkpt>
      <trkpt lat="45.40897" lon="3.36783">
        <ele>435.8</ele>
        <time>2020-09-17T10:13:11Z</time>
      </trkpt>
      <trkpt lat="45.40898" lon="3.36783">
        <ele>435.8</ele>
        <time>2020-09-17T10:13:12Z</time>
      </trkpt>
      <trkpt lat="45.40898" lon="3.36783">
        <ele>435.9</ele>
        <time>2020-09-17T10:13:13Z</time>
      </trkpt>
      <trkpt lat="45.40898" lon="3.36783">
        <ele>435.9</ele>
        <time>2020-09-17T10:13:14Z</time>
      </trkpt>
      <trkpt lat="45.40899" lon="3.36783">
        <ele>435.9</ele>
        <time>2020-09-17T10:13:15Z</time>
      </trkpt>
      <trkpt lat="45.40899" lon="3.36784">
        <ele>436</ele>
        <time>2020-09-17T10:13:16Z</time>
      </trkpt>
      <trkpt lat="45.40899" lon="3.36784">
        <ele>436</ele>
        <time>2020-09-17T10:13:17Z</time>
      </trkpt>
      <trkpt lat="45.40899" lon="3.36784">
        <ele>436.1</ele>
        <time>2020-09-17T10:13:18Z</time>
      </trkpt>
      <trkpt lat="45.409" lon="3.36784">
        <ele>436.1</ele>
        <time>2020-09-17T10:13:19Z</time>
      </trkpt>
      <trkpt lat="45.409" lon="3.36784">
        <ele>436.1</ele>
        <time>2020-09-17T10:13:20Z</time>
      </trkpt>
      <trkpt lat="45.409" lon="3.36784">
        <ele>436.1</ele>
        <time>2020-09-17T10:13:21Z</time>
      </trkpt>
      <trkpt lat="45.40901" lon="3.36784">
        <ele>436.1</ele>
        <time>2020-09-17T10:13:22Z</time>
      </trkpt>
      <trkpt lat="45.40901" lon="3.36784">
        <ele>436.2</ele>
        <time>2020-09-17T10:13:23Z</time>
      </trkpt>
      <trkpt lat="45.40901" lon="3.36785">
        <ele>436.2</ele>
        <time>2020-09-17T10:13:24Z</time>
      </trkpt>
      <trkpt lat="45.40902" lon="3.36785">
        <ele>436.3</ele>
        <time>2020-09-17T10:13:25Z</time>
      </trkpt>
      <trkpt lat="45.40902" lon="3.36786">
        <ele>436.3</ele>
        <time>2020-09-17T10:13:26Z</time>
      </trkpt>
      <trkpt lat="45.40903" lon="3.36786">
        <ele>436.4</ele>
        <time>2020-09-17T10:13:27Z</time>
      </trkpt>
      <trkpt lat="45.40903" lon="3.36787">
        <ele>436.5</ele>
        <time>2020-09-17T10:13:28Z</time>
      </trkpt>
      <trkpt lat="45.40903" lon="3.36787">
        <ele>436.5</ele>
        <time>2020-09-17T10:13:29Z</time>
      </trkpt>
      <trkpt lat="45.40904" lon="3.36788">
        <ele>436.5</ele>
        <time>2020-09-17T10:13:30Z</time>
      </trkpt>
      <trkpt lat="45.40904" lon="3.36788">
        <ele>436.5</ele>
        <time>2020-09-17T10:13:31Z</time>
      </trkpt>
      <trkpt lat="45.40904" lon="3.36788">
        <ele>436.6</ele>
        <time>2020-09-17T10:13:32Z</time>
      </trkpt>
      <trkpt lat="45.40905" lon="3.36788">
        <ele>436.6</ele>
        <time>2020-09-17T10:13:33Z</time>
      </trkpt>
      <trkpt lat="45.40905" lon="3.36788">
        <ele>436.5</ele>
        <time>2020-09-17T10:13:34Z</time>
      </trkpt>
      <trkpt lat="45.40906" lon="3.36788">
        <ele>436.5</ele>
        <time>2020-09-17T10:13:35Z</time>
      </trkpt>
      <trkpt lat="45.40907" lon="3.36789">
        <ele>436.6</ele>
        <time>2020-09-17T10:13:36Z</time>
      </trkpt>
      <trkpt lat="45.40907" lon="3.36789">
        <ele>436.6</ele>
        <time>2020-09-17T10:13:37Z</time>
      </trkpt>
      <trkpt lat="45.40908" lon="3.3679">
        <ele>436.6</ele>
        <time>2020-09-17T10:13:38Z</time>
      </trkpt>
      <trkpt lat="45.40908" lon="3.3679">
        <ele>436.5</ele>
        <time>2020-09-17T10:13:39Z</time>
      </trkpt>
      <trkpt lat="45.40909" lon="3.3679">
        <ele>436.5</ele>
        <time>2020-09-17T10:13:40Z</time>
      </trkpt>
      <trkpt lat="45.40909" lon="3.3679">
        <ele>436.5</ele>
        <time>2020-09-17T10:13:41Z</time>
      </trkpt>
      <trkpt lat="45.4091" lon="3.3679">
        <ele>436.5</ele>
        <time>2020-09-17T10:13:42Z</time>
      </trkpt>
      <trkpt lat="45.4091" lon="3.36791">
        <ele>436.5</ele>
        <time>2020-09-17T10:13:43Z</time>
      </trkpt>
      <trkpt lat="45.40911" lon="3.36791">
        <ele>436.4</ele>
        <time>2020-09-17T10:13:44Z</time>
      </trkpt>
      <trkpt lat="45.40911" lon="3.36791">
        <ele>436.4</ele>
        <time>2020-09-17T10:13:45Z</time>
      </trkpt>
      <trkpt lat="45.40912" lon="3.36791">
        <ele>436.4</ele>
        <time>2020-09-17T10:13:46Z</time>
      </trkpt>
      <trkpt lat="45.40912" lon="3.36791">
        <ele>436.3</ele>
        <time>2020-09-17T10:13:47Z</time>
      </trkpt>
      <trkpt lat="45.40913" lon="3.36792">
        <ele>436.3</ele>
        <time>2020-09-17T10:13:48Z</time>
      </trkpt>
      <trkpt lat="45.40914" lon="3.36792">
        <ele>436.2</ele>
        <time>2020-09-17T10:13:49Z</time>
      </trkpt>
      <trkpt lat="45.40914" lon="3.36793">
        <ele>436.1</ele>
        <time>2020-09-17T10:13:50Z</time>
      </trkpt>
      <trkpt lat="45.40915" lon="3.36794">
        <ele>436</ele>
        <time>2020-09-17T10:13:51Z</time>
      </trkpt>
      <trkpt lat="45.40915" lon="3.36794">
        <ele>436</ele>
        <time>2020-09-17T10:13:52Z</time>
      </trkpt>
      <trkpt lat="45.40916" lon="3.36794">
        <ele>435.9</ele>
        <time>2020-09-17T10:13:53Z</time>
      </trkpt>
      <trkpt lat="45.40916" lon="3.36795">
        <ele>435.9</ele>
        <time>2020-09-17T10:13:54Z</time>
      </trkpt>
      <trkpt lat="45.40916" lon="3.36796">
        <ele>435.8</ele>
        <time>2020-09-17T10:13:55Z</time>
      </trkpt>
      <trkpt lat="45.40917" lon="3.36796">
        <ele>435.7</ele>
        <time>2020-09-17T10:13:56Z</time>
      </trkpt>
      <trkpt lat="45.40917" lon="3.36797">
        <ele>435.6</ele>
        <time>2020-09-17T10:13:57Z</time>
      </trkpt>
      <trkpt lat="45.40918" lon="3.36798">
        <ele>435.6</ele>
        <time>2020-09-17T10:13:58Z</time>
      </trkpt>
      <trkpt lat="45.40918" lon="3.36799">
        <ele>435.6</ele>
        <time>2020-09-17T10:13:59Z</time>
      </trkpt>
      <trkpt lat="45.40919" lon="3.36799">
        <ele>435.6</ele>
        <time>2020-09-17T10:14:00Z</time>
      </trkpt>
      <trkpt lat="45.4092" lon="3.368">
        <ele>435.6</ele>
        <time>2020-09-17T10:14:01Z</time>
      </trkpt>
      <trkpt lat="45.40921" lon="3.368">
        <ele>435.6</ele>
        <time>2020-09-17T10:14:02Z</time>
      </trkpt>
      <trkpt lat="45.40922" lon="3.36801">
        <ele>435.6</ele>
        <time>2020-09-17T10:14:03Z</time>
      </trkpt>
      <trkpt lat="45.40922" lon="3.36802">
        <ele>435.6</ele>
        <time>2020-09-17T10:14:04Z</time>
      </trkpt>
      <trkpt lat="45.40924" lon="3.36803">
        <ele>435.6</ele>
        <time>2020-09-17T10:14:05Z</time>
      </trkpt>
      <trkpt lat="45.40925" lon="3.36804">
        <ele>435.7</ele>
        <time>2020-09-17T10:14:06Z</time>
      </trkpt>
      <trkpt lat="45.40925" lon="3.36804">
        <ele>435.7</ele>
        <time>2020-09-17T10:14:07Z</time>
      </trkpt>
      <trkpt lat="45.40926" lon="3.36805">
        <ele>435.7</ele>
        <time>2020-09-17T10:14:08Z</time>
      </trkpt>
      <trkpt lat="45.40927" lon="3.36805">
        <ele>435.8</ele>
        <time>2020-09-17T10:14:09Z</time>
      </trkpt>
      <trkpt lat="45.40928" lon="3.36806">
        <ele>435.9</ele>
        <time>2020-09-17T10:14:10Z</time>
      </trkpt>
      <trkpt lat="45.40929" lon="3.36807">
        <ele>436.2</ele>
        <time>2020-09-17T10:14:11Z</time>
      </trkpt>
      <trkpt lat="45.40931" lon="3.36807">
        <ele>436.4</ele>
        <time>2020-09-17T10:14:12Z</time>
      </trkpt>
      <trkpt lat="45.40932" lon="3.36808">
        <ele>436.6</ele>
        <time>2020-09-17T10:14:13Z</time>
      </trkpt>
      <trkpt lat="45.40933" lon="3.36809">
        <ele>436.8</ele>
        <time>2020-09-17T10:14:14Z</time>
      </trkpt>
      <trkpt lat="45.40935" lon="3.3681">
        <ele>436.9</ele>
        <time>2020-09-17T10:14:15Z</time>
      </trkpt>
      <trkpt lat="45.40936" lon="3.3681">
        <ele>437</ele>
        <time>2020-09-17T10:14:16Z</time>
      </trkpt>
      <trkpt lat="45.40937" lon="3.36811">
        <ele>437.1</ele>
        <time>2020-09-17T10:14:17Z</time>
      </trkpt>
      <trkpt lat="45.40939" lon="3.36811">
        <ele>437.1</ele>
        <time>2020-09-17T10:14:18Z</time>
      </trkpt>
      <trkpt lat="45.4094" lon="3.36811">
        <ele>437.1</ele>
        <time>2020-09-17T10:14:19Z</time>
      </trkpt>
      <trkpt lat="45.40941" lon="3.36812">
        <ele>437.1</ele>
        <time>2020-09-17T10:14:20Z</time>
      </trkpt>
      <trkpt lat="45.40941" lon="3.36812">
        <ele>437.1</ele>
        <time>2020-09-17T10:14:21Z</time>
      </trkpt>
      <trkpt lat="45.40942" lon="3.36813">
        <ele>437.1</ele>
        <time>2020-09-17T10:14:22Z</time>
      </trkpt>
      <trkpt lat="45.40943" lon="3.36813">
        <ele>437.1</ele>
        <time>2020-09-17T10:14:23Z</time>
      </trkpt>
      <trkpt lat="45.40944" lon="3.36814">
        <ele>437</ele>
        <time>2020-09-17T10:14:24Z</time>
      </trkpt>
      <trkpt lat="45.40946" lon="3.36814">
        <ele>437</ele>
        <time>2020-09-17T10:14:25Z</time>
      </trkpt>
      <trkpt lat="45.40947" lon="3.36815">
        <ele>437</ele>
        <time>2020-09-17T10:14:26Z</time>
      </trkpt>
      <trkpt lat="45.40948" lon="3.36815">
        <ele>437</ele>
        <time>2020-09-17T10:14:27Z</time>
      </trkpt>
      <trkpt lat="45.40949" lon="3.36815">
        <ele>437</ele>
        <time>2020-09-17T10:14:28Z</time>
      </trkpt>
      <trkpt lat="45.40951" lon="3.36815">
        <ele>437</ele>
        <time>2020-09-17T10:14:29Z</time>
      </trkpt>
      <trkpt lat="45.40952" lon="3.36816">
        <ele>437</ele>
        <time>2020-09-17T10:14:30Z</time>
      </trkpt>
      <trkpt lat="45.40953" lon="3.36816">
        <ele>437</ele>
        <time>2020-09-17T10:14:31Z</time>
      </trkpt>
      <trkpt lat="45.40954" lon="3.36816">
        <ele>437</ele>
        <time>2020-09-17T10:14:32Z</time>
      </trkpt>
      <trkpt lat="45.40955" lon="3.36816">
        <ele>437</ele>
        <time>2020-09-17T10:14:33Z</time>
      </trkpt>
      <trkpt lat="45.40956" lon="3.36816">
        <ele>437</ele>
        <time>2020-09-17T10:14:34Z</time>
      </trkpt>
      <trkpt lat="45.40957" lon="3.36816">
        <ele>437</ele>
        <time>2020-09-17T10:14:35Z</time>
      </trkpt>
      <trkpt lat="45.40957" lon="3.36816">
        <ele>437</ele>
        <time>2020-09-17T10:14:36Z</time>
      </trkpt>
      <trkpt lat="45.40958" lon="3.36816">
        <ele>437</ele>
        <time>2020-09-17T10:14:37Z</time>
      </trkpt>
      <trkpt lat="45.40959" lon="3.36816">
        <ele>437</ele>
        <time>2020-09-17T10:14:38Z</time>
      </trkpt>
      <trkpt lat="45.40959" lon="3.36816">
        <ele>437</ele>
        <time>2020-09-17T10:14:39Z</time>
      </trkpt>
      <trkpt lat="45.4096" lon="3.36816">
        <ele>437</ele>
        <time>2020-09-17T10:14:40Z</time>
      </trkpt>
      <trkpt lat="45.40961" lon="3.36816">
        <ele>437</ele>
        <time>2020-09-17T10:14:41Z</time>
      </trkpt>
      <trkpt lat="45.40961" lon="3.36816">
        <ele>437</ele>
        <time>2020-09-17T10:14:42Z</time>
      </trkpt>
      <trkpt lat="45.40962" lon="3.36815">
        <ele>437</ele>
        <time>2020-09-17T10:14:43Z</time>
      </trkpt>
      <trkpt lat="45.40963" lon="3.36815">
        <ele>437</ele>
        <time>2020-09-17T10:14:44Z</time>
      </trkpt>
      <trkpt lat="45.40964" lon="3.36815">
        <ele>437</ele>
        <time>2020-09-17T10:14:45Z</time>
      </trkpt>
      <trkpt lat="45.40965" lon="3.36815">
        <ele>437</ele>
        <time>2020-09-17T10:14:46Z</time>
      </trkpt>
      <trkpt lat="45.40965" lon="3.36814">
        <ele>437</ele>
        <time>2020-09-17T10:14:47Z</time>
      </trkpt>
      <trkpt lat="45.40966" lon="3.36814">
        <ele>437</ele>
        <time>2020-09-17T10:14:48Z</time>
      </trkpt>
      <trkpt lat="45.40966" lon="3.36814">
        <ele>437</ele>
        <time>2020-09-17T10:14:49Z</time>
      </trkpt>
      <trkpt lat="45.40967" lon="3.36814">
        <ele>437</ele>
        <time>2020-09-17T10:14:50Z</time>
      </trkpt>
      <trkpt lat="45.40967" lon="3.36814">
        <ele>437</ele>
        <time>2020-09-17T10:14:51Z</time>
      </trkpt>
      <trkpt lat="45.40967" lon="3.36814">
        <ele>437</ele>
        <time>2020-09-17T10:14:52Z</time>
      </trkpt>
      <trkpt lat="45.40968" lon="3.36813">
        <ele>437</ele>
        <time>2020-09-17T10:14:53Z</time>
      </trkpt>
      <trkpt lat="45.40969" lon="3.36813">
        <ele>437</ele>
        <time>2020-09-17T10:14:54Z</time>
      </trkpt>
      <trkpt lat="45.4097" lon="3.36813">
        <ele>437</ele>
        <time>2020-09-17T10:14:55Z</time>
      </trkpt>
      <trkpt lat="45.40971" lon="3.36812">
        <ele>437</ele>
        <time>2020-09-17T10:14:56Z</time>
      </trkpt>
      <trkpt lat="45.40973" lon="3.36812">
        <ele>437</ele>
        <time>2020-09-17T10:14:57Z</time>
      </trkpt>
      <trkpt lat="45.40974" lon="3.36812">
        <ele>437</ele>
        <time>2020-09-17T10:14:58Z</time>
      </trkpt>
      <trkpt lat="45.40975" lon="3.36811">
        <ele>437.1</ele>
        <time>2020-09-17T10:14:59Z</time>
      </trkpt>
      <trkpt lat="45.40976" lon="3.36811">
        <ele>437.1</ele>
        <time>2020-09-17T10:15:00Z</time>
      </trkpt>
      <trkpt lat="45.40977" lon="3.36811">
        <ele>437.1</ele>
        <time>2020-09-17T10:15:01Z</time>
      </trkpt>
      <trkpt lat="45.40978" lon="3.3681">
        <ele>437.1</ele>
        <time>2020-09-17T10:15:02Z</time>
      </trkpt>
      <trkpt lat="45.4098" lon="3.3681">
        <ele>437.1</ele>
        <time>2020-09-17T10:15:03Z</time>
      </trkpt>
      <trkpt lat="45.40981" lon="3.3681">
        <ele>437.1</ele>
        <time>2020-09-17T10:15:04Z</time>
      </trkpt>
      <trkpt lat="45.40981" lon="3.3681">
        <ele>437.1</ele>
        <time>2020-09-17T10:15:05Z</time>
      </trkpt>
      <trkpt lat="45.40982" lon="3.36809">
        <ele>437.1</ele>
        <time>2020-09-17T10:15:06Z</time>
      </trkpt>
      <trkpt lat="45.40983" lon="3.36809">
        <ele>437.1</ele>
        <time>2020-09-17T10:15:07Z</time>
      </trkpt>
      <trkpt lat="45.40984" lon="3.36809">
        <ele>437.1</ele>
        <time>2020-09-17T10:15:08Z</time>
      </trkpt>
      <trkpt lat="45.40985" lon="3.36809">
        <ele>437.1</ele>
        <time>2020-09-17T10:15:09Z</time>
      </trkpt>
      <trkpt lat="45.40985" lon="3.36809">
        <ele>437.1</ele>
        <time>2020-09-17T10:15:10Z</time>
      </trkpt>
      <trkpt lat="45.40986" lon="3.36809">
        <ele>437.2</ele>
        <time>2020-09-17T10:15:11Z</time>
      </trkpt>
      <trkpt lat="45.40987" lon="3.36809">
        <ele>437.2</ele>
        <time>2020-09-17T10:15:12Z</time>
      </trkpt>
      <trkpt lat="45.40988" lon="3.36809">
        <ele>437.2</ele>
        <time>2020-09-17T10:15:13Z</time>
      </trkpt>
      <trkpt lat="45.4099" lon="3.36809">
        <ele>437.3</ele>
        <time>2020-09-17T10:15:14Z</time>
      </trkpt>
      <trkpt lat="45.40992" lon="3.3681">
        <ele>437.3</ele>
        <time>2020-09-17T10:15:15Z</time>
      </trkpt>
      <trkpt lat="45.40993" lon="3.3681">
        <ele>437.4</ele>
        <time>2020-09-17T10:15:16Z</time>
      </trkpt>
      <trkpt lat="45.40995" lon="3.36811">
        <ele>437.4</ele>
        <time>2020-09-17T10:15:17Z</time>
      </trkpt>
      <trkpt lat="45.40996" lon="3.36811">
        <ele>437.5</ele>
        <time>2020-09-17T10:15:18Z</time>
      </trkpt>
      <trkpt lat="45.40997" lon="3.36811">
        <ele>437.6</ele>
        <time>2020-09-17T10:15:19Z</time>
      </trkpt>
      <trkpt lat="45.40998" lon="3.36811">
        <ele>437.6</ele>
        <time>2020-09-17T10:15:20Z</time>
      </trkpt>
      <trkpt lat="45.40999" lon="3.36811">
        <ele>437.6</ele>
        <time>2020-09-17T10:15:21Z</time>
      </trkpt>
      <trkpt lat="45.41" lon="3.3681">
        <ele>437.5</ele>
        <time>2020-09-17T10:15:22Z</time>
      </trkpt>
      <trkpt lat="45.41002" lon="3.36809">
        <ele>437.5</ele>
        <time>2020-09-17T10:15:23Z</time>
      </trkpt>
      <trkpt lat="45.41003" lon="3.36809">
        <ele>437.5</ele>
        <time>2020-09-17T10:15:24Z</time>
      </trkpt>
      <trkpt lat="45.41005" lon="3.36809">
        <ele>437.5</ele>
        <time>2020-09-17T10:15:25Z</time>
      </trkpt>
      <trkpt lat="45.41007" lon="3.36809">
        <ele>437.6</ele>
        <time>2020-09-17T10:15:26Z</time>
      </trkpt>
      <trkpt lat="45.41008" lon="3.36809">
        <ele>437.6</ele>
        <time>2020-09-17T10:15:27Z</time>
      </trkpt>
      <trkpt lat="45.41009" lon="3.36808">
        <ele>437.6</ele>
        <time>2020-09-17T10:15:28Z</time>
      </trkpt>
      <trkpt lat="45.41011" lon="3.36809">
        <ele>437.7</ele>
        <time>2020-09-17T10:15:29Z</time>
      </trkpt>
      <trkpt lat="45.41011" lon="3.36809">
        <ele>437.7</ele>
        <time>2020-09-17T10:15:30Z</time>
      </trkpt>
      <trkpt lat="45.41011" lon="3.36808">
        <ele>437.7</ele>
        <time>2020-09-17T10:15:31Z</time>
      </trkpt>
      <trkpt lat="45.41012" lon="3.36808">
        <ele>437.7</ele>
        <time>2020-09-17T10:15:32Z</time>
      </trkpt>
      <trkpt lat="45.41013" lon="3.36808">
        <ele>437.7</ele>
        <time>2020-09-17T10:15:33Z</time>
      </trkpt>
      <trkpt lat="45.41013" lon="3.36808">
        <ele>437.7</ele>
        <time>2020-09-17T10:15:34Z</time>
      </trkpt>
      <trkpt lat="45.41014" lon="3.36808">
        <ele>437.7</ele>
        <time>2020-09-17T10:15:35Z</time>
      </trkpt>
      <trkpt lat="45.41015" lon="3.36808">
        <ele>437.8</ele>
        <time>2020-09-17T10:15:36Z</time>
      </trkpt>
      <trkpt lat="45.41016" lon="3.36808">
        <ele>437.8</ele>
        <time>2020-09-17T10:15:37Z</time>
      </trkpt>
      <trkpt lat="45.41016" lon="3.36808">
        <ele>437.8</ele>
        <time>2020-09-17T10:15:38Z</time>
      </trkpt>
      <trkpt lat="45.41016" lon="3.36808">
        <ele>437.8</ele>
        <time>2020-09-17T10:15:39Z</time>
      </trkpt>
      <trkpt lat="45.41017" lon="3.36808">
        <ele>437.8</ele>
        <time>2020-09-17T10:15:40Z</time>
      </trkpt>
      <trkpt lat="45.41018" lon="3.36808">
        <ele>437.9</ele>
        <time>2020-09-17T10:15:41Z</time>
      </trkpt>
      <trkpt lat="45.41019" lon="3.36808">
        <ele>437.9</ele>
        <time>2020-09-17T10:15:42Z</time>
      </trkpt>
      <trkpt lat="45.4102" lon="3.36808">
        <ele>437.9</ele>
        <time>2020-09-17T10:15:43Z</time>
      </trkpt>
      <trkpt lat="45.4102" lon="3.36808">
        <ele>437.9</ele>
        <time>2020-09-17T10:15:44Z</time>
      </trkpt>
      <trkpt lat="45.41021" lon="3.36808">
        <ele>438</ele>
        <time>2020-09-17T10:15:45Z</time>
      </trkpt>
      <trkpt lat="45.41021" lon="3.36808">
        <ele>438.1</ele>
        <time>2020-09-17T10:15:46Z</time>
      </trkpt>
      <trkpt lat="45.41022" lon="3.36808">
        <ele>438.1</ele>
        <time>2020-09-17T10:15:47Z</time>
      </trkpt>
      <trkpt lat="45.41023" lon="3.36809">
        <ele>438.1</ele>
        <time>2020-09-17T10:15:48Z</time>
      </trkpt>
      <trkpt lat="45.41024" lon="3.36809">
        <ele>438.2</ele>
        <time>2020-09-17T10:15:49Z</time>
      </trkpt>
      <trkpt lat="45.41025" lon="3.36809">
        <ele>438.2</ele>
        <time>2020-09-17T10:15:50Z</time>
      </trkpt>
      <trkpt lat="45.41025" lon="3.36809">
        <ele>438.3</ele>
        <time>2020-09-17T10:15:51Z</time>
      </trkpt>
      <trkpt lat="45.41026" lon="3.36809">
        <ele>438.3</ele>
        <time>2020-09-17T10:15:52Z</time>
      </trkpt>
      <trkpt lat="45.41027" lon="3.36809">
        <ele>438.4</ele>
        <time>2020-09-17T10:15:53Z</time>
      </trkpt>
      <trkpt lat="45.41028" lon="3.36809">
        <ele>438.4</ele>
        <time>2020-09-17T10:15:54Z</time>
      </trkpt>
      <trkpt lat="45.41028" lon="3.36809">
        <ele>438.4</ele>
        <time>2020-09-17T10:15:55Z</time>
      </trkpt>
      <trkpt lat="45.41029" lon="3.36809">
        <ele>438.4</ele>
        <time>2020-09-17T10:15:56Z</time>
      </trkpt>
      <trkpt lat="45.41029" lon="3.3681">
        <ele>438.4</ele>
        <time>2020-09-17T10:15:57Z</time>
      </trkpt>
      <trkpt lat="45.4103" lon="3.3681">
        <ele>438.5</ele>
        <time>2020-09-17T10:15:58Z</time>
      </trkpt>
      <trkpt lat="45.4103" lon="3.3681">
        <ele>438.5</ele>
        <time>2020-09-17T10:15:59Z</time>
      </trkpt>
      <trkpt lat="45.41031" lon="3.36811">
        <ele>438.6</ele>
        <time>2020-09-17T10:16:00Z</time>
      </trkpt>
      <trkpt lat="45.41032" lon="3.36811">
        <ele>438.7</ele>
        <time>2020-09-17T10:16:01Z</time>
      </trkpt>
      <trkpt lat="45.41033" lon="3.36812">
        <ele>438.8</ele>
        <time>2020-09-17T10:16:02Z</time>
      </trkpt>
      <trkpt lat="45.41034" lon="3.36813">
        <ele>438.8</ele>
        <time>2020-09-17T10:16:03Z</time>
      </trkpt>
      <trkpt lat="45.41035" lon="3.36814">
        <ele>438.9</ele>
        <time>2020-09-17T10:16:04Z</time>
      </trkpt>
      <trkpt lat="45.41036" lon="3.36814">
        <ele>439</ele>
        <time>2020-09-17T10:16:05Z</time>
      </trkpt>
      <trkpt lat="45.41037" lon="3.36815">
        <ele>439</ele>
        <time>2020-09-17T10:16:06Z</time>
      </trkpt>
      <trkpt lat="45.41039" lon="3.36815">
        <ele>439</ele>
        <time>2020-09-17T10:16:07Z</time>
      </trkpt>
      <trkpt lat="45.4104" lon="3.36815">
        <ele>439</ele>
        <time>2020-09-17T10:16:08Z</time>
      </trkpt>
      <trkpt lat="45.41041" lon="3.36816">
        <ele>439</ele>
        <time>2020-09-17T10:16:09Z</time>
      </trkpt>
      <trkpt lat="45.41043" lon="3.36816">
        <ele>439.1</ele>
        <time>2020-09-17T10:16:10Z</time>
      </trkpt>
      <trkpt lat="45.41044" lon="3.36816">
        <ele>439.1</ele>
        <time>2020-09-17T10:16:11Z</time>
      </trkpt>
      <trkpt lat="45.41046" lon="3.36816">
        <ele>439.1</ele>
        <time>2020-09-17T10:16:12Z</time>
      </trkpt>
      <trkpt lat="45.41047" lon="3.36816">
        <ele>439</ele>
        <time>2020-09-17T10:16:13Z</time>
      </trkpt>
      <trkpt lat="45.41049" lon="3.36816">
        <ele>439</ele>
        <time>2020-09-17T10:16:14Z</time>
      </trkpt>
      <trkpt lat="45.4105" lon="3.36816">
        <ele>439</ele>
        <time>2020-09-17T10:16:15Z</time>
      </trkpt>
      <trkpt lat="45.41052" lon="3.36816">
        <ele>439</ele>
        <time>2020-09-17T10:16:16Z</time>
      </trkpt>
      <trkpt lat="45.41053" lon="3.36816">
        <ele>439</ele>
        <time>2020-09-17T10:16:17Z</time>
      </trkpt>
      <trkpt lat="45.41055" lon="3.36816">
        <ele>439</ele>
        <time>2020-09-17T10:16:18Z</time>
      </trkpt>
      <trkpt lat="45.41057" lon="3.36815">
        <ele>439</ele>
        <time>2020-09-17T10:16:19Z</time>
      </trkpt>
      <trkpt lat="45.41059" lon="3.36815">
        <ele>439</ele>
        <time>2020-09-17T10:16:20Z</time>
      </trkpt>
      <trkpt lat="45.4106" lon="3.36815">
        <ele>439</ele>
        <time>2020-09-17T10:16:21Z</time>
      </trkpt>
      <trkpt lat="45.41061" lon="3.36815">
        <ele>439</ele>
        <time>2020-09-17T10:16:22Z</time>
      </trkpt>
      <trkpt lat="45.41061" lon="3.36815">
        <ele>439</ele>
        <time>2020-09-17T10:16:23Z</time>
      </trkpt>
      <trkpt lat="45.41062" lon="3.36815">
        <ele>439</ele>
        <time>2020-09-17T10:16:24Z</time>
      </trkpt>
      <trkpt lat="45.41063" lon="3.36814">
        <ele>439</ele>
        <time>2020-09-17T10:16:25Z</time>
      </trkpt>
      <trkpt lat="45.41064" lon="3.36814">
        <ele>439</ele>
        <time>2020-09-17T10:16:26Z</time>
      </trkpt>
      <trkpt lat="45.41066" lon="3.36813">
        <ele>439</ele>
        <time>2020-09-17T10:16:27Z</time>
      </trkpt>
      <trkpt lat="45.41067" lon="3.36813">
        <ele>439</ele>
        <time>2020-09-17T10:16:28Z</time>
      </trkpt>
      <trkpt lat="45.41068" lon="3.36812">
        <ele>439</ele>
        <time>2020-09-17T10:16:29Z</time>
      </trkpt>
      <trkpt lat="45.4107" lon="3.36812">
        <ele>439</ele>
        <time>2020-09-17T10:16:30Z</time>
      </trkpt>
      <trkpt lat="45.41071" lon="3.36811">
        <ele>439</ele>
        <time>2020-09-17T10:16:31Z</time>
      </trkpt>
      <trkpt lat="45.41072" lon="3.36811">
        <ele>439</ele>
        <time>2020-09-17T10:16:32Z</time>
      </trkpt>
      <trkpt lat="45.41074" lon="3.36811">
        <ele>439</ele>
        <time>2020-09-17T10:16:33Z</time>
      </trkpt>
      <trkpt lat="45.41074" lon="3.3681">
        <ele>439</ele>
        <time>2020-09-17T10:16:34Z</time>
      </trkpt>
      <trkpt lat="45.41075" lon="3.3681">
        <ele>439</ele>
        <time>2020-09-17T10:16:35Z</time>
      </trkpt>
      <trkpt lat="45.41075" lon="3.36811">
        <ele>439</ele>
        <time>2020-09-17T10:16:36Z</time>
      </trkpt>
      <trkpt lat="45.41076" lon="3.36811">
        <ele>439</ele>
        <time>2020-09-17T10:16:37Z</time>
      </trkpt>
      <trkpt lat="45.41077" lon="3.36811">
        <ele>439</ele>
        <time>2020-09-17T10:16:38Z</time>
      </trkpt>
      <trkpt lat="45.41078" lon="3.36811">
        <ele>439</ele>
        <time>2020-09-17T10:16:39Z</time>
      </trkpt>
      <trkpt lat="45.4108" lon="3.36811">
        <ele>439</ele>
        <time>2020-09-17T10:16:40Z</time>
      </trkpt>
      <trkpt lat="45.41081" lon="3.36811">
        <ele>439</ele>
        <time>2020-09-17T10:16:41Z</time>
      </trkpt>
      <trkpt lat="45.41082" lon="3.36811">
        <ele>439</ele>
        <time>2020-09-17T10:16:42Z</time>
      </trkpt>
      <trkpt lat="45.41083" lon="3.36812">
        <ele>439</ele>
        <time>2020-09-17T10:16:43Z</time>
      </trkpt>
      <trkpt lat="45.41084" lon="3.36812">
        <ele>439</ele>
        <time>2020-09-17T10:16:44Z</time>
      </trkpt>
      <trkpt lat="45.41084" lon="3.36812">
        <ele>439</ele>
        <time>2020-09-17T10:16:45Z</time>
      </trkpt>
      <trkpt lat="45.41085" lon="3.36812">
        <ele>439.1</ele>
        <time>2020-09-17T10:16:46Z</time>
      </trkpt>
      <trkpt lat="45.41085" lon="3.36812">
        <ele>439.1</ele>
        <time>2020-09-17T10:16:47Z</time>
      </trkpt>
      <trkpt lat="45.41086" lon="3.36812">
        <ele>439.1</ele>
        <time>2020-09-17T10:16:48Z</time>
      </trkpt>
      <trkpt lat="45.41087" lon="3.36812">
        <ele>439.1</ele>
        <time>2020-09-17T10:16:49Z</time>
      </trkpt>
      <trkpt lat="45.41087" lon="3.36812">
        <ele>439.1</ele>
        <time>2020-09-17T10:16:50Z</time>
      </trkpt>
      <trkpt lat="45.41088" lon="3.36812">
        <ele>439.1</ele>
        <time>2020-09-17T10:16:51Z</time>
      </trkpt>
      <trkpt lat="45.41088" lon="3.36812">
        <ele>439.2</ele>
        <time>2020-09-17T10:16:52Z</time>
      </trkpt>
      <trkpt lat="45.41088" lon="3.36812">
        <ele>439.2</ele>
        <time>2020-09-17T10:16:53Z</time>
      </trkpt>
      <trkpt lat="45.41089" lon="3.36812">
        <ele>439.2</ele>
        <time>2020-09-17T10:16:54Z</time>
      </trkpt>
      <trkpt lat="45.41089" lon="3.36812">
        <ele>439.2</ele>
        <time>2020-09-17T10:16:55Z</time>
      </trkpt>
      <trkpt lat="45.4109" lon="3.36812">
        <ele>439.2</ele>
        <time>2020-09-17T10:16:56Z</time>
      </trkpt>
      <trkpt lat="45.4109" lon="3.36812">
        <ele>439.2</ele>
        <time>2020-09-17T10:16:57Z</time>
      </trkpt>
      <trkpt lat="45.4109" lon="3.36812">
        <ele>439.2</ele>
        <time>2020-09-17T10:16:58Z</time>
      </trkpt>
      <trkpt lat="45.4109" lon="3.36812">
        <ele>439.3</ele>
        <time>2020-09-17T10:16:59Z</time>
      </trkpt>
      <trkpt lat="45.41091" lon="3.36812">
        <ele>439.3</ele>
        <time>2020-09-17T10:17:00Z</time>
      </trkpt>
      <trkpt lat="45.41091" lon="3.36812">
        <ele>439.3</ele>
        <time>2020-09-17T10:17:01Z</time>
      </trkpt>
      <trkpt lat="45.41091" lon="3.36811">
        <ele>439.3</ele>
        <time>2020-09-17T10:17:02Z</time>
      </trkpt>
      <trkpt lat="45.41092" lon="3.36811">
        <ele>439.3</ele>
        <time>2020-09-17T10:17:03Z</time>
      </trkpt>
      <trkpt lat="45.41092" lon="3.36811">
        <ele>439.3</ele>
        <time>2020-09-17T10:17:04Z</time>
      </trkpt>
      <trkpt lat="45.41093" lon="3.36811">
        <ele>439.3</ele>
        <time>2020-09-17T10:17:05Z</time>
      </trkpt>
      <trkpt lat="45.41093" lon="3.36811">
        <ele>439.3</ele>
        <time>2020-09-17T10:17:06Z</time>
      </trkpt>
      <trkpt lat="45.41094" lon="3.36811">
        <ele>439.4</ele>
        <time>2020-09-17T10:17:07Z</time>
      </trkpt>
      <trkpt lat="45.41094" lon="3.36811">
        <ele>439.4</ele>
        <time>2020-09-17T10:17:08Z</time>
      </trkpt>
      <trkpt lat="45.41095" lon="3.36811">
        <ele>439.4</ele>
        <time>2020-09-17T10:17:09Z</time>
      </trkpt>
      <trkpt lat="45.41095" lon="3.36812">
        <ele>439.4</ele>
        <time>2020-09-17T10:17:10Z</time>
      </trkpt>
      <trkpt lat="45.41096" lon="3.36812">
        <ele>439.4</ele>
        <time>2020-09-17T10:17:11Z</time>
      </trkpt>
      <trkpt lat="45.41096" lon="3.36813">
        <ele>439.5</ele>
        <time>2020-09-17T10:17:12Z</time>
      </trkpt>
      <trkpt lat="45.41096" lon="3.36813">
        <ele>439.5</ele>
        <time>2020-09-17T10:17:13Z</time>
      </trkpt>
      <trkpt lat="45.41097" lon="3.36813">
        <ele>439.5</ele>
        <time>2020-09-17T10:17:14Z</time>
      </trkpt>
      <trkpt lat="45.41097" lon="3.36813">
        <ele>439.5</ele>
        <time>2020-09-17T10:17:15Z</time>
      </trkpt>
      <trkpt lat="45.41097" lon="3.36814">
        <ele>439.5</ele>
        <time>2020-09-17T10:17:16Z</time>
      </trkpt>
      <trkpt lat="45.41098" lon="3.36814">
        <ele>439.5</ele>
        <time>2020-09-17T10:17:17Z</time>
      </trkpt>
      <trkpt lat="45.41098" lon="3.36815">
        <ele>439.5</ele>
        <time>2020-09-17T10:17:18Z</time>
      </trkpt>
      <trkpt lat="45.41099" lon="3.36816">
        <ele>439.5</ele>
        <time>2020-09-17T10:17:19Z</time>
      </trkpt>
      <trkpt lat="45.41099" lon="3.36816">
        <ele>439.6</ele>
        <time>2020-09-17T10:17:20Z</time>
      </trkpt>
      <trkpt lat="45.41099" lon="3.36817">
        <ele>439.6</ele>
        <time>2020-09-17T10:17:21Z</time>
      </trkpt>
      <trkpt lat="45.411" lon="3.36817">
        <ele>439.6</ele>
        <time>2020-09-17T10:17:22Z</time>
      </trkpt>
      <trkpt lat="45.411" lon="3.36818">
        <ele>439.6</ele>
        <time>2020-09-17T10:17:23Z</time>
      </trkpt>
      <trkpt lat="45.411" lon="3.36818">
        <ele>439.6</ele>
        <time>2020-09-17T10:17:24Z</time>
      </trkpt>
      <trkpt lat="45.411" lon="3.36818">
        <ele>439.6</ele>
        <time>2020-09-17T10:17:25Z</time>
      </trkpt>
      <trkpt lat="45.41101" lon="3.36819">
        <ele>439.6</ele>
        <time>2020-09-17T10:17:26Z</time>
      </trkpt>
      <trkpt lat="45.41101" lon="3.3682">
        <ele>439.6</ele>
        <time>2020-09-17T10:17:27Z</time>
      </trkpt>
      <trkpt lat="45.41102" lon="3.36821">
        <ele>439.7</ele>
        <time>2020-09-17T10:17:28Z</time>
      </trkpt>
      <trkpt lat="45.41102" lon="3.36821">
        <ele>439.7</ele>
        <time>2020-09-17T10:17:29Z</time>
      </trkpt>
      <trkpt lat="45.41103" lon="3.36822">
        <ele>439.7</ele>
        <time>2020-09-17T10:17:30Z</time>
      </trkpt>
      <trkpt lat="45.41104" lon="3.36823">
        <ele>439.7</ele>
        <time>2020-09-17T10:17:31Z</time>
      </trkpt>
      <trkpt lat="45.41104" lon="3.36824">
        <ele>439.8</ele>
        <time>2020-09-17T10:17:32Z</time>
      </trkpt>
      <trkpt lat="45.41105" lon="3.36825">
        <ele>439.8</ele>
        <time>2020-09-17T10:17:33Z</time>
      </trkpt>
      <trkpt lat="45.41106" lon="3.36825">
        <ele>439.8</ele>
        <time>2020-09-17T10:17:34Z</time>
      </trkpt>
      <trkpt lat="45.41107" lon="3.36826">
        <ele>439.8</ele>
        <time>2020-09-17T10:17:35Z</time>
      </trkpt>
      <trkpt lat="45.41108" lon="3.36827">
        <ele>439.9</ele>
        <time>2020-09-17T10:17:36Z</time>
      </trkpt>
      <trkpt lat="45.41109" lon="3.36828">
        <ele>439.9</ele>
        <time>2020-09-17T10:17:37Z</time>
      </trkpt>
      <trkpt lat="45.41109" lon="3.36829">
        <ele>439.9</ele>
        <time>2020-09-17T10:17:38Z</time>
      </trkpt>
      <trkpt lat="45.4111" lon="3.3683">
        <ele>440</ele>
        <time>2020-09-17T10:17:39Z</time>
      </trkpt>
      <trkpt lat="45.41111" lon="3.36831">
        <ele>440</ele>
        <time>2020-09-17T10:17:40Z</time>
      </trkpt>
      <trkpt lat="45.41112" lon="3.36831">
        <ele>440</ele>
        <time>2020-09-17T10:17:41Z</time>
      </trkpt>
      <trkpt lat="45.41112" lon="3.36832">
        <ele>440</ele>
        <time>2020-09-17T10:17:42Z</time>
      </trkpt>
      <trkpt lat="45.41113" lon="3.36832">
        <ele>440</ele>
        <time>2020-09-17T10:17:43Z</time>
      </trkpt>
      <trkpt lat="45.41113" lon="3.36832">
        <ele>440</ele>
        <time>2020-09-17T10:17:44Z</time>
      </trkpt>
      <trkpt lat="45.41114" lon="3.36833">
        <ele>440</ele>
        <time>2020-09-17T10:17:45Z</time>
      </trkpt>
      <trkpt lat="45.41114" lon="3.36833">
        <ele>440</ele>
        <time>2020-09-17T10:17:46Z</time>
      </trkpt>
      <trkpt lat="45.41115" lon="3.36833">
        <ele>440</ele>
        <time>2020-09-17T10:17:47Z</time>
      </trkpt>
      <trkpt lat="45.41116" lon="3.36833">
        <ele>440</ele>
        <time>2020-09-17T10:17:48Z</time>
      </trkpt>
      <trkpt lat="45.41117" lon="3.36834">
        <ele>440.1</ele>
        <time>2020-09-17T10:17:49Z</time>
      </trkpt>
      <trkpt lat="45.41118" lon="3.36834">
        <ele>440.2</ele>
        <time>2020-09-17T10:17:50Z</time>
      </trkpt>
      <trkpt lat="45.4112" lon="3.36835">
        <ele>440.3</ele>
        <time>2020-09-17T10:17:51Z</time>
      </trkpt>
      <trkpt lat="45.41121" lon="3.36836">
        <ele>440.5</ele>
        <time>2020-09-17T10:17:52Z</time>
      </trkpt>
      <trkpt lat="45.41122" lon="3.36836">
        <ele>440.6</ele>
        <time>2020-09-17T10:17:53Z</time>
      </trkpt>
      <trkpt lat="45.41123" lon="3.36837">
        <ele>440.7</ele>
        <time>2020-09-17T10:17:54Z</time>
      </trkpt>
      <trkpt lat="45.41124" lon="3.36838">
        <ele>440.8</ele>
        <time>2020-09-17T10:17:55Z</time>
      </trkpt>
      <trkpt lat="45.41124" lon="3.36839">
        <ele>440.9</ele>
        <time>2020-09-17T10:17:56Z</time>
      </trkpt>
      <trkpt lat="45.41126" lon="3.36839">
        <ele>440.9</ele>
        <time>2020-09-17T10:17:57Z</time>
      </trkpt>
      <trkpt lat="45.41127" lon="3.3684">
        <ele>440.9</ele>
        <time>2020-09-17T10:17:58Z</time>
      </trkpt>
      <trkpt lat="45.41128" lon="3.3684">
        <ele>440.9</ele>
        <time>2020-09-17T10:17:59Z</time>
      </trkpt>
      <trkpt lat="45.41129" lon="3.36841">
        <ele>440.9</ele>
        <time>2020-09-17T10:18:00Z</time>
      </trkpt>
      <trkpt lat="45.4113" lon="3.36842">
        <ele>440.8</ele>
        <time>2020-09-17T10:18:01Z</time>
      </trkpt>
      <trkpt lat="45.41132" lon="3.36842">
        <ele>440.7</ele>
        <time>2020-09-17T10:18:02Z</time>
      </trkpt>
      <trkpt lat="45.41133" lon="3.36843">
        <ele>440.7</ele>
        <time>2020-09-17T10:18:03Z</time>
      </trkpt>
      <trkpt lat="45.41134" lon="3.36843">
        <ele>440.6</ele>
        <time>2020-09-17T10:18:04Z</time>
      </trkpt>
      <trkpt lat="45.41135" lon="3.36844">
        <ele>440.4</ele>
        <time>2020-09-17T10:18:05Z</time>
      </trkpt>
      <trkpt lat="45.41137" lon="3.36845">
        <ele>440.3</ele>
        <time>2020-09-17T10:18:06Z</time>
      </trkpt>
      <trkpt lat="45.41138" lon="3.36846">
        <ele>440.1</ele>
        <time>2020-09-17T10:18:07Z</time>
      </trkpt>
      <trkpt lat="45.41139" lon="3.36846">
        <ele>440</ele>
        <time>2020-09-17T10:18:08Z</time>
      </trkpt>
      <trkpt lat="45.4114" lon="3.36847">
        <ele>440</ele>
        <time>2020-09-17T10:18:09Z</time>
      </trkpt>
      <trkpt lat="45.41141" lon="3.36847">
        <ele>440</ele>
        <time>2020-09-17T10:18:10Z</time>
      </trkpt>
      <trkpt lat="45.41143" lon="3.36848">
        <ele>440</ele>
        <time>2020-09-17T10:18:11Z</time>
      </trkpt>
      <trkpt lat="45.41144" lon="3.36849">
        <ele>440</ele>
        <time>2020-09-17T10:18:12Z</time>
      </trkpt>
      <trkpt lat="45.41145" lon="3.3685">
        <ele>440</ele>
        <time>2020-09-17T10:18:13Z</time>
      </trkpt>
      <trkpt lat="45.41146" lon="3.36851">
        <ele>440.1</ele>
        <time>2020-09-17T10:18:14Z</time>
      </trkpt>
      <trkpt lat="45.41147" lon="3.36851">
        <ele>440.1</ele>
        <time>2020-09-17T10:18:15Z</time>
      </trkpt>
      <trkpt lat="45.41149" lon="3.36852">
        <ele>440.1</ele>
        <time>2020-09-17T10:18:16Z</time>
      </trkpt>
      <trkpt lat="45.4115" lon="3.36853">
        <ele>440.2</ele>
        <time>2020-09-17T10:18:17Z</time>
      </trkpt>
      <trkpt lat="45.41151" lon="3.36854">
        <ele>440.2</ele>
        <time>2020-09-17T10:18:18Z</time>
      </trkpt>
      <trkpt lat="45.41152" lon="3.36854">
        <ele>440.2</ele>
        <time>2020-09-17T10:18:19Z</time>
      </trkpt>
      <trkpt lat="45.41153" lon="3.36855">
        <ele>440.3</ele>
        <time>2020-09-17T10:18:20Z</time>
      </trkpt>
      <trkpt lat="45.41154" lon="3.36856">
        <ele>440.3</ele>
        <time>2020-09-17T10:18:21Z</time>
      </trkpt>
      <trkpt lat="45.41155" lon="3.36857">
        <ele>440.4</ele>
        <time>2020-09-17T10:18:22Z</time>
      </trkpt>
      <trkpt lat="45.41156" lon="3.36857">
        <ele>440.4</ele>
        <time>2020-09-17T10:18:23Z</time>
      </trkpt>
      <trkpt lat="45.41157" lon="3.36858">
        <ele>440.5</ele>
        <time>2020-09-17T10:18:24Z</time>
      </trkpt>
      <trkpt lat="45.41158" lon="3.36859">
        <ele>440.6</ele>
        <time>2020-09-17T10:18:25Z</time>
      </trkpt>
      <trkpt lat="45.41159" lon="3.36859">
        <ele>440.6</ele>
        <time>2020-09-17T10:18:26Z</time>
      </trkpt>
      <trkpt lat="45.4116" lon="3.3686">
        <ele>440.7</ele>
        <time>2020-09-17T10:18:27Z</time>
      </trkpt>
      <trkpt lat="45.41162" lon="3.36861">
        <ele>440.8</ele>
        <time>2020-09-17T10:18:28Z</time>
      </trkpt>
      <trkpt lat="45.41163" lon="3.36862">
        <ele>440.9</ele>
        <time>2020-09-17T10:18:29Z</time>
      </trkpt>
      <trkpt lat="45.41164" lon="3.36862">
        <ele>441</ele>
        <time>2020-09-17T10:18:30Z</time>
      </trkpt>
      <trkpt lat="45.41165" lon="3.36863">
        <ele>441</ele>
        <time>2020-09-17T10:18:31Z</time>
      </trkpt>
      <trkpt lat="45.41166" lon="3.36864">
        <ele>441.1</ele>
        <time>2020-09-17T10:18:32Z</time>
      </trkpt>
      <trkpt lat="45.41167" lon="3.36865">
        <ele>441.1</ele>
        <time>2020-09-17T10:18:33Z</time>
      </trkpt>
      <trkpt lat="45.41168" lon="3.36866">
        <ele>441.2</ele>
        <time>2020-09-17T10:18:34Z</time>
      </trkpt>
      <trkpt lat="45.41169" lon="3.36866">
        <ele>441.2</ele>
        <time>2020-09-17T10:18:35Z</time>
      </trkpt>
      <trkpt lat="45.4117" lon="3.36867">
        <ele>441.2</ele>
        <time>2020-09-17T10:18:36Z</time>
      </trkpt>
      <trkpt lat="45.41171" lon="3.36868">
        <ele>441.3</ele>
        <time>2020-09-17T10:18:37Z</time>
      </trkpt>
      <trkpt lat="45.41172" lon="3.36869">
        <ele>441.3</ele>
        <time>2020-09-17T10:18:38Z</time>
      </trkpt>
      <trkpt lat="45.41173" lon="3.3687">
        <ele>441.3</ele>
        <time>2020-09-17T10:18:39Z</time>
      </trkpt>
      <trkpt lat="45.41174" lon="3.36871">
        <ele>441.3</ele>
        <time>2020-09-17T10:18:40Z</time>
      </trkpt>
      <trkpt lat="45.41175" lon="3.36871">
        <ele>441.4</ele>
        <time>2020-09-17T10:18:41Z</time>
      </trkpt>
      <trkpt lat="45.41176" lon="3.36872">
        <ele>441.4</ele>
        <time>2020-09-17T10:18:42Z</time>
      </trkpt>
      <trkpt lat="45.41178" lon="3.36873">
        <ele>441.4</ele>
        <time>2020-09-17T10:18:43Z</time>
      </trkpt>
      <trkpt lat="45.41179" lon="3.36873">
        <ele>441.4</ele>
        <time>2020-09-17T10:18:44Z</time>
      </trkpt>
      <trkpt lat="45.4118" lon="3.36874">
        <ele>441.5</ele>
        <time>2020-09-17T10:18:45Z</time>
      </trkpt>
      <trkpt lat="45.41181" lon="3.36875">
        <ele>441.5</ele>
        <time>2020-09-17T10:18:46Z</time>
      </trkpt>
      <trkpt lat="45.41182" lon="3.36875">
        <ele>441.5</ele>
        <time>2020-09-17T10:18:47Z</time>
      </trkpt>
      <trkpt lat="45.41183" lon="3.36876">
        <ele>441.5</ele>
        <time>2020-09-17T10:18:48Z</time>
      </trkpt>
      <trkpt lat="45.41184" lon="3.36876">
        <ele>441.5</ele>
        <time>2020-09-17T10:18:49Z</time>
      </trkpt>
      <trkpt lat="45.41185" lon="3.36877">
        <ele>441.6</ele>
        <time>2020-09-17T10:18:50Z</time>
      </trkpt>
      <trkpt lat="45.41186" lon="3.36877">
        <ele>441.6</ele>
        <time>2020-09-17T10:18:51Z</time>
      </trkpt>
      <trkpt lat="45.41187" lon="3.36878">
        <ele>441.6</ele>
        <time>2020-09-17T10:18:52Z</time>
      </trkpt>
      <trkpt lat="45.41188" lon="3.36878">
        <ele>441.6</ele>
        <time>2020-09-17T10:18:53Z</time>
      </trkpt>
      <trkpt lat="45.4119" lon="3.36879">
        <ele>441.6</ele>
        <time>2020-09-17T10:18:54Z</time>
      </trkpt>
      <trkpt lat="45.41191" lon="3.3688">
        <ele>441.7</ele>
        <time>2020-09-17T10:18:55Z</time>
      </trkpt>
      <trkpt lat="45.41192" lon="3.3688">
        <ele>441.7</ele>
        <time>2020-09-17T10:18:56Z</time>
      </trkpt>
      <trkpt lat="45.41193" lon="3.3688">
        <ele>441.7</ele>
        <time>2020-09-17T10:18:57Z</time>
      </trkpt>
      <trkpt lat="45.41194" lon="3.36881">
        <ele>441.7</ele>
        <time>2020-09-17T10:18:58Z</time>
      </trkpt>
      <trkpt lat="45.41195" lon="3.36881">
        <ele>441.7</ele>
        <time>2020-09-17T10:18:59Z</time>
      </trkpt>
      <trkpt lat="45.41196" lon="3.36882">
        <ele>441.7</ele>
        <time>2020-09-17T10:19:00Z</time>
      </trkpt>
      <trkpt lat="45.41198" lon="3.36882">
        <ele>441.8</ele>
        <time>2020-09-17T10:19:01Z</time>
      </trkpt>
      <trkpt lat="45.41199" lon="3.36882">
        <ele>441.8</ele>
        <time>2020-09-17T10:19:02Z</time>
      </trkpt>
      <trkpt lat="45.412" lon="3.36883">
        <ele>441.8</ele>
        <time>2020-09-17T10:19:03Z</time>
      </trkpt>
      <trkpt lat="45.41201" lon="3.36883">
        <ele>441.8</ele>
        <time>2020-09-17T10:19:04Z</time>
      </trkpt>
      <trkpt lat="45.41202" lon="3.36883">
        <ele>441.8</ele>
        <time>2020-09-17T10:19:05Z</time>
      </trkpt>
      <trkpt lat="45.41203" lon="3.36883">
        <ele>441.8</ele>
        <time>2020-09-17T10:19:06Z</time>
      </trkpt>
      <trkpt lat="45.41205" lon="3.36883">
        <ele>441.8</ele>
        <time>2020-09-17T10:19:07Z</time>
      </trkpt>
      <trkpt lat="45.41206" lon="3.36883">
        <ele>441.8</ele>
        <time>2020-09-17T10:19:08Z</time>
      </trkpt>
      <trkpt lat="45.41207" lon="3.36884">
        <ele>441.8</ele>
        <time>2020-09-17T10:19:09Z</time>
      </trkpt>
      <trkpt lat="45.41208" lon="3.36884">
        <ele>441.8</ele>
        <time>2020-09-17T10:19:10Z</time>
      </trkpt>
      <trkpt lat="45.41209" lon="3.36884">
        <ele>441.8</ele>
        <time>2020-09-17T10:19:11Z</time>
      </trkpt>
      <trkpt lat="45.4121" lon="3.36885">
        <ele>441.9</ele>
        <time>2020-09-17T10:19:12Z</time>
      </trkpt>
      <trkpt lat="45.41211" lon="3.36886">
        <ele>441.9</ele>
        <time>2020-09-17T10:19:13Z</time>
      </trkpt>
      <trkpt lat="45.41212" lon="3.36887">
        <ele>441.9</ele>
        <time>2020-09-17T10:19:14Z</time>
      </trkpt>
      <trkpt lat="45.41213" lon="3.36888">
        <ele>442</ele>
        <time>2020-09-17T10:19:15Z</time>
      </trkpt>
      <trkpt lat="45.41214" lon="3.36889">
        <ele>442</ele>
        <time>2020-09-17T10:19:16Z</time>
      </trkpt>
      <trkpt lat="45.41215" lon="3.36891">
        <ele>442.1</ele>
        <time>2020-09-17T10:19:17Z</time>
      </trkpt>
      <trkpt lat="45.41215" lon="3.36892">
        <ele>442.1</ele>
        <time>2020-09-17T10:19:18Z</time>
      </trkpt>
      <trkpt lat="45.41216" lon="3.36893">
        <ele>442.1</ele>
        <time>2020-09-17T10:19:19Z</time>
      </trkpt>
      <trkpt lat="45.41217" lon="3.36894">
        <ele>442.2</ele>
        <time>2020-09-17T10:19:20Z</time>
      </trkpt>
      <trkpt lat="45.41218" lon="3.36895">
        <ele>442.2</ele>
        <time>2020-09-17T10:19:21Z</time>
      </trkpt>
      <trkpt lat="45.41219" lon="3.36896">
        <ele>442.3</ele>
        <time>2020-09-17T10:19:22Z</time>
      </trkpt>
      <trkpt lat="45.4122" lon="3.36897">
        <ele>442.3</ele>
        <time>2020-09-17T10:19:23Z</time>
      </trkpt>
      <trkpt lat="45.41221" lon="3.36898">
        <ele>442.3</ele>
        <time>2020-09-17T10:19:24Z</time>
      </trkpt>
      <trkpt lat="45.41222" lon="3.36899">
        <ele>442.3</ele>
        <time>2020-09-17T10:19:25Z</time>
      </trkpt>
      <trkpt lat="45.41223" lon="3.36899">
        <ele>442.4</ele>
        <time>2020-09-17T10:19:26Z</time>
      </trkpt>
      <trkpt lat="45.41224" lon="3.369">
        <ele>442.4</ele>
        <time>2020-09-17T10:19:27Z</time>
      </trkpt>
      <trkpt lat="45.41225" lon="3.36901">
        <ele>442.4</ele>
        <time>2020-09-17T10:19:28Z</time>
      </trkpt>
      <trkpt lat="45.41226" lon="3.36902">
        <ele>442.4</ele>
        <time>2020-09-17T10:19:29Z</time>
      </trkpt>
      <trkpt lat="45.41227" lon="3.36902">
        <ele>442.4</ele>
        <time>2020-09-17T10:19:30Z</time>
      </trkpt>
      <trkpt lat="45.41228" lon="3.36903">
        <ele>442.4</ele>
        <time>2020-09-17T10:19:31Z</time>
      </trkpt>
      <trkpt lat="45.4123" lon="3.36904">
        <ele>442.4</ele>
        <time>2020-09-17T10:19:32Z</time>
      </trkpt>
      <trkpt lat="45.41231" lon="3.36905">
        <ele>442.4</ele>
        <time>2020-09-17T10:19:33Z</time>
      </trkpt>
      <trkpt lat="45.41232" lon="3.36905">
        <ele>442.4</ele>
        <time>2020-09-17T10:19:34Z</time>
      </trkpt>
      <trkpt lat="45.41233" lon="3.36906">
        <ele>442.4</ele>
        <time>2020-09-17T10:19:35Z</time>
      </trkpt>
      <trkpt lat="45.41234" lon="3.36907">
        <ele>442.4</ele>
        <time>2020-09-17T10:19:36Z</time>
      </trkpt>
      <trkpt lat="45.41235" lon="3.36908">
        <ele>442.4</ele>
        <time>2020-09-17T10:19:37Z</time>
      </trkpt>
      <trkpt lat="45.41236" lon="3.36909">
        <ele>442.4</ele>
        <time>2020-09-17T10:19:38Z</time>
      </trkpt>
      <trkpt lat="45.41237" lon="3.3691">
        <ele>442.4</ele>
        <time>2020-09-17T10:19:39Z</time>
      </trkpt>
      <trkpt lat="45.41238" lon="3.36911">
        <ele>442.4</ele>
        <time>2020-09-17T10:19:40Z</time>
      </trkpt>
      <trkpt lat="45.41239" lon="3.36912">
        <ele>442.3</ele>
        <time>2020-09-17T10:19:41Z</time>
      </trkpt>
      <trkpt lat="45.4124" lon="3.36913">
        <ele>442.3</ele>
        <time>2020-09-17T10:19:42Z</time>
      </trkpt>
      <trkpt lat="45.41241" lon="3.36914">
        <ele>442.3</ele>
        <time>2020-09-17T10:19:43Z</time>
      </trkpt>
      <trkpt lat="45.41242" lon="3.36916">
        <ele>442.3</ele>
        <time>2020-09-17T10:19:44Z</time>
      </trkpt>
      <trkpt lat="45.41243" lon="3.36916">
        <ele>442.3</ele>
        <time>2020-09-17T10:19:45Z</time>
      </trkpt>
      <trkpt lat="45.41244" lon="3.36917">
        <ele>442.3</ele>
        <time>2020-09-17T10:19:46Z</time>
      </trkpt>
      <trkpt lat="45.41245" lon="3.36918">
        <ele>442.3</ele>
        <time>2020-09-17T10:19:47Z</time>
      </trkpt>
      <trkpt lat="45.41246" lon="3.36919">
        <ele>442.3</ele>
        <time>2020-09-17T10:19:48Z</time>
      </trkpt>
      <trkpt lat="45.41247" lon="3.3692">
        <ele>442.3</ele>
        <time>2020-09-17T10:19:49Z</time>
      </trkpt>
      <trkpt lat="45.41248" lon="3.36921">
        <ele>442.3</ele>
        <time>2020-09-17T10:19:50Z</time>
      </trkpt>
      <trkpt lat="45.41249" lon="3.36922">
        <ele>442.2</ele>
        <time>2020-09-17T10:19:51Z</time>
      </trkpt>
      <trkpt lat="45.4125" lon="3.36923">
        <ele>442.2</ele>
        <time>2020-09-17T10:19:52Z</time>
      </trkpt>
      <trkpt lat="45.41251" lon="3.36924">
        <ele>442.3</ele>
        <time>2020-09-17T10:19:53Z</time>
      </trkpt>
      <trkpt lat="45.41252" lon="3.36925">
        <ele>442.3</ele>
        <time>2020-09-17T10:19:54Z</time>
      </trkpt>
      <trkpt lat="45.41253" lon="3.36925">
        <ele>442.3</ele>
        <time>2020-09-17T10:19:55Z</time>
      </trkpt>
      <trkpt lat="45.41254" lon="3.36926">
        <ele>442.3</ele>
        <time>2020-09-17T10:19:56Z</time>
      </trkpt>
      <trkpt lat="45.41255" lon="3.36927">
        <ele>442.3</ele>
        <time>2020-09-17T10:19:57Z</time>
      </trkpt>
      <trkpt lat="45.41256" lon="3.36928">
        <ele>442.3</ele>
        <time>2020-09-17T10:19:58Z</time>
      </trkpt>
      <trkpt lat="45.41257" lon="3.36929">
        <ele>442.3</ele>
        <time>2020-09-17T10:19:59Z</time>
      </trkpt>
      <trkpt lat="45.41258" lon="3.3693">
        <ele>442.3</ele>
        <time>2020-09-17T10:20:00Z</time>
      </trkpt>
      <trkpt lat="45.41259" lon="3.3693">
        <ele>442.3</ele>
        <time>2020-09-17T10:20:01Z</time>
      </trkpt>
      <trkpt lat="45.4126" lon="3.36931">
        <ele>442.3</ele>
        <time>2020-09-17T10:20:02Z</time>
      </trkpt>
      <trkpt lat="45.41261" lon="3.36932">
        <ele>442.3</ele>
        <time>2020-09-17T10:20:03Z</time>
      </trkpt>
      <trkpt lat="45.41262" lon="3.36932">
        <ele>442.3</ele>
        <time>2020-09-17T10:20:04Z</time>
      </trkpt>
      <trkpt lat="45.41263" lon="3.36933">
        <ele>442.3</ele>
        <time>2020-09-17T10:20:05Z</time>
      </trkpt>
      <trkpt lat="45.41264" lon="3.36933">
        <ele>442.3</ele>
        <time>2020-09-17T10:20:06Z</time>
      </trkpt>
      <trkpt lat="45.41265" lon="3.36934">
        <ele>442.3</ele>
        <time>2020-09-17T10:20:07Z</time>
      </trkpt>
      <trkpt lat="45.41266" lon="3.36934">
        <ele>442.3</ele>
        <time>2020-09-17T10:20:08Z</time>
      </trkpt>
      <trkpt lat="45.41267" lon="3.36935">
        <ele>442.3</ele>
        <time>2020-09-17T10:20:09Z</time>
      </trkpt>
      <trkpt lat="45.41268" lon="3.36936">
        <ele>442.2</ele>
        <time>2020-09-17T10:20:10Z</time>
      </trkpt>
      <trkpt lat="45.41269" lon="3.36936">
        <ele>442.2</ele>
        <time>2020-09-17T10:20:11Z</time>
      </trkpt>
      <trkpt lat="45.4127" lon="3.36937">
        <ele>442.2</ele>
        <time>2020-09-17T10:20:12Z</time>
      </trkpt>
      <trkpt lat="45.4127" lon="3.36937">
        <ele>442.2</ele>
        <time>2020-09-17T10:20:13Z</time>
      </trkpt>
      <trkpt lat="45.41271" lon="3.36938">
        <ele>442.2</ele>
        <time>2020-09-17T10:20:14Z</time>
      </trkpt>
      <trkpt lat="45.41272" lon="3.36938">
        <ele>442.2</ele>
        <time>2020-09-17T10:20:15Z</time>
      </trkpt>
      <trkpt lat="45.41273" lon="3.36939">
        <ele>442.1</ele>
        <time>2020-09-17T10:20:16Z</time>
      </trkpt>
      <trkpt lat="45.41273" lon="3.36939">
        <ele>442.1</ele>
        <time>2020-09-17T10:20:17Z</time>
      </trkpt>
      <trkpt lat="45.41274" lon="3.3694">
        <ele>442.1</ele>
        <time>2020-09-17T10:20:18Z</time>
      </trkpt>
      <trkpt lat="45.41275" lon="3.3694">
        <ele>442.1</ele>
        <time>2020-09-17T10:20:19Z</time>
      </trkpt>
      <trkpt lat="45.41276" lon="3.36941">
        <ele>442.1</ele>
        <time>2020-09-17T10:20:20Z</time>
      </trkpt>
      <trkpt lat="45.41276" lon="3.36941">
        <ele>442</ele>
        <time>2020-09-17T10:20:21Z</time>
      </trkpt>
      <trkpt lat="45.41277" lon="3.36941">
        <ele>442</ele>
        <time>2020-09-17T10:20:22Z</time>
      </trkpt>
      <trkpt lat="45.41277" lon="3.36941">
        <ele>442</ele>
        <time>2020-09-17T10:20:23Z</time>
      </trkpt>
      <trkpt lat="45.41278" lon="3.36942">
        <ele>442</ele>
        <time>2020-09-17T10:20:24Z</time>
      </trkpt>
      <trkpt lat="45.41278" lon="3.36942">
        <ele>442</ele>
        <time>2020-09-17T10:20:25Z</time>
      </trkpt>
      <trkpt lat="45.41279" lon="3.36942">
        <ele>442.1</ele>
        <time>2020-09-17T10:20:26Z</time>
      </trkpt>
      <trkpt lat="45.41279" lon="3.36942">
        <ele>442.2</ele>
        <time>2020-09-17T10:20:27Z</time>
      </trkpt>
      <trkpt lat="45.4128" lon="3.36942">
        <ele>442.2</ele>
        <time>2020-09-17T10:20:28Z</time>
      </trkpt>
      <trkpt lat="45.41281" lon="3.36942">
        <ele>442.3</ele>
        <time>2020-09-17T10:20:29Z</time>
      </trkpt>
      <trkpt lat="45.41281" lon="3.36943">
        <ele>442.4</ele>
        <time>2020-09-17T10:20:30Z</time>
      </trkpt>
      <trkpt lat="45.41282" lon="3.36943">
        <ele>442.5</ele>
        <time>2020-09-17T10:20:31Z</time>
      </trkpt>
      <trkpt lat="45.41283" lon="3.36944">
        <ele>442.6</ele>
        <time>2020-09-17T10:20:32Z</time>
      </trkpt>
      <trkpt lat="45.41284" lon="3.36944">
        <ele>442.6</ele>
        <time>2020-09-17T10:20:33Z</time>
      </trkpt>
      <trkpt lat="45.41284" lon="3.36945">
        <ele>442.7</ele>
        <time>2020-09-17T10:20:34Z</time>
      </trkpt>
      <trkpt lat="45.41285" lon="3.36946">
        <ele>442.8</ele>
        <time>2020-09-17T10:20:35Z</time>
      </trkpt>
      <trkpt lat="45.41286" lon="3.36947">
        <ele>442.8</ele>
        <time>2020-09-17T10:20:36Z</time>
      </trkpt>
      <trkpt lat="45.41286" lon="3.36947">
        <ele>442.9</ele>
        <time>2020-09-17T10:20:37Z</time>
      </trkpt>
      <trkpt lat="45.41287" lon="3.36949">
        <ele>442.9</ele>
        <time>2020-09-17T10:20:38Z</time>
      </trkpt>
      <trkpt lat="45.41287" lon="3.3695">
        <ele>443</ele>
        <time>2020-09-17T10:20:39Z</time>
      </trkpt>
      <trkpt lat="45.41288" lon="3.36951">
        <ele>443</ele>
        <time>2020-09-17T10:20:40Z</time>
      </trkpt>
      <trkpt lat="45.41288" lon="3.36953">
        <ele>443</ele>
        <time>2020-09-17T10:20:41Z</time>
      </trkpt>
      <trkpt lat="45.41289" lon="3.36954">
        <ele>443</ele>
        <time>2020-09-17T10:20:42Z</time>
      </trkpt>
      <trkpt lat="45.41289" lon="3.36956">
        <ele>443.1</ele>
        <time>2020-09-17T10:20:43Z</time>
      </trkpt>
      <trkpt lat="45.4129" lon="3.36957">
        <ele>443.1</ele>
        <time>2020-09-17T10:20:44Z</time>
      </trkpt>
      <trkpt lat="45.4129" lon="3.36958">
        <ele>443.1</ele>
        <time>2020-09-17T10:20:45Z</time>
      </trkpt>
      <trkpt lat="45.41291" lon="3.3696">
        <ele>443.1</ele>
        <time>2020-09-17T10:20:46Z</time>
      </trkpt>
      <trkpt lat="45.41291" lon="3.36962">
        <ele>443.1</ele>
        <time>2020-09-17T10:20:47Z</time>
      </trkpt>
      <trkpt lat="45.41291" lon="3.36963">
        <ele>443.1</ele>
        <time>2020-09-17T10:20:48Z</time>
      </trkpt>
      <trkpt lat="45.41292" lon="3.36964">
        <ele>443.1</ele>
        <time>2020-09-17T10:20:49Z</time>
      </trkpt>
      <trkpt lat="45.41292" lon="3.36966">
        <ele>443.1</ele>
        <time>2020-09-17T10:20:50Z</time>
      </trkpt>
      <trkpt lat="45.41292" lon="3.36967">
        <ele>443.1</ele>
        <time>2020-09-17T10:20:51Z</time>
      </trkpt>
      <trkpt lat="45.41292" lon="3.36969">
        <ele>443.1</ele>
        <time>2020-09-17T10:20:52Z</time>
      </trkpt>
      <trkpt lat="45.41293" lon="3.3697">
        <ele>443.1</ele>
        <time>2020-09-17T10:20:53Z</time>
      </trkpt>
      <trkpt lat="45.41293" lon="3.36971">
        <ele>443.1</ele>
        <time>2020-09-17T10:20:54Z</time>
      </trkpt>
      <trkpt lat="45.41294" lon="3.36972">
        <ele>443.2</ele>
        <time>2020-09-17T10:20:55Z</time>
      </trkpt>
      <trkpt lat="45.41295" lon="3.36974">
        <ele>443.2</ele>
        <time>2020-09-17T10:20:56Z</time>
      </trkpt>
      <trkpt lat="45.41295" lon="3.36975">
        <ele>443.3</ele>
        <time>2020-09-17T10:20:57Z</time>
      </trkpt>
      <trkpt lat="45.41295" lon="3.36976">
        <ele>443.4</ele>
        <time>2020-09-17T10:20:58Z</time>
      </trkpt>
      <trkpt lat="45.41296" lon="3.36977">
        <ele>443.4</ele>
        <time>2020-09-17T10:20:59Z</time>
      </trkpt>
      <trkpt lat="45.41296" lon="3.36979">
        <ele>443.5</ele>
        <time>2020-09-17T10:21:00Z</time>
      </trkpt>
      <trkpt lat="45.41296" lon="3.3698">
        <ele>443.5</ele>
        <time>2020-09-17T10:21:01Z</time>
      </trkpt>
      <trkpt lat="45.41296" lon="3.36981">
        <ele>443.5</ele>
        <time>2020-09-17T10:21:02Z</time>
      </trkpt>
      <trkpt lat="45.41297" lon="3.36982">
        <ele>443.6</ele>
        <time>2020-09-17T10:21:03Z</time>
      </trkpt>
      <trkpt lat="45.41297" lon="3.36983">
        <ele>443.6</ele>
        <time>2020-09-17T10:21:04Z</time>
      </trkpt>
      <trkpt lat="45.41298" lon="3.36984">
        <ele>443.6</ele>
        <time>2020-09-17T10:21:05Z</time>
      </trkpt>
      <trkpt lat="45.41298" lon="3.36985">
        <ele>443.6</ele>
        <time>2020-09-17T10:21:06Z</time>
      </trkpt>
      <trkpt lat="45.41298" lon="3.36987">
        <ele>443.6</ele>
        <time>2020-09-17T10:21:07Z</time>
      </trkpt>
      <trkpt lat="45.41298" lon="3.36988">
        <ele>443.7</ele>
        <time>2020-09-17T10:21:08Z</time>
      </trkpt>
      <trkpt lat="45.41298" lon="3.36988">
        <ele>443.7</ele>
        <time>2020-09-17T10:21:09Z</time>
      </trkpt>
      <trkpt lat="45.41299" lon="3.36989">
        <ele>443.7</ele>
        <time>2020-09-17T10:21:10Z</time>
      </trkpt>
      <trkpt lat="45.41299" lon="3.3699">
        <ele>443.7</ele>
        <time>2020-09-17T10:21:11Z</time>
      </trkpt>
      <trkpt lat="45.41299" lon="3.36991">
        <ele>443.7</ele>
        <time>2020-09-17T10:21:12Z</time>
      </trkpt>
      <trkpt lat="45.41299" lon="3.36991">
        <ele>443.7</ele>
        <time>2020-09-17T10:21:13Z</time>
      </trkpt>
      <trkpt lat="45.41299" lon="3.36991">
        <ele>443.7</ele>
        <time>2020-09-17T10:21:14Z</time>
      </trkpt>
      <trkpt lat="45.41299" lon="3.36991">
        <ele>443.7</ele>
        <time>2020-09-17T10:21:15Z</time>
      </trkpt>
      <trkpt lat="45.41299" lon="3.36991">
        <ele>443.7</ele>
        <time>2020-09-17T10:21:16Z</time>
      </trkpt>
      <trkpt lat="45.41299" lon="3.36992">
        <ele>443.7</ele>
        <time>2020-09-17T10:21:17Z</time>
      </trkpt>
      <trkpt lat="45.41299" lon="3.36992">
        <ele>443.7</ele>
        <time>2020-09-17T10:21:18Z</time>
      </trkpt>
      <trkpt lat="45.41298" lon="3.36992">
        <ele>443.7</ele>
        <time>2020-09-17T10:21:19Z</time>
      </trkpt>
      <trkpt lat="45.41298" lon="3.36992">
        <ele>443.7</ele>
        <time>2020-09-17T10:21:20Z</time>
      </trkpt>
      <trkpt lat="45.41298" lon="3.36993">
        <ele>443.7</ele>
        <time>2020-09-17T10:21:21Z</time>
      </trkpt>
      <trkpt lat="45.41298" lon="3.36993">
        <ele>443.7</ele>
        <time>2020-09-17T10:21:22Z</time>
      </trkpt>
      <trkpt lat="45.41298" lon="3.36993">
        <ele>443.7</ele>
        <time>2020-09-17T10:21:23Z</time>
      </trkpt>
      <trkpt lat="45.41298" lon="3.36993">
        <ele>443.7</ele>
        <time>2020-09-17T10:21:24Z</time>
      </trkpt>
      <trkpt lat="45.41297" lon="3.36993">
        <ele>443.8</ele>
        <time>2020-09-17T10:21:25Z</time>
      </trkpt>
      <trkpt lat="45.41297" lon="3.36994">
        <ele>443.8</ele>
        <time>2020-09-17T10:21:26Z</time>
      </trkpt>
      <trkpt lat="45.41297" lon="3.36994">
        <ele>443.8</ele>
        <time>2020-09-17T10:21:27Z</time>
      </trkpt>
      <trkpt lat="45.41297" lon="3.36994">
        <ele>443.8</ele>
        <time>2020-09-17T10:21:28Z</time>
      </trkpt>
      <trkpt lat="45.41296" lon="3.36994">
        <ele>443.9</ele>
        <time>2020-09-17T10:21:29Z</time>
      </trkpt>
      <trkpt lat="45.41296" lon="3.36995">
        <ele>443.9</ele>
        <time>2020-09-17T10:21:30Z</time>
      </trkpt>
      <trkpt lat="45.41295" lon="3.36995">
        <ele>444</ele>
        <time>2020-09-17T10:21:31Z</time>
      </trkpt>
      <trkpt lat="45.41295" lon="3.36996">
        <ele>444</ele>
        <time>2020-09-17T10:21:32Z</time>
      </trkpt>
      <trkpt lat="45.41294" lon="3.36996">
        <ele>444.1</ele>
        <time>2020-09-17T10:21:33Z</time>
      </trkpt>
      <trkpt lat="45.41293" lon="3.36996">
        <ele>444.2</ele>
        <time>2020-09-17T10:21:34Z</time>
      </trkpt>
      <trkpt lat="45.41292" lon="3.36996">
        <ele>444.2</ele>
        <time>2020-09-17T10:21:35Z</time>
      </trkpt>
      <trkpt lat="45.41292" lon="3.36996">
        <ele>444.3</ele>
        <time>2020-09-17T10:21:36Z</time>
      </trkpt>
      <trkpt lat="45.41291" lon="3.36995">
        <ele>444.3</ele>
        <time>2020-09-17T10:21:37Z</time>
      </trkpt>
      <trkpt lat="45.4129" lon="3.36994">
        <ele>444.3</ele>
        <time>2020-09-17T10:21:38Z</time>
      </trkpt>
      <trkpt lat="45.4129" lon="3.36994">
        <ele>444.3</ele>
        <time>2020-09-17T10:21:39Z</time>
      </trkpt>
      <trkpt lat="45.41289" lon="3.36993">
        <ele>444.3</ele>
        <time>2020-09-17T10:21:40Z</time>
      </trkpt>
      <trkpt lat="45.41288" lon="3.36992">
        <ele>444.2</ele>
        <time>2020-09-17T10:21:41Z</time>
      </trkpt>
      <trkpt lat="45.41287" lon="3.36991">
        <ele>444.2</ele>
        <time>2020-09-17T10:21:42Z</time>
      </trkpt>
      <trkpt lat="45.41286" lon="3.3699">
        <ele>444.2</ele>
        <time>2020-09-17T10:21:43Z</time>
      </trkpt>
      <trkpt lat="45.41286" lon="3.36989">
        <ele>444.2</ele>
        <time>2020-09-17T10:21:44Z</time>
      </trkpt>
      <trkpt lat="45.41285" lon="3.36989">
        <ele>444.1</ele>
        <time>2020-09-17T10:21:45Z</time>
      </trkpt>
      <trkpt lat="45.41284" lon="3.36988">
        <ele>444.1</ele>
        <time>2020-09-17T10:21:46Z</time>
      </trkpt>
      <trkpt lat="45.41283" lon="3.36987">
        <ele>444</ele>
        <time>2020-09-17T10:21:47Z</time>
      </trkpt>
      <trkpt lat="45.41282" lon="3.36986">
        <ele>443.9</ele>
        <time>2020-09-17T10:21:48Z</time>
      </trkpt>
      <trkpt lat="45.41282" lon="3.36986">
        <ele>443.9</ele>
        <time>2020-09-17T10:21:49Z</time>
      </trkpt>
      <trkpt lat="45.41281" lon="3.36985">
        <ele>443.7</ele>
        <time>2020-09-17T10:21:50Z</time>
      </trkpt>
      <trkpt lat="45.4128" lon="3.36984">
        <ele>443.7</ele>
        <time>2020-09-17T10:21:51Z</time>
      </trkpt>
      <trkpt lat="45.41279" lon="3.36983">
        <ele>443.6</ele>
        <time>2020-09-17T10:21:52Z</time>
      </trkpt>
      <trkpt lat="45.41279" lon="3.36983">
        <ele>443.5</ele>
        <time>2020-09-17T10:21:53Z</time>
      </trkpt>
      <trkpt lat="45.41278" lon="3.36982">
        <ele>443.5</ele>
        <time>2020-09-17T10:21:54Z</time>
      </trkpt>
      <trkpt lat="45.41277" lon="3.36982">
        <ele>443.6</ele>
        <time>2020-09-17T10:21:55Z</time>
      </trkpt>
      <trkpt lat="45.41276" lon="3.36981">
        <ele>443.7</ele>
        <time>2020-09-17T10:21:56Z</time>
      </trkpt>
      <trkpt lat="45.41275" lon="3.36981">
        <ele>443.9</ele>
        <time>2020-09-17T10:21:57Z</time>
      </trkpt>
      <trkpt lat="45.41274" lon="3.36981">
        <ele>444.1</ele>
        <time>2020-09-17T10:21:58Z</time>
      </trkpt>
      <trkpt lat="45.41273" lon="3.3698">
        <ele>444.2</ele>
        <time>2020-09-17T10:21:59Z</time>
      </trkpt>
      <trkpt lat="45.41272" lon="3.3698">
        <ele>444.4</ele>
        <time>2020-09-17T10:22:00Z</time>
      </trkpt>
      <trkpt lat="45.41272" lon="3.3698">
        <ele>444.5</ele>
        <time>2020-09-17T10:22:01Z</time>
      </trkpt>
      <trkpt lat="45.41271" lon="3.36981">
        <ele>444.7</ele>
        <time>2020-09-17T10:22:02Z</time>
      </trkpt>
      <trkpt lat="45.4127" lon="3.36981">
        <ele>444.8</ele>
        <time>2020-09-17T10:22:03Z</time>
      </trkpt>
      <trkpt lat="45.4127" lon="3.36981">
        <ele>445</ele>
        <time>2020-09-17T10:22:04Z</time>
      </trkpt>
      <trkpt lat="45.41269" lon="3.36981">
        <ele>445.1</ele>
        <time>2020-09-17T10:22:05Z</time>
      </trkpt>
      <trkpt lat="45.41269" lon="3.36982">
        <ele>445.3</ele>
        <time>2020-09-17T10:22:06Z</time>
      </trkpt>
      <trkpt lat="45.41268" lon="3.36982">
        <ele>445.5</ele>
        <time>2020-09-17T10:22:07Z</time>
      </trkpt>
      <trkpt lat="45.41268" lon="3.36983">
        <ele>445.7</ele>
        <time>2020-09-17T10:22:08Z</time>
      </trkpt>
      <trkpt lat="45.41268" lon="3.36984">
        <ele>445.9</ele>
        <time>2020-09-17T10:22:09Z</time>
      </trkpt>
      <trkpt lat="45.41267" lon="3.36984">
        <ele>446</ele>
        <time>2020-09-17T10:22:10Z</time>
      </trkpt>
      <trkpt lat="45.41267" lon="3.36985">
        <ele>446.2</ele>
        <time>2020-09-17T10:22:11Z</time>
      </trkpt>
      <trkpt lat="45.41267" lon="3.36986">
        <ele>446.4</ele>
        <time>2020-09-17T10:22:12Z</time>
      </trkpt>
      <trkpt lat="45.41267" lon="3.36988">
        <ele>446.6</ele>
        <time>2020-09-17T10:22:13Z</time>
      </trkpt>
      <trkpt lat="45.41266" lon="3.36989">
        <ele>446.9</ele>
        <time>2020-09-17T10:22:14Z</time>
      </trkpt>
      <trkpt lat="45.41266" lon="3.36991">
        <ele>447.2</ele>
        <time>2020-09-17T10:22:15Z</time>
      </trkpt>
      <trkpt lat="45.41266" lon="3.36992">
        <ele>447.4</ele>
        <time>2020-09-17T10:22:16Z</time>
      </trkpt>
      <trkpt lat="45.41265" lon="3.36993">
        <ele>447.7</ele>
        <time>2020-09-17T10:22:17Z</time>
      </trkpt>
      <trkpt lat="45.41265" lon="3.36995">
        <ele>448</ele>
        <time>2020-09-17T10:22:18Z</time>
      </trkpt>
      <trkpt lat="45.41265" lon="3.36996">
        <ele>448.3</ele>
        <time>2020-09-17T10:22:19Z</time>
      </trkpt>
      <trkpt lat="45.41264" lon="3.36997">
        <ele>448.5</ele>
        <time>2020-09-17T10:22:20Z</time>
      </trkpt>
      <trkpt lat="45.41264" lon="3.36998">
        <ele>448.8</ele>
        <time>2020-09-17T10:22:21Z</time>
      </trkpt>
      <trkpt lat="45.41263" lon="3.37">
        <ele>449.1</ele>
        <time>2020-09-17T10:22:22Z</time>
      </trkpt>
      <trkpt lat="45.41263" lon="3.37001">
        <ele>449.2</ele>
        <time>2020-09-17T10:22:23Z</time>
      </trkpt>
      <trkpt lat="45.41263" lon="3.37002">
        <ele>449.2</ele>
        <time>2020-09-17T10:22:24Z</time>
      </trkpt>
      <trkpt lat="45.41262" lon="3.37004">
        <ele>449.2</ele>
        <time>2020-09-17T10:22:25Z</time>
      </trkpt>
      <trkpt lat="45.41262" lon="3.37005">
        <ele>449.2</ele>
        <time>2020-09-17T10:22:26Z</time>
      </trkpt>
      <trkpt lat="45.41262" lon="3.37006">
        <ele>449.1</ele>
        <time>2020-09-17T10:22:27Z</time>
      </trkpt>
      <trkpt lat="45.41262" lon="3.37008">
        <ele>449.1</ele>
        <time>2020-09-17T10:22:28Z</time>
      </trkpt>
      <trkpt lat="45.41262" lon="3.3701">
        <ele>449.1</ele>
        <time>2020-09-17T10:22:29Z</time>
      </trkpt>
      <trkpt lat="45.41261" lon="3.37011">
        <ele>449</ele>
        <time>2020-09-17T10:22:30Z</time>
      </trkpt>
      <trkpt lat="45.41261" lon="3.37012">
        <ele>449</ele>
        <time>2020-09-17T10:22:31Z</time>
      </trkpt>
      <trkpt lat="45.41261" lon="3.37014">
        <ele>448.9</ele>
        <time>2020-09-17T10:22:32Z</time>
      </trkpt>
      <trkpt lat="45.41261" lon="3.37015">
        <ele>448.9</ele>
        <time>2020-09-17T10:22:33Z</time>
      </trkpt>
      <trkpt lat="45.41261" lon="3.37017">
        <ele>448.8</ele>
        <time>2020-09-17T10:22:34Z</time>
      </trkpt>
      <trkpt lat="45.41261" lon="3.37018">
        <ele>448.8</ele>
        <time>2020-09-17T10:22:35Z</time>
      </trkpt>
      <trkpt lat="45.4126" lon="3.3702">
        <ele>448.7</ele>
        <time>2020-09-17T10:22:36Z</time>
      </trkpt>
      <trkpt lat="45.4126" lon="3.37021">
        <ele>448.7</ele>
        <time>2020-09-17T10:22:37Z</time>
      </trkpt>
      <trkpt lat="45.4126" lon="3.37022">
        <ele>448.6</ele>
        <time>2020-09-17T10:22:38Z</time>
      </trkpt>
      <trkpt lat="45.4126" lon="3.37023">
        <ele>448.5</ele>
        <time>2020-09-17T10:22:39Z</time>
      </trkpt>
      <trkpt lat="45.4126" lon="3.37025">
        <ele>448.5</ele>
        <time>2020-09-17T10:22:40Z</time>
      </trkpt>
      <trkpt lat="45.4126" lon="3.37026">
        <ele>448.4</ele>
        <time>2020-09-17T10:22:41Z</time>
      </trkpt>
      <trkpt lat="45.4126" lon="3.37027">
        <ele>448.3</ele>
        <time>2020-09-17T10:22:42Z</time>
      </trkpt>
      <trkpt lat="45.4126" lon="3.37029">
        <ele>448.3</ele>
        <time>2020-09-17T10:22:43Z</time>
      </trkpt>
      <trkpt lat="45.41261" lon="3.3703">
        <ele>448.3</ele>
        <time>2020-09-17T10:22:44Z</time>
      </trkpt>
      <trkpt lat="45.41261" lon="3.37031">
        <ele>448.3</ele>
        <time>2020-09-17T10:22:45Z</time>
      </trkpt>
      <trkpt lat="45.41262" lon="3.37032">
        <ele>448.3</ele>
        <time>2020-09-17T10:22:46Z</time>
      </trkpt>
      <trkpt lat="45.41263" lon="3.37033">
        <ele>448.4</ele>
        <time>2020-09-17T10:22:47Z</time>
      </trkpt>
      <trkpt lat="45.41263" lon="3.37034">
        <ele>448.4</ele>
        <time>2020-09-17T10:22:48Z</time>
      </trkpt>
      <trkpt lat="45.41264" lon="3.37035">
        <ele>448.5</ele>
        <time>2020-09-17T10:22:49Z</time>
      </trkpt>
      <trkpt lat="45.41264" lon="3.37035">
        <ele>448.5</ele>
        <time>2020-09-17T10:22:50Z</time>
      </trkpt>
      <trkpt lat="45.41265" lon="3.37036">
        <ele>448.6</ele>
        <time>2020-09-17T10:22:51Z</time>
      </trkpt>
      <trkpt lat="45.41266" lon="3.37036">
        <ele>448.6</ele>
        <time>2020-09-17T10:22:52Z</time>
      </trkpt>
      <trkpt lat="45.41266" lon="3.37037">
        <ele>448.7</ele>
        <time>2020-09-17T10:22:53Z</time>
      </trkpt>
      <trkpt lat="45.41267" lon="3.37038">
        <ele>448.8</ele>
        <time>2020-09-17T10:22:54Z</time>
      </trkpt>
      <trkpt lat="45.41268" lon="3.37038">
        <ele>448.8</ele>
        <time>2020-09-17T10:22:55Z</time>
      </trkpt>
      <trkpt lat="45.41268" lon="3.37037">
        <ele>448.8</ele>
        <time>2020-09-17T10:22:56Z</time>
      </trkpt>
      <trkpt lat="45.41269" lon="3.37037">
        <ele>448.7</ele>
        <time>2020-09-17T10:22:57Z</time>
      </trkpt>
      <trkpt lat="45.41269" lon="3.37036">
        <ele>448.6</ele>
        <time>2020-09-17T10:22:58Z</time>
      </trkpt>
      <trkpt lat="45.4127" lon="3.37035">
        <ele>448.5</ele>
        <time>2020-09-17T10:22:59Z</time>
      </trkpt>
      <trkpt lat="45.4127" lon="3.37034">
        <ele>448.4</ele>
        <time>2020-09-17T10:23:00Z</time>
      </trkpt>
      <trkpt lat="45.41271" lon="3.37033">
        <ele>448.3</ele>
        <time>2020-09-17T10:23:01Z</time>
      </trkpt>
      <trkpt lat="45.41271" lon="3.37032">
        <ele>448.1</ele>
        <time>2020-09-17T10:23:02Z</time>
      </trkpt>
      <trkpt lat="45.41272" lon="3.37031">
        <ele>447.9</ele>
        <time>2020-09-17T10:23:03Z</time>
      </trkpt>
      <trkpt lat="45.41273" lon="3.3703">
        <ele>447.7</ele>
        <time>2020-09-17T10:23:04Z</time>
      </trkpt>
      <trkpt lat="45.41273" lon="3.37029">
        <ele>447.5</ele>
        <time>2020-09-17T10:23:05Z</time>
      </trkpt>
      <trkpt lat="45.41274" lon="3.37028">
        <ele>447.4</ele>
        <time>2020-09-17T10:23:06Z</time>
      </trkpt>
      <trkpt lat="45.41274" lon="3.37028">
        <ele>447.3</ele>
        <time>2020-09-17T10:23:07Z</time>
      </trkpt>
      <trkpt lat="45.41275" lon="3.37028">
        <ele>447.2</ele>
        <time>2020-09-17T10:23:08Z</time>
      </trkpt>
      <trkpt lat="45.41276" lon="3.37028">
        <ele>447.1</ele>
        <time>2020-09-17T10:23:09Z</time>
      </trkpt>
      <trkpt lat="45.41277" lon="3.37027">
        <ele>447</ele>
        <time>2020-09-17T10:23:10Z</time>
      </trkpt>
      <trkpt lat="45.41278" lon="3.37027">
        <ele>447</ele>
        <time>2020-09-17T10:23:11Z</time>
      </trkpt>
      <trkpt lat="45.41279" lon="3.37027">
        <ele>446.9</ele>
        <time>2020-09-17T10:23:12Z</time>
      </trkpt>
      <trkpt lat="45.4128" lon="3.37028">
        <ele>446.8</ele>
        <time>2020-09-17T10:23:13Z</time>
      </trkpt>
      <trkpt lat="45.4128" lon="3.37028">
        <ele>446.7</ele>
        <time>2020-09-17T10:23:14Z</time>
      </trkpt>
      <trkpt lat="45.41281" lon="3.37028">
        <ele>446.7</ele>
        <time>2020-09-17T10:23:15Z</time>
      </trkpt>
      <trkpt lat="45.41281" lon="3.37028">
        <ele>446.7</ele>
        <time>2020-09-17T10:23:16Z</time>
      </trkpt>
      <trkpt lat="45.41282" lon="3.37029">
        <ele>446.7</ele>
        <time>2020-09-17T10:23:17Z</time>
      </trkpt>
      <trkpt lat="45.41283" lon="3.37029">
        <ele>446.8</ele>
        <time>2020-09-17T10:23:18Z</time>
      </trkpt>
      <trkpt lat="45.41283" lon="3.3703">
        <ele>447</ele>
        <time>2020-09-17T10:23:19Z</time>
      </trkpt>
      <trkpt lat="45.41284" lon="3.37031">
        <ele>447.1</ele>
        <time>2020-09-17T10:23:20Z</time>
      </trkpt>
      <trkpt lat="45.41285" lon="3.37031">
        <ele>447.1</ele>
        <time>2020-09-17T10:23:21Z</time>
      </trkpt>
      <trkpt lat="45.41286" lon="3.37032">
        <ele>447.2</ele>
        <time>2020-09-17T10:23:22Z</time>
      </trkpt>
      <trkpt lat="45.41287" lon="3.37033">
        <ele>447.4</ele>
        <time>2020-09-17T10:23:23Z</time>
      </trkpt>
      <trkpt lat="45.41288" lon="3.37034">
        <ele>447.6</ele>
        <time>2020-09-17T10:23:24Z</time>
      </trkpt>
      <trkpt lat="45.41288" lon="3.37034">
        <ele>447.7</ele>
        <time>2020-09-17T10:23:25Z</time>
      </trkpt>
      <trkpt lat="45.41289" lon="3.37035">
        <ele>447.8</ele>
        <time>2020-09-17T10:23:26Z</time>
      </trkpt>
      <trkpt lat="45.41289" lon="3.37036">
        <ele>448</ele>
        <time>2020-09-17T10:23:27Z</time>
      </trkpt>
      <trkpt lat="45.4129" lon="3.37036">
        <ele>448.2</ele>
        <time>2020-09-17T10:23:28Z</time>
      </trkpt>
      <trkpt lat="45.41291" lon="3.37037">
        <ele>448.4</ele>
        <time>2020-09-17T10:23:29Z</time>
      </trkpt>
      <trkpt lat="45.41291" lon="3.37038">
        <ele>448.5</ele>
        <time>2020-09-17T10:23:30Z</time>
      </trkpt>
      <trkpt lat="45.41292" lon="3.37038">
        <ele>448.6</ele>
        <time>2020-09-17T10:23:31Z</time>
      </trkpt>
      <trkpt lat="45.41293" lon="3.37039">
        <ele>448.8</ele>
        <time>2020-09-17T10:23:32Z</time>
      </trkpt>
      <trkpt lat="45.41293" lon="3.37039">
        <ele>448.9</ele>
        <time>2020-09-17T10:23:33Z</time>
      </trkpt>
      <trkpt lat="45.41294" lon="3.3704">
        <ele>449.2</ele>
        <time>2020-09-17T10:23:34Z</time>
      </trkpt>
      <trkpt lat="45.41295" lon="3.37041">
        <ele>449.4</ele>
        <time>2020-09-17T10:23:35Z</time>
      </trkpt>
      <trkpt lat="45.41296" lon="3.37041">
        <ele>449.6</ele>
        <time>2020-09-17T10:23:36Z</time>
      </trkpt>
      <trkpt lat="45.41297" lon="3.37042">
        <ele>449.8</ele>
        <time>2020-09-17T10:23:37Z</time>
      </trkpt>
      <trkpt lat="45.41297" lon="3.37043">
        <ele>450</ele>
        <time>2020-09-17T10:23:38Z</time>
      </trkpt>
      <trkpt lat="45.41298" lon="3.37043">
        <ele>450.2</ele>
        <time>2020-09-17T10:23:39Z</time>
      </trkpt>
      <trkpt lat="45.41299" lon="3.37044">
        <ele>450.4</ele>
        <time>2020-09-17T10:23:40Z</time>
      </trkpt>
      <trkpt lat="45.41299" lon="3.37045">
        <ele>450.7</ele>
        <time>2020-09-17T10:23:41Z</time>
      </trkpt>
      <trkpt lat="45.413" lon="3.37045">
        <ele>450.9</ele>
        <time>2020-09-17T10:23:42Z</time>
      </trkpt>
      <trkpt lat="45.41301" lon="3.37046">
        <ele>451</ele>
        <time>2020-09-17T10:23:43Z</time>
      </trkpt>
      <trkpt lat="45.41301" lon="3.37047">
        <ele>451.4</ele>
        <time>2020-09-17T10:23:44Z</time>
      </trkpt>
      <trkpt lat="45.41302" lon="3.37047">
        <ele>451.6</ele>
        <time>2020-09-17T10:23:45Z</time>
      </trkpt>
      <trkpt lat="45.41302" lon="3.37048">
        <ele>451.9</ele>
        <time>2020-09-17T10:23:46Z</time>
      </trkpt>
      <trkpt lat="45.41303" lon="3.37049">
        <ele>452.1</ele>
        <time>2020-09-17T10:23:47Z</time>
      </trkpt>
      <trkpt lat="45.41303" lon="3.37049">
        <ele>452.4</ele>
        <time>2020-09-17T10:23:48Z</time>
      </trkpt>
      <trkpt lat="45.41304" lon="3.3705">
        <ele>452.7</ele>
        <time>2020-09-17T10:23:49Z</time>
      </trkpt>
      <trkpt lat="45.41304" lon="3.3705">
        <ele>452.9</ele>
        <time>2020-09-17T10:23:50Z</time>
      </trkpt>
      <trkpt lat="45.41305" lon="3.37051">
        <ele>453.1</ele>
        <time>2020-09-17T10:23:51Z</time>
      </trkpt>
      <trkpt lat="45.41305" lon="3.37052">
        <ele>453.4</ele>
        <time>2020-09-17T10:23:52Z</time>
      </trkpt>
      <trkpt lat="45.41305" lon="3.37053">
        <ele>453.8</ele>
        <time>2020-09-17T10:23:53Z</time>
      </trkpt>
      <trkpt lat="45.41306" lon="3.37053">
        <ele>454</ele>
        <time>2020-09-17T10:23:54Z</time>
      </trkpt>
      <trkpt lat="45.41306" lon="3.37054">
        <ele>454.2</ele>
        <time>2020-09-17T10:23:55Z</time>
      </trkpt>
      <trkpt lat="45.41307" lon="3.37055">
        <ele>454.3</ele>
        <time>2020-09-17T10:23:56Z</time>
      </trkpt>
      <trkpt lat="45.41308" lon="3.37055">
        <ele>454.4</ele>
        <time>2020-09-17T10:23:57Z</time>
      </trkpt>
      <trkpt lat="45.41308" lon="3.37056">
        <ele>454.6</ele>
        <time>2020-09-17T10:23:58Z</time>
      </trkpt>
      <trkpt lat="45.41309" lon="3.37057">
        <ele>454.8</ele>
        <time>2020-09-17T10:23:59Z</time>
      </trkpt>
      <trkpt lat="45.41309" lon="3.37057">
        <ele>455.1</ele>
        <time>2020-09-17T10:24:00Z</time>
      </trkpt>
      <trkpt lat="45.4131" lon="3.37058">
        <ele>455.2</ele>
        <time>2020-09-17T10:24:01Z</time>
      </trkpt>
      <trkpt lat="45.41311" lon="3.37059">
        <ele>455.5</ele>
        <time>2020-09-17T10:24:02Z</time>
      </trkpt>
      <trkpt lat="45.41311" lon="3.37059">
        <ele>455.5</ele>
        <time>2020-09-17T10:24:03Z</time>
      </trkpt>
      <trkpt lat="45.41311" lon="3.37059">
        <ele>455.6</ele>
        <time>2020-09-17T10:24:04Z</time>
      </trkpt>
      <trkpt lat="45.41311" lon="3.37059">
        <ele>455.7</ele>
        <time>2020-09-17T10:24:05Z</time>
      </trkpt>
      <trkpt lat="45.41312" lon="3.3706">
        <ele>455.9</ele>
        <time>2020-09-17T10:24:06Z</time>
      </trkpt>
      <trkpt lat="45.41312" lon="3.3706">
        <ele>456.1</ele>
        <time>2020-09-17T10:24:07Z</time>
      </trkpt>
      <trkpt lat="45.41313" lon="3.37061">
        <ele>456.2</ele>
        <time>2020-09-17T10:24:08Z</time>
      </trkpt>
      <trkpt lat="45.41313" lon="3.37062">
        <ele>456.5</ele>
        <time>2020-09-17T10:24:09Z</time>
      </trkpt>
      <trkpt lat="45.41313" lon="3.37062">
        <ele>456.7</ele>
        <time>2020-09-17T10:24:10Z</time>
      </trkpt>
      <trkpt lat="45.41314" lon="3.37063">
        <ele>456.9</ele>
        <time>2020-09-17T10:24:11Z</time>
      </trkpt>
      <trkpt lat="45.41315" lon="3.37063">
        <ele>456.9</ele>
        <time>2020-09-17T10:24:12Z</time>
      </trkpt>
      <trkpt lat="45.41315" lon="3.37063">
        <ele>457</ele>
        <time>2020-09-17T10:24:13Z</time>
      </trkpt>
      <trkpt lat="45.41316" lon="3.37064">
        <ele>457</ele>
        <time>2020-09-17T10:24:14Z</time>
      </trkpt>
      <trkpt lat="45.41316" lon="3.37064">
        <ele>457.3</ele>
        <time>2020-09-17T10:24:15Z</time>
      </trkpt>
      <trkpt lat="45.41317" lon="3.37065">
        <ele>457.4</ele>
        <time>2020-09-17T10:24:16Z</time>
      </trkpt>
      <trkpt lat="45.41317" lon="3.37065">
        <ele>457.4</ele>
        <time>2020-09-17T10:24:17Z</time>
      </trkpt>
      <trkpt lat="45.41318" lon="3.37065">
        <ele>457.5</ele>
        <time>2020-09-17T10:24:18Z</time>
      </trkpt>
      <trkpt lat="45.41318" lon="3.37066">
        <ele>457.9</ele>
        <time>2020-09-17T10:24:19Z</time>
      </trkpt>
      <trkpt lat="45.41319" lon="3.37067">
        <ele>458.2</ele>
        <time>2020-09-17T10:24:20Z</time>
      </trkpt>
      <trkpt lat="45.41318" lon="3.37067">
        <ele>458.5</ele>
        <time>2020-09-17T10:24:21Z</time>
      </trkpt>
      <trkpt lat="45.41318" lon="3.37068">
        <ele>458.9</ele>
        <time>2020-09-17T10:24:22Z</time>
      </trkpt>
      <trkpt lat="45.41318" lon="3.37068">
        <ele>459.2</ele>
        <time>2020-09-17T10:24:23Z</time>
      </trkpt>
      <trkpt lat="45.41318" lon="3.37069">
        <ele>459.4</ele>
        <time>2020-09-17T10:24:24Z</time>
      </trkpt>
      <trkpt lat="45.41317" lon="3.37069">
        <ele>459.5</ele>
        <time>2020-09-17T10:24:25Z</time>
      </trkpt>
      <trkpt lat="45.41317" lon="3.37069">
        <ele>459.5</ele>
        <time>2020-09-17T10:24:26Z</time>
      </trkpt>
      <trkpt lat="45.41316" lon="3.37068">
        <ele>459.4</ele>
        <time>2020-09-17T10:24:27Z</time>
      </trkpt>
      <trkpt lat="45.41316" lon="3.37068">
        <ele>459.4</ele>
        <time>2020-09-17T10:24:28Z</time>
      </trkpt>
      <trkpt lat="45.41315" lon="3.37068">
        <ele>459.4</ele>
        <time>2020-09-17T10:24:29Z</time>
      </trkpt>
      <trkpt lat="45.41314" lon="3.37068">
        <ele>459.4</ele>
        <time>2020-09-17T10:24:30Z</time>
      </trkpt>
      <trkpt lat="45.41314" lon="3.37067">
        <ele>459.4</ele>
        <time>2020-09-17T10:24:31Z</time>
      </trkpt>
      <trkpt lat="45.41313" lon="3.37067">
        <ele>459.4</ele>
        <time>2020-09-17T10:24:32Z</time>
      </trkpt>
      <trkpt lat="45.41313" lon="3.37067">
        <ele>459.5</ele>
        <time>2020-09-17T10:24:33Z</time>
      </trkpt>
      <trkpt lat="45.41312" lon="3.37067">
        <ele>459.7</ele>
        <time>2020-09-17T10:24:34Z</time>
      </trkpt>
      <trkpt lat="45.41312" lon="3.37067">
        <ele>459.8</ele>
        <time>2020-09-17T10:24:35Z</time>
      </trkpt>
      <trkpt lat="45.41311" lon="3.37067">
        <ele>459.9</ele>
        <time>2020-09-17T10:24:36Z</time>
      </trkpt>
      <trkpt lat="45.41311" lon="3.37067">
        <ele>460</ele>
        <time>2020-09-17T10:24:37Z</time>
      </trkpt>
      <trkpt lat="45.4131" lon="3.37067">
        <ele>460</ele>
        <time>2020-09-17T10:24:38Z</time>
      </trkpt>
      <trkpt lat="45.4131" lon="3.37067">
        <ele>460</ele>
        <time>2020-09-17T10:24:39Z</time>
      </trkpt>
      <trkpt lat="45.41309" lon="3.37067">
        <ele>460</ele>
        <time>2020-09-17T10:24:40Z</time>
      </trkpt>
      <trkpt lat="45.41309" lon="3.37067">
        <ele>460</ele>
        <time>2020-09-17T10:24:41Z</time>
      </trkpt>
      <trkpt lat="45.41308" lon="3.37067">
        <ele>460.1</ele>
        <time>2020-09-17T10:24:42Z</time>
      </trkpt>
      <trkpt lat="45.41307" lon="3.37067">
        <ele>460.2</ele>
        <time>2020-09-17T10:24:43Z</time>
      </trkpt>
      <trkpt lat="45.41307" lon="3.37067">
        <ele>460.4</ele>
        <time>2020-09-17T10:24:44Z</time>
      </trkpt>
      <trkpt lat="45.41306" lon="3.37067">
        <ele>460.6</ele>
        <time>2020-09-17T10:24:45Z</time>
      </trkpt>
      <trkpt lat="45.41306" lon="3.37067">
        <ele>460.7</ele>
        <time>2020-09-17T10:24:46Z</time>
      </trkpt>
      <trkpt lat="45.41305" lon="3.37067">
        <ele>460.5</ele>
        <time>2020-09-17T10:24:47Z</time>
      </trkpt>
      <trkpt lat="45.41304" lon="3.37067">
        <ele>460.3</ele>
        <time>2020-09-17T10:24:48Z</time>
      </trkpt>
      <trkpt lat="45.41304" lon="3.37066">
        <ele>460.2</ele>
        <time>2020-09-17T10:24:49Z</time>
      </trkpt>
      <trkpt lat="45.41303" lon="3.37066">
        <ele>460.1</ele>
        <time>2020-09-17T10:24:50Z</time>
      </trkpt>
      <trkpt lat="45.41303" lon="3.37066">
        <ele>460</ele>
        <time>2020-09-17T10:24:51Z</time>
      </trkpt>
      <trkpt lat="45.41302" lon="3.37066">
        <ele>459.8</ele>
        <time>2020-09-17T10:24:52Z</time>
      </trkpt>
      <trkpt lat="45.41302" lon="3.37066">
        <ele>459.7</ele>
        <time>2020-09-17T10:24:53Z</time>
      </trkpt>
      <trkpt lat="45.41301" lon="3.37066">
        <ele>459.8</ele>
        <time>2020-09-17T10:24:54Z</time>
      </trkpt>
      <trkpt lat="45.41301" lon="3.37067">
        <ele>459.9</ele>
        <time>2020-09-17T10:24:55Z</time>
      </trkpt>
      <trkpt lat="45.41301" lon="3.37067">
        <ele>460</ele>
        <time>2020-09-17T10:24:56Z</time>
      </trkpt>
      <trkpt lat="45.41301" lon="3.37068">
        <ele>460.3</ele>
        <time>2020-09-17T10:24:57Z</time>
      </trkpt>
      <trkpt lat="45.41301" lon="3.37068">
        <ele>460.6</ele>
        <time>2020-09-17T10:24:58Z</time>
      </trkpt>
      <trkpt lat="45.41301" lon="3.37069">
        <ele>460.8</ele>
        <time>2020-09-17T10:24:59Z</time>
      </trkpt>
      <trkpt lat="45.41301" lon="3.37069">
        <ele>461.1</ele>
        <time>2020-09-17T10:25:00Z</time>
      </trkpt>
      <trkpt lat="45.41302" lon="3.3707">
        <ele>461.4</ele>
        <time>2020-09-17T10:25:01Z</time>
      </trkpt>
      <trkpt lat="45.41302" lon="3.3707">
        <ele>461.6</ele>
        <time>2020-09-17T10:25:02Z</time>
      </trkpt>
      <trkpt lat="45.41302" lon="3.3707">
        <ele>461.9</ele>
        <time>2020-09-17T10:25:03Z</time>
      </trkpt>
      <trkpt lat="45.41303" lon="3.37071">
        <ele>462.1</ele>
        <time>2020-09-17T10:25:04Z</time>
      </trkpt>
      <trkpt lat="45.41303" lon="3.37071">
        <ele>462.4</ele>
        <time>2020-09-17T10:25:05Z</time>
      </trkpt>
      <trkpt lat="45.41304" lon="3.37072">
        <ele>462.8</ele>
        <time>2020-09-17T10:25:06Z</time>
      </trkpt>
      <trkpt lat="45.41304" lon="3.37072">
        <ele>463.2</ele>
        <time>2020-09-17T10:25:07Z</time>
      </trkpt>
      <trkpt lat="45.41305" lon="3.37073">
        <ele>463.7</ele>
        <time>2020-09-17T10:25:08Z</time>
      </trkpt>
      <trkpt lat="45.41306" lon="3.37074">
        <ele>464.1</ele>
        <time>2020-09-17T10:25:09Z</time>
      </trkpt>
      <trkpt lat="45.41306" lon="3.37074">
        <ele>464.3</ele>
        <time>2020-09-17T10:25:10Z</time>
      </trkpt>
      <trkpt lat="45.41307" lon="3.37075">
        <ele>464.5</ele>
        <time>2020-09-17T10:25:11Z</time>
      </trkpt>
      <trkpt lat="45.41307" lon="3.37076">
        <ele>464.8</ele>
        <time>2020-09-17T10:25:12Z</time>
      </trkpt>
      <trkpt lat="45.41308" lon="3.37076">
        <ele>465</ele>
        <time>2020-09-17T10:25:13Z</time>
      </trkpt>
      <trkpt lat="45.41308" lon="3.37077">
        <ele>465.3</ele>
        <time>2020-09-17T10:25:14Z</time>
      </trkpt>
      <trkpt lat="45.41309" lon="3.37078">
        <ele>465.6</ele>
        <time>2020-09-17T10:25:15Z</time>
      </trkpt>
      <trkpt lat="45.41309" lon="3.37078">
        <ele>465.7</ele>
        <time>2020-09-17T10:25:16Z</time>
      </trkpt>
      <trkpt lat="45.4131" lon="3.37079">
        <ele>465.9</ele>
        <time>2020-09-17T10:25:17Z</time>
      </trkpt>
      <trkpt lat="45.4131" lon="3.37079">
        <ele>466</ele>
        <time>2020-09-17T10:25:18Z</time>
      </trkpt>
      <trkpt lat="45.41311" lon="3.3708">
        <ele>466.3</ele>
        <time>2020-09-17T10:25:19Z</time>
      </trkpt>
      <trkpt lat="45.41311" lon="3.3708">
        <ele>466.4</ele>
        <time>2020-09-17T10:25:20Z</time>
      </trkpt>
      <trkpt lat="45.41311" lon="3.3708">
        <ele>466.5</ele>
        <time>2020-09-17T10:25:21Z</time>
      </trkpt>
      <trkpt lat="45.41312" lon="3.37081">
        <ele>466.7</ele>
        <time>2020-09-17T10:25:22Z</time>
      </trkpt>
      <trkpt lat="45.41312" lon="3.37081">
        <ele>466.9</ele>
        <time>2020-09-17T10:25:23Z</time>
      </trkpt>
      <trkpt lat="45.41313" lon="3.37082">
        <ele>467</ele>
        <time>2020-09-17T10:25:24Z</time>
      </trkpt>
      <trkpt lat="45.41313" lon="3.37082">
        <ele>467.4</ele>
        <time>2020-09-17T10:25:25Z</time>
      </trkpt>
      <trkpt lat="45.41314" lon="3.37083">
        <ele>467.6</ele>
        <time>2020-09-17T10:25:26Z</time>
      </trkpt>
      <trkpt lat="45.41315" lon="3.37084">
        <ele>468</ele>
        <time>2020-09-17T10:25:27Z</time>
      </trkpt>
      <trkpt lat="45.41315" lon="3.37084">
        <ele>468.1</ele>
        <time>2020-09-17T10:25:28Z</time>
      </trkpt>
      <trkpt lat="45.41315" lon="3.37084">
        <ele>468.2</ele>
        <time>2020-09-17T10:25:29Z</time>
      </trkpt>
      <trkpt lat="45.41316" lon="3.37085">
        <ele>468.2</ele>
        <time>2020-09-17T10:25:30Z</time>
      </trkpt>
      <trkpt lat="45.41317" lon="3.37085">
        <ele>468.3</ele>
        <time>2020-09-17T10:25:31Z</time>
      </trkpt>
      <trkpt lat="45.41317" lon="3.37085">
        <ele>468.4</ele>
        <time>2020-09-17T10:25:32Z</time>
      </trkpt>
      <trkpt lat="45.41318" lon="3.37086">
        <ele>468.4</ele>
        <time>2020-09-17T10:25:33Z</time>
      </trkpt>
      <trkpt lat="45.41319" lon="3.37086">
        <ele>468.5</ele>
        <time>2020-09-17T10:25:34Z</time>
      </trkpt>
      <trkpt lat="45.41319" lon="3.37086">
        <ele>468.5</ele>
        <time>2020-09-17T10:25:35Z</time>
      </trkpt>
      <trkpt lat="45.4132" lon="3.37086">
        <ele>468.5</ele>
        <time>2020-09-17T10:25:36Z</time>
      </trkpt>
      <trkpt lat="45.41321" lon="3.37087">
        <ele>468.5</ele>
        <time>2020-09-17T10:25:37Z</time>
      </trkpt>
      <trkpt lat="45.41322" lon="3.37087">
        <ele>468.6</ele>
        <time>2020-09-17T10:25:38Z</time>
      </trkpt>
      <trkpt lat="45.41322" lon="3.37087">
        <ele>468.6</ele>
        <time>2020-09-17T10:25:39Z</time>
      </trkpt>
      <trkpt lat="45.41323" lon="3.37088">
        <ele>468.7</ele>
        <time>2020-09-17T10:25:40Z</time>
      </trkpt>
      <trkpt lat="45.41324" lon="3.37088">
        <ele>468.7</ele>
        <time>2020-09-17T10:25:41Z</time>
      </trkpt>
      <trkpt lat="45.41325" lon="3.37088">
        <ele>468.8</ele>
        <time>2020-09-17T10:25:42Z</time>
      </trkpt>
      <trkpt lat="45.41326" lon="3.37089">
        <ele>468.8</ele>
        <time>2020-09-17T10:25:43Z</time>
      </trkpt>
      <trkpt lat="45.41327" lon="3.37089">
        <ele>469</ele>
        <time>2020-09-17T10:25:44Z</time>
      </trkpt>
      <trkpt lat="45.41327" lon="3.3709">
        <ele>469.1</ele>
        <time>2020-09-17T10:25:45Z</time>
      </trkpt>
      <trkpt lat="45.41328" lon="3.3709">
        <ele>469.2</ele>
        <time>2020-09-17T10:25:46Z</time>
      </trkpt>
      <trkpt lat="45.41329" lon="3.3709">
        <ele>469.4</ele>
        <time>2020-09-17T10:25:47Z</time>
      </trkpt>
      <trkpt lat="45.41329" lon="3.37091">
        <ele>469.6</ele>
        <time>2020-09-17T10:25:48Z</time>
      </trkpt>
      <trkpt lat="45.4133" lon="3.37091">
        <ele>469.8</ele>
        <time>2020-09-17T10:25:49Z</time>
      </trkpt>
      <trkpt lat="45.4133" lon="3.37092">
        <ele>470</ele>
        <time>2020-09-17T10:25:50Z</time>
      </trkpt>
      <trkpt lat="45.41331" lon="3.37092">
        <ele>470.2</ele>
        <time>2020-09-17T10:25:51Z</time>
      </trkpt>
      <trkpt lat="45.41331" lon="3.37093">
        <ele>470.3</ele>
        <time>2020-09-17T10:25:52Z</time>
      </trkpt>
      <trkpt lat="45.41332" lon="3.37093">
        <ele>470.4</ele>
        <time>2020-09-17T10:25:53Z</time>
      </trkpt>
      <trkpt lat="45.41332" lon="3.37093">
        <ele>470.4</ele>
        <time>2020-09-17T10:25:54Z</time>
      </trkpt>
      <trkpt lat="45.41333" lon="3.37093">
        <ele>470.4</ele>
        <time>2020-09-17T10:25:55Z</time>
      </trkpt>
      <trkpt lat="45.41334" lon="3.37093">
        <ele>470.4</ele>
        <time>2020-09-17T10:25:56Z</time>
      </trkpt>
      <trkpt lat="45.41334" lon="3.37094">
        <ele>470.4</ele>
        <time>2020-09-17T10:25:57Z</time>
      </trkpt>
      <trkpt lat="45.41335" lon="3.37093">
        <ele>470.1</ele>
        <time>2020-09-17T10:25:58Z</time>
      </trkpt>
      <trkpt lat="45.41336" lon="3.37093">
        <ele>470</ele>
        <time>2020-09-17T10:25:59Z</time>
      </trkpt>
      <trkpt lat="45.41336" lon="3.37094">
        <ele>470</ele>
        <time>2020-09-17T10:26:00Z</time>
      </trkpt>
      <trkpt lat="45.41337" lon="3.37094">
        <ele>470.1</ele>
        <time>2020-09-17T10:26:01Z</time>
      </trkpt>
      <trkpt lat="45.41338" lon="3.37094">
        <ele>470.1</ele>
        <time>2020-09-17T10:26:02Z</time>
      </trkpt>
      <trkpt lat="45.41339" lon="3.37095">
        <ele>470.4</ele>
        <time>2020-09-17T10:26:03Z</time>
      </trkpt>
      <trkpt lat="45.41339" lon="3.37095">
        <ele>470.5</ele>
        <time>2020-09-17T10:26:04Z</time>
      </trkpt>
      <trkpt lat="45.4134" lon="3.37096">
        <ele>470.7</ele>
        <time>2020-09-17T10:26:05Z</time>
      </trkpt>
      <trkpt lat="45.4134" lon="3.37096">
        <ele>470.9</ele>
        <time>2020-09-17T10:26:06Z</time>
      </trkpt>
      <trkpt lat="45.41341" lon="3.37097">
        <ele>471.1</ele>
        <time>2020-09-17T10:26:07Z</time>
      </trkpt>
      <trkpt lat="45.41341" lon="3.37097">
        <ele>471.3</ele>
        <time>2020-09-17T10:26:08Z</time>
      </trkpt>
      <trkpt lat="45.41342" lon="3.37098">
        <ele>471.5</ele>
        <time>2020-09-17T10:26:09Z</time>
      </trkpt>
      <trkpt lat="45.41342" lon="3.37098">
        <ele>471.7</ele>
        <time>2020-09-17T10:26:10Z</time>
      </trkpt>
      <trkpt lat="45.41343" lon="3.37099">
        <ele>471.8</ele>
        <time>2020-09-17T10:26:11Z</time>
      </trkpt>
      <trkpt lat="45.41344" lon="3.37099">
        <ele>472</ele>
        <time>2020-09-17T10:26:12Z</time>
      </trkpt>
      <trkpt lat="45.41344" lon="3.371">
        <ele>472.2</ele>
        <time>2020-09-17T10:26:13Z</time>
      </trkpt>
      <trkpt lat="45.41345" lon="3.371">
        <ele>472.3</ele>
        <time>2020-09-17T10:26:14Z</time>
      </trkpt>
      <trkpt lat="45.41346" lon="3.37101">
        <ele>472.5</ele>
        <time>2020-09-17T10:26:15Z</time>
      </trkpt>
      <trkpt lat="45.41346" lon="3.37101">
        <ele>472.6</ele>
        <time>2020-09-17T10:26:16Z</time>
      </trkpt>
      <trkpt lat="45.41346" lon="3.37102">
        <ele>472.9</ele>
        <time>2020-09-17T10:26:17Z</time>
      </trkpt>
      <trkpt lat="45.41347" lon="3.37102">
        <ele>473.1</ele>
        <time>2020-09-17T10:26:18Z</time>
      </trkpt>
      <trkpt lat="45.41347" lon="3.37103">
        <ele>473.4</ele>
        <time>2020-09-17T10:26:19Z</time>
      </trkpt>
      <trkpt lat="45.41348" lon="3.37104">
        <ele>473.7</ele>
        <time>2020-09-17T10:26:20Z</time>
      </trkpt>
      <trkpt lat="45.41348" lon="3.37104">
        <ele>474</ele>
        <time>2020-09-17T10:26:21Z</time>
      </trkpt>
      <trkpt lat="45.41348" lon="3.37105">
        <ele>474.5</ele>
        <time>2020-09-17T10:26:22Z</time>
      </trkpt>
      <trkpt lat="45.41348" lon="3.37105">
        <ele>474.6</ele>
        <time>2020-09-17T10:26:23Z</time>
      </trkpt>
      <trkpt lat="45.41347" lon="3.37105">
        <ele>474.7</ele>
        <time>2020-09-17T10:26:24Z</time>
      </trkpt>
      <trkpt lat="45.41346" lon="3.37105">
        <ele>474.7</ele>
        <time>2020-09-17T10:26:25Z</time>
      </trkpt>
      <trkpt lat="45.41346" lon="3.37105">
        <ele>474.8</ele>
        <time>2020-09-17T10:26:26Z</time>
      </trkpt>
      <trkpt lat="45.41345" lon="3.37105">
        <ele>474.9</ele>
        <time>2020-09-17T10:26:27Z</time>
      </trkpt>
      <trkpt lat="45.41344" lon="3.37105">
        <ele>475</ele>
        <time>2020-09-17T10:26:28Z</time>
      </trkpt>
      <trkpt lat="45.41344" lon="3.37105">
        <ele>475.1</ele>
        <time>2020-09-17T10:26:29Z</time>
      </trkpt>
      <trkpt lat="45.41343" lon="3.37105">
        <ele>475.2</ele>
        <time>2020-09-17T10:26:30Z</time>
      </trkpt>
      <trkpt lat="45.41342" lon="3.37105">
        <ele>475.4</ele>
        <time>2020-09-17T10:26:31Z</time>
      </trkpt>
      <trkpt lat="45.41342" lon="3.37105">
        <ele>475.5</ele>
        <time>2020-09-17T10:26:32Z</time>
      </trkpt>
      <trkpt lat="45.41341" lon="3.37105">
        <ele>475.7</ele>
        <time>2020-09-17T10:26:33Z</time>
      </trkpt>
      <trkpt lat="45.4134" lon="3.37105">
        <ele>475.8</ele>
        <time>2020-09-17T10:26:34Z</time>
      </trkpt>
      <trkpt lat="45.4134" lon="3.37106">
        <ele>476</ele>
        <time>2020-09-17T10:26:35Z</time>
      </trkpt>
      <trkpt lat="45.41339" lon="3.37106">
        <ele>476.3</ele>
        <time>2020-09-17T10:26:36Z</time>
      </trkpt>
      <trkpt lat="45.41339" lon="3.37106">
        <ele>476.5</ele>
        <time>2020-09-17T10:26:37Z</time>
      </trkpt>
      <trkpt lat="45.41338" lon="3.37107">
        <ele>476.8</ele>
        <time>2020-09-17T10:26:38Z</time>
      </trkpt>
      <trkpt lat="45.41337" lon="3.37107">
        <ele>476.9</ele>
        <time>2020-09-17T10:26:39Z</time>
      </trkpt>
      <trkpt lat="45.41337" lon="3.37107">
        <ele>477.1</ele>
        <time>2020-09-17T10:26:40Z</time>
      </trkpt>
      <trkpt lat="45.41336" lon="3.37107">
        <ele>477.3</ele>
        <time>2020-09-17T10:26:41Z</time>
      </trkpt>
      <trkpt lat="45.41335" lon="3.37107">
        <ele>477.6</ele>
        <time>2020-09-17T10:26:42Z</time>
      </trkpt>
      <trkpt lat="45.41335" lon="3.37108">
        <ele>477.9</ele>
        <time>2020-09-17T10:26:43Z</time>
      </trkpt>
      <trkpt lat="45.41334" lon="3.37108">
        <ele>478.1</ele>
        <time>2020-09-17T10:26:44Z</time>
      </trkpt>
      <trkpt lat="45.41334" lon="3.37108">
        <ele>478.2</ele>
        <time>2020-09-17T10:26:45Z</time>
      </trkpt>
      <trkpt lat="45.41333" lon="3.37108">
        <ele>478.2</ele>
        <time>2020-09-17T10:26:46Z</time>
      </trkpt>
      <trkpt lat="45.41332" lon="3.37107">
        <ele>478.1</ele>
        <time>2020-09-17T10:26:47Z</time>
      </trkpt>
      <trkpt lat="45.41331" lon="3.37107">
        <ele>478.2</ele>
        <time>2020-09-17T10:26:48Z</time>
      </trkpt>
      <trkpt lat="45.4133" lon="3.37107">
        <ele>478.3</ele>
        <time>2020-09-17T10:26:49Z</time>
      </trkpt>
      <trkpt lat="45.4133" lon="3.37107">
        <ele>478.4</ele>
        <time>2020-09-17T10:26:50Z</time>
      </trkpt>
      <trkpt lat="45.41329" lon="3.37107">
        <ele>478.4</ele>
        <time>2020-09-17T10:26:51Z</time>
      </trkpt>
      <trkpt lat="45.41328" lon="3.37107">
        <ele>478.5</ele>
        <time>2020-09-17T10:26:52Z</time>
      </trkpt>
      <trkpt lat="45.41327" lon="3.37108">
        <ele>478.7</ele>
        <time>2020-09-17T10:26:53Z</time>
      </trkpt>
      <trkpt lat="45.41327" lon="3.37108">
        <ele>478.8</ele>
        <time>2020-09-17T10:26:54Z</time>
      </trkpt>
      <trkpt lat="45.41326" lon="3.37108">
        <ele>478.9</ele>
        <time>2020-09-17T10:26:55Z</time>
      </trkpt>
      <trkpt lat="45.41326" lon="3.37108">
        <ele>479</ele>
        <time>2020-09-17T10:26:56Z</time>
      </trkpt>
      <trkpt lat="45.41325" lon="3.37108">
        <ele>479.2</ele>
        <time>2020-09-17T10:26:57Z</time>
      </trkpt>
      <trkpt lat="45.41324" lon="3.37108">
        <ele>479.5</ele>
        <time>2020-09-17T10:26:58Z</time>
      </trkpt>
      <trkpt lat="45.41324" lon="3.37108">
        <ele>479.6</ele>
        <time>2020-09-17T10:26:59Z</time>
      </trkpt>
      <trkpt lat="45.41323" lon="3.37109">
        <ele>479.8</ele>
        <time>2020-09-17T10:27:00Z</time>
      </trkpt>
      <trkpt lat="45.41322" lon="3.37109">
        <ele>479.9</ele>
        <time>2020-09-17T10:27:01Z</time>
      </trkpt>
      <trkpt lat="45.41322" lon="3.37109">
        <ele>480</ele>
        <time>2020-09-17T10:27:02Z</time>
      </trkpt>
      <trkpt lat="45.41321" lon="3.37109">
        <ele>480.1</ele>
        <time>2020-09-17T10:27:03Z</time>
      </trkpt>
      <trkpt lat="45.41321" lon="3.37109">
        <ele>480.3</ele>
        <time>2020-09-17T10:27:04Z</time>
      </trkpt>
      <trkpt lat="45.4132" lon="3.37109">
        <ele>480.3</ele>
        <time>2020-09-17T10:27:05Z</time>
      </trkpt>
      <trkpt lat="45.4132" lon="3.37109">
        <ele>480.3</ele>
        <time>2020-09-17T10:27:06Z</time>
      </trkpt>
      <trkpt lat="45.41319" lon="3.37109">
        <ele>480.4</ele>
        <time>2020-09-17T10:27:07Z</time>
      </trkpt>
      <trkpt lat="45.41318" lon="3.37109">
        <ele>480.5</ele>
        <time>2020-09-17T10:27:08Z</time>
      </trkpt>
      <trkpt lat="45.41317" lon="3.37109">
        <ele>480.6</ele>
        <time>2020-09-17T10:27:09Z</time>
      </trkpt>
      <trkpt lat="45.41316" lon="3.37109">
        <ele>480.7</ele>
        <time>2020-09-17T10:27:10Z</time>
      </trkpt>
      <trkpt lat="45.41316" lon="3.37109">
        <ele>480.8</ele>
        <time>2020-09-17T10:27:11Z</time>
      </trkpt>
      <trkpt lat="45.41315" lon="3.3711">
        <ele>481.1</ele>
        <time>2020-09-17T10:27:12Z</time>
      </trkpt>
      <trkpt lat="45.41315" lon="3.3711">
        <ele>481.4</ele>
        <time>2020-09-17T10:27:13Z</time>
      </trkpt>
      <trkpt lat="45.41314" lon="3.3711">
        <ele>481.5</ele>
        <time>2020-09-17T10:27:14Z</time>
      </trkpt>
      <trkpt lat="45.41313" lon="3.3711">
        <ele>481.7</ele>
        <time>2020-09-17T10:27:15Z</time>
      </trkpt>
      <trkpt lat="45.41312" lon="3.3711">
        <ele>481.8</ele>
        <time>2020-09-17T10:27:16Z</time>
      </trkpt>
      <trkpt lat="45.41311" lon="3.3711">
        <ele>481.9</ele>
        <time>2020-09-17T10:27:17Z</time>
      </trkpt>
      <trkpt lat="45.4131" lon="3.3711">
        <ele>482.1</ele>
        <time>2020-09-17T10:27:18Z</time>
      </trkpt>
      <trkpt lat="45.41309" lon="3.37111">
        <ele>482.3</ele>
        <time>2020-09-17T10:27:19Z</time>
      </trkpt>
      <trkpt lat="45.41309" lon="3.37111">
        <ele>482.5</ele>
        <time>2020-09-17T10:27:20Z</time>
      </trkpt>
      <trkpt lat="45.41308" lon="3.37111">
        <ele>482.6</ele>
        <time>2020-09-17T10:27:21Z</time>
      </trkpt>
      <trkpt lat="45.41307" lon="3.37111">
        <ele>482.9</ele>
        <time>2020-09-17T10:27:22Z</time>
      </trkpt>
      <trkpt lat="45.41307" lon="3.37112">
        <ele>483.1</ele>
        <time>2020-09-17T10:27:23Z</time>
      </trkpt>
      <trkpt lat="45.41306" lon="3.37112">
        <ele>483.3</ele>
        <time>2020-09-17T10:27:24Z</time>
      </trkpt>
      <trkpt lat="45.41306" lon="3.37113">
        <ele>483.6</ele>
        <time>2020-09-17T10:27:25Z</time>
      </trkpt>
      <trkpt lat="45.41305" lon="3.37113">
        <ele>483.8</ele>
        <time>2020-09-17T10:27:26Z</time>
      </trkpt>
      <trkpt lat="45.41305" lon="3.37113">
        <ele>483.7</ele>
        <time>2020-09-17T10:27:27Z</time>
      </trkpt>
      <trkpt lat="45.41304" lon="3.37114">
        <ele>483.7</ele>
        <time>2020-09-17T10:27:28Z</time>
      </trkpt>
      <trkpt lat="45.41303" lon="3.37114">
        <ele>483.5</ele>
        <time>2020-09-17T10:27:29Z</time>
      </trkpt>
      <trkpt lat="45.41303" lon="3.37114">
        <ele>483.4</ele>
        <time>2020-09-17T10:27:30Z</time>
      </trkpt>
      <trkpt lat="45.41302" lon="3.37114">
        <ele>483.2</ele>
        <time>2020-09-17T10:27:31Z</time>
      </trkpt>
      <trkpt lat="45.41301" lon="3.37114">
        <ele>483.1</ele>
        <time>2020-09-17T10:27:32Z</time>
      </trkpt>
      <trkpt lat="45.413" lon="3.37115">
        <ele>482.9</ele>
        <time>2020-09-17T10:27:33Z</time>
      </trkpt>
      <trkpt lat="45.41299" lon="3.37115">
        <ele>482.7</ele>
        <time>2020-09-17T10:27:34Z</time>
      </trkpt>
      <trkpt lat="45.41299" lon="3.37115">
        <ele>482.7</ele>
        <time>2020-09-17T10:27:35Z</time>
      </trkpt>
      <trkpt lat="45.41298" lon="3.37116">
        <ele>482.7</ele>
        <time>2020-09-17T10:27:36Z</time>
      </trkpt>
      <trkpt lat="45.41297" lon="3.37116">
        <ele>482.7</ele>
        <time>2020-09-17T10:27:37Z</time>
      </trkpt>
      <trkpt lat="45.41296" lon="3.37116">
        <ele>482.5</ele>
        <time>2020-09-17T10:27:38Z</time>
      </trkpt>
      <trkpt lat="45.41296" lon="3.37117">
        <ele>482.5</ele>
        <time>2020-09-17T10:27:39Z</time>
      </trkpt>
      <trkpt lat="45.41295" lon="3.37117">
        <ele>482.5</ele>
        <time>2020-09-17T10:27:40Z</time>
      </trkpt>
      <trkpt lat="45.41295" lon="3.37117">
        <ele>482.3</ele>
        <time>2020-09-17T10:27:41Z</time>
      </trkpt>
      <trkpt lat="45.41294" lon="3.37117">
        <ele>482.2</ele>
        <time>2020-09-17T10:27:42Z</time>
      </trkpt>
      <trkpt lat="45.41294" lon="3.37118">
        <ele>482.4</ele>
        <time>2020-09-17T10:27:43Z</time>
      </trkpt>
      <trkpt lat="45.41294" lon="3.37118">
        <ele>482.5</ele>
        <time>2020-09-17T10:27:44Z</time>
      </trkpt>
      <trkpt lat="45.41293" lon="3.37119">
        <ele>482.6</ele>
        <time>2020-09-17T10:27:45Z</time>
      </trkpt>
      <trkpt lat="45.41293" lon="3.3712">
        <ele>482.9</ele>
        <time>2020-09-17T10:27:46Z</time>
      </trkpt>
      <trkpt lat="45.41293" lon="3.37121">
        <ele>483.2</ele>
        <time>2020-09-17T10:27:47Z</time>
      </trkpt>
      <trkpt lat="45.41293" lon="3.37121">
        <ele>483.5</ele>
        <time>2020-09-17T10:27:48Z</time>
      </trkpt>
      <trkpt lat="45.41293" lon="3.37122">
        <ele>483.8</ele>
        <time>2020-09-17T10:27:49Z</time>
      </trkpt>
      <trkpt lat="45.41293" lon="3.37123">
        <ele>484.1</ele>
        <time>2020-09-17T10:27:50Z</time>
      </trkpt>
      <trkpt lat="45.41293" lon="3.37123">
        <ele>484.1</ele>
        <time>2020-09-17T10:27:51Z</time>
      </trkpt>
      <trkpt lat="45.41293" lon="3.37123">
        <ele>484.1</ele>
        <time>2020-09-17T10:27:52Z</time>
      </trkpt>
      <trkpt lat="45.41293" lon="3.37123">
        <ele>484.1</ele>
        <time>2020-09-17T10:27:53Z</time>
      </trkpt>
      <trkpt lat="45.41293" lon="3.37123">
        <ele>484.3</ele>
        <time>2020-09-17T10:27:54Z</time>
      </trkpt>
      <trkpt lat="45.41293" lon="3.37123">
        <ele>484.4</ele>
        <time>2020-09-17T10:27:55Z</time>
      </trkpt>
      <trkpt lat="45.41293" lon="3.37124">
        <ele>484.5</ele>
        <time>2020-09-17T10:27:56Z</time>
      </trkpt>
      <trkpt lat="45.41293" lon="3.37124">
        <ele>484.7</ele>
        <time>2020-09-17T10:27:57Z</time>
      </trkpt>
      <trkpt lat="45.41293" lon="3.37125">
        <ele>485.1</ele>
        <time>2020-09-17T10:27:58Z</time>
      </trkpt>
      <trkpt lat="45.41293" lon="3.37126">
        <ele>485.5</ele>
        <time>2020-09-17T10:27:59Z</time>
      </trkpt>
      <trkpt lat="45.41292" lon="3.37127">
        <ele>485.7</ele>
        <time>2020-09-17T10:28:00Z</time>
      </trkpt>
      <trkpt lat="45.41292" lon="3.37128">
        <ele>486</ele>
        <time>2020-09-17T10:28:01Z</time>
      </trkpt>
      <trkpt lat="45.41292" lon="3.37129">
        <ele>486.2</ele>
        <time>2020-09-17T10:28:02Z</time>
      </trkpt>
      <trkpt lat="45.41291" lon="3.37129">
        <ele>486.3</ele>
        <time>2020-09-17T10:28:03Z</time>
      </trkpt>
      <trkpt lat="45.41291" lon="3.3713">
        <ele>486.5</ele>
        <time>2020-09-17T10:28:04Z</time>
      </trkpt>
      <trkpt lat="45.41291" lon="3.3713">
        <ele>486.6</ele>
        <time>2020-09-17T10:28:05Z</time>
      </trkpt>
      <trkpt lat="45.41291" lon="3.37131">
        <ele>486.8</ele>
        <time>2020-09-17T10:28:06Z</time>
      </trkpt>
      <trkpt lat="45.4129" lon="3.37132">
        <ele>487</ele>
        <time>2020-09-17T10:28:07Z</time>
      </trkpt>
      <trkpt lat="45.4129" lon="3.37132">
        <ele>487.2</ele>
        <time>2020-09-17T10:28:08Z</time>
      </trkpt>
      <trkpt lat="45.4129" lon="3.37133">
        <ele>487.4</ele>
        <time>2020-09-17T10:28:09Z</time>
      </trkpt>
      <trkpt lat="45.41289" lon="3.37134">
        <ele>487.6</ele>
        <time>2020-09-17T10:28:10Z</time>
      </trkpt>
      <trkpt lat="45.41289" lon="3.37134">
        <ele>487.7</ele>
        <time>2020-09-17T10:28:11Z</time>
      </trkpt>
      <trkpt lat="45.41289" lon="3.37135">
        <ele>487.9</ele>
        <time>2020-09-17T10:28:12Z</time>
      </trkpt>
      <trkpt lat="45.41288" lon="3.37136">
        <ele>488.1</ele>
        <time>2020-09-17T10:28:13Z</time>
      </trkpt>
      <trkpt lat="45.41288" lon="3.37136">
        <ele>488.3</ele>
        <time>2020-09-17T10:28:14Z</time>
      </trkpt>
      <trkpt lat="45.41288" lon="3.37137">
        <ele>488.5</ele>
        <time>2020-09-17T10:28:15Z</time>
      </trkpt>
      <trkpt lat="45.41288" lon="3.37138">
        <ele>488.6</ele>
        <time>2020-09-17T10:28:16Z</time>
      </trkpt>
      <trkpt lat="45.41288" lon="3.37138">
        <ele>488.8</ele>
        <time>2020-09-17T10:28:17Z</time>
      </trkpt>
      <trkpt lat="45.41287" lon="3.37138">
        <ele>488.9</ele>
        <time>2020-09-17T10:28:18Z</time>
      </trkpt>
      <trkpt lat="45.41287" lon="3.37139">
        <ele>489</ele>
        <time>2020-09-17T10:28:19Z</time>
      </trkpt>
      <trkpt lat="45.41287" lon="3.3714">
        <ele>489.2</ele>
        <time>2020-09-17T10:28:20Z</time>
      </trkpt>
      <trkpt lat="45.41287" lon="3.3714">
        <ele>489.4</ele>
        <time>2020-09-17T10:28:21Z</time>
      </trkpt>
      <trkpt lat="45.41287" lon="3.37141">
        <ele>489.6</ele>
        <time>2020-09-17T10:28:22Z</time>
      </trkpt>
      <trkpt lat="45.41287" lon="3.37141">
        <ele>489.8</ele>
        <time>2020-09-17T10:28:23Z</time>
      </trkpt>
      <trkpt lat="45.41287" lon="3.37142">
        <ele>490.1</ele>
        <time>2020-09-17T10:28:24Z</time>
      </trkpt>
      <trkpt lat="45.41287" lon="3.37143">
        <ele>490.3</ele>
        <time>2020-09-17T10:28:25Z</time>
      </trkpt>
      <trkpt lat="45.41287" lon="3.37143">
        <ele>490.4</ele>
        <time>2020-09-17T10:28:26Z</time>
      </trkpt>
      <trkpt lat="45.41286" lon="3.37144">
        <ele>490.5</ele>
        <time>2020-09-17T10:28:27Z</time>
      </trkpt>
      <trkpt lat="45.41286" lon="3.37144">
        <ele>490.8</ele>
        <time>2020-09-17T10:28:28Z</time>
      </trkpt>
      <trkpt lat="45.41286" lon="3.37145">
        <ele>491</ele>
        <time>2020-09-17T10:28:29Z</time>
      </trkpt>
      <trkpt lat="45.41286" lon="3.37146">
        <ele>491.1</ele>
        <time>2020-09-17T10:28:30Z</time>
      </trkpt>
      <trkpt lat="45.41285" lon="3.37146">
        <ele>491.2</ele>
        <time>2020-09-17T10:28:31Z</time>
      </trkpt>
      <trkpt lat="45.41285" lon="3.37147">
        <ele>491.4</ele>
        <time>2020-09-17T10:28:32Z</time>
      </trkpt>
      <trkpt lat="45.41285" lon="3.37148">
        <ele>491.5</ele>
        <time>2020-09-17T10:28:33Z</time>
      </trkpt>
      <trkpt lat="45.41284" lon="3.37149">
        <ele>491.7</ele>
        <time>2020-09-17T10:28:34Z</time>
      </trkpt>
      <trkpt lat="45.41284" lon="3.37149">
        <ele>491.9</ele>
        <time>2020-09-17T10:28:35Z</time>
      </trkpt>
      <trkpt lat="45.41284" lon="3.3715">
        <ele>492.2</ele>
        <time>2020-09-17T10:28:36Z</time>
      </trkpt>
      <trkpt lat="45.41284" lon="3.37151">
        <ele>492.5</ele>
        <time>2020-09-17T10:28:37Z</time>
      </trkpt>
      <trkpt lat="45.41283" lon="3.37152">
        <ele>492.7</ele>
        <time>2020-09-17T10:28:38Z</time>
      </trkpt>
      <trkpt lat="45.41283" lon="3.37153">
        <ele>493</ele>
        <time>2020-09-17T10:28:39Z</time>
      </trkpt>
      <trkpt lat="45.41283" lon="3.37154">
        <ele>493.3</ele>
        <time>2020-09-17T10:28:40Z</time>
      </trkpt>
      <trkpt lat="45.41283" lon="3.37155">
        <ele>493.5</ele>
        <time>2020-09-17T10:28:41Z</time>
      </trkpt>
      <trkpt lat="45.41283" lon="3.37155">
        <ele>493.7</ele>
        <time>2020-09-17T10:28:42Z</time>
      </trkpt>
      <trkpt lat="45.41282" lon="3.37156">
        <ele>493.8</ele>
        <time>2020-09-17T10:28:43Z</time>
      </trkpt>
      <trkpt lat="45.41282" lon="3.37157">
        <ele>494</ele>
        <time>2020-09-17T10:28:44Z</time>
      </trkpt>
      <trkpt lat="45.41282" lon="3.37157">
        <ele>494.2</ele>
        <time>2020-09-17T10:28:45Z</time>
      </trkpt>
      <trkpt lat="45.41282" lon="3.37158">
        <ele>494.4</ele>
        <time>2020-09-17T10:28:46Z</time>
      </trkpt>
      <trkpt lat="45.41282" lon="3.37158">
        <ele>494.5</ele>
        <time>2020-09-17T10:28:47Z</time>
      </trkpt>
      <trkpt lat="45.41282" lon="3.37159">
        <ele>494.8</ele>
        <time>2020-09-17T10:28:48Z</time>
      </trkpt>
      <trkpt lat="45.41282" lon="3.37159">
        <ele>495</ele>
        <time>2020-09-17T10:28:49Z</time>
      </trkpt>
      <trkpt lat="45.41283" lon="3.37159">
        <ele>495.1</ele>
        <time>2020-09-17T10:28:50Z</time>
      </trkpt>
      <trkpt lat="45.41283" lon="3.37159">
        <ele>495.3</ele>
        <time>2020-09-17T10:28:51Z</time>
      </trkpt>
      <trkpt lat="45.41284" lon="3.37159">
        <ele>495.5</ele>
        <time>2020-09-17T10:28:52Z</time>
      </trkpt>
      <trkpt lat="45.41284" lon="3.37159">
        <ele>495.5</ele>
        <time>2020-09-17T10:28:53Z</time>
      </trkpt>
      <trkpt lat="45.41285" lon="3.37159">
        <ele>495.6</ele>
        <time>2020-09-17T10:28:54Z</time>
      </trkpt>
      <trkpt lat="45.41285" lon="3.37158">
        <ele>495.8</ele>
        <time>2020-09-17T10:28:55Z</time>
      </trkpt>
      <trkpt lat="45.41286" lon="3.37158">
        <ele>496</ele>
        <time>2020-09-17T10:28:56Z</time>
      </trkpt>
      <trkpt lat="45.41287" lon="3.37158">
        <ele>496.1</ele>
        <time>2020-09-17T10:28:57Z</time>
      </trkpt>
      <trkpt lat="45.41287" lon="3.37157">
        <ele>496.2</ele>
        <time>2020-09-17T10:28:58Z</time>
      </trkpt>
      <trkpt lat="45.41288" lon="3.37157">
        <ele>496.4</ele>
        <time>2020-09-17T10:28:59Z</time>
      </trkpt>
      <trkpt lat="45.41289" lon="3.37157">
        <ele>496.6</ele>
        <time>2020-09-17T10:29:00Z</time>
      </trkpt>
      <trkpt lat="45.41289" lon="3.37157">
        <ele>496.7</ele>
        <time>2020-09-17T10:29:01Z</time>
      </trkpt>
      <trkpt lat="45.4129" lon="3.37157">
        <ele>497</ele>
        <time>2020-09-17T10:29:02Z</time>
      </trkpt>
      <trkpt lat="45.4129" lon="3.37157">
        <ele>497.2</ele>
        <time>2020-09-17T10:29:03Z</time>
      </trkpt>
      <trkpt lat="45.41291" lon="3.37157">
        <ele>497.4</ele>
        <time>2020-09-17T10:29:04Z</time>
      </trkpt>
      <trkpt lat="45.41292" lon="3.37157">
        <ele>497.7</ele>
        <time>2020-09-17T10:29:05Z</time>
      </trkpt>
      <trkpt lat="45.41292" lon="3.37157">
        <ele>497.9</ele>
        <time>2020-09-17T10:29:06Z</time>
      </trkpt>
      <trkpt lat="45.41292" lon="3.37157">
        <ele>498</ele>
        <time>2020-09-17T10:29:07Z</time>
      </trkpt>
      <trkpt lat="45.41293" lon="3.37157">
        <ele>498.2</ele>
        <time>2020-09-17T10:29:08Z</time>
      </trkpt>
      <trkpt lat="45.41293" lon="3.37158">
        <ele>498.6</ele>
        <time>2020-09-17T10:29:09Z</time>
      </trkpt>
      <trkpt lat="45.41294" lon="3.37158">
        <ele>498.8</ele>
        <time>2020-09-17T10:29:10Z</time>
      </trkpt>
      <trkpt lat="45.41294" lon="3.37159">
        <ele>499.2</ele>
        <time>2020-09-17T10:29:11Z</time>
      </trkpt>
      <trkpt lat="45.41293" lon="3.3716">
        <ele>499.3</ele>
        <time>2020-09-17T10:29:12Z</time>
      </trkpt>
      <trkpt lat="45.41293" lon="3.3716">
        <ele>499.4</ele>
        <time>2020-09-17T10:29:13Z</time>
      </trkpt>
      <trkpt lat="45.41293" lon="3.37161">
        <ele>499.6</ele>
        <time>2020-09-17T10:29:14Z</time>
      </trkpt>
      <trkpt lat="45.41293" lon="3.37162">
        <ele>499.8</ele>
        <time>2020-09-17T10:29:15Z</time>
      </trkpt>
      <trkpt lat="45.41292" lon="3.37162">
        <ele>500</ele>
        <time>2020-09-17T10:29:16Z</time>
      </trkpt>
      <trkpt lat="45.41292" lon="3.37163">
        <ele>500.1</ele>
        <time>2020-09-17T10:29:17Z</time>
      </trkpt>
      <trkpt lat="45.41292" lon="3.37164">
        <ele>500.5</ele>
        <time>2020-09-17T10:29:18Z</time>
      </trkpt>
      <trkpt lat="45.41292" lon="3.37165">
        <ele>500.8</ele>
        <time>2020-09-17T10:29:19Z</time>
      </trkpt>
      <trkpt lat="45.41292" lon="3.37166">
        <ele>501.1</ele>
        <time>2020-09-17T10:29:20Z</time>
      </trkpt>
      <trkpt lat="45.41291" lon="3.37166">
        <ele>501.1</ele>
        <time>2020-09-17T10:29:21Z</time>
      </trkpt>
      <trkpt lat="45.41291" lon="3.37167">
        <ele>501.2</ele>
        <time>2020-09-17T10:29:22Z</time>
      </trkpt>
      <trkpt lat="45.4129" lon="3.37167">
        <ele>501.2</ele>
        <time>2020-09-17T10:29:23Z</time>
      </trkpt>
      <trkpt lat="45.4129" lon="3.37168">
        <ele>501.3</ele>
        <time>2020-09-17T10:29:24Z</time>
      </trkpt>
      <trkpt lat="45.4129" lon="3.37168">
        <ele>501.5</ele>
        <time>2020-09-17T10:29:25Z</time>
      </trkpt>
      <trkpt lat="45.4129" lon="3.37169">
        <ele>501.9</ele>
        <time>2020-09-17T10:29:26Z</time>
      </trkpt>
      <trkpt lat="45.4129" lon="3.37169">
        <ele>502.1</ele>
        <time>2020-09-17T10:29:27Z</time>
      </trkpt>
      <trkpt lat="45.4129" lon="3.3717">
        <ele>502.4</ele>
        <time>2020-09-17T10:29:28Z</time>
      </trkpt>
      <trkpt lat="45.41291" lon="3.3717">
        <ele>502.7</ele>
        <time>2020-09-17T10:29:29Z</time>
      </trkpt>
      <trkpt lat="45.41291" lon="3.3717">
        <ele>503</ele>
        <time>2020-09-17T10:29:30Z</time>
      </trkpt>
      <trkpt lat="45.41292" lon="3.3717">
        <ele>503.1</ele>
        <time>2020-09-17T10:29:31Z</time>
      </trkpt>
      <trkpt lat="45.41292" lon="3.3717">
        <ele>503.2</ele>
        <time>2020-09-17T10:29:32Z</time>
      </trkpt>
      <trkpt lat="45.41293" lon="3.3717">
        <ele>503.4</ele>
        <time>2020-09-17T10:29:33Z</time>
      </trkpt>
      <trkpt lat="45.41293" lon="3.37169">
        <ele>503.4</ele>
        <time>2020-09-17T10:29:34Z</time>
      </trkpt>
      <trkpt lat="45.41294" lon="3.37169">
        <ele>503.5</ele>
        <time>2020-09-17T10:29:35Z</time>
      </trkpt>
      <trkpt lat="45.41295" lon="3.37169">
        <ele>503.7</ele>
        <time>2020-09-17T10:29:36Z</time>
      </trkpt>
      <trkpt lat="45.41295" lon="3.37169">
        <ele>503.9</ele>
        <time>2020-09-17T10:29:37Z</time>
      </trkpt>
      <trkpt lat="45.41295" lon="3.37169">
        <ele>504.1</ele>
        <time>2020-09-17T10:29:38Z</time>
      </trkpt>
      <trkpt lat="45.41296" lon="3.3717">
        <ele>504.5</ele>
        <time>2020-09-17T10:29:39Z</time>
      </trkpt>
      <trkpt lat="45.41296" lon="3.3717">
        <ele>505</ele>
        <time>2020-09-17T10:29:40Z</time>
      </trkpt>
      <trkpt lat="45.41296" lon="3.37171">
        <ele>505.3</ele>
        <time>2020-09-17T10:29:41Z</time>
      </trkpt>
      <trkpt lat="45.41296" lon="3.37172">
        <ele>505.5</ele>
        <time>2020-09-17T10:29:42Z</time>
      </trkpt>
      <trkpt lat="45.41295" lon="3.37173">
        <ele>505.7</ele>
        <time>2020-09-17T10:29:43Z</time>
      </trkpt>
      <trkpt lat="45.41295" lon="3.37173">
        <ele>505.9</ele>
        <time>2020-09-17T10:29:44Z</time>
      </trkpt>
      <trkpt lat="45.41294" lon="3.37174">
        <ele>506</ele>
        <time>2020-09-17T10:29:45Z</time>
      </trkpt>
      <trkpt lat="45.41294" lon="3.37175">
        <ele>506.3</ele>
        <time>2020-09-17T10:29:46Z</time>
      </trkpt>
      <trkpt lat="45.41294" lon="3.37176">
        <ele>506.5</ele>
        <time>2020-09-17T10:29:47Z</time>
      </trkpt>
      <trkpt lat="45.41293" lon="3.37176">
        <ele>506.6</ele>
        <time>2020-09-17T10:29:48Z</time>
      </trkpt>
      <trkpt lat="45.41293" lon="3.37177">
        <ele>506.9</ele>
        <time>2020-09-17T10:29:49Z</time>
      </trkpt>
      <trkpt lat="45.41293" lon="3.37178">
        <ele>507.1</ele>
        <time>2020-09-17T10:29:50Z</time>
      </trkpt>
      <trkpt lat="45.41292" lon="3.37178">
        <ele>507.1</ele>
        <time>2020-09-17T10:29:51Z</time>
      </trkpt>
      <trkpt lat="45.41292" lon="3.37179">
        <ele>507.1</ele>
        <time>2020-09-17T10:29:52Z</time>
      </trkpt>
      <trkpt lat="45.41291" lon="3.3718">
        <ele>507.1</ele>
        <time>2020-09-17T10:29:53Z</time>
      </trkpt>
      <trkpt lat="45.4129" lon="3.3718">
        <ele>507.2</ele>
        <time>2020-09-17T10:29:54Z</time>
      </trkpt>
      <trkpt lat="45.4129" lon="3.37181">
        <ele>507.4</ele>
        <time>2020-09-17T10:29:55Z</time>
      </trkpt>
      <trkpt lat="45.41289" lon="3.37182">
        <ele>507.4</ele>
        <time>2020-09-17T10:29:56Z</time>
      </trkpt>
      <trkpt lat="45.41289" lon="3.37183">
        <ele>507.5</ele>
        <time>2020-09-17T10:29:57Z</time>
      </trkpt>
      <trkpt lat="45.41288" lon="3.37183">
        <ele>507.6</ele>
        <time>2020-09-17T10:29:58Z</time>
      </trkpt>
      <trkpt lat="45.41288" lon="3.37184">
        <ele>507.8</ele>
        <time>2020-09-17T10:29:59Z</time>
      </trkpt>
      <trkpt lat="45.41288" lon="3.37185">
        <ele>508.2</ele>
        <time>2020-09-17T10:30:00Z</time>
      </trkpt>
      <trkpt lat="45.41287" lon="3.37186">
        <ele>508.5</ele>
        <time>2020-09-17T10:30:01Z</time>
      </trkpt>
      <trkpt lat="45.41287" lon="3.37187">
        <ele>508.8</ele>
        <time>2020-09-17T10:30:02Z</time>
      </trkpt>
      <trkpt lat="45.41286" lon="3.37188">
        <ele>508.8</ele>
        <time>2020-09-17T10:30:03Z</time>
      </trkpt>
      <trkpt lat="45.41285" lon="3.37188">
        <ele>508.7</ele>
        <time>2020-09-17T10:30:04Z</time>
      </trkpt>
      <trkpt lat="45.41285" lon="3.37189">
        <ele>508.6</ele>
        <time>2020-09-17T10:30:05Z</time>
      </trkpt>
      <trkpt lat="45.41284" lon="3.37189">
        <ele>508.5</ele>
        <time>2020-09-17T10:30:06Z</time>
      </trkpt>
      <trkpt lat="45.41283" lon="3.3719">
        <ele>508.5</ele>
        <time>2020-09-17T10:30:07Z</time>
      </trkpt>
      <trkpt lat="45.41283" lon="3.37191">
        <ele>508.7</ele>
        <time>2020-09-17T10:30:08Z</time>
      </trkpt>
      <trkpt lat="45.41283" lon="3.37191">
        <ele>508.8</ele>
        <time>2020-09-17T10:30:09Z</time>
      </trkpt>
      <trkpt lat="45.41282" lon="3.37192">
        <ele>509</ele>
        <time>2020-09-17T10:30:10Z</time>
      </trkpt>
      <trkpt lat="45.41282" lon="3.37193">
        <ele>509.2</ele>
        <time>2020-09-17T10:30:11Z</time>
      </trkpt>
      <trkpt lat="45.41282" lon="3.37194">
        <ele>509.4</ele>
        <time>2020-09-17T10:30:12Z</time>
      </trkpt>
      <trkpt lat="45.41281" lon="3.37194">
        <ele>509.4</ele>
        <time>2020-09-17T10:30:13Z</time>
      </trkpt>
      <trkpt lat="45.41281" lon="3.37195">
        <ele>509.3</ele>
        <time>2020-09-17T10:30:14Z</time>
      </trkpt>
      <trkpt lat="45.4128" lon="3.37195">
        <ele>509.3</ele>
        <time>2020-09-17T10:30:15Z</time>
      </trkpt>
      <trkpt lat="45.4128" lon="3.37196">
        <ele>509.2</ele>
        <time>2020-09-17T10:30:16Z</time>
      </trkpt>
      <trkpt lat="45.41279" lon="3.37197">
        <ele>509.2</ele>
        <time>2020-09-17T10:30:17Z</time>
      </trkpt>
      <trkpt lat="45.41279" lon="3.37197">
        <ele>509.3</ele>
        <time>2020-09-17T10:30:18Z</time>
      </trkpt>
      <trkpt lat="45.41279" lon="3.37198">
        <ele>509.3</ele>
        <time>2020-09-17T10:30:19Z</time>
      </trkpt>
      <trkpt lat="45.41278" lon="3.37199">
        <ele>509.3</ele>
        <time>2020-09-17T10:30:20Z</time>
      </trkpt>
      <trkpt lat="45.41278" lon="3.372">
        <ele>509.4</ele>
        <time>2020-09-17T10:30:21Z</time>
      </trkpt>
      <trkpt lat="45.41278" lon="3.37201">
        <ele>509.6</ele>
        <time>2020-09-17T10:30:22Z</time>
      </trkpt>
      <trkpt lat="45.41278" lon="3.37201">
        <ele>509.6</ele>
        <time>2020-09-17T10:30:23Z</time>
      </trkpt>
      <trkpt lat="45.41277" lon="3.37202">
        <ele>509.6</ele>
        <time>2020-09-17T10:30:24Z</time>
      </trkpt>
      <trkpt lat="45.41277" lon="3.37203">
        <ele>509.7</ele>
        <time>2020-09-17T10:30:25Z</time>
      </trkpt>
      <trkpt lat="45.41277" lon="3.37203">
        <ele>509.7</ele>
        <time>2020-09-17T10:30:26Z</time>
      </trkpt>
      <trkpt lat="45.41277" lon="3.37204">
        <ele>509.8</ele>
        <time>2020-09-17T10:30:27Z</time>
      </trkpt>
      <trkpt lat="45.41277" lon="3.37205">
        <ele>510.1</ele>
        <time>2020-09-17T10:30:28Z</time>
      </trkpt>
      <trkpt lat="45.41276" lon="3.37206">
        <ele>510.2</ele>
        <time>2020-09-17T10:30:29Z</time>
      </trkpt>
      <trkpt lat="45.41276" lon="3.37206">
        <ele>510.2</ele>
        <time>2020-09-17T10:30:30Z</time>
      </trkpt>
      <trkpt lat="45.41276" lon="3.37207">
        <ele>510.4</ele>
        <time>2020-09-17T10:30:31Z</time>
      </trkpt>
      <trkpt lat="45.41276" lon="3.37208">
        <ele>510.5</ele>
        <time>2020-09-17T10:30:32Z</time>
      </trkpt>
      <trkpt lat="45.41276" lon="3.37209">
        <ele>510.6</ele>
        <time>2020-09-17T10:30:33Z</time>
      </trkpt>
      <trkpt lat="45.41276" lon="3.3721">
        <ele>510.8</ele>
        <time>2020-09-17T10:30:34Z</time>
      </trkpt>
      <trkpt lat="45.41276" lon="3.37211">
        <ele>511.1</ele>
        <time>2020-09-17T10:30:35Z</time>
      </trkpt>
      <trkpt lat="45.41275" lon="3.37212">
        <ele>511.2</ele>
        <time>2020-09-17T10:30:36Z</time>
      </trkpt>
      <trkpt lat="45.41276" lon="3.37212">
        <ele>511.5</ele>
        <time>2020-09-17T10:30:37Z</time>
      </trkpt>
      <trkpt lat="45.41276" lon="3.37213">
        <ele>511.9</ele>
        <time>2020-09-17T10:30:38Z</time>
      </trkpt>
      <trkpt lat="45.41276" lon="3.37214">
        <ele>512.1</ele>
        <time>2020-09-17T10:30:39Z</time>
      </trkpt>
      <trkpt lat="45.41276" lon="3.37215">
        <ele>512.4</ele>
        <time>2020-09-17T10:30:40Z</time>
      </trkpt>
      <trkpt lat="45.41277" lon="3.37216">
        <ele>512.8</ele>
        <time>2020-09-17T10:30:41Z</time>
      </trkpt>
      <trkpt lat="45.41277" lon="3.37217">
        <ele>513.1</ele>
        <time>2020-09-17T10:30:42Z</time>
      </trkpt>
      <trkpt lat="45.41277" lon="3.37218">
        <ele>513.2</ele>
        <time>2020-09-17T10:30:43Z</time>
      </trkpt>
      <trkpt lat="45.41277" lon="3.37219">
        <ele>513.5</ele>
        <time>2020-09-17T10:30:44Z</time>
      </trkpt>
      <trkpt lat="45.41277" lon="3.37219">
        <ele>513.7</ele>
        <time>2020-09-17T10:30:45Z</time>
      </trkpt>
      <trkpt lat="45.41277" lon="3.3722">
        <ele>514</ele>
        <time>2020-09-17T10:30:46Z</time>
      </trkpt>
      <trkpt lat="45.41277" lon="3.37221">
        <ele>514.3</ele>
        <time>2020-09-17T10:30:47Z</time>
      </trkpt>
      <trkpt lat="45.41277" lon="3.37222">
        <ele>514.6</ele>
        <time>2020-09-17T10:30:48Z</time>
      </trkpt>
      <trkpt lat="45.41277" lon="3.37223">
        <ele>514.8</ele>
        <time>2020-09-17T10:30:49Z</time>
      </trkpt>
      <trkpt lat="45.41277" lon="3.37224">
        <ele>514.7</ele>
        <time>2020-09-17T10:30:50Z</time>
      </trkpt>
      <trkpt lat="45.41277" lon="3.37225">
        <ele>514.6</ele>
        <time>2020-09-17T10:30:51Z</time>
      </trkpt>
      <trkpt lat="45.41277" lon="3.37226">
        <ele>514.7</ele>
        <time>2020-09-17T10:30:52Z</time>
      </trkpt>
      <trkpt lat="45.41278" lon="3.37226">
        <ele>514.8</ele>
        <time>2020-09-17T10:30:53Z</time>
      </trkpt>
      <trkpt lat="45.41278" lon="3.37227">
        <ele>515</ele>
        <time>2020-09-17T10:30:54Z</time>
      </trkpt>
      <trkpt lat="45.41279" lon="3.37228">
        <ele>515.2</ele>
        <time>2020-09-17T10:30:55Z</time>
      </trkpt>
      <trkpt lat="45.41279" lon="3.37228">
        <ele>515.4</ele>
        <time>2020-09-17T10:30:56Z</time>
      </trkpt>
      <trkpt lat="45.41279" lon="3.37229">
        <ele>515.4</ele>
        <time>2020-09-17T10:30:57Z</time>
      </trkpt>
      <trkpt lat="45.4128" lon="3.37229">
        <ele>515.6</ele>
        <time>2020-09-17T10:30:58Z</time>
      </trkpt>
      <trkpt lat="45.4128" lon="3.3723">
        <ele>515.7</ele>
        <time>2020-09-17T10:30:59Z</time>
      </trkpt>
      <trkpt lat="45.4128" lon="3.37231">
        <ele>515.9</ele>
        <time>2020-09-17T10:31:00Z</time>
      </trkpt>
      <trkpt lat="45.41281" lon="3.37232">
        <ele>516</ele>
        <time>2020-09-17T10:31:01Z</time>
      </trkpt>
      <trkpt lat="45.41281" lon="3.37233">
        <ele>516.2</ele>
        <time>2020-09-17T10:31:02Z</time>
      </trkpt>
      <trkpt lat="45.41281" lon="3.37233">
        <ele>516.4</ele>
        <time>2020-09-17T10:31:03Z</time>
      </trkpt>
      <trkpt lat="45.41282" lon="3.37234">
        <ele>516.6</ele>
        <time>2020-09-17T10:31:04Z</time>
      </trkpt>
      <trkpt lat="45.41282" lon="3.37235">
        <ele>516.7</ele>
        <time>2020-09-17T10:31:05Z</time>
      </trkpt>
      <trkpt lat="45.41282" lon="3.37236">
        <ele>516.9</ele>
        <time>2020-09-17T10:31:06Z</time>
      </trkpt>
      <trkpt lat="45.41283" lon="3.37236">
        <ele>517</ele>
        <time>2020-09-17T10:31:07Z</time>
      </trkpt>
      <trkpt lat="45.41283" lon="3.37237">
        <ele>517.2</ele>
        <time>2020-09-17T10:31:08Z</time>
      </trkpt>
      <trkpt lat="45.41284" lon="3.37238">
        <ele>517.5</ele>
        <time>2020-09-17T10:31:09Z</time>
      </trkpt>
      <trkpt lat="45.41284" lon="3.37239">
        <ele>517.6</ele>
        <time>2020-09-17T10:31:10Z</time>
      </trkpt>
      <trkpt lat="45.41284" lon="3.37239">
        <ele>517.9</ele>
        <time>2020-09-17T10:31:11Z</time>
      </trkpt>
      <trkpt lat="45.41285" lon="3.3724">
        <ele>518.2</ele>
        <time>2020-09-17T10:31:12Z</time>
      </trkpt>
      <trkpt lat="45.41285" lon="3.37241">
        <ele>518.3</ele>
        <time>2020-09-17T10:31:13Z</time>
      </trkpt>
      <trkpt lat="45.41286" lon="3.37241">
        <ele>518.6</ele>
        <time>2020-09-17T10:31:14Z</time>
      </trkpt>
      <trkpt lat="45.41286" lon="3.37242">
        <ele>518.8</ele>
        <time>2020-09-17T10:31:15Z</time>
      </trkpt>
      <trkpt lat="45.41286" lon="3.37243">
        <ele>518.9</ele>
        <time>2020-09-17T10:31:16Z</time>
      </trkpt>
      <trkpt lat="45.41287" lon="3.37244">
        <ele>519.1</ele>
        <time>2020-09-17T10:31:17Z</time>
      </trkpt>
      <trkpt lat="45.41287" lon="3.37245">
        <ele>519.3</ele>
        <time>2020-09-17T10:31:18Z</time>
      </trkpt>
      <trkpt lat="45.41287" lon="3.37246">
        <ele>519.4</ele>
        <time>2020-09-17T10:31:19Z</time>
      </trkpt>
      <trkpt lat="45.41288" lon="3.37247">
        <ele>519.6</ele>
        <time>2020-09-17T10:31:20Z</time>
      </trkpt>
      <trkpt lat="45.41288" lon="3.37248">
        <ele>519.7</ele>
        <time>2020-09-17T10:31:21Z</time>
      </trkpt>
      <trkpt lat="45.41288" lon="3.37248">
        <ele>520</ele>
        <time>2020-09-17T10:31:22Z</time>
      </trkpt>
      <trkpt lat="45.41289" lon="3.37249">
        <ele>520.3</ele>
        <time>2020-09-17T10:31:23Z</time>
      </trkpt>
      <trkpt lat="45.41289" lon="3.3725">
        <ele>520.6</ele>
        <time>2020-09-17T10:31:24Z</time>
      </trkpt>
      <trkpt lat="45.4129" lon="3.3725">
        <ele>520.8</ele>
        <time>2020-09-17T10:31:25Z</time>
      </trkpt>
      <trkpt lat="45.4129" lon="3.3725">
        <ele>521.1</ele>
        <time>2020-09-17T10:31:26Z</time>
      </trkpt>
      <trkpt lat="45.41291" lon="3.3725">
        <ele>521.4</ele>
        <time>2020-09-17T10:31:27Z</time>
      </trkpt>
      <trkpt lat="45.41291" lon="3.3725">
        <ele>521.8</ele>
        <time>2020-09-17T10:31:28Z</time>
      </trkpt>
      <trkpt lat="45.41292" lon="3.37249">
        <ele>522</ele>
        <time>2020-09-17T10:31:29Z</time>
      </trkpt>
      <trkpt lat="45.41292" lon="3.37249">
        <ele>522.4</ele>
        <time>2020-09-17T10:31:30Z</time>
      </trkpt>
      <trkpt lat="45.41293" lon="3.37248">
        <ele>522.6</ele>
        <time>2020-09-17T10:31:31Z</time>
      </trkpt>
      <trkpt lat="45.41293" lon="3.37247">
        <ele>522.9</ele>
        <time>2020-09-17T10:31:32Z</time>
      </trkpt>
      <trkpt lat="45.41294" lon="3.37247">
        <ele>523.1</ele>
        <time>2020-09-17T10:31:33Z</time>
      </trkpt>
      <trkpt lat="45.41294" lon="3.37246">
        <ele>523.1</ele>
        <time>2020-09-17T10:31:34Z</time>
      </trkpt>
      <trkpt lat="45.41294" lon="3.37246">
        <ele>523.2</ele>
        <time>2020-09-17T10:31:35Z</time>
      </trkpt>
      <trkpt lat="45.41294" lon="3.37245">
        <ele>523.4</ele>
        <time>2020-09-17T10:31:36Z</time>
      </trkpt>
      <trkpt lat="45.41295" lon="3.37244">
        <ele>523.5</ele>
        <time>2020-09-17T10:31:37Z</time>
      </trkpt>
      <trkpt lat="45.41295" lon="3.37244">
        <ele>523.7</ele>
        <time>2020-09-17T10:31:38Z</time>
      </trkpt>
      <trkpt lat="45.41296" lon="3.37243">
        <ele>524.2</ele>
        <time>2020-09-17T10:31:39Z</time>
      </trkpt>
      <trkpt lat="45.41297" lon="3.37243">
        <ele>524.5</ele>
        <time>2020-09-17T10:31:40Z</time>
      </trkpt>
      <trkpt lat="45.41297" lon="3.37242">
        <ele>524.7</ele>
        <time>2020-09-17T10:31:41Z</time>
      </trkpt>
      <trkpt lat="45.41297" lon="3.37242">
        <ele>524.8</ele>
        <time>2020-09-17T10:31:42Z</time>
      </trkpt>
      <trkpt lat="45.41298" lon="3.37242">
        <ele>525.1</ele>
        <time>2020-09-17T10:31:43Z</time>
      </trkpt>
      <trkpt lat="45.41298" lon="3.37241">
        <ele>525.4</ele>
        <time>2020-09-17T10:31:44Z</time>
      </trkpt>
      <trkpt lat="45.41299" lon="3.37241">
        <ele>525.6</ele>
        <time>2020-09-17T10:31:45Z</time>
      </trkpt>
      <trkpt lat="45.41299" lon="3.3724">
        <ele>525.8</ele>
        <time>2020-09-17T10:31:46Z</time>
      </trkpt>
      <trkpt lat="45.41299" lon="3.3724">
        <ele>525.8</ele>
        <time>2020-09-17T10:31:47Z</time>
      </trkpt>
      <trkpt lat="45.413" lon="3.3724">
        <ele>526.2</ele>
        <time>2020-09-17T10:31:48Z</time>
      </trkpt>
      <trkpt lat="45.413" lon="3.37239">
        <ele>526.4</ele>
        <time>2020-09-17T10:31:49Z</time>
      </trkpt>
      <trkpt lat="45.41301" lon="3.37239">
        <ele>526.5</ele>
        <time>2020-09-17T10:31:50Z</time>
      </trkpt>
      <trkpt lat="45.41301" lon="3.37239">
        <ele>526.6</ele>
        <time>2020-09-17T10:31:51Z</time>
      </trkpt>
      <trkpt lat="45.41301" lon="3.37238">
        <ele>526.6</ele>
        <time>2020-09-17T10:31:52Z</time>
      </trkpt>
      <trkpt lat="45.41301" lon="3.37237">
        <ele>526.9</ele>
        <time>2020-09-17T10:31:53Z</time>
      </trkpt>
      <trkpt lat="45.41302" lon="3.37237">
        <ele>527</ele>
        <time>2020-09-17T10:31:54Z</time>
      </trkpt>
      <trkpt lat="45.41302" lon="3.37237">
        <ele>527.3</ele>
        <time>2020-09-17T10:31:55Z</time>
      </trkpt>
      <trkpt lat="45.41303" lon="3.37236">
        <ele>527.4</ele>
        <time>2020-09-17T10:31:56Z</time>
      </trkpt>
      <trkpt lat="45.41303" lon="3.37236">
        <ele>527.5</ele>
        <time>2020-09-17T10:31:57Z</time>
      </trkpt>
      <trkpt lat="45.41303" lon="3.37235">
        <ele>527.5</ele>
        <time>2020-09-17T10:31:58Z</time>
      </trkpt>
      <trkpt lat="45.41303" lon="3.37234">
        <ele>527.6</ele>
        <time>2020-09-17T10:31:59Z</time>
      </trkpt>
      <trkpt lat="45.41304" lon="3.37233">
        <ele>527.7</ele>
        <time>2020-09-17T10:32:00Z</time>
      </trkpt>
      <trkpt lat="45.41304" lon="3.37232">
        <ele>527.7</ele>
        <time>2020-09-17T10:32:01Z</time>
      </trkpt>
      <trkpt lat="45.41304" lon="3.37231">
        <ele>527.9</ele>
        <time>2020-09-17T10:32:02Z</time>
      </trkpt>
      <trkpt lat="45.41304" lon="3.3723">
        <ele>528</ele>
        <time>2020-09-17T10:32:03Z</time>
      </trkpt>
      <trkpt lat="45.41305" lon="3.37229">
        <ele>528</ele>
        <time>2020-09-17T10:32:04Z</time>
      </trkpt>
      <trkpt lat="45.41305" lon="3.37228">
        <ele>528</ele>
        <time>2020-09-17T10:32:05Z</time>
      </trkpt>
      <trkpt lat="45.41305" lon="3.37227">
        <ele>528</ele>
        <time>2020-09-17T10:32:06Z</time>
      </trkpt>
      <trkpt lat="45.41305" lon="3.37226">
        <ele>528.1</ele>
        <time>2020-09-17T10:32:07Z</time>
      </trkpt>
      <trkpt lat="45.41306" lon="3.37225">
        <ele>528.2</ele>
        <time>2020-09-17T10:32:08Z</time>
      </trkpt>
      <trkpt lat="45.41306" lon="3.37224">
        <ele>528.3</ele>
        <time>2020-09-17T10:32:09Z</time>
      </trkpt>
      <trkpt lat="45.41307" lon="3.37223">
        <ele>528.3</ele>
        <time>2020-09-17T10:32:10Z</time>
      </trkpt>
      <trkpt lat="45.41307" lon="3.37223">
        <ele>528.4</ele>
        <time>2020-09-17T10:32:11Z</time>
      </trkpt>
      <trkpt lat="45.41308" lon="3.37223">
        <ele>528.4</ele>
        <time>2020-09-17T10:32:12Z</time>
      </trkpt>
      <trkpt lat="45.41308" lon="3.37222">
        <ele>528.4</ele>
        <time>2020-09-17T10:32:13Z</time>
      </trkpt>
      <trkpt lat="45.41309" lon="3.37222">
        <ele>528.4</ele>
        <time>2020-09-17T10:32:14Z</time>
      </trkpt>
      <trkpt lat="45.41309" lon="3.37221">
        <ele>528.4</ele>
        <time>2020-09-17T10:32:15Z</time>
      </trkpt>
      <trkpt lat="45.41309" lon="3.37221">
        <ele>528.4</ele>
        <time>2020-09-17T10:32:16Z</time>
      </trkpt>
      <trkpt lat="45.4131" lon="3.3722">
        <ele>528.2</ele>
        <time>2020-09-17T10:32:17Z</time>
      </trkpt>
      <trkpt lat="45.4131" lon="3.37219">
        <ele>528.1</ele>
        <time>2020-09-17T10:32:18Z</time>
      </trkpt>
      <trkpt lat="45.4131" lon="3.37219">
        <ele>528</ele>
        <time>2020-09-17T10:32:19Z</time>
      </trkpt>
      <trkpt lat="45.41311" lon="3.37218">
        <ele>527.9</ele>
        <time>2020-09-17T10:32:20Z</time>
      </trkpt>
      <trkpt lat="45.41311" lon="3.37217">
        <ele>527.7</ele>
        <time>2020-09-17T10:32:21Z</time>
      </trkpt>
      <trkpt lat="45.41312" lon="3.37216">
        <ele>527.5</ele>
        <time>2020-09-17T10:32:22Z</time>
      </trkpt>
      <trkpt lat="45.41312" lon="3.37216">
        <ele>527.5</ele>
        <time>2020-09-17T10:32:23Z</time>
      </trkpt>
      <trkpt lat="45.41313" lon="3.37215">
        <ele>527.5</ele>
        <time>2020-09-17T10:32:24Z</time>
      </trkpt>
      <trkpt lat="45.41314" lon="3.37215">
        <ele>527.7</ele>
        <time>2020-09-17T10:32:25Z</time>
      </trkpt>
      <trkpt lat="45.41315" lon="3.37215">
        <ele>527.8</ele>
        <time>2020-09-17T10:32:26Z</time>
      </trkpt>
      <trkpt lat="45.41315" lon="3.37215">
        <ele>528</ele>
        <time>2020-09-17T10:32:27Z</time>
      </trkpt>
      <trkpt lat="45.41316" lon="3.37216">
        <ele>528.2</ele>
        <time>2020-09-17T10:32:28Z</time>
      </trkpt>
      <trkpt lat="45.41316" lon="3.37216">
        <ele>528.4</ele>
        <time>2020-09-17T10:32:29Z</time>
      </trkpt>
      <trkpt lat="45.41317" lon="3.37217">
        <ele>528.7</ele>
        <time>2020-09-17T10:32:30Z</time>
      </trkpt>
      <trkpt lat="45.41317" lon="3.37218">
        <ele>529</ele>
        <time>2020-09-17T10:32:31Z</time>
      </trkpt>
      <trkpt lat="45.41317" lon="3.37219">
        <ele>529.3</ele>
        <time>2020-09-17T10:32:32Z</time>
      </trkpt>
      <trkpt lat="45.41317" lon="3.3722">
        <ele>529.6</ele>
        <time>2020-09-17T10:32:33Z</time>
      </trkpt>
      <trkpt lat="45.41317" lon="3.37221">
        <ele>530</ele>
        <time>2020-09-17T10:32:34Z</time>
      </trkpt>
      <trkpt lat="45.41317" lon="3.37222">
        <ele>530.4</ele>
        <time>2020-09-17T10:32:35Z</time>
      </trkpt>
      <trkpt lat="45.41318" lon="3.37223">
        <ele>530.6</ele>
        <time>2020-09-17T10:32:36Z</time>
      </trkpt>
      <trkpt lat="45.41318" lon="3.37224">
        <ele>530.7</ele>
        <time>2020-09-17T10:32:37Z</time>
      </trkpt>
      <trkpt lat="45.41318" lon="3.37224">
        <ele>530.8</ele>
        <time>2020-09-17T10:32:38Z</time>
      </trkpt>
      <trkpt lat="45.41318" lon="3.37225">
        <ele>531</ele>
        <time>2020-09-17T10:32:39Z</time>
      </trkpt>
      <trkpt lat="45.41318" lon="3.37225">
        <ele>531.1</ele>
        <time>2020-09-17T10:32:40Z</time>
      </trkpt>
      <trkpt lat="45.41319" lon="3.37225">
        <ele>531.3</ele>
        <time>2020-09-17T10:32:41Z</time>
      </trkpt>
      <trkpt lat="45.4132" lon="3.37225">
        <ele>531.4</ele>
        <time>2020-09-17T10:32:42Z</time>
      </trkpt>
      <trkpt lat="45.41321" lon="3.37225">
        <ele>531.5</ele>
        <time>2020-09-17T10:32:43Z</time>
      </trkpt>
      <trkpt lat="45.41321" lon="3.37225">
        <ele>531.6</ele>
        <time>2020-09-17T10:32:44Z</time>
      </trkpt>
      <trkpt lat="45.41322" lon="3.37224">
        <ele>531.8</ele>
        <time>2020-09-17T10:32:45Z</time>
      </trkpt>
      <trkpt lat="45.41323" lon="3.37224">
        <ele>531.8</ele>
        <time>2020-09-17T10:32:46Z</time>
      </trkpt>
      <trkpt lat="45.41323" lon="3.37223">
        <ele>531.9</ele>
        <time>2020-09-17T10:32:47Z</time>
      </trkpt>
      <trkpt lat="45.41324" lon="3.37223">
        <ele>532</ele>
        <time>2020-09-17T10:32:48Z</time>
      </trkpt>
      <trkpt lat="45.41325" lon="3.37223">
        <ele>532.1</ele>
        <time>2020-09-17T10:32:49Z</time>
      </trkpt>
      <trkpt lat="45.41325" lon="3.37223">
        <ele>532.3</ele>
        <time>2020-09-17T10:32:50Z</time>
      </trkpt>
      <trkpt lat="45.41326" lon="3.37224">
        <ele>532.6</ele>
        <time>2020-09-17T10:32:51Z</time>
      </trkpt>
      <trkpt lat="45.41327" lon="3.37224">
        <ele>532.8</ele>
        <time>2020-09-17T10:32:52Z</time>
      </trkpt>
      <trkpt lat="45.41327" lon="3.37225">
        <ele>533</ele>
        <time>2020-09-17T10:32:53Z</time>
      </trkpt>
      <trkpt lat="45.41328" lon="3.37225">
        <ele>533.2</ele>
        <time>2020-09-17T10:32:54Z</time>
      </trkpt>
      <trkpt lat="45.41329" lon="3.37226">
        <ele>533.6</ele>
        <time>2020-09-17T10:32:55Z</time>
      </trkpt>
      <trkpt lat="45.4133" lon="3.37227">
        <ele>533.8</ele>
        <time>2020-09-17T10:32:56Z</time>
      </trkpt>
      <trkpt lat="45.4133" lon="3.37227">
        <ele>534</ele>
        <time>2020-09-17T10:32:57Z</time>
      </trkpt>
      <trkpt lat="45.4133" lon="3.37228">
        <ele>534.1</ele>
        <time>2020-09-17T10:32:58Z</time>
      </trkpt>
      <trkpt lat="45.41331" lon="3.37228">
        <ele>534.3</ele>
        <time>2020-09-17T10:32:59Z</time>
      </trkpt>
      <trkpt lat="45.41332" lon="3.37229">
        <ele>534.5</ele>
        <time>2020-09-17T10:33:00Z</time>
      </trkpt>
      <trkpt lat="45.41332" lon="3.37229">
        <ele>534.7</ele>
        <time>2020-09-17T10:33:01Z</time>
      </trkpt>
      <trkpt lat="45.41333" lon="3.37229">
        <ele>535</ele>
        <time>2020-09-17T10:33:02Z</time>
      </trkpt>
      <trkpt lat="45.41334" lon="3.3723">
        <ele>535</ele>
        <time>2020-09-17T10:33:03Z</time>
      </trkpt>
      <trkpt lat="45.41335" lon="3.3723">
        <ele>535</ele>
        <time>2020-09-17T10:33:04Z</time>
      </trkpt>
      <trkpt lat="45.41336" lon="3.37231">
        <ele>535</ele>
        <time>2020-09-17T10:33:05Z</time>
      </trkpt>
      <trkpt lat="45.41336" lon="3.37232">
        <ele>535</ele>
        <time>2020-09-17T10:33:06Z</time>
      </trkpt>
      <trkpt lat="45.41337" lon="3.37232">
        <ele>535</ele>
        <time>2020-09-17T10:33:07Z</time>
      </trkpt>
      <trkpt lat="45.41338" lon="3.37233">
        <ele>535</ele>
        <time>2020-09-17T10:33:08Z</time>
      </trkpt>
      <trkpt lat="45.41339" lon="3.37233">
        <ele>535</ele>
        <time>2020-09-17T10:33:09Z</time>
      </trkpt>
      <trkpt lat="45.41339" lon="3.37234">
        <ele>535</ele>
        <time>2020-09-17T10:33:10Z</time>
      </trkpt>
      <trkpt lat="45.4134" lon="3.37235">
        <ele>535.1</ele>
        <time>2020-09-17T10:33:11Z</time>
      </trkpt>
      <trkpt lat="45.41341" lon="3.37236">
        <ele>535.2</ele>
        <time>2020-09-17T10:33:12Z</time>
      </trkpt>
      <trkpt lat="45.41341" lon="3.37237">
        <ele>535.4</ele>
        <time>2020-09-17T10:33:13Z</time>
      </trkpt>
      <trkpt lat="45.41342" lon="3.37238">
        <ele>535.5</ele>
        <time>2020-09-17T10:33:14Z</time>
      </trkpt>
      <trkpt lat="45.41342" lon="3.37239">
        <ele>535.6</ele>
        <time>2020-09-17T10:33:15Z</time>
      </trkpt>
      <trkpt lat="45.41342" lon="3.3724">
        <ele>535.8</ele>
        <time>2020-09-17T10:33:16Z</time>
      </trkpt>
      <trkpt lat="45.41343" lon="3.37241">
        <ele>535.9</ele>
        <time>2020-09-17T10:33:17Z</time>
      </trkpt>
      <trkpt lat="45.41343" lon="3.37242">
        <ele>536</ele>
        <time>2020-09-17T10:33:18Z</time>
      </trkpt>
      <trkpt lat="45.41344" lon="3.37244">
        <ele>536.1</ele>
        <time>2020-09-17T10:33:19Z</time>
      </trkpt>
      <trkpt lat="45.41344" lon="3.37245">
        <ele>536.3</ele>
        <time>2020-09-17T10:33:20Z</time>
      </trkpt>
      <trkpt lat="45.41345" lon="3.37246">
        <ele>536.5</ele>
        <time>2020-09-17T10:33:21Z</time>
      </trkpt>
      <trkpt lat="45.41345" lon="3.37247">
        <ele>536.7</ele>
        <time>2020-09-17T10:33:22Z</time>
      </trkpt>
      <trkpt lat="45.41344" lon="3.37249">
        <ele>536.9</ele>
        <time>2020-09-17T10:33:23Z</time>
      </trkpt>
      <trkpt lat="45.41344" lon="3.3725">
        <ele>537.1</ele>
        <time>2020-09-17T10:33:24Z</time>
      </trkpt>
      <trkpt lat="45.41344" lon="3.37251">
        <ele>537.2</ele>
        <time>2020-09-17T10:33:25Z</time>
      </trkpt>
      <trkpt lat="45.41334" lon="3.37248">
        <ele>537.6</ele>
        <time>2020-09-17T10:33:26Z</time>
      </trkpt>
      <trkpt lat="45.41335" lon="3.37248">
        <ele>537.5</ele>
        <time>2020-09-17T10:33:27Z</time>
      </trkpt>
      <trkpt lat="45.41336" lon="3.37248">
        <ele>537.5</ele>
        <time>2020-09-17T10:33:28Z</time>
      </trkpt>
      <trkpt lat="45.41336" lon="3.37248">
        <ele>537.4</ele>
        <time>2020-09-17T10:33:29Z</time>
      </trkpt>
      <trkpt lat="45.41337" lon="3.37248">
        <ele>537.4</ele>
        <time>2020-09-17T10:33:30Z</time>
      </trkpt>
      <trkpt lat="45.41338" lon="3.37248">
        <ele>537.4</ele>
        <time>2020-09-17T10:33:31Z</time>
      </trkpt>
      <trkpt lat="45.41339" lon="3.37248">
        <ele>537.3</ele>
        <time>2020-09-17T10:33:32Z</time>
      </trkpt>
      <trkpt lat="45.4134" lon="3.37249">
        <ele>537.3</ele>
        <time>2020-09-17T10:33:33Z</time>
      </trkpt>
      <trkpt lat="45.41341" lon="3.37249">
        <ele>537.4</ele>
        <time>2020-09-17T10:33:34Z</time>
      </trkpt>
      <trkpt lat="45.41342" lon="3.3725">
        <ele>537.4</ele>
        <time>2020-09-17T10:33:35Z</time>
      </trkpt>
      <trkpt lat="45.41343" lon="3.37251">
        <ele>537.3</ele>
        <time>2020-09-17T10:33:36Z</time>
      </trkpt>
      <trkpt lat="45.41344" lon="3.37251">
        <ele>537.1</ele>
        <time>2020-09-17T10:33:37Z</time>
      </trkpt>
      <trkpt lat="45.41344" lon="3.37252">
        <ele>537</ele>
        <time>2020-09-17T10:33:38Z</time>
      </trkpt>
      <trkpt lat="45.41345" lon="3.37252">
        <ele>536.9</ele>
        <time>2020-09-17T10:33:39Z</time>
      </trkpt>
      <trkpt lat="45.41346" lon="3.37253">
        <ele>536.8</ele>
        <time>2020-09-17T10:33:40Z</time>
      </trkpt>
      <trkpt lat="45.41347" lon="3.37254">
        <ele>536.7</ele>
        <time>2020-09-17T10:33:41Z</time>
      </trkpt>
      <trkpt lat="45.41348" lon="3.37255">
        <ele>536.6</ele>
        <time>2020-09-17T10:33:42Z</time>
      </trkpt>
      <trkpt lat="45.41348" lon="3.37256">
        <ele>536.5</ele>
        <time>2020-09-17T10:33:43Z</time>
      </trkpt>
      <trkpt lat="45.41349" lon="3.37256">
        <ele>536.4</ele>
        <time>2020-09-17T10:33:44Z</time>
      </trkpt>
      <trkpt lat="45.4135" lon="3.37258">
        <ele>536.3</ele>
        <time>2020-09-17T10:33:45Z</time>
      </trkpt>
      <trkpt lat="45.4135" lon="3.37259">
        <ele>536.3</ele>
        <time>2020-09-17T10:33:46Z</time>
      </trkpt>
      <trkpt lat="45.41351" lon="3.37259">
        <ele>536.2</ele>
        <time>2020-09-17T10:33:47Z</time>
      </trkpt>
      <trkpt lat="45.41352" lon="3.3726">
        <ele>536.2</ele>
        <time>2020-09-17T10:33:48Z</time>
      </trkpt>
      <trkpt lat="45.41353" lon="3.37261">
        <ele>536.2</ele>
        <time>2020-09-17T10:33:49Z</time>
      </trkpt>
      <trkpt lat="45.41354" lon="3.37262">
        <ele>536.2</ele>
        <time>2020-09-17T10:33:50Z</time>
      </trkpt>
      <trkpt lat="45.41354" lon="3.37263">
        <ele>536.2</ele>
        <time>2020-09-17T10:33:51Z</time>
      </trkpt>
      <trkpt lat="45.41355" lon="3.37264">
        <ele>536.2</ele>
        <time>2020-09-17T10:33:52Z</time>
      </trkpt>
      <trkpt lat="45.41356" lon="3.37266">
        <ele>536.2</ele>
        <time>2020-09-17T10:33:53Z</time>
      </trkpt>
      <trkpt lat="45.41357" lon="3.37267">
        <ele>536.2</ele>
        <time>2020-09-17T10:33:54Z</time>
      </trkpt>
      <trkpt lat="45.41357" lon="3.37268">
        <ele>536.3</ele>
        <time>2020-09-17T10:33:55Z</time>
      </trkpt>
      <trkpt lat="45.41358" lon="3.37269">
        <ele>536.4</ele>
        <time>2020-09-17T10:33:56Z</time>
      </trkpt>
      <trkpt lat="45.41359" lon="3.3727">
        <ele>536.5</ele>
        <time>2020-09-17T10:33:57Z</time>
      </trkpt>
      <trkpt lat="45.41359" lon="3.37271">
        <ele>536.6</ele>
        <time>2020-09-17T10:33:58Z</time>
      </trkpt>
      <trkpt lat="45.4136" lon="3.37273">
        <ele>536.7</ele>
        <time>2020-09-17T10:33:59Z</time>
      </trkpt>
      <trkpt lat="45.41361" lon="3.37274">
        <ele>536.8</ele>
        <time>2020-09-17T10:34:00Z</time>
      </trkpt>
      <trkpt lat="45.41361" lon="3.37275">
        <ele>536.9</ele>
        <time>2020-09-17T10:34:01Z</time>
      </trkpt>
      <trkpt lat="45.41362" lon="3.37276">
        <ele>536.8</ele>
        <time>2020-09-17T10:34:02Z</time>
      </trkpt>
      <trkpt lat="45.41363" lon="3.37277">
        <ele>536.8</ele>
        <time>2020-09-17T10:34:03Z</time>
      </trkpt>
      <trkpt lat="45.41363" lon="3.37278">
        <ele>536.8</ele>
        <time>2020-09-17T10:34:04Z</time>
      </trkpt>
      <trkpt lat="45.41364" lon="3.37279">
        <ele>536.6</ele>
        <time>2020-09-17T10:34:05Z</time>
      </trkpt>
      <trkpt lat="45.41365" lon="3.3728">
        <ele>536.3</ele>
        <time>2020-09-17T10:34:06Z</time>
      </trkpt>
      <trkpt lat="45.41365" lon="3.37282">
        <ele>536.2</ele>
        <time>2020-09-17T10:34:07Z</time>
      </trkpt>
      <trkpt lat="45.41366" lon="3.37283">
        <ele>536</ele>
        <time>2020-09-17T10:34:08Z</time>
      </trkpt>
      <trkpt lat="45.41366" lon="3.37284">
        <ele>535.8</ele>
        <time>2020-09-17T10:34:09Z</time>
      </trkpt>
      <trkpt lat="45.41367" lon="3.37285">
        <ele>535.7</ele>
        <time>2020-09-17T10:34:10Z</time>
      </trkpt>
      <trkpt lat="45.41367" lon="3.37287">
        <ele>535.5</ele>
        <time>2020-09-17T10:34:11Z</time>
      </trkpt>
      <trkpt lat="45.41368" lon="3.37288">
        <ele>535.4</ele>
        <time>2020-09-17T10:34:12Z</time>
      </trkpt>
      <trkpt lat="45.41368" lon="3.3729">
        <ele>535.3</ele>
        <time>2020-09-17T10:34:13Z</time>
      </trkpt>
      <trkpt lat="45.41369" lon="3.37291">
        <ele>535.2</ele>
        <time>2020-09-17T10:34:14Z</time>
      </trkpt>
      <trkpt lat="45.4137" lon="3.37292">
        <ele>535.1</ele>
        <time>2020-09-17T10:34:15Z</time>
      </trkpt>
      <trkpt lat="45.4137" lon="3.37293">
        <ele>535.1</ele>
        <time>2020-09-17T10:34:16Z</time>
      </trkpt>
      <trkpt lat="45.41371" lon="3.37295">
        <ele>535</ele>
        <time>2020-09-17T10:34:17Z</time>
      </trkpt>
      <trkpt lat="45.41372" lon="3.37296">
        <ele>535</ele>
        <time>2020-09-17T10:34:18Z</time>
      </trkpt>
      <trkpt lat="45.41372" lon="3.37297">
        <ele>535</ele>
        <time>2020-09-17T10:34:19Z</time>
      </trkpt>
      <trkpt lat="45.41373" lon="3.37298">
        <ele>535</ele>
        <time>2020-09-17T10:34:20Z</time>
      </trkpt>
      <trkpt lat="45.41374" lon="3.37299">
        <ele>535.1</ele>
        <time>2020-09-17T10:34:21Z</time>
      </trkpt>
      <trkpt lat="45.41375" lon="3.373">
        <ele>535.1</ele>
        <time>2020-09-17T10:34:22Z</time>
      </trkpt>
      <trkpt lat="45.41376" lon="3.37302">
        <ele>535.1</ele>
        <time>2020-09-17T10:34:23Z</time>
      </trkpt>
      <trkpt lat="45.41376" lon="3.37303">
        <ele>535.2</ele>
        <time>2020-09-17T10:34:24Z</time>
      </trkpt>
      <trkpt lat="45.41377" lon="3.37304">
        <ele>535.3</ele>
        <time>2020-09-17T10:34:25Z</time>
      </trkpt>
      <trkpt lat="45.41378" lon="3.37305">
        <ele>535.4</ele>
        <time>2020-09-17T10:34:26Z</time>
      </trkpt>
      <trkpt lat="45.41379" lon="3.37307">
        <ele>535.6</ele>
        <time>2020-09-17T10:34:27Z</time>
      </trkpt>
      <trkpt lat="45.41379" lon="3.37308">
        <ele>535.7</ele>
        <time>2020-09-17T10:34:28Z</time>
      </trkpt>
      <trkpt lat="45.4138" lon="3.3731">
        <ele>535.8</ele>
        <time>2020-09-17T10:34:29Z</time>
      </trkpt>
      <trkpt lat="45.4138" lon="3.37311">
        <ele>535.9</ele>
        <time>2020-09-17T10:34:30Z</time>
      </trkpt>
      <trkpt lat="45.41381" lon="3.37312">
        <ele>536.1</ele>
        <time>2020-09-17T10:34:31Z</time>
      </trkpt>
      <trkpt lat="45.41381" lon="3.37314">
        <ele>536.2</ele>
        <time>2020-09-17T10:34:32Z</time>
      </trkpt>
      <trkpt lat="45.41382" lon="3.37315">
        <ele>536.4</ele>
        <time>2020-09-17T10:34:33Z</time>
      </trkpt>
      <trkpt lat="45.41382" lon="3.37316">
        <ele>536.6</ele>
        <time>2020-09-17T10:34:34Z</time>
      </trkpt>
      <trkpt lat="45.41383" lon="3.37317">
        <ele>536.8</ele>
        <time>2020-09-17T10:34:35Z</time>
      </trkpt>
      <trkpt lat="45.41384" lon="3.37317">
        <ele>537</ele>
        <time>2020-09-17T10:34:36Z</time>
      </trkpt>
      <trkpt lat="45.41385" lon="3.37318">
        <ele>537.3</ele>
        <time>2020-09-17T10:34:37Z</time>
      </trkpt>
      <trkpt lat="45.41385" lon="3.37319">
        <ele>537.6</ele>
        <time>2020-09-17T10:34:38Z</time>
      </trkpt>
      <trkpt lat="45.41386" lon="3.3732">
        <ele>537.8</ele>
        <time>2020-09-17T10:34:39Z</time>
      </trkpt>
      <trkpt lat="45.41387" lon="3.3732">
        <ele>538.1</ele>
        <time>2020-09-17T10:34:40Z</time>
      </trkpt>
      <trkpt lat="45.41388" lon="3.37321">
        <ele>538.4</ele>
        <time>2020-09-17T10:34:41Z</time>
      </trkpt>
      <trkpt lat="45.41389" lon="3.37322">
        <ele>538.7</ele>
        <time>2020-09-17T10:34:42Z</time>
      </trkpt>
      <trkpt lat="45.41389" lon="3.37323">
        <ele>538.9</ele>
        <time>2020-09-17T10:34:43Z</time>
      </trkpt>
      <trkpt lat="45.4139" lon="3.37324">
        <ele>539</ele>
        <time>2020-09-17T10:34:44Z</time>
      </trkpt>
      <trkpt lat="45.41391" lon="3.37324">
        <ele>539.2</ele>
        <time>2020-09-17T10:34:45Z</time>
      </trkpt>
      <trkpt lat="45.41392" lon="3.37325">
        <ele>539.3</ele>
        <time>2020-09-17T10:34:46Z</time>
      </trkpt>
      <trkpt lat="45.41392" lon="3.37326">
        <ele>539.5</ele>
        <time>2020-09-17T10:34:47Z</time>
      </trkpt>
      <trkpt lat="45.41393" lon="3.37327">
        <ele>539.7</ele>
        <time>2020-09-17T10:34:48Z</time>
      </trkpt>
      <trkpt lat="45.41393" lon="3.37328">
        <ele>539.8</ele>
        <time>2020-09-17T10:34:49Z</time>
      </trkpt>
      <trkpt lat="45.41394" lon="3.37328">
        <ele>540</ele>
        <time>2020-09-17T10:34:50Z</time>
      </trkpt>
      <trkpt lat="45.41394" lon="3.37329">
        <ele>540.1</ele>
        <time>2020-09-17T10:34:51Z</time>
      </trkpt>
      <trkpt lat="45.41395" lon="3.3733">
        <ele>540.3</ele>
        <time>2020-09-17T10:34:52Z</time>
      </trkpt>
      <trkpt lat="45.41395" lon="3.37331">
        <ele>540.4</ele>
        <time>2020-09-17T10:34:53Z</time>
      </trkpt>
      <trkpt lat="45.41396" lon="3.37331">
        <ele>540.6</ele>
        <time>2020-09-17T10:34:54Z</time>
      </trkpt>
      <trkpt lat="45.41397" lon="3.37332">
        <ele>540.9</ele>
        <time>2020-09-17T10:34:55Z</time>
      </trkpt>
      <trkpt lat="45.41397" lon="3.37333">
        <ele>541.1</ele>
        <time>2020-09-17T10:34:56Z</time>
      </trkpt>
      <trkpt lat="45.41398" lon="3.37334">
        <ele>541.3</ele>
        <time>2020-09-17T10:34:57Z</time>
      </trkpt>
      <trkpt lat="45.41398" lon="3.37335">
        <ele>541.4</ele>
        <time>2020-09-17T10:34:58Z</time>
      </trkpt>
      <trkpt lat="45.41399" lon="3.37337">
        <ele>541.4</ele>
        <time>2020-09-17T10:34:59Z</time>
      </trkpt>
      <trkpt lat="45.41399" lon="3.37338">
        <ele>541.5</ele>
        <time>2020-09-17T10:35:00Z</time>
      </trkpt>
      <trkpt lat="45.41399" lon="3.37339">
        <ele>541.5</ele>
        <time>2020-09-17T10:35:01Z</time>
      </trkpt>
      <trkpt lat="45.414" lon="3.3734">
        <ele>541.6</ele>
        <time>2020-09-17T10:35:02Z</time>
      </trkpt>
      <trkpt lat="45.414" lon="3.37342">
        <ele>541.6</ele>
        <time>2020-09-17T10:35:03Z</time>
      </trkpt>
      <trkpt lat="45.41399" lon="3.37343">
        <ele>541.6</ele>
        <time>2020-09-17T10:35:04Z</time>
      </trkpt>
      <trkpt lat="45.414" lon="3.37345">
        <ele>541.6</ele>
        <time>2020-09-17T10:35:05Z</time>
      </trkpt>
      <trkpt lat="45.414" lon="3.37346">
        <ele>541.6</ele>
        <time>2020-09-17T10:35:06Z</time>
      </trkpt>
      <trkpt lat="45.414" lon="3.37348">
        <ele>541.7</ele>
        <time>2020-09-17T10:35:07Z</time>
      </trkpt>
      <trkpt lat="45.414" lon="3.37349">
        <ele>541.7</ele>
        <time>2020-09-17T10:35:08Z</time>
      </trkpt>
      <trkpt lat="45.414" lon="3.3735">
        <ele>541.8</ele>
        <time>2020-09-17T10:35:09Z</time>
      </trkpt>
      <trkpt lat="45.41401" lon="3.37352">
        <ele>541.8</ele>
        <time>2020-09-17T10:35:10Z</time>
      </trkpt>
      <trkpt lat="45.41401" lon="3.37353">
        <ele>541.9</ele>
        <time>2020-09-17T10:35:11Z</time>
      </trkpt>
      <trkpt lat="45.41401" lon="3.37354">
        <ele>542</ele>
        <time>2020-09-17T10:35:12Z</time>
      </trkpt>
      <trkpt lat="45.41402" lon="3.37356">
        <ele>542.1</ele>
        <time>2020-09-17T10:35:13Z</time>
      </trkpt>
      <trkpt lat="45.41402" lon="3.37357">
        <ele>542.2</ele>
        <time>2020-09-17T10:35:14Z</time>
      </trkpt>
      <trkpt lat="45.41402" lon="3.37359">
        <ele>542.2</ele>
        <time>2020-09-17T10:35:15Z</time>
      </trkpt>
      <trkpt lat="45.41402" lon="3.3736">
        <ele>542.2</ele>
        <time>2020-09-17T10:35:16Z</time>
      </trkpt>
      <trkpt lat="45.41402" lon="3.37361">
        <ele>542.4</ele>
        <time>2020-09-17T10:35:17Z</time>
      </trkpt>
      <trkpt lat="45.41402" lon="3.37363">
        <ele>542.5</ele>
        <time>2020-09-17T10:35:18Z</time>
      </trkpt>
      <trkpt lat="45.41403" lon="3.37364">
        <ele>542.6</ele>
        <time>2020-09-17T10:35:19Z</time>
      </trkpt>
      <trkpt lat="45.41403" lon="3.37366">
        <ele>542.7</ele>
        <time>2020-09-17T10:35:20Z</time>
      </trkpt>
      <trkpt lat="45.41403" lon="3.37367">
        <ele>542.9</ele>
        <time>2020-09-17T10:35:21Z</time>
      </trkpt>
      <trkpt lat="45.41403" lon="3.37368">
        <ele>543</ele>
        <time>2020-09-17T10:35:22Z</time>
      </trkpt>
      <trkpt lat="45.41403" lon="3.3737">
        <ele>543.1</ele>
        <time>2020-09-17T10:35:23Z</time>
      </trkpt>
      <trkpt lat="45.41403" lon="3.37371">
        <ele>543.3</ele>
        <time>2020-09-17T10:35:24Z</time>
      </trkpt>
      <trkpt lat="45.41403" lon="3.37373">
        <ele>543.4</ele>
        <time>2020-09-17T10:35:25Z</time>
      </trkpt>
      <trkpt lat="45.41403" lon="3.37374">
        <ele>543.6</ele>
        <time>2020-09-17T10:35:26Z</time>
      </trkpt>
      <trkpt lat="45.41404" lon="3.37375">
        <ele>543.7</ele>
        <time>2020-09-17T10:35:27Z</time>
      </trkpt>
      <trkpt lat="45.41404" lon="3.37377">
        <ele>543.9</ele>
        <time>2020-09-17T10:35:28Z</time>
      </trkpt>
      <trkpt lat="45.41404" lon="3.37378">
        <ele>544</ele>
        <time>2020-09-17T10:35:29Z</time>
      </trkpt>
      <trkpt lat="45.41404" lon="3.3738">
        <ele>544.2</ele>
        <time>2020-09-17T10:35:30Z</time>
      </trkpt>
      <trkpt lat="45.41404" lon="3.37381">
        <ele>544.3</ele>
        <time>2020-09-17T10:35:31Z</time>
      </trkpt>
      <trkpt lat="45.41404" lon="3.37383">
        <ele>544.5</ele>
        <time>2020-09-17T10:35:32Z</time>
      </trkpt>
      <trkpt lat="45.41404" lon="3.37384">
        <ele>544.6</ele>
        <time>2020-09-17T10:35:33Z</time>
      </trkpt>
      <trkpt lat="45.41404" lon="3.37386">
        <ele>544.8</ele>
        <time>2020-09-17T10:35:34Z</time>
      </trkpt>
      <trkpt lat="45.41404" lon="3.37387">
        <ele>544.9</ele>
        <time>2020-09-17T10:35:35Z</time>
      </trkpt>
      <trkpt lat="45.41405" lon="3.37389">
        <ele>545</ele>
        <time>2020-09-17T10:35:36Z</time>
      </trkpt>
      <trkpt lat="45.41405" lon="3.3739">
        <ele>545.1</ele>
        <time>2020-09-17T10:35:37Z</time>
      </trkpt>
      <trkpt lat="45.41405" lon="3.37391">
        <ele>545.1</ele>
        <time>2020-09-17T10:35:38Z</time>
      </trkpt>
      <trkpt lat="45.41405" lon="3.37393">
        <ele>545.2</ele>
        <time>2020-09-17T10:35:39Z</time>
      </trkpt>
      <trkpt lat="45.41405" lon="3.37394">
        <ele>545.3</ele>
        <time>2020-09-17T10:35:40Z</time>
      </trkpt>
      <trkpt lat="45.41405" lon="3.37396">
        <ele>545.4</ele>
        <time>2020-09-17T10:35:41Z</time>
      </trkpt>
      <trkpt lat="45.41405" lon="3.37397">
        <ele>545.4</ele>
        <time>2020-09-17T10:35:42Z</time>
      </trkpt>
      <trkpt lat="45.41405" lon="3.37398">
        <ele>545.5</ele>
        <time>2020-09-17T10:35:43Z</time>
      </trkpt>
      <trkpt lat="45.41405" lon="3.374">
        <ele>545.5</ele>
        <time>2020-09-17T10:35:44Z</time>
      </trkpt>
      <trkpt lat="45.41405" lon="3.37401">
        <ele>545.5</ele>
        <time>2020-09-17T10:35:45Z</time>
      </trkpt>
      <trkpt lat="45.41405" lon="3.37402">
        <ele>545.5</ele>
        <time>2020-09-17T10:35:46Z</time>
      </trkpt>
      <trkpt lat="45.41404" lon="3.37403">
        <ele>545.5</ele>
        <time>2020-09-17T10:35:47Z</time>
      </trkpt>
      <trkpt lat="45.41404" lon="3.37405">
        <ele>545.6</ele>
        <time>2020-09-17T10:35:48Z</time>
      </trkpt>
      <trkpt lat="45.41404" lon="3.37406">
        <ele>545.6</ele>
        <time>2020-09-17T10:35:49Z</time>
      </trkpt>
      <trkpt lat="45.41404" lon="3.37407">
        <ele>545.6</ele>
        <time>2020-09-17T10:35:50Z</time>
      </trkpt>
      <trkpt lat="45.41404" lon="3.37409">
        <ele>545.7</ele>
        <time>2020-09-17T10:35:51Z</time>
      </trkpt>
      <trkpt lat="45.41404" lon="3.3741">
        <ele>545.8</ele>
        <time>2020-09-17T10:35:52Z</time>
      </trkpt>
      <trkpt lat="45.41404" lon="3.37411">
        <ele>545.7</ele>
        <time>2020-09-17T10:35:53Z</time>
      </trkpt>
      <trkpt lat="45.41404" lon="3.37412">
        <ele>545.8</ele>
        <time>2020-09-17T10:35:54Z</time>
      </trkpt>
      <trkpt lat="45.41404" lon="3.37414">
        <ele>545.8</ele>
        <time>2020-09-17T10:35:55Z</time>
      </trkpt>
      <trkpt lat="45.41404" lon="3.37415">
        <ele>545.9</ele>
        <time>2020-09-17T10:35:56Z</time>
      </trkpt>
      <trkpt lat="45.41404" lon="3.37416">
        <ele>545.9</ele>
        <time>2020-09-17T10:35:57Z</time>
      </trkpt>
      <trkpt lat="45.41404" lon="3.37417">
        <ele>546</ele>
        <time>2020-09-17T10:35:58Z</time>
      </trkpt>
      <trkpt lat="45.41404" lon="3.37419">
        <ele>546</ele>
        <time>2020-09-17T10:35:59Z</time>
      </trkpt>
      <trkpt lat="45.41404" lon="3.3742">
        <ele>546.1</ele>
        <time>2020-09-17T10:36:00Z</time>
      </trkpt>
      <trkpt lat="45.41405" lon="3.37422">
        <ele>546.2</ele>
        <time>2020-09-17T10:36:01Z</time>
      </trkpt>
      <trkpt lat="45.41405" lon="3.37423">
        <ele>546.3</ele>
        <time>2020-09-17T10:36:02Z</time>
      </trkpt>
      <trkpt lat="45.41405" lon="3.37424">
        <ele>546.4</ele>
        <time>2020-09-17T10:36:03Z</time>
      </trkpt>
      <trkpt lat="45.41405" lon="3.37425">
        <ele>546.6</ele>
        <time>2020-09-17T10:36:04Z</time>
      </trkpt>
      <trkpt lat="45.41405" lon="3.37426">
        <ele>546.7</ele>
        <time>2020-09-17T10:36:05Z</time>
      </trkpt>
      <trkpt lat="45.41406" lon="3.37427">
        <ele>546.9</ele>
        <time>2020-09-17T10:36:06Z</time>
      </trkpt>
      <trkpt lat="45.41406" lon="3.37428">
        <ele>547.1</ele>
        <time>2020-09-17T10:36:07Z</time>
      </trkpt>
      <trkpt lat="45.41407" lon="3.37429">
        <ele>547.3</ele>
        <time>2020-09-17T10:36:08Z</time>
      </trkpt>
      <trkpt lat="45.41407" lon="3.3743">
        <ele>547.4</ele>
        <time>2020-09-17T10:36:09Z</time>
      </trkpt>
      <trkpt lat="45.41407" lon="3.37431">
        <ele>547.4</ele>
        <time>2020-09-17T10:36:10Z</time>
      </trkpt>
      <trkpt lat="45.41407" lon="3.37433">
        <ele>547.5</ele>
        <time>2020-09-17T10:36:11Z</time>
      </trkpt>
      <trkpt lat="45.41407" lon="3.37434">
        <ele>547.6</ele>
        <time>2020-09-17T10:36:12Z</time>
      </trkpt>
      <trkpt lat="45.41408" lon="3.37435">
        <ele>547.8</ele>
        <time>2020-09-17T10:36:13Z</time>
      </trkpt>
      <trkpt lat="45.41408" lon="3.37436">
        <ele>547.9</ele>
        <time>2020-09-17T10:36:14Z</time>
      </trkpt>
      <trkpt lat="45.41409" lon="3.37437">
        <ele>548.1</ele>
        <time>2020-09-17T10:36:15Z</time>
      </trkpt>
      <trkpt lat="45.41409" lon="3.37437">
        <ele>548.2</ele>
        <time>2020-09-17T10:36:16Z</time>
      </trkpt>
      <trkpt lat="45.41409" lon="3.37437">
        <ele>548.3</ele>
        <time>2020-09-17T10:36:17Z</time>
      </trkpt>
      <trkpt lat="45.4141" lon="3.37438">
        <ele>548.5</ele>
        <time>2020-09-17T10:36:18Z</time>
      </trkpt>
      <trkpt lat="45.4141" lon="3.37438">
        <ele>548.6</ele>
        <time>2020-09-17T10:36:19Z</time>
      </trkpt>
      <trkpt lat="45.41411" lon="3.37438">
        <ele>548.8</ele>
        <time>2020-09-17T10:36:20Z</time>
      </trkpt>
      <trkpt lat="45.41411" lon="3.37438">
        <ele>548.9</ele>
        <time>2020-09-17T10:36:21Z</time>
      </trkpt>
      <trkpt lat="45.41411" lon="3.37438">
        <ele>549</ele>
        <time>2020-09-17T10:36:22Z</time>
      </trkpt>
      <trkpt lat="45.41412" lon="3.37438">
        <ele>549.2</ele>
        <time>2020-09-17T10:36:23Z</time>
      </trkpt>
      <trkpt lat="45.41412" lon="3.37438">
        <ele>549.3</ele>
        <time>2020-09-17T10:36:24Z</time>
      </trkpt>
      <trkpt lat="45.41413" lon="3.37438">
        <ele>549.4</ele>
        <time>2020-09-17T10:36:25Z</time>
      </trkpt>
      <trkpt lat="45.41413" lon="3.37438">
        <ele>549.6</ele>
        <time>2020-09-17T10:36:26Z</time>
      </trkpt>
      <trkpt lat="45.41413" lon="3.37438">
        <ele>549.7</ele>
        <time>2020-09-17T10:36:27Z</time>
      </trkpt>
      <trkpt lat="45.41414" lon="3.37438">
        <ele>549.8</ele>
        <time>2020-09-17T10:36:28Z</time>
      </trkpt>
      <trkpt lat="45.41414" lon="3.37438">
        <ele>549.9</ele>
        <time>2020-09-17T10:36:29Z</time>
      </trkpt>
      <trkpt lat="45.41414" lon="3.37438">
        <ele>550</ele>
        <time>2020-09-17T10:36:30Z</time>
      </trkpt>
      <trkpt lat="45.41415" lon="3.37438">
        <ele>550.2</ele>
        <time>2020-09-17T10:36:31Z</time>
      </trkpt>
      <trkpt lat="45.41416" lon="3.37438">
        <ele>550.4</ele>
        <time>2020-09-17T10:36:32Z</time>
      </trkpt>
      <trkpt lat="45.41416" lon="3.37439">
        <ele>550.6</ele>
        <time>2020-09-17T10:36:33Z</time>
      </trkpt>
      <trkpt lat="45.41417" lon="3.37439">
        <ele>550.8</ele>
        <time>2020-09-17T10:36:34Z</time>
      </trkpt>
      <trkpt lat="45.41417" lon="3.37439">
        <ele>550.9</ele>
        <time>2020-09-17T10:36:35Z</time>
      </trkpt>
      <trkpt lat="45.41418" lon="3.3744">
        <ele>551</ele>
        <time>2020-09-17T10:36:36Z</time>
      </trkpt>
      <trkpt lat="45.41418" lon="3.3744">
        <ele>551.1</ele>
        <time>2020-09-17T10:36:37Z</time>
      </trkpt>
      <trkpt lat="45.41419" lon="3.37441">
        <ele>551.1</ele>
        <time>2020-09-17T10:36:38Z</time>
      </trkpt>
      <trkpt lat="45.41419" lon="3.37441">
        <ele>551.2</ele>
        <time>2020-09-17T10:36:39Z</time>
      </trkpt>
      <trkpt lat="45.4142" lon="3.37441">
        <ele>551.3</ele>
        <time>2020-09-17T10:36:40Z</time>
      </trkpt>
      <trkpt lat="45.4142" lon="3.37441">
        <ele>551.3</ele>
        <time>2020-09-17T10:36:41Z</time>
      </trkpt>
      <trkpt lat="45.4142" lon="3.37441">
        <ele>551.3</ele>
        <time>2020-09-17T10:36:42Z</time>
      </trkpt>
      <trkpt lat="45.4142" lon="3.37441">
        <ele>551.3</ele>
        <time>2020-09-17T10:36:43Z</time>
      </trkpt>
      <trkpt lat="45.4142" lon="3.37441">
        <ele>551.3</ele>
        <time>2020-09-17T10:36:44Z</time>
      </trkpt>
      <trkpt lat="45.4142" lon="3.37441">
        <ele>551.3</ele>
        <time>2020-09-17T10:36:45Z</time>
      </trkpt>
      <trkpt lat="45.4142" lon="3.37441">
        <ele>551.3</ele>
        <time>2020-09-17T10:36:46Z</time>
      </trkpt>
      <trkpt lat="45.41451" lon="3.3743">
        <ele>552.2</ele>
        <time>2020-09-17T10:36:47Z</time>
      </trkpt>
      <trkpt lat="45.41452" lon="3.3743">
        <ele>551.9</ele>
        <time>2020-09-17T10:36:48Z</time>
      </trkpt>
      <trkpt lat="45.41453" lon="3.3743">
        <ele>551.7</ele>
        <time>2020-09-17T10:36:49Z</time>
      </trkpt>
      <trkpt lat="45.41454" lon="3.37431">
        <ele>551.5</ele>
        <time>2020-09-17T10:36:50Z</time>
      </trkpt>
      <trkpt lat="45.41455" lon="3.37432">
        <ele>551.5</ele>
        <time>2020-09-17T10:36:51Z</time>
      </trkpt>
      <trkpt lat="45.41455" lon="3.37432">
        <ele>551.4</ele>
        <time>2020-09-17T10:36:52Z</time>
      </trkpt>
      <trkpt lat="45.41456" lon="3.37433">
        <ele>551.3</ele>
        <time>2020-09-17T10:36:53Z</time>
      </trkpt>
      <trkpt lat="45.41457" lon="3.37434">
        <ele>551.2</ele>
        <time>2020-09-17T10:36:54Z</time>
      </trkpt>
      <trkpt lat="45.41458" lon="3.37435">
        <ele>551.2</ele>
        <time>2020-09-17T10:36:55Z</time>
      </trkpt>
      <trkpt lat="45.41459" lon="3.37436">
        <ele>551.1</ele>
        <time>2020-09-17T10:36:56Z</time>
      </trkpt>
      <trkpt lat="45.4146" lon="3.37437">
        <ele>551.2</ele>
        <time>2020-09-17T10:36:57Z</time>
      </trkpt>
      <trkpt lat="45.4146" lon="3.37438">
        <ele>551.2</ele>
        <time>2020-09-17T10:36:58Z</time>
      </trkpt>
      <trkpt lat="45.41461" lon="3.3744">
        <ele>551.3</ele>
        <time>2020-09-17T10:36:59Z</time>
      </trkpt>
      <trkpt lat="45.41461" lon="3.37441">
        <ele>551.4</ele>
        <time>2020-09-17T10:37:00Z</time>
      </trkpt>
      <trkpt lat="45.41462" lon="3.37442">
        <ele>551.6</ele>
        <time>2020-09-17T10:37:01Z</time>
      </trkpt>
      <trkpt lat="45.41462" lon="3.37444">
        <ele>551.7</ele>
        <time>2020-09-17T10:37:02Z</time>
      </trkpt>
      <trkpt lat="45.41463" lon="3.37445">
        <ele>551.6</ele>
        <time>2020-09-17T10:37:03Z</time>
      </trkpt>
      <trkpt lat="45.41463" lon="3.37446">
        <ele>551.4</ele>
        <time>2020-09-17T10:37:04Z</time>
      </trkpt>
      <trkpt lat="45.41464" lon="3.37448">
        <ele>551.3</ele>
        <time>2020-09-17T10:37:05Z</time>
      </trkpt>
      <trkpt lat="45.41464" lon="3.37449">
        <ele>551.1</ele>
        <time>2020-09-17T10:37:06Z</time>
      </trkpt>
      <trkpt lat="45.41465" lon="3.37451">
        <ele>550.9</ele>
        <time>2020-09-17T10:37:07Z</time>
      </trkpt>
      <trkpt lat="45.41465" lon="3.37452">
        <ele>550.7</ele>
        <time>2020-09-17T10:37:08Z</time>
      </trkpt>
      <trkpt lat="45.41466" lon="3.37453">
        <ele>550.6</ele>
        <time>2020-09-17T10:37:09Z</time>
      </trkpt>
      <trkpt lat="45.41466" lon="3.37455">
        <ele>550.4</ele>
        <time>2020-09-17T10:37:10Z</time>
      </trkpt>
      <trkpt lat="45.41465" lon="3.37457">
        <ele>550.4</ele>
        <time>2020-09-17T10:37:11Z</time>
      </trkpt>
      <trkpt lat="45.41465" lon="3.37458">
        <ele>550.3</ele>
        <time>2020-09-17T10:37:12Z</time>
      </trkpt>
      <trkpt lat="45.41464" lon="3.37459">
        <ele>550.3</ele>
        <time>2020-09-17T10:37:13Z</time>
      </trkpt>
      <trkpt lat="45.41463" lon="3.3746">
        <ele>550.3</ele>
        <time>2020-09-17T10:37:14Z</time>
      </trkpt>
      <trkpt lat="45.41463" lon="3.37461">
        <ele>550.3</ele>
        <time>2020-09-17T10:37:15Z</time>
      </trkpt>
      <trkpt lat="45.41462" lon="3.37462">
        <ele>550.3</ele>
        <time>2020-09-17T10:37:16Z</time>
      </trkpt>
      <trkpt lat="45.41461" lon="3.37464">
        <ele>550.2</ele>
        <time>2020-09-17T10:37:17Z</time>
      </trkpt>
      <trkpt lat="45.41461" lon="3.37465">
        <ele>550.1</ele>
        <time>2020-09-17T10:37:18Z</time>
      </trkpt>
      <trkpt lat="45.4146" lon="3.37466">
        <ele>550.1</ele>
        <time>2020-09-17T10:37:19Z</time>
      </trkpt>
      <trkpt lat="45.41459" lon="3.37467">
        <ele>550</ele>
        <time>2020-09-17T10:37:20Z</time>
      </trkpt>
      <trkpt lat="45.41459" lon="3.37468">
        <ele>550</ele>
        <time>2020-09-17T10:37:21Z</time>
      </trkpt>
      <trkpt lat="45.41458" lon="3.37468">
        <ele>549.9</ele>
        <time>2020-09-17T10:37:22Z</time>
      </trkpt>
      <trkpt lat="45.41457" lon="3.37469">
        <ele>549.9</ele>
        <time>2020-09-17T10:37:23Z</time>
      </trkpt>
      <trkpt lat="45.41457" lon="3.3747">
        <ele>549.8</ele>
        <time>2020-09-17T10:37:24Z</time>
      </trkpt>
      <trkpt lat="45.41456" lon="3.3747">
        <ele>549.8</ele>
        <time>2020-09-17T10:37:25Z</time>
      </trkpt>
      <trkpt lat="45.41456" lon="3.37471">
        <ele>549.7</ele>
        <time>2020-09-17T10:37:26Z</time>
      </trkpt>
      <trkpt lat="45.41455" lon="3.37472">
        <ele>549.6</ele>
        <time>2020-09-17T10:37:27Z</time>
      </trkpt>
      <trkpt lat="45.41454" lon="3.37473">
        <ele>549.5</ele>
        <time>2020-09-17T10:37:28Z</time>
      </trkpt>
      <trkpt lat="45.41454" lon="3.37474">
        <ele>549.4</ele>
        <time>2020-09-17T10:37:29Z</time>
      </trkpt>
      <trkpt lat="45.41453" lon="3.37475">
        <ele>549.2</ele>
        <time>2020-09-17T10:37:30Z</time>
      </trkpt>
      <trkpt lat="45.41452" lon="3.37475">
        <ele>549.1</ele>
        <time>2020-09-17T10:37:31Z</time>
      </trkpt>
      <trkpt lat="45.41451" lon="3.37476">
        <ele>549</ele>
        <time>2020-09-17T10:37:32Z</time>
      </trkpt>
      <trkpt lat="45.41451" lon="3.37477">
        <ele>548.9</ele>
        <time>2020-09-17T10:37:33Z</time>
      </trkpt>
      <trkpt lat="45.4145" lon="3.37477">
        <ele>548.7</ele>
        <time>2020-09-17T10:37:34Z</time>
      </trkpt>
      <trkpt lat="45.4145" lon="3.37478">
        <ele>548.6</ele>
        <time>2020-09-17T10:37:35Z</time>
      </trkpt>
      <trkpt lat="45.41449" lon="3.37479">
        <ele>548.5</ele>
        <time>2020-09-17T10:37:36Z</time>
      </trkpt>
      <trkpt lat="45.41449" lon="3.37479">
        <ele>548.3</ele>
        <time>2020-09-17T10:37:37Z</time>
      </trkpt>
      <trkpt lat="45.41449" lon="3.3748">
        <ele>548.2</ele>
        <time>2020-09-17T10:37:38Z</time>
      </trkpt>
      <trkpt lat="45.41449" lon="3.37481">
        <ele>548</ele>
        <time>2020-09-17T10:37:39Z</time>
      </trkpt>
      <trkpt lat="45.41449" lon="3.37482">
        <ele>547.9</ele>
        <time>2020-09-17T10:37:40Z</time>
      </trkpt>
      <trkpt lat="45.41449" lon="3.37482">
        <ele>547.8</ele>
        <time>2020-09-17T10:37:41Z</time>
      </trkpt>
      <trkpt lat="45.41448" lon="3.37483">
        <ele>547.6</ele>
        <time>2020-09-17T10:37:42Z</time>
      </trkpt>
      <trkpt lat="45.41448" lon="3.37484">
        <ele>547.4</ele>
        <time>2020-09-17T10:37:43Z</time>
      </trkpt>
      <trkpt lat="45.41448" lon="3.37484">
        <ele>547.3</ele>
        <time>2020-09-17T10:37:44Z</time>
      </trkpt>
      <trkpt lat="45.41448" lon="3.37485">
        <ele>547.2</ele>
        <time>2020-09-17T10:37:45Z</time>
      </trkpt>
      <trkpt lat="45.41448" lon="3.37485">
        <ele>547.1</ele>
        <time>2020-09-17T10:37:46Z</time>
      </trkpt>
      <trkpt lat="45.41448" lon="3.37486">
        <ele>547</ele>
        <time>2020-09-17T10:37:47Z</time>
      </trkpt>
      <trkpt lat="45.41448" lon="3.37486">
        <ele>547</ele>
        <time>2020-09-17T10:37:48Z</time>
      </trkpt>
      <trkpt lat="45.41448" lon="3.37487">
        <ele>546.9</ele>
        <time>2020-09-17T10:37:49Z</time>
      </trkpt>
      <trkpt lat="45.41448" lon="3.37487">
        <ele>546.7</ele>
        <time>2020-09-17T10:37:50Z</time>
      </trkpt>
      <trkpt lat="45.41448" lon="3.37488">
        <ele>546.5</ele>
        <time>2020-09-17T10:37:51Z</time>
      </trkpt>
      <trkpt lat="45.41448" lon="3.37489">
        <ele>546.4</ele>
        <time>2020-09-17T10:37:52Z</time>
      </trkpt>
      <trkpt lat="45.41448" lon="3.3749">
        <ele>546.2</ele>
        <time>2020-09-17T10:37:53Z</time>
      </trkpt>
      <trkpt lat="45.41448" lon="3.37491">
        <ele>546</ele>
        <time>2020-09-17T10:37:54Z</time>
      </trkpt>
      <trkpt lat="45.41449" lon="3.37491">
        <ele>545.9</ele>
        <time>2020-09-17T10:37:55Z</time>
      </trkpt>
      <trkpt lat="45.4145" lon="3.37492">
        <ele>545.7</ele>
        <time>2020-09-17T10:37:56Z</time>
      </trkpt>
      <trkpt lat="45.4145" lon="3.37492">
        <ele>545.6</ele>
        <time>2020-09-17T10:37:57Z</time>
      </trkpt>
      <trkpt lat="45.41451" lon="3.37493">
        <ele>545.5</ele>
        <time>2020-09-17T10:37:58Z</time>
      </trkpt>
      <trkpt lat="45.41452" lon="3.37494">
        <ele>545.3</ele>
        <time>2020-09-17T10:37:59Z</time>
      </trkpt>
      <trkpt lat="45.41452" lon="3.37494">
        <ele>545.2</ele>
        <time>2020-09-17T10:38:00Z</time>
      </trkpt>
      <trkpt lat="45.41453" lon="3.37495">
        <ele>545.1</ele>
        <time>2020-09-17T10:38:01Z</time>
      </trkpt>
      <trkpt lat="45.41454" lon="3.37496">
        <ele>544.9</ele>
        <time>2020-09-17T10:38:02Z</time>
      </trkpt>
      <trkpt lat="45.41454" lon="3.37496">
        <ele>544.8</ele>
        <time>2020-09-17T10:38:03Z</time>
      </trkpt>
      <trkpt lat="45.41455" lon="3.37497">
        <ele>544.6</ele>
        <time>2020-09-17T10:38:04Z</time>
      </trkpt>
      <trkpt lat="45.41456" lon="3.37498">
        <ele>544.5</ele>
        <time>2020-09-17T10:38:05Z</time>
      </trkpt>
      <trkpt lat="45.41457" lon="3.37498">
        <ele>544.4</ele>
        <time>2020-09-17T10:38:06Z</time>
      </trkpt>
      <trkpt lat="45.41458" lon="3.37499">
        <ele>544.3</ele>
        <time>2020-09-17T10:38:07Z</time>
      </trkpt>
      <trkpt lat="45.41459" lon="3.37499">
        <ele>544.2</ele>
        <time>2020-09-17T10:38:08Z</time>
      </trkpt>
      <trkpt lat="45.4146" lon="3.37499">
        <ele>544.1</ele>
        <time>2020-09-17T10:38:09Z</time>
      </trkpt>
      <trkpt lat="45.41461" lon="3.375">
        <ele>544.1</ele>
        <time>2020-09-17T10:38:10Z</time>
      </trkpt>
      <trkpt lat="45.41462" lon="3.375">
        <ele>544</ele>
        <time>2020-09-17T10:38:11Z</time>
      </trkpt>
      <trkpt lat="45.41463" lon="3.37501">
        <ele>543.9</ele>
        <time>2020-09-17T10:38:12Z</time>
      </trkpt>
      <trkpt lat="45.41464" lon="3.37501">
        <ele>543.9</ele>
        <time>2020-09-17T10:38:13Z</time>
      </trkpt>
      <trkpt lat="45.41465" lon="3.37501">
        <ele>543.9</ele>
        <time>2020-09-17T10:38:14Z</time>
      </trkpt>
      <trkpt lat="45.41466" lon="3.37501">
        <ele>543.8</ele>
        <time>2020-09-17T10:38:15Z</time>
      </trkpt>
      <trkpt lat="45.41467" lon="3.37502">
        <ele>543.8</ele>
        <time>2020-09-17T10:38:16Z</time>
      </trkpt>
      <trkpt lat="45.41468" lon="3.37502">
        <ele>543.7</ele>
        <time>2020-09-17T10:38:17Z</time>
      </trkpt>
      <trkpt lat="45.41469" lon="3.37502">
        <ele>543.7</ele>
        <time>2020-09-17T10:38:18Z</time>
      </trkpt>
      <trkpt lat="45.4147" lon="3.37502">
        <ele>543.7</ele>
        <time>2020-09-17T10:38:19Z</time>
      </trkpt>
      <trkpt lat="45.41471" lon="3.37503">
        <ele>543.6</ele>
        <time>2020-09-17T10:38:20Z</time>
      </trkpt>
      <trkpt lat="45.41472" lon="3.37503">
        <ele>543.6</ele>
        <time>2020-09-17T10:38:21Z</time>
      </trkpt>
      <trkpt lat="45.41474" lon="3.37503">
        <ele>543.2</ele>
        <time>2020-09-17T10:38:22Z</time>
      </trkpt>
      <trkpt lat="45.41475" lon="3.37504">
        <ele>542.8</ele>
        <time>2020-09-17T10:38:23Z</time>
      </trkpt>
      <trkpt lat="45.41476" lon="3.37504">
        <ele>542.4</ele>
        <time>2020-09-17T10:38:24Z</time>
      </trkpt>
      <trkpt lat="45.41477" lon="3.37505">
        <ele>542</ele>
        <time>2020-09-17T10:38:25Z</time>
      </trkpt>
      <trkpt lat="45.41478" lon="3.37505">
        <ele>541.7</ele>
        <time>2020-09-17T10:38:26Z</time>
      </trkpt>
      <trkpt lat="45.41478" lon="3.37506">
        <ele>541.3</ele>
        <time>2020-09-17T10:38:27Z</time>
      </trkpt>
      <trkpt lat="45.41479" lon="3.37507">
        <ele>541</ele>
        <time>2020-09-17T10:38:28Z</time>
      </trkpt>
      <trkpt lat="45.41479" lon="3.37508">
        <ele>540.8</ele>
        <time>2020-09-17T10:38:29Z</time>
      </trkpt>
      <trkpt lat="45.41479" lon="3.37509">
        <ele>540.7</ele>
        <time>2020-09-17T10:38:30Z</time>
      </trkpt>
      <trkpt lat="45.41479" lon="3.3751">
        <ele>540.5</ele>
        <time>2020-09-17T10:38:31Z</time>
      </trkpt>
      <trkpt lat="45.41479" lon="3.37512">
        <ele>540.2</ele>
        <time>2020-09-17T10:38:32Z</time>
      </trkpt>
      <trkpt lat="45.41479" lon="3.37513">
        <ele>539.9</ele>
        <time>2020-09-17T10:38:33Z</time>
      </trkpt>
      <trkpt lat="45.41478" lon="3.37515">
        <ele>539.8</ele>
        <time>2020-09-17T10:38:34Z</time>
      </trkpt>
      <trkpt lat="45.41477" lon="3.37516">
        <ele>539.9</ele>
        <time>2020-09-17T10:38:35Z</time>
      </trkpt>
      <trkpt lat="45.41477" lon="3.37517">
        <ele>540</ele>
        <time>2020-09-17T10:38:36Z</time>
      </trkpt>
      <trkpt lat="45.41475" lon="3.37518">
        <ele>540.3</ele>
        <time>2020-09-17T10:38:37Z</time>
      </trkpt>
      <trkpt lat="45.41474" lon="3.37519">
        <ele>540.5</ele>
        <time>2020-09-17T10:38:38Z</time>
      </trkpt>
      <trkpt lat="45.41474" lon="3.3752">
        <ele>540.6</ele>
        <time>2020-09-17T10:38:39Z</time>
      </trkpt>
      <trkpt lat="45.41473" lon="3.37521">
        <ele>540.8</ele>
        <time>2020-09-17T10:38:40Z</time>
      </trkpt>
      <trkpt lat="45.41472" lon="3.37522">
        <ele>540.8</ele>
        <time>2020-09-17T10:38:41Z</time>
      </trkpt>
      <trkpt lat="45.4147" lon="3.37523">
        <ele>540.6</ele>
        <time>2020-09-17T10:38:42Z</time>
      </trkpt>
      <trkpt lat="45.41469" lon="3.37523">
        <ele>540.5</ele>
        <time>2020-09-17T10:38:43Z</time>
      </trkpt>
      <trkpt lat="45.41468" lon="3.37524">
        <ele>540.3</ele>
        <time>2020-09-17T10:38:44Z</time>
      </trkpt>
      <trkpt lat="45.41467" lon="3.37524">
        <ele>540.2</ele>
        <time>2020-09-17T10:38:45Z</time>
      </trkpt>
      <trkpt lat="45.41466" lon="3.37525">
        <ele>540</ele>
        <time>2020-09-17T10:38:46Z</time>
      </trkpt>
      <trkpt lat="45.41465" lon="3.37525">
        <ele>539.9</ele>
        <time>2020-09-17T10:38:47Z</time>
      </trkpt>
      <trkpt lat="45.41464" lon="3.37526">
        <ele>539.7</ele>
        <time>2020-09-17T10:38:48Z</time>
      </trkpt>
      <trkpt lat="45.41463" lon="3.37526">
        <ele>539.6</ele>
        <time>2020-09-17T10:38:49Z</time>
      </trkpt>
      <trkpt lat="45.41462" lon="3.37527">
        <ele>539.5</ele>
        <time>2020-09-17T10:38:50Z</time>
      </trkpt>
      <trkpt lat="45.41461" lon="3.37527">
        <ele>539.3</ele>
        <time>2020-09-17T10:38:51Z</time>
      </trkpt>
      <trkpt lat="45.4146" lon="3.37527">
        <ele>539.2</ele>
        <time>2020-09-17T10:38:52Z</time>
      </trkpt>
      <trkpt lat="45.41459" lon="3.37528">
        <ele>539</ele>
        <time>2020-09-17T10:38:53Z</time>
      </trkpt>
      <trkpt lat="45.41457" lon="3.37528">
        <ele>538.9</ele>
        <time>2020-09-17T10:38:54Z</time>
      </trkpt>
      <trkpt lat="45.41456" lon="3.37528">
        <ele>538.8</ele>
        <time>2020-09-17T10:38:55Z</time>
      </trkpt>
      <trkpt lat="45.41455" lon="3.37529">
        <ele>538.7</ele>
        <time>2020-09-17T10:38:56Z</time>
      </trkpt>
      <trkpt lat="45.41454" lon="3.37529">
        <ele>538.6</ele>
        <time>2020-09-17T10:38:57Z</time>
      </trkpt>
      <trkpt lat="45.41453" lon="3.37529">
        <ele>538.5</ele>
        <time>2020-09-17T10:38:58Z</time>
      </trkpt>
      <trkpt lat="45.41452" lon="3.3753">
        <ele>538.4</ele>
        <time>2020-09-17T10:38:59Z</time>
      </trkpt>
      <trkpt lat="45.41452" lon="3.3753">
        <ele>538.3</ele>
        <time>2020-09-17T10:39:00Z</time>
      </trkpt>
      <trkpt lat="45.41451" lon="3.3753">
        <ele>538.2</ele>
        <time>2020-09-17T10:39:01Z</time>
      </trkpt>
      <trkpt lat="45.41451" lon="3.37531">
        <ele>538.1</ele>
        <time>2020-09-17T10:39:02Z</time>
      </trkpt>
      <trkpt lat="45.4145" lon="3.37532">
        <ele>538</ele>
        <time>2020-09-17T10:39:03Z</time>
      </trkpt>
      <trkpt lat="45.4145" lon="3.37533">
        <ele>537.9</ele>
        <time>2020-09-17T10:39:04Z</time>
      </trkpt>
      <trkpt lat="45.41449" lon="3.37533">
        <ele>537.7</ele>
        <time>2020-09-17T10:39:05Z</time>
      </trkpt>
      <trkpt lat="45.41449" lon="3.37535">
        <ele>537.6</ele>
        <time>2020-09-17T10:39:06Z</time>
      </trkpt>
      <trkpt lat="45.41449" lon="3.37536">
        <ele>537.5</ele>
        <time>2020-09-17T10:39:07Z</time>
      </trkpt>
      <trkpt lat="45.41449" lon="3.37537">
        <ele>537.3</ele>
        <time>2020-09-17T10:39:08Z</time>
      </trkpt>
      <trkpt lat="45.41449" lon="3.37538">
        <ele>537.2</ele>
        <time>2020-09-17T10:39:09Z</time>
      </trkpt>
      <trkpt lat="45.41449" lon="3.3754">
        <ele>537</ele>
        <time>2020-09-17T10:39:10Z</time>
      </trkpt>
      <trkpt lat="45.41449" lon="3.37541">
        <ele>536.9</ele>
        <time>2020-09-17T10:39:11Z</time>
      </trkpt>
      <trkpt lat="45.41449" lon="3.37543">
        <ele>536.7</ele>
        <time>2020-09-17T10:39:12Z</time>
      </trkpt>
      <trkpt lat="45.41449" lon="3.37544">
        <ele>536.6</ele>
        <time>2020-09-17T10:39:13Z</time>
      </trkpt>
      <trkpt lat="45.41449" lon="3.37546">
        <ele>536.4</ele>
        <time>2020-09-17T10:39:14Z</time>
      </trkpt>
      <trkpt lat="45.41449" lon="3.37547">
        <ele>536.2</ele>
        <time>2020-09-17T10:39:15Z</time>
      </trkpt>
      <trkpt lat="45.41449" lon="3.37549">
        <ele>536.1</ele>
        <time>2020-09-17T10:39:16Z</time>
      </trkpt>
      <trkpt lat="45.41449" lon="3.3755">
        <ele>535.9</ele>
        <time>2020-09-17T10:39:17Z</time>
      </trkpt>
      <trkpt lat="45.41449" lon="3.37552">
        <ele>535.8</ele>
        <time>2020-09-17T10:39:18Z</time>
      </trkpt>
      <trkpt lat="45.4145" lon="3.37553">
        <ele>535.6</ele>
        <time>2020-09-17T10:39:19Z</time>
      </trkpt>
      <trkpt lat="45.4145" lon="3.37554">
        <ele>535.5</ele>
        <time>2020-09-17T10:39:20Z</time>
      </trkpt>
      <trkpt lat="45.4145" lon="3.37556">
        <ele>535.3</ele>
        <time>2020-09-17T10:39:21Z</time>
      </trkpt>
      <trkpt lat="45.4145" lon="3.37557">
        <ele>535.2</ele>
        <time>2020-09-17T10:39:22Z</time>
      </trkpt>
      <trkpt lat="45.4145" lon="3.37559">
        <ele>535</ele>
        <time>2020-09-17T10:39:23Z</time>
      </trkpt>
      <trkpt lat="45.4145" lon="3.3756">
        <ele>534.9</ele>
        <time>2020-09-17T10:39:24Z</time>
      </trkpt>
      <trkpt lat="45.4145" lon="3.37562">
        <ele>534.7</ele>
        <time>2020-09-17T10:39:25Z</time>
      </trkpt>
      <trkpt lat="45.4145" lon="3.37563">
        <ele>534.6</ele>
        <time>2020-09-17T10:39:26Z</time>
      </trkpt>
      <trkpt lat="45.4145" lon="3.37565">
        <ele>534.4</ele>
        <time>2020-09-17T10:39:27Z</time>
      </trkpt>
      <trkpt lat="45.4145" lon="3.37566">
        <ele>534.2</ele>
        <time>2020-09-17T10:39:28Z</time>
      </trkpt>
      <trkpt lat="45.41451" lon="3.37568">
        <ele>534</ele>
        <time>2020-09-17T10:39:29Z</time>
      </trkpt>
      <trkpt lat="45.41451" lon="3.37569">
        <ele>533.9</ele>
        <time>2020-09-17T10:39:30Z</time>
      </trkpt>
      <trkpt lat="45.41451" lon="3.37571">
        <ele>533.7</ele>
        <time>2020-09-17T10:39:31Z</time>
      </trkpt>
      <trkpt lat="45.41451" lon="3.37572">
        <ele>533.5</ele>
        <time>2020-09-17T10:39:32Z</time>
      </trkpt>
      <trkpt lat="45.41451" lon="3.37574">
        <ele>533.4</ele>
        <time>2020-09-17T10:39:33Z</time>
      </trkpt>
      <trkpt lat="45.41451" lon="3.37576">
        <ele>533.2</ele>
        <time>2020-09-17T10:39:34Z</time>
      </trkpt>
      <trkpt lat="45.41451" lon="3.37577">
        <ele>533</ele>
        <time>2020-09-17T10:39:35Z</time>
      </trkpt>
      <trkpt lat="45.41452" lon="3.37579">
        <ele>532.8</ele>
        <time>2020-09-17T10:39:36Z</time>
      </trkpt>
      <trkpt lat="45.41452" lon="3.3758">
        <ele>532.6</ele>
        <time>2020-09-17T10:39:37Z</time>
      </trkpt>
      <trkpt lat="45.41452" lon="3.37582">
        <ele>532.4</ele>
        <time>2020-09-17T10:39:38Z</time>
      </trkpt>
      <trkpt lat="45.41452" lon="3.37583">
        <ele>532.3</ele>
        <time>2020-09-17T10:39:39Z</time>
      </trkpt>
      <trkpt lat="45.41452" lon="3.37585">
        <ele>532.1</ele>
        <time>2020-09-17T10:39:40Z</time>
      </trkpt>
      <trkpt lat="45.41453" lon="3.37587">
        <ele>532</ele>
        <time>2020-09-17T10:39:41Z</time>
      </trkpt>
      <trkpt lat="45.41453" lon="3.37588">
        <ele>531.9</ele>
        <time>2020-09-17T10:39:42Z</time>
      </trkpt>
      <trkpt lat="45.41453" lon="3.3759">
        <ele>531.8</ele>
        <time>2020-09-17T10:39:43Z</time>
      </trkpt>
      <trkpt lat="45.41453" lon="3.37592">
        <ele>531.6</ele>
        <time>2020-09-17T10:39:44Z</time>
      </trkpt>
      <trkpt lat="45.41454" lon="3.37593">
        <ele>531.5</ele>
        <time>2020-09-17T10:39:45Z</time>
      </trkpt>
      <trkpt lat="45.41454" lon="3.37595">
        <ele>531.4</ele>
        <time>2020-09-17T10:39:46Z</time>
      </trkpt>
      <trkpt lat="45.41454" lon="3.37596">
        <ele>531.3</ele>
        <time>2020-09-17T10:39:47Z</time>
      </trkpt>
      <trkpt lat="45.41455" lon="3.37598">
        <ele>531.1</ele>
        <time>2020-09-17T10:39:48Z</time>
      </trkpt>
      <trkpt lat="45.41455" lon="3.37599">
        <ele>531</ele>
        <time>2020-09-17T10:39:49Z</time>
      </trkpt>
      <trkpt lat="45.41455" lon="3.37601">
        <ele>530.9</ele>
        <time>2020-09-17T10:39:50Z</time>
      </trkpt>
      <trkpt lat="45.41456" lon="3.37602">
        <ele>530.8</ele>
        <time>2020-09-17T10:39:51Z</time>
      </trkpt>
      <trkpt lat="45.41456" lon="3.37603">
        <ele>530.7</ele>
        <time>2020-09-17T10:39:52Z</time>
      </trkpt>
      <trkpt lat="45.41456" lon="3.37605">
        <ele>530.6</ele>
        <time>2020-09-17T10:39:53Z</time>
      </trkpt>
      <trkpt lat="45.41457" lon="3.37606">
        <ele>530.4</ele>
        <time>2020-09-17T10:39:54Z</time>
      </trkpt>
      <trkpt lat="45.41457" lon="3.37608">
        <ele>530.3</ele>
        <time>2020-09-17T10:39:55Z</time>
      </trkpt>
      <trkpt lat="45.41457" lon="3.37609">
        <ele>530.2</ele>
        <time>2020-09-17T10:39:56Z</time>
      </trkpt>
      <trkpt lat="45.41457" lon="3.3761">
        <ele>530.1</ele>
        <time>2020-09-17T10:39:57Z</time>
      </trkpt>
      <trkpt lat="45.41457" lon="3.37611">
        <ele>530</ele>
        <time>2020-09-17T10:39:58Z</time>
      </trkpt>
      <trkpt lat="45.41457" lon="3.37612">
        <ele>529.9</ele>
        <time>2020-09-17T10:39:59Z</time>
      </trkpt>
      <trkpt lat="45.41458" lon="3.37613">
        <ele>529.9</ele>
        <time>2020-09-17T10:40:00Z</time>
      </trkpt>
      <trkpt lat="45.41458" lon="3.37615">
        <ele>529.8</ele>
        <time>2020-09-17T10:40:01Z</time>
      </trkpt>
      <trkpt lat="45.41458" lon="3.37616">
        <ele>529.7</ele>
        <time>2020-09-17T10:40:02Z</time>
      </trkpt>
      <trkpt lat="45.41458" lon="3.37617">
        <ele>529.7</ele>
        <time>2020-09-17T10:40:03Z</time>
      </trkpt>
      <trkpt lat="45.41458" lon="3.37619">
        <ele>529.6</ele>
        <time>2020-09-17T10:40:04Z</time>
      </trkpt>
      <trkpt lat="45.41457" lon="3.3762">
        <ele>529.5</ele>
        <time>2020-09-17T10:40:05Z</time>
      </trkpt>
      <trkpt lat="45.41457" lon="3.37622">
        <ele>529.5</ele>
        <time>2020-09-17T10:40:06Z</time>
      </trkpt>
      <trkpt lat="45.41457" lon="3.37623">
        <ele>529.4</ele>
        <time>2020-09-17T10:40:07Z</time>
      </trkpt>
      <trkpt lat="45.41456" lon="3.37624">
        <ele>529.3</ele>
        <time>2020-09-17T10:40:08Z</time>
      </trkpt>
      <trkpt lat="45.41456" lon="3.37626">
        <ele>529.3</ele>
        <time>2020-09-17T10:40:09Z</time>
      </trkpt>
      <trkpt lat="45.41455" lon="3.37627">
        <ele>529.2</ele>
        <time>2020-09-17T10:40:10Z</time>
      </trkpt>
      <trkpt lat="45.41455" lon="3.37628">
        <ele>529.2</ele>
        <time>2020-09-17T10:40:11Z</time>
      </trkpt>
      <trkpt lat="45.41454" lon="3.37629">
        <ele>529.1</ele>
        <time>2020-09-17T10:40:12Z</time>
      </trkpt>
      <trkpt lat="45.41453" lon="3.3763">
        <ele>529.1</ele>
        <time>2020-09-17T10:40:13Z</time>
      </trkpt>
      <trkpt lat="45.41453" lon="3.37631">
        <ele>529.1</ele>
        <time>2020-09-17T10:40:14Z</time>
      </trkpt>
      <trkpt lat="45.41452" lon="3.37632">
        <ele>529.1</ele>
        <time>2020-09-17T10:40:15Z</time>
      </trkpt>
      <trkpt lat="45.41451" lon="3.37633">
        <ele>529</ele>
        <time>2020-09-17T10:40:16Z</time>
      </trkpt>
      <trkpt lat="45.4145" lon="3.37633">
        <ele>529</ele>
        <time>2020-09-17T10:40:17Z</time>
      </trkpt>
      <trkpt lat="45.4145" lon="3.37634">
        <ele>529</ele>
        <time>2020-09-17T10:40:18Z</time>
      </trkpt>
      <trkpt lat="45.41449" lon="3.37636">
        <ele>529</ele>
        <time>2020-09-17T10:40:19Z</time>
      </trkpt>
      <trkpt lat="45.41448" lon="3.37637">
        <ele>529</ele>
        <time>2020-09-17T10:40:20Z</time>
      </trkpt>
      <trkpt lat="45.41448" lon="3.37638">
        <ele>528.9</ele>
        <time>2020-09-17T10:40:21Z</time>
      </trkpt>
      <trkpt lat="45.41447" lon="3.37639">
        <ele>528.9</ele>
        <time>2020-09-17T10:40:22Z</time>
      </trkpt>
      <trkpt lat="45.41446" lon="3.3764">
        <ele>528.9</ele>
        <time>2020-09-17T10:40:23Z</time>
      </trkpt>
      <trkpt lat="45.41446" lon="3.37642">
        <ele>528.9</ele>
        <time>2020-09-17T10:40:24Z</time>
      </trkpt>
      <trkpt lat="45.41445" lon="3.37643">
        <ele>529</ele>
        <time>2020-09-17T10:40:25Z</time>
      </trkpt>
      <trkpt lat="45.41445" lon="3.37644">
        <ele>529</ele>
        <time>2020-09-17T10:40:26Z</time>
      </trkpt>
      <trkpt lat="45.41444" lon="3.37646">
        <ele>529</ele>
        <time>2020-09-17T10:40:27Z</time>
      </trkpt>
      <trkpt lat="45.41444" lon="3.37647">
        <ele>528.8</ele>
        <time>2020-09-17T10:40:28Z</time>
      </trkpt>
      <trkpt lat="45.41443" lon="3.37648">
        <ele>528.6</ele>
        <time>2020-09-17T10:40:29Z</time>
      </trkpt>
      <trkpt lat="45.41443" lon="3.3765">
        <ele>528.4</ele>
        <time>2020-09-17T10:40:30Z</time>
      </trkpt>
      <trkpt lat="45.41443" lon="3.37651">
        <ele>528.2</ele>
        <time>2020-09-17T10:40:31Z</time>
      </trkpt>
      <trkpt lat="45.41442" lon="3.37652">
        <ele>528.2</ele>
        <time>2020-09-17T10:40:32Z</time>
      </trkpt>
      <trkpt lat="45.41442" lon="3.37654">
        <ele>528</ele>
        <time>2020-09-17T10:40:33Z</time>
      </trkpt>
      <trkpt lat="45.41442" lon="3.37655">
        <ele>527.9</ele>
        <time>2020-09-17T10:40:34Z</time>
      </trkpt>
      <trkpt lat="45.41441" lon="3.37657">
        <ele>527.8</ele>
        <time>2020-09-17T10:40:35Z</time>
      </trkpt>
      <trkpt lat="45.41441" lon="3.37658">
        <ele>527.6</ele>
        <time>2020-09-17T10:40:36Z</time>
      </trkpt>
      <trkpt lat="45.41441" lon="3.3766">
        <ele>527.6</ele>
        <time>2020-09-17T10:40:37Z</time>
      </trkpt>
      <trkpt lat="45.41441" lon="3.37661">
        <ele>527.4</ele>
        <time>2020-09-17T10:40:38Z</time>
      </trkpt>
      <trkpt lat="45.4144" lon="3.37662">
        <ele>527.4</ele>
        <time>2020-09-17T10:40:39Z</time>
      </trkpt>
      <trkpt lat="45.4144" lon="3.37664">
        <ele>527.2</ele>
        <time>2020-09-17T10:40:40Z</time>
      </trkpt>
      <trkpt lat="45.4144" lon="3.37665">
        <ele>527.1</ele>
        <time>2020-09-17T10:40:41Z</time>
      </trkpt>
      <trkpt lat="45.4144" lon="3.37667">
        <ele>527</ele>
        <time>2020-09-17T10:40:42Z</time>
      </trkpt>
      <trkpt lat="45.41439" lon="3.37668">
        <ele>526.8</ele>
        <time>2020-09-17T10:40:43Z</time>
      </trkpt>
      <trkpt lat="45.41439" lon="3.3767">
        <ele>526.6</ele>
        <time>2020-09-17T10:40:44Z</time>
      </trkpt>
      <trkpt lat="45.41439" lon="3.37671">
        <ele>526.5</ele>
        <time>2020-09-17T10:40:45Z</time>
      </trkpt>
      <trkpt lat="45.41439" lon="3.37673">
        <ele>526.3</ele>
        <time>2020-09-17T10:40:46Z</time>
      </trkpt>
      <trkpt lat="45.41439" lon="3.37674">
        <ele>526.1</ele>
        <time>2020-09-17T10:40:47Z</time>
      </trkpt>
      <trkpt lat="45.41438" lon="3.37676">
        <ele>525.9</ele>
        <time>2020-09-17T10:40:48Z</time>
      </trkpt>
      <trkpt lat="45.41438" lon="3.37677">
        <ele>525.8</ele>
        <time>2020-09-17T10:40:49Z</time>
      </trkpt>
      <trkpt lat="45.41438" lon="3.37679">
        <ele>525.5</ele>
        <time>2020-09-17T10:40:50Z</time>
      </trkpt>
      <trkpt lat="45.41438" lon="3.3768">
        <ele>525.4</ele>
        <time>2020-09-17T10:40:51Z</time>
      </trkpt>
      <trkpt lat="45.41438" lon="3.37681">
        <ele>525.2</ele>
        <time>2020-09-17T10:40:52Z</time>
      </trkpt>
      <trkpt lat="45.41437" lon="3.37683">
        <ele>525</ele>
        <time>2020-09-17T10:40:53Z</time>
      </trkpt>
      <trkpt lat="45.41437" lon="3.37684">
        <ele>524.9</ele>
        <time>2020-09-17T10:40:54Z</time>
      </trkpt>
      <trkpt lat="45.41437" lon="3.37686">
        <ele>524.7</ele>
        <time>2020-09-17T10:40:55Z</time>
      </trkpt>
      <trkpt lat="45.41437" lon="3.37687">
        <ele>524.5</ele>
        <time>2020-09-17T10:40:56Z</time>
      </trkpt>
      <trkpt lat="45.41437" lon="3.37689">
        <ele>524.3</ele>
        <time>2020-09-17T10:40:57Z</time>
      </trkpt>
      <trkpt lat="45.41437" lon="3.3769">
        <ele>524.2</ele>
        <time>2020-09-17T10:40:58Z</time>
      </trkpt>
      <trkpt lat="45.41437" lon="3.37692">
        <ele>524.1</ele>
        <time>2020-09-17T10:40:59Z</time>
      </trkpt>
      <trkpt lat="45.41436" lon="3.37693">
        <ele>523.9</ele>
        <time>2020-09-17T10:41:00Z</time>
      </trkpt>
      <trkpt lat="45.41436" lon="3.37695">
        <ele>523.8</ele>
        <time>2020-09-17T10:41:01Z</time>
      </trkpt>
      <trkpt lat="45.41436" lon="3.37696">
        <ele>523.6</ele>
        <time>2020-09-17T10:41:02Z</time>
      </trkpt>
      <trkpt lat="45.41436" lon="3.37698">
        <ele>523.3</ele>
        <time>2020-09-17T10:41:03Z</time>
      </trkpt>
      <trkpt lat="45.41436" lon="3.37699">
        <ele>523.1</ele>
        <time>2020-09-17T10:41:04Z</time>
      </trkpt>
      <trkpt lat="45.41436" lon="3.37701">
        <ele>522.9</ele>
        <time>2020-09-17T10:41:05Z</time>
      </trkpt>
      <trkpt lat="45.41436" lon="3.37702">
        <ele>522.7</ele>
        <time>2020-09-17T10:41:06Z</time>
      </trkpt>
      <trkpt lat="45.41436" lon="3.37704">
        <ele>522.4</ele>
        <time>2020-09-17T10:41:07Z</time>
      </trkpt>
      <trkpt lat="45.41436" lon="3.37705">
        <ele>522.3</ele>
        <time>2020-09-17T10:41:08Z</time>
      </trkpt>
      <trkpt lat="45.41436" lon="3.37707">
        <ele>522.1</ele>
        <time>2020-09-17T10:41:09Z</time>
      </trkpt>
      <trkpt lat="45.41436" lon="3.37709">
        <ele>521.8</ele>
        <time>2020-09-17T10:41:10Z</time>
      </trkpt>
      <trkpt lat="45.41436" lon="3.3771">
        <ele>521.6</ele>
        <time>2020-09-17T10:41:11Z</time>
      </trkpt>
      <trkpt lat="45.41436" lon="3.37712">
        <ele>521.4</ele>
        <time>2020-09-17T10:41:12Z</time>
      </trkpt>
      <trkpt lat="45.41436" lon="3.37714">
        <ele>521.2</ele>
        <time>2020-09-17T10:41:13Z</time>
      </trkpt>
      <trkpt lat="45.41436" lon="3.37715">
        <ele>521</ele>
        <time>2020-09-17T10:41:14Z</time>
      </trkpt>
      <trkpt lat="45.41437" lon="3.37717">
        <ele>520.9</ele>
        <time>2020-09-17T10:41:15Z</time>
      </trkpt>
      <trkpt lat="45.41437" lon="3.37718">
        <ele>520.7</ele>
        <time>2020-09-17T10:41:16Z</time>
      </trkpt>
      <trkpt lat="45.41437" lon="3.3772">
        <ele>520.6</ele>
        <time>2020-09-17T10:41:17Z</time>
      </trkpt>
      <trkpt lat="45.41437" lon="3.37721">
        <ele>520.5</ele>
        <time>2020-09-17T10:41:18Z</time>
      </trkpt>
      <trkpt lat="45.41437" lon="3.37723">
        <ele>520.4</ele>
        <time>2020-09-17T10:41:19Z</time>
      </trkpt>
      <trkpt lat="45.41438" lon="3.37724">
        <ele>520.2</ele>
        <time>2020-09-17T10:41:20Z</time>
      </trkpt>
      <trkpt lat="45.41438" lon="3.37726">
        <ele>520.1</ele>
        <time>2020-09-17T10:41:21Z</time>
      </trkpt>
      <trkpt lat="45.41438" lon="3.37728">
        <ele>519.9</ele>
        <time>2020-09-17T10:41:22Z</time>
      </trkpt>
      <trkpt lat="45.41438" lon="3.37729">
        <ele>519.8</ele>
        <time>2020-09-17T10:41:23Z</time>
      </trkpt>
      <trkpt lat="45.41439" lon="3.37731">
        <ele>519.6</ele>
        <time>2020-09-17T10:41:24Z</time>
      </trkpt>
      <trkpt lat="45.41439" lon="3.37732">
        <ele>519.5</ele>
        <time>2020-09-17T10:41:25Z</time>
      </trkpt>
      <trkpt lat="45.41439" lon="3.37734">
        <ele>519.4</ele>
        <time>2020-09-17T10:41:26Z</time>
      </trkpt>
      <trkpt lat="45.41439" lon="3.37735">
        <ele>519.3</ele>
        <time>2020-09-17T10:41:27Z</time>
      </trkpt>
      <trkpt lat="45.4144" lon="3.37737">
        <ele>519.2</ele>
        <time>2020-09-17T10:41:28Z</time>
      </trkpt>
      <trkpt lat="45.4144" lon="3.37738">
        <ele>519.1</ele>
        <time>2020-09-17T10:41:29Z</time>
      </trkpt>
      <trkpt lat="45.4144" lon="3.3774">
        <ele>518.9</ele>
        <time>2020-09-17T10:41:30Z</time>
      </trkpt>
      <trkpt lat="45.41441" lon="3.37742">
        <ele>518.8</ele>
        <time>2020-09-17T10:41:31Z</time>
      </trkpt>
      <trkpt lat="45.41441" lon="3.37743">
        <ele>518.6</ele>
        <time>2020-09-17T10:41:32Z</time>
      </trkpt>
      <trkpt lat="45.41441" lon="3.37745">
        <ele>518.5</ele>
        <time>2020-09-17T10:41:33Z</time>
      </trkpt>
      <trkpt lat="45.41441" lon="3.37746">
        <ele>518.4</ele>
        <time>2020-09-17T10:41:34Z</time>
      </trkpt>
      <trkpt lat="45.41442" lon="3.37748">
        <ele>518.3</ele>
        <time>2020-09-17T10:41:35Z</time>
      </trkpt>
      <trkpt lat="45.41442" lon="3.37749">
        <ele>518.2</ele>
        <time>2020-09-17T10:41:36Z</time>
      </trkpt>
      <trkpt lat="45.41442" lon="3.37751">
        <ele>518</ele>
        <time>2020-09-17T10:41:37Z</time>
      </trkpt>
      <trkpt lat="45.41442" lon="3.37752">
        <ele>517.9</ele>
        <time>2020-09-17T10:41:38Z</time>
      </trkpt>
      <trkpt lat="45.41443" lon="3.37753">
        <ele>517.7</ele>
        <time>2020-09-17T10:41:39Z</time>
      </trkpt>
      <trkpt lat="45.41443" lon="3.37755">
        <ele>517.5</ele>
        <time>2020-09-17T10:41:40Z</time>
      </trkpt>
      <trkpt lat="45.41443" lon="3.37756">
        <ele>517.4</ele>
        <time>2020-09-17T10:41:41Z</time>
      </trkpt>
      <trkpt lat="45.41443" lon="3.37758">
        <ele>517.2</ele>
        <time>2020-09-17T10:41:42Z</time>
      </trkpt>
      <trkpt lat="45.41444" lon="3.37759">
        <ele>517.1</ele>
        <time>2020-09-17T10:41:43Z</time>
      </trkpt>
      <trkpt lat="45.41444" lon="3.37761">
        <ele>516.9</ele>
        <time>2020-09-17T10:41:44Z</time>
      </trkpt>
      <trkpt lat="45.41444" lon="3.37762">
        <ele>516.8</ele>
        <time>2020-09-17T10:41:45Z</time>
      </trkpt>
      <trkpt lat="45.41445" lon="3.37763">
        <ele>516.5</ele>
        <time>2020-09-17T10:41:46Z</time>
      </trkpt>
      <trkpt lat="45.41445" lon="3.37765">
        <ele>516.2</ele>
        <time>2020-09-17T10:41:47Z</time>
      </trkpt>
      <trkpt lat="45.41446" lon="3.37766">
        <ele>515.8</ele>
        <time>2020-09-17T10:41:48Z</time>
      </trkpt>
      <trkpt lat="45.41446" lon="3.37768">
        <ele>515.5</ele>
        <time>2020-09-17T10:41:49Z</time>
      </trkpt>
      <trkpt lat="45.41446" lon="3.37769">
        <ele>515.1</ele>
        <time>2020-09-17T10:41:50Z</time>
      </trkpt>
      <trkpt lat="45.41447" lon="3.3777">
        <ele>514.8</ele>
        <time>2020-09-17T10:41:51Z</time>
      </trkpt>
      <trkpt lat="45.41447" lon="3.37772">
        <ele>514.3</ele>
        <time>2020-09-17T10:41:52Z</time>
      </trkpt>
      <trkpt lat="45.41448" lon="3.37773">
        <ele>514</ele>
        <time>2020-09-17T10:41:53Z</time>
      </trkpt>
      <trkpt lat="45.41448" lon="3.37775">
        <ele>513.6</ele>
        <time>2020-09-17T10:41:54Z</time>
      </trkpt>
      <trkpt lat="45.41449" lon="3.37776">
        <ele>513.2</ele>
        <time>2020-09-17T10:41:55Z</time>
      </trkpt>
      <trkpt lat="45.4145" lon="3.37777">
        <ele>512.8</ele>
        <time>2020-09-17T10:41:56Z</time>
      </trkpt>
      <trkpt lat="45.4145" lon="3.37779">
        <ele>512.5</ele>
        <time>2020-09-17T10:41:57Z</time>
      </trkpt>
      <trkpt lat="45.41451" lon="3.3778">
        <ele>512.1</ele>
        <time>2020-09-17T10:41:58Z</time>
      </trkpt>
      <trkpt lat="45.41451" lon="3.37781">
        <ele>511.7</ele>
        <time>2020-09-17T10:41:59Z</time>
      </trkpt>
      <trkpt lat="45.41452" lon="3.37783">
        <ele>511.3</ele>
        <time>2020-09-17T10:42:00Z</time>
      </trkpt>
      <trkpt lat="45.41452" lon="3.37784">
        <ele>511</ele>
        <time>2020-09-17T10:42:01Z</time>
      </trkpt>
      <trkpt lat="45.41453" lon="3.37785">
        <ele>510.7</ele>
        <time>2020-09-17T10:42:02Z</time>
      </trkpt>
      <trkpt lat="45.41453" lon="3.37786">
        <ele>510.3</ele>
        <time>2020-09-17T10:42:03Z</time>
      </trkpt>
      <trkpt lat="45.41454" lon="3.37788">
        <ele>510</ele>
        <time>2020-09-17T10:42:04Z</time>
      </trkpt>
      <trkpt lat="45.41454" lon="3.37789">
        <ele>509.7</ele>
        <time>2020-09-17T10:42:05Z</time>
      </trkpt>
      <trkpt lat="45.41455" lon="3.3779">
        <ele>509.3</ele>
        <time>2020-09-17T10:42:06Z</time>
      </trkpt>
      <trkpt lat="45.41455" lon="3.37791">
        <ele>509</ele>
        <time>2020-09-17T10:42:07Z</time>
      </trkpt>
      <trkpt lat="45.41456" lon="3.37792">
        <ele>508.9</ele>
        <time>2020-09-17T10:42:08Z</time>
      </trkpt>
      <trkpt lat="45.41455" lon="3.37792">
        <ele>509</ele>
        <time>2020-09-17T10:42:09Z</time>
      </trkpt>
      <trkpt lat="45.41455" lon="3.37792">
        <ele>509</ele>
        <time>2020-09-17T10:42:10Z</time>
      </trkpt>
      <trkpt lat="45.41455" lon="3.37792">
        <ele>509</ele>
        <time>2020-09-17T10:42:11Z</time>
      </trkpt>
      <trkpt lat="45.41455" lon="3.37792">
        <ele>508.9</ele>
        <time>2020-09-17T10:42:12Z</time>
      </trkpt>
      <trkpt lat="45.41456" lon="3.37793">
        <ele>508.7</ele>
        <time>2020-09-17T10:42:13Z</time>
      </trkpt>
      <trkpt lat="45.41456" lon="3.37794">
        <ele>508.4</ele>
        <time>2020-09-17T10:42:14Z</time>
      </trkpt>
      <trkpt lat="45.41456" lon="3.37795">
        <ele>508.2</ele>
        <time>2020-09-17T10:42:15Z</time>
      </trkpt>
      <trkpt lat="45.41457" lon="3.37796">
        <ele>507.9</ele>
        <time>2020-09-17T10:42:16Z</time>
      </trkpt>
      <trkpt lat="45.41457" lon="3.37798">
        <ele>507.6</ele>
        <time>2020-09-17T10:42:17Z</time>
      </trkpt>
      <trkpt lat="45.41457" lon="3.37799">
        <ele>507.4</ele>
        <time>2020-09-17T10:42:18Z</time>
      </trkpt>
      <trkpt lat="45.41458" lon="3.378">
        <ele>507.1</ele>
        <time>2020-09-17T10:42:19Z</time>
      </trkpt>
      <trkpt lat="45.41458" lon="3.37801">
        <ele>506.7</ele>
        <time>2020-09-17T10:42:20Z</time>
      </trkpt>
      <trkpt lat="45.41459" lon="3.37803">
        <ele>506.4</ele>
        <time>2020-09-17T10:42:21Z</time>
      </trkpt>
      <trkpt lat="45.41459" lon="3.37804">
        <ele>506.1</ele>
        <time>2020-09-17T10:42:22Z</time>
      </trkpt>
      <trkpt lat="45.41459" lon="3.37806">
        <ele>505.9</ele>
        <time>2020-09-17T10:42:23Z</time>
      </trkpt>
      <trkpt lat="45.41459" lon="3.37807">
        <ele>505.9</ele>
        <time>2020-09-17T10:42:24Z</time>
      </trkpt>
      <trkpt lat="45.41459" lon="3.37809">
        <ele>505.8</ele>
        <time>2020-09-17T10:42:25Z</time>
      </trkpt>
      <trkpt lat="45.41459" lon="3.37811">
        <ele>505.7</ele>
        <time>2020-09-17T10:42:26Z</time>
      </trkpt>
      <trkpt lat="45.41459" lon="3.37812">
        <ele>505.7</ele>
        <time>2020-09-17T10:42:27Z</time>
      </trkpt>
      <trkpt lat="45.41459" lon="3.37814">
        <ele>505.6</ele>
        <time>2020-09-17T10:42:28Z</time>
      </trkpt>
      <trkpt lat="45.41459" lon="3.37816">
        <ele>505.6</ele>
        <time>2020-09-17T10:42:29Z</time>
      </trkpt>
      <trkpt lat="45.41459" lon="3.37817">
        <ele>505.5</ele>
        <time>2020-09-17T10:42:30Z</time>
      </trkpt>
      <trkpt lat="45.41459" lon="3.37819">
        <ele>505.5</ele>
        <time>2020-09-17T10:42:31Z</time>
      </trkpt>
      <trkpt lat="45.41458" lon="3.37821">
        <ele>505.5</ele>
        <time>2020-09-17T10:42:32Z</time>
      </trkpt>
      <trkpt lat="45.41458" lon="3.37822">
        <ele>505.5</ele>
        <time>2020-09-17T10:42:33Z</time>
      </trkpt>
      <trkpt lat="45.41458" lon="3.37824">
        <ele>505.5</ele>
        <time>2020-09-17T10:42:34Z</time>
      </trkpt>
      <trkpt lat="45.41457" lon="3.37826">
        <ele>505.5</ele>
        <time>2020-09-17T10:42:35Z</time>
      </trkpt>
      <trkpt lat="45.41457" lon="3.37827">
        <ele>505.6</ele>
        <time>2020-09-17T10:42:36Z</time>
      </trkpt>
      <trkpt lat="45.41456" lon="3.37829">
        <ele>505.7</ele>
        <time>2020-09-17T10:42:37Z</time>
      </trkpt>
      <trkpt lat="45.41456" lon="3.3783">
        <ele>505.8</ele>
        <time>2020-09-17T10:42:38Z</time>
      </trkpt>
      <trkpt lat="45.41456" lon="3.37832">
        <ele>505.9</ele>
        <time>2020-09-17T10:42:39Z</time>
      </trkpt>
      <trkpt lat="45.41455" lon="3.37834">
        <ele>506</ele>
        <time>2020-09-17T10:42:40Z</time>
      </trkpt>
      <trkpt lat="45.41455" lon="3.37835">
        <ele>506</ele>
        <time>2020-09-17T10:42:41Z</time>
      </trkpt>
      <trkpt lat="45.41454" lon="3.37837">
        <ele>506.1</ele>
        <time>2020-09-17T10:42:42Z</time>
      </trkpt>
      <trkpt lat="45.41454" lon="3.37839">
        <ele>506.2</ele>
        <time>2020-09-17T10:42:43Z</time>
      </trkpt>
      <trkpt lat="45.41454" lon="3.3784">
        <ele>506.3</ele>
        <time>2020-09-17T10:42:44Z</time>
      </trkpt>
      <trkpt lat="45.41453" lon="3.37842">
        <ele>506.4</ele>
        <time>2020-09-17T10:42:45Z</time>
      </trkpt>
      <trkpt lat="45.41453" lon="3.37844">
        <ele>506.5</ele>
        <time>2020-09-17T10:42:46Z</time>
      </trkpt>
      <trkpt lat="45.41452" lon="3.37846">
        <ele>506.7</ele>
        <time>2020-09-17T10:42:47Z</time>
      </trkpt>
      <trkpt lat="45.41452" lon="3.37847">
        <ele>506.7</ele>
        <time>2020-09-17T10:42:48Z</time>
      </trkpt>
      <trkpt lat="45.41451" lon="3.37849">
        <ele>506.9</ele>
        <time>2020-09-17T10:42:49Z</time>
      </trkpt>
      <trkpt lat="45.41451" lon="3.37851">
        <ele>507</ele>
        <time>2020-09-17T10:42:50Z</time>
      </trkpt>
      <trkpt lat="45.41451" lon="3.37852">
        <ele>507.1</ele>
        <time>2020-09-17T10:42:51Z</time>
      </trkpt>
      <trkpt lat="45.4145" lon="3.37854">
        <ele>507.2</ele>
        <time>2020-09-17T10:42:52Z</time>
      </trkpt>
      <trkpt lat="45.4145" lon="3.37855">
        <ele>507.3</ele>
        <time>2020-09-17T10:42:53Z</time>
      </trkpt>
      <trkpt lat="45.4145" lon="3.37856">
        <ele>507.3</ele>
        <time>2020-09-17T10:42:54Z</time>
      </trkpt>
      <trkpt lat="45.41449" lon="3.37857">
        <ele>507.4</ele>
        <time>2020-09-17T10:42:55Z</time>
      </trkpt>
      <trkpt lat="45.41449" lon="3.37857">
        <ele>507.5</ele>
        <time>2020-09-17T10:42:56Z</time>
      </trkpt>
      <trkpt lat="45.41449" lon="3.37858">
        <ele>507.6</ele>
        <time>2020-09-17T10:42:57Z</time>
      </trkpt>
      <trkpt lat="45.41449" lon="3.37859">
        <ele>507.6</ele>
        <time>2020-09-17T10:42:58Z</time>
      </trkpt>
      <trkpt lat="45.41449" lon="3.3786">
        <ele>507.6</ele>
        <time>2020-09-17T10:42:59Z</time>
      </trkpt>
      <trkpt lat="45.41449" lon="3.3786">
        <ele>507.5</ele>
        <time>2020-09-17T10:43:00Z</time>
      </trkpt>
      <trkpt lat="45.41449" lon="3.37861">
        <ele>507.5</ele>
        <time>2020-09-17T10:43:01Z</time>
      </trkpt>
      <trkpt lat="45.4145" lon="3.37861">
        <ele>507.3</ele>
        <time>2020-09-17T10:43:02Z</time>
      </trkpt>
      <trkpt lat="45.4145" lon="3.37862">
        <ele>507.1</ele>
        <time>2020-09-17T10:43:03Z</time>
      </trkpt>
      <trkpt lat="45.4145" lon="3.37863">
        <ele>507.2</ele>
        <time>2020-09-17T10:43:04Z</time>
      </trkpt>
      <trkpt lat="45.4145" lon="3.37864">
        <ele>507.3</ele>
        <time>2020-09-17T10:43:05Z</time>
      </trkpt>
      <trkpt lat="45.4145" lon="3.37865">
        <ele>507.3</ele>
        <time>2020-09-17T10:43:06Z</time>
      </trkpt>
      <trkpt lat="45.4145" lon="3.37866">
        <ele>507.3</ele>
        <time>2020-09-17T10:43:07Z</time>
      </trkpt>
      <trkpt lat="45.4145" lon="3.37868">
        <ele>507.4</ele>
        <time>2020-09-17T10:43:08Z</time>
      </trkpt>
      <trkpt lat="45.4145" lon="3.37869">
        <ele>507.5</ele>
        <time>2020-09-17T10:43:09Z</time>
      </trkpt>
      <trkpt lat="45.4145" lon="3.37871">
        <ele>507.6</ele>
        <time>2020-09-17T10:43:10Z</time>
      </trkpt>
      <trkpt lat="45.4145" lon="3.37872">
        <ele>507.8</ele>
        <time>2020-09-17T10:43:11Z</time>
      </trkpt>
      <trkpt lat="45.41449" lon="3.37873">
        <ele>508.1</ele>
        <time>2020-09-17T10:43:12Z</time>
      </trkpt>
      <trkpt lat="45.41449" lon="3.37875">
        <ele>508.3</ele>
        <time>2020-09-17T10:43:13Z</time>
      </trkpt>
      <trkpt lat="45.41449" lon="3.37876">
        <ele>508.5</ele>
        <time>2020-09-17T10:43:14Z</time>
      </trkpt>
      <trkpt lat="45.41448" lon="3.37877">
        <ele>508.7</ele>
        <time>2020-09-17T10:43:15Z</time>
      </trkpt>
      <trkpt lat="45.41448" lon="3.37878">
        <ele>508.9</ele>
        <time>2020-09-17T10:43:16Z</time>
      </trkpt>
      <trkpt lat="45.41448" lon="3.3788">
        <ele>509.1</ele>
        <time>2020-09-17T10:43:17Z</time>
      </trkpt>
      <trkpt lat="45.41447" lon="3.37881">
        <ele>509.3</ele>
        <time>2020-09-17T10:43:18Z</time>
      </trkpt>
      <trkpt lat="45.41447" lon="3.37882">
        <ele>509.6</ele>
        <time>2020-09-17T10:43:19Z</time>
      </trkpt>
      <trkpt lat="45.41447" lon="3.37884">
        <ele>509.7</ele>
        <time>2020-09-17T10:43:20Z</time>
      </trkpt>
      <trkpt lat="45.41446" lon="3.37885">
        <ele>509.9</ele>
        <time>2020-09-17T10:43:21Z</time>
      </trkpt>
      <trkpt lat="45.41446" lon="3.37887">
        <ele>510.1</ele>
        <time>2020-09-17T10:43:22Z</time>
      </trkpt>
      <trkpt lat="45.41446" lon="3.37888">
        <ele>510.3</ele>
        <time>2020-09-17T10:43:23Z</time>
      </trkpt>
      <trkpt lat="45.41446" lon="3.37889">
        <ele>510.6</ele>
        <time>2020-09-17T10:43:24Z</time>
      </trkpt>
      <trkpt lat="45.41445" lon="3.37891">
        <ele>511.1</ele>
        <time>2020-09-17T10:43:25Z</time>
      </trkpt>
      <trkpt lat="45.41445" lon="3.37892">
        <ele>511.5</ele>
        <time>2020-09-17T10:43:26Z</time>
      </trkpt>
      <trkpt lat="45.41445" lon="3.37894">
        <ele>511.8</ele>
        <time>2020-09-17T10:43:27Z</time>
      </trkpt>
      <trkpt lat="45.41444" lon="3.37895">
        <ele>512.2</ele>
        <time>2020-09-17T10:43:28Z</time>
      </trkpt>
      <trkpt lat="45.41444" lon="3.37896">
        <ele>512.3</ele>
        <time>2020-09-17T10:43:29Z</time>
      </trkpt>
      <trkpt lat="45.41444" lon="3.37897">
        <ele>512.5</ele>
        <time>2020-09-17T10:43:30Z</time>
      </trkpt>
      <trkpt lat="45.41443" lon="3.37898">
        <ele>512.7</ele>
        <time>2020-09-17T10:43:31Z</time>
      </trkpt>
      <trkpt lat="45.41443" lon="3.37899">
        <ele>512.8</ele>
        <time>2020-09-17T10:43:32Z</time>
      </trkpt>
      <trkpt lat="45.41443" lon="3.379">
        <ele>513</ele>
        <time>2020-09-17T10:43:33Z</time>
      </trkpt>
      <trkpt lat="45.41443" lon="3.37901">
        <ele>513.2</ele>
        <time>2020-09-17T10:43:34Z</time>
      </trkpt>
      <trkpt lat="45.41443" lon="3.37902">
        <ele>513.2</ele>
        <time>2020-09-17T10:43:35Z</time>
      </trkpt>
      <trkpt lat="45.41443" lon="3.37903">
        <ele>513.5</ele>
        <time>2020-09-17T10:43:36Z</time>
      </trkpt>
      <trkpt lat="45.41442" lon="3.37904">
        <ele>513.5</ele>
        <time>2020-09-17T10:43:37Z</time>
      </trkpt>
      <trkpt lat="45.41442" lon="3.37904">
        <ele>513.6</ele>
        <time>2020-09-17T10:43:38Z</time>
      </trkpt>
      <trkpt lat="45.41442" lon="3.37905">
        <ele>513.7</ele>
        <time>2020-09-17T10:43:39Z</time>
      </trkpt>
      <trkpt lat="45.41442" lon="3.37906">
        <ele>513.9</ele>
        <time>2020-09-17T10:43:40Z</time>
      </trkpt>
      <trkpt lat="45.41441" lon="3.37907">
        <ele>514.1</ele>
        <time>2020-09-17T10:43:41Z</time>
      </trkpt>
      <trkpt lat="45.41441" lon="3.37908">
        <ele>514.2</ele>
        <time>2020-09-17T10:43:42Z</time>
      </trkpt>
      <trkpt lat="45.41441" lon="3.37909">
        <ele>514.2</ele>
        <time>2020-09-17T10:43:43Z</time>
      </trkpt>
      <trkpt lat="45.4144" lon="3.3791">
        <ele>514.3</ele>
        <time>2020-09-17T10:43:44Z</time>
      </trkpt>
      <trkpt lat="45.4144" lon="3.37911">
        <ele>514.4</ele>
        <time>2020-09-17T10:43:45Z</time>
      </trkpt>
      <trkpt lat="45.4144" lon="3.37913">
        <ele>514.6</ele>
        <time>2020-09-17T10:43:46Z</time>
      </trkpt>
      <trkpt lat="45.41439" lon="3.37914">
        <ele>514.7</ele>
        <time>2020-09-17T10:43:47Z</time>
      </trkpt>
      <trkpt lat="45.41439" lon="3.37915">
        <ele>514.8</ele>
        <time>2020-09-17T10:43:48Z</time>
      </trkpt>
      <trkpt lat="45.41439" lon="3.37916">
        <ele>515</ele>
        <time>2020-09-17T10:43:49Z</time>
      </trkpt>
      <trkpt lat="45.41439" lon="3.37917">
        <ele>515.2</ele>
        <time>2020-09-17T10:43:50Z</time>
      </trkpt>
      <trkpt lat="45.41439" lon="3.37918">
        <ele>515.3</ele>
        <time>2020-09-17T10:43:51Z</time>
      </trkpt>
      <trkpt lat="45.41439" lon="3.37919">
        <ele>515.4</ele>
        <time>2020-09-17T10:43:52Z</time>
      </trkpt>
      <trkpt lat="45.41438" lon="3.37921">
        <ele>515.5</ele>
        <time>2020-09-17T10:43:53Z</time>
      </trkpt>
      <trkpt lat="45.41438" lon="3.37922">
        <ele>515.6</ele>
        <time>2020-09-17T10:43:54Z</time>
      </trkpt>
      <trkpt lat="45.41438" lon="3.37923">
        <ele>515.8</ele>
        <time>2020-09-17T10:43:55Z</time>
      </trkpt>
      <trkpt lat="45.41438" lon="3.37924">
        <ele>516</ele>
        <time>2020-09-17T10:43:56Z</time>
      </trkpt>
      <trkpt lat="45.41439" lon="3.37925">
        <ele>516.1</ele>
        <time>2020-09-17T10:43:57Z</time>
      </trkpt>
      <trkpt lat="45.41439" lon="3.37926">
        <ele>516.3</ele>
        <time>2020-09-17T10:43:58Z</time>
      </trkpt>
      <trkpt lat="45.41439" lon="3.37927">
        <ele>516.5</ele>
        <time>2020-09-17T10:43:59Z</time>
      </trkpt>
      <trkpt lat="45.41439" lon="3.37928">
        <ele>516.7</ele>
        <time>2020-09-17T10:44:00Z</time>
      </trkpt>
      <trkpt lat="45.41439" lon="3.3793">
        <ele>516.9</ele>
        <time>2020-09-17T10:44:01Z</time>
      </trkpt>
      <trkpt lat="45.41439" lon="3.37931">
        <ele>517.1</ele>
        <time>2020-09-17T10:44:02Z</time>
      </trkpt>
      <trkpt lat="45.41439" lon="3.37932">
        <ele>517.2</ele>
        <time>2020-09-17T10:44:03Z</time>
      </trkpt>
      <trkpt lat="45.41439" lon="3.37933">
        <ele>517.4</ele>
        <time>2020-09-17T10:44:04Z</time>
      </trkpt>
      <trkpt lat="45.41439" lon="3.37934">
        <ele>517.5</ele>
        <time>2020-09-17T10:44:05Z</time>
      </trkpt>
      <trkpt lat="45.41439" lon="3.37934">
        <ele>517.7</ele>
        <time>2020-09-17T10:44:06Z</time>
      </trkpt>
      <trkpt lat="45.41439" lon="3.37935">
        <ele>517.8</ele>
        <time>2020-09-17T10:44:07Z</time>
      </trkpt>
      <trkpt lat="45.41439" lon="3.37936">
        <ele>517.8</ele>
        <time>2020-09-17T10:44:08Z</time>
      </trkpt>
      <trkpt lat="45.41439" lon="3.37937">
        <ele>517.9</ele>
        <time>2020-09-17T10:44:09Z</time>
      </trkpt>
      <trkpt lat="45.41439" lon="3.37938">
        <ele>518</ele>
        <time>2020-09-17T10:44:10Z</time>
      </trkpt>
      <trkpt lat="45.41439" lon="3.37938">
        <ele>518.1</ele>
        <time>2020-09-17T10:44:11Z</time>
      </trkpt>
      <trkpt lat="45.41439" lon="3.37939">
        <ele>518.1</ele>
        <time>2020-09-17T10:44:12Z</time>
      </trkpt>
      <trkpt lat="45.41439" lon="3.3794">
        <ele>518.3</ele>
        <time>2020-09-17T10:44:13Z</time>
      </trkpt>
      <trkpt lat="45.41439" lon="3.37941">
        <ele>518.5</ele>
        <time>2020-09-17T10:44:14Z</time>
      </trkpt>
      <trkpt lat="45.41439" lon="3.37942">
        <ele>518.6</ele>
        <time>2020-09-17T10:44:15Z</time>
      </trkpt>
      <trkpt lat="45.41439" lon="3.37944">
        <ele>518.8</ele>
        <time>2020-09-17T10:44:16Z</time>
      </trkpt>
      <trkpt lat="45.41439" lon="3.37945">
        <ele>519</ele>
        <time>2020-09-17T10:44:17Z</time>
      </trkpt>
      <trkpt lat="45.41439" lon="3.37946">
        <ele>519</ele>
        <time>2020-09-17T10:44:18Z</time>
      </trkpt>
      <trkpt lat="45.41439" lon="3.37947">
        <ele>519.1</ele>
        <time>2020-09-17T10:44:19Z</time>
      </trkpt>
      <trkpt lat="45.41439" lon="3.37949">
        <ele>519.1</ele>
        <time>2020-09-17T10:44:20Z</time>
      </trkpt>
      <trkpt lat="45.41438" lon="3.3795">
        <ele>519.1</ele>
        <time>2020-09-17T10:44:21Z</time>
      </trkpt>
      <trkpt lat="45.41438" lon="3.37951">
        <ele>519.2</ele>
        <time>2020-09-17T10:44:22Z</time>
      </trkpt>
      <trkpt lat="45.41438" lon="3.37952">
        <ele>519.3</ele>
        <time>2020-09-17T10:44:23Z</time>
      </trkpt>
      <trkpt lat="45.41438" lon="3.37953">
        <ele>519.4</ele>
        <time>2020-09-17T10:44:24Z</time>
      </trkpt>
      <trkpt lat="45.41438" lon="3.37954">
        <ele>519.6</ele>
        <time>2020-09-17T10:44:25Z</time>
      </trkpt>
      <trkpt lat="45.41438" lon="3.37955">
        <ele>519.6</ele>
        <time>2020-09-17T10:44:26Z</time>
      </trkpt>
      <trkpt lat="45.41438" lon="3.37956">
        <ele>519.6</ele>
        <time>2020-09-17T10:44:27Z</time>
      </trkpt>
      <trkpt lat="45.41438" lon="3.37957">
        <ele>519.7</ele>
        <time>2020-09-17T10:44:28Z</time>
      </trkpt>
      <trkpt lat="45.41438" lon="3.37958">
        <ele>519.8</ele>
        <time>2020-09-17T10:44:29Z</time>
      </trkpt>
      <trkpt lat="45.41438" lon="3.37958">
        <ele>519.8</ele>
        <time>2020-09-17T10:44:30Z</time>
      </trkpt>
      <trkpt lat="45.41438" lon="3.37959">
        <ele>519.9</ele>
        <time>2020-09-17T10:44:31Z</time>
      </trkpt>
      <trkpt lat="45.41438" lon="3.3796">
        <ele>519.9</ele>
        <time>2020-09-17T10:44:32Z</time>
      </trkpt>
      <trkpt lat="45.41438" lon="3.37961">
        <ele>520</ele>
        <time>2020-09-17T10:44:33Z</time>
      </trkpt>
      <trkpt lat="45.41438" lon="3.37962">
        <ele>520.1</ele>
        <time>2020-09-17T10:44:34Z</time>
      </trkpt>
      <trkpt lat="45.41438" lon="3.37964">
        <ele>520.3</ele>
        <time>2020-09-17T10:44:35Z</time>
      </trkpt>
      <trkpt lat="45.41438" lon="3.37965">
        <ele>520.4</ele>
        <time>2020-09-17T10:44:36Z</time>
      </trkpt>
      <trkpt lat="45.41438" lon="3.37966">
        <ele>520.5</ele>
        <time>2020-09-17T10:44:37Z</time>
      </trkpt>
      <trkpt lat="45.41438" lon="3.37967">
        <ele>520.5</ele>
        <time>2020-09-17T10:44:38Z</time>
      </trkpt>
      <trkpt lat="45.41438" lon="3.37968">
        <ele>520.6</ele>
        <time>2020-09-17T10:44:39Z</time>
      </trkpt>
      <trkpt lat="45.41438" lon="3.37969">
        <ele>520.7</ele>
        <time>2020-09-17T10:44:40Z</time>
      </trkpt>
      <trkpt lat="45.41438" lon="3.37969">
        <ele>520.9</ele>
        <time>2020-09-17T10:44:41Z</time>
      </trkpt>
      <trkpt lat="45.41438" lon="3.3797">
        <ele>520.9</ele>
        <time>2020-09-17T10:44:42Z</time>
      </trkpt>
      <trkpt lat="45.41438" lon="3.37971">
        <ele>521</ele>
        <time>2020-09-17T10:44:43Z</time>
      </trkpt>
      <trkpt lat="45.41438" lon="3.37972">
        <ele>521.2</ele>
        <time>2020-09-17T10:44:44Z</time>
      </trkpt>
      <trkpt lat="45.41438" lon="3.37972">
        <ele>521.4</ele>
        <time>2020-09-17T10:44:45Z</time>
      </trkpt>
      <trkpt lat="45.41439" lon="3.37973">
        <ele>521.6</ele>
        <time>2020-09-17T10:44:46Z</time>
      </trkpt>
      <trkpt lat="45.41439" lon="3.37974">
        <ele>521.8</ele>
        <time>2020-09-17T10:44:47Z</time>
      </trkpt>
      <trkpt lat="45.4144" lon="3.37974">
        <ele>522.1</ele>
        <time>2020-09-17T10:44:48Z</time>
      </trkpt>
      <trkpt lat="45.4144" lon="3.37974">
        <ele>522.3</ele>
        <time>2020-09-17T10:44:49Z</time>
      </trkpt>
      <trkpt lat="45.41441" lon="3.37974">
        <ele>522.5</ele>
        <time>2020-09-17T10:44:50Z</time>
      </trkpt>
      <trkpt lat="45.41441" lon="3.37975">
        <ele>522.7</ele>
        <time>2020-09-17T10:44:51Z</time>
      </trkpt>
      <trkpt lat="45.41441" lon="3.37975">
        <ele>522.8</ele>
        <time>2020-09-17T10:44:52Z</time>
      </trkpt>
      <trkpt lat="45.41442" lon="3.37975">
        <ele>523.1</ele>
        <time>2020-09-17T10:44:53Z</time>
      </trkpt>
      <trkpt lat="45.41442" lon="3.37974">
        <ele>523.2</ele>
        <time>2020-09-17T10:44:54Z</time>
      </trkpt>
      <trkpt lat="45.41442" lon="3.37974">
        <ele>523.2</ele>
        <time>2020-09-17T10:44:55Z</time>
      </trkpt>
      <trkpt lat="45.41443" lon="3.37973">
        <ele>523.3</ele>
        <time>2020-09-17T10:44:56Z</time>
      </trkpt>
      <trkpt lat="45.41443" lon="3.37973">
        <ele>523.5</ele>
        <time>2020-09-17T10:44:57Z</time>
      </trkpt>
      <trkpt lat="45.41443" lon="3.37973">
        <ele>523.5</ele>
        <time>2020-09-17T10:44:58Z</time>
      </trkpt>
      <trkpt lat="45.41444" lon="3.37972">
        <ele>523.6</ele>
        <time>2020-09-17T10:44:59Z</time>
      </trkpt>
      <trkpt lat="45.41444" lon="3.37971">
        <ele>523.7</ele>
        <time>2020-09-17T10:45:00Z</time>
      </trkpt>
      <trkpt lat="45.41445" lon="3.3797">
        <ele>523.8</ele>
        <time>2020-09-17T10:45:01Z</time>
      </trkpt>
      <trkpt lat="45.41445" lon="3.3797">
        <ele>523.7</ele>
        <time>2020-09-17T10:45:02Z</time>
      </trkpt>
      <trkpt lat="45.41446" lon="3.37969">
        <ele>523.7</ele>
        <time>2020-09-17T10:45:03Z</time>
      </trkpt>
      <trkpt lat="45.41446" lon="3.37969">
        <ele>523.6</ele>
        <time>2020-09-17T10:45:04Z</time>
      </trkpt>
      <trkpt lat="45.41447" lon="3.37968">
        <ele>523.5</ele>
        <time>2020-09-17T10:45:05Z</time>
      </trkpt>
      <trkpt lat="45.41447" lon="3.37968">
        <ele>523.5</ele>
        <time>2020-09-17T10:45:06Z</time>
      </trkpt>
      <trkpt lat="45.41448" lon="3.37967">
        <ele>523.4</ele>
        <time>2020-09-17T10:45:07Z</time>
      </trkpt>
      <trkpt lat="45.41448" lon="3.37967">
        <ele>523.4</ele>
        <time>2020-09-17T10:45:08Z</time>
      </trkpt>
      <trkpt lat="45.41449" lon="3.37966">
        <ele>523.3</ele>
        <time>2020-09-17T10:45:09Z</time>
      </trkpt>
      <trkpt lat="45.4145" lon="3.37966">
        <ele>523.2</ele>
        <time>2020-09-17T10:45:10Z</time>
      </trkpt>
      <trkpt lat="45.4145" lon="3.37966">
        <ele>523.2</ele>
        <time>2020-09-17T10:45:11Z</time>
      </trkpt>
      <trkpt lat="45.41451" lon="3.37966">
        <ele>523.2</ele>
        <time>2020-09-17T10:45:12Z</time>
      </trkpt>
      <trkpt lat="45.41451" lon="3.37966">
        <ele>523.2</ele>
        <time>2020-09-17T10:45:13Z</time>
      </trkpt>
      <trkpt lat="45.41452" lon="3.37967">
        <ele>523.3</ele>
        <time>2020-09-17T10:45:14Z</time>
      </trkpt>
      <trkpt lat="45.41452" lon="3.37966">
        <ele>523.2</ele>
        <time>2020-09-17T10:45:15Z</time>
      </trkpt>
      <trkpt lat="45.41453" lon="3.37967">
        <ele>523.3</ele>
        <time>2020-09-17T10:45:16Z</time>
      </trkpt>
      <trkpt lat="45.41453" lon="3.37967">
        <ele>523.3</ele>
        <time>2020-09-17T10:45:17Z</time>
      </trkpt>
      <trkpt lat="45.41454" lon="3.37967">
        <ele>523.3</ele>
        <time>2020-09-17T10:45:18Z</time>
      </trkpt>
      <trkpt lat="45.41454" lon="3.37968">
        <ele>523.4</ele>
        <time>2020-09-17T10:45:19Z</time>
      </trkpt>
      <trkpt lat="45.41454" lon="3.37968">
        <ele>523.5</ele>
        <time>2020-09-17T10:45:20Z</time>
      </trkpt>
      <trkpt lat="45.41455" lon="3.37968">
        <ele>523.5</ele>
        <time>2020-09-17T10:45:21Z</time>
      </trkpt>
      <trkpt lat="45.41455" lon="3.37968">
        <ele>523.6</ele>
        <time>2020-09-17T10:45:22Z</time>
      </trkpt>
      <trkpt lat="45.41456" lon="3.37969">
        <ele>523.6</ele>
        <time>2020-09-17T10:45:23Z</time>
      </trkpt>
      <trkpt lat="45.41456" lon="3.37969">
        <ele>523.7</ele>
        <time>2020-09-17T10:45:24Z</time>
      </trkpt>
      <trkpt lat="45.41456" lon="3.37969">
        <ele>523.8</ele>
        <time>2020-09-17T10:45:25Z</time>
      </trkpt>
      <trkpt lat="45.41456" lon="3.3797">
        <ele>523.9</ele>
        <time>2020-09-17T10:45:26Z</time>
      </trkpt>
      <trkpt lat="45.41457" lon="3.37971">
        <ele>524.2</ele>
        <time>2020-09-17T10:45:27Z</time>
      </trkpt>
      <trkpt lat="45.41457" lon="3.37972">
        <ele>524.4</ele>
        <time>2020-09-17T10:45:28Z</time>
      </trkpt>
      <trkpt lat="45.41458" lon="3.37973">
        <ele>524.6</ele>
        <time>2020-09-17T10:45:29Z</time>
      </trkpt>
      <trkpt lat="45.41458" lon="3.37974">
        <ele>524.7</ele>
        <time>2020-09-17T10:45:30Z</time>
      </trkpt>
      <trkpt lat="45.41458" lon="3.37974">
        <ele>524.8</ele>
        <time>2020-09-17T10:45:31Z</time>
      </trkpt>
      <trkpt lat="45.41458" lon="3.37974">
        <ele>524.8</ele>
        <time>2020-09-17T10:45:32Z</time>
      </trkpt>
      <trkpt lat="45.41458" lon="3.37975">
        <ele>524.9</ele>
        <time>2020-09-17T10:45:33Z</time>
      </trkpt>
      <trkpt lat="45.41458" lon="3.37975">
        <ele>525</ele>
        <time>2020-09-17T10:45:34Z</time>
      </trkpt>
      <trkpt lat="45.41458" lon="3.37975">
        <ele>525</ele>
        <time>2020-09-17T10:45:35Z</time>
      </trkpt>
      <trkpt lat="45.41458" lon="3.37975">
        <ele>525</ele>
        <time>2020-09-17T10:45:36Z</time>
      </trkpt>
      <trkpt lat="45.41458" lon="3.37975">
        <ele>525</ele>
        <time>2020-09-17T10:45:37Z</time>
      </trkpt>
      <trkpt lat="45.41458" lon="3.37975">
        <ele>525</ele>
        <time>2020-09-17T10:45:38Z</time>
      </trkpt>
      <trkpt lat="45.41458" lon="3.37975">
        <ele>525</ele>
        <time>2020-09-17T10:45:39Z</time>
      </trkpt>
      <trkpt lat="45.41458" lon="3.37975">
        <ele>525</ele>
        <time>2020-09-17T10:45:40Z</time>
      </trkpt>
      <trkpt lat="45.41458" lon="3.37975">
        <ele>525</ele>
        <time>2020-09-17T10:45:41Z</time>
      </trkpt>
      <trkpt lat="45.41458" lon="3.37975">
        <ele>525</ele>
        <time>2020-09-17T10:45:42Z</time>
      </trkpt>
      <trkpt lat="45.41458" lon="3.37975">
        <ele>525</ele>
        <time>2020-09-17T10:45:43Z</time>
      </trkpt>
      <trkpt lat="45.41458" lon="3.37975">
        <ele>525</ele>
        <time>2020-09-17T10:45:44Z</time>
      </trkpt>
      <trkpt lat="45.41458" lon="3.37975">
        <ele>524.9</ele>
        <time>2020-09-17T10:45:45Z</time>
      </trkpt>
      <trkpt lat="45.41459" lon="3.37975">
        <ele>525</ele>
        <time>2020-09-17T10:45:46Z</time>
      </trkpt>
      <trkpt lat="45.41459" lon="3.37975">
        <ele>525</ele>
        <time>2020-09-17T10:45:47Z</time>
      </trkpt>
      <trkpt lat="45.41459" lon="3.37975">
        <ele>525</ele>
        <time>2020-09-17T10:45:48Z</time>
      </trkpt>
      <trkpt lat="45.41459" lon="3.37975">
        <ele>525</ele>
        <time>2020-09-17T10:45:49Z</time>
      </trkpt>
      <trkpt lat="45.41459" lon="3.37975">
        <ele>525</ele>
        <time>2020-09-17T10:45:50Z</time>
      </trkpt>
      <trkpt lat="45.41459" lon="3.37975">
        <ele>525</ele>
        <time>2020-09-17T10:45:51Z</time>
      </trkpt>
      <trkpt lat="45.41459" lon="3.37975">
        <ele>525</ele>
        <time>2020-09-17T10:45:52Z</time>
      </trkpt>
      <trkpt lat="45.41459" lon="3.37975">
        <ele>525</ele>
        <time>2020-09-17T10:45:53Z</time>
      </trkpt>
      <trkpt lat="45.41459" lon="3.37975">
        <ele>525</ele>
        <time>2020-09-17T10:45:54Z</time>
      </trkpt>
      <trkpt lat="45.41459" lon="3.37975">
        <ele>525</ele>
        <time>2020-09-17T10:45:55Z</time>
      </trkpt>
      <trkpt lat="45.41459" lon="3.37975">
        <ele>525</ele>
        <time>2020-09-17T10:45:56Z</time>
      </trkpt>
      <trkpt lat="45.41459" lon="3.37975">
        <ele>525</ele>
        <time>2020-09-17T10:45:57Z</time>
      </trkpt>
      <trkpt lat="45.41459" lon="3.37975">
        <ele>525</ele>
        <time>2020-09-17T10:45:58Z</time>
      </trkpt>
      <trkpt lat="45.41459" lon="3.37975">
        <ele>525</ele>
        <time>2020-09-17T10:45:59Z</time>
      </trkpt>
      <trkpt lat="45.41459" lon="3.37975">
        <ele>525.1</ele>
        <time>2020-09-17T10:46:00Z</time>
      </trkpt>
      <trkpt lat="45.41459" lon="3.37975">
        <ele>525.1</ele>
        <time>2020-09-17T10:46:01Z</time>
      </trkpt>
      <trkpt lat="45.41459" lon="3.37975">
        <ele>525.1</ele>
        <time>2020-09-17T10:46:02Z</time>
      </trkpt>
      <trkpt lat="45.41459" lon="3.37975">
        <ele>525.1</ele>
        <time>2020-09-17T10:46:03Z</time>
      </trkpt>
      <trkpt lat="45.41459" lon="3.37976">
        <ele>525.1</ele>
        <time>2020-09-17T10:46:04Z</time>
      </trkpt>
      <trkpt lat="45.4146" lon="3.37976">
        <ele>525.2</ele>
        <time>2020-09-17T10:46:05Z</time>
      </trkpt>
      <trkpt lat="45.4146" lon="3.37977">
        <ele>525.4</ele>
        <time>2020-09-17T10:46:06Z</time>
      </trkpt>
      <trkpt lat="45.4146" lon="3.37977">
        <ele>525.5</ele>
        <time>2020-09-17T10:46:07Z</time>
      </trkpt>
      <trkpt lat="45.4146" lon="3.37978">
        <ele>525.6</ele>
        <time>2020-09-17T10:46:08Z</time>
      </trkpt>
      <trkpt lat="45.41461" lon="3.37978">
        <ele>525.8</ele>
        <time>2020-09-17T10:46:09Z</time>
      </trkpt>
      <trkpt lat="45.41461" lon="3.37979">
        <ele>525.9</ele>
        <time>2020-09-17T10:46:10Z</time>
      </trkpt>
      <trkpt lat="45.41462" lon="3.3798">
        <ele>526.1</ele>
        <time>2020-09-17T10:46:11Z</time>
      </trkpt>
      <trkpt lat="45.41462" lon="3.3798">
        <ele>526.2</ele>
        <time>2020-09-17T10:46:12Z</time>
      </trkpt>
      <trkpt lat="45.41463" lon="3.37981">
        <ele>526.4</ele>
        <time>2020-09-17T10:46:13Z</time>
      </trkpt>
      <trkpt lat="45.41464" lon="3.37981">
        <ele>526.5</ele>
        <time>2020-09-17T10:46:14Z</time>
      </trkpt>
      <trkpt lat="45.41464" lon="3.37982">
        <ele>526.7</ele>
        <time>2020-09-17T10:46:15Z</time>
      </trkpt>
      <trkpt lat="45.41465" lon="3.37982">
        <ele>526.8</ele>
        <time>2020-09-17T10:46:16Z</time>
      </trkpt>
      <trkpt lat="45.41466" lon="3.37983">
        <ele>527</ele>
        <time>2020-09-17T10:46:17Z</time>
      </trkpt>
      <trkpt lat="45.41467" lon="3.37983">
        <ele>527.3</ele>
        <time>2020-09-17T10:46:18Z</time>
      </trkpt>
      <trkpt lat="45.41467" lon="3.37985">
        <ele>527.6</ele>
        <time>2020-09-17T10:46:19Z</time>
      </trkpt>
      <trkpt lat="45.41468" lon="3.37985">
        <ele>527.9</ele>
        <time>2020-09-17T10:46:20Z</time>
      </trkpt>
      <trkpt lat="45.41469" lon="3.37987">
        <ele>528.2</ele>
        <time>2020-09-17T10:46:21Z</time>
      </trkpt>
      <trkpt lat="45.41469" lon="3.37988">
        <ele>528.6</ele>
        <time>2020-09-17T10:46:22Z</time>
      </trkpt>
      <trkpt lat="45.4147" lon="3.37989">
        <ele>529</ele>
        <time>2020-09-17T10:46:23Z</time>
      </trkpt>
      <trkpt lat="45.41471" lon="3.3799">
        <ele>529.3</ele>
        <time>2020-09-17T10:46:24Z</time>
      </trkpt>
      <trkpt lat="45.41471" lon="3.37991">
        <ele>529.7</ele>
        <time>2020-09-17T10:46:25Z</time>
      </trkpt>
      <trkpt lat="45.41472" lon="3.37993">
        <ele>530.1</ele>
        <time>2020-09-17T10:46:26Z</time>
      </trkpt>
      <trkpt lat="45.41472" lon="3.37994">
        <ele>530.5</ele>
        <time>2020-09-17T10:46:27Z</time>
      </trkpt>
      <trkpt lat="45.41473" lon="3.37996">
        <ele>530.6</ele>
        <time>2020-09-17T10:46:28Z</time>
      </trkpt>
      <trkpt lat="45.41473" lon="3.37997">
        <ele>530.8</ele>
        <time>2020-09-17T10:46:29Z</time>
      </trkpt>
      <trkpt lat="45.41473" lon="3.37999">
        <ele>531.1</ele>
        <time>2020-09-17T10:46:30Z</time>
      </trkpt>
      <trkpt lat="45.41474" lon="3.38">
        <ele>531.3</ele>
        <time>2020-09-17T10:46:31Z</time>
      </trkpt>
      <trkpt lat="45.41474" lon="3.38001">
        <ele>531.6</ele>
        <time>2020-09-17T10:46:32Z</time>
      </trkpt>
      <trkpt lat="45.41474" lon="3.38002">
        <ele>531.9</ele>
        <time>2020-09-17T10:46:33Z</time>
      </trkpt>
      <trkpt lat="45.41474" lon="3.38003">
        <ele>532.1</ele>
        <time>2020-09-17T10:46:34Z</time>
      </trkpt>
      <trkpt lat="45.41474" lon="3.38004">
        <ele>532.2</ele>
        <time>2020-09-17T10:46:35Z</time>
      </trkpt>
      <trkpt lat="45.41475" lon="3.38005">
        <ele>532.2</ele>
        <time>2020-09-17T10:46:36Z</time>
      </trkpt>
      <trkpt lat="45.41475" lon="3.38006">
        <ele>532.2</ele>
        <time>2020-09-17T10:46:37Z</time>
      </trkpt>
      <trkpt lat="45.41476" lon="3.38008">
        <ele>532.3</ele>
        <time>2020-09-17T10:46:38Z</time>
      </trkpt>
      <trkpt lat="45.41476" lon="3.38009">
        <ele>532.5</ele>
        <time>2020-09-17T10:46:39Z</time>
      </trkpt>
      <trkpt lat="45.41477" lon="3.3801">
        <ele>532.4</ele>
        <time>2020-09-17T10:46:40Z</time>
      </trkpt>
      <trkpt lat="45.41477" lon="3.38011">
        <ele>532.5</ele>
        <time>2020-09-17T10:46:41Z</time>
      </trkpt>
      <trkpt lat="45.41478" lon="3.38012">
        <ele>532.5</ele>
        <time>2020-09-17T10:46:42Z</time>
      </trkpt>
      <trkpt lat="45.41478" lon="3.38013">
        <ele>532.5</ele>
        <time>2020-09-17T10:46:43Z</time>
      </trkpt>
      <trkpt lat="45.41479" lon="3.38014">
        <ele>532.5</ele>
        <time>2020-09-17T10:46:44Z</time>
      </trkpt>
      <trkpt lat="45.41479" lon="3.38015">
        <ele>532.5</ele>
        <time>2020-09-17T10:46:45Z</time>
      </trkpt>
      <trkpt lat="45.4148" lon="3.38016">
        <ele>532.5</ele>
        <time>2020-09-17T10:46:46Z</time>
      </trkpt>
      <trkpt lat="45.4148" lon="3.38017">
        <ele>532.6</ele>
        <time>2020-09-17T10:46:47Z</time>
      </trkpt>
      <trkpt lat="45.41481" lon="3.38018">
        <ele>532.5</ele>
        <time>2020-09-17T10:46:48Z</time>
      </trkpt>
      <trkpt lat="45.41482" lon="3.38019">
        <ele>532.6</ele>
        <time>2020-09-17T10:46:49Z</time>
      </trkpt>
      <trkpt lat="45.41482" lon="3.38021">
        <ele>532.6</ele>
        <time>2020-09-17T10:46:50Z</time>
      </trkpt>
      <trkpt lat="45.41483" lon="3.38022">
        <ele>532.8</ele>
        <time>2020-09-17T10:46:51Z</time>
      </trkpt>
      <trkpt lat="45.41483" lon="3.38023">
        <ele>533</ele>
        <time>2020-09-17T10:46:52Z</time>
      </trkpt>
      <trkpt lat="45.41484" lon="3.38025">
        <ele>533.2</ele>
        <time>2020-09-17T10:46:53Z</time>
      </trkpt>
      <trkpt lat="45.41484" lon="3.38026">
        <ele>533.3</ele>
        <time>2020-09-17T10:46:54Z</time>
      </trkpt>
      <trkpt lat="45.41485" lon="3.38027">
        <ele>533.4</ele>
        <time>2020-09-17T10:46:55Z</time>
      </trkpt>
      <trkpt lat="45.41485" lon="3.38028">
        <ele>533.6</ele>
        <time>2020-09-17T10:46:56Z</time>
      </trkpt>
      <trkpt lat="45.41486" lon="3.38029">
        <ele>533.8</ele>
        <time>2020-09-17T10:46:57Z</time>
      </trkpt>
      <trkpt lat="45.41486" lon="3.3803">
        <ele>534</ele>
        <time>2020-09-17T10:46:58Z</time>
      </trkpt>
      <trkpt lat="45.41486" lon="3.38031">
        <ele>534.2</ele>
        <time>2020-09-17T10:46:59Z</time>
      </trkpt>
      <trkpt lat="45.41487" lon="3.38032">
        <ele>534.2</ele>
        <time>2020-09-17T10:47:00Z</time>
      </trkpt>
      <trkpt lat="45.41488" lon="3.38033">
        <ele>534.2</ele>
        <time>2020-09-17T10:47:01Z</time>
      </trkpt>
      <trkpt lat="45.41489" lon="3.38034">
        <ele>534</ele>
        <time>2020-09-17T10:47:02Z</time>
      </trkpt>
      <trkpt lat="45.41489" lon="3.38035">
        <ele>534.1</ele>
        <time>2020-09-17T10:47:03Z</time>
      </trkpt>
      <trkpt lat="45.4149" lon="3.38035">
        <ele>534.1</ele>
        <time>2020-09-17T10:47:04Z</time>
      </trkpt>
      <trkpt lat="45.4149" lon="3.38036">
        <ele>534.2</ele>
        <time>2020-09-17T10:47:05Z</time>
      </trkpt>
      <trkpt lat="45.41491" lon="3.38037">
        <ele>534.1</ele>
        <time>2020-09-17T10:47:06Z</time>
      </trkpt>
      <trkpt lat="45.41492" lon="3.38037">
        <ele>534.1</ele>
        <time>2020-09-17T10:47:07Z</time>
      </trkpt>
      <trkpt lat="45.41492" lon="3.38038">
        <ele>534.1</ele>
        <time>2020-09-17T10:47:08Z</time>
      </trkpt>
      <trkpt lat="45.41493" lon="3.38039">
        <ele>534.2</ele>
        <time>2020-09-17T10:47:09Z</time>
      </trkpt>
      <trkpt lat="45.41494" lon="3.3804">
        <ele>534</ele>
        <time>2020-09-17T10:47:10Z</time>
      </trkpt>
      <trkpt lat="45.41495" lon="3.3804">
        <ele>533.8</ele>
        <time>2020-09-17T10:47:11Z</time>
      </trkpt>
      <trkpt lat="45.41496" lon="3.38041">
        <ele>533.8</ele>
        <time>2020-09-17T10:47:12Z</time>
      </trkpt>
      <trkpt lat="45.41497" lon="3.38042">
        <ele>533.7</ele>
        <time>2020-09-17T10:47:13Z</time>
      </trkpt>
      <trkpt lat="45.41498" lon="3.38043">
        <ele>533.7</ele>
        <time>2020-09-17T10:47:14Z</time>
      </trkpt>
      <trkpt lat="45.41499" lon="3.38043">
        <ele>533.5</ele>
        <time>2020-09-17T10:47:15Z</time>
      </trkpt>
      <trkpt lat="45.415" lon="3.38044">
        <ele>533.5</ele>
        <time>2020-09-17T10:47:16Z</time>
      </trkpt>
      <trkpt lat="45.41501" lon="3.38044">
        <ele>533.4</ele>
        <time>2020-09-17T10:47:17Z</time>
      </trkpt>
      <trkpt lat="45.41502" lon="3.38045">
        <ele>533.4</ele>
        <time>2020-09-17T10:47:18Z</time>
      </trkpt>
      <trkpt lat="45.41503" lon="3.38045">
        <ele>533.4</ele>
        <time>2020-09-17T10:47:19Z</time>
      </trkpt>
      <trkpt lat="45.41504" lon="3.38046">
        <ele>533.4</ele>
        <time>2020-09-17T10:47:20Z</time>
      </trkpt>
      <trkpt lat="45.41505" lon="3.38047">
        <ele>533.6</ele>
        <time>2020-09-17T10:47:21Z</time>
      </trkpt>
      <trkpt lat="45.41505" lon="3.38048">
        <ele>533.8</ele>
        <time>2020-09-17T10:47:22Z</time>
      </trkpt>
      <trkpt lat="45.41506" lon="3.38049">
        <ele>533.9</ele>
        <time>2020-09-17T10:47:23Z</time>
      </trkpt>
      <trkpt lat="45.41507" lon="3.38049">
        <ele>533.9</ele>
        <time>2020-09-17T10:47:24Z</time>
      </trkpt>
      <trkpt lat="45.41508" lon="3.3805">
        <ele>534</ele>
        <time>2020-09-17T10:47:25Z</time>
      </trkpt>
      <trkpt lat="45.41509" lon="3.38051">
        <ele>534.2</ele>
        <time>2020-09-17T10:47:26Z</time>
      </trkpt>
      <trkpt lat="45.4151" lon="3.38052">
        <ele>534.3</ele>
        <time>2020-09-17T10:47:27Z</time>
      </trkpt>
      <trkpt lat="45.4151" lon="3.38052">
        <ele>534.4</ele>
        <time>2020-09-17T10:47:28Z</time>
      </trkpt>
      <trkpt lat="45.41511" lon="3.38053">
        <ele>534.5</ele>
        <time>2020-09-17T10:47:29Z</time>
      </trkpt>
      <trkpt lat="45.41512" lon="3.38054">
        <ele>534.7</ele>
        <time>2020-09-17T10:47:30Z</time>
      </trkpt>
      <trkpt lat="45.41512" lon="3.38054">
        <ele>534.9</ele>
        <time>2020-09-17T10:47:31Z</time>
      </trkpt>
      <trkpt lat="45.41513" lon="3.38055">
        <ele>534.8</ele>
        <time>2020-09-17T10:47:32Z</time>
      </trkpt>
      <trkpt lat="45.41514" lon="3.38055">
        <ele>534.8</ele>
        <time>2020-09-17T10:47:33Z</time>
      </trkpt>
      <trkpt lat="45.41515" lon="3.38056">
        <ele>534.9</ele>
        <time>2020-09-17T10:47:34Z</time>
      </trkpt>
      <trkpt lat="45.41516" lon="3.38057">
        <ele>534.9</ele>
        <time>2020-09-17T10:47:35Z</time>
      </trkpt>
      <trkpt lat="45.41517" lon="3.38058">
        <ele>534.9</ele>
        <time>2020-09-17T10:47:36Z</time>
      </trkpt>
      <trkpt lat="45.41518" lon="3.38059">
        <ele>535</ele>
        <time>2020-09-17T10:47:37Z</time>
      </trkpt>
      <trkpt lat="45.41519" lon="3.3806">
        <ele>535</ele>
        <time>2020-09-17T10:47:38Z</time>
      </trkpt>
      <trkpt lat="45.4152" lon="3.3806">
        <ele>535</ele>
        <time>2020-09-17T10:47:39Z</time>
      </trkpt>
      <trkpt lat="45.41521" lon="3.38061">
        <ele>535</ele>
        <time>2020-09-17T10:47:40Z</time>
      </trkpt>
      <trkpt lat="45.41522" lon="3.38062">
        <ele>534.9</ele>
        <time>2020-09-17T10:47:41Z</time>
      </trkpt>
      <trkpt lat="45.41523" lon="3.38063">
        <ele>534.8</ele>
        <time>2020-09-17T10:47:42Z</time>
      </trkpt>
      <trkpt lat="45.41524" lon="3.38063">
        <ele>534.7</ele>
        <time>2020-09-17T10:47:43Z</time>
      </trkpt>
      <trkpt lat="45.41525" lon="3.38064">
        <ele>534.7</ele>
        <time>2020-09-17T10:47:44Z</time>
      </trkpt>
      <trkpt lat="45.41526" lon="3.38065">
        <ele>534.6</ele>
        <time>2020-09-17T10:47:45Z</time>
      </trkpt>
      <trkpt lat="45.41527" lon="3.38065">
        <ele>534.5</ele>
        <time>2020-09-17T10:47:46Z</time>
      </trkpt>
      <trkpt lat="45.41527" lon="3.38066">
        <ele>534.5</ele>
        <time>2020-09-17T10:47:47Z</time>
      </trkpt>
      <trkpt lat="45.41528" lon="3.38067">
        <ele>534.5</ele>
        <time>2020-09-17T10:47:48Z</time>
      </trkpt>
      <trkpt lat="45.41529" lon="3.38068">
        <ele>534.4</ele>
        <time>2020-09-17T10:47:49Z</time>
      </trkpt>
      <trkpt lat="45.4153" lon="3.38069">
        <ele>534.3</ele>
        <time>2020-09-17T10:47:50Z</time>
      </trkpt>
      <trkpt lat="45.41531" lon="3.3807">
        <ele>534.2</ele>
        <time>2020-09-17T10:47:51Z</time>
      </trkpt>
      <trkpt lat="45.41532" lon="3.3807">
        <ele>534.1</ele>
        <time>2020-09-17T10:47:52Z</time>
      </trkpt>
      <trkpt lat="45.41533" lon="3.38071">
        <ele>534.1</ele>
        <time>2020-09-17T10:47:53Z</time>
      </trkpt>
      <trkpt lat="45.41534" lon="3.38072">
        <ele>534</ele>
        <time>2020-09-17T10:47:54Z</time>
      </trkpt>
      <trkpt lat="45.41535" lon="3.38073">
        <ele>534</ele>
        <time>2020-09-17T10:47:55Z</time>
      </trkpt>
      <trkpt lat="45.41535" lon="3.38075">
        <ele>533.9</ele>
        <time>2020-09-17T10:47:56Z</time>
      </trkpt>
      <trkpt lat="45.41536" lon="3.38076">
        <ele>533.9</ele>
        <time>2020-09-17T10:47:57Z</time>
      </trkpt>
      <trkpt lat="45.41537" lon="3.38077">
        <ele>533.9</ele>
        <time>2020-09-17T10:47:58Z</time>
      </trkpt>
      <trkpt lat="45.41538" lon="3.38078">
        <ele>533.9</ele>
        <time>2020-09-17T10:47:59Z</time>
      </trkpt>
      <trkpt lat="45.41539" lon="3.3808">
        <ele>533.9</ele>
        <time>2020-09-17T10:48:00Z</time>
      </trkpt>
      <trkpt lat="45.41539" lon="3.38081">
        <ele>533.9</ele>
        <time>2020-09-17T10:48:01Z</time>
      </trkpt>
      <trkpt lat="45.4154" lon="3.38082">
        <ele>534</ele>
        <time>2020-09-17T10:48:02Z</time>
      </trkpt>
      <trkpt lat="45.41541" lon="3.38084">
        <ele>534</ele>
        <time>2020-09-17T10:48:03Z</time>
      </trkpt>
      <trkpt lat="45.41541" lon="3.38085">
        <ele>533.9</ele>
        <time>2020-09-17T10:48:04Z</time>
      </trkpt>
      <trkpt lat="45.41542" lon="3.38086">
        <ele>533.8</ele>
        <time>2020-09-17T10:48:05Z</time>
      </trkpt>
      <trkpt lat="45.41543" lon="3.38088">
        <ele>533.7</ele>
        <time>2020-09-17T10:48:06Z</time>
      </trkpt>
      <trkpt lat="45.41544" lon="3.38089">
        <ele>533.3</ele>
        <time>2020-09-17T10:48:07Z</time>
      </trkpt>
      <trkpt lat="45.41544" lon="3.38091">
        <ele>533.2</ele>
        <time>2020-09-17T10:48:08Z</time>
      </trkpt>
      <trkpt lat="45.41545" lon="3.38092">
        <ele>533</ele>
        <time>2020-09-17T10:48:09Z</time>
      </trkpt>
      <trkpt lat="45.41546" lon="3.38093">
        <ele>532.8</ele>
        <time>2020-09-17T10:48:10Z</time>
      </trkpt>
      <trkpt lat="45.41546" lon="3.38094">
        <ele>532.6</ele>
        <time>2020-09-17T10:48:11Z</time>
      </trkpt>
      <trkpt lat="45.41547" lon="3.38096">
        <ele>532.3</ele>
        <time>2020-09-17T10:48:12Z</time>
      </trkpt>
      <trkpt lat="45.41548" lon="3.38097">
        <ele>532.3</ele>
        <time>2020-09-17T10:48:13Z</time>
      </trkpt>
      <trkpt lat="45.41548" lon="3.38098">
        <ele>532.3</ele>
        <time>2020-09-17T10:48:14Z</time>
      </trkpt>
      <trkpt lat="45.41548" lon="3.381">
        <ele>532.1</ele>
        <time>2020-09-17T10:48:15Z</time>
      </trkpt>
      <trkpt lat="45.41549" lon="3.38101">
        <ele>532</ele>
        <time>2020-09-17T10:48:16Z</time>
      </trkpt>
      <trkpt lat="45.41549" lon="3.38102">
        <ele>531.8</ele>
        <time>2020-09-17T10:48:17Z</time>
      </trkpt>
      <trkpt lat="45.4155" lon="3.38103">
        <ele>531.7</ele>
        <time>2020-09-17T10:48:18Z</time>
      </trkpt>
      <trkpt lat="45.4155" lon="3.38105">
        <ele>531.6</ele>
        <time>2020-09-17T10:48:19Z</time>
      </trkpt>
      <trkpt lat="45.41551" lon="3.38106">
        <ele>531.6</ele>
        <time>2020-09-17T10:48:20Z</time>
      </trkpt>
      <trkpt lat="45.41551" lon="3.38107">
        <ele>531.5</ele>
        <time>2020-09-17T10:48:21Z</time>
      </trkpt>
      <trkpt lat="45.41551" lon="3.38108">
        <ele>531.3</ele>
        <time>2020-09-17T10:48:22Z</time>
      </trkpt>
      <trkpt lat="45.41552" lon="3.3811">
        <ele>531.1</ele>
        <time>2020-09-17T10:48:23Z</time>
      </trkpt>
      <trkpt lat="45.41552" lon="3.38111">
        <ele>531</ele>
        <time>2020-09-17T10:48:24Z</time>
      </trkpt>
      <trkpt lat="45.41553" lon="3.38112">
        <ele>530.9</ele>
        <time>2020-09-17T10:48:25Z</time>
      </trkpt>
      <trkpt lat="45.41553" lon="3.38114">
        <ele>530.7</ele>
        <time>2020-09-17T10:48:26Z</time>
      </trkpt>
      <trkpt lat="45.41554" lon="3.38115">
        <ele>530.7</ele>
        <time>2020-09-17T10:48:27Z</time>
      </trkpt>
      <trkpt lat="45.41554" lon="3.38117">
        <ele>530.6</ele>
        <time>2020-09-17T10:48:28Z</time>
      </trkpt>
      <trkpt lat="45.41554" lon="3.38119">
        <ele>530.6</ele>
        <time>2020-09-17T10:48:29Z</time>
      </trkpt>
      <trkpt lat="45.41555" lon="3.3812">
        <ele>530.5</ele>
        <time>2020-09-17T10:48:30Z</time>
      </trkpt>
      <trkpt lat="45.41555" lon="3.38122">
        <ele>530.5</ele>
        <time>2020-09-17T10:48:31Z</time>
      </trkpt>
      <trkpt lat="45.41555" lon="3.38124">
        <ele>530.5</ele>
        <time>2020-09-17T10:48:32Z</time>
      </trkpt>
      <trkpt lat="45.41556" lon="3.38126">
        <ele>530.5</ele>
        <time>2020-09-17T10:48:33Z</time>
      </trkpt>
      <trkpt lat="45.41556" lon="3.38127">
        <ele>530.2</ele>
        <time>2020-09-17T10:48:34Z</time>
      </trkpt>
      <trkpt lat="45.41556" lon="3.38129">
        <ele>530.3</ele>
        <time>2020-09-17T10:48:35Z</time>
      </trkpt>
      <trkpt lat="45.41557" lon="3.3813">
        <ele>530.2</ele>
        <time>2020-09-17T10:48:36Z</time>
      </trkpt>
      <trkpt lat="45.41557" lon="3.38132">
        <ele>530.1</ele>
        <time>2020-09-17T10:48:37Z</time>
      </trkpt>
      <trkpt lat="45.41557" lon="3.38134">
        <ele>530</ele>
        <time>2020-09-17T10:48:38Z</time>
      </trkpt>
      <trkpt lat="45.41558" lon="3.38135">
        <ele>529.9</ele>
        <time>2020-09-17T10:48:39Z</time>
      </trkpt>
      <trkpt lat="45.41558" lon="3.38137">
        <ele>529.7</ele>
        <time>2020-09-17T10:48:40Z</time>
      </trkpt>
      <trkpt lat="45.41559" lon="3.38139">
        <ele>529.6</ele>
        <time>2020-09-17T10:48:41Z</time>
      </trkpt>
      <trkpt lat="45.41559" lon="3.3814">
        <ele>529.6</ele>
        <time>2020-09-17T10:48:42Z</time>
      </trkpt>
      <trkpt lat="45.41559" lon="3.38142">
        <ele>529.6</ele>
        <time>2020-09-17T10:48:43Z</time>
      </trkpt>
      <trkpt lat="45.41559" lon="3.38144">
        <ele>529.5</ele>
        <time>2020-09-17T10:48:44Z</time>
      </trkpt>
      <trkpt lat="45.4156" lon="3.38145">
        <ele>529.6</ele>
        <time>2020-09-17T10:48:45Z</time>
      </trkpt>
      <trkpt lat="45.4156" lon="3.38147">
        <ele>529.7</ele>
        <time>2020-09-17T10:48:46Z</time>
      </trkpt>
      <trkpt lat="45.4156" lon="3.38149">
        <ele>529.6</ele>
        <time>2020-09-17T10:48:47Z</time>
      </trkpt>
      <trkpt lat="45.4156" lon="3.38151">
        <ele>529.8</ele>
        <time>2020-09-17T10:48:48Z</time>
      </trkpt>
      <trkpt lat="45.4156" lon="3.38152">
        <ele>530</ele>
        <time>2020-09-17T10:48:49Z</time>
      </trkpt>
      <trkpt lat="45.4156" lon="3.38154">
        <ele>530</ele>
        <time>2020-09-17T10:48:50Z</time>
      </trkpt>
      <trkpt lat="45.4156" lon="3.38155">
        <ele>530.1</ele>
        <time>2020-09-17T10:48:51Z</time>
      </trkpt>
      <trkpt lat="45.41561" lon="3.38157">
        <ele>530.1</ele>
        <time>2020-09-17T10:48:52Z</time>
      </trkpt>
      <trkpt lat="45.41561" lon="3.38159">
        <ele>530.2</ele>
        <time>2020-09-17T10:48:53Z</time>
      </trkpt>
      <trkpt lat="45.41561" lon="3.3816">
        <ele>530.3</ele>
        <time>2020-09-17T10:48:54Z</time>
      </trkpt>
      <trkpt lat="45.41561" lon="3.38162">
        <ele>530.2</ele>
        <time>2020-09-17T10:48:55Z</time>
      </trkpt>
      <trkpt lat="45.41562" lon="3.38164">
        <ele>530.2</ele>
        <time>2020-09-17T10:48:56Z</time>
      </trkpt>
      <trkpt lat="45.41562" lon="3.38165">
        <ele>530.2</ele>
        <time>2020-09-17T10:48:57Z</time>
      </trkpt>
      <trkpt lat="45.41562" lon="3.38167">
        <ele>530.2</ele>
        <time>2020-09-17T10:48:58Z</time>
      </trkpt>
      <trkpt lat="45.41562" lon="3.38169">
        <ele>530.1</ele>
        <time>2020-09-17T10:48:59Z</time>
      </trkpt>
      <trkpt lat="45.41563" lon="3.3817">
        <ele>530</ele>
        <time>2020-09-17T10:49:00Z</time>
      </trkpt>
      <trkpt lat="45.41563" lon="3.38172">
        <ele>530.1</ele>
        <time>2020-09-17T10:49:01Z</time>
      </trkpt>
      <trkpt lat="45.41563" lon="3.38174">
        <ele>530.3</ele>
        <time>2020-09-17T10:49:02Z</time>
      </trkpt>
      <trkpt lat="45.41563" lon="3.38175">
        <ele>530.6</ele>
        <time>2020-09-17T10:49:03Z</time>
      </trkpt>
      <trkpt lat="45.41563" lon="3.38177">
        <ele>530.9</ele>
        <time>2020-09-17T10:49:04Z</time>
      </trkpt>
      <trkpt lat="45.41563" lon="3.38178">
        <ele>530.9</ele>
        <time>2020-09-17T10:49:05Z</time>
      </trkpt>
      <trkpt lat="45.41563" lon="3.3818">
        <ele>531</ele>
        <time>2020-09-17T10:49:06Z</time>
      </trkpt>
      <trkpt lat="45.41564" lon="3.38181">
        <ele>531</ele>
        <time>2020-09-17T10:49:07Z</time>
      </trkpt>
      <trkpt lat="45.41564" lon="3.38182">
        <ele>531.2</ele>
        <time>2020-09-17T10:49:08Z</time>
      </trkpt>
      <trkpt lat="45.41564" lon="3.38184">
        <ele>531.3</ele>
        <time>2020-09-17T10:49:09Z</time>
      </trkpt>
      <trkpt lat="45.41564" lon="3.38185">
        <ele>531.2</ele>
        <time>2020-09-17T10:49:10Z</time>
      </trkpt>
      <trkpt lat="45.41564" lon="3.38186">
        <ele>531.3</ele>
        <time>2020-09-17T10:49:11Z</time>
      </trkpt>
      <trkpt lat="45.41564" lon="3.38188">
        <ele>531.3</ele>
        <time>2020-09-17T10:49:12Z</time>
      </trkpt>
      <trkpt lat="45.41565" lon="3.38189">
        <ele>531.3</ele>
        <time>2020-09-17T10:49:13Z</time>
      </trkpt>
      <trkpt lat="45.41565" lon="3.3819">
        <ele>531.4</ele>
        <time>2020-09-17T10:49:14Z</time>
      </trkpt>
      <trkpt lat="45.41565" lon="3.38192">
        <ele>531.5</ele>
        <time>2020-09-17T10:49:15Z</time>
      </trkpt>
      <trkpt lat="45.41565" lon="3.38193">
        <ele>531.7</ele>
        <time>2020-09-17T10:49:16Z</time>
      </trkpt>
      <trkpt lat="45.41565" lon="3.38195">
        <ele>531.8</ele>
        <time>2020-09-17T10:49:17Z</time>
      </trkpt>
      <trkpt lat="45.41566" lon="3.38196">
        <ele>531.7</ele>
        <time>2020-09-17T10:49:18Z</time>
      </trkpt>
      <trkpt lat="45.41566" lon="3.38197">
        <ele>531.7</ele>
        <time>2020-09-17T10:49:19Z</time>
      </trkpt>
      <trkpt lat="45.41566" lon="3.38199">
        <ele>531.8</ele>
        <time>2020-09-17T10:49:20Z</time>
      </trkpt>
      <trkpt lat="45.41566" lon="3.382">
        <ele>531.9</ele>
        <time>2020-09-17T10:49:21Z</time>
      </trkpt>
      <trkpt lat="45.41566" lon="3.38202">
        <ele>532</ele>
        <time>2020-09-17T10:49:22Z</time>
      </trkpt>
      <trkpt lat="45.41567" lon="3.38204">
        <ele>531.9</ele>
        <time>2020-09-17T10:49:23Z</time>
      </trkpt>
      <trkpt lat="45.41567" lon="3.38205">
        <ele>531.9</ele>
        <time>2020-09-17T10:49:24Z</time>
      </trkpt>
      <trkpt lat="45.41567" lon="3.38207">
        <ele>532</ele>
        <time>2020-09-17T10:49:25Z</time>
      </trkpt>
      <trkpt lat="45.41567" lon="3.38209">
        <ele>532</ele>
        <time>2020-09-17T10:49:26Z</time>
      </trkpt>
      <trkpt lat="45.41568" lon="3.3821">
        <ele>532</ele>
        <time>2020-09-17T10:49:27Z</time>
      </trkpt>
      <trkpt lat="45.41568" lon="3.38212">
        <ele>531.9</ele>
        <time>2020-09-17T10:49:28Z</time>
      </trkpt>
      <trkpt lat="45.41569" lon="3.38213">
        <ele>531.9</ele>
        <time>2020-09-17T10:49:29Z</time>
      </trkpt>
      <trkpt lat="45.41569" lon="3.38215">
        <ele>532</ele>
        <time>2020-09-17T10:49:30Z</time>
      </trkpt>
      <trkpt lat="45.41569" lon="3.38216">
        <ele>532.1</ele>
        <time>2020-09-17T10:49:31Z</time>
      </trkpt>
      <trkpt lat="45.41569" lon="3.38218">
        <ele>532.2</ele>
        <time>2020-09-17T10:49:32Z</time>
      </trkpt>
      <trkpt lat="45.41569" lon="3.3822">
        <ele>532.2</ele>
        <time>2020-09-17T10:49:33Z</time>
      </trkpt>
      <trkpt lat="45.4157" lon="3.38221">
        <ele>532.3</ele>
        <time>2020-09-17T10:49:34Z</time>
      </trkpt>
      <trkpt lat="45.4157" lon="3.38223">
        <ele>532.4</ele>
        <time>2020-09-17T10:49:35Z</time>
      </trkpt>
      <trkpt lat="45.4157" lon="3.38225">
        <ele>532.5</ele>
        <time>2020-09-17T10:49:36Z</time>
      </trkpt>
      <trkpt lat="45.41571" lon="3.38226">
        <ele>532.6</ele>
        <time>2020-09-17T10:49:37Z</time>
      </trkpt>
      <trkpt lat="45.41571" lon="3.38228">
        <ele>532.7</ele>
        <time>2020-09-17T10:49:38Z</time>
      </trkpt>
      <trkpt lat="45.41572" lon="3.38229">
        <ele>532.7</ele>
        <time>2020-09-17T10:49:39Z</time>
      </trkpt>
      <trkpt lat="45.41572" lon="3.38229">
        <ele>532.6</ele>
        <time>2020-09-17T10:49:40Z</time>
      </trkpt>
      <trkpt lat="45.41573" lon="3.38231">
        <ele>532.7</ele>
        <time>2020-09-17T10:49:41Z</time>
      </trkpt>
      <trkpt lat="45.41573" lon="3.38232">
        <ele>532.8</ele>
        <time>2020-09-17T10:49:42Z</time>
      </trkpt>
      <trkpt lat="45.41574" lon="3.38234">
        <ele>532.9</ele>
        <time>2020-09-17T10:49:43Z</time>
      </trkpt>
      <trkpt lat="45.41574" lon="3.38235">
        <ele>532.9</ele>
        <time>2020-09-17T10:49:44Z</time>
      </trkpt>
      <trkpt lat="45.41575" lon="3.38237">
        <ele>533</ele>
        <time>2020-09-17T10:49:45Z</time>
      </trkpt>
      <trkpt lat="45.41576" lon="3.38238">
        <ele>532.8</ele>
        <time>2020-09-17T10:49:46Z</time>
      </trkpt>
      <trkpt lat="45.41577" lon="3.38239">
        <ele>532.7</ele>
        <time>2020-09-17T10:49:47Z</time>
      </trkpt>
      <trkpt lat="45.41577" lon="3.3824">
        <ele>532.5</ele>
        <time>2020-09-17T10:49:48Z</time>
      </trkpt>
      <trkpt lat="45.41579" lon="3.38242">
        <ele>532.3</ele>
        <time>2020-09-17T10:49:49Z</time>
      </trkpt>
      <trkpt lat="45.4158" lon="3.38243">
        <ele>532.1</ele>
        <time>2020-09-17T10:49:50Z</time>
      </trkpt>
      <trkpt lat="45.41581" lon="3.38244">
        <ele>531.9</ele>
        <time>2020-09-17T10:49:51Z</time>
      </trkpt>
      <trkpt lat="45.41581" lon="3.38246">
        <ele>531.9</ele>
        <time>2020-09-17T10:49:52Z</time>
      </trkpt>
      <trkpt lat="45.41582" lon="3.38247">
        <ele>531.8</ele>
        <time>2020-09-17T10:49:53Z</time>
      </trkpt>
      <trkpt lat="45.41583" lon="3.38248">
        <ele>531.7</ele>
        <time>2020-09-17T10:49:54Z</time>
      </trkpt>
      <trkpt lat="45.41584" lon="3.38249">
        <ele>531.6</ele>
        <time>2020-09-17T10:49:55Z</time>
      </trkpt>
      <trkpt lat="45.41585" lon="3.3825">
        <ele>531.6</ele>
        <time>2020-09-17T10:49:56Z</time>
      </trkpt>
      <trkpt lat="45.41585" lon="3.38251">
        <ele>531.6</ele>
        <time>2020-09-17T10:49:57Z</time>
      </trkpt>
      <trkpt lat="45.41586" lon="3.38252">
        <ele>531.7</ele>
        <time>2020-09-17T10:49:58Z</time>
      </trkpt>
      <trkpt lat="45.41587" lon="3.38253">
        <ele>531.7</ele>
        <time>2020-09-17T10:49:59Z</time>
      </trkpt>
      <trkpt lat="45.41588" lon="3.38255">
        <ele>531.7</ele>
        <time>2020-09-17T10:50:00Z</time>
      </trkpt>
      <trkpt lat="45.41589" lon="3.38256">
        <ele>531.8</ele>
        <time>2020-09-17T10:50:01Z</time>
      </trkpt>
      <trkpt lat="45.4159" lon="3.38257">
        <ele>531.8</ele>
        <time>2020-09-17T10:50:02Z</time>
      </trkpt>
      <trkpt lat="45.4159" lon="3.38258">
        <ele>531.8</ele>
        <time>2020-09-17T10:50:03Z</time>
      </trkpt>
      <trkpt lat="45.41591" lon="3.38259">
        <ele>531.9</ele>
        <time>2020-09-17T10:50:04Z</time>
      </trkpt>
      <trkpt lat="45.41592" lon="3.3826">
        <ele>532</ele>
        <time>2020-09-17T10:50:05Z</time>
      </trkpt>
      <trkpt lat="45.41593" lon="3.38261">
        <ele>532</ele>
        <time>2020-09-17T10:50:06Z</time>
      </trkpt>
      <trkpt lat="45.41593" lon="3.38262">
        <ele>532</ele>
        <time>2020-09-17T10:50:07Z</time>
      </trkpt>
      <trkpt lat="45.41594" lon="3.38263">
        <ele>532.1</ele>
        <time>2020-09-17T10:50:08Z</time>
      </trkpt>
      <trkpt lat="45.41595" lon="3.38264">
        <ele>532.2</ele>
        <time>2020-09-17T10:50:09Z</time>
      </trkpt>
      <trkpt lat="45.41596" lon="3.38265">
        <ele>532.1</ele>
        <time>2020-09-17T10:50:10Z</time>
      </trkpt>
      <trkpt lat="45.41597" lon="3.38266">
        <ele>532.2</ele>
        <time>2020-09-17T10:50:11Z</time>
      </trkpt>
      <trkpt lat="45.41598" lon="3.38268">
        <ele>532.3</ele>
        <time>2020-09-17T10:50:12Z</time>
      </trkpt>
      <trkpt lat="45.41598" lon="3.38268">
        <ele>532.1</ele>
        <time>2020-09-17T10:50:13Z</time>
      </trkpt>
      <trkpt lat="45.41599" lon="3.38268">
        <ele>532</ele>
        <time>2020-09-17T10:50:14Z</time>
      </trkpt>
      <trkpt lat="45.416" lon="3.38269">
        <ele>531.8</ele>
        <time>2020-09-17T10:50:15Z</time>
      </trkpt>
      <trkpt lat="45.41601" lon="3.3827">
        <ele>531.7</ele>
        <time>2020-09-17T10:50:16Z</time>
      </trkpt>
      <trkpt lat="45.41602" lon="3.38271">
        <ele>531.6</ele>
        <time>2020-09-17T10:50:17Z</time>
      </trkpt>
      <trkpt lat="45.41603" lon="3.38271">
        <ele>531.6</ele>
        <time>2020-09-17T10:50:18Z</time>
      </trkpt>
      <trkpt lat="45.41604" lon="3.38272">
        <ele>531.4</ele>
        <time>2020-09-17T10:50:19Z</time>
      </trkpt>
      <trkpt lat="45.41605" lon="3.38272">
        <ele>531.2</ele>
        <time>2020-09-17T10:50:20Z</time>
      </trkpt>
      <trkpt lat="45.41606" lon="3.38273">
        <ele>531</ele>
        <time>2020-09-17T10:50:21Z</time>
      </trkpt>
      <trkpt lat="45.41607" lon="3.38273">
        <ele>530.9</ele>
        <time>2020-09-17T10:50:22Z</time>
      </trkpt>
      <trkpt lat="45.41608" lon="3.38274">
        <ele>530.7</ele>
        <time>2020-09-17T10:50:23Z</time>
      </trkpt>
      <trkpt lat="45.41609" lon="3.38274">
        <ele>530.6</ele>
        <time>2020-09-17T10:50:24Z</time>
      </trkpt>
      <trkpt lat="45.4161" lon="3.38275">
        <ele>530.5</ele>
        <time>2020-09-17T10:50:25Z</time>
      </trkpt>
      <trkpt lat="45.41611" lon="3.38275">
        <ele>530.3</ele>
        <time>2020-09-17T10:50:26Z</time>
      </trkpt>
      <trkpt lat="45.41612" lon="3.38275">
        <ele>530</ele>
        <time>2020-09-17T10:50:27Z</time>
      </trkpt>
      <trkpt lat="45.41613" lon="3.38276">
        <ele>529.8</ele>
        <time>2020-09-17T10:50:28Z</time>
      </trkpt>
      <trkpt lat="45.41614" lon="3.38276">
        <ele>529.6</ele>
        <time>2020-09-17T10:50:29Z</time>
      </trkpt>
      <trkpt lat="45.41615" lon="3.38277">
        <ele>529.3</ele>
        <time>2020-09-17T10:50:30Z</time>
      </trkpt>
      <trkpt lat="45.41616" lon="3.38277">
        <ele>529.1</ele>
        <time>2020-09-17T10:50:31Z</time>
      </trkpt>
      <trkpt lat="45.41617" lon="3.38277">
        <ele>528.8</ele>
        <time>2020-09-17T10:50:32Z</time>
      </trkpt>
      <trkpt lat="45.41617" lon="3.38278">
        <ele>528.7</ele>
        <time>2020-09-17T10:50:33Z</time>
      </trkpt>
      <trkpt lat="45.41618" lon="3.38278">
        <ele>528.6</ele>
        <time>2020-09-17T10:50:34Z</time>
      </trkpt>
      <trkpt lat="45.41619" lon="3.38279">
        <ele>528.5</ele>
        <time>2020-09-17T10:50:35Z</time>
      </trkpt>
      <trkpt lat="45.4162" lon="3.38279">
        <ele>528.3</ele>
        <time>2020-09-17T10:50:36Z</time>
      </trkpt>
      <trkpt lat="45.41621" lon="3.3828">
        <ele>528.2</ele>
        <time>2020-09-17T10:50:37Z</time>
      </trkpt>
      <trkpt lat="45.41622" lon="3.3828">
        <ele>528</ele>
        <time>2020-09-17T10:50:38Z</time>
      </trkpt>
      <trkpt lat="45.41623" lon="3.38281">
        <ele>527.7</ele>
        <time>2020-09-17T10:50:39Z</time>
      </trkpt>
      <trkpt lat="45.41624" lon="3.38281">
        <ele>527.6</ele>
        <time>2020-09-17T10:50:40Z</time>
      </trkpt>
      <trkpt lat="45.41625" lon="3.38282">
        <ele>527.4</ele>
        <time>2020-09-17T10:50:41Z</time>
      </trkpt>
      <trkpt lat="45.41626" lon="3.38283">
        <ele>527.2</ele>
        <time>2020-09-17T10:50:42Z</time>
      </trkpt>
      <trkpt lat="45.41626" lon="3.38283">
        <ele>527.1</ele>
        <time>2020-09-17T10:50:43Z</time>
      </trkpt>
      <trkpt lat="45.41627" lon="3.38284">
        <ele>527.1</ele>
        <time>2020-09-17T10:50:44Z</time>
      </trkpt>
      <trkpt lat="45.41628" lon="3.38285">
        <ele>527</ele>
        <time>2020-09-17T10:50:45Z</time>
      </trkpt>
      <trkpt lat="45.41629" lon="3.38285">
        <ele>526.8</ele>
        <time>2020-09-17T10:50:46Z</time>
      </trkpt>
      <trkpt lat="45.41629" lon="3.38286">
        <ele>526.7</ele>
        <time>2020-09-17T10:50:47Z</time>
      </trkpt>
      <trkpt lat="45.4163" lon="3.38286">
        <ele>526.5</ele>
        <time>2020-09-17T10:50:48Z</time>
      </trkpt>
      <trkpt lat="45.41631" lon="3.38287">
        <ele>526.3</ele>
        <time>2020-09-17T10:50:49Z</time>
      </trkpt>
      <trkpt lat="45.41632" lon="3.38288">
        <ele>526.1</ele>
        <time>2020-09-17T10:50:50Z</time>
      </trkpt>
      <trkpt lat="45.41633" lon="3.38289">
        <ele>526</ele>
        <time>2020-09-17T10:50:51Z</time>
      </trkpt>
      <trkpt lat="45.41634" lon="3.3829">
        <ele>525.8</ele>
        <time>2020-09-17T10:50:52Z</time>
      </trkpt>
      <trkpt lat="45.41635" lon="3.38291">
        <ele>525.8</ele>
        <time>2020-09-17T10:50:53Z</time>
      </trkpt>
      <trkpt lat="45.41636" lon="3.38292">
        <ele>525.7</ele>
        <time>2020-09-17T10:50:54Z</time>
      </trkpt>
      <trkpt lat="45.41637" lon="3.38293">
        <ele>525.6</ele>
        <time>2020-09-17T10:50:55Z</time>
      </trkpt>
      <trkpt lat="45.41638" lon="3.38294">
        <ele>525.7</ele>
        <time>2020-09-17T10:50:56Z</time>
      </trkpt>
      <trkpt lat="45.41639" lon="3.38295">
        <ele>525.5</ele>
        <time>2020-09-17T10:50:57Z</time>
      </trkpt>
      <trkpt lat="45.41639" lon="3.38296">
        <ele>525.6</ele>
        <time>2020-09-17T10:50:58Z</time>
      </trkpt>
      <trkpt lat="45.4164" lon="3.38297">
        <ele>525.3</ele>
        <time>2020-09-17T10:50:59Z</time>
      </trkpt>
      <trkpt lat="45.4164" lon="3.38299">
        <ele>525.1</ele>
        <time>2020-09-17T10:51:00Z</time>
      </trkpt>
      <trkpt lat="45.41641" lon="3.383">
        <ele>524.8</ele>
        <time>2020-09-17T10:51:01Z</time>
      </trkpt>
      <trkpt lat="45.41642" lon="3.38301">
        <ele>524.7</ele>
        <time>2020-09-17T10:51:02Z</time>
      </trkpt>
      <trkpt lat="45.41642" lon="3.38302">
        <ele>524.5</ele>
        <time>2020-09-17T10:51:03Z</time>
      </trkpt>
      <trkpt lat="45.41643" lon="3.38303">
        <ele>524.4</ele>
        <time>2020-09-17T10:51:04Z</time>
      </trkpt>
      <trkpt lat="45.41644" lon="3.38304">
        <ele>524.1</ele>
        <time>2020-09-17T10:51:05Z</time>
      </trkpt>
      <trkpt lat="45.41644" lon="3.38306">
        <ele>524</ele>
        <time>2020-09-17T10:51:06Z</time>
      </trkpt>
      <trkpt lat="45.41645" lon="3.38307">
        <ele>523.8</ele>
        <time>2020-09-17T10:51:07Z</time>
      </trkpt>
      <trkpt lat="45.41646" lon="3.38308">
        <ele>523.6</ele>
        <time>2020-09-17T10:51:08Z</time>
      </trkpt>
      <trkpt lat="45.41646" lon="3.38309">
        <ele>523.3</ele>
        <time>2020-09-17T10:51:09Z</time>
      </trkpt>
      <trkpt lat="45.41647" lon="3.3831">
        <ele>523.1</ele>
        <time>2020-09-17T10:51:10Z</time>
      </trkpt>
      <trkpt lat="45.41647" lon="3.38312">
        <ele>522.9</ele>
        <time>2020-09-17T10:51:11Z</time>
      </trkpt>
      <trkpt lat="45.41648" lon="3.38313">
        <ele>523</ele>
        <time>2020-09-17T10:51:12Z</time>
      </trkpt>
      <trkpt lat="45.41648" lon="3.38314">
        <ele>522.9</ele>
        <time>2020-09-17T10:51:13Z</time>
      </trkpt>
      <trkpt lat="45.41649" lon="3.38315">
        <ele>522.6</ele>
        <time>2020-09-17T10:51:14Z</time>
      </trkpt>
      <trkpt lat="45.4165" lon="3.38315">
        <ele>522.2</ele>
        <time>2020-09-17T10:51:15Z</time>
      </trkpt>
      <trkpt lat="45.4165" lon="3.38316">
        <ele>521.9</ele>
        <time>2020-09-17T10:51:16Z</time>
      </trkpt>
      <trkpt lat="45.41651" lon="3.38318">
        <ele>521.9</ele>
        <time>2020-09-17T10:51:17Z</time>
      </trkpt>
      <trkpt lat="45.41652" lon="3.38319">
        <ele>521.6</ele>
        <time>2020-09-17T10:51:18Z</time>
      </trkpt>
      <trkpt lat="45.41652" lon="3.3832">
        <ele>521.4</ele>
        <time>2020-09-17T10:51:19Z</time>
      </trkpt>
      <trkpt lat="45.41653" lon="3.38321">
        <ele>521.4</ele>
        <time>2020-09-17T10:51:20Z</time>
      </trkpt>
      <trkpt lat="45.41653" lon="3.38322">
        <ele>521.3</ele>
        <time>2020-09-17T10:51:21Z</time>
      </trkpt>
      <trkpt lat="45.41654" lon="3.38323">
        <ele>521.2</ele>
        <time>2020-09-17T10:51:22Z</time>
      </trkpt>
      <trkpt lat="45.41655" lon="3.38324">
        <ele>521</ele>
        <time>2020-09-17T10:51:23Z</time>
      </trkpt>
      <trkpt lat="45.41656" lon="3.38326">
        <ele>520.7</ele>
        <time>2020-09-17T10:51:24Z</time>
      </trkpt>
      <trkpt lat="45.41656" lon="3.38327">
        <ele>520.6</ele>
        <time>2020-09-17T10:51:25Z</time>
      </trkpt>
      <trkpt lat="45.41657" lon="3.38328">
        <ele>520.4</ele>
        <time>2020-09-17T10:51:26Z</time>
      </trkpt>
      <trkpt lat="45.41658" lon="3.38329">
        <ele>520.2</ele>
        <time>2020-09-17T10:51:27Z</time>
      </trkpt>
      <trkpt lat="45.41659" lon="3.3833">
        <ele>519.9</ele>
        <time>2020-09-17T10:51:28Z</time>
      </trkpt>
      <trkpt lat="45.4166" lon="3.38331">
        <ele>519.6</ele>
        <time>2020-09-17T10:51:29Z</time>
      </trkpt>
      <trkpt lat="45.4166" lon="3.38332">
        <ele>519.4</ele>
        <time>2020-09-17T10:51:30Z</time>
      </trkpt>
      <trkpt lat="45.41661" lon="3.38333">
        <ele>519.1</ele>
        <time>2020-09-17T10:51:31Z</time>
      </trkpt>
      <trkpt lat="45.41662" lon="3.38333">
        <ele>518.8</ele>
        <time>2020-09-17T10:51:32Z</time>
      </trkpt>
      <trkpt lat="45.41663" lon="3.38334">
        <ele>518.4</ele>
        <time>2020-09-17T10:51:33Z</time>
      </trkpt>
      <trkpt lat="45.41664" lon="3.38335">
        <ele>517.9</ele>
        <time>2020-09-17T10:51:34Z</time>
      </trkpt>
      <trkpt lat="45.41665" lon="3.38336">
        <ele>517.6</ele>
        <time>2020-09-17T10:51:35Z</time>
      </trkpt>
      <trkpt lat="45.41666" lon="3.38336">
        <ele>517.3</ele>
        <time>2020-09-17T10:51:36Z</time>
      </trkpt>
      <trkpt lat="45.41667" lon="3.38338">
        <ele>517.2</ele>
        <time>2020-09-17T10:51:37Z</time>
      </trkpt>
      <trkpt lat="45.41668" lon="3.38339">
        <ele>516.9</ele>
        <time>2020-09-17T10:51:38Z</time>
      </trkpt>
      <trkpt lat="45.41669" lon="3.3834">
        <ele>516.7</ele>
        <time>2020-09-17T10:51:39Z</time>
      </trkpt>
      <trkpt lat="45.4167" lon="3.38341">
        <ele>516.7</ele>
        <time>2020-09-17T10:51:40Z</time>
      </trkpt>
      <trkpt lat="45.4167" lon="3.38341">
        <ele>516.5</ele>
        <time>2020-09-17T10:51:41Z</time>
      </trkpt>
      <trkpt lat="45.41671" lon="3.38342">
        <ele>516.1</ele>
        <time>2020-09-17T10:51:42Z</time>
      </trkpt>
      <trkpt lat="45.41672" lon="3.38342">
        <ele>515.6</ele>
        <time>2020-09-17T10:51:43Z</time>
      </trkpt>
      <trkpt lat="45.41673" lon="3.38343">
        <ele>515.2</ele>
        <time>2020-09-17T10:51:44Z</time>
      </trkpt>
      <trkpt lat="45.41674" lon="3.38344">
        <ele>515.1</ele>
        <time>2020-09-17T10:51:45Z</time>
      </trkpt>
      <trkpt lat="45.41675" lon="3.38345">
        <ele>514.9</ele>
        <time>2020-09-17T10:51:46Z</time>
      </trkpt>
      <trkpt lat="45.41676" lon="3.38346">
        <ele>514.8</ele>
        <time>2020-09-17T10:51:47Z</time>
      </trkpt>
      <trkpt lat="45.41676" lon="3.38347">
        <ele>514.6</ele>
        <time>2020-09-17T10:51:48Z</time>
      </trkpt>
      <trkpt lat="45.41677" lon="3.38347">
        <ele>514.6</ele>
        <time>2020-09-17T10:51:49Z</time>
      </trkpt>
      <trkpt lat="45.41678" lon="3.38348">
        <ele>514.4</ele>
        <time>2020-09-17T10:51:50Z</time>
      </trkpt>
      <trkpt lat="45.41679" lon="3.38349">
        <ele>514.1</ele>
        <time>2020-09-17T10:51:51Z</time>
      </trkpt>
      <trkpt lat="45.41679" lon="3.38349">
        <ele>513.8</ele>
        <time>2020-09-17T10:51:52Z</time>
      </trkpt>
      <trkpt lat="45.4168" lon="3.3835">
        <ele>513.5</ele>
        <time>2020-09-17T10:51:53Z</time>
      </trkpt>
      <trkpt lat="45.41681" lon="3.38351">
        <ele>513.2</ele>
        <time>2020-09-17T10:51:54Z</time>
      </trkpt>
      <trkpt lat="45.41682" lon="3.38352">
        <ele>513.1</ele>
        <time>2020-09-17T10:51:55Z</time>
      </trkpt>
      <trkpt lat="45.41683" lon="3.38352">
        <ele>513</ele>
        <time>2020-09-17T10:51:56Z</time>
      </trkpt>
      <trkpt lat="45.41684" lon="3.38353">
        <ele>512.9</ele>
        <time>2020-09-17T10:51:57Z</time>
      </trkpt>
      <trkpt lat="45.41685" lon="3.38355">
        <ele>512.9</ele>
        <time>2020-09-17T10:51:58Z</time>
      </trkpt>
      <trkpt lat="45.41685" lon="3.38356">
        <ele>513.1</ele>
        <time>2020-09-17T10:51:59Z</time>
      </trkpt>
      <trkpt lat="45.41686" lon="3.38357">
        <ele>513.2</ele>
        <time>2020-09-17T10:52:00Z</time>
      </trkpt>
      <trkpt lat="45.41687" lon="3.38358">
        <ele>513.2</ele>
        <time>2020-09-17T10:52:01Z</time>
      </trkpt>
      <trkpt lat="45.41687" lon="3.38359">
        <ele>513.3</ele>
        <time>2020-09-17T10:52:02Z</time>
      </trkpt>
      <trkpt lat="45.41688" lon="3.3836">
        <ele>513.5</ele>
        <time>2020-09-17T10:52:03Z</time>
      </trkpt>
      <trkpt lat="45.41688" lon="3.38362">
        <ele>513.6</ele>
        <time>2020-09-17T10:52:04Z</time>
      </trkpt>
      <trkpt lat="45.41689" lon="3.38363">
        <ele>513.5</ele>
        <time>2020-09-17T10:52:05Z</time>
      </trkpt>
      <trkpt lat="45.4169" lon="3.38364">
        <ele>513.4</ele>
        <time>2020-09-17T10:52:06Z</time>
      </trkpt>
      <trkpt lat="45.4169" lon="3.38365">
        <ele>513.3</ele>
        <time>2020-09-17T10:52:07Z</time>
      </trkpt>
      <trkpt lat="45.41691" lon="3.38366">
        <ele>513.2</ele>
        <time>2020-09-17T10:52:08Z</time>
      </trkpt>
      <trkpt lat="45.41692" lon="3.38367">
        <ele>512.9</ele>
        <time>2020-09-17T10:52:09Z</time>
      </trkpt>
      <trkpt lat="45.41693" lon="3.38368">
        <ele>512.8</ele>
        <time>2020-09-17T10:52:10Z</time>
      </trkpt>
      <trkpt lat="45.41694" lon="3.38369">
        <ele>512.5</ele>
        <time>2020-09-17T10:52:11Z</time>
      </trkpt>
      <trkpt lat="45.41694" lon="3.3837">
        <ele>512.3</ele>
        <time>2020-09-17T10:52:12Z</time>
      </trkpt>
      <trkpt lat="45.41695" lon="3.38371">
        <ele>512</ele>
        <time>2020-09-17T10:52:13Z</time>
      </trkpt>
      <trkpt lat="45.41696" lon="3.38372">
        <ele>511.8</ele>
        <time>2020-09-17T10:52:14Z</time>
      </trkpt>
      <trkpt lat="45.41697" lon="3.38372">
        <ele>511.6</ele>
        <time>2020-09-17T10:52:15Z</time>
      </trkpt>
      <trkpt lat="45.41697" lon="3.38373">
        <ele>511.3</ele>
        <time>2020-09-17T10:52:16Z</time>
      </trkpt>
      <trkpt lat="45.41698" lon="3.38374">
        <ele>511.1</ele>
        <time>2020-09-17T10:52:17Z</time>
      </trkpt>
      <trkpt lat="45.41698" lon="3.38375">
        <ele>511</ele>
        <time>2020-09-17T10:52:18Z</time>
      </trkpt>
      <trkpt lat="45.41699" lon="3.38375">
        <ele>510.8</ele>
        <time>2020-09-17T10:52:19Z</time>
      </trkpt>
      <trkpt lat="45.417" lon="3.38376">
        <ele>510.6</ele>
        <time>2020-09-17T10:52:20Z</time>
      </trkpt>
      <trkpt lat="45.417" lon="3.38377">
        <ele>510.4</ele>
        <time>2020-09-17T10:52:21Z</time>
      </trkpt>
      <trkpt lat="45.41701" lon="3.38378">
        <ele>510.1</ele>
        <time>2020-09-17T10:52:22Z</time>
      </trkpt>
      <trkpt lat="45.41701" lon="3.38379">
        <ele>510.1</ele>
        <time>2020-09-17T10:52:23Z</time>
      </trkpt>
      <trkpt lat="45.41702" lon="3.3838">
        <ele>510</ele>
        <time>2020-09-17T10:52:24Z</time>
      </trkpt>
      <trkpt lat="45.41702" lon="3.38381">
        <ele>509.8</ele>
        <time>2020-09-17T10:52:25Z</time>
      </trkpt>
      <trkpt lat="45.41703" lon="3.38382">
        <ele>509.9</ele>
        <time>2020-09-17T10:52:26Z</time>
      </trkpt>
      <trkpt lat="45.41703" lon="3.38383">
        <ele>509.8</ele>
        <time>2020-09-17T10:52:27Z</time>
      </trkpt>
      <trkpt lat="45.41704" lon="3.38385">
        <ele>509.9</ele>
        <time>2020-09-17T10:52:28Z</time>
      </trkpt>
      <trkpt lat="45.41704" lon="3.38386">
        <ele>509.9</ele>
        <time>2020-09-17T10:52:29Z</time>
      </trkpt>
      <trkpt lat="45.41704" lon="3.38387">
        <ele>510.1</ele>
        <time>2020-09-17T10:52:30Z</time>
      </trkpt>
      <trkpt lat="45.41704" lon="3.38389">
        <ele>510.4</ele>
        <time>2020-09-17T10:52:31Z</time>
      </trkpt>
      <trkpt lat="45.41704" lon="3.3839">
        <ele>510.6</ele>
        <time>2020-09-17T10:52:32Z</time>
      </trkpt>
      <trkpt lat="45.41704" lon="3.38391">
        <ele>510.4</ele>
        <time>2020-09-17T10:52:33Z</time>
      </trkpt>
      <trkpt lat="45.41704" lon="3.38393">
        <ele>510.4</ele>
        <time>2020-09-17T10:52:34Z</time>
      </trkpt>
      <trkpt lat="45.41704" lon="3.38395">
        <ele>510.2</ele>
        <time>2020-09-17T10:52:35Z</time>
      </trkpt>
      <trkpt lat="45.41705" lon="3.38396">
        <ele>510</ele>
        <time>2020-09-17T10:52:36Z</time>
      </trkpt>
      <trkpt lat="45.41705" lon="3.38398">
        <ele>509.9</ele>
        <time>2020-09-17T10:52:37Z</time>
      </trkpt>
      <trkpt lat="45.41705" lon="3.38399">
        <ele>509.8</ele>
        <time>2020-09-17T10:52:38Z</time>
      </trkpt>
      <trkpt lat="45.41705" lon="3.384">
        <ele>509.5</ele>
        <time>2020-09-17T10:52:39Z</time>
      </trkpt>
      <trkpt lat="45.41705" lon="3.38402">
        <ele>509.4</ele>
        <time>2020-09-17T10:52:40Z</time>
      </trkpt>
      <trkpt lat="45.41706" lon="3.38403">
        <ele>509.2</ele>
        <time>2020-09-17T10:52:41Z</time>
      </trkpt>
      <trkpt lat="45.41706" lon="3.38405">
        <ele>509.1</ele>
        <time>2020-09-17T10:52:42Z</time>
      </trkpt>
      <trkpt lat="45.41706" lon="3.38406">
        <ele>509</ele>
        <time>2020-09-17T10:52:43Z</time>
      </trkpt>
      <trkpt lat="45.41706" lon="3.38407">
        <ele>508.8</ele>
        <time>2020-09-17T10:52:44Z</time>
      </trkpt>
      <trkpt lat="45.41706" lon="3.38408">
        <ele>508.7</ele>
        <time>2020-09-17T10:52:45Z</time>
      </trkpt>
      <trkpt lat="45.41706" lon="3.3841">
        <ele>508.5</ele>
        <time>2020-09-17T10:52:46Z</time>
      </trkpt>
      <trkpt lat="45.41706" lon="3.38411">
        <ele>508.5</ele>
        <time>2020-09-17T10:52:47Z</time>
      </trkpt>
      <trkpt lat="45.41707" lon="3.38413">
        <ele>508.3</ele>
        <time>2020-09-17T10:52:48Z</time>
      </trkpt>
      <trkpt lat="45.41707" lon="3.38414">
        <ele>508.1</ele>
        <time>2020-09-17T10:52:49Z</time>
      </trkpt>
      <trkpt lat="45.41707" lon="3.38415">
        <ele>508.1</ele>
        <time>2020-09-17T10:52:50Z</time>
      </trkpt>
      <trkpt lat="45.41707" lon="3.38417">
        <ele>508</ele>
        <time>2020-09-17T10:52:51Z</time>
      </trkpt>
      <trkpt lat="45.41707" lon="3.38418">
        <ele>507.7</ele>
        <time>2020-09-17T10:52:52Z</time>
      </trkpt>
      <trkpt lat="45.41707" lon="3.38419">
        <ele>507.5</ele>
        <time>2020-09-17T10:52:53Z</time>
      </trkpt>
      <trkpt lat="45.41707" lon="3.3842">
        <ele>507.6</ele>
        <time>2020-09-17T10:52:54Z</time>
      </trkpt>
      <trkpt lat="45.41707" lon="3.38421">
        <ele>507.5</ele>
        <time>2020-09-17T10:52:55Z</time>
      </trkpt>
      <trkpt lat="45.41707" lon="3.38423">
        <ele>507.5</ele>
        <time>2020-09-17T10:52:56Z</time>
      </trkpt>
      <trkpt lat="45.41707" lon="3.38424">
        <ele>507.4</ele>
        <time>2020-09-17T10:52:57Z</time>
      </trkpt>
      <trkpt lat="45.41707" lon="3.38425">
        <ele>507.2</ele>
        <time>2020-09-17T10:52:58Z</time>
      </trkpt>
      <trkpt lat="45.41707" lon="3.38426">
        <ele>507.1</ele>
        <time>2020-09-17T10:52:59Z</time>
      </trkpt>
      <trkpt lat="45.41707" lon="3.38428">
        <ele>506.8</ele>
        <time>2020-09-17T10:53:00Z</time>
      </trkpt>
      <trkpt lat="45.41707" lon="3.38429">
        <ele>506.6</ele>
        <time>2020-09-17T10:53:01Z</time>
      </trkpt>
      <trkpt lat="45.41707" lon="3.3843">
        <ele>506.5</ele>
        <time>2020-09-17T10:53:02Z</time>
      </trkpt>
      <trkpt lat="45.41707" lon="3.38431">
        <ele>506.4</ele>
        <time>2020-09-17T10:53:03Z</time>
      </trkpt>
      <trkpt lat="45.41708" lon="3.38432">
        <ele>506.2</ele>
        <time>2020-09-17T10:53:04Z</time>
      </trkpt>
      <trkpt lat="45.41708" lon="3.38433">
        <ele>505.8</ele>
        <time>2020-09-17T10:53:05Z</time>
      </trkpt>
      <trkpt lat="45.41708" lon="3.38435">
        <ele>505.6</ele>
        <time>2020-09-17T10:53:06Z</time>
      </trkpt>
      <trkpt lat="45.41708" lon="3.38435">
        <ele>505.4</ele>
        <time>2020-09-17T10:53:07Z</time>
      </trkpt>
      <trkpt lat="45.41709" lon="3.38436">
        <ele>505.1</ele>
        <time>2020-09-17T10:53:08Z</time>
      </trkpt>
      <trkpt lat="45.41709" lon="3.38438">
        <ele>505</ele>
        <time>2020-09-17T10:53:09Z</time>
      </trkpt>
      <trkpt lat="45.41709" lon="3.38439">
        <ele>504.9</ele>
        <time>2020-09-17T10:53:10Z</time>
      </trkpt>
      <trkpt lat="45.41709" lon="3.3844">
        <ele>504.8</ele>
        <time>2020-09-17T10:53:11Z</time>
      </trkpt>
      <trkpt lat="45.41708" lon="3.38441">
        <ele>504.8</ele>
        <time>2020-09-17T10:53:12Z</time>
      </trkpt>
      <trkpt lat="45.41708" lon="3.38443">
        <ele>504.7</ele>
        <time>2020-09-17T10:53:13Z</time>
      </trkpt>
      <trkpt lat="45.41708" lon="3.38444">
        <ele>504.5</ele>
        <time>2020-09-17T10:53:14Z</time>
      </trkpt>
      <trkpt lat="45.41708" lon="3.38445">
        <ele>504.4</ele>
        <time>2020-09-17T10:53:15Z</time>
      </trkpt>
      <trkpt lat="45.41708" lon="3.38447">
        <ele>504.3</ele>
        <time>2020-09-17T10:53:16Z</time>
      </trkpt>
      <trkpt lat="45.41709" lon="3.38448">
        <ele>504.1</ele>
        <time>2020-09-17T10:53:17Z</time>
      </trkpt>
      <trkpt lat="45.41709" lon="3.38449">
        <ele>504</ele>
        <time>2020-09-17T10:53:18Z</time>
      </trkpt>
      <trkpt lat="45.41709" lon="3.38451">
        <ele>503.8</ele>
        <time>2020-09-17T10:53:19Z</time>
      </trkpt>
      <trkpt lat="45.41709" lon="3.38452">
        <ele>503.6</ele>
        <time>2020-09-17T10:53:20Z</time>
      </trkpt>
      <trkpt lat="45.41709" lon="3.38454">
        <ele>503.5</ele>
        <time>2020-09-17T10:53:21Z</time>
      </trkpt>
      <trkpt lat="45.41709" lon="3.38455">
        <ele>503.4</ele>
        <time>2020-09-17T10:53:22Z</time>
      </trkpt>
      <trkpt lat="45.41709" lon="3.38456">
        <ele>503.4</ele>
        <time>2020-09-17T10:53:23Z</time>
      </trkpt>
      <trkpt lat="45.41708" lon="3.38457">
        <ele>503.3</ele>
        <time>2020-09-17T10:53:24Z</time>
      </trkpt>
      <trkpt lat="45.41708" lon="3.38459">
        <ele>503.4</ele>
        <time>2020-09-17T10:53:25Z</time>
      </trkpt>
      <trkpt lat="45.41708" lon="3.3846">
        <ele>503.4</ele>
        <time>2020-09-17T10:53:26Z</time>
      </trkpt>
      <trkpt lat="45.41708" lon="3.38461">
        <ele>503.4</ele>
        <time>2020-09-17T10:53:27Z</time>
      </trkpt>
      <trkpt lat="45.41707" lon="3.38462">
        <ele>503.4</ele>
        <time>2020-09-17T10:53:28Z</time>
      </trkpt>
      <trkpt lat="45.41707" lon="3.38463">
        <ele>503.6</ele>
        <time>2020-09-17T10:53:29Z</time>
      </trkpt>
      <trkpt lat="45.41706" lon="3.38464">
        <ele>503.7</ele>
        <time>2020-09-17T10:53:30Z</time>
      </trkpt>
      <trkpt lat="45.41706" lon="3.38465">
        <ele>503.9</ele>
        <time>2020-09-17T10:53:31Z</time>
      </trkpt>
      <trkpt lat="45.41705" lon="3.38466">
        <ele>504.1</ele>
        <time>2020-09-17T10:53:32Z</time>
      </trkpt>
      <trkpt lat="45.41705" lon="3.38467">
        <ele>504.3</ele>
        <time>2020-09-17T10:53:33Z</time>
      </trkpt>
      <trkpt lat="45.41704" lon="3.38468">
        <ele>504.4</ele>
        <time>2020-09-17T10:53:34Z</time>
      </trkpt>
      <trkpt lat="45.41704" lon="3.3847">
        <ele>504.5</ele>
        <time>2020-09-17T10:53:35Z</time>
      </trkpt>
      <trkpt lat="45.41703" lon="3.38471">
        <ele>504.6</ele>
        <time>2020-09-17T10:53:36Z</time>
      </trkpt>
      <trkpt lat="45.41702" lon="3.38472">
        <ele>504.7</ele>
        <time>2020-09-17T10:53:37Z</time>
      </trkpt>
      <trkpt lat="45.41702" lon="3.38473">
        <ele>504.7</ele>
        <time>2020-09-17T10:53:38Z</time>
      </trkpt>
      <trkpt lat="45.41702" lon="3.38474">
        <ele>504.7</ele>
        <time>2020-09-17T10:53:39Z</time>
      </trkpt>
      <trkpt lat="45.41701" lon="3.38475">
        <ele>504.7</ele>
        <time>2020-09-17T10:53:40Z</time>
      </trkpt>
      <trkpt lat="45.41701" lon="3.38476">
        <ele>504.6</ele>
        <time>2020-09-17T10:53:41Z</time>
      </trkpt>
      <trkpt lat="45.41701" lon="3.38476">
        <ele>504.6</ele>
        <time>2020-09-17T10:53:42Z</time>
      </trkpt>
      <trkpt lat="45.417" lon="3.38477">
        <ele>504.6</ele>
        <time>2020-09-17T10:53:43Z</time>
      </trkpt>
      <trkpt lat="45.417" lon="3.38478">
        <ele>504.5</ele>
        <time>2020-09-17T10:53:44Z</time>
      </trkpt>
      <trkpt lat="45.417" lon="3.38479">
        <ele>504.4</ele>
        <time>2020-09-17T10:53:45Z</time>
      </trkpt>
      <trkpt lat="45.417" lon="3.3848">
        <ele>504.4</ele>
        <time>2020-09-17T10:53:46Z</time>
      </trkpt>
      <trkpt lat="45.41699" lon="3.38481">
        <ele>504.4</ele>
        <time>2020-09-17T10:53:47Z</time>
      </trkpt>
      <trkpt lat="45.41699" lon="3.38481">
        <ele>504.3</ele>
        <time>2020-09-17T10:53:48Z</time>
      </trkpt>
      <trkpt lat="45.41699" lon="3.38482">
        <ele>504.2</ele>
        <time>2020-09-17T10:53:49Z</time>
      </trkpt>
      <trkpt lat="45.41698" lon="3.38483">
        <ele>504.2</ele>
        <time>2020-09-17T10:53:50Z</time>
      </trkpt>
      <trkpt lat="45.41698" lon="3.38484">
        <ele>504.1</ele>
        <time>2020-09-17T10:53:51Z</time>
      </trkpt>
      <trkpt lat="45.41698" lon="3.38485">
        <ele>504.1</ele>
        <time>2020-09-17T10:53:52Z</time>
      </trkpt>
      <trkpt lat="45.41697" lon="3.38485">
        <ele>503.9</ele>
        <time>2020-09-17T10:53:53Z</time>
      </trkpt>
      <trkpt lat="45.41697" lon="3.38486">
        <ele>503.8</ele>
        <time>2020-09-17T10:53:54Z</time>
      </trkpt>
      <trkpt lat="45.41697" lon="3.38487">
        <ele>503.7</ele>
        <time>2020-09-17T10:53:55Z</time>
      </trkpt>
      <trkpt lat="45.41697" lon="3.38487">
        <ele>503.6</ele>
        <time>2020-09-17T10:53:56Z</time>
      </trkpt>
      <trkpt lat="45.41697" lon="3.38488">
        <ele>503.4</ele>
        <time>2020-09-17T10:53:57Z</time>
      </trkpt>
      <trkpt lat="45.41697" lon="3.38489">
        <ele>503.2</ele>
        <time>2020-09-17T10:53:58Z</time>
      </trkpt>
      <trkpt lat="45.41697" lon="3.3849">
        <ele>502.9</ele>
        <time>2020-09-17T10:53:59Z</time>
      </trkpt>
      <trkpt lat="45.41697" lon="3.38491">
        <ele>502.8</ele>
        <time>2020-09-17T10:54:00Z</time>
      </trkpt>
      <trkpt lat="45.41697" lon="3.38492">
        <ele>502.6</ele>
        <time>2020-09-17T10:54:01Z</time>
      </trkpt>
      <trkpt lat="45.41697" lon="3.38493">
        <ele>502.4</ele>
        <time>2020-09-17T10:54:02Z</time>
      </trkpt>
      <trkpt lat="45.41697" lon="3.38494">
        <ele>502.2</ele>
        <time>2020-09-17T10:54:03Z</time>
      </trkpt>
      <trkpt lat="45.41696" lon="3.38495">
        <ele>502.1</ele>
        <time>2020-09-17T10:54:04Z</time>
      </trkpt>
      <trkpt lat="45.41696" lon="3.38495">
        <ele>501.9</ele>
        <time>2020-09-17T10:54:05Z</time>
      </trkpt>
      <trkpt lat="45.41696" lon="3.38496">
        <ele>501.7</ele>
        <time>2020-09-17T10:54:06Z</time>
      </trkpt>
      <trkpt lat="45.41697" lon="3.38497">
        <ele>501.6</ele>
        <time>2020-09-17T10:54:07Z</time>
      </trkpt>
      <trkpt lat="45.41697" lon="3.38497">
        <ele>501.5</ele>
        <time>2020-09-17T10:54:08Z</time>
      </trkpt>
      <trkpt lat="45.41697" lon="3.38498">
        <ele>501.4</ele>
        <time>2020-09-17T10:54:09Z</time>
      </trkpt>
      <trkpt lat="45.41697" lon="3.38498">
        <ele>501.2</ele>
        <time>2020-09-17T10:54:10Z</time>
      </trkpt>
      <trkpt lat="45.41697" lon="3.38499">
        <ele>501</ele>
        <time>2020-09-17T10:54:11Z</time>
      </trkpt>
      <trkpt lat="45.41697" lon="3.38499">
        <ele>501</ele>
        <time>2020-09-17T10:54:12Z</time>
      </trkpt>
      <trkpt lat="45.41697" lon="3.38499">
        <ele>500.9</ele>
        <time>2020-09-17T10:54:13Z</time>
      </trkpt>
      <trkpt lat="45.41697" lon="3.385">
        <ele>500.9</ele>
        <time>2020-09-17T10:54:14Z</time>
      </trkpt>
      <trkpt lat="45.41697" lon="3.385">
        <ele>500.9</ele>
        <time>2020-09-17T10:54:15Z</time>
      </trkpt>
      <trkpt lat="45.41697" lon="3.385">
        <ele>500.9</ele>
        <time>2020-09-17T10:54:16Z</time>
      </trkpt>
      <trkpt lat="45.41697" lon="3.385">
        <ele>500.9</ele>
        <time>2020-09-17T10:54:17Z</time>
      </trkpt>
      <trkpt lat="45.41697" lon="3.385">
        <ele>500.9</ele>
        <time>2020-09-17T10:54:18Z</time>
      </trkpt>
      <trkpt lat="45.41697" lon="3.385">
        <ele>500.9</ele>
        <time>2020-09-17T10:54:19Z</time>
      </trkpt>
      <trkpt lat="45.41697" lon="3.385">
        <ele>500.9</ele>
        <time>2020-09-17T10:54:20Z</time>
      </trkpt>
      <trkpt lat="45.41697" lon="3.385">
        <ele>500.8</ele>
        <time>2020-09-17T10:54:21Z</time>
      </trkpt>
      <trkpt lat="45.41697" lon="3.38501">
        <ele>500.8</ele>
        <time>2020-09-17T10:54:22Z</time>
      </trkpt>
      <trkpt lat="45.41697" lon="3.38501">
        <ele>500.7</ele>
        <time>2020-09-17T10:54:23Z</time>
      </trkpt>
      <trkpt lat="45.41697" lon="3.38501">
        <ele>500.7</ele>
        <time>2020-09-17T10:54:24Z</time>
      </trkpt>
      <trkpt lat="45.41697" lon="3.38502">
        <ele>500.7</ele>
        <time>2020-09-17T10:54:25Z</time>
      </trkpt>
      <trkpt lat="45.41698" lon="3.38502">
        <ele>500.6</ele>
        <time>2020-09-17T10:54:26Z</time>
      </trkpt>
      <trkpt lat="45.41698" lon="3.38503">
        <ele>500.6</ele>
        <time>2020-09-17T10:54:27Z</time>
      </trkpt>
      <trkpt lat="45.41698" lon="3.38503">
        <ele>500.5</ele>
        <time>2020-09-17T10:54:28Z</time>
      </trkpt>
      <trkpt lat="45.41698" lon="3.38504">
        <ele>500.5</ele>
        <time>2020-09-17T10:54:29Z</time>
      </trkpt>
      <trkpt lat="45.41698" lon="3.38504">
        <ele>500.5</ele>
        <time>2020-09-17T10:54:30Z</time>
      </trkpt>
      <trkpt lat="45.41698" lon="3.38504">
        <ele>500.5</ele>
        <time>2020-09-17T10:54:31Z</time>
      </trkpt>
      <trkpt lat="45.41698" lon="3.38504">
        <ele>500.5</ele>
        <time>2020-09-17T10:54:32Z</time>
      </trkpt>
      <trkpt lat="45.41698" lon="3.38504">
        <ele>500.5</ele>
        <time>2020-09-17T10:54:33Z</time>
      </trkpt>
      <trkpt lat="45.41698" lon="3.38504">
        <ele>500.5</ele>
        <time>2020-09-17T10:54:34Z</time>
      </trkpt>
      <trkpt lat="45.41698" lon="3.38504">
        <ele>500.5</ele>
        <time>2020-09-17T10:54:35Z</time>
      </trkpt>
      <trkpt lat="45.41698" lon="3.38504">
        <ele>500.5</ele>
        <time>2020-09-17T10:54:36Z</time>
      </trkpt>
      <trkpt lat="45.41698" lon="3.38504">
        <ele>500.5</ele>
        <time>2020-09-17T10:54:37Z</time>
      </trkpt>
      <trkpt lat="45.41698" lon="3.38504">
        <ele>500.5</ele>
        <time>2020-09-17T10:54:38Z</time>
      </trkpt>
      <trkpt lat="45.41698" lon="3.38504">
        <ele>500.5</ele>
        <time>2020-09-17T10:54:39Z</time>
      </trkpt>
      <trkpt lat="45.41698" lon="3.38504">
        <ele>500.5</ele>
        <time>2020-09-17T10:54:40Z</time>
      </trkpt>
      <trkpt lat="45.41698" lon="3.38504">
        <ele>500.5</ele>
        <time>2020-09-17T10:54:41Z</time>
      </trkpt>
      <trkpt lat="45.41698" lon="3.38504">
        <ele>500.5</ele>
        <time>2020-09-17T10:54:42Z</time>
      </trkpt>
      <trkpt lat="45.41698" lon="3.38504">
        <ele>500.5</ele>
        <time>2020-09-17T10:54:43Z</time>
      </trkpt>
      <trkpt lat="45.41698" lon="3.38504">
        <ele>500.4</ele>
        <time>2020-09-17T10:54:44Z</time>
      </trkpt>
      <trkpt lat="45.41698" lon="3.38505">
        <ele>500.4</ele>
        <time>2020-09-17T10:54:45Z</time>
      </trkpt>
      <trkpt lat="45.41698" lon="3.38506">
        <ele>500.3</ele>
        <time>2020-09-17T10:54:46Z</time>
      </trkpt>
      <trkpt lat="45.41698" lon="3.38507">
        <ele>500.3</ele>
        <time>2020-09-17T10:54:47Z</time>
      </trkpt>
      <trkpt lat="45.41698" lon="3.38507">
        <ele>500.2</ele>
        <time>2020-09-17T10:54:48Z</time>
      </trkpt>
      <trkpt lat="45.41699" lon="3.38508">
        <ele>500.2</ele>
        <time>2020-09-17T10:54:49Z</time>
      </trkpt>
      <trkpt lat="45.41699" lon="3.38508">
        <ele>500.2</ele>
        <time>2020-09-17T10:54:50Z</time>
      </trkpt>
      <trkpt lat="45.41699" lon="3.38509">
        <ele>500.1</ele>
        <time>2020-09-17T10:54:51Z</time>
      </trkpt>
      <trkpt lat="45.41699" lon="3.3851">
        <ele>500.1</ele>
        <time>2020-09-17T10:54:52Z</time>
      </trkpt>
      <trkpt lat="45.41699" lon="3.3851">
        <ele>500</ele>
        <time>2020-09-17T10:54:53Z</time>
      </trkpt>
      <trkpt lat="45.41699" lon="3.38511">
        <ele>500</ele>
        <time>2020-09-17T10:54:54Z</time>
      </trkpt>
      <trkpt lat="45.41699" lon="3.38512">
        <ele>500</ele>
        <time>2020-09-17T10:54:55Z</time>
      </trkpt>
      <trkpt lat="45.41699" lon="3.38513">
        <ele>499.9</ele>
        <time>2020-09-17T10:54:56Z</time>
      </trkpt>
      <trkpt lat="45.417" lon="3.38513">
        <ele>499.9</ele>
        <time>2020-09-17T10:54:57Z</time>
      </trkpt>
      <trkpt lat="45.417" lon="3.38514">
        <ele>499.9</ele>
        <time>2020-09-17T10:54:58Z</time>
      </trkpt>
      <trkpt lat="45.417" lon="3.38514">
        <ele>499.9</ele>
        <time>2020-09-17T10:54:59Z</time>
      </trkpt>
      <trkpt lat="45.417" lon="3.38514">
        <ele>499.9</ele>
        <time>2020-09-17T10:55:00Z</time>
      </trkpt>
      <trkpt lat="45.417" lon="3.38515">
        <ele>499.9</ele>
        <time>2020-09-17T10:55:01Z</time>
      </trkpt>
      <trkpt lat="45.417" lon="3.38515">
        <ele>499.9</ele>
        <time>2020-09-17T10:55:02Z</time>
      </trkpt>
      <trkpt lat="45.41701" lon="3.38515">
        <ele>499.9</ele>
        <time>2020-09-17T10:55:03Z</time>
      </trkpt>
      <trkpt lat="45.41701" lon="3.38515">
        <ele>499.9</ele>
        <time>2020-09-17T10:55:04Z</time>
      </trkpt>
      <trkpt lat="45.41701" lon="3.38515">
        <ele>499.9</ele>
        <time>2020-09-17T10:55:05Z</time>
      </trkpt>
      <trkpt lat="45.41701" lon="3.38515">
        <ele>500</ele>
        <time>2020-09-17T10:55:06Z</time>
      </trkpt>
      <trkpt lat="45.41701" lon="3.38515">
        <ele>500</ele>
        <time>2020-09-17T10:55:07Z</time>
      </trkpt>
      <trkpt lat="45.41701" lon="3.38515">
        <ele>500</ele>
        <time>2020-09-17T10:55:08Z</time>
      </trkpt>
      <trkpt lat="45.41701" lon="3.38515">
        <ele>500</ele>
        <time>2020-09-17T10:55:09Z</time>
      </trkpt>
      <trkpt lat="45.41701" lon="3.38515">
        <ele>500</ele>
        <time>2020-09-17T10:55:10Z</time>
      </trkpt>
      <trkpt lat="45.41701" lon="3.38515">
        <ele>500</ele>
        <time>2020-09-17T10:55:11Z</time>
      </trkpt>
      <trkpt lat="45.41701" lon="3.38515">
        <ele>500</ele>
        <time>2020-09-17T10:55:12Z</time>
      </trkpt>
      <trkpt lat="45.41701" lon="3.38515">
        <ele>500</ele>
        <time>2020-09-17T10:55:13Z</time>
      </trkpt>
      <trkpt lat="45.41701" lon="3.38515">
        <ele>500</ele>
        <time>2020-09-17T10:55:14Z</time>
      </trkpt>
      <trkpt lat="45.41701" lon="3.38515">
        <ele>500</ele>
        <time>2020-09-17T10:55:15Z</time>
      </trkpt>
      <trkpt lat="45.41701" lon="3.38515">
        <ele>500</ele>
        <time>2020-09-17T10:55:16Z</time>
      </trkpt>
      <trkpt lat="45.41701" lon="3.38515">
        <ele>500</ele>
        <time>2020-09-17T10:55:17Z</time>
      </trkpt>
      <trkpt lat="45.41701" lon="3.38515">
        <ele>500</ele>
        <time>2020-09-17T10:55:18Z</time>
      </trkpt>
      <trkpt lat="45.41701" lon="3.38515">
        <ele>500</ele>
        <time>2020-09-17T10:55:19Z</time>
      </trkpt>
      <trkpt lat="45.41701" lon="3.38515">
        <ele>500</ele>
        <time>2020-09-17T10:55:20Z</time>
      </trkpt>
      <trkpt lat="45.41702" lon="3.38515">
        <ele>500</ele>
        <time>2020-09-17T10:55:21Z</time>
      </trkpt>
      <trkpt lat="45.41702" lon="3.38515">
        <ele>500</ele>
        <time>2020-09-17T10:55:22Z</time>
      </trkpt>
      <trkpt lat="45.41702" lon="3.38515">
        <ele>500</ele>
        <time>2020-09-17T10:55:23Z</time>
      </trkpt>
      <trkpt lat="45.41702" lon="3.38515">
        <ele>500</ele>
        <time>2020-09-17T10:55:24Z</time>
      </trkpt>
      <trkpt lat="45.41702" lon="3.38515">
        <ele>500</ele>
        <time>2020-09-17T10:55:25Z</time>
      </trkpt>
      <trkpt lat="45.41702" lon="3.38515">
        <ele>500</ele>
        <time>2020-09-17T10:55:26Z</time>
      </trkpt>
      <trkpt lat="45.41702" lon="3.38515">
        <ele>500</ele>
        <time>2020-09-17T10:55:27Z</time>
      </trkpt>
      <trkpt lat="45.41702" lon="3.38514">
        <ele>500</ele>
        <time>2020-09-17T10:55:28Z</time>
      </trkpt>
      <trkpt lat="45.41702" lon="3.38514">
        <ele>500.1</ele>
        <time>2020-09-17T10:55:29Z</time>
      </trkpt>
      <trkpt lat="45.41703" lon="3.38514">
        <ele>500.1</ele>
        <time>2020-09-17T10:55:30Z</time>
      </trkpt>
      <trkpt lat="45.41703" lon="3.38514">
        <ele>500.1</ele>
        <time>2020-09-17T10:55:31Z</time>
      </trkpt>
      <trkpt lat="45.41703" lon="3.38514">
        <ele>500.1</ele>
        <time>2020-09-17T10:55:32Z</time>
      </trkpt>
      <trkpt lat="45.41704" lon="3.38514">
        <ele>500.2</ele>
        <time>2020-09-17T10:55:33Z</time>
      </trkpt>
      <trkpt lat="45.41704" lon="3.38514">
        <ele>500.2</ele>
        <time>2020-09-17T10:55:34Z</time>
      </trkpt>
      <trkpt lat="45.41705" lon="3.38514">
        <ele>500.2</ele>
        <time>2020-09-17T10:55:35Z</time>
      </trkpt>
      <trkpt lat="45.41705" lon="3.38515">
        <ele>500.2</ele>
        <time>2020-09-17T10:55:36Z</time>
      </trkpt>
      <trkpt lat="45.41705" lon="3.38515">
        <ele>500.3</ele>
        <time>2020-09-17T10:55:37Z</time>
      </trkpt>
      <trkpt lat="45.41705" lon="3.38515">
        <ele>500.3</ele>
        <time>2020-09-17T10:55:38Z</time>
      </trkpt>
      <trkpt lat="45.41705" lon="3.38515">
        <ele>500.3</ele>
        <time>2020-09-17T10:55:39Z</time>
      </trkpt>
      <trkpt lat="45.41705" lon="3.38515">
        <ele>500.3</ele>
        <time>2020-09-17T10:55:40Z</time>
      </trkpt>
      <trkpt lat="45.41705" lon="3.38515">
        <ele>500.2</ele>
        <time>2020-09-17T10:55:41Z</time>
      </trkpt>
      <trkpt lat="45.41705" lon="3.38515">
        <ele>500.2</ele>
        <time>2020-09-17T10:55:42Z</time>
      </trkpt>
      <trkpt lat="45.41705" lon="3.38515">
        <ele>500.2</ele>
        <time>2020-09-17T10:55:43Z</time>
      </trkpt>
      <trkpt lat="45.41705" lon="3.38515">
        <ele>500.2</ele>
        <time>2020-09-17T10:55:44Z</time>
      </trkpt>
      <trkpt lat="45.41705" lon="3.38515">
        <ele>500.2</ele>
        <time>2020-09-17T10:55:45Z</time>
      </trkpt>
      <trkpt lat="45.41705" lon="3.38515">
        <ele>500.2</ele>
        <time>2020-09-17T10:55:46Z</time>
      </trkpt>
      <trkpt lat="45.41705" lon="3.38515">
        <ele>500.2</ele>
        <time>2020-09-17T10:55:47Z</time>
      </trkpt>
      <trkpt lat="45.41705" lon="3.38515">
        <ele>500.2</ele>
        <time>2020-09-17T10:55:48Z</time>
      </trkpt>
      <trkpt lat="45.41705" lon="3.38515">
        <ele>500.2</ele>
        <time>2020-09-17T10:55:49Z</time>
      </trkpt>
      <trkpt lat="45.41705" lon="3.38515">
        <ele>500.2</ele>
        <time>2020-09-17T10:55:50Z</time>
      </trkpt>
      <trkpt lat="45.41705" lon="3.38515">
        <ele>500.2</ele>
        <time>2020-09-17T10:55:51Z</time>
      </trkpt>
      <trkpt lat="45.41705" lon="3.38515">
        <ele>500.2</ele>
        <time>2020-09-17T10:55:52Z</time>
      </trkpt>
      <trkpt lat="45.41705" lon="3.38515">
        <ele>500.2</ele>
        <time>2020-09-17T10:55:53Z</time>
      </trkpt>
      <trkpt lat="45.41705" lon="3.38515">
        <ele>500.2</ele>
        <time>2020-09-17T10:55:54Z</time>
      </trkpt>
      <trkpt lat="45.41705" lon="3.38515">
        <ele>500.2</ele>
        <time>2020-09-17T10:55:55Z</time>
      </trkpt>
      <trkpt lat="45.41705" lon="3.38515">
        <ele>500.2</ele>
        <time>2020-09-17T10:55:56Z</time>
      </trkpt>
      <trkpt lat="45.41705" lon="3.38515">
        <ele>500.2</ele>
        <time>2020-09-17T10:55:57Z</time>
      </trkpt>
      <trkpt lat="45.41705" lon="3.38515">
        <ele>500.2</ele>
        <time>2020-09-17T10:55:58Z</time>
      </trkpt>
      <trkpt lat="45.41705" lon="3.38515">
        <ele>500.2</ele>
        <time>2020-09-17T10:55:59Z</time>
      </trkpt>
      <trkpt lat="45.41705" lon="3.38515">
        <ele>500.2</ele>
        <time>2020-09-17T10:56:00Z</time>
      </trkpt>
      <trkpt lat="45.41705" lon="3.38515">
        <ele>500.2</ele>
        <time>2020-09-17T10:56:01Z</time>
      </trkpt>
      <trkpt lat="45.41705" lon="3.38515">
        <ele>500.2</ele>
        <time>2020-09-17T10:56:02Z</time>
      </trkpt>
      <trkpt lat="45.41705" lon="3.38515">
        <ele>500.2</ele>
        <time>2020-09-17T10:56:03Z</time>
      </trkpt>
      <trkpt lat="45.41705" lon="3.38514">
        <ele>500.2</ele>
        <time>2020-09-17T10:56:04Z</time>
      </trkpt>
      <trkpt lat="45.41705" lon="3.38514">
        <ele>500.2</ele>
        <time>2020-09-17T10:56:05Z</time>
      </trkpt>
      <trkpt lat="45.41705" lon="3.38514">
        <ele>500.2</ele>
        <time>2020-09-17T10:56:06Z</time>
      </trkpt>
      <trkpt lat="45.41705" lon="3.38515">
        <ele>500.2</ele>
        <time>2020-09-17T10:56:07Z</time>
      </trkpt>
      <trkpt lat="45.41705" lon="3.38515">
        <ele>500.2</ele>
        <time>2020-09-17T10:56:08Z</time>
      </trkpt>
      <trkpt lat="45.41704" lon="3.38515">
        <ele>500.2</ele>
        <time>2020-09-17T10:56:09Z</time>
      </trkpt>
      <trkpt lat="45.41704" lon="3.38515">
        <ele>500.2</ele>
        <time>2020-09-17T10:56:10Z</time>
      </trkpt>
      <trkpt lat="45.41704" lon="3.38515">
        <ele>500.2</ele>
        <time>2020-09-17T10:56:11Z</time>
      </trkpt>
      <trkpt lat="45.41704" lon="3.38515">
        <ele>500.2</ele>
        <time>2020-09-17T10:56:12Z</time>
      </trkpt>
      <trkpt lat="45.41704" lon="3.38515">
        <ele>500.2</ele>
        <time>2020-09-17T10:56:13Z</time>
      </trkpt>
      <trkpt lat="45.41704" lon="3.38515">
        <ele>500.2</ele>
        <time>2020-09-17T10:56:14Z</time>
      </trkpt>
      <trkpt lat="45.41704" lon="3.38515">
        <ele>500.2</ele>
        <time>2020-09-17T10:56:15Z</time>
      </trkpt>
      <trkpt lat="45.41704" lon="3.38515">
        <ele>500.2</ele>
        <time>2020-09-17T10:56:16Z</time>
      </trkpt>
      <trkpt lat="45.41704" lon="3.38515">
        <ele>500.2</ele>
        <time>2020-09-17T10:56:17Z</time>
      </trkpt>
      <trkpt lat="45.41704" lon="3.38514">
        <ele>500.2</ele>
        <time>2020-09-17T10:56:18Z</time>
      </trkpt>
      <trkpt lat="45.41704" lon="3.38514">
        <ele>500.2</ele>
        <time>2020-09-17T10:56:19Z</time>
      </trkpt>
      <trkpt lat="45.41704" lon="3.38514">
        <ele>500.2</ele>
        <time>2020-09-17T10:56:20Z</time>
      </trkpt>
      <trkpt lat="45.41704" lon="3.38514">
        <ele>500.2</ele>
        <time>2020-09-17T10:56:21Z</time>
      </trkpt>
      <trkpt lat="45.41704" lon="3.38514">
        <ele>500.2</ele>
        <time>2020-09-17T10:56:22Z</time>
      </trkpt>
      <trkpt lat="45.41705" lon="3.38514">
        <ele>500.2</ele>
        <time>2020-09-17T10:56:23Z</time>
      </trkpt>
      <trkpt lat="45.41705" lon="3.38513">
        <ele>500.2</ele>
        <time>2020-09-17T10:56:24Z</time>
      </trkpt>
      <trkpt lat="45.41705" lon="3.38513">
        <ele>500.3</ele>
        <time>2020-09-17T10:56:25Z</time>
      </trkpt>
      <trkpt lat="45.41706" lon="3.38512">
        <ele>500.3</ele>
        <time>2020-09-17T10:56:26Z</time>
      </trkpt>
      <trkpt lat="45.41706" lon="3.38512">
        <ele>500.3</ele>
        <time>2020-09-17T10:56:27Z</time>
      </trkpt>
      <trkpt lat="45.41707" lon="3.38511">
        <ele>500.3</ele>
        <time>2020-09-17T10:56:28Z</time>
      </trkpt>
      <trkpt lat="45.41707" lon="3.38511">
        <ele>500.3</ele>
        <time>2020-09-17T10:56:29Z</time>
      </trkpt>
      <trkpt lat="45.41707" lon="3.3851">
        <ele>500.3</ele>
        <time>2020-09-17T10:56:30Z</time>
      </trkpt>
      <trkpt lat="45.41708" lon="3.3851">
        <ele>500.3</ele>
        <time>2020-09-17T10:56:31Z</time>
      </trkpt>
      <trkpt lat="45.41708" lon="3.38509">
        <ele>500.3</ele>
        <time>2020-09-17T10:56:32Z</time>
      </trkpt>
      <trkpt lat="45.41709" lon="3.38509">
        <ele>500.3</ele>
        <time>2020-09-17T10:56:33Z</time>
      </trkpt>
      <trkpt lat="45.41709" lon="3.38509">
        <ele>500.3</ele>
        <time>2020-09-17T10:56:34Z</time>
      </trkpt>
      <trkpt lat="45.41709" lon="3.38509">
        <ele>500.3</ele>
        <time>2020-09-17T10:56:35Z</time>
      </trkpt>
      <trkpt lat="45.41709" lon="3.38509">
        <ele>500.3</ele>
        <time>2020-09-17T10:56:36Z</time>
      </trkpt>
      <trkpt lat="45.41709" lon="3.38509">
        <ele>500.3</ele>
        <time>2020-09-17T10:56:37Z</time>
      </trkpt>
      <trkpt lat="45.41709" lon="3.38509">
        <ele>500.3</ele>
        <time>2020-09-17T10:56:38Z</time>
      </trkpt>
      <trkpt lat="45.41709" lon="3.38509">
        <ele>500.3</ele>
        <time>2020-09-17T10:56:39Z</time>
      </trkpt>
      <trkpt lat="45.41709" lon="3.38509">
        <ele>500.3</ele>
        <time>2020-09-17T10:56:40Z</time>
      </trkpt>
      <trkpt lat="45.41709" lon="3.38509">
        <ele>500.3</ele>
        <time>2020-09-17T10:56:41Z</time>
      </trkpt>
      <trkpt lat="45.41709" lon="3.38509">
        <ele>500.3</ele>
        <time>2020-09-17T10:56:42Z</time>
      </trkpt>
      <trkpt lat="45.41708" lon="3.38508">
        <ele>500.3</ele>
        <time>2020-09-17T10:56:43Z</time>
      </trkpt>
      <trkpt lat="45.41708" lon="3.38508">
        <ele>500.3</ele>
        <time>2020-09-17T10:56:44Z</time>
      </trkpt>
      <trkpt lat="45.41709" lon="3.38508">
        <ele>500.3</ele>
        <time>2020-09-17T10:56:45Z</time>
      </trkpt>
      <trkpt lat="45.41708" lon="3.38508">
        <ele>500.3</ele>
        <time>2020-09-17T10:56:46Z</time>
      </trkpt>
      <trkpt lat="45.41708" lon="3.38508">
        <ele>500.3</ele>
        <time>2020-09-17T10:56:47Z</time>
      </trkpt>
      <trkpt lat="45.41708" lon="3.38508">
        <ele>500.3</ele>
        <time>2020-09-17T10:56:48Z</time>
      </trkpt>
      <trkpt lat="45.41708" lon="3.38508">
        <ele>500.3</ele>
        <time>2020-09-17T10:56:49Z</time>
      </trkpt>
      <trkpt lat="45.41709" lon="3.38508">
        <ele>500.3</ele>
        <time>2020-09-17T10:56:50Z</time>
      </trkpt>
      <trkpt lat="45.41709" lon="3.38508">
        <ele>500.3</ele>
        <time>2020-09-17T10:56:51Z</time>
      </trkpt>
      <trkpt lat="45.41709" lon="3.38508">
        <ele>500.3</ele>
        <time>2020-09-17T10:56:52Z</time>
      </trkpt>
      <trkpt lat="45.41709" lon="3.38507">
        <ele>500.3</ele>
        <time>2020-09-17T10:56:53Z</time>
      </trkpt>
      <trkpt lat="45.41709" lon="3.38507">
        <ele>500.3</ele>
        <time>2020-09-17T10:56:54Z</time>
      </trkpt>
      <trkpt lat="45.41709" lon="3.38507">
        <ele>500.3</ele>
        <time>2020-09-17T10:56:55Z</time>
      </trkpt>
      <trkpt lat="45.41709" lon="3.38507">
        <ele>500.3</ele>
        <time>2020-09-17T10:56:56Z</time>
      </trkpt>
      <trkpt lat="45.41709" lon="3.38507">
        <ele>500.3</ele>
        <time>2020-09-17T10:56:57Z</time>
      </trkpt>
      <trkpt lat="45.4171" lon="3.38507">
        <ele>500.2</ele>
        <time>2020-09-17T10:56:58Z</time>
      </trkpt>
      <trkpt lat="45.4171" lon="3.38507">
        <ele>500.2</ele>
        <time>2020-09-17T10:56:59Z</time>
      </trkpt>
      <trkpt lat="45.4171" lon="3.38507">
        <ele>500.2</ele>
        <time>2020-09-17T10:57:00Z</time>
      </trkpt>
      <trkpt lat="45.41711" lon="3.38507">
        <ele>500.2</ele>
        <time>2020-09-17T10:57:01Z</time>
      </trkpt>
      <trkpt lat="45.41711" lon="3.38507">
        <ele>500.2</ele>
        <time>2020-09-17T10:57:02Z</time>
      </trkpt>
      <trkpt lat="45.41712" lon="3.38507">
        <ele>500.2</ele>
        <time>2020-09-17T10:57:03Z</time>
      </trkpt>
      <trkpt lat="45.41712" lon="3.38507">
        <ele>500.2</ele>
        <time>2020-09-17T10:57:04Z</time>
      </trkpt>
      <trkpt lat="45.41713" lon="3.38507">
        <ele>500.3</ele>
        <time>2020-09-17T10:57:05Z</time>
      </trkpt>
      <trkpt lat="45.41713" lon="3.38507">
        <ele>500.3</ele>
        <time>2020-09-17T10:57:06Z</time>
      </trkpt>
      <trkpt lat="45.41714" lon="3.38507">
        <ele>500.3</ele>
        <time>2020-09-17T10:57:07Z</time>
      </trkpt>
      <trkpt lat="45.41714" lon="3.38507">
        <ele>500.3</ele>
        <time>2020-09-17T10:57:08Z</time>
      </trkpt>
      <trkpt lat="45.41715" lon="3.38507">
        <ele>500.2</ele>
        <time>2020-09-17T10:57:09Z</time>
      </trkpt>
      <trkpt lat="45.41715" lon="3.38506">
        <ele>500.2</ele>
        <time>2020-09-17T10:57:10Z</time>
      </trkpt>
      <trkpt lat="45.41716" lon="3.38505">
        <ele>500.1</ele>
        <time>2020-09-17T10:57:11Z</time>
      </trkpt>
      <trkpt lat="45.41716" lon="3.38505">
        <ele>500</ele>
        <time>2020-09-17T10:57:12Z</time>
      </trkpt>
      <trkpt lat="45.41717" lon="3.38504">
        <ele>499.9</ele>
        <time>2020-09-17T10:57:13Z</time>
      </trkpt>
      <trkpt lat="45.41718" lon="3.38503">
        <ele>499.8</ele>
        <time>2020-09-17T10:57:14Z</time>
      </trkpt>
      <trkpt lat="45.41718" lon="3.38503">
        <ele>499.7</ele>
        <time>2020-09-17T10:57:15Z</time>
      </trkpt>
      <trkpt lat="45.41719" lon="3.38502">
        <ele>499.6</ele>
        <time>2020-09-17T10:57:16Z</time>
      </trkpt>
      <trkpt lat="45.4172" lon="3.38502">
        <ele>499.5</ele>
        <time>2020-09-17T10:57:17Z</time>
      </trkpt>
      <trkpt lat="45.41721" lon="3.38502">
        <ele>499.4</ele>
        <time>2020-09-17T10:57:18Z</time>
      </trkpt>
      <trkpt lat="45.41722" lon="3.38502">
        <ele>499.3</ele>
        <time>2020-09-17T10:57:19Z</time>
      </trkpt>
      <trkpt lat="45.41722" lon="3.38501">
        <ele>499.3</ele>
        <time>2020-09-17T10:57:20Z</time>
      </trkpt>
      <trkpt lat="45.41723" lon="3.38501">
        <ele>499.5</ele>
        <time>2020-09-17T10:57:21Z</time>
      </trkpt>
      <trkpt lat="45.41723" lon="3.38501">
        <ele>499.6</ele>
        <time>2020-09-17T10:57:22Z</time>
      </trkpt>
      <trkpt lat="45.41724" lon="3.38501">
        <ele>499.7</ele>
        <time>2020-09-17T10:57:23Z</time>
      </trkpt>
      <trkpt lat="45.41724" lon="3.385">
        <ele>499.8</ele>
        <time>2020-09-17T10:57:24Z</time>
      </trkpt>
      <trkpt lat="45.41725" lon="3.385">
        <ele>500</ele>
        <time>2020-09-17T10:57:25Z</time>
      </trkpt>
      <trkpt lat="45.41725" lon="3.38499">
        <ele>500</ele>
        <time>2020-09-17T10:57:26Z</time>
      </trkpt>
      <trkpt lat="45.41725" lon="3.38499">
        <ele>500.2</ele>
        <time>2020-09-17T10:57:27Z</time>
      </trkpt>
      <trkpt lat="45.41726" lon="3.38498">
        <ele>500.2</ele>
        <time>2020-09-17T10:57:28Z</time>
      </trkpt>
      <trkpt lat="45.41726" lon="3.38498">
        <ele>500.4</ele>
        <time>2020-09-17T10:57:29Z</time>
      </trkpt>
      <trkpt lat="45.41727" lon="3.38497">
        <ele>500.5</ele>
        <time>2020-09-17T10:57:30Z</time>
      </trkpt>
      <trkpt lat="45.41727" lon="3.38496">
        <ele>500.7</ele>
        <time>2020-09-17T10:57:31Z</time>
      </trkpt>
      <trkpt lat="45.41728" lon="3.38495">
        <ele>500.9</ele>
        <time>2020-09-17T10:57:32Z</time>
      </trkpt>
      <trkpt lat="45.41729" lon="3.38495">
        <ele>501</ele>
        <time>2020-09-17T10:57:33Z</time>
      </trkpt>
      <trkpt lat="45.4173" lon="3.38494">
        <ele>501.2</ele>
        <time>2020-09-17T10:57:34Z</time>
      </trkpt>
      <trkpt lat="45.4173" lon="3.38493">
        <ele>501.4</ele>
        <time>2020-09-17T10:57:35Z</time>
      </trkpt>
      <trkpt lat="45.41731" lon="3.38492">
        <ele>501.5</ele>
        <time>2020-09-17T10:57:36Z</time>
      </trkpt>
      <trkpt lat="45.41732" lon="3.38492">
        <ele>501.7</ele>
        <time>2020-09-17T10:57:37Z</time>
      </trkpt>
      <trkpt lat="45.41732" lon="3.38491">
        <ele>501.8</ele>
        <time>2020-09-17T10:57:38Z</time>
      </trkpt>
      <trkpt lat="45.41733" lon="3.3849">
        <ele>501.8</ele>
        <time>2020-09-17T10:57:39Z</time>
      </trkpt>
      <trkpt lat="45.41733" lon="3.38489">
        <ele>502</ele>
        <time>2020-09-17T10:57:40Z</time>
      </trkpt>
      <trkpt lat="45.41734" lon="3.38488">
        <ele>502.1</ele>
        <time>2020-09-17T10:57:41Z</time>
      </trkpt>
      <trkpt lat="45.41735" lon="3.38488">
        <ele>502.2</ele>
        <time>2020-09-17T10:57:42Z</time>
      </trkpt>
      <trkpt lat="45.41736" lon="3.38487">
        <ele>502.4</ele>
        <time>2020-09-17T10:57:43Z</time>
      </trkpt>
      <trkpt lat="45.41736" lon="3.38487">
        <ele>502.6</ele>
        <time>2020-09-17T10:57:44Z</time>
      </trkpt>
      <trkpt lat="45.41737" lon="3.38486">
        <ele>502.7</ele>
        <time>2020-09-17T10:57:45Z</time>
      </trkpt>
      <trkpt lat="45.41737" lon="3.38486">
        <ele>502.8</ele>
        <time>2020-09-17T10:57:46Z</time>
      </trkpt>
      <trkpt lat="45.41738" lon="3.38485">
        <ele>502.9</ele>
        <time>2020-09-17T10:57:47Z</time>
      </trkpt>
      <trkpt lat="45.41738" lon="3.38485">
        <ele>503</ele>
        <time>2020-09-17T10:57:48Z</time>
      </trkpt>
      <trkpt lat="45.41738" lon="3.38485">
        <ele>502.9</ele>
        <time>2020-09-17T10:57:49Z</time>
      </trkpt>
      <trkpt lat="45.41739" lon="3.38484">
        <ele>503</ele>
        <time>2020-09-17T10:57:50Z</time>
      </trkpt>
      <trkpt lat="45.41739" lon="3.38484">
        <ele>503.1</ele>
        <time>2020-09-17T10:57:51Z</time>
      </trkpt>
      <trkpt lat="45.4174" lon="3.38483">
        <ele>503.2</ele>
        <time>2020-09-17T10:57:52Z</time>
      </trkpt>
      <trkpt lat="45.4174" lon="3.38483">
        <ele>503.3</ele>
        <time>2020-09-17T10:57:53Z</time>
      </trkpt>
      <trkpt lat="45.41741" lon="3.38482">
        <ele>503.4</ele>
        <time>2020-09-17T10:57:54Z</time>
      </trkpt>
      <trkpt lat="45.41741" lon="3.38482">
        <ele>503.4</ele>
        <time>2020-09-17T10:57:55Z</time>
      </trkpt>
      <trkpt lat="45.41742" lon="3.38481">
        <ele>503.5</ele>
        <time>2020-09-17T10:57:56Z</time>
      </trkpt>
      <trkpt lat="45.41743" lon="3.3848">
        <ele>503.6</ele>
        <time>2020-09-17T10:57:57Z</time>
      </trkpt>
      <trkpt lat="45.41743" lon="3.3848">
        <ele>503.7</ele>
        <time>2020-09-17T10:57:58Z</time>
      </trkpt>
      <trkpt lat="45.41744" lon="3.38479">
        <ele>503.9</ele>
        <time>2020-09-17T10:57:59Z</time>
      </trkpt>
      <trkpt lat="45.41745" lon="3.38479">
        <ele>503.9</ele>
        <time>2020-09-17T10:58:00Z</time>
      </trkpt>
      <trkpt lat="45.41745" lon="3.38479">
        <ele>504.1</ele>
        <time>2020-09-17T10:58:01Z</time>
      </trkpt>
      <trkpt lat="45.41746" lon="3.38479">
        <ele>504.2</ele>
        <time>2020-09-17T10:58:02Z</time>
      </trkpt>
      <trkpt lat="45.41746" lon="3.38479">
        <ele>504.3</ele>
        <time>2020-09-17T10:58:03Z</time>
      </trkpt>
      <trkpt lat="45.41747" lon="3.38478">
        <ele>504.5</ele>
        <time>2020-09-17T10:58:04Z</time>
      </trkpt>
      <trkpt lat="45.41747" lon="3.38478">
        <ele>504.6</ele>
        <time>2020-09-17T10:58:05Z</time>
      </trkpt>
      <trkpt lat="45.41748" lon="3.38478">
        <ele>504.6</ele>
        <time>2020-09-17T10:58:06Z</time>
      </trkpt>
      <trkpt lat="45.41748" lon="3.38478">
        <ele>504.6</ele>
        <time>2020-09-17T10:58:07Z</time>
      </trkpt>
      <trkpt lat="45.41748" lon="3.38478">
        <ele>504.6</ele>
        <time>2020-09-17T10:58:08Z</time>
      </trkpt>
      <trkpt lat="45.41748" lon="3.38478">
        <ele>504.6</ele>
        <time>2020-09-17T10:58:09Z</time>
      </trkpt>
      <trkpt lat="45.41748" lon="3.38478">
        <ele>504.6</ele>
        <time>2020-09-17T10:58:10Z</time>
      </trkpt>
      <trkpt lat="45.41748" lon="3.38477">
        <ele>504.6</ele>
        <time>2020-09-17T10:58:11Z</time>
      </trkpt>
      <trkpt lat="45.41748" lon="3.38477">
        <ele>504.6</ele>
        <time>2020-09-17T10:58:12Z</time>
      </trkpt>
      <trkpt lat="45.41748" lon="3.38477">
        <ele>504.6</ele>
        <time>2020-09-17T10:58:13Z</time>
      </trkpt>
      <trkpt lat="45.41749" lon="3.38476">
        <ele>504.5</ele>
        <time>2020-09-17T10:58:14Z</time>
      </trkpt>
      <trkpt lat="45.41749" lon="3.38476">
        <ele>504.6</ele>
        <time>2020-09-17T10:58:15Z</time>
      </trkpt>
      <trkpt lat="45.41749" lon="3.38475">
        <ele>504.5</ele>
        <time>2020-09-17T10:58:16Z</time>
      </trkpt>
      <trkpt lat="45.41749" lon="3.38475">
        <ele>504.5</ele>
        <time>2020-09-17T10:58:17Z</time>
      </trkpt>
      <trkpt lat="45.4175" lon="3.38474">
        <ele>504.5</ele>
        <time>2020-09-17T10:58:18Z</time>
      </trkpt>
      <trkpt lat="45.4175" lon="3.38474">
        <ele>504.8</ele>
        <time>2020-09-17T10:58:19Z</time>
      </trkpt>
      <trkpt lat="45.41751" lon="3.38474">
        <ele>504.9</ele>
        <time>2020-09-17T10:58:20Z</time>
      </trkpt>
      <trkpt lat="45.41751" lon="3.38474">
        <ele>505.3</ele>
        <time>2020-09-17T10:58:21Z</time>
      </trkpt>
      <trkpt lat="45.41751" lon="3.38474">
        <ele>505.6</ele>
        <time>2020-09-17T10:58:22Z</time>
      </trkpt>
      <trkpt lat="45.41752" lon="3.38475">
        <ele>505.8</ele>
        <time>2020-09-17T10:58:23Z</time>
      </trkpt>
      <trkpt lat="45.41752" lon="3.38475">
        <ele>506.3</ele>
        <time>2020-09-17T10:58:24Z</time>
      </trkpt>
      <trkpt lat="45.41752" lon="3.38475">
        <ele>506.6</ele>
        <time>2020-09-17T10:58:25Z</time>
      </trkpt>
      <trkpt lat="45.41753" lon="3.38475">
        <ele>506.8</ele>
        <time>2020-09-17T10:58:26Z</time>
      </trkpt>
      <trkpt lat="45.41753" lon="3.38476">
        <ele>506.8</ele>
        <time>2020-09-17T10:58:27Z</time>
      </trkpt>
      <trkpt lat="45.41753" lon="3.38476">
        <ele>507</ele>
        <time>2020-09-17T10:58:28Z</time>
      </trkpt>
      <trkpt lat="45.41753" lon="3.38476">
        <ele>507</ele>
        <time>2020-09-17T10:58:29Z</time>
      </trkpt>
      <trkpt lat="45.41753" lon="3.38475">
        <ele>506.9</ele>
        <time>2020-09-17T10:58:30Z</time>
      </trkpt>
      <trkpt lat="45.41753" lon="3.38475">
        <ele>506.9</ele>
        <time>2020-09-17T10:58:31Z</time>
      </trkpt>
      <trkpt lat="45.41753" lon="3.38475">
        <ele>506.9</ele>
        <time>2020-09-17T10:58:32Z</time>
      </trkpt>
      <trkpt lat="45.41753" lon="3.38475">
        <ele>506.9</ele>
        <time>2020-09-17T10:58:33Z</time>
      </trkpt>
      <trkpt lat="45.41753" lon="3.38475">
        <ele>506.9</ele>
        <time>2020-09-17T10:58:34Z</time>
      </trkpt>
      <trkpt lat="45.41753" lon="3.38475">
        <ele>506.9</ele>
        <time>2020-09-17T10:58:35Z</time>
      </trkpt>
      <trkpt lat="45.41753" lon="3.38475">
        <ele>506.9</ele>
        <time>2020-09-17T10:58:36Z</time>
      </trkpt>
      <trkpt lat="45.41753" lon="3.38475">
        <ele>506.9</ele>
        <time>2020-09-17T10:58:37Z</time>
      </trkpt>
      <trkpt lat="45.41753" lon="3.38475">
        <ele>506.9</ele>
        <time>2020-09-17T10:58:38Z</time>
      </trkpt>
      <trkpt lat="45.41753" lon="3.38476">
        <ele>507</ele>
        <time>2020-09-17T10:58:39Z</time>
      </trkpt>
      <trkpt lat="45.41753" lon="3.38476">
        <ele>507.1</ele>
        <time>2020-09-17T10:58:40Z</time>
      </trkpt>
      <trkpt lat="45.41753" lon="3.38476">
        <ele>507</ele>
        <time>2020-09-17T10:58:41Z</time>
      </trkpt>
      <trkpt lat="45.41753" lon="3.38477">
        <ele>507.1</ele>
        <time>2020-09-17T10:58:42Z</time>
      </trkpt>
      <trkpt lat="45.41753" lon="3.38477">
        <ele>507.2</ele>
        <time>2020-09-17T10:58:43Z</time>
      </trkpt>
      <trkpt lat="45.41753" lon="3.38477">
        <ele>507.1</ele>
        <time>2020-09-17T10:58:44Z</time>
      </trkpt>
      <trkpt lat="45.41753" lon="3.38477">
        <ele>507.2</ele>
        <time>2020-09-17T10:58:45Z</time>
      </trkpt>
      <trkpt lat="45.41753" lon="3.38478">
        <ele>507.4</ele>
        <time>2020-09-17T10:58:46Z</time>
      </trkpt>
      <trkpt lat="45.41753" lon="3.38478">
        <ele>507.4</ele>
        <time>2020-09-17T10:58:47Z</time>
      </trkpt>
      <trkpt lat="45.41753" lon="3.38478">
        <ele>507.5</ele>
        <time>2020-09-17T10:58:48Z</time>
      </trkpt>
      <trkpt lat="45.41752" lon="3.38479">
        <ele>507.5</ele>
        <time>2020-09-17T10:58:49Z</time>
      </trkpt>
      <trkpt lat="45.41752" lon="3.38479">
        <ele>507.6</ele>
        <time>2020-09-17T10:58:50Z</time>
      </trkpt>
      <trkpt lat="45.41752" lon="3.3848">
        <ele>507.7</ele>
        <time>2020-09-17T10:58:51Z</time>
      </trkpt>
      <trkpt lat="45.41753" lon="3.3848">
        <ele>508</ele>
        <time>2020-09-17T10:58:52Z</time>
      </trkpt>
      <trkpt lat="45.41753" lon="3.38481">
        <ele>508.1</ele>
        <time>2020-09-17T10:58:53Z</time>
      </trkpt>
      <trkpt lat="45.41753" lon="3.38481">
        <ele>508.2</ele>
        <time>2020-09-17T10:58:54Z</time>
      </trkpt>
      <trkpt lat="45.41753" lon="3.38481">
        <ele>508.2</ele>
        <time>2020-09-17T10:58:55Z</time>
      </trkpt>
      <trkpt lat="45.41753" lon="3.38482">
        <ele>508.5</ele>
        <time>2020-09-17T10:58:56Z</time>
      </trkpt>
      <trkpt lat="45.41753" lon="3.38483">
        <ele>508.7</ele>
        <time>2020-09-17T10:58:57Z</time>
      </trkpt>
      <trkpt lat="45.41752" lon="3.38484">
        <ele>508.7</ele>
        <time>2020-09-17T10:58:58Z</time>
      </trkpt>
      <trkpt lat="45.41752" lon="3.38485">
        <ele>508.6</ele>
        <time>2020-09-17T10:58:59Z</time>
      </trkpt>
      <trkpt lat="45.41752" lon="3.38485">
        <ele>508.6</ele>
        <time>2020-09-17T10:59:00Z</time>
      </trkpt>
      <trkpt lat="45.41752" lon="3.38486">
        <ele>508.9</ele>
        <time>2020-09-17T10:59:01Z</time>
      </trkpt>
      <trkpt lat="45.41752" lon="3.38487">
        <ele>509.1</ele>
        <time>2020-09-17T10:59:02Z</time>
      </trkpt>
      <trkpt lat="45.41752" lon="3.38488">
        <ele>509.3</ele>
        <time>2020-09-17T10:59:03Z</time>
      </trkpt>
      <trkpt lat="45.41752" lon="3.38488">
        <ele>509.5</ele>
        <time>2020-09-17T10:59:04Z</time>
      </trkpt>
      <trkpt lat="45.41752" lon="3.38489">
        <ele>509.5</ele>
        <time>2020-09-17T10:59:05Z</time>
      </trkpt>
      <trkpt lat="45.41752" lon="3.3849">
        <ele>509.7</ele>
        <time>2020-09-17T10:59:06Z</time>
      </trkpt>
      <trkpt lat="45.41752" lon="3.3849">
        <ele>509.6</ele>
        <time>2020-09-17T10:59:07Z</time>
      </trkpt>
      <trkpt lat="45.41751" lon="3.3849">
        <ele>509.5</ele>
        <time>2020-09-17T10:59:08Z</time>
      </trkpt>
      <trkpt lat="45.41751" lon="3.38491">
        <ele>509.7</ele>
        <time>2020-09-17T10:59:09Z</time>
      </trkpt>
      <trkpt lat="45.41751" lon="3.38492">
        <ele>509.9</ele>
        <time>2020-09-17T10:59:10Z</time>
      </trkpt>
      <trkpt lat="45.41751" lon="3.38493">
        <ele>510.1</ele>
        <time>2020-09-17T10:59:11Z</time>
      </trkpt>
      <trkpt lat="45.41751" lon="3.38494">
        <ele>510.3</ele>
        <time>2020-09-17T10:59:12Z</time>
      </trkpt>
      <trkpt lat="45.41752" lon="3.38495">
        <ele>510.7</ele>
        <time>2020-09-17T10:59:13Z</time>
      </trkpt>
      <trkpt lat="45.41751" lon="3.38496">
        <ele>510.8</ele>
        <time>2020-09-17T10:59:14Z</time>
      </trkpt>
      <trkpt lat="45.41751" lon="3.38497">
        <ele>510.9</ele>
        <time>2020-09-17T10:59:15Z</time>
      </trkpt>
      <trkpt lat="45.41751" lon="3.38498">
        <ele>511</ele>
        <time>2020-09-17T10:59:16Z</time>
      </trkpt>
      <trkpt lat="45.41751" lon="3.38499">
        <ele>511</ele>
        <time>2020-09-17T10:59:17Z</time>
      </trkpt>
      <trkpt lat="45.4175" lon="3.385">
        <ele>511.1</ele>
        <time>2020-09-17T10:59:18Z</time>
      </trkpt>
      <trkpt lat="45.4175" lon="3.38501">
        <ele>511.2</ele>
        <time>2020-09-17T10:59:19Z</time>
      </trkpt>
      <trkpt lat="45.4175" lon="3.38502">
        <ele>511.4</ele>
        <time>2020-09-17T10:59:20Z</time>
      </trkpt>
      <trkpt lat="45.4175" lon="3.38503">
        <ele>511.6</ele>
        <time>2020-09-17T10:59:21Z</time>
      </trkpt>
      <trkpt lat="45.41749" lon="3.38504">
        <ele>511.8</ele>
        <time>2020-09-17T10:59:22Z</time>
      </trkpt>
      <trkpt lat="45.41749" lon="3.38505">
        <ele>512.1</ele>
        <time>2020-09-17T10:59:23Z</time>
      </trkpt>
      <trkpt lat="45.41749" lon="3.38505">
        <ele>512.3</ele>
        <time>2020-09-17T10:59:24Z</time>
      </trkpt>
      <trkpt lat="45.41749" lon="3.38506">
        <ele>512.2</ele>
        <time>2020-09-17T10:59:25Z</time>
      </trkpt>
      <trkpt lat="45.41748" lon="3.38507">
        <ele>512.1</ele>
        <time>2020-09-17T10:59:26Z</time>
      </trkpt>
      <trkpt lat="45.41747" lon="3.38507">
        <ele>512.1</ele>
        <time>2020-09-17T10:59:27Z</time>
      </trkpt>
      <trkpt lat="45.41747" lon="3.38508">
        <ele>512.2</ele>
        <time>2020-09-17T10:59:28Z</time>
      </trkpt>
      <trkpt lat="45.41747" lon="3.38509">
        <ele>512.2</ele>
        <time>2020-09-17T10:59:29Z</time>
      </trkpt>
      <trkpt lat="45.41746" lon="3.38509">
        <ele>512.2</ele>
        <time>2020-09-17T10:59:30Z</time>
      </trkpt>
      <trkpt lat="45.41746" lon="3.3851">
        <ele>512.3</ele>
        <time>2020-09-17T10:59:31Z</time>
      </trkpt>
      <trkpt lat="45.41746" lon="3.3851">
        <ele>512.3</ele>
        <time>2020-09-17T10:59:32Z</time>
      </trkpt>
      <trkpt lat="45.41746" lon="3.38511">
        <ele>512.3</ele>
        <time>2020-09-17T10:59:33Z</time>
      </trkpt>
      <trkpt lat="45.41745" lon="3.38511">
        <ele>512.3</ele>
        <time>2020-09-17T10:59:34Z</time>
      </trkpt>
      <trkpt lat="45.41745" lon="3.38512">
        <ele>512.4</ele>
        <time>2020-09-17T10:59:35Z</time>
      </trkpt>
      <trkpt lat="45.41745" lon="3.38512">
        <ele>512.4</ele>
        <time>2020-09-17T10:59:36Z</time>
      </trkpt>
      <trkpt lat="45.41745" lon="3.38513">
        <ele>512.5</ele>
        <time>2020-09-17T10:59:37Z</time>
      </trkpt>
      <trkpt lat="45.41745" lon="3.38514">
        <ele>512.7</ele>
        <time>2020-09-17T10:59:38Z</time>
      </trkpt>
      <trkpt lat="45.41744" lon="3.38515">
        <ele>512.9</ele>
        <time>2020-09-17T10:59:39Z</time>
      </trkpt>
      <trkpt lat="45.41744" lon="3.38515">
        <ele>513</ele>
        <time>2020-09-17T10:59:40Z</time>
      </trkpt>
      <trkpt lat="45.41744" lon="3.38516">
        <ele>513.1</ele>
        <time>2020-09-17T10:59:41Z</time>
      </trkpt>
      <trkpt lat="45.41744" lon="3.38517">
        <ele>513.3</ele>
        <time>2020-09-17T10:59:42Z</time>
      </trkpt>
      <trkpt lat="45.41744" lon="3.38518">
        <ele>513.6</ele>
        <time>2020-09-17T10:59:43Z</time>
      </trkpt>
      <trkpt lat="45.41744" lon="3.38519">
        <ele>514</ele>
        <time>2020-09-17T10:59:44Z</time>
      </trkpt>
      <trkpt lat="45.41744" lon="3.3852">
        <ele>514.2</ele>
        <time>2020-09-17T10:59:45Z</time>
      </trkpt>
      <trkpt lat="45.41744" lon="3.38521">
        <ele>514.5</ele>
        <time>2020-09-17T10:59:46Z</time>
      </trkpt>
      <trkpt lat="45.41744" lon="3.38522">
        <ele>514.8</ele>
        <time>2020-09-17T10:59:47Z</time>
      </trkpt>
      <trkpt lat="45.41744" lon="3.38523">
        <ele>514.9</ele>
        <time>2020-09-17T10:59:48Z</time>
      </trkpt>
      <trkpt lat="45.41744" lon="3.38524">
        <ele>515.2</ele>
        <time>2020-09-17T10:59:49Z</time>
      </trkpt>
      <trkpt lat="45.41744" lon="3.38525">
        <ele>515.4</ele>
        <time>2020-09-17T10:59:50Z</time>
      </trkpt>
      <trkpt lat="45.41744" lon="3.38525">
        <ele>515.5</ele>
        <time>2020-09-17T10:59:51Z</time>
      </trkpt>
      <trkpt lat="45.41744" lon="3.38526">
        <ele>515.7</ele>
        <time>2020-09-17T10:59:52Z</time>
      </trkpt>
      <trkpt lat="45.41744" lon="3.38527">
        <ele>516.1</ele>
        <time>2020-09-17T10:59:53Z</time>
      </trkpt>
      <trkpt lat="45.41744" lon="3.38528">
        <ele>516.3</ele>
        <time>2020-09-17T10:59:54Z</time>
      </trkpt>
      <trkpt lat="45.41744" lon="3.38528">
        <ele>516.4</ele>
        <time>2020-09-17T10:59:55Z</time>
      </trkpt>
      <trkpt lat="45.41744" lon="3.38529">
        <ele>516.5</ele>
        <time>2020-09-17T10:59:56Z</time>
      </trkpt>
      <trkpt lat="45.41744" lon="3.38529">
        <ele>516.7</ele>
        <time>2020-09-17T10:59:57Z</time>
      </trkpt>
      <trkpt lat="45.41744" lon="3.3853">
        <ele>516.9</ele>
        <time>2020-09-17T10:59:58Z</time>
      </trkpt>
      <trkpt lat="45.41744" lon="3.38531">
        <ele>517.2</ele>
        <time>2020-09-17T10:59:59Z</time>
      </trkpt>
      <trkpt lat="45.41744" lon="3.38531">
        <ele>517.3</ele>
        <time>2020-09-17T11:00:00Z</time>
      </trkpt>
      <trkpt lat="45.41744" lon="3.38532">
        <ele>517.6</ele>
        <time>2020-09-17T11:00:01Z</time>
      </trkpt>
      <trkpt lat="45.41744" lon="3.38533">
        <ele>518</ele>
        <time>2020-09-17T11:00:02Z</time>
      </trkpt>
      <trkpt lat="45.41744" lon="3.38534">
        <ele>518.3</ele>
        <time>2020-09-17T11:00:03Z</time>
      </trkpt>
      <trkpt lat="45.41744" lon="3.38535">
        <ele>518.4</ele>
        <time>2020-09-17T11:00:04Z</time>
      </trkpt>
      <trkpt lat="45.41744" lon="3.38536">
        <ele>518.5</ele>
        <time>2020-09-17T11:00:05Z</time>
      </trkpt>
      <trkpt lat="45.41744" lon="3.38536">
        <ele>518.6</ele>
        <time>2020-09-17T11:00:06Z</time>
      </trkpt>
      <trkpt lat="45.41744" lon="3.38537">
        <ele>518.7</ele>
        <time>2020-09-17T11:00:07Z</time>
      </trkpt>
      <trkpt lat="45.41744" lon="3.38538">
        <ele>519</ele>
        <time>2020-09-17T11:00:08Z</time>
      </trkpt>
      <trkpt lat="45.41744" lon="3.38539">
        <ele>519.2</ele>
        <time>2020-09-17T11:00:09Z</time>
      </trkpt>
      <trkpt lat="45.41744" lon="3.3854">
        <ele>519.5</ele>
        <time>2020-09-17T11:00:10Z</time>
      </trkpt>
      <trkpt lat="45.41744" lon="3.38541">
        <ele>519.7</ele>
        <time>2020-09-17T11:00:11Z</time>
      </trkpt>
      <trkpt lat="45.41744" lon="3.38542">
        <ele>520</ele>
        <time>2020-09-17T11:00:12Z</time>
      </trkpt>
      <trkpt lat="45.41744" lon="3.38543">
        <ele>520.2</ele>
        <time>2020-09-17T11:00:13Z</time>
      </trkpt>
      <trkpt lat="45.41744" lon="3.38544">
        <ele>520.6</ele>
        <time>2020-09-17T11:00:14Z</time>
      </trkpt>
      <trkpt lat="45.41744" lon="3.38545">
        <ele>520.8</ele>
        <time>2020-09-17T11:00:15Z</time>
      </trkpt>
      <trkpt lat="45.41744" lon="3.38546">
        <ele>521.1</ele>
        <time>2020-09-17T11:00:16Z</time>
      </trkpt>
      <trkpt lat="45.41744" lon="3.38547">
        <ele>521.3</ele>
        <time>2020-09-17T11:00:17Z</time>
      </trkpt>
      <trkpt lat="45.41743" lon="3.38548">
        <ele>521.4</ele>
        <time>2020-09-17T11:00:18Z</time>
      </trkpt>
      <trkpt lat="45.41743" lon="3.38549">
        <ele>521.6</ele>
        <time>2020-09-17T11:00:19Z</time>
      </trkpt>
      <trkpt lat="45.41743" lon="3.3855">
        <ele>521.8</ele>
        <time>2020-09-17T11:00:20Z</time>
      </trkpt>
      <trkpt lat="45.41743" lon="3.38551">
        <ele>522.1</ele>
        <time>2020-09-17T11:00:21Z</time>
      </trkpt>
      <trkpt lat="45.41743" lon="3.38551">
        <ele>522.2</ele>
        <time>2020-09-17T11:00:22Z</time>
      </trkpt>
      <trkpt lat="45.41743" lon="3.38552">
        <ele>522.4</ele>
        <time>2020-09-17T11:00:23Z</time>
      </trkpt>
      <trkpt lat="45.41743" lon="3.38552">
        <ele>522.5</ele>
        <time>2020-09-17T11:00:24Z</time>
      </trkpt>
      <trkpt lat="45.41743" lon="3.38553">
        <ele>522.8</ele>
        <time>2020-09-17T11:00:25Z</time>
      </trkpt>
      <trkpt lat="45.41743" lon="3.38554">
        <ele>523.1</ele>
        <time>2020-09-17T11:00:26Z</time>
      </trkpt>
      <trkpt lat="45.41743" lon="3.38555">
        <ele>523.3</ele>
        <time>2020-09-17T11:00:27Z</time>
      </trkpt>
      <trkpt lat="45.41743" lon="3.38556">
        <ele>523.4</ele>
        <time>2020-09-17T11:00:28Z</time>
      </trkpt>
      <trkpt lat="45.41743" lon="3.38557">
        <ele>523.4</ele>
        <time>2020-09-17T11:00:29Z</time>
      </trkpt>
      <trkpt lat="45.41743" lon="3.38558">
        <ele>523.6</ele>
        <time>2020-09-17T11:00:30Z</time>
      </trkpt>
      <trkpt lat="45.41743" lon="3.38559">
        <ele>523.6</ele>
        <time>2020-09-17T11:00:31Z</time>
      </trkpt>
      <trkpt lat="45.41743" lon="3.3856">
        <ele>523.7</ele>
        <time>2020-09-17T11:00:32Z</time>
      </trkpt>
      <trkpt lat="45.41743" lon="3.38561">
        <ele>523.7</ele>
        <time>2020-09-17T11:00:33Z</time>
      </trkpt>
      <trkpt lat="45.41743" lon="3.38562">
        <ele>523.8</ele>
        <time>2020-09-17T11:00:34Z</time>
      </trkpt>
      <trkpt lat="45.41743" lon="3.38564">
        <ele>523.9</ele>
        <time>2020-09-17T11:00:35Z</time>
      </trkpt>
      <trkpt lat="45.41743" lon="3.38565">
        <ele>524</ele>
        <time>2020-09-17T11:00:36Z</time>
      </trkpt>
      <trkpt lat="45.41743" lon="3.38566">
        <ele>524.2</ele>
        <time>2020-09-17T11:00:37Z</time>
      </trkpt>
      <trkpt lat="45.41743" lon="3.38567">
        <ele>524.3</ele>
        <time>2020-09-17T11:00:38Z</time>
      </trkpt>
      <trkpt lat="45.41743" lon="3.38569">
        <ele>524.5</ele>
        <time>2020-09-17T11:00:39Z</time>
      </trkpt>
      <trkpt lat="45.41743" lon="3.3857">
        <ele>524.7</ele>
        <time>2020-09-17T11:00:40Z</time>
      </trkpt>
      <trkpt lat="45.41744" lon="3.38571">
        <ele>524.9</ele>
        <time>2020-09-17T11:00:41Z</time>
      </trkpt>
      <trkpt lat="45.41744" lon="3.38572">
        <ele>525</ele>
        <time>2020-09-17T11:00:42Z</time>
      </trkpt>
      <trkpt lat="45.41744" lon="3.38572">
        <ele>525.3</ele>
        <time>2020-09-17T11:00:43Z</time>
      </trkpt>
      <trkpt lat="45.41745" lon="3.38573">
        <ele>525.5</ele>
        <time>2020-09-17T11:00:44Z</time>
      </trkpt>
      <trkpt lat="45.41745" lon="3.38574">
        <ele>525.7</ele>
        <time>2020-09-17T11:00:45Z</time>
      </trkpt>
      <trkpt lat="45.41745" lon="3.38575">
        <ele>525.9</ele>
        <time>2020-09-17T11:00:46Z</time>
      </trkpt>
      <trkpt lat="45.41745" lon="3.38576">
        <ele>526</ele>
        <time>2020-09-17T11:00:47Z</time>
      </trkpt>
      <trkpt lat="45.41745" lon="3.38577">
        <ele>526.1</ele>
        <time>2020-09-17T11:00:48Z</time>
      </trkpt>
      <trkpt lat="45.41745" lon="3.38578">
        <ele>526.4</ele>
        <time>2020-09-17T11:00:49Z</time>
      </trkpt>
      <trkpt lat="45.41746" lon="3.3858">
        <ele>526.6</ele>
        <time>2020-09-17T11:00:50Z</time>
      </trkpt>
      <trkpt lat="45.41746" lon="3.38581">
        <ele>526.9</ele>
        <time>2020-09-17T11:00:51Z</time>
      </trkpt>
      <trkpt lat="45.41746" lon="3.38582">
        <ele>527.1</ele>
        <time>2020-09-17T11:00:52Z</time>
      </trkpt>
      <trkpt lat="45.41747" lon="3.38583">
        <ele>527.4</ele>
        <time>2020-09-17T11:00:53Z</time>
      </trkpt>
      <trkpt lat="45.41747" lon="3.38584">
        <ele>527.6</ele>
        <time>2020-09-17T11:00:54Z</time>
      </trkpt>
      <trkpt lat="45.41747" lon="3.38585">
        <ele>527.6</ele>
        <time>2020-09-17T11:00:55Z</time>
      </trkpt>
      <trkpt lat="45.41748" lon="3.38586">
        <ele>527.7</ele>
        <time>2020-09-17T11:00:56Z</time>
      </trkpt>
      <trkpt lat="45.41748" lon="3.38588">
        <ele>527.7</ele>
        <time>2020-09-17T11:00:57Z</time>
      </trkpt>
      <trkpt lat="45.41748" lon="3.38589">
        <ele>527.8</ele>
        <time>2020-09-17T11:00:58Z</time>
      </trkpt>
      <trkpt lat="45.41749" lon="3.3859">
        <ele>527.9</ele>
        <time>2020-09-17T11:00:59Z</time>
      </trkpt>
      <trkpt lat="45.41749" lon="3.38591">
        <ele>528</ele>
        <time>2020-09-17T11:01:00Z</time>
      </trkpt>
      <trkpt lat="45.41749" lon="3.38592">
        <ele>528.1</ele>
        <time>2020-09-17T11:01:01Z</time>
      </trkpt>
      <trkpt lat="45.4175" lon="3.38592">
        <ele>528.1</ele>
        <time>2020-09-17T11:01:02Z</time>
      </trkpt>
      <trkpt lat="45.4175" lon="3.38593">
        <ele>528.2</ele>
        <time>2020-09-17T11:01:03Z</time>
      </trkpt>
      <trkpt lat="45.4175" lon="3.38594">
        <ele>528.4</ele>
        <time>2020-09-17T11:01:04Z</time>
      </trkpt>
      <trkpt lat="45.41751" lon="3.38594">
        <ele>528.5</ele>
        <time>2020-09-17T11:01:05Z</time>
      </trkpt>
      <trkpt lat="45.41752" lon="3.38595">
        <ele>528.7</ele>
        <time>2020-09-17T11:01:06Z</time>
      </trkpt>
      <trkpt lat="45.41752" lon="3.38595">
        <ele>528.8</ele>
        <time>2020-09-17T11:01:07Z</time>
      </trkpt>
      <trkpt lat="45.41753" lon="3.38595">
        <ele>529.1</ele>
        <time>2020-09-17T11:01:08Z</time>
      </trkpt>
      <trkpt lat="45.41754" lon="3.38595">
        <ele>529.4</ele>
        <time>2020-09-17T11:01:09Z</time>
      </trkpt>
      <trkpt lat="45.41755" lon="3.38594">
        <ele>529.7</ele>
        <time>2020-09-17T11:01:10Z</time>
      </trkpt>
      <trkpt lat="45.41756" lon="3.38594">
        <ele>530</ele>
        <time>2020-09-17T11:01:11Z</time>
      </trkpt>
      <trkpt lat="45.41756" lon="3.38593">
        <ele>530.2</ele>
        <time>2020-09-17T11:01:12Z</time>
      </trkpt>
      <trkpt lat="45.41757" lon="3.38593">
        <ele>530.4</ele>
        <time>2020-09-17T11:01:13Z</time>
      </trkpt>
      <trkpt lat="45.41758" lon="3.38592">
        <ele>530.7</ele>
        <time>2020-09-17T11:01:14Z</time>
      </trkpt>
      <trkpt lat="45.41758" lon="3.38591">
        <ele>530.9</ele>
        <time>2020-09-17T11:01:15Z</time>
      </trkpt>
      <trkpt lat="45.41759" lon="3.38591">
        <ele>531.2</ele>
        <time>2020-09-17T11:01:16Z</time>
      </trkpt>
      <trkpt lat="45.41759" lon="3.3859">
        <ele>531.4</ele>
        <time>2020-09-17T11:01:17Z</time>
      </trkpt>
      <trkpt lat="45.4176" lon="3.38589">
        <ele>531.7</ele>
        <time>2020-09-17T11:01:18Z</time>
      </trkpt>
      <trkpt lat="45.4176" lon="3.38588">
        <ele>531.9</ele>
        <time>2020-09-17T11:01:19Z</time>
      </trkpt>
      <trkpt lat="45.41761" lon="3.38588">
        <ele>532.1</ele>
        <time>2020-09-17T11:01:20Z</time>
      </trkpt>
      <trkpt lat="45.41761" lon="3.38587">
        <ele>532.3</ele>
        <time>2020-09-17T11:01:21Z</time>
      </trkpt>
      <trkpt lat="45.41761" lon="3.38586">
        <ele>532.5</ele>
        <time>2020-09-17T11:01:22Z</time>
      </trkpt>
      <trkpt lat="45.41762" lon="3.38584">
        <ele>532.6</ele>
        <time>2020-09-17T11:01:23Z</time>
      </trkpt>
      <trkpt lat="45.41762" lon="3.38583">
        <ele>532.8</ele>
        <time>2020-09-17T11:01:24Z</time>
      </trkpt>
      <trkpt lat="45.41762" lon="3.38583">
        <ele>532.9</ele>
        <time>2020-09-17T11:01:25Z</time>
      </trkpt>
      <trkpt lat="45.41763" lon="3.38582">
        <ele>533</ele>
        <time>2020-09-17T11:01:26Z</time>
      </trkpt>
      <trkpt lat="45.41763" lon="3.38582">
        <ele>533.1</ele>
        <time>2020-09-17T11:01:27Z</time>
      </trkpt>
      <trkpt lat="45.41764" lon="3.38581">
        <ele>533.1</ele>
        <time>2020-09-17T11:01:28Z</time>
      </trkpt>
      <trkpt lat="45.41764" lon="3.3858">
        <ele>533.2</ele>
        <time>2020-09-17T11:01:29Z</time>
      </trkpt>
      <trkpt lat="45.41764" lon="3.3858">
        <ele>533.2</ele>
        <time>2020-09-17T11:01:30Z</time>
      </trkpt>
      <trkpt lat="45.41765" lon="3.38579">
        <ele>533.3</ele>
        <time>2020-09-17T11:01:31Z</time>
      </trkpt>
      <trkpt lat="45.41765" lon="3.38578">
        <ele>533.4</ele>
        <time>2020-09-17T11:01:32Z</time>
      </trkpt>
      <trkpt lat="45.41766" lon="3.38578">
        <ele>533.5</ele>
        <time>2020-09-17T11:01:33Z</time>
      </trkpt>
      <trkpt lat="45.41766" lon="3.38577">
        <ele>533.6</ele>
        <time>2020-09-17T11:01:34Z</time>
      </trkpt>
      <trkpt lat="45.41767" lon="3.38577">
        <ele>533.8</ele>
        <time>2020-09-17T11:01:35Z</time>
      </trkpt>
      <trkpt lat="45.41768" lon="3.38576">
        <ele>533.9</ele>
        <time>2020-09-17T11:01:36Z</time>
      </trkpt>
      <trkpt lat="45.41768" lon="3.38576">
        <ele>534</ele>
        <time>2020-09-17T11:01:37Z</time>
      </trkpt>
      <trkpt lat="45.41769" lon="3.38575">
        <ele>534.2</ele>
        <time>2020-09-17T11:01:38Z</time>
      </trkpt>
      <trkpt lat="45.41769" lon="3.38575">
        <ele>534.4</ele>
        <time>2020-09-17T11:01:39Z</time>
      </trkpt>
      <trkpt lat="45.4177" lon="3.38575">
        <ele>534.5</ele>
        <time>2020-09-17T11:01:40Z</time>
      </trkpt>
      <trkpt lat="45.41771" lon="3.38574">
        <ele>534.7</ele>
        <time>2020-09-17T11:01:41Z</time>
      </trkpt>
      <trkpt lat="45.41771" lon="3.38574">
        <ele>534.8</ele>
        <time>2020-09-17T11:01:42Z</time>
      </trkpt>
      <trkpt lat="45.41772" lon="3.38574">
        <ele>535</ele>
        <time>2020-09-17T11:01:43Z</time>
      </trkpt>
      <trkpt lat="45.41772" lon="3.38573">
        <ele>535.1</ele>
        <time>2020-09-17T11:01:44Z</time>
      </trkpt>
      <trkpt lat="45.41773" lon="3.38573">
        <ele>535.2</ele>
        <time>2020-09-17T11:01:45Z</time>
      </trkpt>
      <trkpt lat="45.41773" lon="3.38573">
        <ele>535.4</ele>
        <time>2020-09-17T11:01:46Z</time>
      </trkpt>
      <trkpt lat="45.41774" lon="3.38573">
        <ele>535.5</ele>
        <time>2020-09-17T11:01:47Z</time>
      </trkpt>
      <trkpt lat="45.41774" lon="3.38572">
        <ele>535.6</ele>
        <time>2020-09-17T11:01:48Z</time>
      </trkpt>
      <trkpt lat="45.41775" lon="3.38572">
        <ele>535.8</ele>
        <time>2020-09-17T11:01:49Z</time>
      </trkpt>
      <trkpt lat="45.41776" lon="3.38572">
        <ele>536</ele>
        <time>2020-09-17T11:01:50Z</time>
      </trkpt>
      <trkpt lat="45.41776" lon="3.38572">
        <ele>536.1</ele>
        <time>2020-09-17T11:01:51Z</time>
      </trkpt>
      <trkpt lat="45.41776" lon="3.38572">
        <ele>536.3</ele>
        <time>2020-09-17T11:01:52Z</time>
      </trkpt>
      <trkpt lat="45.41777" lon="3.38572">
        <ele>536.4</ele>
        <time>2020-09-17T11:01:53Z</time>
      </trkpt>
      <trkpt lat="45.41778" lon="3.38572">
        <ele>536.7</ele>
        <time>2020-09-17T11:01:54Z</time>
      </trkpt>
      <trkpt lat="45.41778" lon="3.38572">
        <ele>536.8</ele>
        <time>2020-09-17T11:01:55Z</time>
      </trkpt>
      <trkpt lat="45.41779" lon="3.38571">
        <ele>536.9</ele>
        <time>2020-09-17T11:01:56Z</time>
      </trkpt>
      <trkpt lat="45.41779" lon="3.38571">
        <ele>537.1</ele>
        <time>2020-09-17T11:01:57Z</time>
      </trkpt>
      <trkpt lat="45.4178" lon="3.38571">
        <ele>537.2</ele>
        <time>2020-09-17T11:01:58Z</time>
      </trkpt>
      <trkpt lat="45.41781" lon="3.38571">
        <ele>537.4</ele>
        <time>2020-09-17T11:01:59Z</time>
      </trkpt>
      <trkpt lat="45.41781" lon="3.38571">
        <ele>537.6</ele>
        <time>2020-09-17T11:02:00Z</time>
      </trkpt>
      <trkpt lat="45.41782" lon="3.38571">
        <ele>537.7</ele>
        <time>2020-09-17T11:02:01Z</time>
      </trkpt>
      <trkpt lat="45.41783" lon="3.38571">
        <ele>537.9</ele>
        <time>2020-09-17T11:02:02Z</time>
      </trkpt>
      <trkpt lat="45.41783" lon="3.38571">
        <ele>538.1</ele>
        <time>2020-09-17T11:02:03Z</time>
      </trkpt>
      <trkpt lat="45.41784" lon="3.38571">
        <ele>538.3</ele>
        <time>2020-09-17T11:02:04Z</time>
      </trkpt>
      <trkpt lat="45.41785" lon="3.38571">
        <ele>538.5</ele>
        <time>2020-09-17T11:02:05Z</time>
      </trkpt>
      <trkpt lat="45.41786" lon="3.38571">
        <ele>538.8</ele>
        <time>2020-09-17T11:02:06Z</time>
      </trkpt>
      <trkpt lat="45.41786" lon="3.38572">
        <ele>538.9</ele>
        <time>2020-09-17T11:02:07Z</time>
      </trkpt>
      <trkpt lat="45.41787" lon="3.38572">
        <ele>539.1</ele>
        <time>2020-09-17T11:02:08Z</time>
      </trkpt>
      <trkpt lat="45.41787" lon="3.38572">
        <ele>539.3</ele>
        <time>2020-09-17T11:02:09Z</time>
      </trkpt>
      <trkpt lat="45.41787" lon="3.38573">
        <ele>539.4</ele>
        <time>2020-09-17T11:02:10Z</time>
      </trkpt>
      <trkpt lat="45.41788" lon="3.38573">
        <ele>539.5</ele>
        <time>2020-09-17T11:02:11Z</time>
      </trkpt>
      <trkpt lat="45.41788" lon="3.38573">
        <ele>539.7</ele>
        <time>2020-09-17T11:02:12Z</time>
      </trkpt>
      <trkpt lat="45.41789" lon="3.38573">
        <ele>539.9</ele>
        <time>2020-09-17T11:02:13Z</time>
      </trkpt>
      <trkpt lat="45.4179" lon="3.38574">
        <ele>540.1</ele>
        <time>2020-09-17T11:02:14Z</time>
      </trkpt>
      <trkpt lat="45.4179" lon="3.38574">
        <ele>540.3</ele>
        <time>2020-09-17T11:02:15Z</time>
      </trkpt>
      <trkpt lat="45.41791" lon="3.38574">
        <ele>540.4</ele>
        <time>2020-09-17T11:02:16Z</time>
      </trkpt>
      <trkpt lat="45.41791" lon="3.38574">
        <ele>540.5</ele>
        <time>2020-09-17T11:02:17Z</time>
      </trkpt>
      <trkpt lat="45.41792" lon="3.38574">
        <ele>540.6</ele>
        <time>2020-09-17T11:02:18Z</time>
      </trkpt>
      <trkpt lat="45.41792" lon="3.38574">
        <ele>540.8</ele>
        <time>2020-09-17T11:02:19Z</time>
      </trkpt>
      <trkpt lat="45.41793" lon="3.38574">
        <ele>540.9</ele>
        <time>2020-09-17T11:02:20Z</time>
      </trkpt>
      <trkpt lat="45.41793" lon="3.38574">
        <ele>541.1</ele>
        <time>2020-09-17T11:02:21Z</time>
      </trkpt>
      <trkpt lat="45.41794" lon="3.38574">
        <ele>541.2</ele>
        <time>2020-09-17T11:02:22Z</time>
      </trkpt>
      <trkpt lat="45.41795" lon="3.38574">
        <ele>541.4</ele>
        <time>2020-09-17T11:02:23Z</time>
      </trkpt>
      <trkpt lat="45.41795" lon="3.38573">
        <ele>541.6</ele>
        <time>2020-09-17T11:02:24Z</time>
      </trkpt>
      <trkpt lat="45.41796" lon="3.38573">
        <ele>541.8</ele>
        <time>2020-09-17T11:02:25Z</time>
      </trkpt>
      <trkpt lat="45.41797" lon="3.38573">
        <ele>541.9</ele>
        <time>2020-09-17T11:02:26Z</time>
      </trkpt>
      <trkpt lat="45.41798" lon="3.38572">
        <ele>542.1</ele>
        <time>2020-09-17T11:02:27Z</time>
      </trkpt>
      <trkpt lat="45.41799" lon="3.38571">
        <ele>542.3</ele>
        <time>2020-09-17T11:02:28Z</time>
      </trkpt>
      <trkpt lat="45.418" lon="3.38571">
        <ele>542.6</ele>
        <time>2020-09-17T11:02:29Z</time>
      </trkpt>
      <trkpt lat="45.41801" lon="3.3857">
        <ele>542.8</ele>
        <time>2020-09-17T11:02:30Z</time>
      </trkpt>
      <trkpt lat="45.41802" lon="3.3857">
        <ele>543</ele>
        <time>2020-09-17T11:02:31Z</time>
      </trkpt>
      <trkpt lat="45.41803" lon="3.38569">
        <ele>543.2</ele>
        <time>2020-09-17T11:02:32Z</time>
      </trkpt>
      <trkpt lat="45.41803" lon="3.38569">
        <ele>543.3</ele>
        <time>2020-09-17T11:02:33Z</time>
      </trkpt>
      <trkpt lat="45.41804" lon="3.38568">
        <ele>543.5</ele>
        <time>2020-09-17T11:02:34Z</time>
      </trkpt>
      <trkpt lat="45.41805" lon="3.38567">
        <ele>543.7</ele>
        <time>2020-09-17T11:02:35Z</time>
      </trkpt>
      <trkpt lat="45.41805" lon="3.38567">
        <ele>543.7</ele>
        <time>2020-09-17T11:02:36Z</time>
      </trkpt>
      <trkpt lat="45.41806" lon="3.38566">
        <ele>543.9</ele>
        <time>2020-09-17T11:02:37Z</time>
      </trkpt>
      <trkpt lat="45.41807" lon="3.38565">
        <ele>544.1</ele>
        <time>2020-09-17T11:02:38Z</time>
      </trkpt>
      <trkpt lat="45.41808" lon="3.38564">
        <ele>544.3</ele>
        <time>2020-09-17T11:02:39Z</time>
      </trkpt>
      <trkpt lat="45.41809" lon="3.38564">
        <ele>544.5</ele>
        <time>2020-09-17T11:02:40Z</time>
      </trkpt>
      <trkpt lat="45.41809" lon="3.38563">
        <ele>544.6</ele>
        <time>2020-09-17T11:02:41Z</time>
      </trkpt>
      <trkpt lat="45.4181" lon="3.38562">
        <ele>544.8</ele>
        <time>2020-09-17T11:02:42Z</time>
      </trkpt>
      <trkpt lat="45.4181" lon="3.38562">
        <ele>545</ele>
        <time>2020-09-17T11:02:43Z</time>
      </trkpt>
      <trkpt lat="45.41811" lon="3.38561">
        <ele>545.3</ele>
        <time>2020-09-17T11:02:44Z</time>
      </trkpt>
      <trkpt lat="45.41812" lon="3.38561">
        <ele>545.5</ele>
        <time>2020-09-17T11:02:45Z</time>
      </trkpt>
      <trkpt lat="45.41813" lon="3.3856">
        <ele>545.7</ele>
        <time>2020-09-17T11:02:46Z</time>
      </trkpt>
      <trkpt lat="45.41814" lon="3.3856">
        <ele>546</ele>
        <time>2020-09-17T11:02:47Z</time>
      </trkpt>
      <trkpt lat="45.41815" lon="3.38559">
        <ele>546.1</ele>
        <time>2020-09-17T11:02:48Z</time>
      </trkpt>
      <trkpt lat="45.41815" lon="3.38559">
        <ele>546.3</ele>
        <time>2020-09-17T11:02:49Z</time>
      </trkpt>
      <trkpt lat="45.41816" lon="3.38558">
        <ele>546.5</ele>
        <time>2020-09-17T11:02:50Z</time>
      </trkpt>
      <trkpt lat="45.41817" lon="3.38558">
        <ele>546.7</ele>
        <time>2020-09-17T11:02:51Z</time>
      </trkpt>
      <trkpt lat="45.41817" lon="3.38557">
        <ele>546.9</ele>
        <time>2020-09-17T11:02:52Z</time>
      </trkpt>
      <trkpt lat="45.41818" lon="3.38557">
        <ele>547.2</ele>
        <time>2020-09-17T11:02:53Z</time>
      </trkpt>
      <trkpt lat="45.41819" lon="3.38556">
        <ele>547.3</ele>
        <time>2020-09-17T11:02:54Z</time>
      </trkpt>
      <trkpt lat="45.41819" lon="3.38555">
        <ele>547.4</ele>
        <time>2020-09-17T11:02:55Z</time>
      </trkpt>
      <trkpt lat="45.4182" lon="3.38554">
        <ele>547.6</ele>
        <time>2020-09-17T11:02:56Z</time>
      </trkpt>
      <trkpt lat="45.41821" lon="3.38554">
        <ele>547.7</ele>
        <time>2020-09-17T11:02:57Z</time>
      </trkpt>
      <trkpt lat="45.41822" lon="3.38553">
        <ele>548</ele>
        <time>2020-09-17T11:02:58Z</time>
      </trkpt>
      <trkpt lat="45.41822" lon="3.38552">
        <ele>548.1</ele>
        <time>2020-09-17T11:02:59Z</time>
      </trkpt>
      <trkpt lat="45.41823" lon="3.38552">
        <ele>548.3</ele>
        <time>2020-09-17T11:03:00Z</time>
      </trkpt>
      <trkpt lat="45.41824" lon="3.38551">
        <ele>548.5</ele>
        <time>2020-09-17T11:03:01Z</time>
      </trkpt>
      <trkpt lat="45.41824" lon="3.38551">
        <ele>548.7</ele>
        <time>2020-09-17T11:03:02Z</time>
      </trkpt>
      <trkpt lat="45.41825" lon="3.3855">
        <ele>548.9</ele>
        <time>2020-09-17T11:03:03Z</time>
      </trkpt>
      <trkpt lat="45.41826" lon="3.38549">
        <ele>549</ele>
        <time>2020-09-17T11:03:04Z</time>
      </trkpt>
      <trkpt lat="45.41826" lon="3.38548">
        <ele>549.2</ele>
        <time>2020-09-17T11:03:05Z</time>
      </trkpt>
      <trkpt lat="45.41827" lon="3.38548">
        <ele>549.3</ele>
        <time>2020-09-17T11:03:06Z</time>
      </trkpt>
      <trkpt lat="45.41828" lon="3.38547">
        <ele>549.5</ele>
        <time>2020-09-17T11:03:07Z</time>
      </trkpt>
      <trkpt lat="45.41828" lon="3.38546">
        <ele>549.6</ele>
        <time>2020-09-17T11:03:08Z</time>
      </trkpt>
      <trkpt lat="45.41829" lon="3.38545">
        <ele>549.7</ele>
        <time>2020-09-17T11:03:09Z</time>
      </trkpt>
      <trkpt lat="45.4183" lon="3.38544">
        <ele>549.9</ele>
        <time>2020-09-17T11:03:10Z</time>
      </trkpt>
      <trkpt lat="45.41831" lon="3.38543">
        <ele>550.2</ele>
        <time>2020-09-17T11:03:11Z</time>
      </trkpt>
      <trkpt lat="45.41831" lon="3.38542">
        <ele>550.4</ele>
        <time>2020-09-17T11:03:12Z</time>
      </trkpt>
      <trkpt lat="45.41832" lon="3.38542">
        <ele>550.6</ele>
        <time>2020-09-17T11:03:13Z</time>
      </trkpt>
      <trkpt lat="45.41833" lon="3.38541">
        <ele>550.8</ele>
        <time>2020-09-17T11:03:14Z</time>
      </trkpt>
      <trkpt lat="45.41834" lon="3.3854">
        <ele>550.9</ele>
        <time>2020-09-17T11:03:15Z</time>
      </trkpt>
      <trkpt lat="45.41834" lon="3.38539">
        <ele>551</ele>
        <time>2020-09-17T11:03:16Z</time>
      </trkpt>
      <trkpt lat="45.41835" lon="3.38538">
        <ele>551.2</ele>
        <time>2020-09-17T11:03:17Z</time>
      </trkpt>
      <trkpt lat="45.41836" lon="3.38537">
        <ele>551.4</ele>
        <time>2020-09-17T11:03:18Z</time>
      </trkpt>
      <trkpt lat="45.41837" lon="3.38537">
        <ele>551.6</ele>
        <time>2020-09-17T11:03:19Z</time>
      </trkpt>
      <trkpt lat="45.41837" lon="3.38536">
        <ele>551.8</ele>
        <time>2020-09-17T11:03:20Z</time>
      </trkpt>
      <trkpt lat="45.41838" lon="3.38535">
        <ele>551.9</ele>
        <time>2020-09-17T11:03:21Z</time>
      </trkpt>
      <trkpt lat="45.41838" lon="3.38535">
        <ele>552</ele>
        <time>2020-09-17T11:03:22Z</time>
      </trkpt>
      <trkpt lat="45.41839" lon="3.38534">
        <ele>552.2</ele>
        <time>2020-09-17T11:03:23Z</time>
      </trkpt>
      <trkpt lat="45.4184" lon="3.38533">
        <ele>552.4</ele>
        <time>2020-09-17T11:03:24Z</time>
      </trkpt>
      <trkpt lat="45.41841" lon="3.38533">
        <ele>552.5</ele>
        <time>2020-09-17T11:03:25Z</time>
      </trkpt>
      <trkpt lat="45.41841" lon="3.38532">
        <ele>552.6</ele>
        <time>2020-09-17T11:03:26Z</time>
      </trkpt>
      <trkpt lat="45.41842" lon="3.38531">
        <ele>552.8</ele>
        <time>2020-09-17T11:03:27Z</time>
      </trkpt>
      <trkpt lat="45.41843" lon="3.3853">
        <ele>553</ele>
        <time>2020-09-17T11:03:28Z</time>
      </trkpt>
      <trkpt lat="45.41844" lon="3.38529">
        <ele>553.3</ele>
        <time>2020-09-17T11:03:29Z</time>
      </trkpt>
      <trkpt lat="45.41845" lon="3.38528">
        <ele>553.5</ele>
        <time>2020-09-17T11:03:30Z</time>
      </trkpt>
      <trkpt lat="45.41846" lon="3.38528">
        <ele>553.7</ele>
        <time>2020-09-17T11:03:31Z</time>
      </trkpt>
      <trkpt lat="45.41847" lon="3.38527">
        <ele>554</ele>
        <time>2020-09-17T11:03:32Z</time>
      </trkpt>
      <trkpt lat="45.41848" lon="3.38527">
        <ele>554.2</ele>
        <time>2020-09-17T11:03:33Z</time>
      </trkpt>
      <trkpt lat="45.41849" lon="3.38526">
        <ele>554.3</ele>
        <time>2020-09-17T11:03:34Z</time>
      </trkpt>
      <trkpt lat="45.4185" lon="3.38525">
        <ele>554.4</ele>
        <time>2020-09-17T11:03:35Z</time>
      </trkpt>
      <trkpt lat="45.41851" lon="3.38524">
        <ele>554.5</ele>
        <time>2020-09-17T11:03:36Z</time>
      </trkpt>
      <trkpt lat="45.41852" lon="3.38524">
        <ele>554.7</ele>
        <time>2020-09-17T11:03:37Z</time>
      </trkpt>
      <trkpt lat="45.41853" lon="3.38523">
        <ele>554.9</ele>
        <time>2020-09-17T11:03:38Z</time>
      </trkpt>
      <trkpt lat="45.41854" lon="3.38522">
        <ele>555.1</ele>
        <time>2020-09-17T11:03:39Z</time>
      </trkpt>
      <trkpt lat="45.41855" lon="3.38522">
        <ele>555.3</ele>
        <time>2020-09-17T11:03:40Z</time>
      </trkpt>
      <trkpt lat="45.41855" lon="3.38521">
        <ele>555.4</ele>
        <time>2020-09-17T11:03:41Z</time>
      </trkpt>
      <trkpt lat="45.41856" lon="3.3852">
        <ele>555.6</ele>
        <time>2020-09-17T11:03:42Z</time>
      </trkpt>
      <trkpt lat="45.41857" lon="3.3852">
        <ele>555.7</ele>
        <time>2020-09-17T11:03:43Z</time>
      </trkpt>
      <trkpt lat="45.41858" lon="3.38519">
        <ele>555.9</ele>
        <time>2020-09-17T11:03:44Z</time>
      </trkpt>
      <trkpt lat="45.41859" lon="3.38519">
        <ele>556.1</ele>
        <time>2020-09-17T11:03:45Z</time>
      </trkpt>
      <trkpt lat="45.4186" lon="3.38518">
        <ele>556.3</ele>
        <time>2020-09-17T11:03:46Z</time>
      </trkpt>
      <trkpt lat="45.41861" lon="3.38517">
        <ele>556.4</ele>
        <time>2020-09-17T11:03:47Z</time>
      </trkpt>
      <trkpt lat="45.41862" lon="3.38517">
        <ele>556.6</ele>
        <time>2020-09-17T11:03:48Z</time>
      </trkpt>
      <trkpt lat="45.41863" lon="3.38516">
        <ele>556.7</ele>
        <time>2020-09-17T11:03:49Z</time>
      </trkpt>
      <trkpt lat="45.41864" lon="3.38516">
        <ele>556.8</ele>
        <time>2020-09-17T11:03:50Z</time>
      </trkpt>
      <trkpt lat="45.41865" lon="3.38515">
        <ele>557</ele>
        <time>2020-09-17T11:03:51Z</time>
      </trkpt>
      <trkpt lat="45.41866" lon="3.38515">
        <ele>557.2</ele>
        <time>2020-09-17T11:03:52Z</time>
      </trkpt>
      <trkpt lat="45.41867" lon="3.38515">
        <ele>557.4</ele>
        <time>2020-09-17T11:03:53Z</time>
      </trkpt>
      <trkpt lat="45.41868" lon="3.38514">
        <ele>557.5</ele>
        <time>2020-09-17T11:03:54Z</time>
      </trkpt>
      <trkpt lat="45.41869" lon="3.38513">
        <ele>557.7</ele>
        <time>2020-09-17T11:03:55Z</time>
      </trkpt>
      <trkpt lat="45.4187" lon="3.38513">
        <ele>557.7</ele>
        <time>2020-09-17T11:03:56Z</time>
      </trkpt>
      <trkpt lat="45.41871" lon="3.38512">
        <ele>557.9</ele>
        <time>2020-09-17T11:03:57Z</time>
      </trkpt>
      <trkpt lat="45.41872" lon="3.38512">
        <ele>558.1</ele>
        <time>2020-09-17T11:03:58Z</time>
      </trkpt>
      <trkpt lat="45.41873" lon="3.38511">
        <ele>558.2</ele>
        <time>2020-09-17T11:03:59Z</time>
      </trkpt>
      <trkpt lat="45.41874" lon="3.38511">
        <ele>558.3</ele>
        <time>2020-09-17T11:04:00Z</time>
      </trkpt>
      <trkpt lat="45.41875" lon="3.3851">
        <ele>558.4</ele>
        <time>2020-09-17T11:04:01Z</time>
      </trkpt>
      <trkpt lat="45.41876" lon="3.3851">
        <ele>558.5</ele>
        <time>2020-09-17T11:04:02Z</time>
      </trkpt>
      <trkpt lat="45.41877" lon="3.38509">
        <ele>558.6</ele>
        <time>2020-09-17T11:04:03Z</time>
      </trkpt>
      <trkpt lat="45.41877" lon="3.38509">
        <ele>558.8</ele>
        <time>2020-09-17T11:04:04Z</time>
      </trkpt>
      <trkpt lat="45.41878" lon="3.38508">
        <ele>558.9</ele>
        <time>2020-09-17T11:04:05Z</time>
      </trkpt>
      <trkpt lat="45.41879" lon="3.38508">
        <ele>559</ele>
        <time>2020-09-17T11:04:06Z</time>
      </trkpt>
      <trkpt lat="45.41881" lon="3.38508">
        <ele>559.3</ele>
        <time>2020-09-17T11:04:07Z</time>
      </trkpt>
      <trkpt lat="45.41882" lon="3.38508">
        <ele>559.5</ele>
        <time>2020-09-17T11:04:08Z</time>
      </trkpt>
      <trkpt lat="45.41883" lon="3.38508">
        <ele>559.8</ele>
        <time>2020-09-17T11:04:09Z</time>
      </trkpt>
      <trkpt lat="45.41884" lon="3.38508">
        <ele>560</ele>
        <time>2020-09-17T11:04:10Z</time>
      </trkpt>
      <trkpt lat="45.41885" lon="3.38508">
        <ele>560.2</ele>
        <time>2020-09-17T11:04:11Z</time>
      </trkpt>
      <trkpt lat="45.41886" lon="3.38508">
        <ele>560.5</ele>
        <time>2020-09-17T11:04:12Z</time>
      </trkpt>
      <trkpt lat="45.41887" lon="3.38508">
        <ele>560.7</ele>
        <time>2020-09-17T11:04:13Z</time>
      </trkpt>
      <trkpt lat="45.41888" lon="3.38508">
        <ele>561</ele>
        <time>2020-09-17T11:04:14Z</time>
      </trkpt>
      <trkpt lat="45.41889" lon="3.38508">
        <ele>561.1</ele>
        <time>2020-09-17T11:04:15Z</time>
      </trkpt>
      <trkpt lat="45.4189" lon="3.38508">
        <ele>561.2</ele>
        <time>2020-09-17T11:04:16Z</time>
      </trkpt>
      <trkpt lat="45.41891" lon="3.38508">
        <ele>561.4</ele>
        <time>2020-09-17T11:04:17Z</time>
      </trkpt>
      <trkpt lat="45.41893" lon="3.38508">
        <ele>561.4</ele>
        <time>2020-09-17T11:04:18Z</time>
      </trkpt>
      <trkpt lat="45.41894" lon="3.38508">
        <ele>561.6</ele>
        <time>2020-09-17T11:04:19Z</time>
      </trkpt>
      <trkpt lat="45.41895" lon="3.38508">
        <ele>561.6</ele>
        <time>2020-09-17T11:04:20Z</time>
      </trkpt>
      <trkpt lat="45.41896" lon="3.38508">
        <ele>561.7</ele>
        <time>2020-09-17T11:04:21Z</time>
      </trkpt>
      <trkpt lat="45.41897" lon="3.38509">
        <ele>561.9</ele>
        <time>2020-09-17T11:04:22Z</time>
      </trkpt>
      <trkpt lat="45.41898" lon="3.38509">
        <ele>561.9</ele>
        <time>2020-09-17T11:04:23Z</time>
      </trkpt>
      <trkpt lat="45.41898" lon="3.38509">
        <ele>562</ele>
        <time>2020-09-17T11:04:24Z</time>
      </trkpt>
      <trkpt lat="45.41899" lon="3.38509">
        <ele>562.1</ele>
        <time>2020-09-17T11:04:25Z</time>
      </trkpt>
      <trkpt lat="45.419" lon="3.38509">
        <ele>562.2</ele>
        <time>2020-09-17T11:04:26Z</time>
      </trkpt>
      <trkpt lat="45.41901" lon="3.38509">
        <ele>562.3</ele>
        <time>2020-09-17T11:04:27Z</time>
      </trkpt>
      <trkpt lat="45.41902" lon="3.38509">
        <ele>562.4</ele>
        <time>2020-09-17T11:04:28Z</time>
      </trkpt>
      <trkpt lat="45.41903" lon="3.38509">
        <ele>562.5</ele>
        <time>2020-09-17T11:04:29Z</time>
      </trkpt>
      <trkpt lat="45.41904" lon="3.3851">
        <ele>562.7</ele>
        <time>2020-09-17T11:04:30Z</time>
      </trkpt>
      <trkpt lat="45.41905" lon="3.3851">
        <ele>562.8</ele>
        <time>2020-09-17T11:04:31Z</time>
      </trkpt>
      <trkpt lat="45.41906" lon="3.3851">
        <ele>562.9</ele>
        <time>2020-09-17T11:04:32Z</time>
      </trkpt>
      <trkpt lat="45.41907" lon="3.3851">
        <ele>563</ele>
        <time>2020-09-17T11:04:33Z</time>
      </trkpt>
      <trkpt lat="45.41908" lon="3.3851">
        <ele>563.1</ele>
        <time>2020-09-17T11:04:34Z</time>
      </trkpt>
      <trkpt lat="45.4191" lon="3.3851">
        <ele>563.2</ele>
        <time>2020-09-17T11:04:35Z</time>
      </trkpt>
      <trkpt lat="45.41911" lon="3.3851">
        <ele>563.2</ele>
        <time>2020-09-17T11:04:36Z</time>
      </trkpt>
      <trkpt lat="45.41912" lon="3.3851">
        <ele>563.4</ele>
        <time>2020-09-17T11:04:37Z</time>
      </trkpt>
      <trkpt lat="45.41913" lon="3.3851">
        <ele>563.4</ele>
        <time>2020-09-17T11:04:38Z</time>
      </trkpt>
      <trkpt lat="45.41914" lon="3.3851">
        <ele>563.5</ele>
        <time>2020-09-17T11:04:39Z</time>
      </trkpt>
      <trkpt lat="45.41915" lon="3.3851">
        <ele>563.6</ele>
        <time>2020-09-17T11:04:40Z</time>
      </trkpt>
      <trkpt lat="45.41916" lon="3.3851">
        <ele>563.7</ele>
        <time>2020-09-17T11:04:41Z</time>
      </trkpt>
      <trkpt lat="45.41917" lon="3.3851">
        <ele>563.8</ele>
        <time>2020-09-17T11:04:42Z</time>
      </trkpt>
      <trkpt lat="45.41918" lon="3.3851">
        <ele>563.9</ele>
        <time>2020-09-17T11:04:43Z</time>
      </trkpt>
      <trkpt lat="45.41919" lon="3.3851">
        <ele>564</ele>
        <time>2020-09-17T11:04:44Z</time>
      </trkpt>
      <trkpt lat="45.4192" lon="3.3851">
        <ele>564.1</ele>
        <time>2020-09-17T11:04:45Z</time>
      </trkpt>
      <trkpt lat="45.41921" lon="3.3851">
        <ele>564.3</ele>
        <time>2020-09-17T11:04:46Z</time>
      </trkpt>
      <trkpt lat="45.41922" lon="3.3851">
        <ele>564.4</ele>
        <time>2020-09-17T11:04:47Z</time>
      </trkpt>
      <trkpt lat="45.41923" lon="3.3851">
        <ele>564.5</ele>
        <time>2020-09-17T11:04:48Z</time>
      </trkpt>
      <trkpt lat="45.41924" lon="3.3851">
        <ele>564.6</ele>
        <time>2020-09-17T11:04:49Z</time>
      </trkpt>
      <trkpt lat="45.41925" lon="3.3851">
        <ele>564.7</ele>
        <time>2020-09-17T11:04:50Z</time>
      </trkpt>
      <trkpt lat="45.41927" lon="3.3851">
        <ele>564.7</ele>
        <time>2020-09-17T11:04:51Z</time>
      </trkpt>
      <trkpt lat="45.41928" lon="3.3851">
        <ele>564.9</ele>
        <time>2020-09-17T11:04:52Z</time>
      </trkpt>
      <trkpt lat="45.41929" lon="3.3851">
        <ele>565</ele>
        <time>2020-09-17T11:04:53Z</time>
      </trkpt>
      <trkpt lat="45.4193" lon="3.3851">
        <ele>565.1</ele>
        <time>2020-09-17T11:04:54Z</time>
      </trkpt>
      <trkpt lat="45.41931" lon="3.3851">
        <ele>565.2</ele>
        <time>2020-09-17T11:04:55Z</time>
      </trkpt>
      <trkpt lat="45.41932" lon="3.3851">
        <ele>565.2</ele>
        <time>2020-09-17T11:04:56Z</time>
      </trkpt>
      <trkpt lat="45.41933" lon="3.3851">
        <ele>565.3</ele>
        <time>2020-09-17T11:04:57Z</time>
      </trkpt>
      <trkpt lat="45.41934" lon="3.3851">
        <ele>565.4</ele>
        <time>2020-09-17T11:04:58Z</time>
      </trkpt>
      <trkpt lat="45.41935" lon="3.3851">
        <ele>565.4</ele>
        <time>2020-09-17T11:04:59Z</time>
      </trkpt>
      <trkpt lat="45.41936" lon="3.3851">
        <ele>565.6</ele>
        <time>2020-09-17T11:05:00Z</time>
      </trkpt>
      <trkpt lat="45.41937" lon="3.38509">
        <ele>565.6</ele>
        <time>2020-09-17T11:05:01Z</time>
      </trkpt>
      <trkpt lat="45.41938" lon="3.38509">
        <ele>565.7</ele>
        <time>2020-09-17T11:05:02Z</time>
      </trkpt>
      <trkpt lat="45.41939" lon="3.38509">
        <ele>565.8</ele>
        <time>2020-09-17T11:05:03Z</time>
      </trkpt>
      <trkpt lat="45.4194" lon="3.38509">
        <ele>565.8</ele>
        <time>2020-09-17T11:05:04Z</time>
      </trkpt>
      <trkpt lat="45.41941" lon="3.38509">
        <ele>565.9</ele>
        <time>2020-09-17T11:05:05Z</time>
      </trkpt>
      <trkpt lat="45.41942" lon="3.38508">
        <ele>566</ele>
        <time>2020-09-17T11:05:06Z</time>
      </trkpt>
      <trkpt lat="45.41943" lon="3.38508">
        <ele>566</ele>
        <time>2020-09-17T11:05:07Z</time>
      </trkpt>
      <trkpt lat="45.41944" lon="3.38508">
        <ele>566.1</ele>
        <time>2020-09-17T11:05:08Z</time>
      </trkpt>
      <trkpt lat="45.41945" lon="3.38508">
        <ele>566.2</ele>
        <time>2020-09-17T11:05:09Z</time>
      </trkpt>
      <trkpt lat="45.41946" lon="3.38507">
        <ele>566.3</ele>
        <time>2020-09-17T11:05:10Z</time>
      </trkpt>
      <trkpt lat="45.41947" lon="3.38507">
        <ele>566.3</ele>
        <time>2020-09-17T11:05:11Z</time>
      </trkpt>
      <trkpt lat="45.41948" lon="3.38507">
        <ele>566.4</ele>
        <time>2020-09-17T11:05:12Z</time>
      </trkpt>
      <trkpt lat="45.41949" lon="3.38506">
        <ele>566.4</ele>
        <time>2020-09-17T11:05:13Z</time>
      </trkpt>
      <trkpt lat="45.41951" lon="3.38506">
        <ele>566.5</ele>
        <time>2020-09-17T11:05:14Z</time>
      </trkpt>
      <trkpt lat="45.41952" lon="3.38506">
        <ele>566.6</ele>
        <time>2020-09-17T11:05:15Z</time>
      </trkpt>
      <trkpt lat="45.41952" lon="3.38505">
        <ele>566.6</ele>
        <time>2020-09-17T11:05:16Z</time>
      </trkpt>
      <trkpt lat="45.41953" lon="3.38505">
        <ele>566.7</ele>
        <time>2020-09-17T11:05:17Z</time>
      </trkpt>
      <trkpt lat="45.41954" lon="3.38505">
        <ele>566.7</ele>
        <time>2020-09-17T11:05:18Z</time>
      </trkpt>
      <trkpt lat="45.41956" lon="3.38504">
        <ele>566.8</ele>
        <time>2020-09-17T11:05:19Z</time>
      </trkpt>
      <trkpt lat="45.41957" lon="3.38504">
        <ele>566.8</ele>
        <time>2020-09-17T11:05:20Z</time>
      </trkpt>
      <trkpt lat="45.41958" lon="3.38503">
        <ele>566.9</ele>
        <time>2020-09-17T11:05:21Z</time>
      </trkpt>
      <trkpt lat="45.41959" lon="3.38503">
        <ele>566.9</ele>
        <time>2020-09-17T11:05:22Z</time>
      </trkpt>
      <trkpt lat="45.4196" lon="3.38502">
        <ele>567</ele>
        <time>2020-09-17T11:05:23Z</time>
      </trkpt>
      <trkpt lat="45.41961" lon="3.38502">
        <ele>567</ele>
        <time>2020-09-17T11:05:24Z</time>
      </trkpt>
      <trkpt lat="45.41962" lon="3.38502">
        <ele>567.1</ele>
        <time>2020-09-17T11:05:25Z</time>
      </trkpt>
      <trkpt lat="45.41963" lon="3.38501">
        <ele>567.1</ele>
        <time>2020-09-17T11:05:26Z</time>
      </trkpt>
      <trkpt lat="45.41964" lon="3.38501">
        <ele>567.2</ele>
        <time>2020-09-17T11:05:27Z</time>
      </trkpt>
      <trkpt lat="45.41965" lon="3.38501">
        <ele>567.3</ele>
        <time>2020-09-17T11:05:28Z</time>
      </trkpt>
      <trkpt lat="45.41966" lon="3.385">
        <ele>567.4</ele>
        <time>2020-09-17T11:05:29Z</time>
      </trkpt>
      <trkpt lat="45.41967" lon="3.385">
        <ele>567.4</ele>
        <time>2020-09-17T11:05:30Z</time>
      </trkpt>
      <trkpt lat="45.41968" lon="3.385">
        <ele>567.5</ele>
        <time>2020-09-17T11:05:31Z</time>
      </trkpt>
      <trkpt lat="45.41969" lon="3.385">
        <ele>567.6</ele>
        <time>2020-09-17T11:05:32Z</time>
      </trkpt>
      <trkpt lat="45.4197" lon="3.38499">
        <ele>567.7</ele>
        <time>2020-09-17T11:05:33Z</time>
      </trkpt>
      <trkpt lat="45.41971" lon="3.38499">
        <ele>567.8</ele>
        <time>2020-09-17T11:05:34Z</time>
      </trkpt>
      <trkpt lat="45.41972" lon="3.38499">
        <ele>567.9</ele>
        <time>2020-09-17T11:05:35Z</time>
      </trkpt>
      <trkpt lat="45.41973" lon="3.38498">
        <ele>568</ele>
        <time>2020-09-17T11:05:36Z</time>
      </trkpt>
      <trkpt lat="45.41975" lon="3.38498">
        <ele>568.2</ele>
        <time>2020-09-17T11:05:37Z</time>
      </trkpt>
      <trkpt lat="45.41976" lon="3.38498">
        <ele>568.3</ele>
        <time>2020-09-17T11:05:38Z</time>
      </trkpt>
      <trkpt lat="45.41976" lon="3.38498">
        <ele>568.4</ele>
        <time>2020-09-17T11:05:39Z</time>
      </trkpt>
      <trkpt lat="45.41978" lon="3.38497">
        <ele>568.6</ele>
        <time>2020-09-17T11:05:40Z</time>
      </trkpt>
      <trkpt lat="45.41979" lon="3.38497">
        <ele>568.7</ele>
        <time>2020-09-17T11:05:41Z</time>
      </trkpt>
      <trkpt lat="45.4198" lon="3.38497">
        <ele>568.8</ele>
        <time>2020-09-17T11:05:42Z</time>
      </trkpt>
      <trkpt lat="45.41981" lon="3.38497">
        <ele>569</ele>
        <time>2020-09-17T11:05:43Z</time>
      </trkpt>
      <trkpt lat="45.41982" lon="3.38497">
        <ele>569.1</ele>
        <time>2020-09-17T11:05:44Z</time>
      </trkpt>
      <trkpt lat="45.41983" lon="3.38497">
        <ele>569.3</ele>
        <time>2020-09-17T11:05:45Z</time>
      </trkpt>
      <trkpt lat="45.41984" lon="3.38496">
        <ele>569.4</ele>
        <time>2020-09-17T11:05:46Z</time>
      </trkpt>
      <trkpt lat="45.41985" lon="3.38496">
        <ele>569.6</ele>
        <time>2020-09-17T11:05:47Z</time>
      </trkpt>
      <trkpt lat="45.41986" lon="3.38496">
        <ele>569.7</ele>
        <time>2020-09-17T11:05:48Z</time>
      </trkpt>
      <trkpt lat="45.41987" lon="3.38496">
        <ele>569.8</ele>
        <time>2020-09-17T11:05:49Z</time>
      </trkpt>
      <trkpt lat="45.41988" lon="3.38496">
        <ele>569.9</ele>
        <time>2020-09-17T11:05:50Z</time>
      </trkpt>
      <trkpt lat="45.41989" lon="3.38495">
        <ele>570.1</ele>
        <time>2020-09-17T11:05:51Z</time>
      </trkpt>
      <trkpt lat="45.4199" lon="3.38495">
        <ele>570.2</ele>
        <time>2020-09-17T11:05:52Z</time>
      </trkpt>
      <trkpt lat="45.41991" lon="3.38495">
        <ele>570.3</ele>
        <time>2020-09-17T11:05:53Z</time>
      </trkpt>
      <trkpt lat="45.41992" lon="3.38495">
        <ele>570.5</ele>
        <time>2020-09-17T11:05:54Z</time>
      </trkpt>
      <trkpt lat="45.41993" lon="3.38495">
        <ele>570.6</ele>
        <time>2020-09-17T11:05:55Z</time>
      </trkpt>
      <trkpt lat="45.41994" lon="3.38495">
        <ele>570.7</ele>
        <time>2020-09-17T11:05:56Z</time>
      </trkpt>
      <trkpt lat="45.41995" lon="3.38495">
        <ele>570.9</ele>
        <time>2020-09-17T11:05:57Z</time>
      </trkpt>
      <trkpt lat="45.41996" lon="3.38494">
        <ele>571</ele>
        <time>2020-09-17T11:05:58Z</time>
      </trkpt>
      <trkpt lat="45.41997" lon="3.38494">
        <ele>571.1</ele>
        <time>2020-09-17T11:05:59Z</time>
      </trkpt>
      <trkpt lat="45.41998" lon="3.38494">
        <ele>571.3</ele>
        <time>2020-09-17T11:06:00Z</time>
      </trkpt>
      <trkpt lat="45.41999" lon="3.38493">
        <ele>571.4</ele>
        <time>2020-09-17T11:06:01Z</time>
      </trkpt>
      <trkpt lat="45.42" lon="3.38493">
        <ele>571.5</ele>
        <time>2020-09-17T11:06:02Z</time>
      </trkpt>
      <trkpt lat="45.42001" lon="3.38493">
        <ele>571.6</ele>
        <time>2020-09-17T11:06:03Z</time>
      </trkpt>
      <trkpt lat="45.42002" lon="3.38492">
        <ele>571.7</ele>
        <time>2020-09-17T11:06:04Z</time>
      </trkpt>
      <trkpt lat="45.42003" lon="3.38492">
        <ele>571.8</ele>
        <time>2020-09-17T11:06:05Z</time>
      </trkpt>
      <trkpt lat="45.42005" lon="3.38492">
        <ele>571.9</ele>
        <time>2020-09-17T11:06:06Z</time>
      </trkpt>
      <trkpt lat="45.42006" lon="3.38492">
        <ele>572</ele>
        <time>2020-09-17T11:06:07Z</time>
      </trkpt>
      <trkpt lat="45.42007" lon="3.38492">
        <ele>572.1</ele>
        <time>2020-09-17T11:06:08Z</time>
      </trkpt>
      <trkpt lat="45.42008" lon="3.38492">
        <ele>572.2</ele>
        <time>2020-09-17T11:06:09Z</time>
      </trkpt>
      <trkpt lat="45.42009" lon="3.38491">
        <ele>572.3</ele>
        <time>2020-09-17T11:06:10Z</time>
      </trkpt>
      <trkpt lat="45.4201" lon="3.38491">
        <ele>572.4</ele>
        <time>2020-09-17T11:06:11Z</time>
      </trkpt>
      <trkpt lat="45.42011" lon="3.3849">
        <ele>572.5</ele>
        <time>2020-09-17T11:06:12Z</time>
      </trkpt>
      <trkpt lat="45.42012" lon="3.3849">
        <ele>572.6</ele>
        <time>2020-09-17T11:06:13Z</time>
      </trkpt>
      <trkpt lat="45.42013" lon="3.3849">
        <ele>572.6</ele>
        <time>2020-09-17T11:06:14Z</time>
      </trkpt>
      <trkpt lat="45.42014" lon="3.3849">
        <ele>572.8</ele>
        <time>2020-09-17T11:06:15Z</time>
      </trkpt>
      <trkpt lat="45.42015" lon="3.3849">
        <ele>572.8</ele>
        <time>2020-09-17T11:06:16Z</time>
      </trkpt>
      <trkpt lat="45.42016" lon="3.3849">
        <ele>573</ele>
        <time>2020-09-17T11:06:17Z</time>
      </trkpt>
      <trkpt lat="45.42017" lon="3.3849">
        <ele>573.1</ele>
        <time>2020-09-17T11:06:18Z</time>
      </trkpt>
      <trkpt lat="45.42018" lon="3.38489">
        <ele>573.2</ele>
        <time>2020-09-17T11:06:19Z</time>
      </trkpt>
      <trkpt lat="45.42019" lon="3.38489">
        <ele>573.3</ele>
        <time>2020-09-17T11:06:20Z</time>
      </trkpt>
      <trkpt lat="45.42021" lon="3.38489">
        <ele>573.4</ele>
        <time>2020-09-17T11:06:21Z</time>
      </trkpt>
      <trkpt lat="45.42022" lon="3.38489">
        <ele>573.5</ele>
        <time>2020-09-17T11:06:22Z</time>
      </trkpt>
      <trkpt lat="45.42023" lon="3.38489">
        <ele>573.6</ele>
        <time>2020-09-17T11:06:23Z</time>
      </trkpt>
      <trkpt lat="45.42024" lon="3.38489">
        <ele>573.7</ele>
        <time>2020-09-17T11:06:24Z</time>
      </trkpt>
      <trkpt lat="45.42025" lon="3.38489">
        <ele>573.9</ele>
        <time>2020-09-17T11:06:25Z</time>
      </trkpt>
      <trkpt lat="45.42026" lon="3.38488">
        <ele>573.9</ele>
        <time>2020-09-17T11:06:26Z</time>
      </trkpt>
      <trkpt lat="45.42027" lon="3.38488">
        <ele>574</ele>
        <time>2020-09-17T11:06:27Z</time>
      </trkpt>
      <trkpt lat="45.42028" lon="3.38488">
        <ele>574.2</ele>
        <time>2020-09-17T11:06:28Z</time>
      </trkpt>
      <trkpt lat="45.42029" lon="3.38488">
        <ele>574.2</ele>
        <time>2020-09-17T11:06:29Z</time>
      </trkpt>
      <trkpt lat="45.4203" lon="3.38488">
        <ele>574.3</ele>
        <time>2020-09-17T11:06:30Z</time>
      </trkpt>
      <trkpt lat="45.42031" lon="3.38487">
        <ele>574.3</ele>
        <time>2020-09-17T11:06:31Z</time>
      </trkpt>
      <trkpt lat="45.42032" lon="3.38487">
        <ele>574.4</ele>
        <time>2020-09-17T11:06:32Z</time>
      </trkpt>
      <trkpt lat="45.42033" lon="3.38487">
        <ele>574.5</ele>
        <time>2020-09-17T11:06:33Z</time>
      </trkpt>
      <trkpt lat="45.42034" lon="3.38487">
        <ele>574.6</ele>
        <time>2020-09-17T11:06:34Z</time>
      </trkpt>
      <trkpt lat="45.42035" lon="3.38487">
        <ele>574.6</ele>
        <time>2020-09-17T11:06:35Z</time>
      </trkpt>
      <trkpt lat="45.42036" lon="3.38487">
        <ele>574.7</ele>
        <time>2020-09-17T11:06:36Z</time>
      </trkpt>
      <trkpt lat="45.42038" lon="3.38487">
        <ele>574.8</ele>
        <time>2020-09-17T11:06:37Z</time>
      </trkpt>
      <trkpt lat="45.42039" lon="3.38487">
        <ele>574.8</ele>
        <time>2020-09-17T11:06:38Z</time>
      </trkpt>
      <trkpt lat="45.4204" lon="3.38487">
        <ele>574.9</ele>
        <time>2020-09-17T11:06:39Z</time>
      </trkpt>
      <trkpt lat="45.42041" lon="3.38486">
        <ele>575</ele>
        <time>2020-09-17T11:06:40Z</time>
      </trkpt>
      <trkpt lat="45.42042" lon="3.38486">
        <ele>575</ele>
        <time>2020-09-17T11:06:41Z</time>
      </trkpt>
      <trkpt lat="45.42043" lon="3.38486">
        <ele>575.1</ele>
        <time>2020-09-17T11:06:42Z</time>
      </trkpt>
      <trkpt lat="45.42044" lon="3.38485">
        <ele>575.1</ele>
        <time>2020-09-17T11:06:43Z</time>
      </trkpt>
      <trkpt lat="45.42045" lon="3.38485">
        <ele>575.2</ele>
        <time>2020-09-17T11:06:44Z</time>
      </trkpt>
      <trkpt lat="45.42046" lon="3.38485">
        <ele>575.2</ele>
        <time>2020-09-17T11:06:45Z</time>
      </trkpt>
      <trkpt lat="45.42047" lon="3.38485">
        <ele>575.3</ele>
        <time>2020-09-17T11:06:46Z</time>
      </trkpt>
      <trkpt lat="45.42049" lon="3.38485">
        <ele>575.4</ele>
        <time>2020-09-17T11:06:47Z</time>
      </trkpt>
      <trkpt lat="45.4205" lon="3.38485">
        <ele>575.5</ele>
        <time>2020-09-17T11:06:48Z</time>
      </trkpt>
      <trkpt lat="45.42051" lon="3.38485">
        <ele>575.5</ele>
        <time>2020-09-17T11:06:49Z</time>
      </trkpt>
      <trkpt lat="45.42052" lon="3.38484">
        <ele>575.6</ele>
        <time>2020-09-17T11:06:50Z</time>
      </trkpt>
      <trkpt lat="45.42053" lon="3.38484">
        <ele>575.7</ele>
        <time>2020-09-17T11:06:51Z</time>
      </trkpt>
      <trkpt lat="45.42054" lon="3.38484">
        <ele>575.7</ele>
        <time>2020-09-17T11:06:52Z</time>
      </trkpt>
      <trkpt lat="45.42055" lon="3.38484">
        <ele>575.8</ele>
        <time>2020-09-17T11:06:53Z</time>
      </trkpt>
      <trkpt lat="45.42057" lon="3.38483">
        <ele>575.8</ele>
        <time>2020-09-17T11:06:54Z</time>
      </trkpt>
      <trkpt lat="45.42058" lon="3.38483">
        <ele>575.8</ele>
        <time>2020-09-17T11:06:55Z</time>
      </trkpt>
      <trkpt lat="45.42059" lon="3.38483">
        <ele>575.8</ele>
        <time>2020-09-17T11:06:56Z</time>
      </trkpt>
      <trkpt lat="45.4206" lon="3.38483">
        <ele>575.8</ele>
        <time>2020-09-17T11:06:57Z</time>
      </trkpt>
      <trkpt lat="45.42061" lon="3.38483">
        <ele>575.8</ele>
        <time>2020-09-17T11:06:58Z</time>
      </trkpt>
      <trkpt lat="45.42062" lon="3.38483">
        <ele>575.8</ele>
        <time>2020-09-17T11:06:59Z</time>
      </trkpt>
      <trkpt lat="45.42063" lon="3.38483">
        <ele>575.8</ele>
        <time>2020-09-17T11:07:00Z</time>
      </trkpt>
      <trkpt lat="45.42064" lon="3.38482">
        <ele>575.8</ele>
        <time>2020-09-17T11:07:01Z</time>
      </trkpt>
      <trkpt lat="45.42065" lon="3.38482">
        <ele>575.8</ele>
        <time>2020-09-17T11:07:02Z</time>
      </trkpt>
      <trkpt lat="45.42067" lon="3.38481">
        <ele>575.8</ele>
        <time>2020-09-17T11:07:03Z</time>
      </trkpt>
      <trkpt lat="45.42068" lon="3.38481">
        <ele>575.8</ele>
        <time>2020-09-17T11:07:04Z</time>
      </trkpt>
      <trkpt lat="45.42069" lon="3.3848">
        <ele>575.8</ele>
        <time>2020-09-17T11:07:05Z</time>
      </trkpt>
      <trkpt lat="45.4207" lon="3.3848">
        <ele>575.8</ele>
        <time>2020-09-17T11:07:06Z</time>
      </trkpt>
      <trkpt lat="45.42071" lon="3.3848">
        <ele>575.8</ele>
        <time>2020-09-17T11:07:07Z</time>
      </trkpt>
      <trkpt lat="45.42072" lon="3.3848">
        <ele>575.8</ele>
        <time>2020-09-17T11:07:08Z</time>
      </trkpt>
      <trkpt lat="45.42073" lon="3.38479">
        <ele>575.8</ele>
        <time>2020-09-17T11:07:09Z</time>
      </trkpt>
      <trkpt lat="45.42074" lon="3.38479">
        <ele>575.8</ele>
        <time>2020-09-17T11:07:10Z</time>
      </trkpt>
      <trkpt lat="45.42076" lon="3.38478">
        <ele>575.8</ele>
        <time>2020-09-17T11:07:11Z</time>
      </trkpt>
      <trkpt lat="45.42077" lon="3.38478">
        <ele>575.9</ele>
        <time>2020-09-17T11:07:12Z</time>
      </trkpt>
      <trkpt lat="45.42078" lon="3.38477">
        <ele>575.9</ele>
        <time>2020-09-17T11:07:13Z</time>
      </trkpt>
      <trkpt lat="45.42079" lon="3.38477">
        <ele>575.9</ele>
        <time>2020-09-17T11:07:14Z</time>
      </trkpt>
      <trkpt lat="45.4208" lon="3.38476">
        <ele>575.9</ele>
        <time>2020-09-17T11:07:15Z</time>
      </trkpt>
      <trkpt lat="45.42081" lon="3.38476">
        <ele>575.9</ele>
        <time>2020-09-17T11:07:16Z</time>
      </trkpt>
      <trkpt lat="45.42082" lon="3.38476">
        <ele>576</ele>
        <time>2020-09-17T11:07:17Z</time>
      </trkpt>
      <trkpt lat="45.42084" lon="3.38475">
        <ele>576</ele>
        <time>2020-09-17T11:07:18Z</time>
      </trkpt>
      <trkpt lat="45.42085" lon="3.38475">
        <ele>575.9</ele>
        <time>2020-09-17T11:07:19Z</time>
      </trkpt>
      <trkpt lat="45.42086" lon="3.38474">
        <ele>575.8</ele>
        <time>2020-09-17T11:07:20Z</time>
      </trkpt>
      <trkpt lat="45.42087" lon="3.38474">
        <ele>575.7</ele>
        <time>2020-09-17T11:07:21Z</time>
      </trkpt>
      <trkpt lat="45.42088" lon="3.38473">
        <ele>575.7</ele>
        <time>2020-09-17T11:07:22Z</time>
      </trkpt>
      <trkpt lat="45.42089" lon="3.38473">
        <ele>575.6</ele>
        <time>2020-09-17T11:07:23Z</time>
      </trkpt>
      <trkpt lat="45.4209" lon="3.38472">
        <ele>575.5</ele>
        <time>2020-09-17T11:07:24Z</time>
      </trkpt>
      <trkpt lat="45.42091" lon="3.38472">
        <ele>575.4</ele>
        <time>2020-09-17T11:07:25Z</time>
      </trkpt>
      <trkpt lat="45.42092" lon="3.38471">
        <ele>575.3</ele>
        <time>2020-09-17T11:07:26Z</time>
      </trkpt>
      <trkpt lat="45.42093" lon="3.38471">
        <ele>575.3</ele>
        <time>2020-09-17T11:07:27Z</time>
      </trkpt>
      <trkpt lat="45.42095" lon="3.3847">
        <ele>575.2</ele>
        <time>2020-09-17T11:07:28Z</time>
      </trkpt>
      <trkpt lat="45.42096" lon="3.3847">
        <ele>575.1</ele>
        <time>2020-09-17T11:07:29Z</time>
      </trkpt>
      <trkpt lat="45.42097" lon="3.38469">
        <ele>575</ele>
        <time>2020-09-17T11:07:30Z</time>
      </trkpt>
      <trkpt lat="45.42098" lon="3.38469">
        <ele>574.9</ele>
        <time>2020-09-17T11:07:31Z</time>
      </trkpt>
      <trkpt lat="45.42099" lon="3.38469">
        <ele>574.9</ele>
        <time>2020-09-17T11:07:32Z</time>
      </trkpt>
      <trkpt lat="45.42101" lon="3.38468">
        <ele>574.8</ele>
        <time>2020-09-17T11:07:33Z</time>
      </trkpt>
      <trkpt lat="45.42102" lon="3.38468">
        <ele>574.7</ele>
        <time>2020-09-17T11:07:34Z</time>
      </trkpt>
      <trkpt lat="45.42103" lon="3.38467">
        <ele>574.7</ele>
        <time>2020-09-17T11:07:35Z</time>
      </trkpt>
      <trkpt lat="45.42104" lon="3.38467">
        <ele>574.6</ele>
        <time>2020-09-17T11:07:36Z</time>
      </trkpt>
      <trkpt lat="45.42105" lon="3.38466">
        <ele>574.5</ele>
        <time>2020-09-17T11:07:37Z</time>
      </trkpt>
      <trkpt lat="45.42106" lon="3.38466">
        <ele>574.5</ele>
        <time>2020-09-17T11:07:38Z</time>
      </trkpt>
      <trkpt lat="45.42108" lon="3.38465">
        <ele>574.4</ele>
        <time>2020-09-17T11:07:39Z</time>
      </trkpt>
      <trkpt lat="45.42109" lon="3.38465">
        <ele>574.4</ele>
        <time>2020-09-17T11:07:40Z</time>
      </trkpt>
      <trkpt lat="45.4211" lon="3.38464">
        <ele>574.4</ele>
        <time>2020-09-17T11:07:41Z</time>
      </trkpt>
      <trkpt lat="45.42111" lon="3.38464">
        <ele>574.3</ele>
        <time>2020-09-17T11:07:42Z</time>
      </trkpt>
      <trkpt lat="45.42112" lon="3.38463">
        <ele>574.2</ele>
        <time>2020-09-17T11:07:43Z</time>
      </trkpt>
      <trkpt lat="45.42113" lon="3.38463">
        <ele>574.1</ele>
        <time>2020-09-17T11:07:44Z</time>
      </trkpt>
      <trkpt lat="45.42114" lon="3.38463">
        <ele>574</ele>
        <time>2020-09-17T11:07:45Z</time>
      </trkpt>
      <trkpt lat="45.42116" lon="3.38462">
        <ele>574</ele>
        <time>2020-09-17T11:07:46Z</time>
      </trkpt>
      <trkpt lat="45.42117" lon="3.38461">
        <ele>573.9</ele>
        <time>2020-09-17T11:07:47Z</time>
      </trkpt>
      <trkpt lat="45.42118" lon="3.38461">
        <ele>573.8</ele>
        <time>2020-09-17T11:07:48Z</time>
      </trkpt>
      <trkpt lat="45.42119" lon="3.3846">
        <ele>573.7</ele>
        <time>2020-09-17T11:07:49Z</time>
      </trkpt>
      <trkpt lat="45.4212" lon="3.38459">
        <ele>573.7</ele>
        <time>2020-09-17T11:07:50Z</time>
      </trkpt>
      <trkpt lat="45.42121" lon="3.38459">
        <ele>573.6</ele>
        <time>2020-09-17T11:07:51Z</time>
      </trkpt>
      <trkpt lat="45.42122" lon="3.38458">
        <ele>573.5</ele>
        <time>2020-09-17T11:07:52Z</time>
      </trkpt>
      <trkpt lat="45.42123" lon="3.38457">
        <ele>573.5</ele>
        <time>2020-09-17T11:07:53Z</time>
      </trkpt>
      <trkpt lat="45.42124" lon="3.38456">
        <ele>573.4</ele>
        <time>2020-09-17T11:07:54Z</time>
      </trkpt>
      <trkpt lat="45.42125" lon="3.38455">
        <ele>573.4</ele>
        <time>2020-09-17T11:07:55Z</time>
      </trkpt>
      <trkpt lat="45.42126" lon="3.38455">
        <ele>573.4</ele>
        <time>2020-09-17T11:07:56Z</time>
      </trkpt>
      <trkpt lat="45.42127" lon="3.38454">
        <ele>573.3</ele>
        <time>2020-09-17T11:07:57Z</time>
      </trkpt>
      <trkpt lat="45.42128" lon="3.38453">
        <ele>573.3</ele>
        <time>2020-09-17T11:07:58Z</time>
      </trkpt>
      <trkpt lat="45.42129" lon="3.38452">
        <ele>573.3</ele>
        <time>2020-09-17T11:07:59Z</time>
      </trkpt>
      <trkpt lat="45.4213" lon="3.38451">
        <ele>573.3</ele>
        <time>2020-09-17T11:08:00Z</time>
      </trkpt>
      <trkpt lat="45.42131" lon="3.3845">
        <ele>573.2</ele>
        <time>2020-09-17T11:08:01Z</time>
      </trkpt>
      <trkpt lat="45.42132" lon="3.38449">
        <ele>573.2</ele>
        <time>2020-09-17T11:08:02Z</time>
      </trkpt>
      <trkpt lat="45.42133" lon="3.38448">
        <ele>573.1</ele>
        <time>2020-09-17T11:08:03Z</time>
      </trkpt>
      <trkpt lat="45.42134" lon="3.38448">
        <ele>573.1</ele>
        <time>2020-09-17T11:08:04Z</time>
      </trkpt>
      <trkpt lat="45.42135" lon="3.38446">
        <ele>573.1</ele>
        <time>2020-09-17T11:08:05Z</time>
      </trkpt>
      <trkpt lat="45.42136" lon="3.38445">
        <ele>573.1</ele>
        <time>2020-09-17T11:08:06Z</time>
      </trkpt>
      <trkpt lat="45.42137" lon="3.38444">
        <ele>573.1</ele>
        <time>2020-09-17T11:08:07Z</time>
      </trkpt>
      <trkpt lat="45.42138" lon="3.38443">
        <ele>573.1</ele>
        <time>2020-09-17T11:08:08Z</time>
      </trkpt>
      <trkpt lat="45.42139" lon="3.38442">
        <ele>573.1</ele>
        <time>2020-09-17T11:08:09Z</time>
      </trkpt>
      <trkpt lat="45.4214" lon="3.38441">
        <ele>573</ele>
        <time>2020-09-17T11:08:10Z</time>
      </trkpt>
      <trkpt lat="45.42141" lon="3.3844">
        <ele>573</ele>
        <time>2020-09-17T11:08:11Z</time>
      </trkpt>
      <trkpt lat="45.42141" lon="3.3844">
        <ele>572.9</ele>
        <time>2020-09-17T11:08:12Z</time>
      </trkpt>
      <trkpt lat="45.42142" lon="3.38439">
        <ele>572.9</ele>
        <time>2020-09-17T11:08:13Z</time>
      </trkpt>
      <trkpt lat="45.42143" lon="3.38438">
        <ele>572.8</ele>
        <time>2020-09-17T11:08:14Z</time>
      </trkpt>
      <trkpt lat="45.42144" lon="3.38437">
        <ele>572.7</ele>
        <time>2020-09-17T11:08:15Z</time>
      </trkpt>
      <trkpt lat="45.42145" lon="3.38436">
        <ele>572.7</ele>
        <time>2020-09-17T11:08:16Z</time>
      </trkpt>
      <trkpt lat="45.42145" lon="3.38435">
        <ele>572.7</ele>
        <time>2020-09-17T11:08:17Z</time>
      </trkpt>
      <trkpt lat="45.42146" lon="3.38434">
        <ele>572.7</ele>
        <time>2020-09-17T11:08:18Z</time>
      </trkpt>
      <trkpt lat="45.42146" lon="3.38433">
        <ele>572.6</ele>
        <time>2020-09-17T11:08:19Z</time>
      </trkpt>
      <trkpt lat="45.42147" lon="3.38432">
        <ele>572.6</ele>
        <time>2020-09-17T11:08:20Z</time>
      </trkpt>
      <trkpt lat="45.42148" lon="3.38431">
        <ele>572.6</ele>
        <time>2020-09-17T11:08:21Z</time>
      </trkpt>
      <trkpt lat="45.42148" lon="3.3843">
        <ele>572.5</ele>
        <time>2020-09-17T11:08:22Z</time>
      </trkpt>
      <trkpt lat="45.42149" lon="3.38429">
        <ele>572.5</ele>
        <time>2020-09-17T11:08:23Z</time>
      </trkpt>
      <trkpt lat="45.42149" lon="3.38429">
        <ele>572.4</ele>
        <time>2020-09-17T11:08:24Z</time>
      </trkpt>
      <trkpt lat="45.4215" lon="3.38429">
        <ele>572.3</ele>
        <time>2020-09-17T11:08:25Z</time>
      </trkpt>
      <trkpt lat="45.4215" lon="3.38429">
        <ele>572.3</ele>
        <time>2020-09-17T11:08:26Z</time>
      </trkpt>
      <trkpt lat="45.42151" lon="3.38428">
        <ele>572.3</ele>
        <time>2020-09-17T11:08:27Z</time>
      </trkpt>
      <trkpt lat="45.42151" lon="3.38428">
        <ele>572.3</ele>
        <time>2020-09-17T11:08:28Z</time>
      </trkpt>
      <trkpt lat="45.42151" lon="3.38428">
        <ele>572.3</ele>
        <time>2020-09-17T11:08:29Z</time>
      </trkpt>
      <trkpt lat="45.42151" lon="3.38428">
        <ele>572.3</ele>
        <time>2020-09-17T11:08:30Z</time>
      </trkpt>
      <trkpt lat="45.42151" lon="3.38427">
        <ele>572.3</ele>
        <time>2020-09-17T11:08:31Z</time>
      </trkpt>
      <trkpt lat="45.42151" lon="3.38427">
        <ele>572.3</ele>
        <time>2020-09-17T11:08:32Z</time>
      </trkpt>
      <trkpt lat="45.42151" lon="3.38427">
        <ele>572.3</ele>
        <time>2020-09-17T11:08:33Z</time>
      </trkpt>
      <trkpt lat="45.42152" lon="3.38427">
        <ele>572.3</ele>
        <time>2020-09-17T11:08:34Z</time>
      </trkpt>
      <trkpt lat="45.42152" lon="3.38427">
        <ele>572.2</ele>
        <time>2020-09-17T11:08:35Z</time>
      </trkpt>
      <trkpt lat="45.42152" lon="3.38427">
        <ele>572.2</ele>
        <time>2020-09-17T11:08:36Z</time>
      </trkpt>
      <trkpt lat="45.42153" lon="3.38428">
        <ele>572.1</ele>
        <time>2020-09-17T11:08:37Z</time>
      </trkpt>
      <trkpt lat="45.42153" lon="3.38429">
        <ele>572</ele>
        <time>2020-09-17T11:08:38Z</time>
      </trkpt>
      <trkpt lat="45.42153" lon="3.3843">
        <ele>572</ele>
        <time>2020-09-17T11:08:39Z</time>
      </trkpt>
      <trkpt lat="45.42153" lon="3.38431">
        <ele>571.9</ele>
        <time>2020-09-17T11:08:40Z</time>
      </trkpt>
      <trkpt lat="45.42153" lon="3.38432">
        <ele>571.9</ele>
        <time>2020-09-17T11:08:41Z</time>
      </trkpt>
      <trkpt lat="45.42154" lon="3.38433">
        <ele>571.8</ele>
        <time>2020-09-17T11:08:42Z</time>
      </trkpt>
      <trkpt lat="45.42154" lon="3.38434">
        <ele>571.8</ele>
        <time>2020-09-17T11:08:43Z</time>
      </trkpt>
      <trkpt lat="45.42154" lon="3.38436">
        <ele>571.7</ele>
        <time>2020-09-17T11:08:44Z</time>
      </trkpt>
      <trkpt lat="45.42154" lon="3.38437">
        <ele>571.7</ele>
        <time>2020-09-17T11:08:45Z</time>
      </trkpt>
      <trkpt lat="45.42154" lon="3.38438">
        <ele>571.6</ele>
        <time>2020-09-17T11:08:46Z</time>
      </trkpt>
      <trkpt lat="45.42154" lon="3.3844">
        <ele>571.6</ele>
        <time>2020-09-17T11:08:47Z</time>
      </trkpt>
      <trkpt lat="45.42154" lon="3.38441">
        <ele>571.5</ele>
        <time>2020-09-17T11:08:48Z</time>
      </trkpt>
      <trkpt lat="45.42154" lon="3.38442">
        <ele>571.5</ele>
        <time>2020-09-17T11:08:49Z</time>
      </trkpt>
      <trkpt lat="45.42153" lon="3.38444">
        <ele>571.5</ele>
        <time>2020-09-17T11:08:50Z</time>
      </trkpt>
      <trkpt lat="45.42153" lon="3.38446">
        <ele>571.3</ele>
        <time>2020-09-17T11:08:51Z</time>
      </trkpt>
      <trkpt lat="45.42153" lon="3.38447">
        <ele>571.2</ele>
        <time>2020-09-17T11:08:52Z</time>
      </trkpt>
      <trkpt lat="45.42153" lon="3.38449">
        <ele>571</ele>
        <time>2020-09-17T11:08:53Z</time>
      </trkpt>
      <trkpt lat="45.42152" lon="3.3845">
        <ele>570.9</ele>
        <time>2020-09-17T11:08:54Z</time>
      </trkpt>
      <trkpt lat="45.42152" lon="3.38452">
        <ele>570.8</ele>
        <time>2020-09-17T11:08:55Z</time>
      </trkpt>
      <trkpt lat="45.42152" lon="3.38454">
        <ele>570.7</ele>
        <time>2020-09-17T11:08:56Z</time>
      </trkpt>
      <trkpt lat="45.42152" lon="3.38455">
        <ele>570.5</ele>
        <time>2020-09-17T11:08:57Z</time>
      </trkpt>
      <trkpt lat="45.42151" lon="3.38457">
        <ele>570.4</ele>
        <time>2020-09-17T11:08:58Z</time>
      </trkpt>
      <trkpt lat="45.42151" lon="3.38458">
        <ele>570.2</ele>
        <time>2020-09-17T11:08:59Z</time>
      </trkpt>
      <trkpt lat="45.42151" lon="3.3846">
        <ele>570.1</ele>
        <time>2020-09-17T11:09:00Z</time>
      </trkpt>
      <trkpt lat="45.42151" lon="3.38461">
        <ele>570</ele>
        <time>2020-09-17T11:09:01Z</time>
      </trkpt>
      <trkpt lat="45.42151" lon="3.38463">
        <ele>569.8</ele>
        <time>2020-09-17T11:09:02Z</time>
      </trkpt>
      <trkpt lat="45.42151" lon="3.38464">
        <ele>569.7</ele>
        <time>2020-09-17T11:09:03Z</time>
      </trkpt>
      <trkpt lat="45.42151" lon="3.38466">
        <ele>569.5</ele>
        <time>2020-09-17T11:09:04Z</time>
      </trkpt>
      <trkpt lat="45.42151" lon="3.38467">
        <ele>569.4</ele>
        <time>2020-09-17T11:09:05Z</time>
      </trkpt>
      <trkpt lat="45.42151" lon="3.38469">
        <ele>569.3</ele>
        <time>2020-09-17T11:09:06Z</time>
      </trkpt>
      <trkpt lat="45.42151" lon="3.3847">
        <ele>569.1</ele>
        <time>2020-09-17T11:09:07Z</time>
      </trkpt>
      <trkpt lat="45.42151" lon="3.38471">
        <ele>569</ele>
        <time>2020-09-17T11:09:08Z</time>
      </trkpt>
      <trkpt lat="45.4215" lon="3.38473">
        <ele>568.9</ele>
        <time>2020-09-17T11:09:09Z</time>
      </trkpt>
      <trkpt lat="45.4215" lon="3.38474">
        <ele>568.8</ele>
        <time>2020-09-17T11:09:10Z</time>
      </trkpt>
      <trkpt lat="45.4215" lon="3.38476">
        <ele>568.6</ele>
        <time>2020-09-17T11:09:11Z</time>
      </trkpt>
      <trkpt lat="45.4215" lon="3.38477">
        <ele>568.5</ele>
        <time>2020-09-17T11:09:12Z</time>
      </trkpt>
      <trkpt lat="45.4215" lon="3.38478">
        <ele>568.4</ele>
        <time>2020-09-17T11:09:13Z</time>
      </trkpt>
      <trkpt lat="45.4215" lon="3.38479">
        <ele>568.3</ele>
        <time>2020-09-17T11:09:14Z</time>
      </trkpt>
      <trkpt lat="45.4215" lon="3.38481">
        <ele>568.1</ele>
        <time>2020-09-17T11:09:15Z</time>
      </trkpt>
      <trkpt lat="45.4215" lon="3.38482">
        <ele>568</ele>
        <time>2020-09-17T11:09:16Z</time>
      </trkpt>
      <trkpt lat="45.4215" lon="3.38483">
        <ele>567.9</ele>
        <time>2020-09-17T11:09:17Z</time>
      </trkpt>
      <trkpt lat="45.42149" lon="3.38484">
        <ele>567.8</ele>
        <time>2020-09-17T11:09:18Z</time>
      </trkpt>
      <trkpt lat="45.42149" lon="3.38486">
        <ele>567.7</ele>
        <time>2020-09-17T11:09:19Z</time>
      </trkpt>
      <trkpt lat="45.42149" lon="3.38487">
        <ele>567.6</ele>
        <time>2020-09-17T11:09:20Z</time>
      </trkpt>
      <trkpt lat="45.42149" lon="3.38488">
        <ele>567.4</ele>
        <time>2020-09-17T11:09:21Z</time>
      </trkpt>
      <trkpt lat="45.42149" lon="3.38489">
        <ele>567.3</ele>
        <time>2020-09-17T11:09:22Z</time>
      </trkpt>
      <trkpt lat="45.42149" lon="3.38489">
        <ele>567.3</ele>
        <time>2020-09-17T11:09:23Z</time>
      </trkpt>
      <trkpt lat="45.4215" lon="3.3849">
        <ele>567.1</ele>
        <time>2020-09-17T11:09:24Z</time>
      </trkpt>
      <trkpt lat="45.42149" lon="3.38491">
        <ele>567</ele>
        <time>2020-09-17T11:09:25Z</time>
      </trkpt>
      <trkpt lat="45.42149" lon="3.38492">
        <ele>566.9</ele>
        <time>2020-09-17T11:09:26Z</time>
      </trkpt>
      <trkpt lat="45.42149" lon="3.38494">
        <ele>566.8</ele>
        <time>2020-09-17T11:09:27Z</time>
      </trkpt>
      <trkpt lat="45.42149" lon="3.38494">
        <ele>566.7</ele>
        <time>2020-09-17T11:09:28Z</time>
      </trkpt>
      <trkpt lat="45.42149" lon="3.38496">
        <ele>566.6</ele>
        <time>2020-09-17T11:09:29Z</time>
      </trkpt>
      <trkpt lat="45.42149" lon="3.38497">
        <ele>566.5</ele>
        <time>2020-09-17T11:09:30Z</time>
      </trkpt>
      <trkpt lat="45.42148" lon="3.38498">
        <ele>566.5</ele>
        <time>2020-09-17T11:09:31Z</time>
      </trkpt>
      <trkpt lat="45.42148" lon="3.38499">
        <ele>566.6</ele>
        <time>2020-09-17T11:09:32Z</time>
      </trkpt>
      <trkpt lat="45.42147" lon="3.385">
        <ele>566.6</ele>
        <time>2020-09-17T11:09:33Z</time>
      </trkpt>
      <trkpt lat="45.42147" lon="3.38501">
        <ele>566.6</ele>
        <time>2020-09-17T11:09:34Z</time>
      </trkpt>
      <trkpt lat="45.42147" lon="3.38503">
        <ele>566.7</ele>
        <time>2020-09-17T11:09:35Z</time>
      </trkpt>
      <trkpt lat="45.42146" lon="3.38504">
        <ele>566.8</ele>
        <time>2020-09-17T11:09:36Z</time>
      </trkpt>
      <trkpt lat="45.42146" lon="3.38505">
        <ele>567</ele>
        <time>2020-09-17T11:09:37Z</time>
      </trkpt>
      <trkpt lat="45.42145" lon="3.38506">
        <ele>567</ele>
        <time>2020-09-17T11:09:38Z</time>
      </trkpt>
      <trkpt lat="45.42145" lon="3.38507">
        <ele>567.1</ele>
        <time>2020-09-17T11:09:39Z</time>
      </trkpt>
      <trkpt lat="45.42145" lon="3.38509">
        <ele>567.2</ele>
        <time>2020-09-17T11:09:40Z</time>
      </trkpt>
      <trkpt lat="45.42145" lon="3.3851">
        <ele>567.2</ele>
        <time>2020-09-17T11:09:41Z</time>
      </trkpt>
      <trkpt lat="45.42144" lon="3.38512">
        <ele>567.3</ele>
        <time>2020-09-17T11:09:42Z</time>
      </trkpt>
      <trkpt lat="45.42144" lon="3.38513">
        <ele>567.4</ele>
        <time>2020-09-17T11:09:43Z</time>
      </trkpt>
      <trkpt lat="45.42144" lon="3.38515">
        <ele>567.4</ele>
        <time>2020-09-17T11:09:44Z</time>
      </trkpt>
      <trkpt lat="45.42144" lon="3.38516">
        <ele>567.4</ele>
        <time>2020-09-17T11:09:45Z</time>
      </trkpt>
      <trkpt lat="45.42144" lon="3.38518">
        <ele>567.3</ele>
        <time>2020-09-17T11:09:46Z</time>
      </trkpt>
      <trkpt lat="45.42144" lon="3.3852">
        <ele>567.3</ele>
        <time>2020-09-17T11:09:47Z</time>
      </trkpt>
      <trkpt lat="45.42144" lon="3.38521">
        <ele>567.2</ele>
        <time>2020-09-17T11:09:48Z</time>
      </trkpt>
      <trkpt lat="45.42144" lon="3.38523">
        <ele>567.2</ele>
        <time>2020-09-17T11:09:49Z</time>
      </trkpt>
      <trkpt lat="45.42144" lon="3.38525">
        <ele>567.1</ele>
        <time>2020-09-17T11:09:50Z</time>
      </trkpt>
      <trkpt lat="45.42144" lon="3.38526">
        <ele>567.1</ele>
        <time>2020-09-17T11:09:51Z</time>
      </trkpt>
      <trkpt lat="45.42145" lon="3.38528">
        <ele>566.9</ele>
        <time>2020-09-17T11:09:52Z</time>
      </trkpt>
      <trkpt lat="45.42145" lon="3.38529">
        <ele>566.9</ele>
        <time>2020-09-17T11:09:53Z</time>
      </trkpt>
      <trkpt lat="45.42145" lon="3.38531">
        <ele>566.8</ele>
        <time>2020-09-17T11:09:54Z</time>
      </trkpt>
      <trkpt lat="45.42146" lon="3.38533">
        <ele>566.8</ele>
        <time>2020-09-17T11:09:55Z</time>
      </trkpt>
      <trkpt lat="45.42146" lon="3.38534">
        <ele>566.8</ele>
        <time>2020-09-17T11:09:56Z</time>
      </trkpt>
      <trkpt lat="45.42146" lon="3.38536">
        <ele>566.8</ele>
        <time>2020-09-17T11:09:57Z</time>
      </trkpt>
      <trkpt lat="45.42147" lon="3.38538">
        <ele>566.7</ele>
        <time>2020-09-17T11:09:58Z</time>
      </trkpt>
      <trkpt lat="45.42147" lon="3.38539">
        <ele>566.7</ele>
        <time>2020-09-17T11:09:59Z</time>
      </trkpt>
      <trkpt lat="45.42147" lon="3.38541">
        <ele>566.7</ele>
        <time>2020-09-17T11:10:00Z</time>
      </trkpt>
      <trkpt lat="45.42148" lon="3.38543">
        <ele>566.6</ele>
        <time>2020-09-17T11:10:01Z</time>
      </trkpt>
      <trkpt lat="45.42148" lon="3.38544">
        <ele>566.7</ele>
        <time>2020-09-17T11:10:02Z</time>
      </trkpt>
      <trkpt lat="45.42149" lon="3.38546">
        <ele>566.6</ele>
        <time>2020-09-17T11:10:03Z</time>
      </trkpt>
      <trkpt lat="45.42149" lon="3.38548">
        <ele>566.6</ele>
        <time>2020-09-17T11:10:04Z</time>
      </trkpt>
      <trkpt lat="45.4215" lon="3.38549">
        <ele>566.7</ele>
        <time>2020-09-17T11:10:05Z</time>
      </trkpt>
      <trkpt lat="45.4215" lon="3.38551">
        <ele>566.7</ele>
        <time>2020-09-17T11:10:06Z</time>
      </trkpt>
      <trkpt lat="45.42151" lon="3.38553">
        <ele>566.7</ele>
        <time>2020-09-17T11:10:07Z</time>
      </trkpt>
      <trkpt lat="45.42151" lon="3.38554">
        <ele>566.7</ele>
        <time>2020-09-17T11:10:08Z</time>
      </trkpt>
      <trkpt lat="45.42152" lon="3.38556">
        <ele>566.7</ele>
        <time>2020-09-17T11:10:09Z</time>
      </trkpt>
      <trkpt lat="45.42152" lon="3.38557">
        <ele>566.8</ele>
        <time>2020-09-17T11:10:10Z</time>
      </trkpt>
      <trkpt lat="45.42152" lon="3.38559">
        <ele>566.9</ele>
        <time>2020-09-17T11:10:11Z</time>
      </trkpt>
      <trkpt lat="45.42153" lon="3.38561">
        <ele>567</ele>
        <time>2020-09-17T11:10:12Z</time>
      </trkpt>
      <trkpt lat="45.42153" lon="3.38562">
        <ele>567</ele>
        <time>2020-09-17T11:10:13Z</time>
      </trkpt>
      <trkpt lat="45.42154" lon="3.38564">
        <ele>567.1</ele>
        <time>2020-09-17T11:10:14Z</time>
      </trkpt>
      <trkpt lat="45.42154" lon="3.38565">
        <ele>567.1</ele>
        <time>2020-09-17T11:10:15Z</time>
      </trkpt>
      <trkpt lat="45.42155" lon="3.38567">
        <ele>567.2</ele>
        <time>2020-09-17T11:10:16Z</time>
      </trkpt>
      <trkpt lat="45.42155" lon="3.38568">
        <ele>567.2</ele>
        <time>2020-09-17T11:10:17Z</time>
      </trkpt>
      <trkpt lat="45.42155" lon="3.3857">
        <ele>567.4</ele>
        <time>2020-09-17T11:10:18Z</time>
      </trkpt>
      <trkpt lat="45.42156" lon="3.38571">
        <ele>567.4</ele>
        <time>2020-09-17T11:10:19Z</time>
      </trkpt>
      <trkpt lat="45.42156" lon="3.38573">
        <ele>567.5</ele>
        <time>2020-09-17T11:10:20Z</time>
      </trkpt>
      <trkpt lat="45.42157" lon="3.38574">
        <ele>567.6</ele>
        <time>2020-09-17T11:10:21Z</time>
      </trkpt>
      <trkpt lat="45.42157" lon="3.38576">
        <ele>567.7</ele>
        <time>2020-09-17T11:10:22Z</time>
      </trkpt>
      <trkpt lat="45.42157" lon="3.38577">
        <ele>567.8</ele>
        <time>2020-09-17T11:10:23Z</time>
      </trkpt>
      <trkpt lat="45.42158" lon="3.38579">
        <ele>567.9</ele>
        <time>2020-09-17T11:10:24Z</time>
      </trkpt>
      <trkpt lat="45.42158" lon="3.3858">
        <ele>567.9</ele>
        <time>2020-09-17T11:10:25Z</time>
      </trkpt>
      <trkpt lat="45.42159" lon="3.38582">
        <ele>568</ele>
        <time>2020-09-17T11:10:26Z</time>
      </trkpt>
      <trkpt lat="45.42159" lon="3.38584">
        <ele>568.1</ele>
        <time>2020-09-17T11:10:27Z</time>
      </trkpt>
      <trkpt lat="45.42159" lon="3.38585">
        <ele>568.2</ele>
        <time>2020-09-17T11:10:28Z</time>
      </trkpt>
      <trkpt lat="45.4216" lon="3.38587">
        <ele>568.2</ele>
        <time>2020-09-17T11:10:29Z</time>
      </trkpt>
      <trkpt lat="45.4216" lon="3.38588">
        <ele>568.3</ele>
        <time>2020-09-17T11:10:30Z</time>
      </trkpt>
      <trkpt lat="45.42161" lon="3.3859">
        <ele>568.3</ele>
        <time>2020-09-17T11:10:31Z</time>
      </trkpt>
      <trkpt lat="45.42161" lon="3.38591">
        <ele>568.4</ele>
        <time>2020-09-17T11:10:32Z</time>
      </trkpt>
      <trkpt lat="45.42161" lon="3.38593">
        <ele>568.5</ele>
        <time>2020-09-17T11:10:33Z</time>
      </trkpt>
      <trkpt lat="45.42162" lon="3.38594">
        <ele>568.5</ele>
        <time>2020-09-17T11:10:34Z</time>
      </trkpt>
      <trkpt lat="45.42162" lon="3.38596">
        <ele>568.6</ele>
        <time>2020-09-17T11:10:35Z</time>
      </trkpt>
      <trkpt lat="45.42163" lon="3.38597">
        <ele>568.6</ele>
        <time>2020-09-17T11:10:36Z</time>
      </trkpt>
      <trkpt lat="45.42163" lon="3.38599">
        <ele>568.7</ele>
        <time>2020-09-17T11:10:37Z</time>
      </trkpt>
      <trkpt lat="45.42163" lon="3.386">
        <ele>568.7</ele>
        <time>2020-09-17T11:10:38Z</time>
      </trkpt>
      <trkpt lat="45.42164" lon="3.38602">
        <ele>568.8</ele>
        <time>2020-09-17T11:10:39Z</time>
      </trkpt>
      <trkpt lat="45.42164" lon="3.38604">
        <ele>568.9</ele>
        <time>2020-09-17T11:10:40Z</time>
      </trkpt>
      <trkpt lat="45.42164" lon="3.38605">
        <ele>568.9</ele>
        <time>2020-09-17T11:10:41Z</time>
      </trkpt>
      <trkpt lat="45.42164" lon="3.38607">
        <ele>569</ele>
        <time>2020-09-17T11:10:42Z</time>
      </trkpt>
      <trkpt lat="45.42165" lon="3.38608">
        <ele>569.1</ele>
        <time>2020-09-17T11:10:43Z</time>
      </trkpt>
      <trkpt lat="45.42165" lon="3.3861">
        <ele>569.1</ele>
        <time>2020-09-17T11:10:44Z</time>
      </trkpt>
      <trkpt lat="45.42165" lon="3.38611">
        <ele>569.2</ele>
        <time>2020-09-17T11:10:45Z</time>
      </trkpt>
      <trkpt lat="45.42165" lon="3.38613">
        <ele>569.4</ele>
        <time>2020-09-17T11:10:46Z</time>
      </trkpt>
      <trkpt lat="45.42165" lon="3.38614">
        <ele>569.6</ele>
        <time>2020-09-17T11:10:47Z</time>
      </trkpt>
      <trkpt lat="45.42166" lon="3.38616">
        <ele>569.8</ele>
        <time>2020-09-17T11:10:48Z</time>
      </trkpt>
      <trkpt lat="45.42166" lon="3.38617">
        <ele>570</ele>
        <time>2020-09-17T11:10:49Z</time>
      </trkpt>
      <trkpt lat="45.42166" lon="3.38619">
        <ele>570.2</ele>
        <time>2020-09-17T11:10:50Z</time>
      </trkpt>
      <trkpt lat="45.42166" lon="3.3862">
        <ele>570.3</ele>
        <time>2020-09-17T11:10:51Z</time>
      </trkpt>
      <trkpt lat="45.42167" lon="3.38621">
        <ele>570.4</ele>
        <time>2020-09-17T11:10:52Z</time>
      </trkpt>
      <trkpt lat="45.42167" lon="3.38622">
        <ele>570.6</ele>
        <time>2020-09-17T11:10:53Z</time>
      </trkpt>
      <trkpt lat="45.42167" lon="3.38623">
        <ele>570.7</ele>
        <time>2020-09-17T11:10:54Z</time>
      </trkpt>
      <trkpt lat="45.42167" lon="3.38625">
        <ele>570.9</ele>
        <time>2020-09-17T11:10:55Z</time>
      </trkpt>
      <trkpt lat="45.42168" lon="3.38626">
        <ele>571</ele>
        <time>2020-09-17T11:10:56Z</time>
      </trkpt>
      <trkpt lat="45.42168" lon="3.38627">
        <ele>571.2</ele>
        <time>2020-09-17T11:10:57Z</time>
      </trkpt>
      <trkpt lat="45.42168" lon="3.38628">
        <ele>571.3</ele>
        <time>2020-09-17T11:10:58Z</time>
      </trkpt>
      <trkpt lat="45.42168" lon="3.38629">
        <ele>571.4</ele>
        <time>2020-09-17T11:10:59Z</time>
      </trkpt>
      <trkpt lat="45.42169" lon="3.38631">
        <ele>571.6</ele>
        <time>2020-09-17T11:11:00Z</time>
      </trkpt>
      <trkpt lat="45.42169" lon="3.38632">
        <ele>571.8</ele>
        <time>2020-09-17T11:11:01Z</time>
      </trkpt>
      <trkpt lat="45.42169" lon="3.38633">
        <ele>571.9</ele>
        <time>2020-09-17T11:11:02Z</time>
      </trkpt>
      <trkpt lat="45.42169" lon="3.38635">
        <ele>572.1</ele>
        <time>2020-09-17T11:11:03Z</time>
      </trkpt>
      <trkpt lat="45.42169" lon="3.38636">
        <ele>572.3</ele>
        <time>2020-09-17T11:11:04Z</time>
      </trkpt>
      <trkpt lat="45.4217" lon="3.38637">
        <ele>572.4</ele>
        <time>2020-09-17T11:11:05Z</time>
      </trkpt>
      <trkpt lat="45.4217" lon="3.38638">
        <ele>572.6</ele>
        <time>2020-09-17T11:11:06Z</time>
      </trkpt>
      <trkpt lat="45.4217" lon="3.3864">
        <ele>572.7</ele>
        <time>2020-09-17T11:11:07Z</time>
      </trkpt>
      <trkpt lat="45.4217" lon="3.38641">
        <ele>572.8</ele>
        <time>2020-09-17T11:11:08Z</time>
      </trkpt>
      <trkpt lat="45.4217" lon="3.38642">
        <ele>572.9</ele>
        <time>2020-09-17T11:11:09Z</time>
      </trkpt>
      <trkpt lat="45.4217" lon="3.38644">
        <ele>573</ele>
        <time>2020-09-17T11:11:10Z</time>
      </trkpt>
      <trkpt lat="45.42171" lon="3.38645">
        <ele>573</ele>
        <time>2020-09-17T11:11:11Z</time>
      </trkpt>
      <trkpt lat="45.42171" lon="3.38646">
        <ele>573.1</ele>
        <time>2020-09-17T11:11:12Z</time>
      </trkpt>
      <trkpt lat="45.42171" lon="3.38648">
        <ele>573.2</ele>
        <time>2020-09-17T11:11:13Z</time>
      </trkpt>
      <trkpt lat="45.42171" lon="3.38649">
        <ele>573.3</ele>
        <time>2020-09-17T11:11:14Z</time>
      </trkpt>
      <trkpt lat="45.42172" lon="3.3865">
        <ele>573.4</ele>
        <time>2020-09-17T11:11:15Z</time>
      </trkpt>
      <trkpt lat="45.42172" lon="3.38652">
        <ele>573.5</ele>
        <time>2020-09-17T11:11:16Z</time>
      </trkpt>
      <trkpt lat="45.42172" lon="3.38653">
        <ele>573.5</ele>
        <time>2020-09-17T11:11:17Z</time>
      </trkpt>
      <trkpt lat="45.42172" lon="3.38654">
        <ele>573.6</ele>
        <time>2020-09-17T11:11:18Z</time>
      </trkpt>
      <trkpt lat="45.42172" lon="3.38656">
        <ele>573.7</ele>
        <time>2020-09-17T11:11:19Z</time>
      </trkpt>
      <trkpt lat="45.42172" lon="3.38657">
        <ele>573.8</ele>
        <time>2020-09-17T11:11:20Z</time>
      </trkpt>
      <trkpt lat="45.42173" lon="3.38658">
        <ele>573.9</ele>
        <time>2020-09-17T11:11:21Z</time>
      </trkpt>
      <trkpt lat="45.42173" lon="3.38659">
        <ele>574</ele>
        <time>2020-09-17T11:11:22Z</time>
      </trkpt>
      <trkpt lat="45.42173" lon="3.38661">
        <ele>574.1</ele>
        <time>2020-09-17T11:11:23Z</time>
      </trkpt>
      <trkpt lat="45.42173" lon="3.38662">
        <ele>574.2</ele>
        <time>2020-09-17T11:11:24Z</time>
      </trkpt>
      <trkpt lat="45.42173" lon="3.38663">
        <ele>574.3</ele>
        <time>2020-09-17T11:11:25Z</time>
      </trkpt>
      <trkpt lat="45.42173" lon="3.38664">
        <ele>574.4</ele>
        <time>2020-09-17T11:11:26Z</time>
      </trkpt>
      <trkpt lat="45.42173" lon="3.38666">
        <ele>574.5</ele>
        <time>2020-09-17T11:11:27Z</time>
      </trkpt>
      <trkpt lat="45.42173" lon="3.38667">
        <ele>574.6</ele>
        <time>2020-09-17T11:11:28Z</time>
      </trkpt>
      <trkpt lat="45.42173" lon="3.38669">
        <ele>574.7</ele>
        <time>2020-09-17T11:11:29Z</time>
      </trkpt>
      <trkpt lat="45.42173" lon="3.3867">
        <ele>574.8</ele>
        <time>2020-09-17T11:11:30Z</time>
      </trkpt>
      <trkpt lat="45.42173" lon="3.38671">
        <ele>574.9</ele>
        <time>2020-09-17T11:11:31Z</time>
      </trkpt>
      <trkpt lat="45.42173" lon="3.38673">
        <ele>575</ele>
        <time>2020-09-17T11:11:32Z</time>
      </trkpt>
      <trkpt lat="45.42173" lon="3.38674">
        <ele>575.1</ele>
        <time>2020-09-17T11:11:33Z</time>
      </trkpt>
      <trkpt lat="45.42173" lon="3.38675">
        <ele>575.2</ele>
        <time>2020-09-17T11:11:34Z</time>
      </trkpt>
      <trkpt lat="45.42173" lon="3.38677">
        <ele>575.3</ele>
        <time>2020-09-17T11:11:35Z</time>
      </trkpt>
      <trkpt lat="45.42174" lon="3.38678">
        <ele>575.4</ele>
        <time>2020-09-17T11:11:36Z</time>
      </trkpt>
      <trkpt lat="45.42174" lon="3.38679">
        <ele>575.5</ele>
        <time>2020-09-17T11:11:37Z</time>
      </trkpt>
      <trkpt lat="45.42174" lon="3.3868">
        <ele>575.6</ele>
        <time>2020-09-17T11:11:38Z</time>
      </trkpt>
      <trkpt lat="45.42174" lon="3.38682">
        <ele>575.7</ele>
        <time>2020-09-17T11:11:39Z</time>
      </trkpt>
      <trkpt lat="45.42175" lon="3.38683">
        <ele>575.8</ele>
        <time>2020-09-17T11:11:40Z</time>
      </trkpt>
      <trkpt lat="45.42175" lon="3.38684">
        <ele>575.8</ele>
        <time>2020-09-17T11:11:41Z</time>
      </trkpt>
      <trkpt lat="45.42175" lon="3.38685">
        <ele>575.9</ele>
        <time>2020-09-17T11:11:42Z</time>
      </trkpt>
      <trkpt lat="45.42176" lon="3.38686">
        <ele>576</ele>
        <time>2020-09-17T11:11:43Z</time>
      </trkpt>
      <trkpt lat="45.42176" lon="3.38688">
        <ele>576.1</ele>
        <time>2020-09-17T11:11:44Z</time>
      </trkpt>
      <trkpt lat="45.42176" lon="3.38689">
        <ele>576.2</ele>
        <time>2020-09-17T11:11:45Z</time>
      </trkpt>
      <trkpt lat="45.42177" lon="3.3869">
        <ele>576.3</ele>
        <time>2020-09-17T11:11:46Z</time>
      </trkpt>
      <trkpt lat="45.42177" lon="3.38692">
        <ele>576.4</ele>
        <time>2020-09-17T11:11:47Z</time>
      </trkpt>
      <trkpt lat="45.42177" lon="3.38693">
        <ele>576.5</ele>
        <time>2020-09-17T11:11:48Z</time>
      </trkpt>
      <trkpt lat="45.42177" lon="3.38695">
        <ele>576.6</ele>
        <time>2020-09-17T11:11:49Z</time>
      </trkpt>
      <trkpt lat="45.42177" lon="3.38696">
        <ele>576.8</ele>
        <time>2020-09-17T11:11:50Z</time>
      </trkpt>
      <trkpt lat="45.42178" lon="3.38697">
        <ele>576.9</ele>
        <time>2020-09-17T11:11:51Z</time>
      </trkpt>
      <trkpt lat="45.42178" lon="3.38699">
        <ele>577</ele>
        <time>2020-09-17T11:11:52Z</time>
      </trkpt>
      <trkpt lat="45.42178" lon="3.387">
        <ele>577.1</ele>
        <time>2020-09-17T11:11:53Z</time>
      </trkpt>
      <trkpt lat="45.42178" lon="3.38701">
        <ele>577.2</ele>
        <time>2020-09-17T11:11:54Z</time>
      </trkpt>
      <trkpt lat="45.42178" lon="3.38703">
        <ele>577.3</ele>
        <time>2020-09-17T11:11:55Z</time>
      </trkpt>
      <trkpt lat="45.42179" lon="3.38704">
        <ele>577.4</ele>
        <time>2020-09-17T11:11:56Z</time>
      </trkpt>
      <trkpt lat="45.42179" lon="3.38705">
        <ele>577.6</ele>
        <time>2020-09-17T11:11:57Z</time>
      </trkpt>
      <trkpt lat="45.42179" lon="3.38707">
        <ele>577.7</ele>
        <time>2020-09-17T11:11:58Z</time>
      </trkpt>
      <trkpt lat="45.42179" lon="3.38708">
        <ele>577.8</ele>
        <time>2020-09-17T11:11:59Z</time>
      </trkpt>
      <trkpt lat="45.42179" lon="3.38709">
        <ele>577.9</ele>
        <time>2020-09-17T11:12:00Z</time>
      </trkpt>
      <trkpt lat="45.4218" lon="3.3871">
        <ele>578</ele>
        <time>2020-09-17T11:12:01Z</time>
      </trkpt>
      <trkpt lat="45.4218" lon="3.38712">
        <ele>578.1</ele>
        <time>2020-09-17T11:12:02Z</time>
      </trkpt>
      <trkpt lat="45.4218" lon="3.38713">
        <ele>578.2</ele>
        <time>2020-09-17T11:12:03Z</time>
      </trkpt>
      <trkpt lat="45.4218" lon="3.38714">
        <ele>578.3</ele>
        <time>2020-09-17T11:12:04Z</time>
      </trkpt>
      <trkpt lat="45.4218" lon="3.38716">
        <ele>578.5</ele>
        <time>2020-09-17T11:12:05Z</time>
      </trkpt>
      <trkpt lat="45.4218" lon="3.38717">
        <ele>578.6</ele>
        <time>2020-09-17T11:12:06Z</time>
      </trkpt>
      <trkpt lat="45.4218" lon="3.38718">
        <ele>578.7</ele>
        <time>2020-09-17T11:12:07Z</time>
      </trkpt>
      <trkpt lat="45.4218" lon="3.3872">
        <ele>578.8</ele>
        <time>2020-09-17T11:12:08Z</time>
      </trkpt>
      <trkpt lat="45.4218" lon="3.38721">
        <ele>578.9</ele>
        <time>2020-09-17T11:12:09Z</time>
      </trkpt>
      <trkpt lat="45.4218" lon="3.38722">
        <ele>579</ele>
        <time>2020-09-17T11:12:10Z</time>
      </trkpt>
      <trkpt lat="45.4218" lon="3.38724">
        <ele>579.1</ele>
        <time>2020-09-17T11:12:11Z</time>
      </trkpt>
      <trkpt lat="45.42181" lon="3.38725">
        <ele>579.2</ele>
        <time>2020-09-17T11:12:12Z</time>
      </trkpt>
      <trkpt lat="45.42181" lon="3.38726">
        <ele>579.4</ele>
        <time>2020-09-17T11:12:13Z</time>
      </trkpt>
      <trkpt lat="45.42181" lon="3.38728">
        <ele>579.5</ele>
        <time>2020-09-17T11:12:14Z</time>
      </trkpt>
      <trkpt lat="45.42181" lon="3.38729">
        <ele>579.6</ele>
        <time>2020-09-17T11:12:15Z</time>
      </trkpt>
      <trkpt lat="45.42181" lon="3.3873">
        <ele>579.7</ele>
        <time>2020-09-17T11:12:16Z</time>
      </trkpt>
      <trkpt lat="45.42181" lon="3.38732">
        <ele>579.8</ele>
        <time>2020-09-17T11:12:17Z</time>
      </trkpt>
      <trkpt lat="45.42181" lon="3.38733">
        <ele>579.9</ele>
        <time>2020-09-17T11:12:18Z</time>
      </trkpt>
      <trkpt lat="45.42182" lon="3.38734">
        <ele>580</ele>
        <time>2020-09-17T11:12:19Z</time>
      </trkpt>
      <trkpt lat="45.42182" lon="3.38736">
        <ele>580.1</ele>
        <time>2020-09-17T11:12:20Z</time>
      </trkpt>
      <trkpt lat="45.42182" lon="3.38737">
        <ele>580.3</ele>
        <time>2020-09-17T11:12:21Z</time>
      </trkpt>
      <trkpt lat="45.42182" lon="3.38739">
        <ele>580.4</ele>
        <time>2020-09-17T11:12:22Z</time>
      </trkpt>
      <trkpt lat="45.42182" lon="3.3874">
        <ele>580.5</ele>
        <time>2020-09-17T11:12:23Z</time>
      </trkpt>
      <trkpt lat="45.42182" lon="3.38741">
        <ele>580.6</ele>
        <time>2020-09-17T11:12:24Z</time>
      </trkpt>
      <trkpt lat="45.42182" lon="3.38743">
        <ele>580.7</ele>
        <time>2020-09-17T11:12:25Z</time>
      </trkpt>
      <trkpt lat="45.42182" lon="3.38744">
        <ele>580.9</ele>
        <time>2020-09-17T11:12:26Z</time>
      </trkpt>
      <trkpt lat="45.42182" lon="3.38745">
        <ele>581</ele>
        <time>2020-09-17T11:12:27Z</time>
      </trkpt>
      <trkpt lat="45.42183" lon="3.38746">
        <ele>581.1</ele>
        <time>2020-09-17T11:12:28Z</time>
      </trkpt>
      <trkpt lat="45.42183" lon="3.38747">
        <ele>581.2</ele>
        <time>2020-09-17T11:12:29Z</time>
      </trkpt>
      <trkpt lat="45.42183" lon="3.38749">
        <ele>581.3</ele>
        <time>2020-09-17T11:12:30Z</time>
      </trkpt>
      <trkpt lat="45.42184" lon="3.3875">
        <ele>581.4</ele>
        <time>2020-09-17T11:12:31Z</time>
      </trkpt>
      <trkpt lat="45.42184" lon="3.38751">
        <ele>581.5</ele>
        <time>2020-09-17T11:12:32Z</time>
      </trkpt>
      <trkpt lat="45.42184" lon="3.38753">
        <ele>581.6</ele>
        <time>2020-09-17T11:12:33Z</time>
      </trkpt>
      <trkpt lat="45.42185" lon="3.38754">
        <ele>581.7</ele>
        <time>2020-09-17T11:12:34Z</time>
      </trkpt>
      <trkpt lat="45.42185" lon="3.38755">
        <ele>581.8</ele>
        <time>2020-09-17T11:12:35Z</time>
      </trkpt>
      <trkpt lat="45.42185" lon="3.38757">
        <ele>581.9</ele>
        <time>2020-09-17T11:12:36Z</time>
      </trkpt>
      <trkpt lat="45.42185" lon="3.38758">
        <ele>582</ele>
        <time>2020-09-17T11:12:37Z</time>
      </trkpt>
      <trkpt lat="45.42186" lon="3.3876">
        <ele>582.1</ele>
        <time>2020-09-17T11:12:38Z</time>
      </trkpt>
      <trkpt lat="45.42186" lon="3.38761">
        <ele>582.3</ele>
        <time>2020-09-17T11:12:39Z</time>
      </trkpt>
      <trkpt lat="45.42186" lon="3.38763">
        <ele>582.4</ele>
        <time>2020-09-17T11:12:40Z</time>
      </trkpt>
      <trkpt lat="45.42187" lon="3.38764">
        <ele>582.5</ele>
        <time>2020-09-17T11:12:41Z</time>
      </trkpt>
      <trkpt lat="45.42187" lon="3.38766">
        <ele>582.7</ele>
        <time>2020-09-17T11:12:42Z</time>
      </trkpt>
      <trkpt lat="45.42187" lon="3.38768">
        <ele>582.8</ele>
        <time>2020-09-17T11:12:43Z</time>
      </trkpt>
      <trkpt lat="45.42187" lon="3.38769">
        <ele>583</ele>
        <time>2020-09-17T11:12:44Z</time>
      </trkpt>
      <trkpt lat="45.42187" lon="3.38771">
        <ele>583.1</ele>
        <time>2020-09-17T11:12:45Z</time>
      </trkpt>
      <trkpt lat="45.42188" lon="3.38772">
        <ele>583.2</ele>
        <time>2020-09-17T11:12:46Z</time>
      </trkpt>
      <trkpt lat="45.42188" lon="3.38774">
        <ele>583.4</ele>
        <time>2020-09-17T11:12:47Z</time>
      </trkpt>
      <trkpt lat="45.42188" lon="3.38776">
        <ele>583.6</ele>
        <time>2020-09-17T11:12:48Z</time>
      </trkpt>
      <trkpt lat="45.42188" lon="3.38777">
        <ele>583.7</ele>
        <time>2020-09-17T11:12:49Z</time>
      </trkpt>
      <trkpt lat="45.42188" lon="3.38779">
        <ele>583.8</ele>
        <time>2020-09-17T11:12:50Z</time>
      </trkpt>
      <trkpt lat="45.42188" lon="3.38781">
        <ele>584</ele>
        <time>2020-09-17T11:12:51Z</time>
      </trkpt>
      <trkpt lat="45.42188" lon="3.38782">
        <ele>584.1</ele>
        <time>2020-09-17T11:12:52Z</time>
      </trkpt>
      <trkpt lat="45.42188" lon="3.38784">
        <ele>584.2</ele>
        <time>2020-09-17T11:12:53Z</time>
      </trkpt>
      <trkpt lat="45.42188" lon="3.38785">
        <ele>584.3</ele>
        <time>2020-09-17T11:12:54Z</time>
      </trkpt>
      <trkpt lat="45.42188" lon="3.38787">
        <ele>584.4</ele>
        <time>2020-09-17T11:12:55Z</time>
      </trkpt>
      <trkpt lat="45.42188" lon="3.38789">
        <ele>584.5</ele>
        <time>2020-09-17T11:12:56Z</time>
      </trkpt>
      <trkpt lat="45.42188" lon="3.3879">
        <ele>584.7</ele>
        <time>2020-09-17T11:12:57Z</time>
      </trkpt>
      <trkpt lat="45.42188" lon="3.38792">
        <ele>584.8</ele>
        <time>2020-09-17T11:12:58Z</time>
      </trkpt>
      <trkpt lat="45.42188" lon="3.38793">
        <ele>584.9</ele>
        <time>2020-09-17T11:12:59Z</time>
      </trkpt>
      <trkpt lat="45.42188" lon="3.38795">
        <ele>585</ele>
        <time>2020-09-17T11:13:00Z</time>
      </trkpt>
      <trkpt lat="45.42188" lon="3.38797">
        <ele>585.1</ele>
        <time>2020-09-17T11:13:01Z</time>
      </trkpt>
      <trkpt lat="45.42188" lon="3.38798">
        <ele>585.2</ele>
        <time>2020-09-17T11:13:02Z</time>
      </trkpt>
      <trkpt lat="45.42188" lon="3.388">
        <ele>585.3</ele>
        <time>2020-09-17T11:13:03Z</time>
      </trkpt>
      <trkpt lat="45.42188" lon="3.38801">
        <ele>585.5</ele>
        <time>2020-09-17T11:13:04Z</time>
      </trkpt>
      <trkpt lat="45.42188" lon="3.38803">
        <ele>585.6</ele>
        <time>2020-09-17T11:13:05Z</time>
      </trkpt>
      <trkpt lat="45.42188" lon="3.38805">
        <ele>585.7</ele>
        <time>2020-09-17T11:13:06Z</time>
      </trkpt>
      <trkpt lat="45.42188" lon="3.38807">
        <ele>585.8</ele>
        <time>2020-09-17T11:13:07Z</time>
      </trkpt>
      <trkpt lat="45.42188" lon="3.38808">
        <ele>586</ele>
        <time>2020-09-17T11:13:08Z</time>
      </trkpt>
      <trkpt lat="45.42188" lon="3.3881">
        <ele>586.1</ele>
        <time>2020-09-17T11:13:09Z</time>
      </trkpt>
      <trkpt lat="45.42188" lon="3.38811">
        <ele>586.2</ele>
        <time>2020-09-17T11:13:10Z</time>
      </trkpt>
      <trkpt lat="45.42188" lon="3.38813">
        <ele>586.3</ele>
        <time>2020-09-17T11:13:11Z</time>
      </trkpt>
      <trkpt lat="45.42188" lon="3.38814">
        <ele>586.5</ele>
        <time>2020-09-17T11:13:12Z</time>
      </trkpt>
      <trkpt lat="45.42188" lon="3.38816">
        <ele>586.6</ele>
        <time>2020-09-17T11:13:13Z</time>
      </trkpt>
      <trkpt lat="45.42189" lon="3.38817">
        <ele>586.7</ele>
        <time>2020-09-17T11:13:14Z</time>
      </trkpt>
      <trkpt lat="45.42189" lon="3.38819">
        <ele>586.8</ele>
        <time>2020-09-17T11:13:15Z</time>
      </trkpt>
      <trkpt lat="45.42189" lon="3.3882">
        <ele>586.9</ele>
        <time>2020-09-17T11:13:16Z</time>
      </trkpt>
      <trkpt lat="45.42189" lon="3.38821">
        <ele>587</ele>
        <time>2020-09-17T11:13:17Z</time>
      </trkpt>
      <trkpt lat="45.42189" lon="3.38823">
        <ele>587.2</ele>
        <time>2020-09-17T11:13:18Z</time>
      </trkpt>
      <trkpt lat="45.42189" lon="3.38824">
        <ele>587.3</ele>
        <time>2020-09-17T11:13:19Z</time>
      </trkpt>
      <trkpt lat="45.4219" lon="3.38826">
        <ele>587.4</ele>
        <time>2020-09-17T11:13:20Z</time>
      </trkpt>
      <trkpt lat="45.4219" lon="3.38827">
        <ele>587.5</ele>
        <time>2020-09-17T11:13:21Z</time>
      </trkpt>
      <trkpt lat="45.4219" lon="3.38828">
        <ele>587.6</ele>
        <time>2020-09-17T11:13:22Z</time>
      </trkpt>
      <trkpt lat="45.4219" lon="3.3883">
        <ele>587.7</ele>
        <time>2020-09-17T11:13:23Z</time>
      </trkpt>
      <trkpt lat="45.42191" lon="3.38831">
        <ele>587.8</ele>
        <time>2020-09-17T11:13:24Z</time>
      </trkpt>
      <trkpt lat="45.42191" lon="3.38832">
        <ele>587.9</ele>
        <time>2020-09-17T11:13:25Z</time>
      </trkpt>
      <trkpt lat="45.42191" lon="3.38834">
        <ele>588</ele>
        <time>2020-09-17T11:13:26Z</time>
      </trkpt>
      <trkpt lat="45.42192" lon="3.38835">
        <ele>588.2</ele>
        <time>2020-09-17T11:13:27Z</time>
      </trkpt>
      <trkpt lat="45.42192" lon="3.38836">
        <ele>588.3</ele>
        <time>2020-09-17T11:13:28Z</time>
      </trkpt>
      <trkpt lat="45.42192" lon="3.38838">
        <ele>588.5</ele>
        <time>2020-09-17T11:13:29Z</time>
      </trkpt>
      <trkpt lat="45.42193" lon="3.38839">
        <ele>588.6</ele>
        <time>2020-09-17T11:13:30Z</time>
      </trkpt>
      <trkpt lat="45.42194" lon="3.3884">
        <ele>588.8</ele>
        <time>2020-09-17T11:13:31Z</time>
      </trkpt>
      <trkpt lat="45.42194" lon="3.38842">
        <ele>588.9</ele>
        <time>2020-09-17T11:13:32Z</time>
      </trkpt>
      <trkpt lat="45.42195" lon="3.38843">
        <ele>589</ele>
        <time>2020-09-17T11:13:33Z</time>
      </trkpt>
      <trkpt lat="45.42196" lon="3.38844">
        <ele>589.1</ele>
        <time>2020-09-17T11:13:34Z</time>
      </trkpt>
      <trkpt lat="45.42196" lon="3.38845">
        <ele>589.1</ele>
        <time>2020-09-17T11:13:35Z</time>
      </trkpt>
      <trkpt lat="45.42197" lon="3.38846">
        <ele>589.2</ele>
        <time>2020-09-17T11:13:36Z</time>
      </trkpt>
      <trkpt lat="45.42198" lon="3.38847">
        <ele>589.2</ele>
        <time>2020-09-17T11:13:37Z</time>
      </trkpt>
      <trkpt lat="45.42199" lon="3.38848">
        <ele>589.3</ele>
        <time>2020-09-17T11:13:38Z</time>
      </trkpt>
      <trkpt lat="45.422" lon="3.3885">
        <ele>589.3</ele>
        <time>2020-09-17T11:13:39Z</time>
      </trkpt>
      <trkpt lat="45.42201" lon="3.38851">
        <ele>589.4</ele>
        <time>2020-09-17T11:13:40Z</time>
      </trkpt>
      <trkpt lat="45.42202" lon="3.38852">
        <ele>589.5</ele>
        <time>2020-09-17T11:13:41Z</time>
      </trkpt>
      <trkpt lat="45.42203" lon="3.38853">
        <ele>589.5</ele>
        <time>2020-09-17T11:13:42Z</time>
      </trkpt>
      <trkpt lat="45.42204" lon="3.38854">
        <ele>589.6</ele>
        <time>2020-09-17T11:13:43Z</time>
      </trkpt>
      <trkpt lat="45.42205" lon="3.38855">
        <ele>589.7</ele>
        <time>2020-09-17T11:13:44Z</time>
      </trkpt>
      <trkpt lat="45.42206" lon="3.38857">
        <ele>589.7</ele>
        <time>2020-09-17T11:13:45Z</time>
      </trkpt>
      <trkpt lat="45.42206" lon="3.38858">
        <ele>589.8</ele>
        <time>2020-09-17T11:13:46Z</time>
      </trkpt>
      <trkpt lat="45.42207" lon="3.38859">
        <ele>589.8</ele>
        <time>2020-09-17T11:13:47Z</time>
      </trkpt>
      <trkpt lat="45.42208" lon="3.3886">
        <ele>589.8</ele>
        <time>2020-09-17T11:13:48Z</time>
      </trkpt>
      <trkpt lat="45.42209" lon="3.38861">
        <ele>589.9</ele>
        <time>2020-09-17T11:13:49Z</time>
      </trkpt>
      <trkpt lat="45.4221" lon="3.38862">
        <ele>589.9</ele>
        <time>2020-09-17T11:13:50Z</time>
      </trkpt>
      <trkpt lat="45.42211" lon="3.38863">
        <ele>590</ele>
        <time>2020-09-17T11:13:51Z</time>
      </trkpt>
      <trkpt lat="45.42212" lon="3.38864">
        <ele>590</ele>
        <time>2020-09-17T11:13:52Z</time>
      </trkpt>
      <trkpt lat="45.42213" lon="3.38865">
        <ele>590.1</ele>
        <time>2020-09-17T11:13:53Z</time>
      </trkpt>
      <trkpt lat="45.42214" lon="3.38866">
        <ele>590.2</ele>
        <time>2020-09-17T11:13:54Z</time>
      </trkpt>
      <trkpt lat="45.42215" lon="3.38867">
        <ele>590.2</ele>
        <time>2020-09-17T11:13:55Z</time>
      </trkpt>
      <trkpt lat="45.42216" lon="3.38868">
        <ele>590.3</ele>
        <time>2020-09-17T11:13:56Z</time>
      </trkpt>
      <trkpt lat="45.42217" lon="3.38869">
        <ele>590.4</ele>
        <time>2020-09-17T11:13:57Z</time>
      </trkpt>
      <trkpt lat="45.42218" lon="3.3887">
        <ele>590.5</ele>
        <time>2020-09-17T11:13:58Z</time>
      </trkpt>
      <trkpt lat="45.42219" lon="3.38871">
        <ele>590.5</ele>
        <time>2020-09-17T11:13:59Z</time>
      </trkpt>
      <trkpt lat="45.4222" lon="3.38872">
        <ele>590.6</ele>
        <time>2020-09-17T11:14:00Z</time>
      </trkpt>
      <trkpt lat="45.42221" lon="3.38873">
        <ele>590.7</ele>
        <time>2020-09-17T11:14:01Z</time>
      </trkpt>
      <trkpt lat="45.42221" lon="3.38873">
        <ele>590.8</ele>
        <time>2020-09-17T11:14:02Z</time>
      </trkpt>
      <trkpt lat="45.42222" lon="3.38874">
        <ele>590.9</ele>
        <time>2020-09-17T11:14:03Z</time>
      </trkpt>
      <trkpt lat="45.42223" lon="3.38875">
        <ele>591.1</ele>
        <time>2020-09-17T11:14:04Z</time>
      </trkpt>
      <trkpt lat="45.42224" lon="3.38876">
        <ele>591.2</ele>
        <time>2020-09-17T11:14:05Z</time>
      </trkpt>
      <trkpt lat="45.42225" lon="3.38877">
        <ele>591.4</ele>
        <time>2020-09-17T11:14:06Z</time>
      </trkpt>
      <trkpt lat="45.42226" lon="3.38877">
        <ele>591.5</ele>
        <time>2020-09-17T11:14:07Z</time>
      </trkpt>
      <trkpt lat="45.42227" lon="3.38878">
        <ele>591.7</ele>
        <time>2020-09-17T11:14:08Z</time>
      </trkpt>
      <trkpt lat="45.42227" lon="3.38879">
        <ele>591.8</ele>
        <time>2020-09-17T11:14:09Z</time>
      </trkpt>
      <trkpt lat="45.42228" lon="3.3888">
        <ele>592</ele>
        <time>2020-09-17T11:14:10Z</time>
      </trkpt>
      <trkpt lat="45.42229" lon="3.3888">
        <ele>592.2</ele>
        <time>2020-09-17T11:14:11Z</time>
      </trkpt>
      <trkpt lat="45.4223" lon="3.38881">
        <ele>592.4</ele>
        <time>2020-09-17T11:14:12Z</time>
      </trkpt>
      <trkpt lat="45.4223" lon="3.38882">
        <ele>592.5</ele>
        <time>2020-09-17T11:14:13Z</time>
      </trkpt>
      <trkpt lat="45.42231" lon="3.38883">
        <ele>592.7</ele>
        <time>2020-09-17T11:14:14Z</time>
      </trkpt>
      <trkpt lat="45.42232" lon="3.38884">
        <ele>592.9</ele>
        <time>2020-09-17T11:14:15Z</time>
      </trkpt>
      <trkpt lat="45.42233" lon="3.38885">
        <ele>593.1</ele>
        <time>2020-09-17T11:14:16Z</time>
      </trkpt>
      <trkpt lat="45.42233" lon="3.38886">
        <ele>593.3</ele>
        <time>2020-09-17T11:14:17Z</time>
      </trkpt>
      <trkpt lat="45.42234" lon="3.38887">
        <ele>593.5</ele>
        <time>2020-09-17T11:14:18Z</time>
      </trkpt>
      <trkpt lat="45.42235" lon="3.38887">
        <ele>593.7</ele>
        <time>2020-09-17T11:14:19Z</time>
      </trkpt>
      <trkpt lat="45.42236" lon="3.38888">
        <ele>593.9</ele>
        <time>2020-09-17T11:14:20Z</time>
      </trkpt>
      <trkpt lat="45.42237" lon="3.38889">
        <ele>594</ele>
        <time>2020-09-17T11:14:21Z</time>
      </trkpt>
      <trkpt lat="45.42238" lon="3.3889">
        <ele>594.2</ele>
        <time>2020-09-17T11:14:22Z</time>
      </trkpt>
      <trkpt lat="45.42238" lon="3.3889">
        <ele>594.3</ele>
        <time>2020-09-17T11:14:23Z</time>
      </trkpt>
      <trkpt lat="45.42239" lon="3.38891">
        <ele>594.4</ele>
        <time>2020-09-17T11:14:24Z</time>
      </trkpt>
      <trkpt lat="45.4224" lon="3.38892">
        <ele>594.5</ele>
        <time>2020-09-17T11:14:25Z</time>
      </trkpt>
      <trkpt lat="45.42241" lon="3.38893">
        <ele>594.7</ele>
        <time>2020-09-17T11:14:26Z</time>
      </trkpt>
      <trkpt lat="45.42242" lon="3.38894">
        <ele>594.8</ele>
        <time>2020-09-17T11:14:27Z</time>
      </trkpt>
      <trkpt lat="45.42242" lon="3.38894">
        <ele>595</ele>
        <time>2020-09-17T11:14:28Z</time>
      </trkpt>
      <trkpt lat="45.42243" lon="3.38895">
        <ele>595.1</ele>
        <time>2020-09-17T11:14:29Z</time>
      </trkpt>
      <trkpt lat="45.42244" lon="3.38896">
        <ele>595.2</ele>
        <time>2020-09-17T11:14:30Z</time>
      </trkpt>
      <trkpt lat="45.42244" lon="3.38896">
        <ele>595.3</ele>
        <time>2020-09-17T11:14:31Z</time>
      </trkpt>
      <trkpt lat="45.42245" lon="3.38897">
        <ele>595.4</ele>
        <time>2020-09-17T11:14:32Z</time>
      </trkpt>
      <trkpt lat="45.42246" lon="3.38897">
        <ele>595.5</ele>
        <time>2020-09-17T11:14:33Z</time>
      </trkpt>
      <trkpt lat="45.42246" lon="3.38898">
        <ele>595.6</ele>
        <time>2020-09-17T11:14:34Z</time>
      </trkpt>
      <trkpt lat="45.42247" lon="3.38898">
        <ele>595.8</ele>
        <time>2020-09-17T11:14:35Z</time>
      </trkpt>
      <trkpt lat="45.42248" lon="3.38899">
        <ele>595.9</ele>
        <time>2020-09-17T11:14:36Z</time>
      </trkpt>
      <trkpt lat="45.42249" lon="3.38899">
        <ele>596</ele>
        <time>2020-09-17T11:14:37Z</time>
      </trkpt>
      <trkpt lat="45.42249" lon="3.389">
        <ele>596.1</ele>
        <time>2020-09-17T11:14:38Z</time>
      </trkpt>
      <trkpt lat="45.4225" lon="3.389">
        <ele>596.2</ele>
        <time>2020-09-17T11:14:39Z</time>
      </trkpt>
      <trkpt lat="45.42251" lon="3.38901">
        <ele>596.4</ele>
        <time>2020-09-17T11:14:40Z</time>
      </trkpt>
      <trkpt lat="45.42251" lon="3.38902">
        <ele>596.5</ele>
        <time>2020-09-17T11:14:41Z</time>
      </trkpt>
      <trkpt lat="45.42252" lon="3.38902">
        <ele>596.6</ele>
        <time>2020-09-17T11:14:42Z</time>
      </trkpt>
      <trkpt lat="45.42253" lon="3.38903">
        <ele>596.7</ele>
        <time>2020-09-17T11:14:43Z</time>
      </trkpt>
      <trkpt lat="45.42254" lon="3.38903">
        <ele>596.8</ele>
        <time>2020-09-17T11:14:44Z</time>
      </trkpt>
      <trkpt lat="45.42254" lon="3.38904">
        <ele>597</ele>
        <time>2020-09-17T11:14:45Z</time>
      </trkpt>
      <trkpt lat="45.42255" lon="3.38904">
        <ele>597</ele>
        <time>2020-09-17T11:14:46Z</time>
      </trkpt>
      <trkpt lat="45.42256" lon="3.38905">
        <ele>597.2</ele>
        <time>2020-09-17T11:14:47Z</time>
      </trkpt>
      <trkpt lat="45.42257" lon="3.38905">
        <ele>597.3</ele>
        <time>2020-09-17T11:14:48Z</time>
      </trkpt>
      <trkpt lat="45.42257" lon="3.38906">
        <ele>597.4</ele>
        <time>2020-09-17T11:14:49Z</time>
      </trkpt>
      <trkpt lat="45.42258" lon="3.38906">
        <ele>597.5</ele>
        <time>2020-09-17T11:14:50Z</time>
      </trkpt>
      <trkpt lat="45.42258" lon="3.38907">
        <ele>597.6</ele>
        <time>2020-09-17T11:14:51Z</time>
      </trkpt>
      <trkpt lat="45.42259" lon="3.38907">
        <ele>597.7</ele>
        <time>2020-09-17T11:14:52Z</time>
      </trkpt>
      <trkpt lat="45.4226" lon="3.38908">
        <ele>597.8</ele>
        <time>2020-09-17T11:14:53Z</time>
      </trkpt>
      <trkpt lat="45.4226" lon="3.38908">
        <ele>597.9</ele>
        <time>2020-09-17T11:14:54Z</time>
      </trkpt>
      <trkpt lat="45.42261" lon="3.38909">
        <ele>598.1</ele>
        <time>2020-09-17T11:14:55Z</time>
      </trkpt>
      <trkpt lat="45.42261" lon="3.38909">
        <ele>598.2</ele>
        <time>2020-09-17T11:14:56Z</time>
      </trkpt>
      <trkpt lat="45.42262" lon="3.3891">
        <ele>598.3</ele>
        <time>2020-09-17T11:14:57Z</time>
      </trkpt>
      <trkpt lat="45.42263" lon="3.3891">
        <ele>598.4</ele>
        <time>2020-09-17T11:14:58Z</time>
      </trkpt>
      <trkpt lat="45.42263" lon="3.3891">
        <ele>598.5</ele>
        <time>2020-09-17T11:14:59Z</time>
      </trkpt>
      <trkpt lat="45.42264" lon="3.38911">
        <ele>598.6</ele>
        <time>2020-09-17T11:15:00Z</time>
      </trkpt>
      <trkpt lat="45.42264" lon="3.38911">
        <ele>598.7</ele>
        <time>2020-09-17T11:15:01Z</time>
      </trkpt>
      <trkpt lat="45.42265" lon="3.38912">
        <ele>598.9</ele>
        <time>2020-09-17T11:15:02Z</time>
      </trkpt>
      <trkpt lat="45.42266" lon="3.38913">
        <ele>599.1</ele>
        <time>2020-09-17T11:15:03Z</time>
      </trkpt>
      <trkpt lat="45.42266" lon="3.38913">
        <ele>599.2</ele>
        <time>2020-09-17T11:15:04Z</time>
      </trkpt>
      <trkpt lat="45.42267" lon="3.38913">
        <ele>599.3</ele>
        <time>2020-09-17T11:15:05Z</time>
      </trkpt>
      <trkpt lat="45.42268" lon="3.38914">
        <ele>599.4</ele>
        <time>2020-09-17T11:15:06Z</time>
      </trkpt>
      <trkpt lat="45.42268" lon="3.38914">
        <ele>599.6</ele>
        <time>2020-09-17T11:15:07Z</time>
      </trkpt>
      <trkpt lat="45.42269" lon="3.38915">
        <ele>599.8</ele>
        <time>2020-09-17T11:15:08Z</time>
      </trkpt>
      <trkpt lat="45.4227" lon="3.38916">
        <ele>600</ele>
        <time>2020-09-17T11:15:09Z</time>
      </trkpt>
      <trkpt lat="45.4227" lon="3.38917">
        <ele>600.2</ele>
        <time>2020-09-17T11:15:10Z</time>
      </trkpt>
      <trkpt lat="45.42271" lon="3.38917">
        <ele>600.3</ele>
        <time>2020-09-17T11:15:11Z</time>
      </trkpt>
      <trkpt lat="45.42272" lon="3.38918">
        <ele>600.4</ele>
        <time>2020-09-17T11:15:12Z</time>
      </trkpt>
      <trkpt lat="45.42272" lon="3.38918">
        <ele>600.5</ele>
        <time>2020-09-17T11:15:13Z</time>
      </trkpt>
      <trkpt lat="45.42273" lon="3.38919">
        <ele>600.6</ele>
        <time>2020-09-17T11:15:14Z</time>
      </trkpt>
      <trkpt lat="45.42274" lon="3.38919">
        <ele>600.7</ele>
        <time>2020-09-17T11:15:15Z</time>
      </trkpt>
      <trkpt lat="45.42274" lon="3.38919">
        <ele>600.8</ele>
        <time>2020-09-17T11:15:16Z</time>
      </trkpt>
      <trkpt lat="45.42275" lon="3.3892">
        <ele>600.9</ele>
        <time>2020-09-17T11:15:17Z</time>
      </trkpt>
      <trkpt lat="45.42275" lon="3.3892">
        <ele>600.9</ele>
        <time>2020-09-17T11:15:18Z</time>
      </trkpt>
      <trkpt lat="45.42276" lon="3.3892">
        <ele>601</ele>
        <time>2020-09-17T11:15:19Z</time>
      </trkpt>
      <trkpt lat="45.42277" lon="3.38921">
        <ele>601.1</ele>
        <time>2020-09-17T11:15:20Z</time>
      </trkpt>
      <trkpt lat="45.42278" lon="3.38921">
        <ele>601.3</ele>
        <time>2020-09-17T11:15:21Z</time>
      </trkpt>
      <trkpt lat="45.42279" lon="3.38921">
        <ele>601.4</ele>
        <time>2020-09-17T11:15:22Z</time>
      </trkpt>
      <trkpt lat="45.42279" lon="3.38922">
        <ele>601.6</ele>
        <time>2020-09-17T11:15:23Z</time>
      </trkpt>
      <trkpt lat="45.4228" lon="3.38923">
        <ele>601.8</ele>
        <time>2020-09-17T11:15:24Z</time>
      </trkpt>
      <trkpt lat="45.42281" lon="3.38923">
        <ele>601.9</ele>
        <time>2020-09-17T11:15:25Z</time>
      </trkpt>
      <trkpt lat="45.42282" lon="3.38924">
        <ele>602.1</ele>
        <time>2020-09-17T11:15:26Z</time>
      </trkpt>
      <trkpt lat="45.42283" lon="3.38924">
        <ele>602.3</ele>
        <time>2020-09-17T11:15:27Z</time>
      </trkpt>
      <trkpt lat="45.42284" lon="3.38925">
        <ele>602.5</ele>
        <time>2020-09-17T11:15:28Z</time>
      </trkpt>
      <trkpt lat="45.42285" lon="3.38925">
        <ele>602.7</ele>
        <time>2020-09-17T11:15:29Z</time>
      </trkpt>
      <trkpt lat="45.42286" lon="3.38926">
        <ele>602.9</ele>
        <time>2020-09-17T11:15:30Z</time>
      </trkpt>
      <trkpt lat="45.42287" lon="3.38926">
        <ele>603</ele>
        <time>2020-09-17T11:15:31Z</time>
      </trkpt>
      <trkpt lat="45.42287" lon="3.38927">
        <ele>603.2</ele>
        <time>2020-09-17T11:15:32Z</time>
      </trkpt>
      <trkpt lat="45.42288" lon="3.38927">
        <ele>603.4</ele>
        <time>2020-09-17T11:15:33Z</time>
      </trkpt>
      <trkpt lat="45.42289" lon="3.38927">
        <ele>603.5</ele>
        <time>2020-09-17T11:15:34Z</time>
      </trkpt>
      <trkpt lat="45.4229" lon="3.38928">
        <ele>603.7</ele>
        <time>2020-09-17T11:15:35Z</time>
      </trkpt>
      <trkpt lat="45.42291" lon="3.38928">
        <ele>603.9</ele>
        <time>2020-09-17T11:15:36Z</time>
      </trkpt>
      <trkpt lat="45.42291" lon="3.38929">
        <ele>604</ele>
        <time>2020-09-17T11:15:37Z</time>
      </trkpt>
      <trkpt lat="45.42292" lon="3.3893">
        <ele>604.2</ele>
        <time>2020-09-17T11:15:38Z</time>
      </trkpt>
      <trkpt lat="45.42293" lon="3.38931">
        <ele>604.4</ele>
        <time>2020-09-17T11:15:39Z</time>
      </trkpt>
      <trkpt lat="45.42294" lon="3.38931">
        <ele>604.6</ele>
        <time>2020-09-17T11:15:40Z</time>
      </trkpt>
      <trkpt lat="45.42294" lon="3.38932">
        <ele>604.8</ele>
        <time>2020-09-17T11:15:41Z</time>
      </trkpt>
      <trkpt lat="45.42295" lon="3.38933">
        <ele>605</ele>
        <time>2020-09-17T11:15:42Z</time>
      </trkpt>
      <trkpt lat="45.42296" lon="3.38933">
        <ele>605.1</ele>
        <time>2020-09-17T11:15:43Z</time>
      </trkpt>
      <trkpt lat="45.42296" lon="3.38933">
        <ele>605.3</ele>
        <time>2020-09-17T11:15:44Z</time>
      </trkpt>
      <trkpt lat="45.42297" lon="3.38934">
        <ele>605.4</ele>
        <time>2020-09-17T11:15:45Z</time>
      </trkpt>
      <trkpt lat="45.42298" lon="3.38935">
        <ele>605.7</ele>
        <time>2020-09-17T11:15:46Z</time>
      </trkpt>
      <trkpt lat="45.42299" lon="3.38936">
        <ele>605.9</ele>
        <time>2020-09-17T11:15:47Z</time>
      </trkpt>
      <trkpt lat="45.42299" lon="3.38936">
        <ele>606</ele>
        <time>2020-09-17T11:15:48Z</time>
      </trkpt>
      <trkpt lat="45.423" lon="3.38937">
        <ele>606.2</ele>
        <time>2020-09-17T11:15:49Z</time>
      </trkpt>
      <trkpt lat="45.42301" lon="3.38938">
        <ele>606.4</ele>
        <time>2020-09-17T11:15:50Z</time>
      </trkpt>
      <trkpt lat="45.42301" lon="3.38939">
        <ele>606.7</ele>
        <time>2020-09-17T11:15:51Z</time>
      </trkpt>
      <trkpt lat="45.42302" lon="3.3894">
        <ele>606.8</ele>
        <time>2020-09-17T11:15:52Z</time>
      </trkpt>
      <trkpt lat="45.42302" lon="3.38941">
        <ele>607</ele>
        <time>2020-09-17T11:15:53Z</time>
      </trkpt>
      <trkpt lat="45.42303" lon="3.38942">
        <ele>607.2</ele>
        <time>2020-09-17T11:15:54Z</time>
      </trkpt>
      <trkpt lat="45.42303" lon="3.38943">
        <ele>607.4</ele>
        <time>2020-09-17T11:15:55Z</time>
      </trkpt>
      <trkpt lat="45.42304" lon="3.38945">
        <ele>607.6</ele>
        <time>2020-09-17T11:15:56Z</time>
      </trkpt>
      <trkpt lat="45.42304" lon="3.38946">
        <ele>607.6</ele>
        <time>2020-09-17T11:15:57Z</time>
      </trkpt>
      <trkpt lat="45.42304" lon="3.38947">
        <ele>607.6</ele>
        <time>2020-09-17T11:15:58Z</time>
      </trkpt>
      <trkpt lat="45.42305" lon="3.38948">
        <ele>607.7</ele>
        <time>2020-09-17T11:15:59Z</time>
      </trkpt>
      <trkpt lat="45.42305" lon="3.3895">
        <ele>607.7</ele>
        <time>2020-09-17T11:16:00Z</time>
      </trkpt>
      <trkpt lat="45.42305" lon="3.38951">
        <ele>607.7</ele>
        <time>2020-09-17T11:16:01Z</time>
      </trkpt>
      <trkpt lat="45.42306" lon="3.38953">
        <ele>607.7</ele>
        <time>2020-09-17T11:16:02Z</time>
      </trkpt>
      <trkpt lat="45.42306" lon="3.38954">
        <ele>607.7</ele>
        <time>2020-09-17T11:16:03Z</time>
      </trkpt>
      <trkpt lat="45.42306" lon="3.38955">
        <ele>607.7</ele>
        <time>2020-09-17T11:16:04Z</time>
      </trkpt>
      <trkpt lat="45.42307" lon="3.38957">
        <ele>607.8</ele>
        <time>2020-09-17T11:16:05Z</time>
      </trkpt>
      <trkpt lat="45.42307" lon="3.38958">
        <ele>607.8</ele>
        <time>2020-09-17T11:16:06Z</time>
      </trkpt>
      <trkpt lat="45.42308" lon="3.3896">
        <ele>607.8</ele>
        <time>2020-09-17T11:16:07Z</time>
      </trkpt>
      <trkpt lat="45.42308" lon="3.38961">
        <ele>607.9</ele>
        <time>2020-09-17T11:16:08Z</time>
      </trkpt>
      <trkpt lat="45.42308" lon="3.38962">
        <ele>607.9</ele>
        <time>2020-09-17T11:16:09Z</time>
      </trkpt>
      <trkpt lat="45.42308" lon="3.38964">
        <ele>607.8</ele>
        <time>2020-09-17T11:16:10Z</time>
      </trkpt>
      <trkpt lat="45.42308" lon="3.38965">
        <ele>607.8</ele>
        <time>2020-09-17T11:16:11Z</time>
      </trkpt>
      <trkpt lat="45.42309" lon="3.38966">
        <ele>607.9</ele>
        <time>2020-09-17T11:16:12Z</time>
      </trkpt>
      <trkpt lat="45.42309" lon="3.38968">
        <ele>607.9</ele>
        <time>2020-09-17T11:16:13Z</time>
      </trkpt>
      <trkpt lat="45.4231" lon="3.38969">
        <ele>608</ele>
        <time>2020-09-17T11:16:14Z</time>
      </trkpt>
      <trkpt lat="45.4231" lon="3.3897">
        <ele>608</ele>
        <time>2020-09-17T11:16:15Z</time>
      </trkpt>
      <trkpt lat="45.4231" lon="3.38972">
        <ele>608</ele>
        <time>2020-09-17T11:16:16Z</time>
      </trkpt>
      <trkpt lat="45.42311" lon="3.38973">
        <ele>608.1</ele>
        <time>2020-09-17T11:16:17Z</time>
      </trkpt>
      <trkpt lat="45.42311" lon="3.38974">
        <ele>608.2</ele>
        <time>2020-09-17T11:16:18Z</time>
      </trkpt>
      <trkpt lat="45.42311" lon="3.38975">
        <ele>608.3</ele>
        <time>2020-09-17T11:16:19Z</time>
      </trkpt>
      <trkpt lat="45.42312" lon="3.38977">
        <ele>608.4</ele>
        <time>2020-09-17T11:16:20Z</time>
      </trkpt>
      <trkpt lat="45.42312" lon="3.38978">
        <ele>608.6</ele>
        <time>2020-09-17T11:16:21Z</time>
      </trkpt>
      <trkpt lat="45.42312" lon="3.38979">
        <ele>608.6</ele>
        <time>2020-09-17T11:16:22Z</time>
      </trkpt>
      <trkpt lat="45.42313" lon="3.38981">
        <ele>608.8</ele>
        <time>2020-09-17T11:16:23Z</time>
      </trkpt>
      <trkpt lat="45.42313" lon="3.38982">
        <ele>608.9</ele>
        <time>2020-09-17T11:16:24Z</time>
      </trkpt>
      <trkpt lat="45.42313" lon="3.38983">
        <ele>609</ele>
        <time>2020-09-17T11:16:25Z</time>
      </trkpt>
      <trkpt lat="45.42313" lon="3.38985">
        <ele>609.1</ele>
        <time>2020-09-17T11:16:26Z</time>
      </trkpt>
      <trkpt lat="45.42313" lon="3.38986">
        <ele>609.2</ele>
        <time>2020-09-17T11:16:27Z</time>
      </trkpt>
      <trkpt lat="45.42314" lon="3.38987">
        <ele>609.3</ele>
        <time>2020-09-17T11:16:28Z</time>
      </trkpt>
      <trkpt lat="45.42314" lon="3.38989">
        <ele>609.5</ele>
        <time>2020-09-17T11:16:29Z</time>
      </trkpt>
      <trkpt lat="45.42314" lon="3.3899">
        <ele>609.5</ele>
        <time>2020-09-17T11:16:30Z</time>
      </trkpt>
      <trkpt lat="45.42314" lon="3.38992">
        <ele>609.6</ele>
        <time>2020-09-17T11:16:31Z</time>
      </trkpt>
      <trkpt lat="45.42315" lon="3.38993">
        <ele>609.7</ele>
        <time>2020-09-17T11:16:32Z</time>
      </trkpt>
      <trkpt lat="45.42315" lon="3.38994">
        <ele>609.8</ele>
        <time>2020-09-17T11:16:33Z</time>
      </trkpt>
      <trkpt lat="45.42315" lon="3.38996">
        <ele>609.9</ele>
        <time>2020-09-17T11:16:34Z</time>
      </trkpt>
      <trkpt lat="45.42316" lon="3.38997">
        <ele>610</ele>
        <time>2020-09-17T11:16:35Z</time>
      </trkpt>
      <trkpt lat="45.42316" lon="3.38998">
        <ele>610.1</ele>
        <time>2020-09-17T11:16:36Z</time>
      </trkpt>
      <trkpt lat="45.42316" lon="3.38999">
        <ele>610.3</ele>
        <time>2020-09-17T11:16:37Z</time>
      </trkpt>
      <trkpt lat="45.42317" lon="3.39001">
        <ele>610.5</ele>
        <time>2020-09-17T11:16:38Z</time>
      </trkpt>
      <trkpt lat="45.42317" lon="3.39002">
        <ele>610.7</ele>
        <time>2020-09-17T11:16:39Z</time>
      </trkpt>
      <trkpt lat="45.42317" lon="3.39003">
        <ele>610.9</ele>
        <time>2020-09-17T11:16:40Z</time>
      </trkpt>
      <trkpt lat="45.42318" lon="3.39005">
        <ele>611</ele>
        <time>2020-09-17T11:16:41Z</time>
      </trkpt>
      <trkpt lat="45.42318" lon="3.39006">
        <ele>611.2</ele>
        <time>2020-09-17T11:16:42Z</time>
      </trkpt>
      <trkpt lat="45.42318" lon="3.39008">
        <ele>611.4</ele>
        <time>2020-09-17T11:16:43Z</time>
      </trkpt>
      <trkpt lat="45.42318" lon="3.39009">
        <ele>611.6</ele>
        <time>2020-09-17T11:16:44Z</time>
      </trkpt>
      <trkpt lat="45.42319" lon="3.3901">
        <ele>611.7</ele>
        <time>2020-09-17T11:16:45Z</time>
      </trkpt>
      <trkpt lat="45.42319" lon="3.39011">
        <ele>611.9</ele>
        <time>2020-09-17T11:16:46Z</time>
      </trkpt>
      <trkpt lat="45.42319" lon="3.39012">
        <ele>612.1</ele>
        <time>2020-09-17T11:16:47Z</time>
      </trkpt>
      <trkpt lat="45.42319" lon="3.39013">
        <ele>612.2</ele>
        <time>2020-09-17T11:16:48Z</time>
      </trkpt>
      <trkpt lat="45.4232" lon="3.39015">
        <ele>612.3</ele>
        <time>2020-09-17T11:16:49Z</time>
      </trkpt>
      <trkpt lat="45.4232" lon="3.39016">
        <ele>612.5</ele>
        <time>2020-09-17T11:16:50Z</time>
      </trkpt>
      <trkpt lat="45.4232" lon="3.39017">
        <ele>612.6</ele>
        <time>2020-09-17T11:16:51Z</time>
      </trkpt>
      <trkpt lat="45.42321" lon="3.39018">
        <ele>612.8</ele>
        <time>2020-09-17T11:16:52Z</time>
      </trkpt>
      <trkpt lat="45.42321" lon="3.39019">
        <ele>613</ele>
        <time>2020-09-17T11:16:53Z</time>
      </trkpt>
      <trkpt lat="45.42322" lon="3.39021">
        <ele>613.1</ele>
        <time>2020-09-17T11:16:54Z</time>
      </trkpt>
      <trkpt lat="45.42322" lon="3.39022">
        <ele>613.3</ele>
        <time>2020-09-17T11:16:55Z</time>
      </trkpt>
      <trkpt lat="45.42322" lon="3.39023">
        <ele>613.4</ele>
        <time>2020-09-17T11:16:56Z</time>
      </trkpt>
      <trkpt lat="45.42323" lon="3.39024">
        <ele>613.6</ele>
        <time>2020-09-17T11:16:57Z</time>
      </trkpt>
      <trkpt lat="45.42324" lon="3.39026">
        <ele>613.8</ele>
        <time>2020-09-17T11:16:58Z</time>
      </trkpt>
      <trkpt lat="45.42324" lon="3.39027">
        <ele>613.9</ele>
        <time>2020-09-17T11:16:59Z</time>
      </trkpt>
      <trkpt lat="45.42325" lon="3.39028">
        <ele>614.1</ele>
        <time>2020-09-17T11:17:00Z</time>
      </trkpt>
      <trkpt lat="45.42325" lon="3.39029">
        <ele>614.2</ele>
        <time>2020-09-17T11:17:01Z</time>
      </trkpt>
      <trkpt lat="45.42326" lon="3.39031">
        <ele>614.3</ele>
        <time>2020-09-17T11:17:02Z</time>
      </trkpt>
      <trkpt lat="45.42326" lon="3.39032">
        <ele>614.4</ele>
        <time>2020-09-17T11:17:03Z</time>
      </trkpt>
      <trkpt lat="45.42327" lon="3.39033">
        <ele>614.6</ele>
        <time>2020-09-17T11:17:04Z</time>
      </trkpt>
      <trkpt lat="45.42327" lon="3.39034">
        <ele>614.7</ele>
        <time>2020-09-17T11:17:05Z</time>
      </trkpt>
      <trkpt lat="45.42327" lon="3.39036">
        <ele>614.8</ele>
        <time>2020-09-17T11:17:06Z</time>
      </trkpt>
      <trkpt lat="45.42328" lon="3.39037">
        <ele>614.9</ele>
        <time>2020-09-17T11:17:07Z</time>
      </trkpt>
      <trkpt lat="45.42328" lon="3.39038">
        <ele>615</ele>
        <time>2020-09-17T11:17:08Z</time>
      </trkpt>
      <trkpt lat="45.42329" lon="3.39039">
        <ele>615</ele>
        <time>2020-09-17T11:17:09Z</time>
      </trkpt>
      <trkpt lat="45.42329" lon="3.3904">
        <ele>615.1</ele>
        <time>2020-09-17T11:17:10Z</time>
      </trkpt>
      <trkpt lat="45.4233" lon="3.39041">
        <ele>615.2</ele>
        <time>2020-09-17T11:17:11Z</time>
      </trkpt>
      <trkpt lat="45.4233" lon="3.39043">
        <ele>615.3</ele>
        <time>2020-09-17T11:17:12Z</time>
      </trkpt>
      <trkpt lat="45.42331" lon="3.39044">
        <ele>615.4</ele>
        <time>2020-09-17T11:17:13Z</time>
      </trkpt>
      <trkpt lat="45.42331" lon="3.39045">
        <ele>615.5</ele>
        <time>2020-09-17T11:17:14Z</time>
      </trkpt>
      <trkpt lat="45.42332" lon="3.39046">
        <ele>615.6</ele>
        <time>2020-09-17T11:17:15Z</time>
      </trkpt>
      <trkpt lat="45.42332" lon="3.39047">
        <ele>615.6</ele>
        <time>2020-09-17T11:17:16Z</time>
      </trkpt>
      <trkpt lat="45.42333" lon="3.39048">
        <ele>615.7</ele>
        <time>2020-09-17T11:17:17Z</time>
      </trkpt>
      <trkpt lat="45.42333" lon="3.3905">
        <ele>615.8</ele>
        <time>2020-09-17T11:17:18Z</time>
      </trkpt>
      <trkpt lat="45.42334" lon="3.39051">
        <ele>615.8</ele>
        <time>2020-09-17T11:17:19Z</time>
      </trkpt>
      <trkpt lat="45.42334" lon="3.39052">
        <ele>615.9</ele>
        <time>2020-09-17T11:17:20Z</time>
      </trkpt>
      <trkpt lat="45.42334" lon="3.39053">
        <ele>616</ele>
        <time>2020-09-17T11:17:21Z</time>
      </trkpt>
      <trkpt lat="45.42335" lon="3.39054">
        <ele>616.1</ele>
        <time>2020-09-17T11:17:22Z</time>
      </trkpt>
      <trkpt lat="45.42335" lon="3.39055">
        <ele>616.2</ele>
        <time>2020-09-17T11:17:23Z</time>
      </trkpt>
      <trkpt lat="45.42335" lon="3.39057">
        <ele>616.4</ele>
        <time>2020-09-17T11:17:24Z</time>
      </trkpt>
      <trkpt lat="45.42336" lon="3.39058">
        <ele>616.6</ele>
        <time>2020-09-17T11:17:25Z</time>
      </trkpt>
      <trkpt lat="45.42336" lon="3.39059">
        <ele>616.8</ele>
        <time>2020-09-17T11:17:26Z</time>
      </trkpt>
      <trkpt lat="45.42337" lon="3.39061">
        <ele>616.9</ele>
        <time>2020-09-17T11:17:27Z</time>
      </trkpt>
      <trkpt lat="45.42337" lon="3.39062">
        <ele>617.1</ele>
        <time>2020-09-17T11:17:28Z</time>
      </trkpt>
      <trkpt lat="45.42337" lon="3.39063">
        <ele>617.3</ele>
        <time>2020-09-17T11:17:29Z</time>
      </trkpt>
      <trkpt lat="45.42338" lon="3.39065">
        <ele>617.5</ele>
        <time>2020-09-17T11:17:30Z</time>
      </trkpt>
      <trkpt lat="45.42338" lon="3.39066">
        <ele>617.6</ele>
        <time>2020-09-17T11:17:31Z</time>
      </trkpt>
      <trkpt lat="45.42339" lon="3.39067">
        <ele>617.8</ele>
        <time>2020-09-17T11:17:32Z</time>
      </trkpt>
      <trkpt lat="45.42339" lon="3.39068">
        <ele>617.9</ele>
        <time>2020-09-17T11:17:33Z</time>
      </trkpt>
      <trkpt lat="45.42339" lon="3.3907">
        <ele>618.1</ele>
        <time>2020-09-17T11:17:34Z</time>
      </trkpt>
      <trkpt lat="45.4234" lon="3.39071">
        <ele>618.2</ele>
        <time>2020-09-17T11:17:35Z</time>
      </trkpt>
      <trkpt lat="45.4234" lon="3.39072">
        <ele>618.3</ele>
        <time>2020-09-17T11:17:36Z</time>
      </trkpt>
      <trkpt lat="45.42341" lon="3.39073">
        <ele>618.4</ele>
        <time>2020-09-17T11:17:37Z</time>
      </trkpt>
      <trkpt lat="45.42341" lon="3.39074">
        <ele>618.5</ele>
        <time>2020-09-17T11:17:38Z</time>
      </trkpt>
      <trkpt lat="45.42341" lon="3.39075">
        <ele>618.6</ele>
        <time>2020-09-17T11:17:39Z</time>
      </trkpt>
      <trkpt lat="45.42341" lon="3.39076">
        <ele>618.7</ele>
        <time>2020-09-17T11:17:40Z</time>
      </trkpt>
      <trkpt lat="45.42342" lon="3.39076">
        <ele>618.8</ele>
        <time>2020-09-17T11:17:41Z</time>
      </trkpt>
      <trkpt lat="45.42342" lon="3.39077">
        <ele>618.9</ele>
        <time>2020-09-17T11:17:42Z</time>
      </trkpt>
      <trkpt lat="45.42342" lon="3.39078">
        <ele>618.9</ele>
        <time>2020-09-17T11:17:43Z</time>
      </trkpt>
      <trkpt lat="45.42342" lon="3.39079">
        <ele>619</ele>
        <time>2020-09-17T11:17:44Z</time>
      </trkpt>
      <trkpt lat="45.42343" lon="3.3908">
        <ele>619.1</ele>
        <time>2020-09-17T11:17:45Z</time>
      </trkpt>
      <trkpt lat="45.42343" lon="3.39081">
        <ele>619.2</ele>
        <time>2020-09-17T11:17:46Z</time>
      </trkpt>
      <trkpt lat="45.42343" lon="3.39082">
        <ele>619.2</ele>
        <time>2020-09-17T11:17:47Z</time>
      </trkpt>
      <trkpt lat="45.42343" lon="3.39083">
        <ele>619.3</ele>
        <time>2020-09-17T11:17:48Z</time>
      </trkpt>
      <trkpt lat="45.42343" lon="3.39084">
        <ele>619.3</ele>
        <time>2020-09-17T11:17:49Z</time>
      </trkpt>
      <trkpt lat="45.42343" lon="3.39085">
        <ele>619.2</ele>
        <time>2020-09-17T11:17:50Z</time>
      </trkpt>
      <trkpt lat="45.42343" lon="3.39086">
        <ele>619.2</ele>
        <time>2020-09-17T11:17:51Z</time>
      </trkpt>
      <trkpt lat="45.42343" lon="3.39087">
        <ele>619.1</ele>
        <time>2020-09-17T11:17:52Z</time>
      </trkpt>
      <trkpt lat="45.42343" lon="3.39088">
        <ele>619.1</ele>
        <time>2020-09-17T11:17:53Z</time>
      </trkpt>
      <trkpt lat="45.42343" lon="3.3909">
        <ele>619</ele>
        <time>2020-09-17T11:17:54Z</time>
      </trkpt>
      <trkpt lat="45.42343" lon="3.39091">
        <ele>619</ele>
        <time>2020-09-17T11:17:55Z</time>
      </trkpt>
      <trkpt lat="45.42343" lon="3.39092">
        <ele>618.9</ele>
        <time>2020-09-17T11:17:56Z</time>
      </trkpt>
      <trkpt lat="45.42342" lon="3.39093">
        <ele>618.9</ele>
        <time>2020-09-17T11:17:57Z</time>
      </trkpt>
      <trkpt lat="45.42342" lon="3.39093">
        <ele>618.9</ele>
        <time>2020-09-17T11:17:58Z</time>
      </trkpt>
      <trkpt lat="45.42342" lon="3.39094">
        <ele>618.8</ele>
        <time>2020-09-17T11:17:59Z</time>
      </trkpt>
      <trkpt lat="45.42342" lon="3.39094">
        <ele>618.8</ele>
        <time>2020-09-17T11:18:00Z</time>
      </trkpt>
      <trkpt lat="45.42343" lon="3.39094">
        <ele>618.8</ele>
        <time>2020-09-17T11:18:01Z</time>
      </trkpt>
      <trkpt lat="45.42343" lon="3.39094">
        <ele>618.8</ele>
        <time>2020-09-17T11:18:02Z</time>
      </trkpt>
      <trkpt lat="45.42343" lon="3.39094">
        <ele>618.8</ele>
        <time>2020-09-17T11:18:03Z</time>
      </trkpt>
      <trkpt lat="45.42342" lon="3.39094">
        <ele>618.8</ele>
        <time>2020-09-17T11:18:04Z</time>
      </trkpt>
      <trkpt lat="45.42342" lon="3.39095">
        <ele>618.8</ele>
        <time>2020-09-17T11:18:05Z</time>
      </trkpt>
      <trkpt lat="45.42343" lon="3.39096">
        <ele>618.7</ele>
        <time>2020-09-17T11:18:06Z</time>
      </trkpt>
      <trkpt lat="45.42343" lon="3.39097">
        <ele>618.7</ele>
        <time>2020-09-17T11:18:07Z</time>
      </trkpt>
      <trkpt lat="45.42343" lon="3.39099">
        <ele>618.6</ele>
        <time>2020-09-17T11:18:08Z</time>
      </trkpt>
      <trkpt lat="45.42343" lon="3.391">
        <ele>618.5</ele>
        <time>2020-09-17T11:18:09Z</time>
      </trkpt>
      <trkpt lat="45.42342" lon="3.39102">
        <ele>618.5</ele>
        <time>2020-09-17T11:18:10Z</time>
      </trkpt>
      <trkpt lat="45.42343" lon="3.39103">
        <ele>618.4</ele>
        <time>2020-09-17T11:18:11Z</time>
      </trkpt>
      <trkpt lat="45.42343" lon="3.39105">
        <ele>618.3</ele>
        <time>2020-09-17T11:18:12Z</time>
      </trkpt>
      <trkpt lat="45.42343" lon="3.39106">
        <ele>618.2</ele>
        <time>2020-09-17T11:18:13Z</time>
      </trkpt>
      <trkpt lat="45.42343" lon="3.39108">
        <ele>618.2</ele>
        <time>2020-09-17T11:18:14Z</time>
      </trkpt>
      <trkpt lat="45.42343" lon="3.39109">
        <ele>618.1</ele>
        <time>2020-09-17T11:18:15Z</time>
      </trkpt>
      <trkpt lat="45.42343" lon="3.3911">
        <ele>618</ele>
        <time>2020-09-17T11:18:16Z</time>
      </trkpt>
      <trkpt lat="45.42343" lon="3.39112">
        <ele>617.9</ele>
        <time>2020-09-17T11:18:17Z</time>
      </trkpt>
      <trkpt lat="45.42343" lon="3.39113">
        <ele>617.8</ele>
        <time>2020-09-17T11:18:18Z</time>
      </trkpt>
      <trkpt lat="45.42343" lon="3.39115">
        <ele>617.7</ele>
        <time>2020-09-17T11:18:19Z</time>
      </trkpt>
      <trkpt lat="45.42343" lon="3.39117">
        <ele>617.6</ele>
        <time>2020-09-17T11:18:20Z</time>
      </trkpt>
      <trkpt lat="45.42343" lon="3.39118">
        <ele>617.4</ele>
        <time>2020-09-17T11:18:21Z</time>
      </trkpt>
      <trkpt lat="45.42343" lon="3.3912">
        <ele>617.3</ele>
        <time>2020-09-17T11:18:22Z</time>
      </trkpt>
      <trkpt lat="45.42343" lon="3.39121">
        <ele>617.2</ele>
        <time>2020-09-17T11:18:23Z</time>
      </trkpt>
      <trkpt lat="45.42343" lon="3.39123">
        <ele>617.1</ele>
        <time>2020-09-17T11:18:24Z</time>
      </trkpt>
      <trkpt lat="45.42343" lon="3.39124">
        <ele>617.1</ele>
        <time>2020-09-17T11:18:25Z</time>
      </trkpt>
      <trkpt lat="45.42343" lon="3.39125">
        <ele>617</ele>
        <time>2020-09-17T11:18:26Z</time>
      </trkpt>
      <trkpt lat="45.42343" lon="3.39127">
        <ele>616.8</ele>
        <time>2020-09-17T11:18:27Z</time>
      </trkpt>
      <trkpt lat="45.42343" lon="3.39129">
        <ele>616.7</ele>
        <time>2020-09-17T11:18:28Z</time>
      </trkpt>
      <trkpt lat="45.42343" lon="3.39131">
        <ele>616.6</ele>
        <time>2020-09-17T11:18:29Z</time>
      </trkpt>
      <trkpt lat="45.42343" lon="3.39132">
        <ele>616.4</ele>
        <time>2020-09-17T11:18:30Z</time>
      </trkpt>
      <trkpt lat="45.42343" lon="3.39134">
        <ele>616.3</ele>
        <time>2020-09-17T11:18:31Z</time>
      </trkpt>
      <trkpt lat="45.42343" lon="3.39136">
        <ele>616.2</ele>
        <time>2020-09-17T11:18:32Z</time>
      </trkpt>
      <trkpt lat="45.42343" lon="3.39137">
        <ele>616</ele>
        <time>2020-09-17T11:18:33Z</time>
      </trkpt>
      <trkpt lat="45.42343" lon="3.39139">
        <ele>615.9</ele>
        <time>2020-09-17T11:18:34Z</time>
      </trkpt>
      <trkpt lat="45.42343" lon="3.39141">
        <ele>615.8</ele>
        <time>2020-09-17T11:18:35Z</time>
      </trkpt>
      <trkpt lat="45.42343" lon="3.39142">
        <ele>615.8</ele>
        <time>2020-09-17T11:18:36Z</time>
      </trkpt>
      <trkpt lat="45.42343" lon="3.39144">
        <ele>615.8</ele>
        <time>2020-09-17T11:18:37Z</time>
      </trkpt>
      <trkpt lat="45.42343" lon="3.39146">
        <ele>615.7</ele>
        <time>2020-09-17T11:18:38Z</time>
      </trkpt>
      <trkpt lat="45.42343" lon="3.39147">
        <ele>615.6</ele>
        <time>2020-09-17T11:18:39Z</time>
      </trkpt>
      <trkpt lat="45.42343" lon="3.39149">
        <ele>615.5</ele>
        <time>2020-09-17T11:18:40Z</time>
      </trkpt>
      <trkpt lat="45.42343" lon="3.3915">
        <ele>615.5</ele>
        <time>2020-09-17T11:18:41Z</time>
      </trkpt>
      <trkpt lat="45.42343" lon="3.39152">
        <ele>615.5</ele>
        <time>2020-09-17T11:18:42Z</time>
      </trkpt>
      <trkpt lat="45.42343" lon="3.39154">
        <ele>615.4</ele>
        <time>2020-09-17T11:18:43Z</time>
      </trkpt>
      <trkpt lat="45.42343" lon="3.39155">
        <ele>615.3</ele>
        <time>2020-09-17T11:18:44Z</time>
      </trkpt>
      <trkpt lat="45.42343" lon="3.39157">
        <ele>615.2</ele>
        <time>2020-09-17T11:18:45Z</time>
      </trkpt>
      <trkpt lat="45.42343" lon="3.39159">
        <ele>615.1</ele>
        <time>2020-09-17T11:18:46Z</time>
      </trkpt>
      <trkpt lat="45.42343" lon="3.3916">
        <ele>615.1</ele>
        <time>2020-09-17T11:18:47Z</time>
      </trkpt>
      <trkpt lat="45.42343" lon="3.39162">
        <ele>615</ele>
        <time>2020-09-17T11:18:48Z</time>
      </trkpt>
      <trkpt lat="45.42343" lon="3.39164">
        <ele>614.9</ele>
        <time>2020-09-17T11:18:49Z</time>
      </trkpt>
      <trkpt lat="45.42344" lon="3.39165">
        <ele>614.8</ele>
        <time>2020-09-17T11:18:50Z</time>
      </trkpt>
      <trkpt lat="45.42344" lon="3.39167">
        <ele>614.7</ele>
        <time>2020-09-17T11:18:51Z</time>
      </trkpt>
      <trkpt lat="45.42344" lon="3.39168">
        <ele>614.6</ele>
        <time>2020-09-17T11:18:52Z</time>
      </trkpt>
      <trkpt lat="45.42344" lon="3.3917">
        <ele>614.5</ele>
        <time>2020-09-17T11:18:53Z</time>
      </trkpt>
      <trkpt lat="45.42344" lon="3.39172">
        <ele>614.4</ele>
        <time>2020-09-17T11:18:54Z</time>
      </trkpt>
      <trkpt lat="45.42344" lon="3.39173">
        <ele>614.3</ele>
        <time>2020-09-17T11:18:55Z</time>
      </trkpt>
      <trkpt lat="45.42345" lon="3.39175">
        <ele>614.2</ele>
        <time>2020-09-17T11:18:56Z</time>
      </trkpt>
      <trkpt lat="45.42345" lon="3.39176">
        <ele>614.1</ele>
        <time>2020-09-17T11:18:57Z</time>
      </trkpt>
      <trkpt lat="45.42345" lon="3.39178">
        <ele>614</ele>
        <time>2020-09-17T11:18:58Z</time>
      </trkpt>
      <trkpt lat="45.42345" lon="3.3918">
        <ele>613.9</ele>
        <time>2020-09-17T11:18:59Z</time>
      </trkpt>
      <trkpt lat="45.42345" lon="3.39181">
        <ele>613.8</ele>
        <time>2020-09-17T11:19:00Z</time>
      </trkpt>
      <trkpt lat="45.42346" lon="3.39183">
        <ele>613.7</ele>
        <time>2020-09-17T11:19:01Z</time>
      </trkpt>
      <trkpt lat="45.42346" lon="3.39185">
        <ele>613.5</ele>
        <time>2020-09-17T11:19:02Z</time>
      </trkpt>
      <trkpt lat="45.42347" lon="3.39186">
        <ele>613.3</ele>
        <time>2020-09-17T11:19:03Z</time>
      </trkpt>
      <trkpt lat="45.42347" lon="3.39188">
        <ele>613.1</ele>
        <time>2020-09-17T11:19:04Z</time>
      </trkpt>
      <trkpt lat="45.42348" lon="3.39189">
        <ele>613</ele>
        <time>2020-09-17T11:19:05Z</time>
      </trkpt>
      <trkpt lat="45.42348" lon="3.39191">
        <ele>612.8</ele>
        <time>2020-09-17T11:19:06Z</time>
      </trkpt>
      <trkpt lat="45.42349" lon="3.39192">
        <ele>612.6</ele>
        <time>2020-09-17T11:19:07Z</time>
      </trkpt>
      <trkpt lat="45.42349" lon="3.39194">
        <ele>612.5</ele>
        <time>2020-09-17T11:19:08Z</time>
      </trkpt>
      <trkpt lat="45.4235" lon="3.39196">
        <ele>612.3</ele>
        <time>2020-09-17T11:19:09Z</time>
      </trkpt>
      <trkpt lat="45.4235" lon="3.39197">
        <ele>612.3</ele>
        <time>2020-09-17T11:19:10Z</time>
      </trkpt>
      <trkpt lat="45.42351" lon="3.39199">
        <ele>612.1</ele>
        <time>2020-09-17T11:19:11Z</time>
      </trkpt>
      <trkpt lat="45.42351" lon="3.392">
        <ele>612</ele>
        <time>2020-09-17T11:19:12Z</time>
      </trkpt>
      <trkpt lat="45.42351" lon="3.39202">
        <ele>612</ele>
        <time>2020-09-17T11:19:13Z</time>
      </trkpt>
      <trkpt lat="45.42352" lon="3.39204">
        <ele>611.9</ele>
        <time>2020-09-17T11:19:14Z</time>
      </trkpt>
      <trkpt lat="45.42352" lon="3.39205">
        <ele>611.8</ele>
        <time>2020-09-17T11:19:15Z</time>
      </trkpt>
      <trkpt lat="45.42353" lon="3.39206">
        <ele>611.7</ele>
        <time>2020-09-17T11:19:16Z</time>
      </trkpt>
      <trkpt lat="45.42353" lon="3.39208">
        <ele>611.6</ele>
        <time>2020-09-17T11:19:17Z</time>
      </trkpt>
      <trkpt lat="45.42354" lon="3.39209">
        <ele>611.5</ele>
        <time>2020-09-17T11:19:18Z</time>
      </trkpt>
      <trkpt lat="45.42355" lon="3.39211">
        <ele>611.4</ele>
        <time>2020-09-17T11:19:19Z</time>
      </trkpt>
      <trkpt lat="45.42355" lon="3.39212">
        <ele>611.3</ele>
        <time>2020-09-17T11:19:20Z</time>
      </trkpt>
      <trkpt lat="45.42355" lon="3.39214">
        <ele>611.2</ele>
        <time>2020-09-17T11:19:21Z</time>
      </trkpt>
      <trkpt lat="45.42356" lon="3.39216">
        <ele>611.1</ele>
        <time>2020-09-17T11:19:22Z</time>
      </trkpt>
      <trkpt lat="45.42356" lon="3.39217">
        <ele>611.1</ele>
        <time>2020-09-17T11:19:23Z</time>
      </trkpt>
      <trkpt lat="45.42357" lon="3.39219">
        <ele>611</ele>
        <time>2020-09-17T11:19:24Z</time>
      </trkpt>
      <trkpt lat="45.42357" lon="3.3922">
        <ele>611</ele>
        <time>2020-09-17T11:19:25Z</time>
      </trkpt>
      <trkpt lat="45.42357" lon="3.39222">
        <ele>610.9</ele>
        <time>2020-09-17T11:19:26Z</time>
      </trkpt>
      <trkpt lat="45.42358" lon="3.39223">
        <ele>610.9</ele>
        <time>2020-09-17T11:19:27Z</time>
      </trkpt>
      <trkpt lat="45.42358" lon="3.39225">
        <ele>610.9</ele>
        <time>2020-09-17T11:19:28Z</time>
      </trkpt>
      <trkpt lat="45.42358" lon="3.39226">
        <ele>611</ele>
        <time>2020-09-17T11:19:29Z</time>
      </trkpt>
      <trkpt lat="45.42359" lon="3.39228">
        <ele>611</ele>
        <time>2020-09-17T11:19:30Z</time>
      </trkpt>
      <trkpt lat="45.42359" lon="3.39229">
        <ele>611</ele>
        <time>2020-09-17T11:19:31Z</time>
      </trkpt>
      <trkpt lat="45.42359" lon="3.39231">
        <ele>611.1</ele>
        <time>2020-09-17T11:19:32Z</time>
      </trkpt>
      <trkpt lat="45.42359" lon="3.39233">
        <ele>611.2</ele>
        <time>2020-09-17T11:19:33Z</time>
      </trkpt>
      <trkpt lat="45.4236" lon="3.39234">
        <ele>611.2</ele>
        <time>2020-09-17T11:19:34Z</time>
      </trkpt>
      <trkpt lat="45.4236" lon="3.39236">
        <ele>611.2</ele>
        <time>2020-09-17T11:19:35Z</time>
      </trkpt>
      <trkpt lat="45.4236" lon="3.39237">
        <ele>611.3</ele>
        <time>2020-09-17T11:19:36Z</time>
      </trkpt>
      <trkpt lat="45.42361" lon="3.39239">
        <ele>611.3</ele>
        <time>2020-09-17T11:19:37Z</time>
      </trkpt>
      <trkpt lat="45.42361" lon="3.3924">
        <ele>611.3</ele>
        <time>2020-09-17T11:19:38Z</time>
      </trkpt>
      <trkpt lat="45.42361" lon="3.39242">
        <ele>611.3</ele>
        <time>2020-09-17T11:19:39Z</time>
      </trkpt>
      <trkpt lat="45.42362" lon="3.39243">
        <ele>611.3</ele>
        <time>2020-09-17T11:19:40Z</time>
      </trkpt>
      <trkpt lat="45.42362" lon="3.39245">
        <ele>611.3</ele>
        <time>2020-09-17T11:19:41Z</time>
      </trkpt>
      <trkpt lat="45.42363" lon="3.39247">
        <ele>611.3</ele>
        <time>2020-09-17T11:19:42Z</time>
      </trkpt>
      <trkpt lat="45.42363" lon="3.39248">
        <ele>611.3</ele>
        <time>2020-09-17T11:19:43Z</time>
      </trkpt>
      <trkpt lat="45.42364" lon="3.3925">
        <ele>611.4</ele>
        <time>2020-09-17T11:19:44Z</time>
      </trkpt>
      <trkpt lat="45.42364" lon="3.39251">
        <ele>611.3</ele>
        <time>2020-09-17T11:19:45Z</time>
      </trkpt>
      <trkpt lat="45.42365" lon="3.39253">
        <ele>611.2</ele>
        <time>2020-09-17T11:19:46Z</time>
      </trkpt>
      <trkpt lat="45.42365" lon="3.39255">
        <ele>611.1</ele>
        <time>2020-09-17T11:19:47Z</time>
      </trkpt>
      <trkpt lat="45.42365" lon="3.39256">
        <ele>611.1</ele>
        <time>2020-09-17T11:19:48Z</time>
      </trkpt>
      <trkpt lat="45.42366" lon="3.39258">
        <ele>611</ele>
        <time>2020-09-17T11:19:49Z</time>
      </trkpt>
      <trkpt lat="45.42366" lon="3.3926">
        <ele>610.9</ele>
        <time>2020-09-17T11:19:50Z</time>
      </trkpt>
      <trkpt lat="45.42367" lon="3.39262">
        <ele>610.8</ele>
        <time>2020-09-17T11:19:51Z</time>
      </trkpt>
      <trkpt lat="45.42367" lon="3.39263">
        <ele>610.7</ele>
        <time>2020-09-17T11:19:52Z</time>
      </trkpt>
      <trkpt lat="45.42368" lon="3.39265">
        <ele>610.6</ele>
        <time>2020-09-17T11:19:53Z</time>
      </trkpt>
      <trkpt lat="45.42368" lon="3.39267">
        <ele>610.6</ele>
        <time>2020-09-17T11:19:54Z</time>
      </trkpt>
      <trkpt lat="45.42368" lon="3.39269">
        <ele>610.5</ele>
        <time>2020-09-17T11:19:55Z</time>
      </trkpt>
      <trkpt lat="45.42369" lon="3.3927">
        <ele>610.5</ele>
        <time>2020-09-17T11:19:56Z</time>
      </trkpt>
      <trkpt lat="45.42369" lon="3.39272">
        <ele>610.5</ele>
        <time>2020-09-17T11:19:57Z</time>
      </trkpt>
      <trkpt lat="45.42369" lon="3.39273">
        <ele>610.5</ele>
        <time>2020-09-17T11:19:58Z</time>
      </trkpt>
      <trkpt lat="45.42369" lon="3.39275">
        <ele>610.5</ele>
        <time>2020-09-17T11:19:59Z</time>
      </trkpt>
      <trkpt lat="45.4237" lon="3.39277">
        <ele>610.5</ele>
        <time>2020-09-17T11:20:00Z</time>
      </trkpt>
      <trkpt lat="45.4237" lon="3.39278">
        <ele>610.5</ele>
        <time>2020-09-17T11:20:01Z</time>
      </trkpt>
      <trkpt lat="45.4237" lon="3.3928">
        <ele>610.5</ele>
        <time>2020-09-17T11:20:02Z</time>
      </trkpt>
      <trkpt lat="45.4237" lon="3.39282">
        <ele>610.6</ele>
        <time>2020-09-17T11:20:03Z</time>
      </trkpt>
      <trkpt lat="45.42371" lon="3.39283">
        <ele>610.6</ele>
        <time>2020-09-17T11:20:04Z</time>
      </trkpt>
      <trkpt lat="45.42371" lon="3.39285">
        <ele>610.6</ele>
        <time>2020-09-17T11:20:05Z</time>
      </trkpt>
      <trkpt lat="45.42371" lon="3.39287">
        <ele>610.6</ele>
        <time>2020-09-17T11:20:06Z</time>
      </trkpt>
      <trkpt lat="45.42372" lon="3.39289">
        <ele>610.6</ele>
        <time>2020-09-17T11:20:07Z</time>
      </trkpt>
      <trkpt lat="45.42372" lon="3.3929">
        <ele>610.7</ele>
        <time>2020-09-17T11:20:08Z</time>
      </trkpt>
      <trkpt lat="45.42372" lon="3.39292">
        <ele>610.7</ele>
        <time>2020-09-17T11:20:09Z</time>
      </trkpt>
      <trkpt lat="45.42373" lon="3.39294">
        <ele>610.7</ele>
        <time>2020-09-17T11:20:10Z</time>
      </trkpt>
      <trkpt lat="45.42373" lon="3.39295">
        <ele>610.8</ele>
        <time>2020-09-17T11:20:11Z</time>
      </trkpt>
      <trkpt lat="45.42373" lon="3.39297">
        <ele>610.8</ele>
        <time>2020-09-17T11:20:12Z</time>
      </trkpt>
      <trkpt lat="45.42373" lon="3.39299">
        <ele>610.9</ele>
        <time>2020-09-17T11:20:13Z</time>
      </trkpt>
      <trkpt lat="45.42374" lon="3.39301">
        <ele>610.9</ele>
        <time>2020-09-17T11:20:14Z</time>
      </trkpt>
      <trkpt lat="45.42374" lon="3.39302">
        <ele>611</ele>
        <time>2020-09-17T11:20:15Z</time>
      </trkpt>
      <trkpt lat="45.42374" lon="3.39304">
        <ele>611</ele>
        <time>2020-09-17T11:20:16Z</time>
      </trkpt>
      <trkpt lat="45.42375" lon="3.39306">
        <ele>611</ele>
        <time>2020-09-17T11:20:17Z</time>
      </trkpt>
      <trkpt lat="45.42376" lon="3.39308">
        <ele>611</ele>
        <time>2020-09-17T11:20:18Z</time>
      </trkpt>
      <trkpt lat="45.42376" lon="3.39309">
        <ele>611</ele>
        <time>2020-09-17T11:20:19Z</time>
      </trkpt>
      <trkpt lat="45.42377" lon="3.39311">
        <ele>611</ele>
        <time>2020-09-17T11:20:20Z</time>
      </trkpt>
      <trkpt lat="45.42377" lon="3.39313">
        <ele>611</ele>
        <time>2020-09-17T11:20:21Z</time>
      </trkpt>
      <trkpt lat="45.42378" lon="3.39315">
        <ele>611</ele>
        <time>2020-09-17T11:20:22Z</time>
      </trkpt>
      <trkpt lat="45.42378" lon="3.39316">
        <ele>611</ele>
        <time>2020-09-17T11:20:23Z</time>
      </trkpt>
      <trkpt lat="45.42378" lon="3.39318">
        <ele>611.1</ele>
        <time>2020-09-17T11:20:24Z</time>
      </trkpt>
      <trkpt lat="45.42379" lon="3.3932">
        <ele>611.1</ele>
        <time>2020-09-17T11:20:25Z</time>
      </trkpt>
      <trkpt lat="45.42379" lon="3.39322">
        <ele>611.1</ele>
        <time>2020-09-17T11:20:26Z</time>
      </trkpt>
      <trkpt lat="45.4238" lon="3.39323">
        <ele>611.2</ele>
        <time>2020-09-17T11:20:27Z</time>
      </trkpt>
      <trkpt lat="45.4238" lon="3.39325">
        <ele>611.2</ele>
        <time>2020-09-17T11:20:28Z</time>
      </trkpt>
      <trkpt lat="45.4238" lon="3.39327">
        <ele>611.3</ele>
        <time>2020-09-17T11:20:29Z</time>
      </trkpt>
      <trkpt lat="45.4238" lon="3.39328">
        <ele>611.4</ele>
        <time>2020-09-17T11:20:30Z</time>
      </trkpt>
      <trkpt lat="45.42381" lon="3.3933">
        <ele>611.4</ele>
        <time>2020-09-17T11:20:31Z</time>
      </trkpt>
      <trkpt lat="45.42381" lon="3.39332">
        <ele>611.5</ele>
        <time>2020-09-17T11:20:32Z</time>
      </trkpt>
      <trkpt lat="45.42381" lon="3.39334">
        <ele>611.6</ele>
        <time>2020-09-17T11:20:33Z</time>
      </trkpt>
      <trkpt lat="45.42382" lon="3.39335">
        <ele>611.6</ele>
        <time>2020-09-17T11:20:34Z</time>
      </trkpt>
      <trkpt lat="45.42382" lon="3.39337">
        <ele>611.7</ele>
        <time>2020-09-17T11:20:35Z</time>
      </trkpt>
      <trkpt lat="45.42382" lon="3.39339">
        <ele>611.8</ele>
        <time>2020-09-17T11:20:36Z</time>
      </trkpt>
      <trkpt lat="45.42383" lon="3.3934">
        <ele>611.9</ele>
        <time>2020-09-17T11:20:37Z</time>
      </trkpt>
      <trkpt lat="45.42383" lon="3.39342">
        <ele>612</ele>
        <time>2020-09-17T11:20:38Z</time>
      </trkpt>
      <trkpt lat="45.42384" lon="3.39344">
        <ele>612</ele>
        <time>2020-09-17T11:20:39Z</time>
      </trkpt>
      <trkpt lat="45.42384" lon="3.39345">
        <ele>612.1</ele>
        <time>2020-09-17T11:20:40Z</time>
      </trkpt>
      <trkpt lat="45.42384" lon="3.39347">
        <ele>612.2</ele>
        <time>2020-09-17T11:20:41Z</time>
      </trkpt>
      <trkpt lat="45.42385" lon="3.39349">
        <ele>612.3</ele>
        <time>2020-09-17T11:20:42Z</time>
      </trkpt>
      <trkpt lat="45.42385" lon="3.3935">
        <ele>612.4</ele>
        <time>2020-09-17T11:20:43Z</time>
      </trkpt>
      <trkpt lat="45.42386" lon="3.39352">
        <ele>612.5</ele>
        <time>2020-09-17T11:20:44Z</time>
      </trkpt>
      <trkpt lat="45.42386" lon="3.39354">
        <ele>612.6</ele>
        <time>2020-09-17T11:20:45Z</time>
      </trkpt>
      <trkpt lat="45.42387" lon="3.39356">
        <ele>612.7</ele>
        <time>2020-09-17T11:20:46Z</time>
      </trkpt>
      <trkpt lat="45.42387" lon="3.39357">
        <ele>612.8</ele>
        <time>2020-09-17T11:20:47Z</time>
      </trkpt>
      <trkpt lat="45.42388" lon="3.39359">
        <ele>612.9</ele>
        <time>2020-09-17T11:20:48Z</time>
      </trkpt>
      <trkpt lat="45.42389" lon="3.3936">
        <ele>613</ele>
        <time>2020-09-17T11:20:49Z</time>
      </trkpt>
      <trkpt lat="45.42389" lon="3.39362">
        <ele>613</ele>
        <time>2020-09-17T11:20:50Z</time>
      </trkpt>
      <trkpt lat="45.4239" lon="3.39363">
        <ele>613.1</ele>
        <time>2020-09-17T11:20:51Z</time>
      </trkpt>
      <trkpt lat="45.4239" lon="3.39365">
        <ele>613.1</ele>
        <time>2020-09-17T11:20:52Z</time>
      </trkpt>
      <trkpt lat="45.42391" lon="3.39366">
        <ele>613.1</ele>
        <time>2020-09-17T11:20:53Z</time>
      </trkpt>
      <trkpt lat="45.42391" lon="3.39368">
        <ele>613.2</ele>
        <time>2020-09-17T11:20:54Z</time>
      </trkpt>
      <trkpt lat="45.42392" lon="3.39369">
        <ele>613.2</ele>
        <time>2020-09-17T11:20:55Z</time>
      </trkpt>
      <trkpt lat="45.42392" lon="3.3937">
        <ele>613.3</ele>
        <time>2020-09-17T11:20:56Z</time>
      </trkpt>
      <trkpt lat="45.42393" lon="3.39371">
        <ele>613.3</ele>
        <time>2020-09-17T11:20:57Z</time>
      </trkpt>
      <trkpt lat="45.42393" lon="3.39373">
        <ele>613.4</ele>
        <time>2020-09-17T11:20:58Z</time>
      </trkpt>
      <trkpt lat="45.42394" lon="3.39374">
        <ele>613.5</ele>
        <time>2020-09-17T11:20:59Z</time>
      </trkpt>
      <trkpt lat="45.42394" lon="3.39375">
        <ele>613.5</ele>
        <time>2020-09-17T11:21:00Z</time>
      </trkpt>
      <trkpt lat="45.42395" lon="3.39377">
        <ele>613.6</ele>
        <time>2020-09-17T11:21:01Z</time>
      </trkpt>
      <trkpt lat="45.42395" lon="3.39378">
        <ele>613.7</ele>
        <time>2020-09-17T11:21:02Z</time>
      </trkpt>
      <trkpt lat="45.42396" lon="3.3938">
        <ele>613.7</ele>
        <time>2020-09-17T11:21:03Z</time>
      </trkpt>
      <trkpt lat="45.42396" lon="3.39381">
        <ele>613.8</ele>
        <time>2020-09-17T11:21:04Z</time>
      </trkpt>
      <trkpt lat="45.42397" lon="3.39383">
        <ele>613.9</ele>
        <time>2020-09-17T11:21:05Z</time>
      </trkpt>
      <trkpt lat="45.42397" lon="3.39384">
        <ele>614</ele>
        <time>2020-09-17T11:21:06Z</time>
      </trkpt>
      <trkpt lat="45.42398" lon="3.39385">
        <ele>614.1</ele>
        <time>2020-09-17T11:21:07Z</time>
      </trkpt>
      <trkpt lat="45.42398" lon="3.39387">
        <ele>614.2</ele>
        <time>2020-09-17T11:21:08Z</time>
      </trkpt>
      <trkpt lat="45.42398" lon="3.39388">
        <ele>614.3</ele>
        <time>2020-09-17T11:21:09Z</time>
      </trkpt>
      <trkpt lat="45.42399" lon="3.3939">
        <ele>614.4</ele>
        <time>2020-09-17T11:21:10Z</time>
      </trkpt>
      <trkpt lat="45.42399" lon="3.39391">
        <ele>614.4</ele>
        <time>2020-09-17T11:21:11Z</time>
      </trkpt>
      <trkpt lat="45.424" lon="3.39392">
        <ele>614.4</ele>
        <time>2020-09-17T11:21:12Z</time>
      </trkpt>
      <trkpt lat="45.424" lon="3.39394">
        <ele>614.5</ele>
        <time>2020-09-17T11:21:13Z</time>
      </trkpt>
      <trkpt lat="45.42401" lon="3.39395">
        <ele>614.5</ele>
        <time>2020-09-17T11:21:14Z</time>
      </trkpt>
      <trkpt lat="45.42401" lon="3.39396">
        <ele>614.5</ele>
        <time>2020-09-17T11:21:15Z</time>
      </trkpt>
      <trkpt lat="45.42401" lon="3.39398">
        <ele>614.5</ele>
        <time>2020-09-17T11:21:16Z</time>
      </trkpt>
      <trkpt lat="45.42402" lon="3.39399">
        <ele>614.5</ele>
        <time>2020-09-17T11:21:17Z</time>
      </trkpt>
      <trkpt lat="45.42403" lon="3.394">
        <ele>614.5</ele>
        <time>2020-09-17T11:21:18Z</time>
      </trkpt>
      <trkpt lat="45.42403" lon="3.39402">
        <ele>614.5</ele>
        <time>2020-09-17T11:21:19Z</time>
      </trkpt>
      <trkpt lat="45.42403" lon="3.39403">
        <ele>614.5</ele>
        <time>2020-09-17T11:21:20Z</time>
      </trkpt>
      <trkpt lat="45.42404" lon="3.39404">
        <ele>614.5</ele>
        <time>2020-09-17T11:21:21Z</time>
      </trkpt>
      <trkpt lat="45.42404" lon="3.39406">
        <ele>614.4</ele>
        <time>2020-09-17T11:21:22Z</time>
      </trkpt>
      <trkpt lat="45.42405" lon="3.39407">
        <ele>614.4</ele>
        <time>2020-09-17T11:21:23Z</time>
      </trkpt>
      <trkpt lat="45.42405" lon="3.39409">
        <ele>614.3</ele>
        <time>2020-09-17T11:21:24Z</time>
      </trkpt>
      <trkpt lat="45.42406" lon="3.3941">
        <ele>614.3</ele>
        <time>2020-09-17T11:21:25Z</time>
      </trkpt>
      <trkpt lat="45.42406" lon="3.39411">
        <ele>614.2</ele>
        <time>2020-09-17T11:21:26Z</time>
      </trkpt>
      <trkpt lat="45.42407" lon="3.39413">
        <ele>614.2</ele>
        <time>2020-09-17T11:21:27Z</time>
      </trkpt>
      <trkpt lat="45.42407" lon="3.39414">
        <ele>614.1</ele>
        <time>2020-09-17T11:21:28Z</time>
      </trkpt>
      <trkpt lat="45.42407" lon="3.39416">
        <ele>614</ele>
        <time>2020-09-17T11:21:29Z</time>
      </trkpt>
      <trkpt lat="45.42408" lon="3.39417">
        <ele>614</ele>
        <time>2020-09-17T11:21:30Z</time>
      </trkpt>
      <trkpt lat="45.42408" lon="3.39419">
        <ele>614</ele>
        <time>2020-09-17T11:21:31Z</time>
      </trkpt>
      <trkpt lat="45.42409" lon="3.3942">
        <ele>613.9</ele>
        <time>2020-09-17T11:21:32Z</time>
      </trkpt>
      <trkpt lat="45.42409" lon="3.39422">
        <ele>613.9</ele>
        <time>2020-09-17T11:21:33Z</time>
      </trkpt>
      <trkpt lat="45.4241" lon="3.39423">
        <ele>613.8</ele>
        <time>2020-09-17T11:21:34Z</time>
      </trkpt>
      <trkpt lat="45.4241" lon="3.39424">
        <ele>613.8</ele>
        <time>2020-09-17T11:21:35Z</time>
      </trkpt>
      <trkpt lat="45.4241" lon="3.39426">
        <ele>613.8</ele>
        <time>2020-09-17T11:21:36Z</time>
      </trkpt>
      <trkpt lat="45.42411" lon="3.39427">
        <ele>613.7</ele>
        <time>2020-09-17T11:21:37Z</time>
      </trkpt>
      <trkpt lat="45.42411" lon="3.39429">
        <ele>613.7</ele>
        <time>2020-09-17T11:21:38Z</time>
      </trkpt>
      <trkpt lat="45.42412" lon="3.3943">
        <ele>613.6</ele>
        <time>2020-09-17T11:21:39Z</time>
      </trkpt>
      <trkpt lat="45.42412" lon="3.39432">
        <ele>613.6</ele>
        <time>2020-09-17T11:21:40Z</time>
      </trkpt>
      <trkpt lat="45.42413" lon="3.39433">
        <ele>613.5</ele>
        <time>2020-09-17T11:21:41Z</time>
      </trkpt>
      <trkpt lat="45.42413" lon="3.39435">
        <ele>613.5</ele>
        <time>2020-09-17T11:21:42Z</time>
      </trkpt>
      <trkpt lat="45.42414" lon="3.39437">
        <ele>613.4</ele>
        <time>2020-09-17T11:21:43Z</time>
      </trkpt>
      <trkpt lat="45.42414" lon="3.39438">
        <ele>613.3</ele>
        <time>2020-09-17T11:21:44Z</time>
      </trkpt>
      <trkpt lat="45.42415" lon="3.3944">
        <ele>613.3</ele>
        <time>2020-09-17T11:21:45Z</time>
      </trkpt>
      <trkpt lat="45.42415" lon="3.39442">
        <ele>613.2</ele>
        <time>2020-09-17T11:21:46Z</time>
      </trkpt>
      <trkpt lat="45.42416" lon="3.39443">
        <ele>613.1</ele>
        <time>2020-09-17T11:21:47Z</time>
      </trkpt>
      <trkpt lat="45.42416" lon="3.39445">
        <ele>613.1</ele>
        <time>2020-09-17T11:21:48Z</time>
      </trkpt>
      <trkpt lat="45.42417" lon="3.39446">
        <ele>613.1</ele>
        <time>2020-09-17T11:21:49Z</time>
      </trkpt>
      <trkpt lat="45.42417" lon="3.39448">
        <ele>613</ele>
        <time>2020-09-17T11:21:50Z</time>
      </trkpt>
      <trkpt lat="45.42417" lon="3.39449">
        <ele>612.9</ele>
        <time>2020-09-17T11:21:51Z</time>
      </trkpt>
      <trkpt lat="45.42418" lon="3.39451">
        <ele>613</ele>
        <time>2020-09-17T11:21:52Z</time>
      </trkpt>
      <trkpt lat="45.42418" lon="3.39452">
        <ele>612.9</ele>
        <time>2020-09-17T11:21:53Z</time>
      </trkpt>
      <trkpt lat="45.42418" lon="3.39454">
        <ele>612.9</ele>
        <time>2020-09-17T11:21:54Z</time>
      </trkpt>
      <trkpt lat="45.42419" lon="3.39455">
        <ele>612.8</ele>
        <time>2020-09-17T11:21:55Z</time>
      </trkpt>
      <trkpt lat="45.42419" lon="3.39457">
        <ele>612.7</ele>
        <time>2020-09-17T11:21:56Z</time>
      </trkpt>
      <trkpt lat="45.42419" lon="3.39458">
        <ele>612.6</ele>
        <time>2020-09-17T11:21:57Z</time>
      </trkpt>
      <trkpt lat="45.4242" lon="3.3946">
        <ele>612.5</ele>
        <time>2020-09-17T11:21:58Z</time>
      </trkpt>
      <trkpt lat="45.4242" lon="3.39462">
        <ele>612.5</ele>
        <time>2020-09-17T11:21:59Z</time>
      </trkpt>
      <trkpt lat="45.42421" lon="3.39463">
        <ele>612.3</ele>
        <time>2020-09-17T11:22:00Z</time>
      </trkpt>
      <trkpt lat="45.42421" lon="3.39465">
        <ele>612.3</ele>
        <time>2020-09-17T11:22:01Z</time>
      </trkpt>
      <trkpt lat="45.42422" lon="3.39467">
        <ele>612.1</ele>
        <time>2020-09-17T11:22:02Z</time>
      </trkpt>
      <trkpt lat="45.42423" lon="3.39468">
        <ele>612</ele>
        <time>2020-09-17T11:22:03Z</time>
      </trkpt>
      <trkpt lat="45.42423" lon="3.3947">
        <ele>611.7</ele>
        <time>2020-09-17T11:22:04Z</time>
      </trkpt>
      <trkpt lat="45.42424" lon="3.39471">
        <ele>611.6</ele>
        <time>2020-09-17T11:22:05Z</time>
      </trkpt>
      <trkpt lat="45.42425" lon="3.39473">
        <ele>611.3</ele>
        <time>2020-09-17T11:22:06Z</time>
      </trkpt>
      <trkpt lat="45.42426" lon="3.39474">
        <ele>611.2</ele>
        <time>2020-09-17T11:22:07Z</time>
      </trkpt>
      <trkpt lat="45.42426" lon="3.39476">
        <ele>611.1</ele>
        <time>2020-09-17T11:22:08Z</time>
      </trkpt>
      <trkpt lat="45.42427" lon="3.39478">
        <ele>611</ele>
        <time>2020-09-17T11:22:09Z</time>
      </trkpt>
      <trkpt lat="45.42427" lon="3.39479">
        <ele>611</ele>
        <time>2020-09-17T11:22:10Z</time>
      </trkpt>
      <trkpt lat="45.42428" lon="3.3948">
        <ele>610.8</ele>
        <time>2020-09-17T11:22:11Z</time>
      </trkpt>
      <trkpt lat="45.42428" lon="3.39482">
        <ele>610.7</ele>
        <time>2020-09-17T11:22:12Z</time>
      </trkpt>
      <trkpt lat="45.42429" lon="3.39484">
        <ele>610.7</ele>
        <time>2020-09-17T11:22:13Z</time>
      </trkpt>
      <trkpt lat="45.42429" lon="3.39486">
        <ele>610.7</ele>
        <time>2020-09-17T11:22:14Z</time>
      </trkpt>
      <trkpt lat="45.4243" lon="3.39487">
        <ele>610.6</ele>
        <time>2020-09-17T11:22:15Z</time>
      </trkpt>
      <trkpt lat="45.4243" lon="3.39489">
        <ele>610.6</ele>
        <time>2020-09-17T11:22:16Z</time>
      </trkpt>
      <trkpt lat="45.4243" lon="3.39491">
        <ele>610.7</ele>
        <time>2020-09-17T11:22:17Z</time>
      </trkpt>
      <trkpt lat="45.4243" lon="3.39493">
        <ele>610.7</ele>
        <time>2020-09-17T11:22:18Z</time>
      </trkpt>
      <trkpt lat="45.42431" lon="3.39494">
        <ele>610.7</ele>
        <time>2020-09-17T11:22:19Z</time>
      </trkpt>
      <trkpt lat="45.42431" lon="3.39496">
        <ele>610.7</ele>
        <time>2020-09-17T11:22:20Z</time>
      </trkpt>
      <trkpt lat="45.42431" lon="3.39498">
        <ele>610.6</ele>
        <time>2020-09-17T11:22:21Z</time>
      </trkpt>
      <trkpt lat="45.42432" lon="3.39499">
        <ele>610.7</ele>
        <time>2020-09-17T11:22:22Z</time>
      </trkpt>
      <trkpt lat="45.42432" lon="3.39501">
        <ele>610.7</ele>
        <time>2020-09-17T11:22:23Z</time>
      </trkpt>
      <trkpt lat="45.42432" lon="3.39503">
        <ele>610.7</ele>
        <time>2020-09-17T11:22:24Z</time>
      </trkpt>
      <trkpt lat="45.42432" lon="3.39504">
        <ele>610.7</ele>
        <time>2020-09-17T11:22:25Z</time>
      </trkpt>
      <trkpt lat="45.42433" lon="3.39506">
        <ele>610.7</ele>
        <time>2020-09-17T11:22:26Z</time>
      </trkpt>
      <trkpt lat="45.42433" lon="3.39508">
        <ele>610.7</ele>
        <time>2020-09-17T11:22:27Z</time>
      </trkpt>
      <trkpt lat="45.42433" lon="3.3951">
        <ele>610.7</ele>
        <time>2020-09-17T11:22:28Z</time>
      </trkpt>
      <trkpt lat="45.42433" lon="3.39512">
        <ele>610.8</ele>
        <time>2020-09-17T11:22:29Z</time>
      </trkpt>
      <trkpt lat="45.42433" lon="3.39513">
        <ele>610.9</ele>
        <time>2020-09-17T11:22:30Z</time>
      </trkpt>
      <trkpt lat="45.42433" lon="3.39515">
        <ele>611</ele>
        <time>2020-09-17T11:22:31Z</time>
      </trkpt>
      <trkpt lat="45.42433" lon="3.39517">
        <ele>611</ele>
        <time>2020-09-17T11:22:32Z</time>
      </trkpt>
      <trkpt lat="45.42433" lon="3.39518">
        <ele>611</ele>
        <time>2020-09-17T11:22:33Z</time>
      </trkpt>
      <trkpt lat="45.42433" lon="3.3952">
        <ele>610.9</ele>
        <time>2020-09-17T11:22:34Z</time>
      </trkpt>
      <trkpt lat="45.42434" lon="3.39522">
        <ele>610.9</ele>
        <time>2020-09-17T11:22:35Z</time>
      </trkpt>
      <trkpt lat="45.42434" lon="3.39523">
        <ele>610.8</ele>
        <time>2020-09-17T11:22:36Z</time>
      </trkpt>
      <trkpt lat="45.42434" lon="3.39525">
        <ele>610.9</ele>
        <time>2020-09-17T11:22:37Z</time>
      </trkpt>
      <trkpt lat="45.42434" lon="3.39527">
        <ele>610.9</ele>
        <time>2020-09-17T11:22:38Z</time>
      </trkpt>
      <trkpt lat="45.42434" lon="3.39529">
        <ele>610.9</ele>
        <time>2020-09-17T11:22:39Z</time>
      </trkpt>
      <trkpt lat="45.42434" lon="3.39531">
        <ele>610.9</ele>
        <time>2020-09-17T11:22:40Z</time>
      </trkpt>
      <trkpt lat="45.42435" lon="3.39532">
        <ele>610.9</ele>
        <time>2020-09-17T11:22:41Z</time>
      </trkpt>
      <trkpt lat="45.42435" lon="3.39534">
        <ele>610.9</ele>
        <time>2020-09-17T11:22:42Z</time>
      </trkpt>
      <trkpt lat="45.42435" lon="3.39536">
        <ele>610.9</ele>
        <time>2020-09-17T11:22:43Z</time>
      </trkpt>
      <trkpt lat="45.42435" lon="3.39538">
        <ele>610.8</ele>
        <time>2020-09-17T11:22:44Z</time>
      </trkpt>
      <trkpt lat="45.42435" lon="3.3954">
        <ele>610.9</ele>
        <time>2020-09-17T11:22:45Z</time>
      </trkpt>
      <trkpt lat="45.42434" lon="3.39541">
        <ele>610.9</ele>
        <time>2020-09-17T11:22:46Z</time>
      </trkpt>
      <trkpt lat="45.42434" lon="3.39543">
        <ele>611</ele>
        <time>2020-09-17T11:22:47Z</time>
      </trkpt>
      <trkpt lat="45.42434" lon="3.39545">
        <ele>611</ele>
        <time>2020-09-17T11:22:48Z</time>
      </trkpt>
      <trkpt lat="45.42434" lon="3.39547">
        <ele>611</ele>
        <time>2020-09-17T11:22:49Z</time>
      </trkpt>
      <trkpt lat="45.42434" lon="3.39549">
        <ele>611</ele>
        <time>2020-09-17T11:22:50Z</time>
      </trkpt>
      <trkpt lat="45.42434" lon="3.39551">
        <ele>611</ele>
        <time>2020-09-17T11:22:51Z</time>
      </trkpt>
      <trkpt lat="45.42434" lon="3.39553">
        <ele>611</ele>
        <time>2020-09-17T11:22:52Z</time>
      </trkpt>
      <trkpt lat="45.42434" lon="3.39554">
        <ele>611</ele>
        <time>2020-09-17T11:22:53Z</time>
      </trkpt>
      <trkpt lat="45.42434" lon="3.39556">
        <ele>611</ele>
        <time>2020-09-17T11:22:54Z</time>
      </trkpt>
      <trkpt lat="45.42434" lon="3.39558">
        <ele>611</ele>
        <time>2020-09-17T11:22:55Z</time>
      </trkpt>
      <trkpt lat="45.42434" lon="3.3956">
        <ele>611</ele>
        <time>2020-09-17T11:22:56Z</time>
      </trkpt>
      <trkpt lat="45.42434" lon="3.39562">
        <ele>611.1</ele>
        <time>2020-09-17T11:22:57Z</time>
      </trkpt>
      <trkpt lat="45.42434" lon="3.39564">
        <ele>611.2</ele>
        <time>2020-09-17T11:22:58Z</time>
      </trkpt>
      <trkpt lat="45.42434" lon="3.39566">
        <ele>611.2</ele>
        <time>2020-09-17T11:22:59Z</time>
      </trkpt>
      <trkpt lat="45.42434" lon="3.39567">
        <ele>611.3</ele>
        <time>2020-09-17T11:23:00Z</time>
      </trkpt>
      <trkpt lat="45.42434" lon="3.39569">
        <ele>611.3</ele>
        <time>2020-09-17T11:23:01Z</time>
      </trkpt>
      <trkpt lat="45.42434" lon="3.39571">
        <ele>611.3</ele>
        <time>2020-09-17T11:23:02Z</time>
      </trkpt>
      <trkpt lat="45.42434" lon="3.39573">
        <ele>611.4</ele>
        <time>2020-09-17T11:23:03Z</time>
      </trkpt>
      <trkpt lat="45.42434" lon="3.39575">
        <ele>611.4</ele>
        <time>2020-09-17T11:23:04Z</time>
      </trkpt>
      <trkpt lat="45.42434" lon="3.39577">
        <ele>611.5</ele>
        <time>2020-09-17T11:23:05Z</time>
      </trkpt>
      <trkpt lat="45.42434" lon="3.39578">
        <ele>611.6</ele>
        <time>2020-09-17T11:23:06Z</time>
      </trkpt>
      <trkpt lat="45.42433" lon="3.3958">
        <ele>611.7</ele>
        <time>2020-09-17T11:23:07Z</time>
      </trkpt>
      <trkpt lat="45.42433" lon="3.39582">
        <ele>611.8</ele>
        <time>2020-09-17T11:23:08Z</time>
      </trkpt>
      <trkpt lat="45.42433" lon="3.39583">
        <ele>612</ele>
        <time>2020-09-17T11:23:09Z</time>
      </trkpt>
      <trkpt lat="45.42433" lon="3.39585">
        <ele>612</ele>
        <time>2020-09-17T11:23:10Z</time>
      </trkpt>
      <trkpt lat="45.42432" lon="3.39586">
        <ele>612</ele>
        <time>2020-09-17T11:23:11Z</time>
      </trkpt>
      <trkpt lat="45.42432" lon="3.39588">
        <ele>612.1</ele>
        <time>2020-09-17T11:23:12Z</time>
      </trkpt>
      <trkpt lat="45.42432" lon="3.3959">
        <ele>612.1</ele>
        <time>2020-09-17T11:23:13Z</time>
      </trkpt>
      <trkpt lat="45.42432" lon="3.39591">
        <ele>612.1</ele>
        <time>2020-09-17T11:23:14Z</time>
      </trkpt>
      <trkpt lat="45.42431" lon="3.39593">
        <ele>612.1</ele>
        <time>2020-09-17T11:23:15Z</time>
      </trkpt>
      <trkpt lat="45.42431" lon="3.39594">
        <ele>612.2</ele>
        <time>2020-09-17T11:23:16Z</time>
      </trkpt>
      <trkpt lat="45.42431" lon="3.39596">
        <ele>612.2</ele>
        <time>2020-09-17T11:23:17Z</time>
      </trkpt>
      <trkpt lat="45.42431" lon="3.39598">
        <ele>612.2</ele>
        <time>2020-09-17T11:23:18Z</time>
      </trkpt>
      <trkpt lat="45.42431" lon="3.39599">
        <ele>612.2</ele>
        <time>2020-09-17T11:23:19Z</time>
      </trkpt>
      <trkpt lat="45.4243" lon="3.39601">
        <ele>612.3</ele>
        <time>2020-09-17T11:23:20Z</time>
      </trkpt>
      <trkpt lat="45.4243" lon="3.39602">
        <ele>612.3</ele>
        <time>2020-09-17T11:23:21Z</time>
      </trkpt>
      <trkpt lat="45.4243" lon="3.39604">
        <ele>612.3</ele>
        <time>2020-09-17T11:23:22Z</time>
      </trkpt>
      <trkpt lat="45.4243" lon="3.39605">
        <ele>612.3</ele>
        <time>2020-09-17T11:23:23Z</time>
      </trkpt>
      <trkpt lat="45.42429" lon="3.39607">
        <ele>612.4</ele>
        <time>2020-09-17T11:23:24Z</time>
      </trkpt>
      <trkpt lat="45.42429" lon="3.39609">
        <ele>612.4</ele>
        <time>2020-09-17T11:23:25Z</time>
      </trkpt>
      <trkpt lat="45.42429" lon="3.3961">
        <ele>612.4</ele>
        <time>2020-09-17T11:23:26Z</time>
      </trkpt>
      <trkpt lat="45.42428" lon="3.39612">
        <ele>612.5</ele>
        <time>2020-09-17T11:23:27Z</time>
      </trkpt>
      <trkpt lat="45.42428" lon="3.39614">
        <ele>612.5</ele>
        <time>2020-09-17T11:23:28Z</time>
      </trkpt>
      <trkpt lat="45.42428" lon="3.39615">
        <ele>612.6</ele>
        <time>2020-09-17T11:23:29Z</time>
      </trkpt>
      <trkpt lat="45.42427" lon="3.39617">
        <ele>612.6</ele>
        <time>2020-09-17T11:23:30Z</time>
      </trkpt>
      <trkpt lat="45.42427" lon="3.39618">
        <ele>612.7</ele>
        <time>2020-09-17T11:23:31Z</time>
      </trkpt>
      <trkpt lat="45.42427" lon="3.3962">
        <ele>612.8</ele>
        <time>2020-09-17T11:23:32Z</time>
      </trkpt>
      <trkpt lat="45.42426" lon="3.39622">
        <ele>612.8</ele>
        <time>2020-09-17T11:23:33Z</time>
      </trkpt>
      <trkpt lat="45.42426" lon="3.39623">
        <ele>612.9</ele>
        <time>2020-09-17T11:23:34Z</time>
      </trkpt>
      <trkpt lat="45.42425" lon="3.39625">
        <ele>613</ele>
        <time>2020-09-17T11:23:35Z</time>
      </trkpt>
      <trkpt lat="45.42425" lon="3.39626">
        <ele>613</ele>
        <time>2020-09-17T11:23:36Z</time>
      </trkpt>
      <trkpt lat="45.42425" lon="3.39628">
        <ele>613</ele>
        <time>2020-09-17T11:23:37Z</time>
      </trkpt>
      <trkpt lat="45.42424" lon="3.39629">
        <ele>613.1</ele>
        <time>2020-09-17T11:23:38Z</time>
      </trkpt>
      <trkpt lat="45.42424" lon="3.39631">
        <ele>613.1</ele>
        <time>2020-09-17T11:23:39Z</time>
      </trkpt>
      <trkpt lat="45.42423" lon="3.39632">
        <ele>613.2</ele>
        <time>2020-09-17T11:23:40Z</time>
      </trkpt>
      <trkpt lat="45.42423" lon="3.39634">
        <ele>613.2</ele>
        <time>2020-09-17T11:23:41Z</time>
      </trkpt>
      <trkpt lat="45.42422" lon="3.39635">
        <ele>613.3</ele>
        <time>2020-09-17T11:23:42Z</time>
      </trkpt>
      <trkpt lat="45.42422" lon="3.39637">
        <ele>613.3</ele>
        <time>2020-09-17T11:23:43Z</time>
      </trkpt>
      <trkpt lat="45.42422" lon="3.39639">
        <ele>613.3</ele>
        <time>2020-09-17T11:23:44Z</time>
      </trkpt>
      <trkpt lat="45.42421" lon="3.3964">
        <ele>613.4</ele>
        <time>2020-09-17T11:23:45Z</time>
      </trkpt>
      <trkpt lat="45.42421" lon="3.39642">
        <ele>613.5</ele>
        <time>2020-09-17T11:23:46Z</time>
      </trkpt>
      <trkpt lat="45.4242" lon="3.39643">
        <ele>613.5</ele>
        <time>2020-09-17T11:23:47Z</time>
      </trkpt>
      <trkpt lat="45.4242" lon="3.39644">
        <ele>613.6</ele>
        <time>2020-09-17T11:23:48Z</time>
      </trkpt>
      <trkpt lat="45.42419" lon="3.39646">
        <ele>613.7</ele>
        <time>2020-09-17T11:23:49Z</time>
      </trkpt>
      <trkpt lat="45.42419" lon="3.39647">
        <ele>613.7</ele>
        <time>2020-09-17T11:23:50Z</time>
      </trkpt>
      <trkpt lat="45.42419" lon="3.39649">
        <ele>613.8</ele>
        <time>2020-09-17T11:23:51Z</time>
      </trkpt>
      <trkpt lat="45.42418" lon="3.3965">
        <ele>613.8</ele>
        <time>2020-09-17T11:23:52Z</time>
      </trkpt>
      <trkpt lat="45.42418" lon="3.39652">
        <ele>613.9</ele>
        <time>2020-09-17T11:23:53Z</time>
      </trkpt>
      <trkpt lat="45.42418" lon="3.39653">
        <ele>613.9</ele>
        <time>2020-09-17T11:23:54Z</time>
      </trkpt>
      <trkpt lat="45.42417" lon="3.39654">
        <ele>614</ele>
        <time>2020-09-17T11:23:55Z</time>
      </trkpt>
      <trkpt lat="45.42417" lon="3.39656">
        <ele>614</ele>
        <time>2020-09-17T11:23:56Z</time>
      </trkpt>
      <trkpt lat="45.42416" lon="3.39657">
        <ele>614</ele>
        <time>2020-09-17T11:23:57Z</time>
      </trkpt>
      <trkpt lat="45.42416" lon="3.39659">
        <ele>614.1</ele>
        <time>2020-09-17T11:23:58Z</time>
      </trkpt>
      <trkpt lat="45.42415" lon="3.3966">
        <ele>614.1</ele>
        <time>2020-09-17T11:23:59Z</time>
      </trkpt>
      <trkpt lat="45.42415" lon="3.39662">
        <ele>614.2</ele>
        <time>2020-09-17T11:24:00Z</time>
      </trkpt>
      <trkpt lat="45.42414" lon="3.39663">
        <ele>614.2</ele>
        <time>2020-09-17T11:24:01Z</time>
      </trkpt>
      <trkpt lat="45.42414" lon="3.39664">
        <ele>614.2</ele>
        <time>2020-09-17T11:24:02Z</time>
      </trkpt>
      <trkpt lat="45.42414" lon="3.39666">
        <ele>614.2</ele>
        <time>2020-09-17T11:24:03Z</time>
      </trkpt>
      <trkpt lat="45.42413" lon="3.39667">
        <ele>614.3</ele>
        <time>2020-09-17T11:24:04Z</time>
      </trkpt>
      <trkpt lat="45.42413" lon="3.39669">
        <ele>614.4</ele>
        <time>2020-09-17T11:24:05Z</time>
      </trkpt>
      <trkpt lat="45.42412" lon="3.3967">
        <ele>614.5</ele>
        <time>2020-09-17T11:24:06Z</time>
      </trkpt>
      <trkpt lat="45.42412" lon="3.39672">
        <ele>614.7</ele>
        <time>2020-09-17T11:24:07Z</time>
      </trkpt>
      <trkpt lat="45.42411" lon="3.39673">
        <ele>614.8</ele>
        <time>2020-09-17T11:24:08Z</time>
      </trkpt>
      <trkpt lat="45.42411" lon="3.39674">
        <ele>614.9</ele>
        <time>2020-09-17T11:24:09Z</time>
      </trkpt>
      <trkpt lat="45.4241" lon="3.39676">
        <ele>615</ele>
        <time>2020-09-17T11:24:10Z</time>
      </trkpt>
      <trkpt lat="45.42409" lon="3.39677">
        <ele>615.1</ele>
        <time>2020-09-17T11:24:11Z</time>
      </trkpt>
      <trkpt lat="45.42409" lon="3.39679">
        <ele>615.2</ele>
        <time>2020-09-17T11:24:12Z</time>
      </trkpt>
      <trkpt lat="45.42408" lon="3.3968">
        <ele>615.3</ele>
        <time>2020-09-17T11:24:13Z</time>
      </trkpt>
      <trkpt lat="45.42408" lon="3.39681">
        <ele>615.4</ele>
        <time>2020-09-17T11:24:14Z</time>
      </trkpt>
      <trkpt lat="45.42407" lon="3.39683">
        <ele>615.4</ele>
        <time>2020-09-17T11:24:15Z</time>
      </trkpt>
      <trkpt lat="45.42407" lon="3.39684">
        <ele>615.5</ele>
        <time>2020-09-17T11:24:16Z</time>
      </trkpt>
      <trkpt lat="45.42406" lon="3.39685">
        <ele>615.6</ele>
        <time>2020-09-17T11:24:17Z</time>
      </trkpt>
      <trkpt lat="45.42406" lon="3.39687">
        <ele>615.7</ele>
        <time>2020-09-17T11:24:18Z</time>
      </trkpt>
      <trkpt lat="45.42405" lon="3.39688">
        <ele>615.7</ele>
        <time>2020-09-17T11:24:19Z</time>
      </trkpt>
      <trkpt lat="45.42404" lon="3.39689">
        <ele>615.8</ele>
        <time>2020-09-17T11:24:20Z</time>
      </trkpt>
      <trkpt lat="45.42404" lon="3.39691">
        <ele>615.8</ele>
        <time>2020-09-17T11:24:21Z</time>
      </trkpt>
      <trkpt lat="45.42403" lon="3.39692">
        <ele>615.9</ele>
        <time>2020-09-17T11:24:22Z</time>
      </trkpt>
      <trkpt lat="45.42402" lon="3.39693">
        <ele>616</ele>
        <time>2020-09-17T11:24:23Z</time>
      </trkpt>
      <trkpt lat="45.42402" lon="3.39695">
        <ele>616</ele>
        <time>2020-09-17T11:24:24Z</time>
      </trkpt>
      <trkpt lat="45.42401" lon="3.39696">
        <ele>616.1</ele>
        <time>2020-09-17T11:24:25Z</time>
      </trkpt>
      <trkpt lat="45.42401" lon="3.39697">
        <ele>616.2</ele>
        <time>2020-09-17T11:24:26Z</time>
      </trkpt>
      <trkpt lat="45.424" lon="3.39698">
        <ele>616.3</ele>
        <time>2020-09-17T11:24:27Z</time>
      </trkpt>
      <trkpt lat="45.424" lon="3.397">
        <ele>616.4</ele>
        <time>2020-09-17T11:24:28Z</time>
      </trkpt>
      <trkpt lat="45.42399" lon="3.39701">
        <ele>616.5</ele>
        <time>2020-09-17T11:24:29Z</time>
      </trkpt>
      <trkpt lat="45.42399" lon="3.39702">
        <ele>616.6</ele>
        <time>2020-09-17T11:24:30Z</time>
      </trkpt>
      <trkpt lat="45.42398" lon="3.39704">
        <ele>616.6</ele>
        <time>2020-09-17T11:24:31Z</time>
      </trkpt>
      <trkpt lat="45.42397" lon="3.39705">
        <ele>616.7</ele>
        <time>2020-09-17T11:24:32Z</time>
      </trkpt>
      <trkpt lat="45.42397" lon="3.39706">
        <ele>616.8</ele>
        <time>2020-09-17T11:24:33Z</time>
      </trkpt>
      <trkpt lat="45.42396" lon="3.39708">
        <ele>616.9</ele>
        <time>2020-09-17T11:24:34Z</time>
      </trkpt>
      <trkpt lat="45.42396" lon="3.39709">
        <ele>616.9</ele>
        <time>2020-09-17T11:24:35Z</time>
      </trkpt>
      <trkpt lat="45.42395" lon="3.3971">
        <ele>616.9</ele>
        <time>2020-09-17T11:24:36Z</time>
      </trkpt>
      <trkpt lat="45.42394" lon="3.39712">
        <ele>617</ele>
        <time>2020-09-17T11:24:37Z</time>
      </trkpt>
      <trkpt lat="45.42394" lon="3.39713">
        <ele>617</ele>
        <time>2020-09-17T11:24:38Z</time>
      </trkpt>
      <trkpt lat="45.42393" lon="3.39715">
        <ele>617.1</ele>
        <time>2020-09-17T11:24:39Z</time>
      </trkpt>
      <trkpt lat="45.42393" lon="3.39716">
        <ele>617.1</ele>
        <time>2020-09-17T11:24:40Z</time>
      </trkpt>
      <trkpt lat="45.42392" lon="3.39718">
        <ele>617.1</ele>
        <time>2020-09-17T11:24:41Z</time>
      </trkpt>
      <trkpt lat="45.42391" lon="3.39719">
        <ele>617.1</ele>
        <time>2020-09-17T11:24:42Z</time>
      </trkpt>
      <trkpt lat="45.42391" lon="3.3972">
        <ele>617.1</ele>
        <time>2020-09-17T11:24:43Z</time>
      </trkpt>
      <trkpt lat="45.4239" lon="3.39722">
        <ele>617.1</ele>
        <time>2020-09-17T11:24:44Z</time>
      </trkpt>
      <trkpt lat="45.42389" lon="3.39723">
        <ele>617.1</ele>
        <time>2020-09-17T11:24:45Z</time>
      </trkpt>
      <trkpt lat="45.42389" lon="3.39725">
        <ele>617</ele>
        <time>2020-09-17T11:24:46Z</time>
      </trkpt>
      <trkpt lat="45.42388" lon="3.39726">
        <ele>616.9</ele>
        <time>2020-09-17T11:24:47Z</time>
      </trkpt>
      <trkpt lat="45.42388" lon="3.39728">
        <ele>616.9</ele>
        <time>2020-09-17T11:24:48Z</time>
      </trkpt>
      <trkpt lat="45.42387" lon="3.39729">
        <ele>616.8</ele>
        <time>2020-09-17T11:24:49Z</time>
      </trkpt>
      <trkpt lat="45.42387" lon="3.39731">
        <ele>616.7</ele>
        <time>2020-09-17T11:24:50Z</time>
      </trkpt>
      <trkpt lat="45.42386" lon="3.39732">
        <ele>616.6</ele>
        <time>2020-09-17T11:24:51Z</time>
      </trkpt>
      <trkpt lat="45.42385" lon="3.39734">
        <ele>616.5</ele>
        <time>2020-09-17T11:24:52Z</time>
      </trkpt>
      <trkpt lat="45.42385" lon="3.39735">
        <ele>616.4</ele>
        <time>2020-09-17T11:24:53Z</time>
      </trkpt>
      <trkpt lat="45.42384" lon="3.39737">
        <ele>616.4</ele>
        <time>2020-09-17T11:24:54Z</time>
      </trkpt>
      <trkpt lat="45.42384" lon="3.39738">
        <ele>616.3</ele>
        <time>2020-09-17T11:24:55Z</time>
      </trkpt>
      <trkpt lat="45.42384" lon="3.3974">
        <ele>616.2</ele>
        <time>2020-09-17T11:24:56Z</time>
      </trkpt>
      <trkpt lat="45.42383" lon="3.39741">
        <ele>616.2</ele>
        <time>2020-09-17T11:24:57Z</time>
      </trkpt>
      <trkpt lat="45.42383" lon="3.39743">
        <ele>616.1</ele>
        <time>2020-09-17T11:24:58Z</time>
      </trkpt>
      <trkpt lat="45.42382" lon="3.39744">
        <ele>616</ele>
        <time>2020-09-17T11:24:59Z</time>
      </trkpt>
      <trkpt lat="45.42382" lon="3.39746">
        <ele>615.9</ele>
        <time>2020-09-17T11:25:00Z</time>
      </trkpt>
      <trkpt lat="45.42382" lon="3.39748">
        <ele>615.8</ele>
        <time>2020-09-17T11:25:01Z</time>
      </trkpt>
      <trkpt lat="45.42381" lon="3.39749">
        <ele>615.8</ele>
        <time>2020-09-17T11:25:02Z</time>
      </trkpt>
      <trkpt lat="45.42381" lon="3.39751">
        <ele>615.7</ele>
        <time>2020-09-17T11:25:03Z</time>
      </trkpt>
      <trkpt lat="45.42381" lon="3.39752">
        <ele>615.6</ele>
        <time>2020-09-17T11:25:04Z</time>
      </trkpt>
      <trkpt lat="45.42381" lon="3.39754">
        <ele>615.5</ele>
        <time>2020-09-17T11:25:05Z</time>
      </trkpt>
      <trkpt lat="45.4238" lon="3.39756">
        <ele>615.5</ele>
        <time>2020-09-17T11:25:06Z</time>
      </trkpt>
      <trkpt lat="45.4238" lon="3.39757">
        <ele>615.4</ele>
        <time>2020-09-17T11:25:07Z</time>
      </trkpt>
      <trkpt lat="45.4238" lon="3.39759">
        <ele>615.4</ele>
        <time>2020-09-17T11:25:08Z</time>
      </trkpt>
      <trkpt lat="45.4238" lon="3.39761">
        <ele>615.3</ele>
        <time>2020-09-17T11:25:09Z</time>
      </trkpt>
      <trkpt lat="45.4238" lon="3.39762">
        <ele>615.3</ele>
        <time>2020-09-17T11:25:10Z</time>
      </trkpt>
      <trkpt lat="45.4238" lon="3.39764">
        <ele>615.3</ele>
        <time>2020-09-17T11:25:11Z</time>
      </trkpt>
      <trkpt lat="45.4238" lon="3.39766">
        <ele>615.3</ele>
        <time>2020-09-17T11:25:12Z</time>
      </trkpt>
      <trkpt lat="45.4238" lon="3.39768">
        <ele>615.2</ele>
        <time>2020-09-17T11:25:13Z</time>
      </trkpt>
      <trkpt lat="45.4238" lon="3.39769">
        <ele>615.3</ele>
        <time>2020-09-17T11:25:14Z</time>
      </trkpt>
      <trkpt lat="45.4238" lon="3.39771">
        <ele>615.3</ele>
        <time>2020-09-17T11:25:15Z</time>
      </trkpt>
      <trkpt lat="45.4238" lon="3.39773">
        <ele>615.2</ele>
        <time>2020-09-17T11:25:16Z</time>
      </trkpt>
      <trkpt lat="45.4238" lon="3.39775">
        <ele>615.3</ele>
        <time>2020-09-17T11:25:17Z</time>
      </trkpt>
      <trkpt lat="45.4238" lon="3.39776">
        <ele>615.2</ele>
        <time>2020-09-17T11:25:18Z</time>
      </trkpt>
      <trkpt lat="45.42381" lon="3.39778">
        <ele>615.3</ele>
        <time>2020-09-17T11:25:19Z</time>
      </trkpt>
      <trkpt lat="45.42381" lon="3.3978">
        <ele>615.2</ele>
        <time>2020-09-17T11:25:20Z</time>
      </trkpt>
      <trkpt lat="45.42381" lon="3.39782">
        <ele>615.2</ele>
        <time>2020-09-17T11:25:21Z</time>
      </trkpt>
      <trkpt lat="45.42381" lon="3.39783">
        <ele>615.1</ele>
        <time>2020-09-17T11:25:22Z</time>
      </trkpt>
      <trkpt lat="45.42381" lon="3.39785">
        <ele>615.1</ele>
        <time>2020-09-17T11:25:23Z</time>
      </trkpt>
      <trkpt lat="45.42381" lon="3.39787">
        <ele>615</ele>
        <time>2020-09-17T11:25:24Z</time>
      </trkpt>
      <trkpt lat="45.42381" lon="3.39789">
        <ele>615</ele>
        <time>2020-09-17T11:25:25Z</time>
      </trkpt>
      <trkpt lat="45.42382" lon="3.3979">
        <ele>615</ele>
        <time>2020-09-17T11:25:26Z</time>
      </trkpt>
      <trkpt lat="45.42382" lon="3.39792">
        <ele>615</ele>
        <time>2020-09-17T11:25:27Z</time>
      </trkpt>
      <trkpt lat="45.42382" lon="3.39793">
        <ele>614.9</ele>
        <time>2020-09-17T11:25:28Z</time>
      </trkpt>
      <trkpt lat="45.42382" lon="3.39795">
        <ele>614.9</ele>
        <time>2020-09-17T11:25:29Z</time>
      </trkpt>
      <trkpt lat="45.42383" lon="3.39797">
        <ele>614.9</ele>
        <time>2020-09-17T11:25:30Z</time>
      </trkpt>
      <trkpt lat="45.42383" lon="3.39798">
        <ele>614.9</ele>
        <time>2020-09-17T11:25:31Z</time>
      </trkpt>
      <trkpt lat="45.42383" lon="3.398">
        <ele>614.8</ele>
        <time>2020-09-17T11:25:32Z</time>
      </trkpt>
      <trkpt lat="45.42383" lon="3.39802">
        <ele>614.7</ele>
        <time>2020-09-17T11:25:33Z</time>
      </trkpt>
      <trkpt lat="45.42383" lon="3.39803">
        <ele>614.7</ele>
        <time>2020-09-17T11:25:34Z</time>
      </trkpt>
      <trkpt lat="45.42384" lon="3.39805">
        <ele>614.7</ele>
        <time>2020-09-17T11:25:35Z</time>
      </trkpt>
      <trkpt lat="45.42384" lon="3.39807">
        <ele>614.6</ele>
        <time>2020-09-17T11:25:36Z</time>
      </trkpt>
      <trkpt lat="45.42384" lon="3.39808">
        <ele>614.6</ele>
        <time>2020-09-17T11:25:37Z</time>
      </trkpt>
      <trkpt lat="45.42384" lon="3.3981">
        <ele>614.6</ele>
        <time>2020-09-17T11:25:38Z</time>
      </trkpt>
      <trkpt lat="45.42385" lon="3.39812">
        <ele>614.7</ele>
        <time>2020-09-17T11:25:39Z</time>
      </trkpt>
      <trkpt lat="45.42385" lon="3.39813">
        <ele>614.7</ele>
        <time>2020-09-17T11:25:40Z</time>
      </trkpt>
      <trkpt lat="45.42386" lon="3.39815">
        <ele>614.7</ele>
        <time>2020-09-17T11:25:41Z</time>
      </trkpt>
      <trkpt lat="45.42386" lon="3.39817">
        <ele>614.7</ele>
        <time>2020-09-17T11:25:42Z</time>
      </trkpt>
      <trkpt lat="45.42386" lon="3.39818">
        <ele>614.8</ele>
        <time>2020-09-17T11:25:43Z</time>
      </trkpt>
      <trkpt lat="45.42387" lon="3.3982">
        <ele>614.8</ele>
        <time>2020-09-17T11:25:44Z</time>
      </trkpt>
      <trkpt lat="45.42387" lon="3.39821">
        <ele>614.8</ele>
        <time>2020-09-17T11:25:45Z</time>
      </trkpt>
      <trkpt lat="45.42387" lon="3.39823">
        <ele>614.9</ele>
        <time>2020-09-17T11:25:46Z</time>
      </trkpt>
      <trkpt lat="45.42388" lon="3.39825">
        <ele>614.9</ele>
        <time>2020-09-17T11:25:47Z</time>
      </trkpt>
      <trkpt lat="45.42388" lon="3.39826">
        <ele>615</ele>
        <time>2020-09-17T11:25:48Z</time>
      </trkpt>
      <trkpt lat="45.42389" lon="3.39828">
        <ele>615.1</ele>
        <time>2020-09-17T11:25:49Z</time>
      </trkpt>
      <trkpt lat="45.42389" lon="3.3983">
        <ele>615.1</ele>
        <time>2020-09-17T11:25:50Z</time>
      </trkpt>
      <trkpt lat="45.42389" lon="3.39831">
        <ele>615.1</ele>
        <time>2020-09-17T11:25:51Z</time>
      </trkpt>
      <trkpt lat="45.4239" lon="3.39833">
        <ele>615.1</ele>
        <time>2020-09-17T11:25:52Z</time>
      </trkpt>
      <trkpt lat="45.4239" lon="3.39834">
        <ele>615.2</ele>
        <time>2020-09-17T11:25:53Z</time>
      </trkpt>
      <trkpt lat="45.4239" lon="3.39836">
        <ele>615.2</ele>
        <time>2020-09-17T11:25:54Z</time>
      </trkpt>
      <trkpt lat="45.42391" lon="3.39838">
        <ele>615.1</ele>
        <time>2020-09-17T11:25:55Z</time>
      </trkpt>
      <trkpt lat="45.42391" lon="3.39839">
        <ele>615.1</ele>
        <time>2020-09-17T11:25:56Z</time>
      </trkpt>
      <trkpt lat="45.42391" lon="3.39841">
        <ele>615.1</ele>
        <time>2020-09-17T11:25:57Z</time>
      </trkpt>
      <trkpt lat="45.42391" lon="3.39843">
        <ele>615.1</ele>
        <time>2020-09-17T11:25:58Z</time>
      </trkpt>
      <trkpt lat="45.42392" lon="3.39844">
        <ele>615.2</ele>
        <time>2020-09-17T11:25:59Z</time>
      </trkpt>
      <trkpt lat="45.42392" lon="3.39845">
        <ele>615.2</ele>
        <time>2020-09-17T11:26:00Z</time>
      </trkpt>
      <trkpt lat="45.42393" lon="3.39847">
        <ele>615.2</ele>
        <time>2020-09-17T11:26:01Z</time>
      </trkpt>
      <trkpt lat="45.42393" lon="3.39849">
        <ele>615.2</ele>
        <time>2020-09-17T11:26:02Z</time>
      </trkpt>
      <trkpt lat="45.42393" lon="3.3985">
        <ele>615.3</ele>
        <time>2020-09-17T11:26:03Z</time>
      </trkpt>
      <trkpt lat="45.42394" lon="3.39852">
        <ele>615.4</ele>
        <time>2020-09-17T11:26:04Z</time>
      </trkpt>
      <trkpt lat="45.42394" lon="3.39853">
        <ele>615.4</ele>
        <time>2020-09-17T11:26:05Z</time>
      </trkpt>
      <trkpt lat="45.42395" lon="3.39855">
        <ele>615.4</ele>
        <time>2020-09-17T11:26:06Z</time>
      </trkpt>
      <trkpt lat="45.42395" lon="3.39857">
        <ele>615.4</ele>
        <time>2020-09-17T11:26:07Z</time>
      </trkpt>
      <trkpt lat="45.42395" lon="3.39858">
        <ele>615.5</ele>
        <time>2020-09-17T11:26:08Z</time>
      </trkpt>
      <trkpt lat="45.42396" lon="3.3986">
        <ele>615.5</ele>
        <time>2020-09-17T11:26:09Z</time>
      </trkpt>
      <trkpt lat="45.42396" lon="3.39862">
        <ele>615.6</ele>
        <time>2020-09-17T11:26:10Z</time>
      </trkpt>
      <trkpt lat="45.42397" lon="3.39863">
        <ele>615.6</ele>
        <time>2020-09-17T11:26:11Z</time>
      </trkpt>
      <trkpt lat="45.42397" lon="3.39865">
        <ele>615.7</ele>
        <time>2020-09-17T11:26:12Z</time>
      </trkpt>
      <trkpt lat="45.42397" lon="3.39867">
        <ele>615.8</ele>
        <time>2020-09-17T11:26:13Z</time>
      </trkpt>
      <trkpt lat="45.42398" lon="3.39869">
        <ele>615.9</ele>
        <time>2020-09-17T11:26:14Z</time>
      </trkpt>
      <trkpt lat="45.42398" lon="3.3987">
        <ele>616</ele>
        <time>2020-09-17T11:26:15Z</time>
      </trkpt>
      <trkpt lat="45.42398" lon="3.39872">
        <ele>616</ele>
        <time>2020-09-17T11:26:16Z</time>
      </trkpt>
      <trkpt lat="45.42399" lon="3.39874">
        <ele>616.1</ele>
        <time>2020-09-17T11:26:17Z</time>
      </trkpt>
      <trkpt lat="45.42399" lon="3.39875">
        <ele>616.1</ele>
        <time>2020-09-17T11:26:18Z</time>
      </trkpt>
      <trkpt lat="45.42399" lon="3.39877">
        <ele>616.2</ele>
        <time>2020-09-17T11:26:19Z</time>
      </trkpt>
      <trkpt lat="45.42399" lon="3.39879">
        <ele>616.2</ele>
        <time>2020-09-17T11:26:20Z</time>
      </trkpt>
      <trkpt lat="45.42399" lon="3.3988">
        <ele>616.3</ele>
        <time>2020-09-17T11:26:21Z</time>
      </trkpt>
      <trkpt lat="45.424" lon="3.39882">
        <ele>616.3</ele>
        <time>2020-09-17T11:26:22Z</time>
      </trkpt>
      <trkpt lat="45.424" lon="3.39884">
        <ele>616.3</ele>
        <time>2020-09-17T11:26:23Z</time>
      </trkpt>
      <trkpt lat="45.424" lon="3.39885">
        <ele>616.3</ele>
        <time>2020-09-17T11:26:24Z</time>
      </trkpt>
      <trkpt lat="45.424" lon="3.39887">
        <ele>616.3</ele>
        <time>2020-09-17T11:26:25Z</time>
      </trkpt>
      <trkpt lat="45.424" lon="3.39888">
        <ele>616.3</ele>
        <time>2020-09-17T11:26:26Z</time>
      </trkpt>
      <trkpt lat="45.424" lon="3.3989">
        <ele>616.4</ele>
        <time>2020-09-17T11:26:27Z</time>
      </trkpt>
      <trkpt lat="45.424" lon="3.39891">
        <ele>616.5</ele>
        <time>2020-09-17T11:26:28Z</time>
      </trkpt>
      <trkpt lat="45.424" lon="3.39893">
        <ele>616.7</ele>
        <time>2020-09-17T11:26:29Z</time>
      </trkpt>
      <trkpt lat="45.424" lon="3.39894">
        <ele>616.9</ele>
        <time>2020-09-17T11:26:30Z</time>
      </trkpt>
      <trkpt lat="45.424" lon="3.39896">
        <ele>617</ele>
        <time>2020-09-17T11:26:31Z</time>
      </trkpt>
      <trkpt lat="45.424" lon="3.39897">
        <ele>617.1</ele>
        <time>2020-09-17T11:26:32Z</time>
      </trkpt>
      <trkpt lat="45.424" lon="3.39899">
        <ele>617.2</ele>
        <time>2020-09-17T11:26:33Z</time>
      </trkpt>
      <trkpt lat="45.424" lon="3.39901">
        <ele>617.4</ele>
        <time>2020-09-17T11:26:34Z</time>
      </trkpt>
      <trkpt lat="45.42401" lon="3.39902">
        <ele>617.6</ele>
        <time>2020-09-17T11:26:35Z</time>
      </trkpt>
      <trkpt lat="45.42401" lon="3.39904">
        <ele>617.7</ele>
        <time>2020-09-17T11:26:36Z</time>
      </trkpt>
      <trkpt lat="45.42401" lon="3.39906">
        <ele>618</ele>
        <time>2020-09-17T11:26:37Z</time>
      </trkpt>
      <trkpt lat="45.42402" lon="3.39907">
        <ele>618.1</ele>
        <time>2020-09-17T11:26:38Z</time>
      </trkpt>
      <trkpt lat="45.42402" lon="3.39909">
        <ele>618.3</ele>
        <time>2020-09-17T11:26:39Z</time>
      </trkpt>
      <trkpt lat="45.42402" lon="3.39911">
        <ele>618.5</ele>
        <time>2020-09-17T11:26:40Z</time>
      </trkpt>
      <trkpt lat="45.42402" lon="3.39912">
        <ele>618.6</ele>
        <time>2020-09-17T11:26:41Z</time>
      </trkpt>
      <trkpt lat="45.42403" lon="3.39914">
        <ele>618.7</ele>
        <time>2020-09-17T11:26:42Z</time>
      </trkpt>
      <trkpt lat="45.42403" lon="3.39915">
        <ele>618.9</ele>
        <time>2020-09-17T11:26:43Z</time>
      </trkpt>
      <trkpt lat="45.42403" lon="3.39917">
        <ele>619</ele>
        <time>2020-09-17T11:26:44Z</time>
      </trkpt>
      <trkpt lat="45.42403" lon="3.39918">
        <ele>619.1</ele>
        <time>2020-09-17T11:26:45Z</time>
      </trkpt>
      <trkpt lat="45.42403" lon="3.3992">
        <ele>619.2</ele>
        <time>2020-09-17T11:26:46Z</time>
      </trkpt>
      <trkpt lat="45.42403" lon="3.39921">
        <ele>619.3</ele>
        <time>2020-09-17T11:26:47Z</time>
      </trkpt>
      <trkpt lat="45.42403" lon="3.39923">
        <ele>619.4</ele>
        <time>2020-09-17T11:26:48Z</time>
      </trkpt>
      <trkpt lat="45.42403" lon="3.39924">
        <ele>619.6</ele>
        <time>2020-09-17T11:26:49Z</time>
      </trkpt>
      <trkpt lat="45.42403" lon="3.39926">
        <ele>619.7</ele>
        <time>2020-09-17T11:26:50Z</time>
      </trkpt>
      <trkpt lat="45.42404" lon="3.39927">
        <ele>619.9</ele>
        <time>2020-09-17T11:26:51Z</time>
      </trkpt>
      <trkpt lat="45.42404" lon="3.39929">
        <ele>620</ele>
        <time>2020-09-17T11:26:52Z</time>
      </trkpt>
      <trkpt lat="45.42404" lon="3.3993">
        <ele>620.1</ele>
        <time>2020-09-17T11:26:53Z</time>
      </trkpt>
      <trkpt lat="45.42404" lon="3.39931">
        <ele>620.3</ele>
        <time>2020-09-17T11:26:54Z</time>
      </trkpt>
      <trkpt lat="45.42405" lon="3.39933">
        <ele>620.4</ele>
        <time>2020-09-17T11:26:55Z</time>
      </trkpt>
      <trkpt lat="45.42405" lon="3.39934">
        <ele>620.5</ele>
        <time>2020-09-17T11:26:56Z</time>
      </trkpt>
      <trkpt lat="45.42405" lon="3.39936">
        <ele>620.7</ele>
        <time>2020-09-17T11:26:57Z</time>
      </trkpt>
      <trkpt lat="45.42405" lon="3.39938">
        <ele>620.8</ele>
        <time>2020-09-17T11:26:58Z</time>
      </trkpt>
      <trkpt lat="45.42405" lon="3.39939">
        <ele>620.9</ele>
        <time>2020-09-17T11:26:59Z</time>
      </trkpt>
      <trkpt lat="45.42405" lon="3.39941">
        <ele>621.1</ele>
        <time>2020-09-17T11:27:00Z</time>
      </trkpt>
      <trkpt lat="45.42405" lon="3.39942">
        <ele>621.2</ele>
        <time>2020-09-17T11:27:01Z</time>
      </trkpt>
      <trkpt lat="45.42406" lon="3.39944">
        <ele>621.3</ele>
        <time>2020-09-17T11:27:02Z</time>
      </trkpt>
      <trkpt lat="45.42405" lon="3.39946">
        <ele>621.5</ele>
        <time>2020-09-17T11:27:03Z</time>
      </trkpt>
      <trkpt lat="45.42405" lon="3.39947">
        <ele>621.6</ele>
        <time>2020-09-17T11:27:04Z</time>
      </trkpt>
      <trkpt lat="45.42405" lon="3.39949">
        <ele>621.7</ele>
        <time>2020-09-17T11:27:05Z</time>
      </trkpt>
      <trkpt lat="45.42405" lon="3.3995">
        <ele>621.9</ele>
        <time>2020-09-17T11:27:06Z</time>
      </trkpt>
      <trkpt lat="45.42405" lon="3.39952">
        <ele>622</ele>
        <time>2020-09-17T11:27:07Z</time>
      </trkpt>
      <trkpt lat="45.42406" lon="3.39953">
        <ele>622.1</ele>
        <time>2020-09-17T11:27:08Z</time>
      </trkpt>
      <trkpt lat="45.42406" lon="3.39955">
        <ele>622.3</ele>
        <time>2020-09-17T11:27:09Z</time>
      </trkpt>
      <trkpt lat="45.42406" lon="3.39956">
        <ele>622.4</ele>
        <time>2020-09-17T11:27:10Z</time>
      </trkpt>
      <trkpt lat="45.42406" lon="3.39958">
        <ele>622.6</ele>
        <time>2020-09-17T11:27:11Z</time>
      </trkpt>
      <trkpt lat="45.42406" lon="3.39959">
        <ele>622.7</ele>
        <time>2020-09-17T11:27:12Z</time>
      </trkpt>
      <trkpt lat="45.42406" lon="3.3996">
        <ele>622.8</ele>
        <time>2020-09-17T11:27:13Z</time>
      </trkpt>
      <trkpt lat="45.42406" lon="3.39962">
        <ele>623</ele>
        <time>2020-09-17T11:27:14Z</time>
      </trkpt>
      <trkpt lat="45.42406" lon="3.39963">
        <ele>623.1</ele>
        <time>2020-09-17T11:27:15Z</time>
      </trkpt>
      <trkpt lat="45.42406" lon="3.39965">
        <ele>623.2</ele>
        <time>2020-09-17T11:27:16Z</time>
      </trkpt>
      <trkpt lat="45.42406" lon="3.39966">
        <ele>623.3</ele>
        <time>2020-09-17T11:27:17Z</time>
      </trkpt>
      <trkpt lat="45.42407" lon="3.39967">
        <ele>623.5</ele>
        <time>2020-09-17T11:27:18Z</time>
      </trkpt>
      <trkpt lat="45.42407" lon="3.39969">
        <ele>623.6</ele>
        <time>2020-09-17T11:27:19Z</time>
      </trkpt>
      <trkpt lat="45.42407" lon="3.3997">
        <ele>623.8</ele>
        <time>2020-09-17T11:27:20Z</time>
      </trkpt>
      <trkpt lat="45.42407" lon="3.39972">
        <ele>623.9</ele>
        <time>2020-09-17T11:27:21Z</time>
      </trkpt>
      <trkpt lat="45.42407" lon="3.39973">
        <ele>624</ele>
        <time>2020-09-17T11:27:22Z</time>
      </trkpt>
      <trkpt lat="45.42408" lon="3.39975">
        <ele>624.1</ele>
        <time>2020-09-17T11:27:23Z</time>
      </trkpt>
      <trkpt lat="45.42408" lon="3.39976">
        <ele>624.2</ele>
        <time>2020-09-17T11:27:24Z</time>
      </trkpt>
      <trkpt lat="45.42408" lon="3.39977">
        <ele>624.2</ele>
        <time>2020-09-17T11:27:25Z</time>
      </trkpt>
      <trkpt lat="45.42408" lon="3.39979">
        <ele>624.3</ele>
        <time>2020-09-17T11:27:26Z</time>
      </trkpt>
      <trkpt lat="45.42409" lon="3.3998">
        <ele>624.4</ele>
        <time>2020-09-17T11:27:27Z</time>
      </trkpt>
      <trkpt lat="45.42409" lon="3.39982">
        <ele>624.5</ele>
        <time>2020-09-17T11:27:28Z</time>
      </trkpt>
      <trkpt lat="45.42409" lon="3.39983">
        <ele>624.5</ele>
        <time>2020-09-17T11:27:29Z</time>
      </trkpt>
      <trkpt lat="45.42409" lon="3.39985">
        <ele>624.6</ele>
        <time>2020-09-17T11:27:30Z</time>
      </trkpt>
      <trkpt lat="45.4241" lon="3.39986">
        <ele>624.6</ele>
        <time>2020-09-17T11:27:31Z</time>
      </trkpt>
      <trkpt lat="45.4241" lon="3.39987">
        <ele>624.7</ele>
        <time>2020-09-17T11:27:32Z</time>
      </trkpt>
      <trkpt lat="45.4241" lon="3.39988">
        <ele>624.7</ele>
        <time>2020-09-17T11:27:33Z</time>
      </trkpt>
      <trkpt lat="45.4241" lon="3.3999">
        <ele>624.7</ele>
        <time>2020-09-17T11:27:34Z</time>
      </trkpt>
      <trkpt lat="45.42411" lon="3.39991">
        <ele>624.8</ele>
        <time>2020-09-17T11:27:35Z</time>
      </trkpt>
      <trkpt lat="45.42411" lon="3.39993">
        <ele>624.8</ele>
        <time>2020-09-17T11:27:36Z</time>
      </trkpt>
      <trkpt lat="45.42411" lon="3.39994">
        <ele>624.9</ele>
        <time>2020-09-17T11:27:37Z</time>
      </trkpt>
      <trkpt lat="45.42412" lon="3.39996">
        <ele>624.9</ele>
        <time>2020-09-17T11:27:38Z</time>
      </trkpt>
      <trkpt lat="45.42412" lon="3.39997">
        <ele>624.9</ele>
        <time>2020-09-17T11:27:39Z</time>
      </trkpt>
      <trkpt lat="45.42412" lon="3.39999">
        <ele>625</ele>
        <time>2020-09-17T11:27:40Z</time>
      </trkpt>
      <trkpt lat="45.42412" lon="3.4">
        <ele>625</ele>
        <time>2020-09-17T11:27:41Z</time>
      </trkpt>
      <trkpt lat="45.42412" lon="3.40002">
        <ele>624.9</ele>
        <time>2020-09-17T11:27:42Z</time>
      </trkpt>
      <trkpt lat="45.42412" lon="3.40004">
        <ele>624.8</ele>
        <time>2020-09-17T11:27:43Z</time>
      </trkpt>
      <trkpt lat="45.42412" lon="3.40005">
        <ele>624.7</ele>
        <time>2020-09-17T11:27:44Z</time>
      </trkpt>
      <trkpt lat="45.42412" lon="3.40007">
        <ele>624.6</ele>
        <time>2020-09-17T11:27:45Z</time>
      </trkpt>
      <trkpt lat="45.42413" lon="3.40008">
        <ele>624.5</ele>
        <time>2020-09-17T11:27:46Z</time>
      </trkpt>
      <trkpt lat="45.42413" lon="3.4001">
        <ele>624.4</ele>
        <time>2020-09-17T11:27:47Z</time>
      </trkpt>
      <trkpt lat="45.42413" lon="3.40012">
        <ele>624.3</ele>
        <time>2020-09-17T11:27:48Z</time>
      </trkpt>
      <trkpt lat="45.42412" lon="3.40013">
        <ele>624.2</ele>
        <time>2020-09-17T11:27:49Z</time>
      </trkpt>
      <trkpt lat="45.42412" lon="3.40015">
        <ele>624.1</ele>
        <time>2020-09-17T11:27:50Z</time>
      </trkpt>
      <trkpt lat="45.42412" lon="3.40017">
        <ele>624</ele>
        <time>2020-09-17T11:27:51Z</time>
      </trkpt>
      <trkpt lat="45.42412" lon="3.40019">
        <ele>623.9</ele>
        <time>2020-09-17T11:27:52Z</time>
      </trkpt>
      <trkpt lat="45.42412" lon="3.4002">
        <ele>623.8</ele>
        <time>2020-09-17T11:27:53Z</time>
      </trkpt>
      <trkpt lat="45.42412" lon="3.40022">
        <ele>623.7</ele>
        <time>2020-09-17T11:27:54Z</time>
      </trkpt>
      <trkpt lat="45.42412" lon="3.40024">
        <ele>623.6</ele>
        <time>2020-09-17T11:27:55Z</time>
      </trkpt>
      <trkpt lat="45.42412" lon="3.40025">
        <ele>623.5</ele>
        <time>2020-09-17T11:27:56Z</time>
      </trkpt>
      <trkpt lat="45.42411" lon="3.40027">
        <ele>623.5</ele>
        <time>2020-09-17T11:27:57Z</time>
      </trkpt>
      <trkpt lat="45.42411" lon="3.40029">
        <ele>623.4</ele>
        <time>2020-09-17T11:27:58Z</time>
      </trkpt>
      <trkpt lat="45.42411" lon="3.4003">
        <ele>623.3</ele>
        <time>2020-09-17T11:27:59Z</time>
      </trkpt>
      <trkpt lat="45.4241" lon="3.40032">
        <ele>623.1</ele>
        <time>2020-09-17T11:28:00Z</time>
      </trkpt>
      <trkpt lat="45.4241" lon="3.40033">
        <ele>623</ele>
        <time>2020-09-17T11:28:01Z</time>
      </trkpt>
      <trkpt lat="45.4241" lon="3.40035">
        <ele>622.9</ele>
        <time>2020-09-17T11:28:02Z</time>
      </trkpt>
      <trkpt lat="45.4241" lon="3.40037">
        <ele>622.8</ele>
        <time>2020-09-17T11:28:03Z</time>
      </trkpt>
      <trkpt lat="45.42409" lon="3.40038">
        <ele>622.7</ele>
        <time>2020-09-17T11:28:04Z</time>
      </trkpt>
      <trkpt lat="45.42409" lon="3.4004">
        <ele>622.6</ele>
        <time>2020-09-17T11:28:05Z</time>
      </trkpt>
      <trkpt lat="45.42408" lon="3.40042">
        <ele>622.6</ele>
        <time>2020-09-17T11:28:06Z</time>
      </trkpt>
      <trkpt lat="45.42408" lon="3.40043">
        <ele>622.5</ele>
        <time>2020-09-17T11:28:07Z</time>
      </trkpt>
      <trkpt lat="45.42408" lon="3.40045">
        <ele>622.4</ele>
        <time>2020-09-17T11:28:08Z</time>
      </trkpt>
      <trkpt lat="45.42408" lon="3.40047">
        <ele>622.3</ele>
        <time>2020-09-17T11:28:09Z</time>
      </trkpt>
      <trkpt lat="45.42408" lon="3.40048">
        <ele>622.2</ele>
        <time>2020-09-17T11:28:10Z</time>
      </trkpt>
      <trkpt lat="45.42408" lon="3.4005">
        <ele>622.1</ele>
        <time>2020-09-17T11:28:11Z</time>
      </trkpt>
      <trkpt lat="45.42408" lon="3.40052">
        <ele>621.9</ele>
        <time>2020-09-17T11:28:12Z</time>
      </trkpt>
      <trkpt lat="45.42408" lon="3.40053">
        <ele>621.8</ele>
        <time>2020-09-17T11:28:13Z</time>
      </trkpt>
      <trkpt lat="45.42407" lon="3.40055">
        <ele>621.7</ele>
        <time>2020-09-17T11:28:14Z</time>
      </trkpt>
      <trkpt lat="45.42407" lon="3.40057">
        <ele>621.7</ele>
        <time>2020-09-17T11:28:15Z</time>
      </trkpt>
      <trkpt lat="45.42407" lon="3.40059">
        <ele>621.7</ele>
        <time>2020-09-17T11:28:16Z</time>
      </trkpt>
      <trkpt lat="45.42407" lon="3.40061">
        <ele>621.6</ele>
        <time>2020-09-17T11:28:17Z</time>
      </trkpt>
      <trkpt lat="45.42407" lon="3.40062">
        <ele>621.6</ele>
        <time>2020-09-17T11:28:18Z</time>
      </trkpt>
      <trkpt lat="45.42407" lon="3.40064">
        <ele>621.6</ele>
        <time>2020-09-17T11:28:19Z</time>
      </trkpt>
      <trkpt lat="45.42407" lon="3.40066">
        <ele>621.6</ele>
        <time>2020-09-17T11:28:20Z</time>
      </trkpt>
      <trkpt lat="45.42407" lon="3.40068">
        <ele>621.5</ele>
        <time>2020-09-17T11:28:21Z</time>
      </trkpt>
      <trkpt lat="45.42407" lon="3.40069">
        <ele>621.5</ele>
        <time>2020-09-17T11:28:22Z</time>
      </trkpt>
      <trkpt lat="45.42408" lon="3.40071">
        <ele>621.5</ele>
        <time>2020-09-17T11:28:23Z</time>
      </trkpt>
      <trkpt lat="45.42408" lon="3.40073">
        <ele>621.4</ele>
        <time>2020-09-17T11:28:24Z</time>
      </trkpt>
      <trkpt lat="45.42408" lon="3.40074">
        <ele>621.4</ele>
        <time>2020-09-17T11:28:25Z</time>
      </trkpt>
      <trkpt lat="45.42408" lon="3.40076">
        <ele>621.3</ele>
        <time>2020-09-17T11:28:26Z</time>
      </trkpt>
      <trkpt lat="45.42408" lon="3.40078">
        <ele>621.3</ele>
        <time>2020-09-17T11:28:27Z</time>
      </trkpt>
      <trkpt lat="45.42408" lon="3.40079">
        <ele>621.3</ele>
        <time>2020-09-17T11:28:28Z</time>
      </trkpt>
      <trkpt lat="45.42408" lon="3.40081">
        <ele>621.2</ele>
        <time>2020-09-17T11:28:29Z</time>
      </trkpt>
      <trkpt lat="45.42409" lon="3.40083">
        <ele>621.2</ele>
        <time>2020-09-17T11:28:30Z</time>
      </trkpt>
      <trkpt lat="45.42409" lon="3.40084">
        <ele>621.2</ele>
        <time>2020-09-17T11:28:31Z</time>
      </trkpt>
      <trkpt lat="45.42409" lon="3.40086">
        <ele>621.3</ele>
        <time>2020-09-17T11:28:32Z</time>
      </trkpt>
      <trkpt lat="45.42409" lon="3.40088">
        <ele>621.3</ele>
        <time>2020-09-17T11:28:33Z</time>
      </trkpt>
      <trkpt lat="45.4241" lon="3.40089">
        <ele>621.4</ele>
        <time>2020-09-17T11:28:34Z</time>
      </trkpt>
      <trkpt lat="45.4241" lon="3.40091">
        <ele>621.5</ele>
        <time>2020-09-17T11:28:35Z</time>
      </trkpt>
      <trkpt lat="45.4241" lon="3.40093">
        <ele>621.6</ele>
        <time>2020-09-17T11:28:36Z</time>
      </trkpt>
      <trkpt lat="45.4241" lon="3.40094">
        <ele>621.6</ele>
        <time>2020-09-17T11:28:37Z</time>
      </trkpt>
      <trkpt lat="45.42411" lon="3.40096">
        <ele>621.7</ele>
        <time>2020-09-17T11:28:38Z</time>
      </trkpt>
      <trkpt lat="45.42411" lon="3.40098">
        <ele>621.8</ele>
        <time>2020-09-17T11:28:39Z</time>
      </trkpt>
      <trkpt lat="45.42411" lon="3.40099">
        <ele>621.8</ele>
        <time>2020-09-17T11:28:40Z</time>
      </trkpt>
      <trkpt lat="45.42411" lon="3.40101">
        <ele>621.9</ele>
        <time>2020-09-17T11:28:41Z</time>
      </trkpt>
      <trkpt lat="45.42412" lon="3.40102">
        <ele>622</ele>
        <time>2020-09-17T11:28:42Z</time>
      </trkpt>
      <trkpt lat="45.42412" lon="3.40104">
        <ele>622</ele>
        <time>2020-09-17T11:28:43Z</time>
      </trkpt>
      <trkpt lat="45.42412" lon="3.40106">
        <ele>622.1</ele>
        <time>2020-09-17T11:28:44Z</time>
      </trkpt>
      <trkpt lat="45.42413" lon="3.40107">
        <ele>622.2</ele>
        <time>2020-09-17T11:28:45Z</time>
      </trkpt>
      <trkpt lat="45.42413" lon="3.40109">
        <ele>622.2</ele>
        <time>2020-09-17T11:28:46Z</time>
      </trkpt>
      <trkpt lat="45.42414" lon="3.40111">
        <ele>622.3</ele>
        <time>2020-09-17T11:28:47Z</time>
      </trkpt>
      <trkpt lat="45.42414" lon="3.40112">
        <ele>622.3</ele>
        <time>2020-09-17T11:28:48Z</time>
      </trkpt>
      <trkpt lat="45.42414" lon="3.40114">
        <ele>622.3</ele>
        <time>2020-09-17T11:28:49Z</time>
      </trkpt>
      <trkpt lat="45.42415" lon="3.40115">
        <ele>622.4</ele>
        <time>2020-09-17T11:28:50Z</time>
      </trkpt>
      <trkpt lat="45.42415" lon="3.40117">
        <ele>622.4</ele>
        <time>2020-09-17T11:28:51Z</time>
      </trkpt>
      <trkpt lat="45.42416" lon="3.40119">
        <ele>622.4</ele>
        <time>2020-09-17T11:28:52Z</time>
      </trkpt>
      <trkpt lat="45.42416" lon="3.4012">
        <ele>622.4</ele>
        <time>2020-09-17T11:28:53Z</time>
      </trkpt>
      <trkpt lat="45.42416" lon="3.40122">
        <ele>622.4</ele>
        <time>2020-09-17T11:28:54Z</time>
      </trkpt>
      <trkpt lat="45.42417" lon="3.40123">
        <ele>622.5</ele>
        <time>2020-09-17T11:28:55Z</time>
      </trkpt>
      <trkpt lat="45.42417" lon="3.40125">
        <ele>622.5</ele>
        <time>2020-09-17T11:28:56Z</time>
      </trkpt>
      <trkpt lat="45.42417" lon="3.40126">
        <ele>622.4</ele>
        <time>2020-09-17T11:28:57Z</time>
      </trkpt>
      <trkpt lat="45.42418" lon="3.40128">
        <ele>622.3</ele>
        <time>2020-09-17T11:28:58Z</time>
      </trkpt>
      <trkpt lat="45.42418" lon="3.4013">
        <ele>622.4</ele>
        <time>2020-09-17T11:28:59Z</time>
      </trkpt>
      <trkpt lat="45.42418" lon="3.40131">
        <ele>622.3</ele>
        <time>2020-09-17T11:29:00Z</time>
      </trkpt>
      <trkpt lat="45.42419" lon="3.40133">
        <ele>622.2</ele>
        <time>2020-09-17T11:29:01Z</time>
      </trkpt>
      <trkpt lat="45.42419" lon="3.40135">
        <ele>622.2</ele>
        <time>2020-09-17T11:29:02Z</time>
      </trkpt>
      <trkpt lat="45.42419" lon="3.40136">
        <ele>622.2</ele>
        <time>2020-09-17T11:29:03Z</time>
      </trkpt>
      <trkpt lat="45.4242" lon="3.40138">
        <ele>622.1</ele>
        <time>2020-09-17T11:29:04Z</time>
      </trkpt>
      <trkpt lat="45.4242" lon="3.4014">
        <ele>622</ele>
        <time>2020-09-17T11:29:05Z</time>
      </trkpt>
      <trkpt lat="45.42421" lon="3.40141">
        <ele>621.9</ele>
        <time>2020-09-17T11:29:06Z</time>
      </trkpt>
      <trkpt lat="45.42421" lon="3.40143">
        <ele>621.9</ele>
        <time>2020-09-17T11:29:07Z</time>
      </trkpt>
      <trkpt lat="45.42421" lon="3.40145">
        <ele>621.8</ele>
        <time>2020-09-17T11:29:08Z</time>
      </trkpt>
      <trkpt lat="45.42422" lon="3.40146">
        <ele>621.8</ele>
        <time>2020-09-17T11:29:09Z</time>
      </trkpt>
      <trkpt lat="45.42422" lon="3.40148">
        <ele>621.7</ele>
        <time>2020-09-17T11:29:10Z</time>
      </trkpt>
      <trkpt lat="45.42422" lon="3.4015">
        <ele>621.7</ele>
        <time>2020-09-17T11:29:11Z</time>
      </trkpt>
      <trkpt lat="45.42423" lon="3.40151">
        <ele>621.6</ele>
        <time>2020-09-17T11:29:12Z</time>
      </trkpt>
      <trkpt lat="45.42423" lon="3.40153">
        <ele>621.6</ele>
        <time>2020-09-17T11:29:13Z</time>
      </trkpt>
      <trkpt lat="45.42423" lon="3.40155">
        <ele>621.5</ele>
        <time>2020-09-17T11:29:14Z</time>
      </trkpt>
      <trkpt lat="45.42424" lon="3.40156">
        <ele>621.4</ele>
        <time>2020-09-17T11:29:15Z</time>
      </trkpt>
      <trkpt lat="45.42424" lon="3.40158">
        <ele>621.4</ele>
        <time>2020-09-17T11:29:16Z</time>
      </trkpt>
      <trkpt lat="45.42424" lon="3.4016">
        <ele>621.3</ele>
        <time>2020-09-17T11:29:17Z</time>
      </trkpt>
      <trkpt lat="45.42425" lon="3.40161">
        <ele>621.3</ele>
        <time>2020-09-17T11:29:18Z</time>
      </trkpt>
      <trkpt lat="45.42425" lon="3.40163">
        <ele>621.3</ele>
        <time>2020-09-17T11:29:19Z</time>
      </trkpt>
      <trkpt lat="45.42425" lon="3.40165">
        <ele>621.3</ele>
        <time>2020-09-17T11:29:20Z</time>
      </trkpt>
      <trkpt lat="45.42425" lon="3.40167">
        <ele>621.2</ele>
        <time>2020-09-17T11:29:21Z</time>
      </trkpt>
      <trkpt lat="45.42426" lon="3.40168">
        <ele>621.3</ele>
        <time>2020-09-17T11:29:22Z</time>
      </trkpt>
      <trkpt lat="45.42426" lon="3.4017">
        <ele>621.3</ele>
        <time>2020-09-17T11:29:23Z</time>
      </trkpt>
      <trkpt lat="45.42426" lon="3.40172">
        <ele>621.3</ele>
        <time>2020-09-17T11:29:24Z</time>
      </trkpt>
      <trkpt lat="45.42426" lon="3.40173">
        <ele>621.4</ele>
        <time>2020-09-17T11:29:25Z</time>
      </trkpt>
      <trkpt lat="45.42427" lon="3.40175">
        <ele>621.4</ele>
        <time>2020-09-17T11:29:26Z</time>
      </trkpt>
      <trkpt lat="45.42427" lon="3.40176">
        <ele>621.4</ele>
        <time>2020-09-17T11:29:27Z</time>
      </trkpt>
      <trkpt lat="45.42427" lon="3.40178">
        <ele>621.3</ele>
        <time>2020-09-17T11:29:28Z</time>
      </trkpt>
      <trkpt lat="45.42428" lon="3.40179">
        <ele>621.3</ele>
        <time>2020-09-17T11:29:29Z</time>
      </trkpt>
      <trkpt lat="45.42428" lon="3.40181">
        <ele>621.3</ele>
        <time>2020-09-17T11:29:30Z</time>
      </trkpt>
      <trkpt lat="45.42429" lon="3.40182">
        <ele>621.2</ele>
        <time>2020-09-17T11:29:31Z</time>
      </trkpt>
      <trkpt lat="45.42429" lon="3.40184">
        <ele>621.3</ele>
        <time>2020-09-17T11:29:32Z</time>
      </trkpt>
      <trkpt lat="45.4243" lon="3.40186">
        <ele>621.2</ele>
        <time>2020-09-17T11:29:33Z</time>
      </trkpt>
      <trkpt lat="45.4243" lon="3.40187">
        <ele>621.2</ele>
        <time>2020-09-17T11:29:34Z</time>
      </trkpt>
      <trkpt lat="45.4243" lon="3.40189">
        <ele>621.1</ele>
        <time>2020-09-17T11:29:35Z</time>
      </trkpt>
      <trkpt lat="45.42431" lon="3.4019">
        <ele>621.2</ele>
        <time>2020-09-17T11:29:36Z</time>
      </trkpt>
      <trkpt lat="45.42431" lon="3.40192">
        <ele>621.2</ele>
        <time>2020-09-17T11:29:37Z</time>
      </trkpt>
      <trkpt lat="45.42432" lon="3.40193">
        <ele>621</ele>
        <time>2020-09-17T11:29:38Z</time>
      </trkpt>
      <trkpt lat="45.42432" lon="3.40195">
        <ele>621</ele>
        <time>2020-09-17T11:29:39Z</time>
      </trkpt>
      <trkpt lat="45.42433" lon="3.40197">
        <ele>621</ele>
        <time>2020-09-17T11:29:40Z</time>
      </trkpt>
      <trkpt lat="45.42434" lon="3.40198">
        <ele>620.9</ele>
        <time>2020-09-17T11:29:41Z</time>
      </trkpt>
      <trkpt lat="45.42434" lon="3.402">
        <ele>620.9</ele>
        <time>2020-09-17T11:29:42Z</time>
      </trkpt>
      <trkpt lat="45.42435" lon="3.40201">
        <ele>620.9</ele>
        <time>2020-09-17T11:29:43Z</time>
      </trkpt>
      <trkpt lat="45.42435" lon="3.40203">
        <ele>620.9</ele>
        <time>2020-09-17T11:29:44Z</time>
      </trkpt>
      <trkpt lat="45.42436" lon="3.40204">
        <ele>620.8</ele>
        <time>2020-09-17T11:29:45Z</time>
      </trkpt>
      <trkpt lat="45.42437" lon="3.40205">
        <ele>620.7</ele>
        <time>2020-09-17T11:29:46Z</time>
      </trkpt>
      <trkpt lat="45.42437" lon="3.40206">
        <ele>620.6</ele>
        <time>2020-09-17T11:29:47Z</time>
      </trkpt>
      <trkpt lat="45.42438" lon="3.40208">
        <ele>620.6</ele>
        <time>2020-09-17T11:29:48Z</time>
      </trkpt>
      <trkpt lat="45.42438" lon="3.40209">
        <ele>620.6</ele>
        <time>2020-09-17T11:29:49Z</time>
      </trkpt>
      <trkpt lat="45.42439" lon="3.40211">
        <ele>620.6</ele>
        <time>2020-09-17T11:29:50Z</time>
      </trkpt>
      <trkpt lat="45.4244" lon="3.40212">
        <ele>620.5</ele>
        <time>2020-09-17T11:29:51Z</time>
      </trkpt>
      <trkpt lat="45.4244" lon="3.40213">
        <ele>620.4</ele>
        <time>2020-09-17T11:29:52Z</time>
      </trkpt>
      <trkpt lat="45.42441" lon="3.40215">
        <ele>620.3</ele>
        <time>2020-09-17T11:29:53Z</time>
      </trkpt>
      <trkpt lat="45.42442" lon="3.40216">
        <ele>620.2</ele>
        <time>2020-09-17T11:29:54Z</time>
      </trkpt>
      <trkpt lat="45.42442" lon="3.40217">
        <ele>620.2</ele>
        <time>2020-09-17T11:29:55Z</time>
      </trkpt>
      <trkpt lat="45.42443" lon="3.40219">
        <ele>620</ele>
        <time>2020-09-17T11:29:56Z</time>
      </trkpt>
      <trkpt lat="45.42444" lon="3.4022">
        <ele>619.9</ele>
        <time>2020-09-17T11:29:57Z</time>
      </trkpt>
      <trkpt lat="45.42445" lon="3.40222">
        <ele>619.8</ele>
        <time>2020-09-17T11:29:58Z</time>
      </trkpt>
      <trkpt lat="45.42446" lon="3.40223">
        <ele>619.7</ele>
        <time>2020-09-17T11:29:59Z</time>
      </trkpt>
      <trkpt lat="45.42446" lon="3.40224">
        <ele>619.7</ele>
        <time>2020-09-17T11:30:00Z</time>
      </trkpt>
      <trkpt lat="45.42447" lon="3.40226">
        <ele>619.6</ele>
        <time>2020-09-17T11:30:01Z</time>
      </trkpt>
      <trkpt lat="45.42448" lon="3.40227">
        <ele>619.5</ele>
        <time>2020-09-17T11:30:02Z</time>
      </trkpt>
      <trkpt lat="45.42449" lon="3.40229">
        <ele>619.4</ele>
        <time>2020-09-17T11:30:03Z</time>
      </trkpt>
      <trkpt lat="45.42449" lon="3.4023">
        <ele>619.3</ele>
        <time>2020-09-17T11:30:04Z</time>
      </trkpt>
      <trkpt lat="45.4245" lon="3.40232">
        <ele>619.3</ele>
        <time>2020-09-17T11:30:05Z</time>
      </trkpt>
      <trkpt lat="45.42451" lon="3.40233">
        <ele>619.2</ele>
        <time>2020-09-17T11:30:06Z</time>
      </trkpt>
      <trkpt lat="45.42452" lon="3.40234">
        <ele>619</ele>
        <time>2020-09-17T11:30:07Z</time>
      </trkpt>
      <trkpt lat="45.42452" lon="3.40236">
        <ele>619</ele>
        <time>2020-09-17T11:30:08Z</time>
      </trkpt>
      <trkpt lat="45.42453" lon="3.40237">
        <ele>618.9</ele>
        <time>2020-09-17T11:30:09Z</time>
      </trkpt>
      <trkpt lat="45.42454" lon="3.40239">
        <ele>618.8</ele>
        <time>2020-09-17T11:30:10Z</time>
      </trkpt>
      <trkpt lat="45.42455" lon="3.4024">
        <ele>618.7</ele>
        <time>2020-09-17T11:30:11Z</time>
      </trkpt>
      <trkpt lat="45.42455" lon="3.40241">
        <ele>618.7</ele>
        <time>2020-09-17T11:30:12Z</time>
      </trkpt>
      <trkpt lat="45.42456" lon="3.40243">
        <ele>618.7</ele>
        <time>2020-09-17T11:30:13Z</time>
      </trkpt>
      <trkpt lat="45.42456" lon="3.40244">
        <ele>618.6</ele>
        <time>2020-09-17T11:30:14Z</time>
      </trkpt>
      <trkpt lat="45.42457" lon="3.40246">
        <ele>618.6</ele>
        <time>2020-09-17T11:30:15Z</time>
      </trkpt>
      <trkpt lat="45.42457" lon="3.40247">
        <ele>618.6</ele>
        <time>2020-09-17T11:30:16Z</time>
      </trkpt>
      <trkpt lat="45.42458" lon="3.40249">
        <ele>618.6</ele>
        <time>2020-09-17T11:30:17Z</time>
      </trkpt>
      <trkpt lat="45.42458" lon="3.4025">
        <ele>618.5</ele>
        <time>2020-09-17T11:30:18Z</time>
      </trkpt>
      <trkpt lat="45.42459" lon="3.40252">
        <ele>618.4</ele>
        <time>2020-09-17T11:30:19Z</time>
      </trkpt>
      <trkpt lat="45.4246" lon="3.40253">
        <ele>618.3</ele>
        <time>2020-09-17T11:30:20Z</time>
      </trkpt>
      <trkpt lat="45.4246" lon="3.40255">
        <ele>618.3</ele>
        <time>2020-09-17T11:30:21Z</time>
      </trkpt>
      <trkpt lat="45.42461" lon="3.40257">
        <ele>618.1</ele>
        <time>2020-09-17T11:30:22Z</time>
      </trkpt>
      <trkpt lat="45.42461" lon="3.40258">
        <ele>618.1</ele>
        <time>2020-09-17T11:30:23Z</time>
      </trkpt>
      <trkpt lat="45.42462" lon="3.4026">
        <ele>618</ele>
        <time>2020-09-17T11:30:24Z</time>
      </trkpt>
      <trkpt lat="45.42462" lon="3.40261">
        <ele>617.9</ele>
        <time>2020-09-17T11:30:25Z</time>
      </trkpt>
      <trkpt lat="45.42463" lon="3.40263">
        <ele>617.8</ele>
        <time>2020-09-17T11:30:26Z</time>
      </trkpt>
      <trkpt lat="45.42464" lon="3.40265">
        <ele>617.7</ele>
        <time>2020-09-17T11:30:27Z</time>
      </trkpt>
      <trkpt lat="45.42464" lon="3.40266">
        <ele>617.6</ele>
        <time>2020-09-17T11:30:28Z</time>
      </trkpt>
      <trkpt lat="45.42465" lon="3.40268">
        <ele>617.6</ele>
        <time>2020-09-17T11:30:29Z</time>
      </trkpt>
      <trkpt lat="45.42465" lon="3.4027">
        <ele>617.5</ele>
        <time>2020-09-17T11:30:30Z</time>
      </trkpt>
      <trkpt lat="45.42466" lon="3.40271">
        <ele>617.4</ele>
        <time>2020-09-17T11:30:31Z</time>
      </trkpt>
      <trkpt lat="45.42466" lon="3.40273">
        <ele>617.4</ele>
        <time>2020-09-17T11:30:32Z</time>
      </trkpt>
      <trkpt lat="45.42467" lon="3.40275">
        <ele>617.3</ele>
        <time>2020-09-17T11:30:33Z</time>
      </trkpt>
      <trkpt lat="45.42467" lon="3.40276">
        <ele>617.3</ele>
        <time>2020-09-17T11:30:34Z</time>
      </trkpt>
      <trkpt lat="45.42467" lon="3.40278">
        <ele>617.2</ele>
        <time>2020-09-17T11:30:35Z</time>
      </trkpt>
      <trkpt lat="45.42468" lon="3.4028">
        <ele>617.3</ele>
        <time>2020-09-17T11:30:36Z</time>
      </trkpt>
      <trkpt lat="45.42468" lon="3.40282">
        <ele>617.3</ele>
        <time>2020-09-17T11:30:37Z</time>
      </trkpt>
      <trkpt lat="45.42468" lon="3.40283">
        <ele>617.3</ele>
        <time>2020-09-17T11:30:38Z</time>
      </trkpt>
      <trkpt lat="45.42469" lon="3.40285">
        <ele>617.4</ele>
        <time>2020-09-17T11:30:39Z</time>
      </trkpt>
      <trkpt lat="45.42469" lon="3.40287">
        <ele>617.4</ele>
        <time>2020-09-17T11:30:40Z</time>
      </trkpt>
      <trkpt lat="45.4247" lon="3.40289">
        <ele>617.4</ele>
        <time>2020-09-17T11:30:41Z</time>
      </trkpt>
      <trkpt lat="45.4247" lon="3.40291">
        <ele>617.4</ele>
        <time>2020-09-17T11:30:42Z</time>
      </trkpt>
      <trkpt lat="45.4247" lon="3.40292">
        <ele>617.5</ele>
        <time>2020-09-17T11:30:43Z</time>
      </trkpt>
      <trkpt lat="45.42471" lon="3.40294">
        <ele>617.5</ele>
        <time>2020-09-17T11:30:44Z</time>
      </trkpt>
      <trkpt lat="45.42471" lon="3.40296">
        <ele>617.6</ele>
        <time>2020-09-17T11:30:45Z</time>
      </trkpt>
      <trkpt lat="45.42471" lon="3.40298">
        <ele>617.7</ele>
        <time>2020-09-17T11:30:46Z</time>
      </trkpt>
      <trkpt lat="45.42471" lon="3.40299">
        <ele>617.7</ele>
        <time>2020-09-17T11:30:47Z</time>
      </trkpt>
      <trkpt lat="45.42472" lon="3.40301">
        <ele>617.8</ele>
        <time>2020-09-17T11:30:48Z</time>
      </trkpt>
      <trkpt lat="45.42472" lon="3.40303">
        <ele>617.8</ele>
        <time>2020-09-17T11:30:49Z</time>
      </trkpt>
      <trkpt lat="45.42472" lon="3.40305">
        <ele>617.9</ele>
        <time>2020-09-17T11:30:50Z</time>
      </trkpt>
      <trkpt lat="45.42473" lon="3.40306">
        <ele>617.9</ele>
        <time>2020-09-17T11:30:51Z</time>
      </trkpt>
      <trkpt lat="45.42474" lon="3.40308">
        <ele>617.9</ele>
        <time>2020-09-17T11:30:52Z</time>
      </trkpt>
      <trkpt lat="45.42474" lon="3.4031">
        <ele>618</ele>
        <time>2020-09-17T11:30:53Z</time>
      </trkpt>
      <trkpt lat="45.42474" lon="3.40312">
        <ele>618</ele>
        <time>2020-09-17T11:30:54Z</time>
      </trkpt>
      <trkpt lat="45.42475" lon="3.40314">
        <ele>618.1</ele>
        <time>2020-09-17T11:30:55Z</time>
      </trkpt>
      <trkpt lat="45.42475" lon="3.40315">
        <ele>618.1</ele>
        <time>2020-09-17T11:30:56Z</time>
      </trkpt>
      <trkpt lat="45.42475" lon="3.40317">
        <ele>618.2</ele>
        <time>2020-09-17T11:30:57Z</time>
      </trkpt>
      <trkpt lat="45.42476" lon="3.40319">
        <ele>618.3</ele>
        <time>2020-09-17T11:30:58Z</time>
      </trkpt>
      <trkpt lat="45.42476" lon="3.40321">
        <ele>618.3</ele>
        <time>2020-09-17T11:30:59Z</time>
      </trkpt>
      <trkpt lat="45.42477" lon="3.40322">
        <ele>618.3</ele>
        <time>2020-09-17T11:31:00Z</time>
      </trkpt>
      <trkpt lat="45.42477" lon="3.40324">
        <ele>618.3</ele>
        <time>2020-09-17T11:31:01Z</time>
      </trkpt>
      <trkpt lat="45.42478" lon="3.40326">
        <ele>618.4</ele>
        <time>2020-09-17T11:31:02Z</time>
      </trkpt>
      <trkpt lat="45.42478" lon="3.40327">
        <ele>618.4</ele>
        <time>2020-09-17T11:31:03Z</time>
      </trkpt>
      <trkpt lat="45.42479" lon="3.40329">
        <ele>618.5</ele>
        <time>2020-09-17T11:31:04Z</time>
      </trkpt>
      <trkpt lat="45.4248" lon="3.40331">
        <ele>618.5</ele>
        <time>2020-09-17T11:31:05Z</time>
      </trkpt>
      <trkpt lat="45.4248" lon="3.40333">
        <ele>618.6</ele>
        <time>2020-09-17T11:31:06Z</time>
      </trkpt>
      <trkpt lat="45.4248" lon="3.40334">
        <ele>618.6</ele>
        <time>2020-09-17T11:31:07Z</time>
      </trkpt>
      <trkpt lat="45.42481" lon="3.40336">
        <ele>618.6</ele>
        <time>2020-09-17T11:31:08Z</time>
      </trkpt>
      <trkpt lat="45.42481" lon="3.40338">
        <ele>618.6</ele>
        <time>2020-09-17T11:31:09Z</time>
      </trkpt>
      <trkpt lat="45.42482" lon="3.40339">
        <ele>618.6</ele>
        <time>2020-09-17T11:31:10Z</time>
      </trkpt>
      <trkpt lat="45.42482" lon="3.40341">
        <ele>618.7</ele>
        <time>2020-09-17T11:31:11Z</time>
      </trkpt>
      <trkpt lat="45.42483" lon="3.40342">
        <ele>618.7</ele>
        <time>2020-09-17T11:31:12Z</time>
      </trkpt>
      <trkpt lat="45.42483" lon="3.40344">
        <ele>618.7</ele>
        <time>2020-09-17T11:31:13Z</time>
      </trkpt>
      <trkpt lat="45.42484" lon="3.40346">
        <ele>618.8</ele>
        <time>2020-09-17T11:31:14Z</time>
      </trkpt>
      <trkpt lat="45.42484" lon="3.40348">
        <ele>618.8</ele>
        <time>2020-09-17T11:31:15Z</time>
      </trkpt>
      <trkpt lat="45.42485" lon="3.40349">
        <ele>618.8</ele>
        <time>2020-09-17T11:31:16Z</time>
      </trkpt>
      <trkpt lat="45.42485" lon="3.40351">
        <ele>618.9</ele>
        <time>2020-09-17T11:31:17Z</time>
      </trkpt>
      <trkpt lat="45.42486" lon="3.40352">
        <ele>618.9</ele>
        <time>2020-09-17T11:31:18Z</time>
      </trkpt>
      <trkpt lat="45.42487" lon="3.40354">
        <ele>618.9</ele>
        <time>2020-09-17T11:31:19Z</time>
      </trkpt>
      <trkpt lat="45.42487" lon="3.40355">
        <ele>619</ele>
        <time>2020-09-17T11:31:20Z</time>
      </trkpt>
      <trkpt lat="45.42488" lon="3.40357">
        <ele>619</ele>
        <time>2020-09-17T11:31:21Z</time>
      </trkpt>
      <trkpt lat="45.42488" lon="3.40358">
        <ele>619</ele>
        <time>2020-09-17T11:31:22Z</time>
      </trkpt>
      <trkpt lat="45.42489" lon="3.4036">
        <ele>619.1</ele>
        <time>2020-09-17T11:31:23Z</time>
      </trkpt>
      <trkpt lat="45.4249" lon="3.40362">
        <ele>619.1</ele>
        <time>2020-09-17T11:31:24Z</time>
      </trkpt>
      <trkpt lat="45.4249" lon="3.40363">
        <ele>619.2</ele>
        <time>2020-09-17T11:31:25Z</time>
      </trkpt>
      <trkpt lat="45.42491" lon="3.40365">
        <ele>619.2</ele>
        <time>2020-09-17T11:31:26Z</time>
      </trkpt>
      <trkpt lat="45.42492" lon="3.40366">
        <ele>619.2</ele>
        <time>2020-09-17T11:31:27Z</time>
      </trkpt>
      <trkpt lat="45.42492" lon="3.40368">
        <ele>619.3</ele>
        <time>2020-09-17T11:31:28Z</time>
      </trkpt>
      <trkpt lat="45.42493" lon="3.40369">
        <ele>619.3</ele>
        <time>2020-09-17T11:31:29Z</time>
      </trkpt>
      <trkpt lat="45.42493" lon="3.40371">
        <ele>619.3</ele>
        <time>2020-09-17T11:31:30Z</time>
      </trkpt>
      <trkpt lat="45.42494" lon="3.40373">
        <ele>619.4</ele>
        <time>2020-09-17T11:31:31Z</time>
      </trkpt>
      <trkpt lat="45.42495" lon="3.40374">
        <ele>619.4</ele>
        <time>2020-09-17T11:31:32Z</time>
      </trkpt>
      <trkpt lat="45.42495" lon="3.40376">
        <ele>619.5</ele>
        <time>2020-09-17T11:31:33Z</time>
      </trkpt>
      <trkpt lat="45.42496" lon="3.40377">
        <ele>619.5</ele>
        <time>2020-09-17T11:31:34Z</time>
      </trkpt>
      <trkpt lat="45.42496" lon="3.40379">
        <ele>619.6</ele>
        <time>2020-09-17T11:31:35Z</time>
      </trkpt>
      <trkpt lat="45.42497" lon="3.4038">
        <ele>619.6</ele>
        <time>2020-09-17T11:31:36Z</time>
      </trkpt>
      <trkpt lat="45.42497" lon="3.40382">
        <ele>619.7</ele>
        <time>2020-09-17T11:31:37Z</time>
      </trkpt>
      <trkpt lat="45.42498" lon="3.40383">
        <ele>619.7</ele>
        <time>2020-09-17T11:31:38Z</time>
      </trkpt>
      <trkpt lat="45.42499" lon="3.40385">
        <ele>619.8</ele>
        <time>2020-09-17T11:31:39Z</time>
      </trkpt>
      <trkpt lat="45.42499" lon="3.40386">
        <ele>619.9</ele>
        <time>2020-09-17T11:31:40Z</time>
      </trkpt>
      <trkpt lat="45.425" lon="3.40388">
        <ele>619.9</ele>
        <time>2020-09-17T11:31:41Z</time>
      </trkpt>
      <trkpt lat="45.425" lon="3.40389">
        <ele>620</ele>
        <time>2020-09-17T11:31:42Z</time>
      </trkpt>
      <trkpt lat="45.42501" lon="3.40391">
        <ele>620.2</ele>
        <time>2020-09-17T11:31:43Z</time>
      </trkpt>
      <trkpt lat="45.42501" lon="3.40392">
        <ele>620.4</ele>
        <time>2020-09-17T11:31:44Z</time>
      </trkpt>
      <trkpt lat="45.42502" lon="3.40394">
        <ele>620.5</ele>
        <time>2020-09-17T11:31:45Z</time>
      </trkpt>
      <trkpt lat="45.42502" lon="3.40395">
        <ele>620.7</ele>
        <time>2020-09-17T11:31:46Z</time>
      </trkpt>
      <trkpt lat="45.42503" lon="3.40397">
        <ele>620.8</ele>
        <time>2020-09-17T11:31:47Z</time>
      </trkpt>
      <trkpt lat="45.42503" lon="3.40398">
        <ele>620.9</ele>
        <time>2020-09-17T11:31:48Z</time>
      </trkpt>
      <trkpt lat="45.42504" lon="3.404">
        <ele>621.1</ele>
        <time>2020-09-17T11:31:49Z</time>
      </trkpt>
      <trkpt lat="45.42505" lon="3.40402">
        <ele>621.2</ele>
        <time>2020-09-17T11:31:50Z</time>
      </trkpt>
      <trkpt lat="45.42505" lon="3.40403">
        <ele>621.4</ele>
        <time>2020-09-17T11:31:51Z</time>
      </trkpt>
      <trkpt lat="45.42506" lon="3.40405">
        <ele>621.5</ele>
        <time>2020-09-17T11:31:52Z</time>
      </trkpt>
      <trkpt lat="45.42506" lon="3.40406">
        <ele>621.6</ele>
        <time>2020-09-17T11:31:53Z</time>
      </trkpt>
      <trkpt lat="45.42507" lon="3.40408">
        <ele>621.7</ele>
        <time>2020-09-17T11:31:54Z</time>
      </trkpt>
      <trkpt lat="45.42507" lon="3.40409">
        <ele>621.8</ele>
        <time>2020-09-17T11:31:55Z</time>
      </trkpt>
      <trkpt lat="45.42508" lon="3.4041">
        <ele>621.9</ele>
        <time>2020-09-17T11:31:56Z</time>
      </trkpt>
      <trkpt lat="45.42508" lon="3.40412">
        <ele>622</ele>
        <time>2020-09-17T11:31:57Z</time>
      </trkpt>
      <trkpt lat="45.42509" lon="3.40413">
        <ele>622.1</ele>
        <time>2020-09-17T11:31:58Z</time>
      </trkpt>
      <trkpt lat="45.4251" lon="3.40415">
        <ele>622.1</ele>
        <time>2020-09-17T11:31:59Z</time>
      </trkpt>
      <trkpt lat="45.4251" lon="3.40416">
        <ele>622.2</ele>
        <time>2020-09-17T11:32:00Z</time>
      </trkpt>
      <trkpt lat="45.42511" lon="3.40418">
        <ele>622.3</ele>
        <time>2020-09-17T11:32:01Z</time>
      </trkpt>
      <trkpt lat="45.42512" lon="3.40419">
        <ele>622.3</ele>
        <time>2020-09-17T11:32:02Z</time>
      </trkpt>
      <trkpt lat="45.42512" lon="3.40421">
        <ele>622.3</ele>
        <time>2020-09-17T11:32:03Z</time>
      </trkpt>
      <trkpt lat="45.42513" lon="3.40422">
        <ele>622.3</ele>
        <time>2020-09-17T11:32:04Z</time>
      </trkpt>
      <trkpt lat="45.42514" lon="3.40424">
        <ele>622.3</ele>
        <time>2020-09-17T11:32:05Z</time>
      </trkpt>
      <trkpt lat="45.42514" lon="3.40425">
        <ele>622.3</ele>
        <time>2020-09-17T11:32:06Z</time>
      </trkpt>
      <trkpt lat="45.42515" lon="3.40427">
        <ele>622.3</ele>
        <time>2020-09-17T11:32:07Z</time>
      </trkpt>
      <trkpt lat="45.42515" lon="3.40428">
        <ele>622.3</ele>
        <time>2020-09-17T11:32:08Z</time>
      </trkpt>
      <trkpt lat="45.42516" lon="3.4043">
        <ele>622.3</ele>
        <time>2020-09-17T11:32:09Z</time>
      </trkpt>
      <trkpt lat="45.42516" lon="3.40431">
        <ele>622.3</ele>
        <time>2020-09-17T11:32:10Z</time>
      </trkpt>
      <trkpt lat="45.42517" lon="3.40433">
        <ele>622.4</ele>
        <time>2020-09-17T11:32:11Z</time>
      </trkpt>
      <trkpt lat="45.42518" lon="3.40434">
        <ele>622.4</ele>
        <time>2020-09-17T11:32:12Z</time>
      </trkpt>
      <trkpt lat="45.42518" lon="3.40436">
        <ele>622.4</ele>
        <time>2020-09-17T11:32:13Z</time>
      </trkpt>
      <trkpt lat="45.42518" lon="3.40437">
        <ele>622.4</ele>
        <time>2020-09-17T11:32:14Z</time>
      </trkpt>
      <trkpt lat="45.42519" lon="3.40439">
        <ele>622.4</ele>
        <time>2020-09-17T11:32:15Z</time>
      </trkpt>
      <trkpt lat="45.4252" lon="3.4044">
        <ele>622.4</ele>
        <time>2020-09-17T11:32:16Z</time>
      </trkpt>
      <trkpt lat="45.4252" lon="3.40442">
        <ele>622.5</ele>
        <time>2020-09-17T11:32:17Z</time>
      </trkpt>
      <trkpt lat="45.4252" lon="3.40443">
        <ele>622.5</ele>
        <time>2020-09-17T11:32:18Z</time>
      </trkpt>
      <trkpt lat="45.42521" lon="3.40445">
        <ele>622.5</ele>
        <time>2020-09-17T11:32:19Z</time>
      </trkpt>
      <trkpt lat="45.42521" lon="3.40446">
        <ele>622.5</ele>
        <time>2020-09-17T11:32:20Z</time>
      </trkpt>
      <trkpt lat="45.42522" lon="3.40448">
        <ele>622.5</ele>
        <time>2020-09-17T11:32:21Z</time>
      </trkpt>
      <trkpt lat="45.42522" lon="3.40449">
        <ele>622.5</ele>
        <time>2020-09-17T11:32:22Z</time>
      </trkpt>
      <trkpt lat="45.42523" lon="3.40451">
        <ele>622.5</ele>
        <time>2020-09-17T11:32:23Z</time>
      </trkpt>
      <trkpt lat="45.42523" lon="3.40452">
        <ele>622.6</ele>
        <time>2020-09-17T11:32:24Z</time>
      </trkpt>
      <trkpt lat="45.42524" lon="3.40454">
        <ele>622.6</ele>
        <time>2020-09-17T11:32:25Z</time>
      </trkpt>
      <trkpt lat="45.42525" lon="3.40455">
        <ele>622.6</ele>
        <time>2020-09-17T11:32:26Z</time>
      </trkpt>
      <trkpt lat="45.42525" lon="3.40457">
        <ele>622.6</ele>
        <time>2020-09-17T11:32:27Z</time>
      </trkpt>
      <trkpt lat="45.42525" lon="3.40458">
        <ele>622.6</ele>
        <time>2020-09-17T11:32:28Z</time>
      </trkpt>
      <trkpt lat="45.42526" lon="3.4046">
        <ele>622.7</ele>
        <time>2020-09-17T11:32:29Z</time>
      </trkpt>
      <trkpt lat="45.42526" lon="3.40461">
        <ele>622.7</ele>
        <time>2020-09-17T11:32:30Z</time>
      </trkpt>
      <trkpt lat="45.42527" lon="3.40463">
        <ele>622.7</ele>
        <time>2020-09-17T11:32:31Z</time>
      </trkpt>
      <trkpt lat="45.42528" lon="3.40465">
        <ele>622.7</ele>
        <time>2020-09-17T11:32:32Z</time>
      </trkpt>
      <trkpt lat="45.42528" lon="3.40466">
        <ele>622.8</ele>
        <time>2020-09-17T11:32:33Z</time>
      </trkpt>
      <trkpt lat="45.42529" lon="3.40468">
        <ele>622.8</ele>
        <time>2020-09-17T11:32:34Z</time>
      </trkpt>
      <trkpt lat="45.42529" lon="3.40469">
        <ele>622.8</ele>
        <time>2020-09-17T11:32:35Z</time>
      </trkpt>
      <trkpt lat="45.4253" lon="3.40471">
        <ele>622.8</ele>
        <time>2020-09-17T11:32:36Z</time>
      </trkpt>
      <trkpt lat="45.42531" lon="3.40472">
        <ele>622.8</ele>
        <time>2020-09-17T11:32:37Z</time>
      </trkpt>
      <trkpt lat="45.42531" lon="3.40474">
        <ele>622.9</ele>
        <time>2020-09-17T11:32:38Z</time>
      </trkpt>
      <trkpt lat="45.42532" lon="3.40475">
        <ele>623</ele>
        <time>2020-09-17T11:32:39Z</time>
      </trkpt>
      <trkpt lat="45.42532" lon="3.40477">
        <ele>623</ele>
        <time>2020-09-17T11:32:40Z</time>
      </trkpt>
      <trkpt lat="45.42533" lon="3.40478">
        <ele>623.1</ele>
        <time>2020-09-17T11:32:41Z</time>
      </trkpt>
      <trkpt lat="45.42534" lon="3.4048">
        <ele>623.2</ele>
        <time>2020-09-17T11:32:42Z</time>
      </trkpt>
      <trkpt lat="45.42534" lon="3.40481">
        <ele>623.3</ele>
        <time>2020-09-17T11:32:43Z</time>
      </trkpt>
      <trkpt lat="45.42535" lon="3.40483">
        <ele>623.4</ele>
        <time>2020-09-17T11:32:44Z</time>
      </trkpt>
      <trkpt lat="45.42535" lon="3.40484">
        <ele>623.5</ele>
        <time>2020-09-17T11:32:45Z</time>
      </trkpt>
      <trkpt lat="45.42536" lon="3.40486">
        <ele>623.5</ele>
        <time>2020-09-17T11:32:46Z</time>
      </trkpt>
      <trkpt lat="45.42536" lon="3.40487">
        <ele>623.6</ele>
        <time>2020-09-17T11:32:47Z</time>
      </trkpt>
      <trkpt lat="45.42537" lon="3.40489">
        <ele>623.7</ele>
        <time>2020-09-17T11:32:48Z</time>
      </trkpt>
      <trkpt lat="45.42538" lon="3.40491">
        <ele>623.9</ele>
        <time>2020-09-17T11:32:49Z</time>
      </trkpt>
      <trkpt lat="45.42538" lon="3.40492">
        <ele>624</ele>
        <time>2020-09-17T11:32:50Z</time>
      </trkpt>
      <trkpt lat="45.42539" lon="3.40494">
        <ele>624.1</ele>
        <time>2020-09-17T11:32:51Z</time>
      </trkpt>
      <trkpt lat="45.42539" lon="3.40495">
        <ele>624.2</ele>
        <time>2020-09-17T11:32:52Z</time>
      </trkpt>
      <trkpt lat="45.4254" lon="3.40497">
        <ele>624.3</ele>
        <time>2020-09-17T11:32:53Z</time>
      </trkpt>
      <trkpt lat="45.42541" lon="3.40498">
        <ele>624.4</ele>
        <time>2020-09-17T11:32:54Z</time>
      </trkpt>
      <trkpt lat="45.42541" lon="3.405">
        <ele>624.5</ele>
        <time>2020-09-17T11:32:55Z</time>
      </trkpt>
      <trkpt lat="45.42542" lon="3.40501">
        <ele>624.6</ele>
        <time>2020-09-17T11:32:56Z</time>
      </trkpt>
      <trkpt lat="45.42542" lon="3.40503">
        <ele>624.7</ele>
        <time>2020-09-17T11:32:57Z</time>
      </trkpt>
      <trkpt lat="45.42543" lon="3.40504">
        <ele>624.8</ele>
        <time>2020-09-17T11:32:58Z</time>
      </trkpt>
      <trkpt lat="45.42543" lon="3.40506">
        <ele>624.8</ele>
        <time>2020-09-17T11:32:59Z</time>
      </trkpt>
      <trkpt lat="45.42544" lon="3.40507">
        <ele>624.9</ele>
        <time>2020-09-17T11:33:00Z</time>
      </trkpt>
      <trkpt lat="45.42544" lon="3.40509">
        <ele>625</ele>
        <time>2020-09-17T11:33:01Z</time>
      </trkpt>
      <trkpt lat="45.42545" lon="3.4051">
        <ele>625.1</ele>
        <time>2020-09-17T11:33:02Z</time>
      </trkpt>
      <trkpt lat="45.42546" lon="3.40511">
        <ele>625.2</ele>
        <time>2020-09-17T11:33:03Z</time>
      </trkpt>
      <trkpt lat="45.42546" lon="3.40513">
        <ele>625.3</ele>
        <time>2020-09-17T11:33:04Z</time>
      </trkpt>
      <trkpt lat="45.42547" lon="3.40514">
        <ele>625.3</ele>
        <time>2020-09-17T11:33:05Z</time>
      </trkpt>
      <trkpt lat="45.42547" lon="3.40516">
        <ele>625.4</ele>
        <time>2020-09-17T11:33:06Z</time>
      </trkpt>
      <trkpt lat="45.42548" lon="3.40517">
        <ele>625.5</ele>
        <time>2020-09-17T11:33:07Z</time>
      </trkpt>
      <trkpt lat="45.42548" lon="3.40518">
        <ele>625.6</ele>
        <time>2020-09-17T11:33:08Z</time>
      </trkpt>
      <trkpt lat="45.42549" lon="3.40519">
        <ele>625.6</ele>
        <time>2020-09-17T11:33:09Z</time>
      </trkpt>
      <trkpt lat="45.42549" lon="3.40521">
        <ele>625.7</ele>
        <time>2020-09-17T11:33:10Z</time>
      </trkpt>
      <trkpt lat="45.4255" lon="3.40522">
        <ele>625.8</ele>
        <time>2020-09-17T11:33:11Z</time>
      </trkpt>
      <trkpt lat="45.4255" lon="3.40523">
        <ele>625.9</ele>
        <time>2020-09-17T11:33:12Z</time>
      </trkpt>
      <trkpt lat="45.42551" lon="3.40525">
        <ele>625.9</ele>
        <time>2020-09-17T11:33:13Z</time>
      </trkpt>
      <trkpt lat="45.42551" lon="3.40526">
        <ele>626</ele>
        <time>2020-09-17T11:33:14Z</time>
      </trkpt>
      <trkpt lat="45.42551" lon="3.40527">
        <ele>626.1</ele>
        <time>2020-09-17T11:33:15Z</time>
      </trkpt>
      <trkpt lat="45.42552" lon="3.40528">
        <ele>626.2</ele>
        <time>2020-09-17T11:33:16Z</time>
      </trkpt>
      <trkpt lat="45.42552" lon="3.40529">
        <ele>626.3</ele>
        <time>2020-09-17T11:33:17Z</time>
      </trkpt>
      <trkpt lat="45.42553" lon="3.4053">
        <ele>626.3</ele>
        <time>2020-09-17T11:33:18Z</time>
      </trkpt>
      <trkpt lat="45.42554" lon="3.40531">
        <ele>626.4</ele>
        <time>2020-09-17T11:33:19Z</time>
      </trkpt>
      <trkpt lat="45.42554" lon="3.40533">
        <ele>626.5</ele>
        <time>2020-09-17T11:33:20Z</time>
      </trkpt>
      <trkpt lat="45.42555" lon="3.40534">
        <ele>626.7</ele>
        <time>2020-09-17T11:33:21Z</time>
      </trkpt>
      <trkpt lat="45.42555" lon="3.40535">
        <ele>626.8</ele>
        <time>2020-09-17T11:33:22Z</time>
      </trkpt>
      <trkpt lat="45.42556" lon="3.40536">
        <ele>626.9</ele>
        <time>2020-09-17T11:33:23Z</time>
      </trkpt>
      <trkpt lat="45.42556" lon="3.40538">
        <ele>627.1</ele>
        <time>2020-09-17T11:33:24Z</time>
      </trkpt>
      <trkpt lat="45.42557" lon="3.40539">
        <ele>627.3</ele>
        <time>2020-09-17T11:33:25Z</time>
      </trkpt>
      <trkpt lat="45.42557" lon="3.4054">
        <ele>627.4</ele>
        <time>2020-09-17T11:33:26Z</time>
      </trkpt>
      <trkpt lat="45.42558" lon="3.40541">
        <ele>627.6</ele>
        <time>2020-09-17T11:33:27Z</time>
      </trkpt>
      <trkpt lat="45.42558" lon="3.40542">
        <ele>627.8</ele>
        <time>2020-09-17T11:33:28Z</time>
      </trkpt>
      <trkpt lat="45.42559" lon="3.40544">
        <ele>628</ele>
        <time>2020-09-17T11:33:29Z</time>
      </trkpt>
      <trkpt lat="45.42559" lon="3.40545">
        <ele>628.2</ele>
        <time>2020-09-17T11:33:30Z</time>
      </trkpt>
      <trkpt lat="45.42559" lon="3.40546">
        <ele>628.3</ele>
        <time>2020-09-17T11:33:31Z</time>
      </trkpt>
      <trkpt lat="45.4256" lon="3.40548">
        <ele>628.5</ele>
        <time>2020-09-17T11:33:32Z</time>
      </trkpt>
      <trkpt lat="45.4256" lon="3.40549">
        <ele>628.7</ele>
        <time>2020-09-17T11:33:33Z</time>
      </trkpt>
      <trkpt lat="45.4256" lon="3.4055">
        <ele>628.9</ele>
        <time>2020-09-17T11:33:34Z</time>
      </trkpt>
      <trkpt lat="45.42561" lon="3.40551">
        <ele>629.1</ele>
        <time>2020-09-17T11:33:35Z</time>
      </trkpt>
      <trkpt lat="45.42561" lon="3.40553">
        <ele>629.2</ele>
        <time>2020-09-17T11:33:36Z</time>
      </trkpt>
      <trkpt lat="45.42562" lon="3.40554">
        <ele>629.4</ele>
        <time>2020-09-17T11:33:37Z</time>
      </trkpt>
      <trkpt lat="45.42562" lon="3.40555">
        <ele>629.6</ele>
        <time>2020-09-17T11:33:38Z</time>
      </trkpt>
      <trkpt lat="45.42563" lon="3.40556">
        <ele>629.8</ele>
        <time>2020-09-17T11:33:39Z</time>
      </trkpt>
      <trkpt lat="45.42563" lon="3.40557">
        <ele>630</ele>
        <time>2020-09-17T11:33:40Z</time>
      </trkpt>
      <trkpt lat="45.42563" lon="3.40558">
        <ele>630.2</ele>
        <time>2020-09-17T11:33:41Z</time>
      </trkpt>
      <trkpt lat="45.42564" lon="3.4056">
        <ele>630.4</ele>
        <time>2020-09-17T11:33:42Z</time>
      </trkpt>
      <trkpt lat="45.42564" lon="3.40561">
        <ele>630.6</ele>
        <time>2020-09-17T11:33:43Z</time>
      </trkpt>
      <trkpt lat="45.42565" lon="3.40562">
        <ele>630.8</ele>
        <time>2020-09-17T11:33:44Z</time>
      </trkpt>
      <trkpt lat="45.42566" lon="3.40563">
        <ele>631</ele>
        <time>2020-09-17T11:33:45Z</time>
      </trkpt>
      <trkpt lat="45.42566" lon="3.40564">
        <ele>631.2</ele>
        <time>2020-09-17T11:33:46Z</time>
      </trkpt>
      <trkpt lat="45.42567" lon="3.40565">
        <ele>631.3</ele>
        <time>2020-09-17T11:33:47Z</time>
      </trkpt>
      <trkpt lat="45.42567" lon="3.40566">
        <ele>631.5</ele>
        <time>2020-09-17T11:33:48Z</time>
      </trkpt>
      <trkpt lat="45.42568" lon="3.40567">
        <ele>631.7</ele>
        <time>2020-09-17T11:33:49Z</time>
      </trkpt>
      <trkpt lat="45.42569" lon="3.40568">
        <ele>631.8</ele>
        <time>2020-09-17T11:33:50Z</time>
      </trkpt>
      <trkpt lat="45.4257" lon="3.40569">
        <ele>632</ele>
        <time>2020-09-17T11:33:51Z</time>
      </trkpt>
      <trkpt lat="45.4257" lon="3.4057">
        <ele>632.1</ele>
        <time>2020-09-17T11:33:52Z</time>
      </trkpt>
      <trkpt lat="45.42571" lon="3.40571">
        <ele>632.3</ele>
        <time>2020-09-17T11:33:53Z</time>
      </trkpt>
      <trkpt lat="45.42572" lon="3.40572">
        <ele>632.4</ele>
        <time>2020-09-17T11:33:54Z</time>
      </trkpt>
      <trkpt lat="45.42573" lon="3.40573">
        <ele>632.5</ele>
        <time>2020-09-17T11:33:55Z</time>
      </trkpt>
      <trkpt lat="45.42573" lon="3.40573">
        <ele>632.7</ele>
        <time>2020-09-17T11:33:56Z</time>
      </trkpt>
      <trkpt lat="45.42574" lon="3.40574">
        <ele>632.8</ele>
        <time>2020-09-17T11:33:57Z</time>
      </trkpt>
      <trkpt lat="45.42575" lon="3.40575">
        <ele>632.9</ele>
        <time>2020-09-17T11:33:58Z</time>
      </trkpt>
      <trkpt lat="45.42576" lon="3.40575">
        <ele>633</ele>
        <time>2020-09-17T11:33:59Z</time>
      </trkpt>
      <trkpt lat="45.42577" lon="3.40576">
        <ele>633.1</ele>
        <time>2020-09-17T11:34:00Z</time>
      </trkpt>
      <trkpt lat="45.42578" lon="3.40577">
        <ele>633.2</ele>
        <time>2020-09-17T11:34:01Z</time>
      </trkpt>
      <trkpt lat="45.42579" lon="3.40577">
        <ele>633.3</ele>
        <time>2020-09-17T11:34:02Z</time>
      </trkpt>
      <trkpt lat="45.42579" lon="3.40577">
        <ele>633.4</ele>
        <time>2020-09-17T11:34:03Z</time>
      </trkpt>
      <trkpt lat="45.4258" lon="3.40578">
        <ele>633.4</ele>
        <time>2020-09-17T11:34:04Z</time>
      </trkpt>
      <trkpt lat="45.42581" lon="3.40577">
        <ele>633.4</ele>
        <time>2020-09-17T11:34:05Z</time>
      </trkpt>
      <trkpt lat="45.42582" lon="3.40578">
        <ele>633.5</ele>
        <time>2020-09-17T11:34:06Z</time>
      </trkpt>
      <trkpt lat="45.42583" lon="3.40578">
        <ele>633.6</ele>
        <time>2020-09-17T11:34:07Z</time>
      </trkpt>
      <trkpt lat="45.42584" lon="3.40578">
        <ele>633.7</ele>
        <time>2020-09-17T11:34:08Z</time>
      </trkpt>
      <trkpt lat="45.42585" lon="3.40578">
        <ele>633.8</ele>
        <time>2020-09-17T11:34:09Z</time>
      </trkpt>
      <trkpt lat="45.42586" lon="3.40578">
        <ele>633.9</ele>
        <time>2020-09-17T11:34:10Z</time>
      </trkpt>
      <trkpt lat="45.42587" lon="3.40578">
        <ele>634</ele>
        <time>2020-09-17T11:34:11Z</time>
      </trkpt>
      <trkpt lat="45.42588" lon="3.40578">
        <ele>634.1</ele>
        <time>2020-09-17T11:34:12Z</time>
      </trkpt>
      <trkpt lat="45.42589" lon="3.40577">
        <ele>634.2</ele>
        <time>2020-09-17T11:34:13Z</time>
      </trkpt>
      <trkpt lat="45.4259" lon="3.40577">
        <ele>634.3</ele>
        <time>2020-09-17T11:34:14Z</time>
      </trkpt>
      <trkpt lat="45.42591" lon="3.40577">
        <ele>634.4</ele>
        <time>2020-09-17T11:34:15Z</time>
      </trkpt>
      <trkpt lat="45.42592" lon="3.40577">
        <ele>634.6</ele>
        <time>2020-09-17T11:34:16Z</time>
      </trkpt>
      <trkpt lat="45.42592" lon="3.40577">
        <ele>634.6</ele>
        <time>2020-09-17T11:34:17Z</time>
      </trkpt>
      <trkpt lat="45.42593" lon="3.40577">
        <ele>634.8</ele>
        <time>2020-09-17T11:34:18Z</time>
      </trkpt>
      <trkpt lat="45.42594" lon="3.40576">
        <ele>634.9</ele>
        <time>2020-09-17T11:34:19Z</time>
      </trkpt>
      <trkpt lat="45.42595" lon="3.40576">
        <ele>635</ele>
        <time>2020-09-17T11:34:20Z</time>
      </trkpt>
      <trkpt lat="45.42596" lon="3.40576">
        <ele>635.1</ele>
        <time>2020-09-17T11:34:21Z</time>
      </trkpt>
      <trkpt lat="45.42597" lon="3.40575">
        <ele>635.2</ele>
        <time>2020-09-17T11:34:22Z</time>
      </trkpt>
      <trkpt lat="45.42598" lon="3.40575">
        <ele>635.3</ele>
        <time>2020-09-17T11:34:23Z</time>
      </trkpt>
      <trkpt lat="45.42599" lon="3.40574">
        <ele>635.4</ele>
        <time>2020-09-17T11:34:24Z</time>
      </trkpt>
      <trkpt lat="45.426" lon="3.40574">
        <ele>635.5</ele>
        <time>2020-09-17T11:34:25Z</time>
      </trkpt>
      <trkpt lat="45.42601" lon="3.40574">
        <ele>635.7</ele>
        <time>2020-09-17T11:34:26Z</time>
      </trkpt>
      <trkpt lat="45.42602" lon="3.40573">
        <ele>635.8</ele>
        <time>2020-09-17T11:34:27Z</time>
      </trkpt>
      <trkpt lat="45.42603" lon="3.40573">
        <ele>635.9</ele>
        <time>2020-09-17T11:34:28Z</time>
      </trkpt>
      <trkpt lat="45.42604" lon="3.40573">
        <ele>636.1</ele>
        <time>2020-09-17T11:34:29Z</time>
      </trkpt>
      <trkpt lat="45.42605" lon="3.40572">
        <ele>636.2</ele>
        <time>2020-09-17T11:34:30Z</time>
      </trkpt>
      <trkpt lat="45.42606" lon="3.40572">
        <ele>636.3</ele>
        <time>2020-09-17T11:34:31Z</time>
      </trkpt>
      <trkpt lat="45.42607" lon="3.40572">
        <ele>636.5</ele>
        <time>2020-09-17T11:34:32Z</time>
      </trkpt>
      <trkpt lat="45.42608" lon="3.40571">
        <ele>636.6</ele>
        <time>2020-09-17T11:34:33Z</time>
      </trkpt>
      <trkpt lat="45.42609" lon="3.40571">
        <ele>636.7</ele>
        <time>2020-09-17T11:34:34Z</time>
      </trkpt>
      <trkpt lat="45.4261" lon="3.40571">
        <ele>636.8</ele>
        <time>2020-09-17T11:34:35Z</time>
      </trkpt>
      <trkpt lat="45.42611" lon="3.4057">
        <ele>637</ele>
        <time>2020-09-17T11:34:36Z</time>
      </trkpt>
      <trkpt lat="45.42612" lon="3.4057">
        <ele>637.1</ele>
        <time>2020-09-17T11:34:37Z</time>
      </trkpt>
      <trkpt lat="45.42613" lon="3.4057">
        <ele>637.1</ele>
        <time>2020-09-17T11:34:38Z</time>
      </trkpt>
      <trkpt lat="45.42614" lon="3.4057">
        <ele>637.1</ele>
        <time>2020-09-17T11:34:39Z</time>
      </trkpt>
      <trkpt lat="45.42615" lon="3.4057">
        <ele>637.2</ele>
        <time>2020-09-17T11:34:40Z</time>
      </trkpt>
      <trkpt lat="45.42616" lon="3.4057">
        <ele>637.3</ele>
        <time>2020-09-17T11:34:41Z</time>
      </trkpt>
      <trkpt lat="45.42617" lon="3.40569">
        <ele>637.3</ele>
        <time>2020-09-17T11:34:42Z</time>
      </trkpt>
      <trkpt lat="45.42617" lon="3.40569">
        <ele>637.3</ele>
        <time>2020-09-17T11:34:43Z</time>
      </trkpt>
      <trkpt lat="45.42618" lon="3.40569">
        <ele>637.4</ele>
        <time>2020-09-17T11:34:44Z</time>
      </trkpt>
      <trkpt lat="45.42618" lon="3.40569">
        <ele>637.4</ele>
        <time>2020-09-17T11:34:45Z</time>
      </trkpt>
      <trkpt lat="45.42622" lon="3.40583">
        <ele>637.4</ele>
        <time>2020-09-17T11:34:46Z</time>
      </trkpt>
      <trkpt lat="45.42622" lon="3.40584">
        <ele>637.4</ele>
        <time>2020-09-17T11:34:47Z</time>
      </trkpt>
      <trkpt lat="45.42623" lon="3.40585">
        <ele>637.4</ele>
        <time>2020-09-17T11:34:48Z</time>
      </trkpt>
      <trkpt lat="45.42623" lon="3.40587">
        <ele>637.4</ele>
        <time>2020-09-17T11:34:49Z</time>
      </trkpt>
      <trkpt lat="45.42624" lon="3.40588">
        <ele>637.4</ele>
        <time>2020-09-17T11:34:50Z</time>
      </trkpt>
      <trkpt lat="45.42624" lon="3.4059">
        <ele>637.4</ele>
        <time>2020-09-17T11:34:51Z</time>
      </trkpt>
      <trkpt lat="45.42624" lon="3.40591">
        <ele>637.3</ele>
        <time>2020-09-17T11:34:52Z</time>
      </trkpt>
      <trkpt lat="45.42625" lon="3.40592">
        <ele>637.3</ele>
        <time>2020-09-17T11:34:53Z</time>
      </trkpt>
      <trkpt lat="45.42625" lon="3.40594">
        <ele>637.3</ele>
        <time>2020-09-17T11:34:54Z</time>
      </trkpt>
      <trkpt lat="45.42626" lon="3.40595">
        <ele>637.3</ele>
        <time>2020-09-17T11:34:55Z</time>
      </trkpt>
      <trkpt lat="45.42626" lon="3.40597">
        <ele>637.3</ele>
        <time>2020-09-17T11:34:56Z</time>
      </trkpt>
      <trkpt lat="45.42626" lon="3.40598">
        <ele>637.3</ele>
        <time>2020-09-17T11:34:57Z</time>
      </trkpt>
      <trkpt lat="45.42627" lon="3.40599">
        <ele>637.2</ele>
        <time>2020-09-17T11:34:58Z</time>
      </trkpt>
      <trkpt lat="45.42627" lon="3.40601">
        <ele>637.2</ele>
        <time>2020-09-17T11:34:59Z</time>
      </trkpt>
      <trkpt lat="45.42628" lon="3.40602">
        <ele>637.2</ele>
        <time>2020-09-17T11:35:00Z</time>
      </trkpt>
      <trkpt lat="45.42628" lon="3.40603">
        <ele>637.2</ele>
        <time>2020-09-17T11:35:01Z</time>
      </trkpt>
      <trkpt lat="45.42628" lon="3.40604">
        <ele>637.1</ele>
        <time>2020-09-17T11:35:02Z</time>
      </trkpt>
      <trkpt lat="45.42629" lon="3.40606">
        <ele>637.1</ele>
        <time>2020-09-17T11:35:03Z</time>
      </trkpt>
      <trkpt lat="45.42629" lon="3.40607">
        <ele>637.1</ele>
        <time>2020-09-17T11:35:04Z</time>
      </trkpt>
      <trkpt lat="45.42629" lon="3.40609">
        <ele>637.1</ele>
        <time>2020-09-17T11:35:05Z</time>
      </trkpt>
      <trkpt lat="45.4263" lon="3.4061">
        <ele>637</ele>
        <time>2020-09-17T11:35:06Z</time>
      </trkpt>
      <trkpt lat="45.4263" lon="3.40611">
        <ele>637</ele>
        <time>2020-09-17T11:35:07Z</time>
      </trkpt>
      <trkpt lat="45.4263" lon="3.40613">
        <ele>636.9</ele>
        <time>2020-09-17T11:35:08Z</time>
      </trkpt>
      <trkpt lat="45.4263" lon="3.40614">
        <ele>636.9</ele>
        <time>2020-09-17T11:35:09Z</time>
      </trkpt>
      <trkpt lat="45.42631" lon="3.40616">
        <ele>636.8</ele>
        <time>2020-09-17T11:35:10Z</time>
      </trkpt>
      <trkpt lat="45.42631" lon="3.40617">
        <ele>636.8</ele>
        <time>2020-09-17T11:35:11Z</time>
      </trkpt>
      <trkpt lat="45.42631" lon="3.40619">
        <ele>636.7</ele>
        <time>2020-09-17T11:35:12Z</time>
      </trkpt>
      <trkpt lat="45.42631" lon="3.4062">
        <ele>636.6</ele>
        <time>2020-09-17T11:35:13Z</time>
      </trkpt>
      <trkpt lat="45.42631" lon="3.40622">
        <ele>636.6</ele>
        <time>2020-09-17T11:35:14Z</time>
      </trkpt>
      <trkpt lat="45.42631" lon="3.40623">
        <ele>636.5</ele>
        <time>2020-09-17T11:35:15Z</time>
      </trkpt>
      <trkpt lat="45.42631" lon="3.40625">
        <ele>636.5</ele>
        <time>2020-09-17T11:35:16Z</time>
      </trkpt>
      <trkpt lat="45.42631" lon="3.40626">
        <ele>636.4</ele>
        <time>2020-09-17T11:35:17Z</time>
      </trkpt>
      <trkpt lat="45.42631" lon="3.40627">
        <ele>636.4</ele>
        <time>2020-09-17T11:35:18Z</time>
      </trkpt>
      <trkpt lat="45.42631" lon="3.40629">
        <ele>636.3</ele>
        <time>2020-09-17T11:35:19Z</time>
      </trkpt>
      <trkpt lat="45.42631" lon="3.4063">
        <ele>636.2</ele>
        <time>2020-09-17T11:35:20Z</time>
      </trkpt>
      <trkpt lat="45.42631" lon="3.40631">
        <ele>636.2</ele>
        <time>2020-09-17T11:35:21Z</time>
      </trkpt>
      <trkpt lat="45.42632" lon="3.40632">
        <ele>636.1</ele>
        <time>2020-09-17T11:35:22Z</time>
      </trkpt>
      <trkpt lat="45.42632" lon="3.40633">
        <ele>636</ele>
        <time>2020-09-17T11:35:23Z</time>
      </trkpt>
      <trkpt lat="45.42633" lon="3.40633">
        <ele>635.9</ele>
        <time>2020-09-17T11:35:24Z</time>
      </trkpt>
      <trkpt lat="45.42634" lon="3.40634">
        <ele>635.8</ele>
        <time>2020-09-17T11:35:25Z</time>
      </trkpt>
      <trkpt lat="45.42635" lon="3.40634">
        <ele>635.7</ele>
        <time>2020-09-17T11:35:26Z</time>
      </trkpt>
      <trkpt lat="45.42635" lon="3.40635">
        <ele>635.6</ele>
        <time>2020-09-17T11:35:27Z</time>
      </trkpt>
      <trkpt lat="45.42636" lon="3.40635">
        <ele>635.5</ele>
        <time>2020-09-17T11:35:28Z</time>
      </trkpt>
      <trkpt lat="45.42637" lon="3.40635">
        <ele>635.4</ele>
        <time>2020-09-17T11:35:29Z</time>
      </trkpt>
      <trkpt lat="45.42638" lon="3.40635">
        <ele>635.4</ele>
        <time>2020-09-17T11:35:30Z</time>
      </trkpt>
      <trkpt lat="45.42638" lon="3.40636">
        <ele>635.3</ele>
        <time>2020-09-17T11:35:31Z</time>
      </trkpt>
      <trkpt lat="45.42639" lon="3.40636">
        <ele>635.2</ele>
        <time>2020-09-17T11:35:32Z</time>
      </trkpt>
      <trkpt lat="45.4264" lon="3.40636">
        <ele>635</ele>
        <time>2020-09-17T11:35:33Z</time>
      </trkpt>
      <trkpt lat="45.42641" lon="3.40636">
        <ele>634.9</ele>
        <time>2020-09-17T11:35:34Z</time>
      </trkpt>
      <trkpt lat="45.42642" lon="3.40636">
        <ele>634.8</ele>
        <time>2020-09-17T11:35:35Z</time>
      </trkpt>
      <trkpt lat="45.42642" lon="3.40636">
        <ele>634.6</ele>
        <time>2020-09-17T11:35:36Z</time>
      </trkpt>
      <trkpt lat="45.42643" lon="3.40636">
        <ele>634.5</ele>
        <time>2020-09-17T11:35:37Z</time>
      </trkpt>
      <trkpt lat="45.42644" lon="3.40636">
        <ele>634.4</ele>
        <time>2020-09-17T11:35:38Z</time>
      </trkpt>
      <trkpt lat="45.42645" lon="3.40636">
        <ele>634.3</ele>
        <time>2020-09-17T11:35:39Z</time>
      </trkpt>
      <trkpt lat="45.42646" lon="3.40636">
        <ele>634.1</ele>
        <time>2020-09-17T11:35:40Z</time>
      </trkpt>
      <trkpt lat="45.42647" lon="3.40636">
        <ele>634</ele>
        <time>2020-09-17T11:35:41Z</time>
      </trkpt>
      <trkpt lat="45.42647" lon="3.40636">
        <ele>633.8</ele>
        <time>2020-09-17T11:35:42Z</time>
      </trkpt>
      <trkpt lat="45.42648" lon="3.40635">
        <ele>633.7</ele>
        <time>2020-09-17T11:35:43Z</time>
      </trkpt>
      <trkpt lat="45.42649" lon="3.40635">
        <ele>633.5</ele>
        <time>2020-09-17T11:35:44Z</time>
      </trkpt>
      <trkpt lat="45.4265" lon="3.40636">
        <ele>633.3</ele>
        <time>2020-09-17T11:35:45Z</time>
      </trkpt>
      <trkpt lat="45.42651" lon="3.40635">
        <ele>633.2</ele>
        <time>2020-09-17T11:35:46Z</time>
      </trkpt>
      <trkpt lat="45.42652" lon="3.40635">
        <ele>633</ele>
        <time>2020-09-17T11:35:47Z</time>
      </trkpt>
      <trkpt lat="45.42653" lon="3.40635">
        <ele>632.9</ele>
        <time>2020-09-17T11:35:48Z</time>
      </trkpt>
      <trkpt lat="45.42654" lon="3.40635">
        <ele>632.8</ele>
        <time>2020-09-17T11:35:49Z</time>
      </trkpt>
      <trkpt lat="45.42655" lon="3.40635">
        <ele>632.7</ele>
        <time>2020-09-17T11:35:50Z</time>
      </trkpt>
      <trkpt lat="45.42655" lon="3.40635">
        <ele>632.5</ele>
        <time>2020-09-17T11:35:51Z</time>
      </trkpt>
      <trkpt lat="45.42656" lon="3.40635">
        <ele>632.4</ele>
        <time>2020-09-17T11:35:52Z</time>
      </trkpt>
      <trkpt lat="45.42657" lon="3.40636">
        <ele>632.2</ele>
        <time>2020-09-17T11:35:53Z</time>
      </trkpt>
      <trkpt lat="45.42658" lon="3.40636">
        <ele>632</ele>
        <time>2020-09-17T11:35:54Z</time>
      </trkpt>
      <trkpt lat="45.42659" lon="3.40636">
        <ele>631.9</ele>
        <time>2020-09-17T11:35:55Z</time>
      </trkpt>
      <trkpt lat="45.4266" lon="3.40636">
        <ele>631.7</ele>
        <time>2020-09-17T11:35:56Z</time>
      </trkpt>
      <trkpt lat="45.42661" lon="3.40636">
        <ele>631.6</ele>
        <time>2020-09-17T11:35:57Z</time>
      </trkpt>
      <trkpt lat="45.42661" lon="3.40636">
        <ele>631.5</ele>
        <time>2020-09-17T11:35:58Z</time>
      </trkpt>
      <trkpt lat="45.42662" lon="3.40636">
        <ele>631.3</ele>
        <time>2020-09-17T11:35:59Z</time>
      </trkpt>
      <trkpt lat="45.42663" lon="3.40636">
        <ele>631.1</ele>
        <time>2020-09-17T11:36:00Z</time>
      </trkpt>
      <trkpt lat="45.42664" lon="3.40636">
        <ele>630.9</ele>
        <time>2020-09-17T11:36:01Z</time>
      </trkpt>
      <trkpt lat="45.42665" lon="3.40637">
        <ele>630.7</ele>
        <time>2020-09-17T11:36:02Z</time>
      </trkpt>
      <trkpt lat="45.42666" lon="3.40637">
        <ele>630.6</ele>
        <time>2020-09-17T11:36:03Z</time>
      </trkpt>
      <trkpt lat="45.42666" lon="3.40637">
        <ele>630.5</ele>
        <time>2020-09-17T11:36:04Z</time>
      </trkpt>
      <trkpt lat="45.42667" lon="3.40637">
        <ele>630.3</ele>
        <time>2020-09-17T11:36:05Z</time>
      </trkpt>
      <trkpt lat="45.42668" lon="3.40637">
        <ele>630.1</ele>
        <time>2020-09-17T11:36:06Z</time>
      </trkpt>
      <trkpt lat="45.42669" lon="3.40637">
        <ele>630</ele>
        <time>2020-09-17T11:36:07Z</time>
      </trkpt>
      <trkpt lat="45.4267" lon="3.40637">
        <ele>629.8</ele>
        <time>2020-09-17T11:36:08Z</time>
      </trkpt>
      <trkpt lat="45.42671" lon="3.40637">
        <ele>629.7</ele>
        <time>2020-09-17T11:36:09Z</time>
      </trkpt>
      <trkpt lat="45.42671" lon="3.40637">
        <ele>629.6</ele>
        <time>2020-09-17T11:36:10Z</time>
      </trkpt>
      <trkpt lat="45.42672" lon="3.40637">
        <ele>629.4</ele>
        <time>2020-09-17T11:36:11Z</time>
      </trkpt>
      <trkpt lat="45.42673" lon="3.40637">
        <ele>629.2</ele>
        <time>2020-09-17T11:36:12Z</time>
      </trkpt>
      <trkpt lat="45.42674" lon="3.40637">
        <ele>629.1</ele>
        <time>2020-09-17T11:36:13Z</time>
      </trkpt>
      <trkpt lat="45.42675" lon="3.40637">
        <ele>629</ele>
        <time>2020-09-17T11:36:14Z</time>
      </trkpt>
      <trkpt lat="45.42676" lon="3.40637">
        <ele>628.8</ele>
        <time>2020-09-17T11:36:15Z</time>
      </trkpt>
      <trkpt lat="45.42676" lon="3.40637">
        <ele>628.7</ele>
        <time>2020-09-17T11:36:16Z</time>
      </trkpt>
      <trkpt lat="45.42677" lon="3.40637">
        <ele>628.6</ele>
        <time>2020-09-17T11:36:17Z</time>
      </trkpt>
      <trkpt lat="45.42678" lon="3.40637">
        <ele>628.5</ele>
        <time>2020-09-17T11:36:18Z</time>
      </trkpt>
      <trkpt lat="45.42679" lon="3.40637">
        <ele>628.3</ele>
        <time>2020-09-17T11:36:19Z</time>
      </trkpt>
      <trkpt lat="45.4268" lon="3.40636">
        <ele>628.2</ele>
        <time>2020-09-17T11:36:20Z</time>
      </trkpt>
      <trkpt lat="45.4268" lon="3.40636">
        <ele>628.1</ele>
        <time>2020-09-17T11:36:21Z</time>
      </trkpt>
      <trkpt lat="45.42681" lon="3.40636">
        <ele>628</ele>
        <time>2020-09-17T11:36:22Z</time>
      </trkpt>
      <trkpt lat="45.42682" lon="3.40636">
        <ele>627.8</ele>
        <time>2020-09-17T11:36:23Z</time>
      </trkpt>
      <trkpt lat="45.42683" lon="3.40636">
        <ele>627.7</ele>
        <time>2020-09-17T11:36:24Z</time>
      </trkpt>
      <trkpt lat="45.42684" lon="3.40636">
        <ele>627.6</ele>
        <time>2020-09-17T11:36:25Z</time>
      </trkpt>
      <trkpt lat="45.42685" lon="3.40636">
        <ele>627.4</ele>
        <time>2020-09-17T11:36:26Z</time>
      </trkpt>
      <trkpt lat="45.42686" lon="3.40636">
        <ele>627.2</ele>
        <time>2020-09-17T11:36:27Z</time>
      </trkpt>
      <trkpt lat="45.42687" lon="3.40636">
        <ele>627</ele>
        <time>2020-09-17T11:36:28Z</time>
      </trkpt>
      <trkpt lat="45.42688" lon="3.40636">
        <ele>626.9</ele>
        <time>2020-09-17T11:36:29Z</time>
      </trkpt>
      <trkpt lat="45.42689" lon="3.40636">
        <ele>626.7</ele>
        <time>2020-09-17T11:36:30Z</time>
      </trkpt>
      <trkpt lat="45.4269" lon="3.40636">
        <ele>626.5</ele>
        <time>2020-09-17T11:36:31Z</time>
      </trkpt>
      <trkpt lat="45.42691" lon="3.40636">
        <ele>626.3</ele>
        <time>2020-09-17T11:36:32Z</time>
      </trkpt>
      <trkpt lat="45.42691" lon="3.40636">
        <ele>626.2</ele>
        <time>2020-09-17T11:36:33Z</time>
      </trkpt>
      <trkpt lat="45.42692" lon="3.40637">
        <ele>626</ele>
        <time>2020-09-17T11:36:34Z</time>
      </trkpt>
      <trkpt lat="45.42693" lon="3.40637">
        <ele>625.8</ele>
        <time>2020-09-17T11:36:35Z</time>
      </trkpt>
      <trkpt lat="45.42694" lon="3.40637">
        <ele>625.7</ele>
        <time>2020-09-17T11:36:36Z</time>
      </trkpt>
      <trkpt lat="45.42695" lon="3.40637">
        <ele>625.5</ele>
        <time>2020-09-17T11:36:37Z</time>
      </trkpt>
      <trkpt lat="45.42696" lon="3.40637">
        <ele>625.4</ele>
        <time>2020-09-17T11:36:38Z</time>
      </trkpt>
      <trkpt lat="45.42697" lon="3.40637">
        <ele>625.2</ele>
        <time>2020-09-17T11:36:39Z</time>
      </trkpt>
      <trkpt lat="45.42698" lon="3.40637">
        <ele>625.1</ele>
        <time>2020-09-17T11:36:40Z</time>
      </trkpt>
      <trkpt lat="45.42699" lon="3.40637">
        <ele>624.9</ele>
        <time>2020-09-17T11:36:41Z</time>
      </trkpt>
      <trkpt lat="45.42699" lon="3.40637">
        <ele>624.8</ele>
        <time>2020-09-17T11:36:42Z</time>
      </trkpt>
      <trkpt lat="45.427" lon="3.40637">
        <ele>624.7</ele>
        <time>2020-09-17T11:36:43Z</time>
      </trkpt>
      <trkpt lat="45.42701" lon="3.40637">
        <ele>624.5</ele>
        <time>2020-09-17T11:36:44Z</time>
      </trkpt>
      <trkpt lat="45.42702" lon="3.40637">
        <ele>624.3</ele>
        <time>2020-09-17T11:36:45Z</time>
      </trkpt>
      <trkpt lat="45.42703" lon="3.40637">
        <ele>624.2</ele>
        <time>2020-09-17T11:36:46Z</time>
      </trkpt>
      <trkpt lat="45.42704" lon="3.40638">
        <ele>624</ele>
        <time>2020-09-17T11:36:47Z</time>
      </trkpt>
      <trkpt lat="45.42704" lon="3.40637">
        <ele>623.9</ele>
        <time>2020-09-17T11:36:48Z</time>
      </trkpt>
      <trkpt lat="45.42705" lon="3.40637">
        <ele>623.8</ele>
        <time>2020-09-17T11:36:49Z</time>
      </trkpt>
      <trkpt lat="45.42706" lon="3.40638">
        <ele>623.7</ele>
        <time>2020-09-17T11:36:50Z</time>
      </trkpt>
      <trkpt lat="45.42707" lon="3.40638">
        <ele>623.6</ele>
        <time>2020-09-17T11:36:51Z</time>
      </trkpt>
      <trkpt lat="45.42707" lon="3.40638">
        <ele>623.4</ele>
        <time>2020-09-17T11:36:52Z</time>
      </trkpt>
      <trkpt lat="45.42708" lon="3.40638">
        <ele>623.2</ele>
        <time>2020-09-17T11:36:53Z</time>
      </trkpt>
      <trkpt lat="45.42709" lon="3.40638">
        <ele>623.1</ele>
        <time>2020-09-17T11:36:54Z</time>
      </trkpt>
      <trkpt lat="45.4271" lon="3.40638">
        <ele>623</ele>
        <time>2020-09-17T11:36:55Z</time>
      </trkpt>
      <trkpt lat="45.4271" lon="3.40638">
        <ele>622.8</ele>
        <time>2020-09-17T11:36:56Z</time>
      </trkpt>
      <trkpt lat="45.42711" lon="3.40638">
        <ele>622.7</ele>
        <time>2020-09-17T11:36:57Z</time>
      </trkpt>
      <trkpt lat="45.42712" lon="3.40638">
        <ele>622.7</ele>
        <time>2020-09-17T11:36:58Z</time>
      </trkpt>
      <trkpt lat="45.42713" lon="3.40638">
        <ele>622.5</ele>
        <time>2020-09-17T11:36:59Z</time>
      </trkpt>
      <trkpt lat="45.42714" lon="3.40638">
        <ele>622.4</ele>
        <time>2020-09-17T11:37:00Z</time>
      </trkpt>
      <trkpt lat="45.42714" lon="3.40638">
        <ele>622.3</ele>
        <time>2020-09-17T11:37:01Z</time>
      </trkpt>
      <trkpt lat="45.42716" lon="3.40638">
        <ele>622.1</ele>
        <time>2020-09-17T11:37:02Z</time>
      </trkpt>
      <trkpt lat="45.42716" lon="3.40638">
        <ele>622</ele>
        <time>2020-09-17T11:37:03Z</time>
      </trkpt>
      <trkpt lat="45.42717" lon="3.40638">
        <ele>621.9</ele>
        <time>2020-09-17T11:37:04Z</time>
      </trkpt>
      <trkpt lat="45.42718" lon="3.40638">
        <ele>621.8</ele>
        <time>2020-09-17T11:37:05Z</time>
      </trkpt>
      <trkpt lat="45.42719" lon="3.40638">
        <ele>621.6</ele>
        <time>2020-09-17T11:37:06Z</time>
      </trkpt>
      <trkpt lat="45.4272" lon="3.40638">
        <ele>621.5</ele>
        <time>2020-09-17T11:37:07Z</time>
      </trkpt>
      <trkpt lat="45.42721" lon="3.40638">
        <ele>621.3</ele>
        <time>2020-09-17T11:37:08Z</time>
      </trkpt>
      <trkpt lat="45.42722" lon="3.40638">
        <ele>621.2</ele>
        <time>2020-09-17T11:37:09Z</time>
      </trkpt>
      <trkpt lat="45.42723" lon="3.40638">
        <ele>621</ele>
        <time>2020-09-17T11:37:10Z</time>
      </trkpt>
      <trkpt lat="45.42724" lon="3.40638">
        <ele>620.9</ele>
        <time>2020-09-17T11:37:11Z</time>
      </trkpt>
      <trkpt lat="45.42725" lon="3.40638">
        <ele>620.8</ele>
        <time>2020-09-17T11:37:12Z</time>
      </trkpt>
      <trkpt lat="45.42726" lon="3.40638">
        <ele>620.6</ele>
        <time>2020-09-17T11:37:13Z</time>
      </trkpt>
      <trkpt lat="45.42727" lon="3.40638">
        <ele>620.4</ele>
        <time>2020-09-17T11:37:14Z</time>
      </trkpt>
      <trkpt lat="45.42728" lon="3.40638">
        <ele>620.2</ele>
        <time>2020-09-17T11:37:15Z</time>
      </trkpt>
      <trkpt lat="45.42729" lon="3.40638">
        <ele>620</ele>
        <time>2020-09-17T11:37:16Z</time>
      </trkpt>
      <trkpt lat="45.42729" lon="3.40638">
        <ele>619.9</ele>
        <time>2020-09-17T11:37:17Z</time>
      </trkpt>
      <trkpt lat="45.4273" lon="3.40638">
        <ele>619.8</ele>
        <time>2020-09-17T11:37:18Z</time>
      </trkpt>
      <trkpt lat="45.42731" lon="3.40638">
        <ele>619.7</ele>
        <time>2020-09-17T11:37:19Z</time>
      </trkpt>
      <trkpt lat="45.42732" lon="3.40638">
        <ele>619.5</ele>
        <time>2020-09-17T11:37:20Z</time>
      </trkpt>
      <trkpt lat="45.42733" lon="3.40638">
        <ele>619.3</ele>
        <time>2020-09-17T11:37:21Z</time>
      </trkpt>
      <trkpt lat="45.42734" lon="3.40638">
        <ele>619.1</ele>
        <time>2020-09-17T11:37:22Z</time>
      </trkpt>
      <trkpt lat="45.42735" lon="3.40638">
        <ele>618.9</ele>
        <time>2020-09-17T11:37:23Z</time>
      </trkpt>
      <trkpt lat="45.42736" lon="3.40638">
        <ele>618.7</ele>
        <time>2020-09-17T11:37:24Z</time>
      </trkpt>
      <trkpt lat="45.42736" lon="3.40639">
        <ele>618.5</ele>
        <time>2020-09-17T11:37:25Z</time>
      </trkpt>
      <trkpt lat="45.42737" lon="3.40639">
        <ele>618.4</ele>
        <time>2020-09-17T11:37:26Z</time>
      </trkpt>
      <trkpt lat="45.42738" lon="3.40639">
        <ele>618.2</ele>
        <time>2020-09-17T11:37:27Z</time>
      </trkpt>
      <trkpt lat="45.42739" lon="3.40639">
        <ele>618.1</ele>
        <time>2020-09-17T11:37:28Z</time>
      </trkpt>
      <trkpt lat="45.4274" lon="3.40639">
        <ele>617.9</ele>
        <time>2020-09-17T11:37:29Z</time>
      </trkpt>
      <trkpt lat="45.42741" lon="3.40639">
        <ele>617.8</ele>
        <time>2020-09-17T11:37:30Z</time>
      </trkpt>
      <trkpt lat="45.42741" lon="3.40638">
        <ele>617.7</ele>
        <time>2020-09-17T11:37:31Z</time>
      </trkpt>
      <trkpt lat="45.42742" lon="3.40638">
        <ele>617.5</ele>
        <time>2020-09-17T11:37:32Z</time>
      </trkpt>
      <trkpt lat="45.42743" lon="3.40639">
        <ele>617.3</ele>
        <time>2020-09-17T11:37:33Z</time>
      </trkpt>
      <trkpt lat="45.42744" lon="3.40639">
        <ele>617.2</ele>
        <time>2020-09-17T11:37:34Z</time>
      </trkpt>
      <trkpt lat="45.42745" lon="3.40639">
        <ele>617</ele>
        <time>2020-09-17T11:37:35Z</time>
      </trkpt>
      <trkpt lat="45.42746" lon="3.40639">
        <ele>616.9</ele>
        <time>2020-09-17T11:37:36Z</time>
      </trkpt>
      <trkpt lat="45.42746" lon="3.40639">
        <ele>616.7</ele>
        <time>2020-09-17T11:37:37Z</time>
      </trkpt>
      <trkpt lat="45.42747" lon="3.40639">
        <ele>616.6</ele>
        <time>2020-09-17T11:37:38Z</time>
      </trkpt>
      <trkpt lat="45.42748" lon="3.40639">
        <ele>616.5</ele>
        <time>2020-09-17T11:37:39Z</time>
      </trkpt>
      <trkpt lat="45.42748" lon="3.40639">
        <ele>616.4</ele>
        <time>2020-09-17T11:37:40Z</time>
      </trkpt>
      <trkpt lat="45.42749" lon="3.40638">
        <ele>616.3</ele>
        <time>2020-09-17T11:37:41Z</time>
      </trkpt>
      <trkpt lat="45.4275" lon="3.40638">
        <ele>616.2</ele>
        <time>2020-09-17T11:37:42Z</time>
      </trkpt>
      <trkpt lat="45.4275" lon="3.40638">
        <ele>616.1</ele>
        <time>2020-09-17T11:37:43Z</time>
      </trkpt>
      <trkpt lat="45.42751" lon="3.40638">
        <ele>616</ele>
        <time>2020-09-17T11:37:44Z</time>
      </trkpt>
      <trkpt lat="45.42752" lon="3.40639">
        <ele>615.8</ele>
        <time>2020-09-17T11:37:45Z</time>
      </trkpt>
      <trkpt lat="45.42752" lon="3.40639">
        <ele>615.6</ele>
        <time>2020-09-17T11:37:46Z</time>
      </trkpt>
      <trkpt lat="45.42753" lon="3.4064">
        <ele>615.4</ele>
        <time>2020-09-17T11:37:47Z</time>
      </trkpt>
      <trkpt lat="45.42754" lon="3.4064">
        <ele>615.1</ele>
        <time>2020-09-17T11:37:48Z</time>
      </trkpt>
      <trkpt lat="45.42754" lon="3.40642">
        <ele>614.8</ele>
        <time>2020-09-17T11:37:49Z</time>
      </trkpt>
      <trkpt lat="45.42755" lon="3.40642">
        <ele>614.7</ele>
        <time>2020-09-17T11:37:50Z</time>
      </trkpt>
      <trkpt lat="45.42755" lon="3.40642">
        <ele>614.6</ele>
        <time>2020-09-17T11:37:51Z</time>
      </trkpt>
      <trkpt lat="45.42756" lon="3.40643">
        <ele>614.3</ele>
        <time>2020-09-17T11:37:52Z</time>
      </trkpt>
      <trkpt lat="45.42757" lon="3.40643">
        <ele>614.2</ele>
        <time>2020-09-17T11:37:53Z</time>
      </trkpt>
      <trkpt lat="45.42757" lon="3.40644">
        <ele>614</ele>
        <time>2020-09-17T11:37:54Z</time>
      </trkpt>
      <trkpt lat="45.42758" lon="3.40644">
        <ele>613.8</ele>
        <time>2020-09-17T11:37:55Z</time>
      </trkpt>
      <trkpt lat="45.42758" lon="3.40645">
        <ele>613.6</ele>
        <time>2020-09-17T11:37:56Z</time>
      </trkpt>
      <trkpt lat="45.42758" lon="3.40645">
        <ele>613.6</ele>
        <time>2020-09-17T11:37:57Z</time>
      </trkpt>
      <trkpt lat="45.42758" lon="3.40645">
        <ele>613.6</ele>
        <time>2020-09-17T11:37:58Z</time>
      </trkpt>
      <trkpt lat="45.42758" lon="3.40645">
        <ele>613.6</ele>
        <time>2020-09-17T11:37:59Z</time>
      </trkpt>
      <trkpt lat="45.42758" lon="3.40645">
        <ele>613.6</ele>
        <time>2020-09-17T11:38:00Z</time>
      </trkpt>
      <trkpt lat="45.42758" lon="3.40645">
        <ele>613.6</ele>
        <time>2020-09-17T11:38:01Z</time>
      </trkpt>
      <trkpt lat="45.42758" lon="3.40645">
        <ele>613.6</ele>
        <time>2020-09-17T11:38:02Z</time>
      </trkpt>
      <trkpt lat="45.42758" lon="3.40645">
        <ele>613.6</ele>
        <time>2020-09-17T11:38:03Z</time>
      </trkpt>
      <trkpt lat="45.42758" lon="3.40645">
        <ele>613.6</ele>
        <time>2020-09-17T11:38:04Z</time>
      </trkpt>
      <trkpt lat="45.42758" lon="3.40645">
        <ele>613.6</ele>
        <time>2020-09-17T11:38:05Z</time>
      </trkpt>
      <trkpt lat="45.42758" lon="3.40645">
        <ele>613.5</ele>
        <time>2020-09-17T11:38:06Z</time>
      </trkpt>
      <trkpt lat="45.42759" lon="3.40645">
        <ele>613.5</ele>
        <time>2020-09-17T11:38:07Z</time>
      </trkpt>
      <trkpt lat="45.42759" lon="3.40645">
        <ele>613.4</ele>
        <time>2020-09-17T11:38:08Z</time>
      </trkpt>
      <trkpt lat="45.42759" lon="3.40646">
        <ele>613.3</ele>
        <time>2020-09-17T11:38:09Z</time>
      </trkpt>
      <trkpt lat="45.42759" lon="3.40646">
        <ele>613.2</ele>
        <time>2020-09-17T11:38:10Z</time>
      </trkpt>
      <trkpt lat="45.4276" lon="3.40646">
        <ele>613.2</ele>
        <time>2020-09-17T11:38:11Z</time>
      </trkpt>
      <trkpt lat="45.4276" lon="3.40646">
        <ele>613.1</ele>
        <time>2020-09-17T11:38:12Z</time>
      </trkpt>
      <trkpt lat="45.42761" lon="3.40646">
        <ele>613</ele>
        <time>2020-09-17T11:38:13Z</time>
      </trkpt>
      <trkpt lat="45.42761" lon="3.40646">
        <ele>612.9</ele>
        <time>2020-09-17T11:38:14Z</time>
      </trkpt>
      <trkpt lat="45.42761" lon="3.40646">
        <ele>612.8</ele>
        <time>2020-09-17T11:38:15Z</time>
      </trkpt>
      <trkpt lat="45.42761" lon="3.40646">
        <ele>612.8</ele>
        <time>2020-09-17T11:38:16Z</time>
      </trkpt>
      <trkpt lat="45.42762" lon="3.40646">
        <ele>612.8</ele>
        <time>2020-09-17T11:38:17Z</time>
      </trkpt>
      <trkpt lat="45.42762" lon="3.40646">
        <ele>612.7</ele>
        <time>2020-09-17T11:38:18Z</time>
      </trkpt>
      <trkpt lat="45.42762" lon="3.40646">
        <ele>612.7</ele>
        <time>2020-09-17T11:38:19Z</time>
      </trkpt>
      <trkpt lat="45.42763" lon="3.40646">
        <ele>612.6</ele>
        <time>2020-09-17T11:38:20Z</time>
      </trkpt>
      <trkpt lat="45.42764" lon="3.40646">
        <ele>612.4</ele>
        <time>2020-09-17T11:38:21Z</time>
      </trkpt>
      <trkpt lat="45.42764" lon="3.40646">
        <ele>612.3</ele>
        <time>2020-09-17T11:38:22Z</time>
      </trkpt>
      <trkpt lat="45.42765" lon="3.40646">
        <ele>612.2</ele>
        <time>2020-09-17T11:38:23Z</time>
      </trkpt>
      <trkpt lat="45.42766" lon="3.40646">
        <ele>612</ele>
        <time>2020-09-17T11:38:24Z</time>
      </trkpt>
      <trkpt lat="45.42766" lon="3.40646">
        <ele>611.9</ele>
        <time>2020-09-17T11:38:25Z</time>
      </trkpt>
      <trkpt lat="45.42767" lon="3.40646">
        <ele>611.9</ele>
        <time>2020-09-17T11:38:26Z</time>
      </trkpt>
      <trkpt lat="45.42767" lon="3.40646">
        <ele>611.7</ele>
        <time>2020-09-17T11:38:27Z</time>
      </trkpt>
      <trkpt lat="45.42768" lon="3.40646">
        <ele>611.6</ele>
        <time>2020-09-17T11:38:28Z</time>
      </trkpt>
      <trkpt lat="45.42768" lon="3.40646">
        <ele>611.5</ele>
        <time>2020-09-17T11:38:29Z</time>
      </trkpt>
      <trkpt lat="45.42769" lon="3.40646">
        <ele>611.4</ele>
        <time>2020-09-17T11:38:30Z</time>
      </trkpt>
      <trkpt lat="45.42769" lon="3.40647">
        <ele>611.3</ele>
        <time>2020-09-17T11:38:31Z</time>
      </trkpt>
      <trkpt lat="45.42769" lon="3.40647">
        <ele>611.2</ele>
        <time>2020-09-17T11:38:32Z</time>
      </trkpt>
      <trkpt lat="45.4277" lon="3.40647">
        <ele>611.1</ele>
        <time>2020-09-17T11:38:33Z</time>
      </trkpt>
      <trkpt lat="45.4277" lon="3.40647">
        <ele>611</ele>
        <time>2020-09-17T11:38:34Z</time>
      </trkpt>
      <trkpt lat="45.4277" lon="3.40647">
        <ele>611</ele>
        <time>2020-09-17T11:38:35Z</time>
      </trkpt>
      <trkpt lat="45.42771" lon="3.40647">
        <ele>610.8</ele>
        <time>2020-09-17T11:38:36Z</time>
      </trkpt>
      <trkpt lat="45.42771" lon="3.40648">
        <ele>610.7</ele>
        <time>2020-09-17T11:38:37Z</time>
      </trkpt>
      <trkpt lat="45.42772" lon="3.40648">
        <ele>610.5</ele>
        <time>2020-09-17T11:38:38Z</time>
      </trkpt>
      <trkpt lat="45.42773" lon="3.40648">
        <ele>610.4</ele>
        <time>2020-09-17T11:38:39Z</time>
      </trkpt>
      <trkpt lat="45.42773" lon="3.40648">
        <ele>610.2</ele>
        <time>2020-09-17T11:38:40Z</time>
      </trkpt>
      <trkpt lat="45.42774" lon="3.40649">
        <ele>610</ele>
        <time>2020-09-17T11:38:41Z</time>
      </trkpt>
      <trkpt lat="45.42775" lon="3.40649">
        <ele>609.8</ele>
        <time>2020-09-17T11:38:42Z</time>
      </trkpt>
      <trkpt lat="45.42775" lon="3.4065">
        <ele>609.5</ele>
        <time>2020-09-17T11:38:43Z</time>
      </trkpt>
      <trkpt lat="45.42776" lon="3.40651">
        <ele>609.3</ele>
        <time>2020-09-17T11:38:44Z</time>
      </trkpt>
      <trkpt lat="45.42776" lon="3.40652">
        <ele>609</ele>
        <time>2020-09-17T11:38:45Z</time>
      </trkpt>
      <trkpt lat="45.42776" lon="3.40653">
        <ele>608.8</ele>
        <time>2020-09-17T11:38:46Z</time>
      </trkpt>
      <trkpt lat="45.42777" lon="3.40654">
        <ele>608.6</ele>
        <time>2020-09-17T11:38:47Z</time>
      </trkpt>
      <trkpt lat="45.42777" lon="3.40655">
        <ele>608.4</ele>
        <time>2020-09-17T11:38:48Z</time>
      </trkpt>
      <trkpt lat="45.42777" lon="3.40656">
        <ele>608.1</ele>
        <time>2020-09-17T11:38:49Z</time>
      </trkpt>
      <trkpt lat="45.42777" lon="3.40657">
        <ele>607.9</ele>
        <time>2020-09-17T11:38:50Z</time>
      </trkpt>
      <trkpt lat="45.42777" lon="3.40658">
        <ele>607.6</ele>
        <time>2020-09-17T11:38:51Z</time>
      </trkpt>
      <trkpt lat="45.42778" lon="3.40659">
        <ele>607.4</ele>
        <time>2020-09-17T11:38:52Z</time>
      </trkpt>
      <trkpt lat="45.42778" lon="3.4066">
        <ele>607.2</ele>
        <time>2020-09-17T11:38:53Z</time>
      </trkpt>
      <trkpt lat="45.42778" lon="3.40661">
        <ele>607</ele>
        <time>2020-09-17T11:38:54Z</time>
      </trkpt>
      <trkpt lat="45.42778" lon="3.40663">
        <ele>606.7</ele>
        <time>2020-09-17T11:38:55Z</time>
      </trkpt>
      <trkpt lat="45.42778" lon="3.40664">
        <ele>606.5</ele>
        <time>2020-09-17T11:38:56Z</time>
      </trkpt>
      <trkpt lat="45.42778" lon="3.40665">
        <ele>606.3</ele>
        <time>2020-09-17T11:38:57Z</time>
      </trkpt>
      <trkpt lat="45.42778" lon="3.40667">
        <ele>606</ele>
        <time>2020-09-17T11:38:58Z</time>
      </trkpt>
      <trkpt lat="45.42778" lon="3.40668">
        <ele>605.9</ele>
        <time>2020-09-17T11:38:59Z</time>
      </trkpt>
      <trkpt lat="45.42778" lon="3.40669">
        <ele>605.9</ele>
        <time>2020-09-17T11:39:00Z</time>
      </trkpt>
      <trkpt lat="45.42778" lon="3.40671">
        <ele>605.8</ele>
        <time>2020-09-17T11:39:01Z</time>
      </trkpt>
      <trkpt lat="45.42778" lon="3.40672">
        <ele>605.7</ele>
        <time>2020-09-17T11:39:02Z</time>
      </trkpt>
      <trkpt lat="45.42778" lon="3.40674">
        <ele>605.6</ele>
        <time>2020-09-17T11:39:03Z</time>
      </trkpt>
      <trkpt lat="45.42779" lon="3.40675">
        <ele>605.5</ele>
        <time>2020-09-17T11:39:04Z</time>
      </trkpt>
      <trkpt lat="45.42779" lon="3.40676">
        <ele>605.5</ele>
        <time>2020-09-17T11:39:05Z</time>
      </trkpt>
      <trkpt lat="45.42779" lon="3.40678">
        <ele>605.4</ele>
        <time>2020-09-17T11:39:06Z</time>
      </trkpt>
      <trkpt lat="45.42779" lon="3.40679">
        <ele>605.3</ele>
        <time>2020-09-17T11:39:07Z</time>
      </trkpt>
      <trkpt lat="45.4278" lon="3.40681">
        <ele>605.2</ele>
        <time>2020-09-17T11:39:08Z</time>
      </trkpt>
      <trkpt lat="45.4278" lon="3.40682">
        <ele>605.1</ele>
        <time>2020-09-17T11:39:09Z</time>
      </trkpt>
      <trkpt lat="45.42781" lon="3.40683">
        <ele>604.9</ele>
        <time>2020-09-17T11:39:10Z</time>
      </trkpt>
      <trkpt lat="45.42781" lon="3.40685">
        <ele>604.8</ele>
        <time>2020-09-17T11:39:11Z</time>
      </trkpt>
      <trkpt lat="45.42782" lon="3.40686">
        <ele>604.7</ele>
        <time>2020-09-17T11:39:12Z</time>
      </trkpt>
      <trkpt lat="45.42782" lon="3.40687">
        <ele>604.6</ele>
        <time>2020-09-17T11:39:13Z</time>
      </trkpt>
      <trkpt lat="45.42782" lon="3.40689">
        <ele>604.5</ele>
        <time>2020-09-17T11:39:14Z</time>
      </trkpt>
      <trkpt lat="45.42783" lon="3.4069">
        <ele>604.4</ele>
        <time>2020-09-17T11:39:15Z</time>
      </trkpt>
      <trkpt lat="45.42783" lon="3.40692">
        <ele>604.3</ele>
        <time>2020-09-17T11:39:16Z</time>
      </trkpt>
      <trkpt lat="45.42783" lon="3.40693">
        <ele>604.2</ele>
        <time>2020-09-17T11:39:17Z</time>
      </trkpt>
      <trkpt lat="45.42784" lon="3.40694">
        <ele>604.2</ele>
        <time>2020-09-17T11:39:18Z</time>
      </trkpt>
      <trkpt lat="45.42784" lon="3.40696">
        <ele>604.2</ele>
        <time>2020-09-17T11:39:19Z</time>
      </trkpt>
      <trkpt lat="45.42784" lon="3.40697">
        <ele>604.2</ele>
        <time>2020-09-17T11:39:20Z</time>
      </trkpt>
      <trkpt lat="45.42784" lon="3.40698">
        <ele>604.3</ele>
        <time>2020-09-17T11:39:21Z</time>
      </trkpt>
      <trkpt lat="45.42785" lon="3.40699">
        <ele>604.3</ele>
        <time>2020-09-17T11:39:22Z</time>
      </trkpt>
      <trkpt lat="45.42785" lon="3.407">
        <ele>604.3</ele>
        <time>2020-09-17T11:39:23Z</time>
      </trkpt>
      <trkpt lat="45.42786" lon="3.40702">
        <ele>604.3</ele>
        <time>2020-09-17T11:39:24Z</time>
      </trkpt>
      <trkpt lat="45.42786" lon="3.40703">
        <ele>604.3</ele>
        <time>2020-09-17T11:39:25Z</time>
      </trkpt>
      <trkpt lat="45.42787" lon="3.40704">
        <ele>604.4</ele>
        <time>2020-09-17T11:39:26Z</time>
      </trkpt>
      <trkpt lat="45.42787" lon="3.40705">
        <ele>604.4</ele>
        <time>2020-09-17T11:39:27Z</time>
      </trkpt>
      <trkpt lat="45.42788" lon="3.40706">
        <ele>604.4</ele>
        <time>2020-09-17T11:39:28Z</time>
      </trkpt>
      <trkpt lat="45.42788" lon="3.40707">
        <ele>604.4</ele>
        <time>2020-09-17T11:39:29Z</time>
      </trkpt>
      <trkpt lat="45.42789" lon="3.40708">
        <ele>604.4</ele>
        <time>2020-09-17T11:39:30Z</time>
      </trkpt>
      <trkpt lat="45.4279" lon="3.40708">
        <ele>604.4</ele>
        <time>2020-09-17T11:39:31Z</time>
      </trkpt>
      <trkpt lat="45.42791" lon="3.40709">
        <ele>604.4</ele>
        <time>2020-09-17T11:39:32Z</time>
      </trkpt>
      <trkpt lat="45.42791" lon="3.40709">
        <ele>604.4</ele>
        <time>2020-09-17T11:39:33Z</time>
      </trkpt>
      <trkpt lat="45.42792" lon="3.4071">
        <ele>604.3</ele>
        <time>2020-09-17T11:39:34Z</time>
      </trkpt>
      <trkpt lat="45.42793" lon="3.4071">
        <ele>604.3</ele>
        <time>2020-09-17T11:39:35Z</time>
      </trkpt>
      <trkpt lat="45.42794" lon="3.4071">
        <ele>604.2</ele>
        <time>2020-09-17T11:39:36Z</time>
      </trkpt>
      <trkpt lat="45.42795" lon="3.40709">
        <ele>604.1</ele>
        <time>2020-09-17T11:39:37Z</time>
      </trkpt>
      <trkpt lat="45.42796" lon="3.40709">
        <ele>604</ele>
        <time>2020-09-17T11:39:38Z</time>
      </trkpt>
      <trkpt lat="45.42797" lon="3.40709">
        <ele>603.8</ele>
        <time>2020-09-17T11:39:39Z</time>
      </trkpt>
      <trkpt lat="45.42798" lon="3.40708">
        <ele>603.7</ele>
        <time>2020-09-17T11:39:40Z</time>
      </trkpt>
      <trkpt lat="45.42799" lon="3.40708">
        <ele>603.6</ele>
        <time>2020-09-17T11:39:41Z</time>
      </trkpt>
      <trkpt lat="45.428" lon="3.40707">
        <ele>603.4</ele>
        <time>2020-09-17T11:39:42Z</time>
      </trkpt>
      <trkpt lat="45.42801" lon="3.40707">
        <ele>603.2</ele>
        <time>2020-09-17T11:39:43Z</time>
      </trkpt>
      <trkpt lat="45.42802" lon="3.40706">
        <ele>603</ele>
        <time>2020-09-17T11:39:44Z</time>
      </trkpt>
      <trkpt lat="45.42803" lon="3.40705">
        <ele>602.8</ele>
        <time>2020-09-17T11:39:45Z</time>
      </trkpt>
      <trkpt lat="45.42804" lon="3.40705">
        <ele>602.7</ele>
        <time>2020-09-17T11:39:46Z</time>
      </trkpt>
      <trkpt lat="45.42805" lon="3.40705">
        <ele>602.5</ele>
        <time>2020-09-17T11:39:47Z</time>
      </trkpt>
      <trkpt lat="45.42806" lon="3.40704">
        <ele>602.4</ele>
        <time>2020-09-17T11:39:48Z</time>
      </trkpt>
      <trkpt lat="45.42807" lon="3.40704">
        <ele>602.4</ele>
        <time>2020-09-17T11:39:49Z</time>
      </trkpt>
      <trkpt lat="45.42809" lon="3.40704">
        <ele>602.4</ele>
        <time>2020-09-17T11:39:50Z</time>
      </trkpt>
      <trkpt lat="45.4281" lon="3.40703">
        <ele>602.4</ele>
        <time>2020-09-17T11:39:51Z</time>
      </trkpt>
      <trkpt lat="45.42811" lon="3.40702">
        <ele>602.4</ele>
        <time>2020-09-17T11:39:52Z</time>
      </trkpt>
      <trkpt lat="45.42812" lon="3.40702">
        <ele>602.3</ele>
        <time>2020-09-17T11:39:53Z</time>
      </trkpt>
      <trkpt lat="45.42813" lon="3.40701">
        <ele>602.3</ele>
        <time>2020-09-17T11:39:54Z</time>
      </trkpt>
      <trkpt lat="45.42814" lon="3.407">
        <ele>602.2</ele>
        <time>2020-09-17T11:39:55Z</time>
      </trkpt>
      <trkpt lat="45.42815" lon="3.407">
        <ele>602.2</ele>
        <time>2020-09-17T11:39:56Z</time>
      </trkpt>
      <trkpt lat="45.42816" lon="3.40699">
        <ele>602.1</ele>
        <time>2020-09-17T11:39:57Z</time>
      </trkpt>
      <trkpt lat="45.42818" lon="3.40698">
        <ele>602.1</ele>
        <time>2020-09-17T11:39:58Z</time>
      </trkpt>
      <trkpt lat="45.42819" lon="3.40698">
        <ele>602</ele>
        <time>2020-09-17T11:39:59Z</time>
      </trkpt>
      <trkpt lat="45.4282" lon="3.40698">
        <ele>602</ele>
        <time>2020-09-17T11:40:00Z</time>
      </trkpt>
      <trkpt lat="45.42821" lon="3.40697">
        <ele>602</ele>
        <time>2020-09-17T11:40:01Z</time>
      </trkpt>
      <trkpt lat="45.42822" lon="3.40697">
        <ele>602</ele>
        <time>2020-09-17T11:40:02Z</time>
      </trkpt>
      <trkpt lat="45.42823" lon="3.40696">
        <ele>601.9</ele>
        <time>2020-09-17T11:40:03Z</time>
      </trkpt>
      <trkpt lat="45.42825" lon="3.40696">
        <ele>601.9</ele>
        <time>2020-09-17T11:40:04Z</time>
      </trkpt>
      <trkpt lat="45.42826" lon="3.40695">
        <ele>601.8</ele>
        <time>2020-09-17T11:40:05Z</time>
      </trkpt>
      <trkpt lat="45.42827" lon="3.40695">
        <ele>601.8</ele>
        <time>2020-09-17T11:40:06Z</time>
      </trkpt>
      <trkpt lat="45.42828" lon="3.40695">
        <ele>601.8</ele>
        <time>2020-09-17T11:40:07Z</time>
      </trkpt>
      <trkpt lat="45.42829" lon="3.40694">
        <ele>601.8</ele>
        <time>2020-09-17T11:40:08Z</time>
      </trkpt>
      <trkpt lat="45.4283" lon="3.40694">
        <ele>601.7</ele>
        <time>2020-09-17T11:40:09Z</time>
      </trkpt>
      <trkpt lat="45.42831" lon="3.40694">
        <ele>601.7</ele>
        <time>2020-09-17T11:40:10Z</time>
      </trkpt>
      <trkpt lat="45.42832" lon="3.40693">
        <ele>601.6</ele>
        <time>2020-09-17T11:40:11Z</time>
      </trkpt>
      <trkpt lat="45.42833" lon="3.40692">
        <ele>601.5</ele>
        <time>2020-09-17T11:40:12Z</time>
      </trkpt>
      <trkpt lat="45.42834" lon="3.40692">
        <ele>601.4</ele>
        <time>2020-09-17T11:40:13Z</time>
      </trkpt>
      <trkpt lat="45.42835" lon="3.40691">
        <ele>601.3</ele>
        <time>2020-09-17T11:40:14Z</time>
      </trkpt>
      <trkpt lat="45.42836" lon="3.4069">
        <ele>601.1</ele>
        <time>2020-09-17T11:40:15Z</time>
      </trkpt>
      <trkpt lat="45.42837" lon="3.40689">
        <ele>601</ele>
        <time>2020-09-17T11:40:16Z</time>
      </trkpt>
      <trkpt lat="45.42838" lon="3.40689">
        <ele>601</ele>
        <time>2020-09-17T11:40:17Z</time>
      </trkpt>
      <trkpt lat="45.42839" lon="3.40688">
        <ele>601</ele>
        <time>2020-09-17T11:40:18Z</time>
      </trkpt>
      <trkpt lat="45.4284" lon="3.40688">
        <ele>600.9</ele>
        <time>2020-09-17T11:40:19Z</time>
      </trkpt>
      <trkpt lat="45.42841" lon="3.40687">
        <ele>600.9</ele>
        <time>2020-09-17T11:40:20Z</time>
      </trkpt>
      <trkpt lat="45.42842" lon="3.40687">
        <ele>600.9</ele>
        <time>2020-09-17T11:40:21Z</time>
      </trkpt>
      <trkpt lat="45.42843" lon="3.40686">
        <ele>600.9</ele>
        <time>2020-09-17T11:40:22Z</time>
      </trkpt>
      <trkpt lat="45.42845" lon="3.40686">
        <ele>600.8</ele>
        <time>2020-09-17T11:40:23Z</time>
      </trkpt>
      <trkpt lat="45.42846" lon="3.40686">
        <ele>600.8</ele>
        <time>2020-09-17T11:40:24Z</time>
      </trkpt>
      <trkpt lat="45.42847" lon="3.40685">
        <ele>600.8</ele>
        <time>2020-09-17T11:40:25Z</time>
      </trkpt>
      <trkpt lat="45.42848" lon="3.40684">
        <ele>600.7</ele>
        <time>2020-09-17T11:40:26Z</time>
      </trkpt>
      <trkpt lat="45.42849" lon="3.40684">
        <ele>600.6</ele>
        <time>2020-09-17T11:40:27Z</time>
      </trkpt>
      <trkpt lat="45.4285" lon="3.40683">
        <ele>600.5</ele>
        <time>2020-09-17T11:40:28Z</time>
      </trkpt>
      <trkpt lat="45.42852" lon="3.40682">
        <ele>600.3</ele>
        <time>2020-09-17T11:40:29Z</time>
      </trkpt>
      <trkpt lat="45.42852" lon="3.40681">
        <ele>600.2</ele>
        <time>2020-09-17T11:40:30Z</time>
      </trkpt>
      <trkpt lat="45.42854" lon="3.4068">
        <ele>600</ele>
        <time>2020-09-17T11:40:31Z</time>
      </trkpt>
      <trkpt lat="45.42855" lon="3.4068">
        <ele>599.9</ele>
        <time>2020-09-17T11:40:32Z</time>
      </trkpt>
      <trkpt lat="45.42856" lon="3.40679">
        <ele>599.9</ele>
        <time>2020-09-17T11:40:33Z</time>
      </trkpt>
      <trkpt lat="45.42856" lon="3.40679">
        <ele>599.8</ele>
        <time>2020-09-17T11:40:34Z</time>
      </trkpt>
      <trkpt lat="45.42858" lon="3.40678">
        <ele>599.7</ele>
        <time>2020-09-17T11:40:35Z</time>
      </trkpt>
      <trkpt lat="45.42859" lon="3.40678">
        <ele>599.6</ele>
        <time>2020-09-17T11:40:36Z</time>
      </trkpt>
      <trkpt lat="45.4286" lon="3.40677">
        <ele>599.5</ele>
        <time>2020-09-17T11:40:37Z</time>
      </trkpt>
      <trkpt lat="45.42861" lon="3.40676">
        <ele>599.4</ele>
        <time>2020-09-17T11:40:38Z</time>
      </trkpt>
      <trkpt lat="45.42862" lon="3.40676">
        <ele>599.2</ele>
        <time>2020-09-17T11:40:39Z</time>
      </trkpt>
      <trkpt lat="45.42863" lon="3.40675">
        <ele>598.9</ele>
        <time>2020-09-17T11:40:40Z</time>
      </trkpt>
      <trkpt lat="45.42864" lon="3.40674">
        <ele>598.7</ele>
        <time>2020-09-17T11:40:41Z</time>
      </trkpt>
      <trkpt lat="45.42865" lon="3.40674">
        <ele>598.5</ele>
        <time>2020-09-17T11:40:42Z</time>
      </trkpt>
      <trkpt lat="45.42866" lon="3.40673">
        <ele>598.2</ele>
        <time>2020-09-17T11:40:43Z</time>
      </trkpt>
      <trkpt lat="45.42867" lon="3.40672">
        <ele>597.9</ele>
        <time>2020-09-17T11:40:44Z</time>
      </trkpt>
      <trkpt lat="45.42869" lon="3.40671">
        <ele>597.7</ele>
        <time>2020-09-17T11:40:45Z</time>
      </trkpt>
      <trkpt lat="45.4287" lon="3.40671">
        <ele>597.4</ele>
        <time>2020-09-17T11:40:46Z</time>
      </trkpt>
      <trkpt lat="45.42871" lon="3.4067">
        <ele>597.2</ele>
        <time>2020-09-17T11:40:47Z</time>
      </trkpt>
      <trkpt lat="45.42872" lon="3.4067">
        <ele>597</ele>
        <time>2020-09-17T11:40:48Z</time>
      </trkpt>
      <trkpt lat="45.42873" lon="3.40669">
        <ele>596.6</ele>
        <time>2020-09-17T11:40:49Z</time>
      </trkpt>
      <trkpt lat="45.42874" lon="3.40668">
        <ele>596.3</ele>
        <time>2020-09-17T11:40:50Z</time>
      </trkpt>
      <trkpt lat="45.42875" lon="3.40667">
        <ele>596.1</ele>
        <time>2020-09-17T11:40:51Z</time>
      </trkpt>
      <trkpt lat="45.42876" lon="3.40667">
        <ele>596</ele>
        <time>2020-09-17T11:40:52Z</time>
      </trkpt>
      <trkpt lat="45.42878" lon="3.40667">
        <ele>595.9</ele>
        <time>2020-09-17T11:40:53Z</time>
      </trkpt>
      <trkpt lat="45.42878" lon="3.40667">
        <ele>595.7</ele>
        <time>2020-09-17T11:40:54Z</time>
      </trkpt>
      <trkpt lat="45.42879" lon="3.40666">
        <ele>595.6</ele>
        <time>2020-09-17T11:40:55Z</time>
      </trkpt>
      <trkpt lat="45.4288" lon="3.40665">
        <ele>595.4</ele>
        <time>2020-09-17T11:40:56Z</time>
      </trkpt>
      <trkpt lat="45.42881" lon="3.40665">
        <ele>595.1</ele>
        <time>2020-09-17T11:40:57Z</time>
      </trkpt>
      <trkpt lat="45.42882" lon="3.40664">
        <ele>595</ele>
        <time>2020-09-17T11:40:58Z</time>
      </trkpt>
      <trkpt lat="45.42882" lon="3.40663">
        <ele>594.8</ele>
        <time>2020-09-17T11:40:59Z</time>
      </trkpt>
      <trkpt lat="45.42883" lon="3.40663">
        <ele>594.6</ele>
        <time>2020-09-17T11:41:00Z</time>
      </trkpt>
      <trkpt lat="45.42884" lon="3.40663">
        <ele>594.5</ele>
        <time>2020-09-17T11:41:01Z</time>
      </trkpt>
      <trkpt lat="45.42885" lon="3.40663">
        <ele>594.4</ele>
        <time>2020-09-17T11:41:02Z</time>
      </trkpt>
      <trkpt lat="45.42886" lon="3.40663">
        <ele>594.3</ele>
        <time>2020-09-17T11:41:03Z</time>
      </trkpt>
      <trkpt lat="45.42887" lon="3.40663">
        <ele>594.3</ele>
        <time>2020-09-17T11:41:04Z</time>
      </trkpt>
      <trkpt lat="45.42887" lon="3.40663">
        <ele>594.3</ele>
        <time>2020-09-17T11:41:05Z</time>
      </trkpt>
      <trkpt lat="45.42888" lon="3.40663">
        <ele>594.2</ele>
        <time>2020-09-17T11:41:06Z</time>
      </trkpt>
      <trkpt lat="45.42889" lon="3.40663">
        <ele>594.1</ele>
        <time>2020-09-17T11:41:07Z</time>
      </trkpt>
      <trkpt lat="45.4289" lon="3.40663">
        <ele>593.9</ele>
        <time>2020-09-17T11:41:08Z</time>
      </trkpt>
      <trkpt lat="45.42891" lon="3.40664">
        <ele>593.6</ele>
        <time>2020-09-17T11:41:09Z</time>
      </trkpt>
      <trkpt lat="45.42892" lon="3.40664">
        <ele>593.4</ele>
        <time>2020-09-17T11:41:10Z</time>
      </trkpt>
      <trkpt lat="45.42893" lon="3.40664">
        <ele>593.2</ele>
        <time>2020-09-17T11:41:11Z</time>
      </trkpt>
      <trkpt lat="45.42893" lon="3.40665">
        <ele>593</ele>
        <time>2020-09-17T11:41:12Z</time>
      </trkpt>
      <trkpt lat="45.42894" lon="3.40666">
        <ele>592.9</ele>
        <time>2020-09-17T11:41:13Z</time>
      </trkpt>
      <trkpt lat="45.42895" lon="3.40667">
        <ele>592.7</ele>
        <time>2020-09-17T11:41:14Z</time>
      </trkpt>
      <trkpt lat="45.42896" lon="3.40667">
        <ele>592.5</ele>
        <time>2020-09-17T11:41:15Z</time>
      </trkpt>
      <trkpt lat="45.42897" lon="3.40668">
        <ele>592.4</ele>
        <time>2020-09-17T11:41:16Z</time>
      </trkpt>
      <trkpt lat="45.42898" lon="3.40669">
        <ele>592.3</ele>
        <time>2020-09-17T11:41:17Z</time>
      </trkpt>
      <trkpt lat="45.42899" lon="3.40669">
        <ele>592.2</ele>
        <time>2020-09-17T11:41:18Z</time>
      </trkpt>
      <trkpt lat="45.429" lon="3.40671">
        <ele>592.3</ele>
        <time>2020-09-17T11:41:19Z</time>
      </trkpt>
      <trkpt lat="45.429" lon="3.40671">
        <ele>592.2</ele>
        <time>2020-09-17T11:41:20Z</time>
      </trkpt>
      <trkpt lat="45.42901" lon="3.40672">
        <ele>592.2</ele>
        <time>2020-09-17T11:41:21Z</time>
      </trkpt>
      <trkpt lat="45.42902" lon="3.40673">
        <ele>592.1</ele>
        <time>2020-09-17T11:41:22Z</time>
      </trkpt>
      <trkpt lat="45.42903" lon="3.40674">
        <ele>592.1</ele>
        <time>2020-09-17T11:41:23Z</time>
      </trkpt>
      <trkpt lat="45.42904" lon="3.40674">
        <ele>591.9</ele>
        <time>2020-09-17T11:41:24Z</time>
      </trkpt>
      <trkpt lat="45.42904" lon="3.40675">
        <ele>591.8</ele>
        <time>2020-09-17T11:41:25Z</time>
      </trkpt>
      <trkpt lat="45.42905" lon="3.40675">
        <ele>591.7</ele>
        <time>2020-09-17T11:41:26Z</time>
      </trkpt>
      <trkpt lat="45.42906" lon="3.40676">
        <ele>591.5</ele>
        <time>2020-09-17T11:41:27Z</time>
      </trkpt>
      <trkpt lat="45.42907" lon="3.40676">
        <ele>591.4</ele>
        <time>2020-09-17T11:41:28Z</time>
      </trkpt>
      <trkpt lat="45.42907" lon="3.40677">
        <ele>591.2</ele>
        <time>2020-09-17T11:41:29Z</time>
      </trkpt>
      <trkpt lat="45.42909" lon="3.40677">
        <ele>590.9</ele>
        <time>2020-09-17T11:41:30Z</time>
      </trkpt>
      <trkpt lat="45.4291" lon="3.40678">
        <ele>590.7</ele>
        <time>2020-09-17T11:41:31Z</time>
      </trkpt>
      <trkpt lat="45.42911" lon="3.40679">
        <ele>590.7</ele>
        <time>2020-09-17T11:41:32Z</time>
      </trkpt>
      <trkpt lat="45.42912" lon="3.40679">
        <ele>590.5</ele>
        <time>2020-09-17T11:41:33Z</time>
      </trkpt>
      <trkpt lat="45.42913" lon="3.4068">
        <ele>590.3</ele>
        <time>2020-09-17T11:41:34Z</time>
      </trkpt>
      <trkpt lat="45.42914" lon="3.4068">
        <ele>590</ele>
        <time>2020-09-17T11:41:35Z</time>
      </trkpt>
      <trkpt lat="45.42915" lon="3.40681">
        <ele>589.9</ele>
        <time>2020-09-17T11:41:36Z</time>
      </trkpt>
      <trkpt lat="45.42916" lon="3.40682">
        <ele>589.7</ele>
        <time>2020-09-17T11:41:37Z</time>
      </trkpt>
      <trkpt lat="45.42917" lon="3.40683">
        <ele>589.6</ele>
        <time>2020-09-17T11:41:38Z</time>
      </trkpt>
      <trkpt lat="45.42918" lon="3.40684">
        <ele>589.4</ele>
        <time>2020-09-17T11:41:39Z</time>
      </trkpt>
      <trkpt lat="45.42919" lon="3.40685">
        <ele>589.1</ele>
        <time>2020-09-17T11:41:40Z</time>
      </trkpt>
      <trkpt lat="45.4292" lon="3.40685">
        <ele>588.9</ele>
        <time>2020-09-17T11:41:41Z</time>
      </trkpt>
      <trkpt lat="45.42921" lon="3.40686">
        <ele>588.6</ele>
        <time>2020-09-17T11:41:42Z</time>
      </trkpt>
      <trkpt lat="45.42922" lon="3.40687">
        <ele>588.5</ele>
        <time>2020-09-17T11:41:43Z</time>
      </trkpt>
      <trkpt lat="45.42923" lon="3.40688">
        <ele>588.4</ele>
        <time>2020-09-17T11:41:44Z</time>
      </trkpt>
      <trkpt lat="45.42924" lon="3.40689">
        <ele>588.2</ele>
        <time>2020-09-17T11:41:45Z</time>
      </trkpt>
      <trkpt lat="45.42925" lon="3.40691">
        <ele>588.1</ele>
        <time>2020-09-17T11:41:46Z</time>
      </trkpt>
      <trkpt lat="45.42926" lon="3.40691">
        <ele>587.9</ele>
        <time>2020-09-17T11:41:47Z</time>
      </trkpt>
      <trkpt lat="45.42927" lon="3.40693">
        <ele>587.9</ele>
        <time>2020-09-17T11:41:48Z</time>
      </trkpt>
      <trkpt lat="45.42928" lon="3.40694">
        <ele>587.7</ele>
        <time>2020-09-17T11:41:49Z</time>
      </trkpt>
      <trkpt lat="45.42929" lon="3.40695">
        <ele>587.7</ele>
        <time>2020-09-17T11:41:50Z</time>
      </trkpt>
      <trkpt lat="45.4293" lon="3.40696">
        <ele>587.5</ele>
        <time>2020-09-17T11:41:51Z</time>
      </trkpt>
      <trkpt lat="45.42931" lon="3.40696">
        <ele>587.3</ele>
        <time>2020-09-17T11:41:52Z</time>
      </trkpt>
      <trkpt lat="45.42932" lon="3.40697">
        <ele>587.1</ele>
        <time>2020-09-17T11:41:53Z</time>
      </trkpt>
      <trkpt lat="45.42933" lon="3.40699">
        <ele>587</ele>
        <time>2020-09-17T11:41:54Z</time>
      </trkpt>
      <trkpt lat="45.42934" lon="3.40699">
        <ele>586.8</ele>
        <time>2020-09-17T11:41:55Z</time>
      </trkpt>
      <trkpt lat="45.42935" lon="3.407">
        <ele>586.6</ele>
        <time>2020-09-17T11:41:56Z</time>
      </trkpt>
      <trkpt lat="45.42935" lon="3.40701">
        <ele>586.5</ele>
        <time>2020-09-17T11:41:57Z</time>
      </trkpt>
      <trkpt lat="45.42937" lon="3.40702">
        <ele>586.1</ele>
        <time>2020-09-17T11:41:58Z</time>
      </trkpt>
      <trkpt lat="45.42938" lon="3.40703">
        <ele>585.9</ele>
        <time>2020-09-17T11:41:59Z</time>
      </trkpt>
      <trkpt lat="45.42939" lon="3.40704">
        <ele>585.7</ele>
        <time>2020-09-17T11:42:00Z</time>
      </trkpt>
      <trkpt lat="45.4294" lon="3.40705">
        <ele>585.4</ele>
        <time>2020-09-17T11:42:01Z</time>
      </trkpt>
      <trkpt lat="45.42941" lon="3.40706">
        <ele>585.1</ele>
        <time>2020-09-17T11:42:02Z</time>
      </trkpt>
      <trkpt lat="45.42942" lon="3.40707">
        <ele>585</ele>
        <time>2020-09-17T11:42:03Z</time>
      </trkpt>
      <trkpt lat="45.42943" lon="3.40709">
        <ele>584.8</ele>
        <time>2020-09-17T11:42:04Z</time>
      </trkpt>
      <trkpt lat="45.42943" lon="3.4071">
        <ele>584.8</ele>
        <time>2020-09-17T11:42:05Z</time>
      </trkpt>
      <trkpt lat="45.42944" lon="3.40711">
        <ele>584.8</ele>
        <time>2020-09-17T11:42:06Z</time>
      </trkpt>
      <trkpt lat="45.42944" lon="3.40712">
        <ele>584.8</ele>
        <time>2020-09-17T11:42:07Z</time>
      </trkpt>
      <trkpt lat="45.42945" lon="3.40713">
        <ele>584.8</ele>
        <time>2020-09-17T11:42:08Z</time>
      </trkpt>
      <trkpt lat="45.42946" lon="3.40714">
        <ele>584.6</ele>
        <time>2020-09-17T11:42:09Z</time>
      </trkpt>
      <trkpt lat="45.42946" lon="3.40716">
        <ele>584.6</ele>
        <time>2020-09-17T11:42:10Z</time>
      </trkpt>
      <trkpt lat="45.42947" lon="3.40717">
        <ele>584.7</ele>
        <time>2020-09-17T11:42:11Z</time>
      </trkpt>
      <trkpt lat="45.42947" lon="3.40718">
        <ele>584.8</ele>
        <time>2020-09-17T11:42:12Z</time>
      </trkpt>
      <trkpt lat="45.42947" lon="3.4072">
        <ele>585</ele>
        <time>2020-09-17T11:42:13Z</time>
      </trkpt>
      <trkpt lat="45.42948" lon="3.40721">
        <ele>585</ele>
        <time>2020-09-17T11:42:14Z</time>
      </trkpt>
      <trkpt lat="45.42948" lon="3.40722">
        <ele>585.2</ele>
        <time>2020-09-17T11:42:15Z</time>
      </trkpt>
      <trkpt lat="45.42948" lon="3.40723">
        <ele>585.1</ele>
        <time>2020-09-17T11:42:16Z</time>
      </trkpt>
      <trkpt lat="45.42948" lon="3.40725">
        <ele>584.9</ele>
        <time>2020-09-17T11:42:17Z</time>
      </trkpt>
      <trkpt lat="45.42948" lon="3.40726">
        <ele>584.8</ele>
        <time>2020-09-17T11:42:18Z</time>
      </trkpt>
      <trkpt lat="45.42948" lon="3.40727">
        <ele>584.7</ele>
        <time>2020-09-17T11:42:19Z</time>
      </trkpt>
      <trkpt lat="45.42949" lon="3.40728">
        <ele>584.5</ele>
        <time>2020-09-17T11:42:20Z</time>
      </trkpt>
      <trkpt lat="45.42949" lon="3.4073">
        <ele>584.1</ele>
        <time>2020-09-17T11:42:21Z</time>
      </trkpt>
      <trkpt lat="45.42949" lon="3.40731">
        <ele>583.8</ele>
        <time>2020-09-17T11:42:22Z</time>
      </trkpt>
      <trkpt lat="45.4295" lon="3.40732">
        <ele>583.7</ele>
        <time>2020-09-17T11:42:23Z</time>
      </trkpt>
      <trkpt lat="45.4295" lon="3.40734">
        <ele>583.5</ele>
        <time>2020-09-17T11:42:24Z</time>
      </trkpt>
      <trkpt lat="45.4295" lon="3.40735">
        <ele>583.2</ele>
        <time>2020-09-17T11:42:25Z</time>
      </trkpt>
      <trkpt lat="45.4295" lon="3.40737">
        <ele>583</ele>
        <time>2020-09-17T11:42:26Z</time>
      </trkpt>
      <trkpt lat="45.4295" lon="3.40738">
        <ele>582.8</ele>
        <time>2020-09-17T11:42:27Z</time>
      </trkpt>
      <trkpt lat="45.42951" lon="3.4074">
        <ele>582.6</ele>
        <time>2020-09-17T11:42:28Z</time>
      </trkpt>
      <trkpt lat="45.42951" lon="3.40741">
        <ele>582.2</ele>
        <time>2020-09-17T11:42:29Z</time>
      </trkpt>
      <trkpt lat="45.42951" lon="3.40743">
        <ele>582</ele>
        <time>2020-09-17T11:42:30Z</time>
      </trkpt>
      <trkpt lat="45.42951" lon="3.40744">
        <ele>581.9</ele>
        <time>2020-09-17T11:42:31Z</time>
      </trkpt>
      <trkpt lat="45.42951" lon="3.40746">
        <ele>581.7</ele>
        <time>2020-09-17T11:42:32Z</time>
      </trkpt>
      <trkpt lat="45.42952" lon="3.40747">
        <ele>581.4</ele>
        <time>2020-09-17T11:42:33Z</time>
      </trkpt>
      <trkpt lat="45.42952" lon="3.40749">
        <ele>580.9</ele>
        <time>2020-09-17T11:42:34Z</time>
      </trkpt>
      <trkpt lat="45.42953" lon="3.40751">
        <ele>580.5</ele>
        <time>2020-09-17T11:42:35Z</time>
      </trkpt>
      <trkpt lat="45.42953" lon="3.40753">
        <ele>580.4</ele>
        <time>2020-09-17T11:42:36Z</time>
      </trkpt>
      <trkpt lat="45.42953" lon="3.40755">
        <ele>580.1</ele>
        <time>2020-09-17T11:42:37Z</time>
      </trkpt>
      <trkpt lat="45.42954" lon="3.40756">
        <ele>579.8</ele>
        <time>2020-09-17T11:42:38Z</time>
      </trkpt>
      <trkpt lat="45.42954" lon="3.40758">
        <ele>579.5</ele>
        <time>2020-09-17T11:42:39Z</time>
      </trkpt>
      <trkpt lat="45.42955" lon="3.4076">
        <ele>579.3</ele>
        <time>2020-09-17T11:42:40Z</time>
      </trkpt>
      <trkpt lat="45.42955" lon="3.40761">
        <ele>579</ele>
        <time>2020-09-17T11:42:41Z</time>
      </trkpt>
      <trkpt lat="45.42956" lon="3.40763">
        <ele>578.6</ele>
        <time>2020-09-17T11:42:42Z</time>
      </trkpt>
      <trkpt lat="45.42957" lon="3.40765">
        <ele>578.1</ele>
        <time>2020-09-17T11:42:43Z</time>
      </trkpt>
      <trkpt lat="45.42957" lon="3.40766">
        <ele>577.7</ele>
        <time>2020-09-17T11:42:44Z</time>
      </trkpt>
      <trkpt lat="45.42958" lon="3.40768">
        <ele>577.3</ele>
        <time>2020-09-17T11:42:45Z</time>
      </trkpt>
      <trkpt lat="45.42958" lon="3.40769">
        <ele>577.1</ele>
        <time>2020-09-17T11:42:46Z</time>
      </trkpt>
      <trkpt lat="45.42958" lon="3.4077">
        <ele>576.9</ele>
        <time>2020-09-17T11:42:47Z</time>
      </trkpt>
      <trkpt lat="45.42959" lon="3.40771">
        <ele>576.6</ele>
        <time>2020-09-17T11:42:48Z</time>
      </trkpt>
      <trkpt lat="45.42959" lon="3.40772">
        <ele>576.4</ele>
        <time>2020-09-17T11:42:49Z</time>
      </trkpt>
      <trkpt lat="45.4296" lon="3.40773">
        <ele>576</ele>
        <time>2020-09-17T11:42:50Z</time>
      </trkpt>
      <trkpt lat="45.4296" lon="3.40774">
        <ele>575.9</ele>
        <time>2020-09-17T11:42:51Z</time>
      </trkpt>
      <trkpt lat="45.4296" lon="3.40775">
        <ele>575.5</ele>
        <time>2020-09-17T11:42:52Z</time>
      </trkpt>
      <trkpt lat="45.42961" lon="3.40777">
        <ele>575.3</ele>
        <time>2020-09-17T11:42:53Z</time>
      </trkpt>
      <trkpt lat="45.42961" lon="3.40778">
        <ele>574.8</ele>
        <time>2020-09-17T11:42:54Z</time>
      </trkpt>
      <trkpt lat="45.42962" lon="3.40779">
        <ele>574.6</ele>
        <time>2020-09-17T11:42:55Z</time>
      </trkpt>
      <trkpt lat="45.42962" lon="3.4078">
        <ele>574</ele>
        <time>2020-09-17T11:42:56Z</time>
      </trkpt>
      <trkpt lat="45.42963" lon="3.40782">
        <ele>573.7</ele>
        <time>2020-09-17T11:42:57Z</time>
      </trkpt>
      <trkpt lat="45.42963" lon="3.40783">
        <ele>573.7</ele>
        <time>2020-09-17T11:42:58Z</time>
      </trkpt>
      <trkpt lat="45.42963" lon="3.40784">
        <ele>573.5</ele>
        <time>2020-09-17T11:42:59Z</time>
      </trkpt>
      <trkpt lat="45.42964" lon="3.40786">
        <ele>573.3</ele>
        <time>2020-09-17T11:43:00Z</time>
      </trkpt>
      <trkpt lat="45.42964" lon="3.40787">
        <ele>573.3</ele>
        <time>2020-09-17T11:43:01Z</time>
      </trkpt>
      <trkpt lat="45.42964" lon="3.40788">
        <ele>573.3</ele>
        <time>2020-09-17T11:43:02Z</time>
      </trkpt>
      <trkpt lat="45.42964" lon="3.4079">
        <ele>573.1</ele>
        <time>2020-09-17T11:43:03Z</time>
      </trkpt>
      <trkpt lat="45.42965" lon="3.40791">
        <ele>572.9</ele>
        <time>2020-09-17T11:43:04Z</time>
      </trkpt>
      <trkpt lat="45.42965" lon="3.40792">
        <ele>572.8</ele>
        <time>2020-09-17T11:43:05Z</time>
      </trkpt>
      <trkpt lat="45.42965" lon="3.40794">
        <ele>572.9</ele>
        <time>2020-09-17T11:43:06Z</time>
      </trkpt>
      <trkpt lat="45.42965" lon="3.40795">
        <ele>572.9</ele>
        <time>2020-09-17T11:43:07Z</time>
      </trkpt>
      <trkpt lat="45.42965" lon="3.40796">
        <ele>573</ele>
        <time>2020-09-17T11:43:08Z</time>
      </trkpt>
      <trkpt lat="45.42965" lon="3.40797">
        <ele>572.8</ele>
        <time>2020-09-17T11:43:09Z</time>
      </trkpt>
      <trkpt lat="45.42965" lon="3.40798">
        <ele>572.9</ele>
        <time>2020-09-17T11:43:10Z</time>
      </trkpt>
      <trkpt lat="45.42965" lon="3.40799">
        <ele>573</ele>
        <time>2020-09-17T11:43:11Z</time>
      </trkpt>
      <trkpt lat="45.42966" lon="3.408">
        <ele>572.9</ele>
        <time>2020-09-17T11:43:12Z</time>
      </trkpt>
      <trkpt lat="45.42966" lon="3.40801">
        <ele>572.8</ele>
        <time>2020-09-17T11:43:13Z</time>
      </trkpt>
      <trkpt lat="45.42966" lon="3.40803">
        <ele>572.6</ele>
        <time>2020-09-17T11:43:14Z</time>
      </trkpt>
      <trkpt lat="45.42967" lon="3.40803">
        <ele>572.4</ele>
        <time>2020-09-17T11:43:15Z</time>
      </trkpt>
      <trkpt lat="45.42967" lon="3.40804">
        <ele>572</ele>
        <time>2020-09-17T11:43:16Z</time>
      </trkpt>
      <trkpt lat="45.42968" lon="3.40805">
        <ele>571.7</ele>
        <time>2020-09-17T11:43:17Z</time>
      </trkpt>
      <trkpt lat="45.42968" lon="3.40807">
        <ele>571.6</ele>
        <time>2020-09-17T11:43:18Z</time>
      </trkpt>
      <trkpt lat="45.42968" lon="3.40808">
        <ele>571.6</ele>
        <time>2020-09-17T11:43:19Z</time>
      </trkpt>
      <trkpt lat="45.42968" lon="3.40809">
        <ele>571.3</ele>
        <time>2020-09-17T11:43:20Z</time>
      </trkpt>
      <trkpt lat="45.42968" lon="3.4081">
        <ele>571.1</ele>
        <time>2020-09-17T11:43:21Z</time>
      </trkpt>
      <trkpt lat="45.42969" lon="3.4081">
        <ele>570.8</ele>
        <time>2020-09-17T11:43:22Z</time>
      </trkpt>
      <trkpt lat="45.42969" lon="3.40811">
        <ele>570.6</ele>
        <time>2020-09-17T11:43:23Z</time>
      </trkpt>
      <trkpt lat="45.42969" lon="3.40812">
        <ele>570.4</ele>
        <time>2020-09-17T11:43:24Z</time>
      </trkpt>
      <trkpt lat="45.42969" lon="3.40813">
        <ele>570.3</ele>
        <time>2020-09-17T11:43:25Z</time>
      </trkpt>
      <trkpt lat="45.4297" lon="3.40814">
        <ele>570.2</ele>
        <time>2020-09-17T11:43:26Z</time>
      </trkpt>
      <trkpt lat="45.4297" lon="3.40815">
        <ele>570</ele>
        <time>2020-09-17T11:43:27Z</time>
      </trkpt>
      <trkpt lat="45.4297" lon="3.40816">
        <ele>569.8</ele>
        <time>2020-09-17T11:43:28Z</time>
      </trkpt>
      <trkpt lat="45.42971" lon="3.40817">
        <ele>569.4</ele>
        <time>2020-09-17T11:43:29Z</time>
      </trkpt>
      <trkpt lat="45.42971" lon="3.40818">
        <ele>569.2</ele>
        <time>2020-09-17T11:43:30Z</time>
      </trkpt>
      <trkpt lat="45.42971" lon="3.40819">
        <ele>568.8</ele>
        <time>2020-09-17T11:43:31Z</time>
      </trkpt>
      <trkpt lat="45.42972" lon="3.4082">
        <ele>568.4</ele>
        <time>2020-09-17T11:43:32Z</time>
      </trkpt>
      <trkpt lat="45.42972" lon="3.40821">
        <ele>568.3</ele>
        <time>2020-09-17T11:43:33Z</time>
      </trkpt>
      <trkpt lat="45.42972" lon="3.40822">
        <ele>568.3</ele>
        <time>2020-09-17T11:43:34Z</time>
      </trkpt>
      <trkpt lat="45.42972" lon="3.40824">
        <ele>568</ele>
        <time>2020-09-17T11:43:35Z</time>
      </trkpt>
      <trkpt lat="45.42973" lon="3.40825">
        <ele>567.8</ele>
        <time>2020-09-17T11:43:36Z</time>
      </trkpt>
      <trkpt lat="45.42973" lon="3.40826">
        <ele>567.7</ele>
        <time>2020-09-17T11:43:37Z</time>
      </trkpt>
      <trkpt lat="45.42973" lon="3.40827">
        <ele>567.5</ele>
        <time>2020-09-17T11:43:38Z</time>
      </trkpt>
      <trkpt lat="45.42973" lon="3.40828">
        <ele>567.4</ele>
        <time>2020-09-17T11:43:39Z</time>
      </trkpt>
      <trkpt lat="45.42973" lon="3.40829">
        <ele>567.3</ele>
        <time>2020-09-17T11:43:40Z</time>
      </trkpt>
      <trkpt lat="45.42973" lon="3.4083">
        <ele>567.3</ele>
        <time>2020-09-17T11:43:41Z</time>
      </trkpt>
      <trkpt lat="45.42973" lon="3.40831">
        <ele>567.2</ele>
        <time>2020-09-17T11:43:42Z</time>
      </trkpt>
      <trkpt lat="45.42974" lon="3.40832">
        <ele>567.1</ele>
        <time>2020-09-17T11:43:43Z</time>
      </trkpt>
      <trkpt lat="45.42974" lon="3.40833">
        <ele>567.1</ele>
        <time>2020-09-17T11:43:44Z</time>
      </trkpt>
      <trkpt lat="45.42974" lon="3.40834">
        <ele>567</ele>
        <time>2020-09-17T11:43:45Z</time>
      </trkpt>
      <trkpt lat="45.42974" lon="3.40835">
        <ele>566.7</ele>
        <time>2020-09-17T11:43:46Z</time>
      </trkpt>
      <trkpt lat="45.42974" lon="3.40836">
        <ele>566.4</ele>
        <time>2020-09-17T11:43:47Z</time>
      </trkpt>
      <trkpt lat="45.42975" lon="3.40837">
        <ele>566.1</ele>
        <time>2020-09-17T11:43:48Z</time>
      </trkpt>
      <trkpt lat="45.42975" lon="3.40838">
        <ele>565.8</ele>
        <time>2020-09-17T11:43:49Z</time>
      </trkpt>
      <trkpt lat="45.42975" lon="3.4084">
        <ele>565.6</ele>
        <time>2020-09-17T11:43:50Z</time>
      </trkpt>
      <trkpt lat="45.42975" lon="3.40841">
        <ele>565.5</ele>
        <time>2020-09-17T11:43:51Z</time>
      </trkpt>
      <trkpt lat="45.42975" lon="3.40842">
        <ele>565.5</ele>
        <time>2020-09-17T11:43:52Z</time>
      </trkpt>
      <trkpt lat="45.42975" lon="3.40843">
        <ele>565.4</ele>
        <time>2020-09-17T11:43:53Z</time>
      </trkpt>
      <trkpt lat="45.42976" lon="3.40845">
        <ele>565.3</ele>
        <time>2020-09-17T11:43:54Z</time>
      </trkpt>
      <trkpt lat="45.42976" lon="3.40846">
        <ele>565.1</ele>
        <time>2020-09-17T11:43:55Z</time>
      </trkpt>
      <trkpt lat="45.42976" lon="3.40847">
        <ele>565.1</ele>
        <time>2020-09-17T11:43:56Z</time>
      </trkpt>
      <trkpt lat="45.42976" lon="3.40849">
        <ele>565.2</ele>
        <time>2020-09-17T11:43:57Z</time>
      </trkpt>
      <trkpt lat="45.42975" lon="3.4085">
        <ele>565.2</ele>
        <time>2020-09-17T11:43:58Z</time>
      </trkpt>
      <trkpt lat="45.42975" lon="3.40852">
        <ele>565.3</ele>
        <time>2020-09-17T11:43:59Z</time>
      </trkpt>
      <trkpt lat="45.42975" lon="3.40853">
        <ele>565.3</ele>
        <time>2020-09-17T11:44:00Z</time>
      </trkpt>
      <trkpt lat="45.42975" lon="3.40854">
        <ele>565.2</ele>
        <time>2020-09-17T11:44:01Z</time>
      </trkpt>
      <trkpt lat="45.42976" lon="3.40855">
        <ele>564.9</ele>
        <time>2020-09-17T11:44:02Z</time>
      </trkpt>
      <trkpt lat="45.42976" lon="3.40857">
        <ele>564.8</ele>
        <time>2020-09-17T11:44:03Z</time>
      </trkpt>
      <trkpt lat="45.42976" lon="3.40858">
        <ele>564.8</ele>
        <time>2020-09-17T11:44:04Z</time>
      </trkpt>
      <trkpt lat="45.42976" lon="3.40859">
        <ele>564.6</ele>
        <time>2020-09-17T11:44:05Z</time>
      </trkpt>
      <trkpt lat="45.42976" lon="3.4086">
        <ele>564.4</ele>
        <time>2020-09-17T11:44:06Z</time>
      </trkpt>
      <trkpt lat="45.42976" lon="3.40862">
        <ele>564.3</ele>
        <time>2020-09-17T11:44:07Z</time>
      </trkpt>
      <trkpt lat="45.42976" lon="3.40863">
        <ele>564.2</ele>
        <time>2020-09-17T11:44:08Z</time>
      </trkpt>
      <trkpt lat="45.42977" lon="3.40864">
        <ele>563.8</ele>
        <time>2020-09-17T11:44:09Z</time>
      </trkpt>
      <trkpt lat="45.42977" lon="3.40866">
        <ele>563.5</ele>
        <time>2020-09-17T11:44:10Z</time>
      </trkpt>
      <trkpt lat="45.42977" lon="3.40868">
        <ele>563.3</ele>
        <time>2020-09-17T11:44:11Z</time>
      </trkpt>
      <trkpt lat="45.42978" lon="3.40869">
        <ele>563.1</ele>
        <time>2020-09-17T11:44:12Z</time>
      </trkpt>
      <trkpt lat="45.42978" lon="3.40871">
        <ele>562.7</ele>
        <time>2020-09-17T11:44:13Z</time>
      </trkpt>
      <trkpt lat="45.42978" lon="3.40872">
        <ele>562.6</ele>
        <time>2020-09-17T11:44:14Z</time>
      </trkpt>
      <trkpt lat="45.42978" lon="3.40874">
        <ele>562.3</ele>
        <time>2020-09-17T11:44:15Z</time>
      </trkpt>
      <trkpt lat="45.42978" lon="3.40875">
        <ele>562.2</ele>
        <time>2020-09-17T11:44:16Z</time>
      </trkpt>
      <trkpt lat="45.42978" lon="3.40877">
        <ele>562.5</ele>
        <time>2020-09-17T11:44:17Z</time>
      </trkpt>
      <trkpt lat="45.42978" lon="3.40878">
        <ele>562.3</ele>
        <time>2020-09-17T11:44:18Z</time>
      </trkpt>
      <trkpt lat="45.42978" lon="3.4088">
        <ele>562.1</ele>
        <time>2020-09-17T11:44:19Z</time>
      </trkpt>
      <trkpt lat="45.42978" lon="3.40881">
        <ele>561.9</ele>
        <time>2020-09-17T11:44:20Z</time>
      </trkpt>
      <trkpt lat="45.42978" lon="3.40883">
        <ele>561.9</ele>
        <time>2020-09-17T11:44:21Z</time>
      </trkpt>
      <trkpt lat="45.42978" lon="3.40884">
        <ele>561.9</ele>
        <time>2020-09-17T11:44:22Z</time>
      </trkpt>
      <trkpt lat="45.42978" lon="3.40885">
        <ele>561.9</ele>
        <time>2020-09-17T11:44:23Z</time>
      </trkpt>
      <trkpt lat="45.42978" lon="3.40887">
        <ele>561.8</ele>
        <time>2020-09-17T11:44:24Z</time>
      </trkpt>
      <trkpt lat="45.42978" lon="3.40889">
        <ele>561.7</ele>
        <time>2020-09-17T11:44:25Z</time>
      </trkpt>
      <trkpt lat="45.42978" lon="3.4089">
        <ele>561.8</ele>
        <time>2020-09-17T11:44:26Z</time>
      </trkpt>
      <trkpt lat="45.42978" lon="3.40892">
        <ele>561.9</ele>
        <time>2020-09-17T11:44:27Z</time>
      </trkpt>
      <trkpt lat="45.42978" lon="3.40893">
        <ele>561.9</ele>
        <time>2020-09-17T11:44:28Z</time>
      </trkpt>
      <trkpt lat="45.42978" lon="3.40895">
        <ele>562</ele>
        <time>2020-09-17T11:44:29Z</time>
      </trkpt>
      <trkpt lat="45.42978" lon="3.40896">
        <ele>561.9</ele>
        <time>2020-09-17T11:44:30Z</time>
      </trkpt>
      <trkpt lat="45.42977" lon="3.40898">
        <ele>562</ele>
        <time>2020-09-17T11:44:31Z</time>
      </trkpt>
      <trkpt lat="45.42977" lon="3.409">
        <ele>561.9</ele>
        <time>2020-09-17T11:44:32Z</time>
      </trkpt>
      <trkpt lat="45.42977" lon="3.40901">
        <ele>562</ele>
        <time>2020-09-17T11:44:33Z</time>
      </trkpt>
      <trkpt lat="45.42977" lon="3.40903">
        <ele>561.8</ele>
        <time>2020-09-17T11:44:34Z</time>
      </trkpt>
      <trkpt lat="45.42978" lon="3.40904">
        <ele>561.7</ele>
        <time>2020-09-17T11:44:35Z</time>
      </trkpt>
      <trkpt lat="45.42978" lon="3.40906">
        <ele>561.5</ele>
        <time>2020-09-17T11:44:36Z</time>
      </trkpt>
      <trkpt lat="45.42978" lon="3.40907">
        <ele>561.5</ele>
        <time>2020-09-17T11:44:37Z</time>
      </trkpt>
      <trkpt lat="45.42978" lon="3.40908">
        <ele>561.3</ele>
        <time>2020-09-17T11:44:38Z</time>
      </trkpt>
      <trkpt lat="45.42978" lon="3.4091">
        <ele>561.1</ele>
        <time>2020-09-17T11:44:39Z</time>
      </trkpt>
      <trkpt lat="45.42978" lon="3.40911">
        <ele>561.1</ele>
        <time>2020-09-17T11:44:40Z</time>
      </trkpt>
      <trkpt lat="45.42978" lon="3.40912">
        <ele>561</ele>
        <time>2020-09-17T11:44:41Z</time>
      </trkpt>
      <trkpt lat="45.42978" lon="3.40913">
        <ele>560.9</ele>
        <time>2020-09-17T11:44:42Z</time>
      </trkpt>
      <trkpt lat="45.42979" lon="3.40914">
        <ele>560.6</ele>
        <time>2020-09-17T11:44:43Z</time>
      </trkpt>
      <trkpt lat="45.42979" lon="3.40915">
        <ele>560.3</ele>
        <time>2020-09-17T11:44:44Z</time>
      </trkpt>
      <trkpt lat="45.42979" lon="3.40917">
        <ele>560.1</ele>
        <time>2020-09-17T11:44:45Z</time>
      </trkpt>
      <trkpt lat="45.42979" lon="3.40918">
        <ele>559.7</ele>
        <time>2020-09-17T11:44:46Z</time>
      </trkpt>
      <trkpt lat="45.42979" lon="3.40919">
        <ele>559.6</ele>
        <time>2020-09-17T11:44:47Z</time>
      </trkpt>
      <trkpt lat="45.42979" lon="3.4092">
        <ele>559.5</ele>
        <time>2020-09-17T11:44:48Z</time>
      </trkpt>
      <trkpt lat="45.42979" lon="3.40921">
        <ele>559.6</ele>
        <time>2020-09-17T11:44:49Z</time>
      </trkpt>
      <trkpt lat="45.42979" lon="3.40922">
        <ele>559.6</ele>
        <time>2020-09-17T11:44:50Z</time>
      </trkpt>
      <trkpt lat="45.42979" lon="3.40923">
        <ele>559.3</ele>
        <time>2020-09-17T11:44:51Z</time>
      </trkpt>
      <trkpt lat="45.42979" lon="3.40925">
        <ele>559.1</ele>
        <time>2020-09-17T11:44:52Z</time>
      </trkpt>
      <trkpt lat="45.42979" lon="3.40926">
        <ele>558.9</ele>
        <time>2020-09-17T11:44:53Z</time>
      </trkpt>
      <trkpt lat="45.42979" lon="3.40927">
        <ele>558.8</ele>
        <time>2020-09-17T11:44:54Z</time>
      </trkpt>
      <trkpt lat="45.42979" lon="3.40929">
        <ele>558.8</ele>
        <time>2020-09-17T11:44:55Z</time>
      </trkpt>
      <trkpt lat="45.42979" lon="3.4093">
        <ele>558.7</ele>
        <time>2020-09-17T11:44:56Z</time>
      </trkpt>
      <trkpt lat="45.42979" lon="3.40931">
        <ele>558.4</ele>
        <time>2020-09-17T11:44:57Z</time>
      </trkpt>
      <trkpt lat="45.42979" lon="3.40932">
        <ele>558.3</ele>
        <time>2020-09-17T11:44:58Z</time>
      </trkpt>
      <trkpt lat="45.42979" lon="3.40934">
        <ele>558</ele>
        <time>2020-09-17T11:44:59Z</time>
      </trkpt>
      <trkpt lat="45.42979" lon="3.40935">
        <ele>557.6</ele>
        <time>2020-09-17T11:45:00Z</time>
      </trkpt>
      <trkpt lat="45.42979" lon="3.40937">
        <ele>557.3</ele>
        <time>2020-09-17T11:45:01Z</time>
      </trkpt>
      <trkpt lat="45.42979" lon="3.40938">
        <ele>557.1</ele>
        <time>2020-09-17T11:45:02Z</time>
      </trkpt>
      <trkpt lat="45.42979" lon="3.40939">
        <ele>556.8</ele>
        <time>2020-09-17T11:45:03Z</time>
      </trkpt>
      <trkpt lat="45.42979" lon="3.40941">
        <ele>556.7</ele>
        <time>2020-09-17T11:45:04Z</time>
      </trkpt>
      <trkpt lat="45.4298" lon="3.40942">
        <ele>556.4</ele>
        <time>2020-09-17T11:45:05Z</time>
      </trkpt>
      <trkpt lat="45.4298" lon="3.40943">
        <ele>556.1</ele>
        <time>2020-09-17T11:45:06Z</time>
      </trkpt>
      <trkpt lat="45.4298" lon="3.40944">
        <ele>555.9</ele>
        <time>2020-09-17T11:45:07Z</time>
      </trkpt>
      <trkpt lat="45.4298" lon="3.40946">
        <ele>555.7</ele>
        <time>2020-09-17T11:45:08Z</time>
      </trkpt>
      <trkpt lat="45.4298" lon="3.40947">
        <ele>555.6</ele>
        <time>2020-09-17T11:45:09Z</time>
      </trkpt>
      <trkpt lat="45.42981" lon="3.40949">
        <ele>555.4</ele>
        <time>2020-09-17T11:45:10Z</time>
      </trkpt>
      <trkpt lat="45.42981" lon="3.4095">
        <ele>555.3</ele>
        <time>2020-09-17T11:45:11Z</time>
      </trkpt>
      <trkpt lat="45.42981" lon="3.40951">
        <ele>555.1</ele>
        <time>2020-09-17T11:45:12Z</time>
      </trkpt>
      <trkpt lat="45.42981" lon="3.40953">
        <ele>555.2</ele>
        <time>2020-09-17T11:45:13Z</time>
      </trkpt>
      <trkpt lat="45.42981" lon="3.40954">
        <ele>555.1</ele>
        <time>2020-09-17T11:45:14Z</time>
      </trkpt>
      <trkpt lat="45.42981" lon="3.40956">
        <ele>555.2</ele>
        <time>2020-09-17T11:45:15Z</time>
      </trkpt>
      <trkpt lat="45.42982" lon="3.40957">
        <ele>555</ele>
        <time>2020-09-17T11:45:16Z</time>
      </trkpt>
      <trkpt lat="45.42982" lon="3.40958">
        <ele>554.9</ele>
        <time>2020-09-17T11:45:17Z</time>
      </trkpt>
      <trkpt lat="45.42982" lon="3.4096">
        <ele>554.7</ele>
        <time>2020-09-17T11:45:18Z</time>
      </trkpt>
      <trkpt lat="45.42983" lon="3.40961">
        <ele>554.6</ele>
        <time>2020-09-17T11:45:19Z</time>
      </trkpt>
      <trkpt lat="45.42983" lon="3.40962">
        <ele>554.5</ele>
        <time>2020-09-17T11:45:20Z</time>
      </trkpt>
      <trkpt lat="45.42983" lon="3.40963">
        <ele>554.2</ele>
        <time>2020-09-17T11:45:21Z</time>
      </trkpt>
      <trkpt lat="45.42984" lon="3.40965">
        <ele>554</ele>
        <time>2020-09-17T11:45:22Z</time>
      </trkpt>
      <trkpt lat="45.42984" lon="3.40966">
        <ele>553.8</ele>
        <time>2020-09-17T11:45:23Z</time>
      </trkpt>
      <trkpt lat="45.42984" lon="3.40967">
        <ele>553.5</ele>
        <time>2020-09-17T11:45:24Z</time>
      </trkpt>
      <trkpt lat="45.42985" lon="3.40969">
        <ele>553.4</ele>
        <time>2020-09-17T11:45:25Z</time>
      </trkpt>
      <trkpt lat="45.42985" lon="3.4097">
        <ele>553.1</ele>
        <time>2020-09-17T11:45:26Z</time>
      </trkpt>
      <trkpt lat="45.42986" lon="3.40971">
        <ele>552.9</ele>
        <time>2020-09-17T11:45:27Z</time>
      </trkpt>
      <trkpt lat="45.42986" lon="3.40973">
        <ele>552.8</ele>
        <time>2020-09-17T11:45:28Z</time>
      </trkpt>
      <trkpt lat="45.42986" lon="3.40974">
        <ele>552.4</ele>
        <time>2020-09-17T11:45:29Z</time>
      </trkpt>
      <trkpt lat="45.42987" lon="3.40976">
        <ele>552</ele>
        <time>2020-09-17T11:45:30Z</time>
      </trkpt>
      <trkpt lat="45.42987" lon="3.40977">
        <ele>551.9</ele>
        <time>2020-09-17T11:45:31Z</time>
      </trkpt>
      <trkpt lat="45.42987" lon="3.40978">
        <ele>551.7</ele>
        <time>2020-09-17T11:45:32Z</time>
      </trkpt>
      <trkpt lat="45.42987" lon="3.40979">
        <ele>551.7</ele>
        <time>2020-09-17T11:45:33Z</time>
      </trkpt>
      <trkpt lat="45.42987" lon="3.40981">
        <ele>551.4</ele>
        <time>2020-09-17T11:45:34Z</time>
      </trkpt>
      <trkpt lat="45.42987" lon="3.40982">
        <ele>551.1</ele>
        <time>2020-09-17T11:45:35Z</time>
      </trkpt>
      <trkpt lat="45.42987" lon="3.40983">
        <ele>550.9</ele>
        <time>2020-09-17T11:45:36Z</time>
      </trkpt>
      <trkpt lat="45.42988" lon="3.40984">
        <ele>550.7</ele>
        <time>2020-09-17T11:45:37Z</time>
      </trkpt>
      <trkpt lat="45.42988" lon="3.40986">
        <ele>550.5</ele>
        <time>2020-09-17T11:45:38Z</time>
      </trkpt>
      <trkpt lat="45.42988" lon="3.40987">
        <ele>550.3</ele>
        <time>2020-09-17T11:45:39Z</time>
      </trkpt>
      <trkpt lat="45.42988" lon="3.40988">
        <ele>550</ele>
        <time>2020-09-17T11:45:40Z</time>
      </trkpt>
      <trkpt lat="45.42988" lon="3.4099">
        <ele>549.8</ele>
        <time>2020-09-17T11:45:41Z</time>
      </trkpt>
      <trkpt lat="45.42988" lon="3.40991">
        <ele>549.7</ele>
        <time>2020-09-17T11:45:42Z</time>
      </trkpt>
      <trkpt lat="45.42989" lon="3.40992">
        <ele>549.4</ele>
        <time>2020-09-17T11:45:43Z</time>
      </trkpt>
      <trkpt lat="45.42989" lon="3.40993">
        <ele>549.2</ele>
        <time>2020-09-17T11:45:44Z</time>
      </trkpt>
      <trkpt lat="45.42989" lon="3.40995">
        <ele>549</ele>
        <time>2020-09-17T11:45:45Z</time>
      </trkpt>
      <trkpt lat="45.42989" lon="3.40996">
        <ele>548.9</ele>
        <time>2020-09-17T11:45:46Z</time>
      </trkpt>
      <trkpt lat="45.42989" lon="3.40998">
        <ele>548.8</ele>
        <time>2020-09-17T11:45:47Z</time>
      </trkpt>
      <trkpt lat="45.42989" lon="3.40999">
        <ele>548.6</ele>
        <time>2020-09-17T11:45:48Z</time>
      </trkpt>
      <trkpt lat="45.42989" lon="3.41">
        <ele>548.5</ele>
        <time>2020-09-17T11:45:49Z</time>
      </trkpt>
      <trkpt lat="45.42989" lon="3.41002">
        <ele>548.1</ele>
        <time>2020-09-17T11:45:50Z</time>
      </trkpt>
      <trkpt lat="45.42989" lon="3.41003">
        <ele>547.7</ele>
        <time>2020-09-17T11:45:51Z</time>
      </trkpt>
      <trkpt lat="45.42989" lon="3.41004">
        <ele>547.4</ele>
        <time>2020-09-17T11:45:52Z</time>
      </trkpt>
      <trkpt lat="45.42989" lon="3.41005">
        <ele>547.1</ele>
        <time>2020-09-17T11:45:53Z</time>
      </trkpt>
      <trkpt lat="45.42989" lon="3.41007">
        <ele>546.8</ele>
        <time>2020-09-17T11:45:54Z</time>
      </trkpt>
      <trkpt lat="45.42989" lon="3.41008">
        <ele>546.5</ele>
        <time>2020-09-17T11:45:55Z</time>
      </trkpt>
      <trkpt lat="45.42989" lon="3.41009">
        <ele>546.4</ele>
        <time>2020-09-17T11:45:56Z</time>
      </trkpt>
      <trkpt lat="45.42989" lon="3.4101">
        <ele>546.2</ele>
        <time>2020-09-17T11:45:57Z</time>
      </trkpt>
      <trkpt lat="45.42989" lon="3.41011">
        <ele>546.1</ele>
        <time>2020-09-17T11:45:58Z</time>
      </trkpt>
      <trkpt lat="45.42989" lon="3.41012">
        <ele>546</ele>
        <time>2020-09-17T11:45:59Z</time>
      </trkpt>
      <trkpt lat="45.42988" lon="3.41013">
        <ele>546.1</ele>
        <time>2020-09-17T11:46:00Z</time>
      </trkpt>
      <trkpt lat="45.42988" lon="3.41014">
        <ele>546.1</ele>
        <time>2020-09-17T11:46:01Z</time>
      </trkpt>
      <trkpt lat="45.42988" lon="3.41015">
        <ele>546.1</ele>
        <time>2020-09-17T11:46:02Z</time>
      </trkpt>
      <trkpt lat="45.42987" lon="3.41017">
        <ele>546.2</ele>
        <time>2020-09-17T11:46:03Z</time>
      </trkpt>
      <trkpt lat="45.42987" lon="3.41018">
        <ele>546</ele>
        <time>2020-09-17T11:46:04Z</time>
      </trkpt>
      <trkpt lat="45.42987" lon="3.41019">
        <ele>545.5</ele>
        <time>2020-09-17T11:46:05Z</time>
      </trkpt>
      <trkpt lat="45.42987" lon="3.41021">
        <ele>545.4</ele>
        <time>2020-09-17T11:46:06Z</time>
      </trkpt>
      <trkpt lat="45.42987" lon="3.41022">
        <ele>545.1</ele>
        <time>2020-09-17T11:46:07Z</time>
      </trkpt>
      <trkpt lat="45.42987" lon="3.41023">
        <ele>544.9</ele>
        <time>2020-09-17T11:46:08Z</time>
      </trkpt>
      <trkpt lat="45.42987" lon="3.41025">
        <ele>544.7</ele>
        <time>2020-09-17T11:46:09Z</time>
      </trkpt>
      <trkpt lat="45.42987" lon="3.41026">
        <ele>544.3</ele>
        <time>2020-09-17T11:46:10Z</time>
      </trkpt>
      <trkpt lat="45.42987" lon="3.41027">
        <ele>543.9</ele>
        <time>2020-09-17T11:46:11Z</time>
      </trkpt>
      <trkpt lat="45.42987" lon="3.41028">
        <ele>543.7</ele>
        <time>2020-09-17T11:46:12Z</time>
      </trkpt>
      <trkpt lat="45.42987" lon="3.41029">
        <ele>543.5</ele>
        <time>2020-09-17T11:46:13Z</time>
      </trkpt>
      <trkpt lat="45.42988" lon="3.4103">
        <ele>543.3</ele>
        <time>2020-09-17T11:46:14Z</time>
      </trkpt>
      <trkpt lat="45.42988" lon="3.41031">
        <ele>543.2</ele>
        <time>2020-09-17T11:46:15Z</time>
      </trkpt>
      <trkpt lat="45.42988" lon="3.41032">
        <ele>543.1</ele>
        <time>2020-09-17T11:46:16Z</time>
      </trkpt>
      <trkpt lat="45.42987" lon="3.41034">
        <ele>543.1</ele>
        <time>2020-09-17T11:46:17Z</time>
      </trkpt>
      <trkpt lat="45.42987" lon="3.41035">
        <ele>543.1</ele>
        <time>2020-09-17T11:46:18Z</time>
      </trkpt>
      <trkpt lat="45.42987" lon="3.41036">
        <ele>543</ele>
        <time>2020-09-17T11:46:19Z</time>
      </trkpt>
      <trkpt lat="45.42987" lon="3.41037">
        <ele>542.9</ele>
        <time>2020-09-17T11:46:20Z</time>
      </trkpt>
      <trkpt lat="45.42988" lon="3.41038">
        <ele>542.7</ele>
        <time>2020-09-17T11:46:21Z</time>
      </trkpt>
      <trkpt lat="45.42988" lon="3.41039">
        <ele>542.3</ele>
        <time>2020-09-17T11:46:22Z</time>
      </trkpt>
      <trkpt lat="45.42988" lon="3.4104">
        <ele>542.1</ele>
        <time>2020-09-17T11:46:23Z</time>
      </trkpt>
      <trkpt lat="45.42988" lon="3.41041">
        <ele>541.8</ele>
        <time>2020-09-17T11:46:24Z</time>
      </trkpt>
      <trkpt lat="45.42989" lon="3.41042">
        <ele>541.6</ele>
        <time>2020-09-17T11:46:25Z</time>
      </trkpt>
      <trkpt lat="45.42989" lon="3.41043">
        <ele>541.3</ele>
        <time>2020-09-17T11:46:26Z</time>
      </trkpt>
      <trkpt lat="45.42989" lon="3.41044">
        <ele>541.1</ele>
        <time>2020-09-17T11:46:27Z</time>
      </trkpt>
      <trkpt lat="45.42989" lon="3.41045">
        <ele>540.7</ele>
        <time>2020-09-17T11:46:28Z</time>
      </trkpt>
      <trkpt lat="45.4299" lon="3.41046">
        <ele>540.5</ele>
        <time>2020-09-17T11:46:29Z</time>
      </trkpt>
      <trkpt lat="45.4299" lon="3.41046">
        <ele>540.3</ele>
        <time>2020-09-17T11:46:30Z</time>
      </trkpt>
      <trkpt lat="45.4299" lon="3.41047">
        <ele>540.3</ele>
        <time>2020-09-17T11:46:31Z</time>
      </trkpt>
      <trkpt lat="45.4299" lon="3.41048">
        <ele>540</ele>
        <time>2020-09-17T11:46:32Z</time>
      </trkpt>
      <trkpt lat="45.4299" lon="3.41049">
        <ele>539.8</ele>
        <time>2020-09-17T11:46:33Z</time>
      </trkpt>
      <trkpt lat="45.4299" lon="3.41051">
        <ele>539.5</ele>
        <time>2020-09-17T11:46:34Z</time>
      </trkpt>
      <trkpt lat="45.42991" lon="3.41052">
        <ele>539.2</ele>
        <time>2020-09-17T11:46:35Z</time>
      </trkpt>
      <trkpt lat="45.42991" lon="3.41053">
        <ele>539.1</ele>
        <time>2020-09-17T11:46:36Z</time>
      </trkpt>
      <trkpt lat="45.42991" lon="3.41054">
        <ele>539</ele>
        <time>2020-09-17T11:46:37Z</time>
      </trkpt>
      <trkpt lat="45.42991" lon="3.41055">
        <ele>538.9</ele>
        <time>2020-09-17T11:46:38Z</time>
      </trkpt>
      <trkpt lat="45.42991" lon="3.41056">
        <ele>538.9</ele>
        <time>2020-09-17T11:46:39Z</time>
      </trkpt>
      <trkpt lat="45.42991" lon="3.41057">
        <ele>538.8</ele>
        <time>2020-09-17T11:46:40Z</time>
      </trkpt>
      <trkpt lat="45.42991" lon="3.41058">
        <ele>538.6</ele>
        <time>2020-09-17T11:46:41Z</time>
      </trkpt>
      <trkpt lat="45.42991" lon="3.4106">
        <ele>538.4</ele>
        <time>2020-09-17T11:46:42Z</time>
      </trkpt>
      <trkpt lat="45.42992" lon="3.41061">
        <ele>538</ele>
        <time>2020-09-17T11:46:43Z</time>
      </trkpt>
      <trkpt lat="45.42992" lon="3.41062">
        <ele>538</ele>
        <time>2020-09-17T11:46:44Z</time>
      </trkpt>
      <trkpt lat="45.42992" lon="3.41063">
        <ele>537.8</ele>
        <time>2020-09-17T11:46:45Z</time>
      </trkpt>
      <trkpt lat="45.42993" lon="3.41065">
        <ele>537.7</ele>
        <time>2020-09-17T11:46:46Z</time>
      </trkpt>
      <trkpt lat="45.42993" lon="3.41066">
        <ele>537.5</ele>
        <time>2020-09-17T11:46:47Z</time>
      </trkpt>
      <trkpt lat="45.42993" lon="3.41067">
        <ele>537.3</ele>
        <time>2020-09-17T11:46:48Z</time>
      </trkpt>
      <trkpt lat="45.42993" lon="3.41068">
        <ele>537.2</ele>
        <time>2020-09-17T11:46:49Z</time>
      </trkpt>
      <trkpt lat="45.42994" lon="3.41069">
        <ele>537.1</ele>
        <time>2020-09-17T11:46:50Z</time>
      </trkpt>
      <trkpt lat="45.42994" lon="3.4107">
        <ele>537.1</ele>
        <time>2020-09-17T11:46:51Z</time>
      </trkpt>
      <trkpt lat="45.42994" lon="3.41071">
        <ele>536.8</ele>
        <time>2020-09-17T11:46:52Z</time>
      </trkpt>
      <trkpt lat="45.42995" lon="3.41072">
        <ele>536.5</ele>
        <time>2020-09-17T11:46:53Z</time>
      </trkpt>
      <trkpt lat="45.42995" lon="3.41073">
        <ele>536.3</ele>
        <time>2020-09-17T11:46:54Z</time>
      </trkpt>
      <trkpt lat="45.42995" lon="3.41074">
        <ele>536.2</ele>
        <time>2020-09-17T11:46:55Z</time>
      </trkpt>
      <trkpt lat="45.42995" lon="3.41075">
        <ele>536</ele>
        <time>2020-09-17T11:46:56Z</time>
      </trkpt>
      <trkpt lat="45.42996" lon="3.41076">
        <ele>535.8</ele>
        <time>2020-09-17T11:46:57Z</time>
      </trkpt>
      <trkpt lat="45.42996" lon="3.41076">
        <ele>535.7</ele>
        <time>2020-09-17T11:46:58Z</time>
      </trkpt>
      <trkpt lat="45.42996" lon="3.41077">
        <ele>535.6</ele>
        <time>2020-09-17T11:46:59Z</time>
      </trkpt>
      <trkpt lat="45.42996" lon="3.41078">
        <ele>535.4</ele>
        <time>2020-09-17T11:47:00Z</time>
      </trkpt>
      <trkpt lat="45.42997" lon="3.41079">
        <ele>535.3</ele>
        <time>2020-09-17T11:47:01Z</time>
      </trkpt>
      <trkpt lat="45.42997" lon="3.41079">
        <ele>535.3</ele>
        <time>2020-09-17T11:47:02Z</time>
      </trkpt>
      <trkpt lat="45.42997" lon="3.4108">
        <ele>535.2</ele>
        <time>2020-09-17T11:47:03Z</time>
      </trkpt>
      <trkpt lat="45.42997" lon="3.41081">
        <ele>534.8</ele>
        <time>2020-09-17T11:47:04Z</time>
      </trkpt>
      <trkpt lat="45.42998" lon="3.41081">
        <ele>534.6</ele>
        <time>2020-09-17T11:47:05Z</time>
      </trkpt>
      <trkpt lat="45.42998" lon="3.41082">
        <ele>534.3</ele>
        <time>2020-09-17T11:47:06Z</time>
      </trkpt>
      <trkpt lat="45.42999" lon="3.41083">
        <ele>534.1</ele>
        <time>2020-09-17T11:47:07Z</time>
      </trkpt>
      <trkpt lat="45.42999" lon="3.41084">
        <ele>533.9</ele>
        <time>2020-09-17T11:47:08Z</time>
      </trkpt>
      <trkpt lat="45.42999" lon="3.41085">
        <ele>533.7</ele>
        <time>2020-09-17T11:47:09Z</time>
      </trkpt>
      <trkpt lat="45.42999" lon="3.41086">
        <ele>533.6</ele>
        <time>2020-09-17T11:47:10Z</time>
      </trkpt>
      <trkpt lat="45.43" lon="3.41087">
        <ele>533.4</ele>
        <time>2020-09-17T11:47:11Z</time>
      </trkpt>
      <trkpt lat="45.43" lon="3.41088">
        <ele>533.1</ele>
        <time>2020-09-17T11:47:12Z</time>
      </trkpt>
      <trkpt lat="45.43001" lon="3.41089">
        <ele>533.1</ele>
        <time>2020-09-17T11:47:13Z</time>
      </trkpt>
      <trkpt lat="45.43001" lon="3.4109">
        <ele>533.1</ele>
        <time>2020-09-17T11:47:14Z</time>
      </trkpt>
      <trkpt lat="45.43001" lon="3.41091">
        <ele>533.1</ele>
        <time>2020-09-17T11:47:15Z</time>
      </trkpt>
      <trkpt lat="45.43001" lon="3.41091">
        <ele>533.1</ele>
        <time>2020-09-17T11:47:16Z</time>
      </trkpt>
      <trkpt lat="45.43001" lon="3.41092">
        <ele>533.1</ele>
        <time>2020-09-17T11:47:17Z</time>
      </trkpt>
      <trkpt lat="45.43001" lon="3.41093">
        <ele>533.1</ele>
        <time>2020-09-17T11:47:18Z</time>
      </trkpt>
      <trkpt lat="45.43002" lon="3.41094">
        <ele>533.1</ele>
        <time>2020-09-17T11:47:19Z</time>
      </trkpt>
      <trkpt lat="45.43002" lon="3.41095">
        <ele>533.1</ele>
        <time>2020-09-17T11:47:20Z</time>
      </trkpt>
      <trkpt lat="45.43002" lon="3.41096">
        <ele>533.1</ele>
        <time>2020-09-17T11:47:21Z</time>
      </trkpt>
      <trkpt lat="45.43002" lon="3.41097">
        <ele>533</ele>
        <time>2020-09-17T11:47:22Z</time>
      </trkpt>
      <trkpt lat="45.43002" lon="3.41097">
        <ele>533</ele>
        <time>2020-09-17T11:47:23Z</time>
      </trkpt>
      <trkpt lat="45.43003" lon="3.41098">
        <ele>533</ele>
        <time>2020-09-17T11:47:24Z</time>
      </trkpt>
      <trkpt lat="45.43003" lon="3.41098">
        <ele>533</ele>
        <time>2020-09-17T11:47:25Z</time>
      </trkpt>
      <trkpt lat="45.43003" lon="3.41098">
        <ele>533</ele>
        <time>2020-09-17T11:47:26Z</time>
      </trkpt>
      <trkpt lat="45.43003" lon="3.41099">
        <ele>533</ele>
        <time>2020-09-17T11:47:27Z</time>
      </trkpt>
      <trkpt lat="45.43003" lon="3.41099">
        <ele>532.9</ele>
        <time>2020-09-17T11:47:28Z</time>
      </trkpt>
      <trkpt lat="45.43003" lon="3.411">
        <ele>532.9</ele>
        <time>2020-09-17T11:47:29Z</time>
      </trkpt>
      <trkpt lat="45.43004" lon="3.41101">
        <ele>532.9</ele>
        <time>2020-09-17T11:47:30Z</time>
      </trkpt>
      <trkpt lat="45.43004" lon="3.41101">
        <ele>532.9</ele>
        <time>2020-09-17T11:47:31Z</time>
      </trkpt>
      <trkpt lat="45.43004" lon="3.41102">
        <ele>532.9</ele>
        <time>2020-09-17T11:47:32Z</time>
      </trkpt>
      <trkpt lat="45.43004" lon="3.41103">
        <ele>532.9</ele>
        <time>2020-09-17T11:47:33Z</time>
      </trkpt>
      <trkpt lat="45.43004" lon="3.41104">
        <ele>532.9</ele>
        <time>2020-09-17T11:47:34Z</time>
      </trkpt>
      <trkpt lat="45.43004" lon="3.41105">
        <ele>532.9</ele>
        <time>2020-09-17T11:47:35Z</time>
      </trkpt>
      <trkpt lat="45.43005" lon="3.41106">
        <ele>532.8</ele>
        <time>2020-09-17T11:47:36Z</time>
      </trkpt>
      <trkpt lat="45.43005" lon="3.41107">
        <ele>532.8</ele>
        <time>2020-09-17T11:47:37Z</time>
      </trkpt>
      <trkpt lat="45.43005" lon="3.41108">
        <ele>532.8</ele>
        <time>2020-09-17T11:47:38Z</time>
      </trkpt>
      <trkpt lat="45.43005" lon="3.41108">
        <ele>532.8</ele>
        <time>2020-09-17T11:47:39Z</time>
      </trkpt>
      <trkpt lat="45.43005" lon="3.41109">
        <ele>532.9</ele>
        <time>2020-09-17T11:47:40Z</time>
      </trkpt>
      <trkpt lat="45.43005" lon="3.4111">
        <ele>532.9</ele>
        <time>2020-09-17T11:47:41Z</time>
      </trkpt>
      <trkpt lat="45.43005" lon="3.41111">
        <ele>533</ele>
        <time>2020-09-17T11:47:42Z</time>
      </trkpt>
      <trkpt lat="45.43005" lon="3.41112">
        <ele>533</ele>
        <time>2020-09-17T11:47:43Z</time>
      </trkpt>
      <trkpt lat="45.43005" lon="3.41113">
        <ele>533</ele>
        <time>2020-09-17T11:47:44Z</time>
      </trkpt>
      <trkpt lat="45.43005" lon="3.41113">
        <ele>533.1</ele>
        <time>2020-09-17T11:47:45Z</time>
      </trkpt>
      <trkpt lat="45.43004" lon="3.41114">
        <ele>533.2</ele>
        <time>2020-09-17T11:47:46Z</time>
      </trkpt>
      <trkpt lat="45.43005" lon="3.41115">
        <ele>533.2</ele>
        <time>2020-09-17T11:47:47Z</time>
      </trkpt>
      <trkpt lat="45.43005" lon="3.41116">
        <ele>533.2</ele>
        <time>2020-09-17T11:47:48Z</time>
      </trkpt>
      <trkpt lat="45.43005" lon="3.41117">
        <ele>533.2</ele>
        <time>2020-09-17T11:47:49Z</time>
      </trkpt>
      <trkpt lat="45.43005" lon="3.41117">
        <ele>533.2</ele>
        <time>2020-09-17T11:47:50Z</time>
      </trkpt>
      <trkpt lat="45.43005" lon="3.41118">
        <ele>533.2</ele>
        <time>2020-09-17T11:47:51Z</time>
      </trkpt>
      <trkpt lat="45.43005" lon="3.41119">
        <ele>533.2</ele>
        <time>2020-09-17T11:47:52Z</time>
      </trkpt>
      <trkpt lat="45.43005" lon="3.41119">
        <ele>533.2</ele>
        <time>2020-09-17T11:47:53Z</time>
      </trkpt>
      <trkpt lat="45.43005" lon="3.4112">
        <ele>533.2</ele>
        <time>2020-09-17T11:47:54Z</time>
      </trkpt>
      <trkpt lat="45.43005" lon="3.4112">
        <ele>533.2</ele>
        <time>2020-09-17T11:47:55Z</time>
      </trkpt>
      <trkpt lat="45.43005" lon="3.4112">
        <ele>533.2</ele>
        <time>2020-09-17T11:47:56Z</time>
      </trkpt>
      <trkpt lat="45.43005" lon="3.41121">
        <ele>533.2</ele>
        <time>2020-09-17T11:47:57Z</time>
      </trkpt>
      <trkpt lat="45.43006" lon="3.41122">
        <ele>533.2</ele>
        <time>2020-09-17T11:47:58Z</time>
      </trkpt>
      <trkpt lat="45.43006" lon="3.41123">
        <ele>533.2</ele>
        <time>2020-09-17T11:47:59Z</time>
      </trkpt>
      <trkpt lat="45.43006" lon="3.41123">
        <ele>533.1</ele>
        <time>2020-09-17T11:48:00Z</time>
      </trkpt>
      <trkpt lat="45.43006" lon="3.41124">
        <ele>533.1</ele>
        <time>2020-09-17T11:48:01Z</time>
      </trkpt>
      <trkpt lat="45.43007" lon="3.41125">
        <ele>533.1</ele>
        <time>2020-09-17T11:48:02Z</time>
      </trkpt>
      <trkpt lat="45.43007" lon="3.41126">
        <ele>533</ele>
        <time>2020-09-17T11:48:03Z</time>
      </trkpt>
      <trkpt lat="45.43008" lon="3.41126">
        <ele>532.9</ele>
        <time>2020-09-17T11:48:04Z</time>
      </trkpt>
      <trkpt lat="45.43008" lon="3.41127">
        <ele>532.8</ele>
        <time>2020-09-17T11:48:05Z</time>
      </trkpt>
      <trkpt lat="45.43009" lon="3.41127">
        <ele>532.7</ele>
        <time>2020-09-17T11:48:06Z</time>
      </trkpt>
      <trkpt lat="45.43009" lon="3.41127">
        <ele>532.6</ele>
        <time>2020-09-17T11:48:07Z</time>
      </trkpt>
      <trkpt lat="45.43009" lon="3.41128">
        <ele>532.6</ele>
        <time>2020-09-17T11:48:08Z</time>
      </trkpt>
      <trkpt lat="45.4301" lon="3.41128">
        <ele>532.5</ele>
        <time>2020-09-17T11:48:09Z</time>
      </trkpt>
      <trkpt lat="45.4301" lon="3.41128">
        <ele>532.4</ele>
        <time>2020-09-17T11:48:10Z</time>
      </trkpt>
      <trkpt lat="45.43011" lon="3.41128">
        <ele>532.3</ele>
        <time>2020-09-17T11:48:11Z</time>
      </trkpt>
      <trkpt lat="45.43011" lon="3.41129">
        <ele>532.2</ele>
        <time>2020-09-17T11:48:12Z</time>
      </trkpt>
      <trkpt lat="45.43012" lon="3.41129">
        <ele>532.2</ele>
        <time>2020-09-17T11:48:13Z</time>
      </trkpt>
      <trkpt lat="45.43012" lon="3.41129">
        <ele>532.1</ele>
        <time>2020-09-17T11:48:14Z</time>
      </trkpt>
      <trkpt lat="45.43012" lon="3.4113">
        <ele>532</ele>
        <time>2020-09-17T11:48:15Z</time>
      </trkpt>
      <trkpt lat="45.43013" lon="3.4113">
        <ele>531.9</ele>
        <time>2020-09-17T11:48:16Z</time>
      </trkpt>
      <trkpt lat="45.43013" lon="3.4113">
        <ele>531.9</ele>
        <time>2020-09-17T11:48:17Z</time>
      </trkpt>
      <trkpt lat="45.43013" lon="3.41131">
        <ele>531.8</ele>
        <time>2020-09-17T11:48:18Z</time>
      </trkpt>
      <trkpt lat="45.43014" lon="3.41131">
        <ele>531.8</ele>
        <time>2020-09-17T11:48:19Z</time>
      </trkpt>
      <trkpt lat="45.43014" lon="3.41131">
        <ele>531.7</ele>
        <time>2020-09-17T11:48:20Z</time>
      </trkpt>
      <trkpt lat="45.43015" lon="3.41131">
        <ele>531.5</ele>
        <time>2020-09-17T11:48:21Z</time>
      </trkpt>
      <trkpt lat="45.43016" lon="3.41132">
        <ele>531.3</ele>
        <time>2020-09-17T11:48:22Z</time>
      </trkpt>
      <trkpt lat="45.43016" lon="3.41132">
        <ele>531.2</ele>
        <time>2020-09-17T11:48:23Z</time>
      </trkpt>
      <trkpt lat="45.43017" lon="3.41131">
        <ele>531.1</ele>
        <time>2020-09-17T11:48:24Z</time>
      </trkpt>
      <trkpt lat="45.43017" lon="3.41131">
        <ele>531</ele>
        <time>2020-09-17T11:48:25Z</time>
      </trkpt>
      <trkpt lat="45.43018" lon="3.41132">
        <ele>530.8</ele>
        <time>2020-09-17T11:48:26Z</time>
      </trkpt>
      <trkpt lat="45.43019" lon="3.41132">
        <ele>530.7</ele>
        <time>2020-09-17T11:48:27Z</time>
      </trkpt>
      <trkpt lat="45.4302" lon="3.41132">
        <ele>530.5</ele>
        <time>2020-09-17T11:48:28Z</time>
      </trkpt>
      <trkpt lat="45.4302" lon="3.41132">
        <ele>530.4</ele>
        <time>2020-09-17T11:48:29Z</time>
      </trkpt>
      <trkpt lat="45.43021" lon="3.41133">
        <ele>530.3</ele>
        <time>2020-09-17T11:48:30Z</time>
      </trkpt>
      <trkpt lat="45.43021" lon="3.41134">
        <ele>530.2</ele>
        <time>2020-09-17T11:48:31Z</time>
      </trkpt>
      <trkpt lat="45.43022" lon="3.41135">
        <ele>530.2</ele>
        <time>2020-09-17T11:48:32Z</time>
      </trkpt>
      <trkpt lat="45.43022" lon="3.41136">
        <ele>530.2</ele>
        <time>2020-09-17T11:48:33Z</time>
      </trkpt>
      <trkpt lat="45.43022" lon="3.41136">
        <ele>530.2</ele>
        <time>2020-09-17T11:48:34Z</time>
      </trkpt>
      <trkpt lat="45.43022" lon="3.41136">
        <ele>530.2</ele>
        <time>2020-09-17T11:48:35Z</time>
      </trkpt>
      <trkpt lat="45.43022" lon="3.41136">
        <ele>530.1</ele>
        <time>2020-09-17T11:48:36Z</time>
      </trkpt>
      <trkpt lat="45.43023" lon="3.41136">
        <ele>530</ele>
        <time>2020-09-17T11:48:37Z</time>
      </trkpt>
      <trkpt lat="45.43023" lon="3.41137">
        <ele>529.9</ele>
        <time>2020-09-17T11:48:38Z</time>
      </trkpt>
      <trkpt lat="45.43024" lon="3.41137">
        <ele>529.7</ele>
        <time>2020-09-17T11:48:39Z</time>
      </trkpt>
      <trkpt lat="45.43025" lon="3.41137">
        <ele>529.6</ele>
        <time>2020-09-17T11:48:40Z</time>
      </trkpt>
      <trkpt lat="45.43025" lon="3.41137">
        <ele>529.5</ele>
        <time>2020-09-17T11:48:41Z</time>
      </trkpt>
      <trkpt lat="45.43026" lon="3.41137">
        <ele>529.4</ele>
        <time>2020-09-17T11:48:42Z</time>
      </trkpt>
      <trkpt lat="45.43026" lon="3.41137">
        <ele>529.4</ele>
        <time>2020-09-17T11:48:43Z</time>
      </trkpt>
      <trkpt lat="45.43026" lon="3.41137">
        <ele>529.4</ele>
        <time>2020-09-17T11:48:44Z</time>
      </trkpt>
      <trkpt lat="45.43026" lon="3.41137">
        <ele>529.4</ele>
        <time>2020-09-17T11:48:45Z</time>
      </trkpt>
      <trkpt lat="45.43026" lon="3.41137">
        <ele>529.4</ele>
        <time>2020-09-17T11:48:46Z</time>
      </trkpt>
      <trkpt lat="45.43026" lon="3.41137">
        <ele>529.4</ele>
        <time>2020-09-17T11:48:47Z</time>
      </trkpt>
      <trkpt lat="45.43025" lon="3.41137">
        <ele>529.4</ele>
        <time>2020-09-17T11:48:48Z</time>
      </trkpt>
      <trkpt lat="45.43025" lon="3.41136">
        <ele>529.4</ele>
        <time>2020-09-17T11:48:49Z</time>
      </trkpt>
      <trkpt lat="45.43026" lon="3.41137">
        <ele>529.4</ele>
        <time>2020-09-17T11:48:50Z</time>
      </trkpt>
      <trkpt lat="45.43026" lon="3.41137">
        <ele>529.4</ele>
        <time>2020-09-17T11:48:51Z</time>
      </trkpt>
      <trkpt lat="45.43026" lon="3.41137">
        <ele>529.4</ele>
        <time>2020-09-17T11:48:52Z</time>
      </trkpt>
      <trkpt lat="45.43026" lon="3.41137">
        <ele>529.4</ele>
        <time>2020-09-17T11:48:53Z</time>
      </trkpt>
      <trkpt lat="45.43026" lon="3.41137">
        <ele>529.3</ele>
        <time>2020-09-17T11:48:54Z</time>
      </trkpt>
      <trkpt lat="45.43026" lon="3.41137">
        <ele>529.3</ele>
        <time>2020-09-17T11:48:55Z</time>
      </trkpt>
      <trkpt lat="45.43026" lon="3.41136">
        <ele>529.3</ele>
        <time>2020-09-17T11:48:56Z</time>
      </trkpt>
      <trkpt lat="45.43026" lon="3.41136">
        <ele>529.3</ele>
        <time>2020-09-17T11:48:57Z</time>
      </trkpt>
      <trkpt lat="45.43026" lon="3.41136">
        <ele>529.3</ele>
        <time>2020-09-17T11:48:58Z</time>
      </trkpt>
      <trkpt lat="45.43026" lon="3.41136">
        <ele>529.3</ele>
        <time>2020-09-17T11:48:59Z</time>
      </trkpt>
      <trkpt lat="45.43026" lon="3.41136">
        <ele>529.3</ele>
        <time>2020-09-17T11:49:00Z</time>
      </trkpt>
      <trkpt lat="45.43026" lon="3.41136">
        <ele>529.3</ele>
        <time>2020-09-17T11:49:01Z</time>
      </trkpt>
      <trkpt lat="45.43026" lon="3.41136">
        <ele>529.3</ele>
        <time>2020-09-17T11:49:02Z</time>
      </trkpt>
      <trkpt lat="45.43026" lon="3.41136">
        <ele>529.2</ele>
        <time>2020-09-17T11:49:03Z</time>
      </trkpt>
      <trkpt lat="45.43026" lon="3.41136">
        <ele>529.2</ele>
        <time>2020-09-17T11:49:04Z</time>
      </trkpt>
      <trkpt lat="45.43026" lon="3.41136">
        <ele>529.2</ele>
        <time>2020-09-17T11:49:05Z</time>
      </trkpt>
      <trkpt lat="45.43026" lon="3.41136">
        <ele>529.2</ele>
        <time>2020-09-17T11:49:06Z</time>
      </trkpt>
      <trkpt lat="45.43026" lon="3.41136">
        <ele>529.2</ele>
        <time>2020-09-17T11:49:07Z</time>
      </trkpt>
      <trkpt lat="45.43026" lon="3.41136">
        <ele>529.2</ele>
        <time>2020-09-17T11:49:08Z</time>
      </trkpt>
      <trkpt lat="45.43026" lon="3.41136">
        <ele>529.2</ele>
        <time>2020-09-17T11:49:09Z</time>
      </trkpt>
      <trkpt lat="45.43026" lon="3.41136">
        <ele>529.2</ele>
        <time>2020-09-17T11:49:10Z</time>
      </trkpt>
      <trkpt lat="45.43026" lon="3.41136">
        <ele>529.2</ele>
        <time>2020-09-17T11:49:11Z</time>
      </trkpt>
      <trkpt lat="45.43026" lon="3.41136">
        <ele>529.2</ele>
        <time>2020-09-17T11:49:12Z</time>
      </trkpt>
      <trkpt lat="45.43027" lon="3.41136">
        <ele>529.2</ele>
        <time>2020-09-17T11:49:13Z</time>
      </trkpt>
      <trkpt lat="45.43027" lon="3.41136">
        <ele>529.2</ele>
        <time>2020-09-17T11:49:14Z</time>
      </trkpt>
      <trkpt lat="45.43027" lon="3.41136">
        <ele>529.2</ele>
        <time>2020-09-17T11:49:15Z</time>
      </trkpt>
      <trkpt lat="45.43027" lon="3.41136">
        <ele>529.2</ele>
        <time>2020-09-17T11:49:16Z</time>
      </trkpt>
      <trkpt lat="45.43027" lon="3.41136">
        <ele>529.2</ele>
        <time>2020-09-17T11:49:17Z</time>
      </trkpt>
      <trkpt lat="45.43027" lon="3.41136">
        <ele>529.2</ele>
        <time>2020-09-17T11:49:18Z</time>
      </trkpt>
      <trkpt lat="45.43027" lon="3.41136">
        <ele>529.1</ele>
        <time>2020-09-17T11:49:19Z</time>
      </trkpt>
      <trkpt lat="45.43027" lon="3.41136">
        <ele>529.2</ele>
        <time>2020-09-17T11:49:20Z</time>
      </trkpt>
      <trkpt lat="45.43026" lon="3.41136">
        <ele>529.2</ele>
        <time>2020-09-17T11:49:21Z</time>
      </trkpt>
      <trkpt lat="45.43027" lon="3.41136">
        <ele>529.2</ele>
        <time>2020-09-17T11:49:22Z</time>
      </trkpt>
      <trkpt lat="45.43027" lon="3.41136">
        <ele>529.2</ele>
        <time>2020-09-17T11:49:23Z</time>
      </trkpt>
      <trkpt lat="45.43027" lon="3.41136">
        <ele>529.2</ele>
        <time>2020-09-17T11:49:24Z</time>
      </trkpt>
      <trkpt lat="45.43027" lon="3.41136">
        <ele>529.2</ele>
        <time>2020-09-17T11:49:25Z</time>
      </trkpt>
      <trkpt lat="45.43027" lon="3.41136">
        <ele>529.2</ele>
        <time>2020-09-17T11:49:26Z</time>
      </trkpt>
      <trkpt lat="45.43027" lon="3.41135">
        <ele>529.1</ele>
        <time>2020-09-17T11:49:27Z</time>
      </trkpt>
      <trkpt lat="45.43026" lon="3.41135">
        <ele>529.2</ele>
        <time>2020-09-17T11:49:28Z</time>
      </trkpt>
      <trkpt lat="45.43026" lon="3.41135">
        <ele>529.2</ele>
        <time>2020-09-17T11:49:29Z</time>
      </trkpt>
      <trkpt lat="45.43026" lon="3.41135">
        <ele>529.2</ele>
        <time>2020-09-17T11:49:30Z</time>
      </trkpt>
      <trkpt lat="45.43026" lon="3.41135">
        <ele>529.2</ele>
        <time>2020-09-17T11:49:31Z</time>
      </trkpt>
      <trkpt lat="45.43026" lon="3.41135">
        <ele>529.2</ele>
        <time>2020-09-17T11:49:32Z</time>
      </trkpt>
      <trkpt lat="45.43026" lon="3.41135">
        <ele>529.2</ele>
        <time>2020-09-17T11:49:33Z</time>
      </trkpt>
      <trkpt lat="45.43026" lon="3.41135">
        <ele>529.2</ele>
        <time>2020-09-17T11:49:34Z</time>
      </trkpt>
      <trkpt lat="45.43026" lon="3.41135">
        <ele>529.2</ele>
        <time>2020-09-17T11:49:35Z</time>
      </trkpt>
      <trkpt lat="45.43026" lon="3.41135">
        <ele>529.2</ele>
        <time>2020-09-17T11:49:36Z</time>
      </trkpt>
      <trkpt lat="45.43026" lon="3.41135">
        <ele>529.2</ele>
        <time>2020-09-17T11:49:37Z</time>
      </trkpt>
      <trkpt lat="45.43026" lon="3.41135">
        <ele>529.2</ele>
        <time>2020-09-17T11:49:38Z</time>
      </trkpt>
      <trkpt lat="45.43026" lon="3.41135">
        <ele>529.2</ele>
        <time>2020-09-17T11:49:39Z</time>
      </trkpt>
      <trkpt lat="45.43026" lon="3.41135">
        <ele>529.2</ele>
        <time>2020-09-17T11:49:40Z</time>
      </trkpt>
      <trkpt lat="45.43026" lon="3.41135">
        <ele>529.2</ele>
        <time>2020-09-17T11:49:41Z</time>
      </trkpt>
      <trkpt lat="45.43026" lon="3.41135">
        <ele>529.2</ele>
        <time>2020-09-17T11:49:42Z</time>
      </trkpt>
      <trkpt lat="45.43026" lon="3.41135">
        <ele>529.2</ele>
        <time>2020-09-17T11:49:43Z</time>
      </trkpt>
      <trkpt lat="45.43026" lon="3.41135">
        <ele>529.2</ele>
        <time>2020-09-17T11:49:44Z</time>
      </trkpt>
      <trkpt lat="45.43027" lon="3.41135">
        <ele>529.1</ele>
        <time>2020-09-17T11:49:45Z</time>
      </trkpt>
      <trkpt lat="45.43027" lon="3.41135">
        <ele>529.1</ele>
        <time>2020-09-17T11:49:46Z</time>
      </trkpt>
      <trkpt lat="45.43027" lon="3.41135">
        <ele>529.1</ele>
        <time>2020-09-17T11:49:47Z</time>
      </trkpt>
      <trkpt lat="45.43027" lon="3.41135">
        <ele>529.1</ele>
        <time>2020-09-17T11:49:48Z</time>
      </trkpt>
      <trkpt lat="45.43027" lon="3.41135">
        <ele>529.1</ele>
        <time>2020-09-17T11:49:49Z</time>
      </trkpt>
      <trkpt lat="45.43027" lon="3.41135">
        <ele>529.1</ele>
        <time>2020-09-17T11:49:50Z</time>
      </trkpt>
      <trkpt lat="45.43027" lon="3.41135">
        <ele>529.1</ele>
        <time>2020-09-17T11:49:51Z</time>
      </trkpt>
      <trkpt lat="45.43027" lon="3.41135">
        <ele>529.1</ele>
        <time>2020-09-17T11:49:52Z</time>
      </trkpt>
      <trkpt lat="45.43027" lon="3.41135">
        <ele>529.1</ele>
        <time>2020-09-17T11:49:53Z</time>
      </trkpt>
      <trkpt lat="45.43027" lon="3.41135">
        <ele>529.1</ele>
        <time>2020-09-17T11:49:54Z</time>
      </trkpt>
      <trkpt lat="45.43027" lon="3.41135">
        <ele>529.1</ele>
        <time>2020-09-17T11:49:55Z</time>
      </trkpt>
      <trkpt lat="45.43027" lon="3.41135">
        <ele>529.1</ele>
        <time>2020-09-17T11:49:56Z</time>
      </trkpt>
      <trkpt lat="45.43027" lon="3.41135">
        <ele>529.1</ele>
        <time>2020-09-17T11:49:57Z</time>
      </trkpt>
      <trkpt lat="45.43026" lon="3.41135">
        <ele>529.2</ele>
        <time>2020-09-17T11:49:58Z</time>
      </trkpt>
      <trkpt lat="45.43026" lon="3.41135">
        <ele>529.2</ele>
        <time>2020-09-17T11:49:59Z</time>
      </trkpt>
      <trkpt lat="45.43026" lon="3.41135">
        <ele>529.2</ele>
        <time>2020-09-17T11:50:00Z</time>
      </trkpt>
      <trkpt lat="45.43026" lon="3.41135">
        <ele>529.2</ele>
        <time>2020-09-17T11:50:01Z</time>
      </trkpt>
      <trkpt lat="45.43027" lon="3.41136">
        <ele>529.2</ele>
        <time>2020-09-17T11:50:02Z</time>
      </trkpt>
      <trkpt lat="45.43027" lon="3.41136">
        <ele>529.1</ele>
        <time>2020-09-17T11:50:03Z</time>
      </trkpt>
      <trkpt lat="45.43027" lon="3.41137">
        <ele>529</ele>
        <time>2020-09-17T11:50:04Z</time>
      </trkpt>
      <trkpt lat="45.43028" lon="3.41138">
        <ele>529</ele>
        <time>2020-09-17T11:50:05Z</time>
      </trkpt>
      <trkpt lat="45.43028" lon="3.41139">
        <ele>529</ele>
        <time>2020-09-17T11:50:06Z</time>
      </trkpt>
      <trkpt lat="45.43029" lon="3.41141">
        <ele>529</ele>
        <time>2020-09-17T11:50:07Z</time>
      </trkpt>
      <trkpt lat="45.43029" lon="3.41142">
        <ele>529</ele>
        <time>2020-09-17T11:50:08Z</time>
      </trkpt>
      <trkpt lat="45.4303" lon="3.41143">
        <ele>529</ele>
        <time>2020-09-17T11:50:09Z</time>
      </trkpt>
      <trkpt lat="45.4303" lon="3.41144">
        <ele>529</ele>
        <time>2020-09-17T11:50:10Z</time>
      </trkpt>
      <trkpt lat="45.4303" lon="3.41145">
        <ele>529</ele>
        <time>2020-09-17T11:50:11Z</time>
      </trkpt>
      <trkpt lat="45.43031" lon="3.41146">
        <ele>529</ele>
        <time>2020-09-17T11:50:12Z</time>
      </trkpt>
      <trkpt lat="45.43031" lon="3.41147">
        <ele>529</ele>
        <time>2020-09-17T11:50:13Z</time>
      </trkpt>
      <trkpt lat="45.43032" lon="3.41148">
        <ele>529</ele>
        <time>2020-09-17T11:50:14Z</time>
      </trkpt>
      <trkpt lat="45.43033" lon="3.41149">
        <ele>529</ele>
        <time>2020-09-17T11:50:15Z</time>
      </trkpt>
      <trkpt lat="45.43033" lon="3.4115">
        <ele>529</ele>
        <time>2020-09-17T11:50:16Z</time>
      </trkpt>
      <trkpt lat="45.43034" lon="3.41151">
        <ele>529</ele>
        <time>2020-09-17T11:50:17Z</time>
      </trkpt>
      <trkpt lat="45.43035" lon="3.41152">
        <ele>529</ele>
        <time>2020-09-17T11:50:18Z</time>
      </trkpt>
      <trkpt lat="45.43035" lon="3.41153">
        <ele>529</ele>
        <time>2020-09-17T11:50:19Z</time>
      </trkpt>
      <trkpt lat="45.43036" lon="3.41154">
        <ele>529</ele>
        <time>2020-09-17T11:50:20Z</time>
      </trkpt>
      <trkpt lat="45.43037" lon="3.41155">
        <ele>529</ele>
        <time>2020-09-17T11:50:21Z</time>
      </trkpt>
      <trkpt lat="45.43037" lon="3.41156">
        <ele>529</ele>
        <time>2020-09-17T11:50:22Z</time>
      </trkpt>
      <trkpt lat="45.43038" lon="3.41157">
        <ele>529</ele>
        <time>2020-09-17T11:50:23Z</time>
      </trkpt>
      <trkpt lat="45.43039" lon="3.41158">
        <ele>529</ele>
        <time>2020-09-17T11:50:24Z</time>
      </trkpt>
      <trkpt lat="45.43039" lon="3.41159">
        <ele>529</ele>
        <time>2020-09-17T11:50:25Z</time>
      </trkpt>
      <trkpt lat="45.4304" lon="3.41159">
        <ele>529</ele>
        <time>2020-09-17T11:50:26Z</time>
      </trkpt>
      <trkpt lat="45.43041" lon="3.4116">
        <ele>529</ele>
        <time>2020-09-17T11:50:27Z</time>
      </trkpt>
      <trkpt lat="45.43041" lon="3.41161">
        <ele>529</ele>
        <time>2020-09-17T11:50:28Z</time>
      </trkpt>
      <trkpt lat="45.43042" lon="3.41161">
        <ele>529</ele>
        <time>2020-09-17T11:50:29Z</time>
      </trkpt>
      <trkpt lat="45.43043" lon="3.41162">
        <ele>529</ele>
        <time>2020-09-17T11:50:30Z</time>
      </trkpt>
      <trkpt lat="45.43043" lon="3.41163">
        <ele>529</ele>
        <time>2020-09-17T11:50:31Z</time>
      </trkpt>
      <trkpt lat="45.43044" lon="3.41163">
        <ele>529</ele>
        <time>2020-09-17T11:50:32Z</time>
      </trkpt>
      <trkpt lat="45.43045" lon="3.41164">
        <ele>529</ele>
        <time>2020-09-17T11:50:33Z</time>
      </trkpt>
      <trkpt lat="45.43046" lon="3.41165">
        <ele>529</ele>
        <time>2020-09-17T11:50:34Z</time>
      </trkpt>
      <trkpt lat="45.43047" lon="3.41166">
        <ele>529</ele>
        <time>2020-09-17T11:50:35Z</time>
      </trkpt>
      <trkpt lat="45.43048" lon="3.41166">
        <ele>529</ele>
        <time>2020-09-17T11:50:36Z</time>
      </trkpt>
      <trkpt lat="45.43049" lon="3.41167">
        <ele>529</ele>
        <time>2020-09-17T11:50:37Z</time>
      </trkpt>
      <trkpt lat="45.4305" lon="3.41167">
        <ele>529</ele>
        <time>2020-09-17T11:50:38Z</time>
      </trkpt>
      <trkpt lat="45.43051" lon="3.41168">
        <ele>529.1</ele>
        <time>2020-09-17T11:50:39Z</time>
      </trkpt>
      <trkpt lat="45.43052" lon="3.41168">
        <ele>529.1</ele>
        <time>2020-09-17T11:50:40Z</time>
      </trkpt>
      <trkpt lat="45.43053" lon="3.41169">
        <ele>529.1</ele>
        <time>2020-09-17T11:50:41Z</time>
      </trkpt>
      <trkpt lat="45.43054" lon="3.41169">
        <ele>529.1</ele>
        <time>2020-09-17T11:50:42Z</time>
      </trkpt>
      <trkpt lat="45.43055" lon="3.41169">
        <ele>529.1</ele>
        <time>2020-09-17T11:50:43Z</time>
      </trkpt>
      <trkpt lat="45.43055" lon="3.4117">
        <ele>529.1</ele>
        <time>2020-09-17T11:50:44Z</time>
      </trkpt>
      <trkpt lat="45.43056" lon="3.4117">
        <ele>529.2</ele>
        <time>2020-09-17T11:50:45Z</time>
      </trkpt>
      <trkpt lat="45.43057" lon="3.41171">
        <ele>529.2</ele>
        <time>2020-09-17T11:50:46Z</time>
      </trkpt>
      <trkpt lat="45.43059" lon="3.41172">
        <ele>529.3</ele>
        <time>2020-09-17T11:50:47Z</time>
      </trkpt>
      <trkpt lat="45.4306" lon="3.41172">
        <ele>529.3</ele>
        <time>2020-09-17T11:50:48Z</time>
      </trkpt>
      <trkpt lat="45.4306" lon="3.41173">
        <ele>529.4</ele>
        <time>2020-09-17T11:50:49Z</time>
      </trkpt>
      <trkpt lat="45.43061" lon="3.41174">
        <ele>529.4</ele>
        <time>2020-09-17T11:50:50Z</time>
      </trkpt>
      <trkpt lat="45.43062" lon="3.41174">
        <ele>529.5</ele>
        <time>2020-09-17T11:50:51Z</time>
      </trkpt>
      <trkpt lat="45.43063" lon="3.41175">
        <ele>529.5</ele>
        <time>2020-09-17T11:50:52Z</time>
      </trkpt>
      <trkpt lat="45.43064" lon="3.41176">
        <ele>529.5</ele>
        <time>2020-09-17T11:50:53Z</time>
      </trkpt>
      <trkpt lat="45.43065" lon="3.41176">
        <ele>529.6</ele>
        <time>2020-09-17T11:50:54Z</time>
      </trkpt>
      <trkpt lat="45.43066" lon="3.41177">
        <ele>529.6</ele>
        <time>2020-09-17T11:50:55Z</time>
      </trkpt>
      <trkpt lat="45.43067" lon="3.41177">
        <ele>529.6</ele>
        <time>2020-09-17T11:50:56Z</time>
      </trkpt>
      <trkpt lat="45.43068" lon="3.41178">
        <ele>529.7</ele>
        <time>2020-09-17T11:50:57Z</time>
      </trkpt>
      <trkpt lat="45.43068" lon="3.41179">
        <ele>529.7</ele>
        <time>2020-09-17T11:50:58Z</time>
      </trkpt>
      <trkpt lat="45.43069" lon="3.41179">
        <ele>529.7</ele>
        <time>2020-09-17T11:50:59Z</time>
      </trkpt>
      <trkpt lat="45.4307" lon="3.4118">
        <ele>529.7</ele>
        <time>2020-09-17T11:51:00Z</time>
      </trkpt>
      <trkpt lat="45.43071" lon="3.4118">
        <ele>529.8</ele>
        <time>2020-09-17T11:51:01Z</time>
      </trkpt>
      <trkpt lat="45.43072" lon="3.41181">
        <ele>529.8</ele>
        <time>2020-09-17T11:51:02Z</time>
      </trkpt>
      <trkpt lat="45.43073" lon="3.41181">
        <ele>529.8</ele>
        <time>2020-09-17T11:51:03Z</time>
      </trkpt>
      <trkpt lat="45.43074" lon="3.41181">
        <ele>529.8</ele>
        <time>2020-09-17T11:51:04Z</time>
      </trkpt>
      <trkpt lat="45.43075" lon="3.41182">
        <ele>529.9</ele>
        <time>2020-09-17T11:51:05Z</time>
      </trkpt>
      <trkpt lat="45.43076" lon="3.41182">
        <ele>529.9</ele>
        <time>2020-09-17T11:51:06Z</time>
      </trkpt>
      <trkpt lat="45.43077" lon="3.41183">
        <ele>529.9</ele>
        <time>2020-09-17T11:51:07Z</time>
      </trkpt>
      <trkpt lat="45.43078" lon="3.41184">
        <ele>529.9</ele>
        <time>2020-09-17T11:51:08Z</time>
      </trkpt>
      <trkpt lat="45.43079" lon="3.41184">
        <ele>529.9</ele>
        <time>2020-09-17T11:51:09Z</time>
      </trkpt>
      <trkpt lat="45.43081" lon="3.41185">
        <ele>530</ele>
        <time>2020-09-17T11:51:10Z</time>
      </trkpt>
      <trkpt lat="45.43082" lon="3.41185">
        <ele>530</ele>
        <time>2020-09-17T11:51:11Z</time>
      </trkpt>
      <trkpt lat="45.43083" lon="3.41186">
        <ele>530</ele>
        <time>2020-09-17T11:51:12Z</time>
      </trkpt>
      <trkpt lat="45.43084" lon="3.41187">
        <ele>530</ele>
        <time>2020-09-17T11:51:13Z</time>
      </trkpt>
      <trkpt lat="45.43085" lon="3.41187">
        <ele>530.1</ele>
        <time>2020-09-17T11:51:14Z</time>
      </trkpt>
      <trkpt lat="45.43086" lon="3.41188">
        <ele>530.1</ele>
        <time>2020-09-17T11:51:15Z</time>
      </trkpt>
      <trkpt lat="45.43087" lon="3.41189">
        <ele>530.2</ele>
        <time>2020-09-17T11:51:16Z</time>
      </trkpt>
      <trkpt lat="45.43088" lon="3.41189">
        <ele>530.2</ele>
        <time>2020-09-17T11:51:17Z</time>
      </trkpt>
      <trkpt lat="45.43089" lon="3.4119">
        <ele>530.3</ele>
        <time>2020-09-17T11:51:18Z</time>
      </trkpt>
      <trkpt lat="45.4309" lon="3.4119">
        <ele>530.3</ele>
        <time>2020-09-17T11:51:19Z</time>
      </trkpt>
      <trkpt lat="45.43091" lon="3.41191">
        <ele>530.3</ele>
        <time>2020-09-17T11:51:20Z</time>
      </trkpt>
      <trkpt lat="45.43092" lon="3.41191">
        <ele>530.4</ele>
        <time>2020-09-17T11:51:21Z</time>
      </trkpt>
      <trkpt lat="45.43093" lon="3.41192">
        <ele>530.4</ele>
        <time>2020-09-17T11:51:22Z</time>
      </trkpt>
      <trkpt lat="45.43094" lon="3.41193">
        <ele>530.4</ele>
        <time>2020-09-17T11:51:23Z</time>
      </trkpt>
      <trkpt lat="45.43095" lon="3.41193">
        <ele>530.4</ele>
        <time>2020-09-17T11:51:24Z</time>
      </trkpt>
      <trkpt lat="45.43096" lon="3.41194">
        <ele>530.5</ele>
        <time>2020-09-17T11:51:25Z</time>
      </trkpt>
      <trkpt lat="45.43097" lon="3.41194">
        <ele>530.5</ele>
        <time>2020-09-17T11:51:26Z</time>
      </trkpt>
      <trkpt lat="45.43098" lon="3.41194">
        <ele>530.5</ele>
        <time>2020-09-17T11:51:27Z</time>
      </trkpt>
      <trkpt lat="45.43099" lon="3.41195">
        <ele>530.6</ele>
        <time>2020-09-17T11:51:28Z</time>
      </trkpt>
      <trkpt lat="45.431" lon="3.41195">
        <ele>530.6</ele>
        <time>2020-09-17T11:51:29Z</time>
      </trkpt>
      <trkpt lat="45.43101" lon="3.41195">
        <ele>530.7</ele>
        <time>2020-09-17T11:51:30Z</time>
      </trkpt>
      <trkpt lat="45.43102" lon="3.41196">
        <ele>530.7</ele>
        <time>2020-09-17T11:51:31Z</time>
      </trkpt>
      <trkpt lat="45.43103" lon="3.41197">
        <ele>530.8</ele>
        <time>2020-09-17T11:51:32Z</time>
      </trkpt>
      <trkpt lat="45.43104" lon="3.41197">
        <ele>530.8</ele>
        <time>2020-09-17T11:51:33Z</time>
      </trkpt>
      <trkpt lat="45.43105" lon="3.41198">
        <ele>530.9</ele>
        <time>2020-09-17T11:51:34Z</time>
      </trkpt>
      <trkpt lat="45.43106" lon="3.41198">
        <ele>530.9</ele>
        <time>2020-09-17T11:51:35Z</time>
      </trkpt>
      <trkpt lat="45.43107" lon="3.41198">
        <ele>530.9</ele>
        <time>2020-09-17T11:51:36Z</time>
      </trkpt>
      <trkpt lat="45.43108" lon="3.41198">
        <ele>530.9</ele>
        <time>2020-09-17T11:51:37Z</time>
      </trkpt>
      <trkpt lat="45.43109" lon="3.41198">
        <ele>531</ele>
        <time>2020-09-17T11:51:38Z</time>
      </trkpt>
      <trkpt lat="45.4311" lon="3.41198">
        <ele>531</ele>
        <time>2020-09-17T11:51:39Z</time>
      </trkpt>
      <trkpt lat="45.43111" lon="3.41198">
        <ele>531</ele>
        <time>2020-09-17T11:51:40Z</time>
      </trkpt>
      <trkpt lat="45.43112" lon="3.41198">
        <ele>531</ele>
        <time>2020-09-17T11:51:41Z</time>
      </trkpt>
      <trkpt lat="45.43113" lon="3.41198">
        <ele>531.1</ele>
        <time>2020-09-17T11:51:42Z</time>
      </trkpt>
      <trkpt lat="45.43114" lon="3.41198">
        <ele>531.1</ele>
        <time>2020-09-17T11:51:43Z</time>
      </trkpt>
      <trkpt lat="45.43115" lon="3.41198">
        <ele>531.1</ele>
        <time>2020-09-17T11:51:44Z</time>
      </trkpt>
      <trkpt lat="45.43116" lon="3.41199">
        <ele>531.2</ele>
        <time>2020-09-17T11:51:45Z</time>
      </trkpt>
      <trkpt lat="45.43117" lon="3.41199">
        <ele>531.2</ele>
        <time>2020-09-17T11:51:46Z</time>
      </trkpt>
      <trkpt lat="45.43119" lon="3.41199">
        <ele>531.3</ele>
        <time>2020-09-17T11:51:47Z</time>
      </trkpt>
      <trkpt lat="45.4312" lon="3.41199">
        <ele>531.3</ele>
        <time>2020-09-17T11:51:48Z</time>
      </trkpt>
      <trkpt lat="45.43121" lon="3.412">
        <ele>531.3</ele>
        <time>2020-09-17T11:51:49Z</time>
      </trkpt>
      <trkpt lat="45.43122" lon="3.412">
        <ele>531.4</ele>
        <time>2020-09-17T11:51:50Z</time>
      </trkpt>
      <trkpt lat="45.43123" lon="3.412">
        <ele>531.4</ele>
        <time>2020-09-17T11:51:51Z</time>
      </trkpt>
      <trkpt lat="45.43124" lon="3.41201">
        <ele>531.5</ele>
        <time>2020-09-17T11:51:52Z</time>
      </trkpt>
      <trkpt lat="45.43125" lon="3.41201">
        <ele>531.5</ele>
        <time>2020-09-17T11:51:53Z</time>
      </trkpt>
      <trkpt lat="45.43126" lon="3.41201">
        <ele>531.5</ele>
        <time>2020-09-17T11:51:54Z</time>
      </trkpt>
      <trkpt lat="45.43127" lon="3.41201">
        <ele>531.6</ele>
        <time>2020-09-17T11:51:55Z</time>
      </trkpt>
      <trkpt lat="45.43128" lon="3.41201">
        <ele>531.6</ele>
        <time>2020-09-17T11:51:56Z</time>
      </trkpt>
      <trkpt lat="45.43129" lon="3.41201">
        <ele>531.7</ele>
        <time>2020-09-17T11:51:57Z</time>
      </trkpt>
      <trkpt lat="45.4313" lon="3.41201">
        <ele>531.7</ele>
        <time>2020-09-17T11:51:58Z</time>
      </trkpt>
      <trkpt lat="45.43131" lon="3.41201">
        <ele>531.7</ele>
        <time>2020-09-17T11:51:59Z</time>
      </trkpt>
      <trkpt lat="45.43132" lon="3.41201">
        <ele>531.8</ele>
        <time>2020-09-17T11:52:00Z</time>
      </trkpt>
      <trkpt lat="45.43133" lon="3.41201">
        <ele>531.8</ele>
        <time>2020-09-17T11:52:01Z</time>
      </trkpt>
      <trkpt lat="45.43134" lon="3.41201">
        <ele>531.8</ele>
        <time>2020-09-17T11:52:02Z</time>
      </trkpt>
      <trkpt lat="45.43135" lon="3.41201">
        <ele>531.9</ele>
        <time>2020-09-17T11:52:03Z</time>
      </trkpt>
      <trkpt lat="45.43136" lon="3.41201">
        <ele>531.9</ele>
        <time>2020-09-17T11:52:04Z</time>
      </trkpt>
      <trkpt lat="45.43137" lon="3.412">
        <ele>531.9</ele>
        <time>2020-09-17T11:52:05Z</time>
      </trkpt>
      <trkpt lat="45.43138" lon="3.412">
        <ele>532</ele>
        <time>2020-09-17T11:52:06Z</time>
      </trkpt>
      <trkpt lat="45.43139" lon="3.41199">
        <ele>532</ele>
        <time>2020-09-17T11:52:07Z</time>
      </trkpt>
      <trkpt lat="45.4314" lon="3.41199">
        <ele>532</ele>
        <time>2020-09-17T11:52:08Z</time>
      </trkpt>
      <trkpt lat="45.43141" lon="3.41199">
        <ele>532</ele>
        <time>2020-09-17T11:52:09Z</time>
      </trkpt>
      <trkpt lat="45.43142" lon="3.41198">
        <ele>532</ele>
        <time>2020-09-17T11:52:10Z</time>
      </trkpt>
      <trkpt lat="45.43144" lon="3.41198">
        <ele>532</ele>
        <time>2020-09-17T11:52:11Z</time>
      </trkpt>
      <trkpt lat="45.43144" lon="3.41197">
        <ele>532</ele>
        <time>2020-09-17T11:52:12Z</time>
      </trkpt>
      <trkpt lat="45.43146" lon="3.41196">
        <ele>532</ele>
        <time>2020-09-17T11:52:13Z</time>
      </trkpt>
      <trkpt lat="45.43146" lon="3.41196">
        <ele>532</ele>
        <time>2020-09-17T11:52:14Z</time>
      </trkpt>
      <trkpt lat="45.43147" lon="3.41195">
        <ele>532</ele>
        <time>2020-09-17T11:52:15Z</time>
      </trkpt>
      <trkpt lat="45.43148" lon="3.41194">
        <ele>532</ele>
        <time>2020-09-17T11:52:16Z</time>
      </trkpt>
      <trkpt lat="45.4315" lon="3.41194">
        <ele>532.2</ele>
        <time>2020-09-17T11:52:17Z</time>
      </trkpt>
      <trkpt lat="45.43151" lon="3.41193">
        <ele>532.4</ele>
        <time>2020-09-17T11:52:18Z</time>
      </trkpt>
      <trkpt lat="45.43151" lon="3.41193">
        <ele>532.5</ele>
        <time>2020-09-17T11:52:19Z</time>
      </trkpt>
      <trkpt lat="45.43152" lon="3.41192">
        <ele>532.7</ele>
        <time>2020-09-17T11:52:20Z</time>
      </trkpt>
      <trkpt lat="45.43153" lon="3.41192">
        <ele>532.8</ele>
        <time>2020-09-17T11:52:21Z</time>
      </trkpt>
      <trkpt lat="45.43154" lon="3.41191">
        <ele>533</ele>
        <time>2020-09-17T11:52:22Z</time>
      </trkpt>
      <trkpt lat="45.43155" lon="3.41191">
        <ele>533.1</ele>
        <time>2020-09-17T11:52:23Z</time>
      </trkpt>
      <trkpt lat="45.43156" lon="3.4119">
        <ele>533.3</ele>
        <time>2020-09-17T11:52:24Z</time>
      </trkpt>
      <trkpt lat="45.43157" lon="3.4119">
        <ele>533.5</ele>
        <time>2020-09-17T11:52:25Z</time>
      </trkpt>
      <trkpt lat="45.43159" lon="3.4119">
        <ele>533.6</ele>
        <time>2020-09-17T11:52:26Z</time>
      </trkpt>
      <trkpt lat="45.4316" lon="3.41189">
        <ele>533.7</ele>
        <time>2020-09-17T11:52:27Z</time>
      </trkpt>
      <trkpt lat="45.4316" lon="3.41189">
        <ele>533.8</ele>
        <time>2020-09-17T11:52:28Z</time>
      </trkpt>
      <trkpt lat="45.43161" lon="3.41189">
        <ele>533.8</ele>
        <time>2020-09-17T11:52:29Z</time>
      </trkpt>
      <trkpt lat="45.43162" lon="3.41189">
        <ele>533.8</ele>
        <time>2020-09-17T11:52:30Z</time>
      </trkpt>
      <trkpt lat="45.43163" lon="3.41189">
        <ele>533.8</ele>
        <time>2020-09-17T11:52:31Z</time>
      </trkpt>
      <trkpt lat="45.43164" lon="3.41189">
        <ele>533.9</ele>
        <time>2020-09-17T11:52:32Z</time>
      </trkpt>
      <trkpt lat="45.43165" lon="3.41189">
        <ele>533.9</ele>
        <time>2020-09-17T11:52:33Z</time>
      </trkpt>
      <trkpt lat="45.43167" lon="3.41189">
        <ele>534</ele>
        <time>2020-09-17T11:52:34Z</time>
      </trkpt>
      <trkpt lat="45.43167" lon="3.41189">
        <ele>534</ele>
        <time>2020-09-17T11:52:35Z</time>
      </trkpt>
      <trkpt lat="45.43168" lon="3.41189">
        <ele>534.2</ele>
        <time>2020-09-17T11:52:36Z</time>
      </trkpt>
      <trkpt lat="45.43169" lon="3.41188">
        <ele>534.3</ele>
        <time>2020-09-17T11:52:37Z</time>
      </trkpt>
      <trkpt lat="45.4317" lon="3.41188">
        <ele>534.5</ele>
        <time>2020-09-17T11:52:38Z</time>
      </trkpt>
      <trkpt lat="45.43171" lon="3.41187">
        <ele>534.6</ele>
        <time>2020-09-17T11:52:39Z</time>
      </trkpt>
      <trkpt lat="45.43172" lon="3.41187">
        <ele>534.7</ele>
        <time>2020-09-17T11:52:40Z</time>
      </trkpt>
      <trkpt lat="45.43173" lon="3.41187">
        <ele>534.7</ele>
        <time>2020-09-17T11:52:41Z</time>
      </trkpt>
      <trkpt lat="45.43173" lon="3.41187">
        <ele>534.9</ele>
        <time>2020-09-17T11:52:42Z</time>
      </trkpt>
      <trkpt lat="45.43174" lon="3.41186">
        <ele>535</ele>
        <time>2020-09-17T11:52:43Z</time>
      </trkpt>
      <trkpt lat="45.43175" lon="3.41186">
        <ele>535.1</ele>
        <time>2020-09-17T11:52:44Z</time>
      </trkpt>
      <trkpt lat="45.43176" lon="3.41186">
        <ele>535.2</ele>
        <time>2020-09-17T11:52:45Z</time>
      </trkpt>
      <trkpt lat="45.43177" lon="3.41185">
        <ele>535.3</ele>
        <time>2020-09-17T11:52:46Z</time>
      </trkpt>
      <trkpt lat="45.43178" lon="3.41185">
        <ele>535.5</ele>
        <time>2020-09-17T11:52:47Z</time>
      </trkpt>
      <trkpt lat="45.43178" lon="3.41184">
        <ele>535.7</ele>
        <time>2020-09-17T11:52:48Z</time>
      </trkpt>
      <trkpt lat="45.43179" lon="3.41184">
        <ele>535.8</ele>
        <time>2020-09-17T11:52:49Z</time>
      </trkpt>
      <trkpt lat="45.4318" lon="3.41183">
        <ele>535.9</ele>
        <time>2020-09-17T11:52:50Z</time>
      </trkpt>
      <trkpt lat="45.4318" lon="3.41183">
        <ele>536</ele>
        <time>2020-09-17T11:52:51Z</time>
      </trkpt>
      <trkpt lat="45.43181" lon="3.41183">
        <ele>536.1</ele>
        <time>2020-09-17T11:52:52Z</time>
      </trkpt>
      <trkpt lat="45.43182" lon="3.41182">
        <ele>536.2</ele>
        <time>2020-09-17T11:52:53Z</time>
      </trkpt>
      <trkpt lat="45.43182" lon="3.41182">
        <ele>536.4</ele>
        <time>2020-09-17T11:52:54Z</time>
      </trkpt>
      <trkpt lat="45.43183" lon="3.41181">
        <ele>536.5</ele>
        <time>2020-09-17T11:52:55Z</time>
      </trkpt>
      <trkpt lat="45.43184" lon="3.41181">
        <ele>536.6</ele>
        <time>2020-09-17T11:52:56Z</time>
      </trkpt>
      <trkpt lat="45.43184" lon="3.41181">
        <ele>536.7</ele>
        <time>2020-09-17T11:52:57Z</time>
      </trkpt>
      <trkpt lat="45.43185" lon="3.4118">
        <ele>536.7</ele>
        <time>2020-09-17T11:52:58Z</time>
      </trkpt>
      <trkpt lat="45.43186" lon="3.4118">
        <ele>536.7</ele>
        <time>2020-09-17T11:52:59Z</time>
      </trkpt>
      <trkpt lat="45.43186" lon="3.4118">
        <ele>536.8</ele>
        <time>2020-09-17T11:53:00Z</time>
      </trkpt>
      <trkpt lat="45.43187" lon="3.4118">
        <ele>536.9</ele>
        <time>2020-09-17T11:53:01Z</time>
      </trkpt>
      <trkpt lat="45.43188" lon="3.41179">
        <ele>537</ele>
        <time>2020-09-17T11:53:02Z</time>
      </trkpt>
      <trkpt lat="45.43188" lon="3.41179">
        <ele>537</ele>
        <time>2020-09-17T11:53:03Z</time>
      </trkpt>
      <trkpt lat="45.43189" lon="3.41179">
        <ele>537.1</ele>
        <time>2020-09-17T11:53:04Z</time>
      </trkpt>
      <trkpt lat="45.4319" lon="3.41178">
        <ele>537.2</ele>
        <time>2020-09-17T11:53:05Z</time>
      </trkpt>
      <trkpt lat="45.4319" lon="3.41178">
        <ele>537.3</ele>
        <time>2020-09-17T11:53:06Z</time>
      </trkpt>
      <trkpt lat="45.43191" lon="3.41178">
        <ele>537.4</ele>
        <time>2020-09-17T11:53:07Z</time>
      </trkpt>
      <trkpt lat="45.43191" lon="3.41177">
        <ele>537.5</ele>
        <time>2020-09-17T11:53:08Z</time>
      </trkpt>
      <trkpt lat="45.43192" lon="3.41177">
        <ele>537.6</ele>
        <time>2020-09-17T11:53:09Z</time>
      </trkpt>
      <trkpt lat="45.43192" lon="3.41176">
        <ele>537.8</ele>
        <time>2020-09-17T11:53:10Z</time>
      </trkpt>
      <trkpt lat="45.43193" lon="3.41175">
        <ele>537.9</ele>
        <time>2020-09-17T11:53:11Z</time>
      </trkpt>
      <trkpt lat="45.43194" lon="3.41175">
        <ele>538.1</ele>
        <time>2020-09-17T11:53:12Z</time>
      </trkpt>
      <trkpt lat="45.43195" lon="3.41174">
        <ele>538.2</ele>
        <time>2020-09-17T11:53:13Z</time>
      </trkpt>
      <trkpt lat="45.43195" lon="3.41174">
        <ele>538.3</ele>
        <time>2020-09-17T11:53:14Z</time>
      </trkpt>
      <trkpt lat="45.43196" lon="3.41173">
        <ele>538.4</ele>
        <time>2020-09-17T11:53:15Z</time>
      </trkpt>
      <trkpt lat="45.43197" lon="3.41172">
        <ele>538.6</ele>
        <time>2020-09-17T11:53:16Z</time>
      </trkpt>
      <trkpt lat="45.43197" lon="3.41172">
        <ele>538.7</ele>
        <time>2020-09-17T11:53:17Z</time>
      </trkpt>
      <trkpt lat="45.43198" lon="3.41171">
        <ele>538.9</ele>
        <time>2020-09-17T11:53:18Z</time>
      </trkpt>
      <trkpt lat="45.43198" lon="3.41171">
        <ele>539</ele>
        <time>2020-09-17T11:53:19Z</time>
      </trkpt>
      <trkpt lat="45.43199" lon="3.4117">
        <ele>539.1</ele>
        <time>2020-09-17T11:53:20Z</time>
      </trkpt>
      <trkpt lat="45.432" lon="3.41169">
        <ele>539.3</ele>
        <time>2020-09-17T11:53:21Z</time>
      </trkpt>
      <trkpt lat="45.43201" lon="3.41168">
        <ele>539.4</ele>
        <time>2020-09-17T11:53:22Z</time>
      </trkpt>
      <trkpt lat="45.43201" lon="3.41168">
        <ele>539.5</ele>
        <time>2020-09-17T11:53:23Z</time>
      </trkpt>
      <trkpt lat="45.43202" lon="3.41167">
        <ele>539.7</ele>
        <time>2020-09-17T11:53:24Z</time>
      </trkpt>
      <trkpt lat="45.43202" lon="3.41166">
        <ele>539.9</ele>
        <time>2020-09-17T11:53:25Z</time>
      </trkpt>
      <trkpt lat="45.43203" lon="3.41165">
        <ele>540.2</ele>
        <time>2020-09-17T11:53:26Z</time>
      </trkpt>
      <trkpt lat="45.43204" lon="3.41165">
        <ele>540.5</ele>
        <time>2020-09-17T11:53:27Z</time>
      </trkpt>
      <trkpt lat="45.43204" lon="3.41164">
        <ele>540.7</ele>
        <time>2020-09-17T11:53:28Z</time>
      </trkpt>
      <trkpt lat="45.43205" lon="3.41163">
        <ele>541</ele>
        <time>2020-09-17T11:53:29Z</time>
      </trkpt>
      <trkpt lat="45.43205" lon="3.41162">
        <ele>541.2</ele>
        <time>2020-09-17T11:53:30Z</time>
      </trkpt>
      <trkpt lat="45.43206" lon="3.41162">
        <ele>541.3</ele>
        <time>2020-09-17T11:53:31Z</time>
      </trkpt>
      <trkpt lat="45.43207" lon="3.41161">
        <ele>541.4</ele>
        <time>2020-09-17T11:53:32Z</time>
      </trkpt>
      <trkpt lat="45.43208" lon="3.41161">
        <ele>541.5</ele>
        <time>2020-09-17T11:53:33Z</time>
      </trkpt>
      <trkpt lat="45.43208" lon="3.41161">
        <ele>541.6</ele>
        <time>2020-09-17T11:53:34Z</time>
      </trkpt>
      <trkpt lat="45.43209" lon="3.4116">
        <ele>541.7</ele>
        <time>2020-09-17T11:53:35Z</time>
      </trkpt>
      <trkpt lat="45.4321" lon="3.4116">
        <ele>541.7</ele>
        <time>2020-09-17T11:53:36Z</time>
      </trkpt>
      <trkpt lat="45.43211" lon="3.4116">
        <ele>541.7</ele>
        <time>2020-09-17T11:53:37Z</time>
      </trkpt>
      <trkpt lat="45.43212" lon="3.41159">
        <ele>541.7</ele>
        <time>2020-09-17T11:53:38Z</time>
      </trkpt>
      <trkpt lat="45.43213" lon="3.41159">
        <ele>541.7</ele>
        <time>2020-09-17T11:53:39Z</time>
      </trkpt>
      <trkpt lat="45.43215" lon="3.41159">
        <ele>541.7</ele>
        <time>2020-09-17T11:53:40Z</time>
      </trkpt>
      <trkpt lat="45.43216" lon="3.41159">
        <ele>541.6</ele>
        <time>2020-09-17T11:53:41Z</time>
      </trkpt>
      <trkpt lat="45.43217" lon="3.41158">
        <ele>541.6</ele>
        <time>2020-09-17T11:53:42Z</time>
      </trkpt>
      <trkpt lat="45.43218" lon="3.41159">
        <ele>541.4</ele>
        <time>2020-09-17T11:53:43Z</time>
      </trkpt>
      <trkpt lat="45.43219" lon="3.41159">
        <ele>541.3</ele>
        <time>2020-09-17T11:53:44Z</time>
      </trkpt>
      <trkpt lat="45.4322" lon="3.41159">
        <ele>541.2</ele>
        <time>2020-09-17T11:53:45Z</time>
      </trkpt>
      <trkpt lat="45.43221" lon="3.4116">
        <ele>540.9</ele>
        <time>2020-09-17T11:53:46Z</time>
      </trkpt>
      <trkpt lat="45.43222" lon="3.4116">
        <ele>540.7</ele>
        <time>2020-09-17T11:53:47Z</time>
      </trkpt>
      <trkpt lat="45.43223" lon="3.4116">
        <ele>540.7</ele>
        <time>2020-09-17T11:53:48Z</time>
      </trkpt>
      <trkpt lat="45.43225" lon="3.41161">
        <ele>540.6</ele>
        <time>2020-09-17T11:53:49Z</time>
      </trkpt>
      <trkpt lat="45.43225" lon="3.41161">
        <ele>540.6</ele>
        <time>2020-09-17T11:53:50Z</time>
      </trkpt>
      <trkpt lat="45.43227" lon="3.41161">
        <ele>540.6</ele>
        <time>2020-09-17T11:53:51Z</time>
      </trkpt>
      <trkpt lat="45.43228" lon="3.41162">
        <ele>540.6</ele>
        <time>2020-09-17T11:53:52Z</time>
      </trkpt>
      <trkpt lat="45.43228" lon="3.41162">
        <ele>540.6</ele>
        <time>2020-09-17T11:53:53Z</time>
      </trkpt>
      <trkpt lat="45.4323" lon="3.41162">
        <ele>540.6</ele>
        <time>2020-09-17T11:53:54Z</time>
      </trkpt>
      <trkpt lat="45.4323" lon="3.41162">
        <ele>540.6</ele>
        <time>2020-09-17T11:53:55Z</time>
      </trkpt>
      <trkpt lat="45.43232" lon="3.41163">
        <ele>540.5</ele>
        <time>2020-09-17T11:53:56Z</time>
      </trkpt>
      <trkpt lat="45.43233" lon="3.41163">
        <ele>540.5</ele>
        <time>2020-09-17T11:53:57Z</time>
      </trkpt>
      <trkpt lat="45.43234" lon="3.41164">
        <ele>540.5</ele>
        <time>2020-09-17T11:53:58Z</time>
      </trkpt>
      <trkpt lat="45.43235" lon="3.41164">
        <ele>540.5</ele>
        <time>2020-09-17T11:53:59Z</time>
      </trkpt>
      <trkpt lat="45.43236" lon="3.41164">
        <ele>540.5</ele>
        <time>2020-09-17T11:54:00Z</time>
      </trkpt>
      <trkpt lat="45.43237" lon="3.41165">
        <ele>540.5</ele>
        <time>2020-09-17T11:54:01Z</time>
      </trkpt>
      <trkpt lat="45.43238" lon="3.41165">
        <ele>540.5</ele>
        <time>2020-09-17T11:54:02Z</time>
      </trkpt>
      <trkpt lat="45.43239" lon="3.41166">
        <ele>540.5</ele>
        <time>2020-09-17T11:54:03Z</time>
      </trkpt>
      <trkpt lat="45.4324" lon="3.41166">
        <ele>540.5</ele>
        <time>2020-09-17T11:54:04Z</time>
      </trkpt>
      <trkpt lat="45.43241" lon="3.41167">
        <ele>540.4</ele>
        <time>2020-09-17T11:54:05Z</time>
      </trkpt>
      <trkpt lat="45.43242" lon="3.41167">
        <ele>540.4</ele>
        <time>2020-09-17T11:54:06Z</time>
      </trkpt>
      <trkpt lat="45.43244" lon="3.41167">
        <ele>540.5</ele>
        <time>2020-09-17T11:54:07Z</time>
      </trkpt>
      <trkpt lat="45.43245" lon="3.41168">
        <ele>540.5</ele>
        <time>2020-09-17T11:54:08Z</time>
      </trkpt>
      <trkpt lat="45.43246" lon="3.41169">
        <ele>540.5</ele>
        <time>2020-09-17T11:54:09Z</time>
      </trkpt>
      <trkpt lat="45.43247" lon="3.41169">
        <ele>540.5</ele>
        <time>2020-09-17T11:54:10Z</time>
      </trkpt>
      <trkpt lat="45.43248" lon="3.4117">
        <ele>540.5</ele>
        <time>2020-09-17T11:54:11Z</time>
      </trkpt>
      <trkpt lat="45.43249" lon="3.4117">
        <ele>540.6</ele>
        <time>2020-09-17T11:54:12Z</time>
      </trkpt>
      <trkpt lat="45.43251" lon="3.41171">
        <ele>540.6</ele>
        <time>2020-09-17T11:54:13Z</time>
      </trkpt>
      <trkpt lat="45.43252" lon="3.41171">
        <ele>540.7</ele>
        <time>2020-09-17T11:54:14Z</time>
      </trkpt>
      <trkpt lat="45.43253" lon="3.41172">
        <ele>540.8</ele>
        <time>2020-09-17T11:54:15Z</time>
      </trkpt>
      <trkpt lat="45.43254" lon="3.41172">
        <ele>540.8</ele>
        <time>2020-09-17T11:54:16Z</time>
      </trkpt>
      <trkpt lat="45.43255" lon="3.41172">
        <ele>540.9</ele>
        <time>2020-09-17T11:54:17Z</time>
      </trkpt>
      <trkpt lat="45.43257" lon="3.41173">
        <ele>541</ele>
        <time>2020-09-17T11:54:18Z</time>
      </trkpt>
      <trkpt lat="45.43258" lon="3.41173">
        <ele>541.1</ele>
        <time>2020-09-17T11:54:19Z</time>
      </trkpt>
      <trkpt lat="45.43259" lon="3.41173">
        <ele>541.2</ele>
        <time>2020-09-17T11:54:20Z</time>
      </trkpt>
      <trkpt lat="45.4326" lon="3.41174">
        <ele>541.3</ele>
        <time>2020-09-17T11:54:21Z</time>
      </trkpt>
      <trkpt lat="45.43261" lon="3.41174">
        <ele>541.3</ele>
        <time>2020-09-17T11:54:22Z</time>
      </trkpt>
      <trkpt lat="45.43262" lon="3.41175">
        <ele>541.4</ele>
        <time>2020-09-17T11:54:23Z</time>
      </trkpt>
      <trkpt lat="45.43264" lon="3.41175">
        <ele>541.4</ele>
        <time>2020-09-17T11:54:24Z</time>
      </trkpt>
      <trkpt lat="45.43265" lon="3.41176">
        <ele>541.5</ele>
        <time>2020-09-17T11:54:25Z</time>
      </trkpt>
      <trkpt lat="45.43266" lon="3.41176">
        <ele>541.5</ele>
        <time>2020-09-17T11:54:26Z</time>
      </trkpt>
      <trkpt lat="45.43267" lon="3.41177">
        <ele>541.6</ele>
        <time>2020-09-17T11:54:27Z</time>
      </trkpt>
      <trkpt lat="45.43268" lon="3.41177">
        <ele>541.6</ele>
        <time>2020-09-17T11:54:28Z</time>
      </trkpt>
      <trkpt lat="45.43269" lon="3.41178">
        <ele>541.6</ele>
        <time>2020-09-17T11:54:29Z</time>
      </trkpt>
      <trkpt lat="45.43271" lon="3.41179">
        <ele>541.6</ele>
        <time>2020-09-17T11:54:30Z</time>
      </trkpt>
      <trkpt lat="45.43272" lon="3.41179">
        <ele>541.6</ele>
        <time>2020-09-17T11:54:31Z</time>
      </trkpt>
      <trkpt lat="45.43273" lon="3.4118">
        <ele>541.6</ele>
        <time>2020-09-17T11:54:32Z</time>
      </trkpt>
      <trkpt lat="45.43274" lon="3.41181">
        <ele>541.6</ele>
        <time>2020-09-17T11:54:33Z</time>
      </trkpt>
      <trkpt lat="45.43275" lon="3.41182">
        <ele>541.6</ele>
        <time>2020-09-17T11:54:34Z</time>
      </trkpt>
      <trkpt lat="45.43276" lon="3.41182">
        <ele>541.6</ele>
        <time>2020-09-17T11:54:35Z</time>
      </trkpt>
      <trkpt lat="45.43277" lon="3.41183">
        <ele>541.6</ele>
        <time>2020-09-17T11:54:36Z</time>
      </trkpt>
      <trkpt lat="45.43278" lon="3.41184">
        <ele>541.6</ele>
        <time>2020-09-17T11:54:37Z</time>
      </trkpt>
      <trkpt lat="45.43279" lon="3.41185">
        <ele>541.7</ele>
        <time>2020-09-17T11:54:38Z</time>
      </trkpt>
      <trkpt lat="45.4328" lon="3.41186">
        <ele>541.8</ele>
        <time>2020-09-17T11:54:39Z</time>
      </trkpt>
      <trkpt lat="45.43281" lon="3.41186">
        <ele>541.9</ele>
        <time>2020-09-17T11:54:40Z</time>
      </trkpt>
      <trkpt lat="45.43282" lon="3.41187">
        <ele>542</ele>
        <time>2020-09-17T11:54:41Z</time>
      </trkpt>
      <trkpt lat="45.43283" lon="3.41187">
        <ele>542</ele>
        <time>2020-09-17T11:54:42Z</time>
      </trkpt>
      <trkpt lat="45.43284" lon="3.41188">
        <ele>542.1</ele>
        <time>2020-09-17T11:54:43Z</time>
      </trkpt>
      <trkpt lat="45.43285" lon="3.41189">
        <ele>542.1</ele>
        <time>2020-09-17T11:54:44Z</time>
      </trkpt>
      <trkpt lat="45.43286" lon="3.4119">
        <ele>542.1</ele>
        <time>2020-09-17T11:54:45Z</time>
      </trkpt>
      <trkpt lat="45.43287" lon="3.41191">
        <ele>542.1</ele>
        <time>2020-09-17T11:54:46Z</time>
      </trkpt>
      <trkpt lat="45.43288" lon="3.41192">
        <ele>542.1</ele>
        <time>2020-09-17T11:54:47Z</time>
      </trkpt>
      <trkpt lat="45.43289" lon="3.41194">
        <ele>542.1</ele>
        <time>2020-09-17T11:54:48Z</time>
      </trkpt>
      <trkpt lat="45.4329" lon="3.41195">
        <ele>542.1</ele>
        <time>2020-09-17T11:54:49Z</time>
      </trkpt>
      <trkpt lat="45.4329" lon="3.41196">
        <ele>542.1</ele>
        <time>2020-09-17T11:54:50Z</time>
      </trkpt>
      <trkpt lat="45.43291" lon="3.41197">
        <ele>542.1</ele>
        <time>2020-09-17T11:54:51Z</time>
      </trkpt>
      <trkpt lat="45.43292" lon="3.41198">
        <ele>542.1</ele>
        <time>2020-09-17T11:54:52Z</time>
      </trkpt>
      <trkpt lat="45.43293" lon="3.41199">
        <ele>542.1</ele>
        <time>2020-09-17T11:54:53Z</time>
      </trkpt>
      <trkpt lat="45.43294" lon="3.412">
        <ele>542.1</ele>
        <time>2020-09-17T11:54:54Z</time>
      </trkpt>
      <trkpt lat="45.43295" lon="3.41201">
        <ele>542.1</ele>
        <time>2020-09-17T11:54:55Z</time>
      </trkpt>
      <trkpt lat="45.43296" lon="3.41203">
        <ele>542.1</ele>
        <time>2020-09-17T11:54:56Z</time>
      </trkpt>
      <trkpt lat="45.43297" lon="3.41204">
        <ele>542</ele>
        <time>2020-09-17T11:54:57Z</time>
      </trkpt>
      <trkpt lat="45.43298" lon="3.41205">
        <ele>542</ele>
        <time>2020-09-17T11:54:58Z</time>
      </trkpt>
      <trkpt lat="45.43299" lon="3.41206">
        <ele>541.9</ele>
        <time>2020-09-17T11:54:59Z</time>
      </trkpt>
      <trkpt lat="45.43299" lon="3.41207">
        <ele>541.9</ele>
        <time>2020-09-17T11:55:00Z</time>
      </trkpt>
      <trkpt lat="45.433" lon="3.41208">
        <ele>541.9</ele>
        <time>2020-09-17T11:55:01Z</time>
      </trkpt>
      <trkpt lat="45.43301" lon="3.41209">
        <ele>541.8</ele>
        <time>2020-09-17T11:55:02Z</time>
      </trkpt>
      <trkpt lat="45.43302" lon="3.4121">
        <ele>541.8</ele>
        <time>2020-09-17T11:55:03Z</time>
      </trkpt>
      <trkpt lat="45.43303" lon="3.4121">
        <ele>541.8</ele>
        <time>2020-09-17T11:55:04Z</time>
      </trkpt>
      <trkpt lat="45.43304" lon="3.41211">
        <ele>541.8</ele>
        <time>2020-09-17T11:55:05Z</time>
      </trkpt>
      <trkpt lat="45.43305" lon="3.41212">
        <ele>541.7</ele>
        <time>2020-09-17T11:55:06Z</time>
      </trkpt>
      <trkpt lat="45.43305" lon="3.41213">
        <ele>541.6</ele>
        <time>2020-09-17T11:55:07Z</time>
      </trkpt>
      <trkpt lat="45.43306" lon="3.41214">
        <ele>541.6</ele>
        <time>2020-09-17T11:55:08Z</time>
      </trkpt>
      <trkpt lat="45.43307" lon="3.41215">
        <ele>541.6</ele>
        <time>2020-09-17T11:55:09Z</time>
      </trkpt>
      <trkpt lat="45.43308" lon="3.41216">
        <ele>541.7</ele>
        <time>2020-09-17T11:55:10Z</time>
      </trkpt>
      <trkpt lat="45.43309" lon="3.41217">
        <ele>541.7</ele>
        <time>2020-09-17T11:55:11Z</time>
      </trkpt>
      <trkpt lat="45.4331" lon="3.41217">
        <ele>541.7</ele>
        <time>2020-09-17T11:55:12Z</time>
      </trkpt>
      <trkpt lat="45.43312" lon="3.41218">
        <ele>541.6</ele>
        <time>2020-09-17T11:55:13Z</time>
      </trkpt>
      <trkpt lat="45.43312" lon="3.41219">
        <ele>541.6</ele>
        <time>2020-09-17T11:55:14Z</time>
      </trkpt>
      <trkpt lat="45.43313" lon="3.41221">
        <ele>541.5</ele>
        <time>2020-09-17T11:55:15Z</time>
      </trkpt>
      <trkpt lat="45.43314" lon="3.41221">
        <ele>541.5</ele>
        <time>2020-09-17T11:55:16Z</time>
      </trkpt>
      <trkpt lat="45.43315" lon="3.41222">
        <ele>541.4</ele>
        <time>2020-09-17T11:55:17Z</time>
      </trkpt>
      <trkpt lat="45.43317" lon="3.41223">
        <ele>541.5</ele>
        <time>2020-09-17T11:55:18Z</time>
      </trkpt>
      <trkpt lat="45.43317" lon="3.41224">
        <ele>541.5</ele>
        <time>2020-09-17T11:55:19Z</time>
      </trkpt>
      <trkpt lat="45.43318" lon="3.41225">
        <ele>541.6</ele>
        <time>2020-09-17T11:55:20Z</time>
      </trkpt>
      <trkpt lat="45.4332" lon="3.41225">
        <ele>541.6</ele>
        <time>2020-09-17T11:55:21Z</time>
      </trkpt>
      <trkpt lat="45.43321" lon="3.41226">
        <ele>541.7</ele>
        <time>2020-09-17T11:55:22Z</time>
      </trkpt>
      <trkpt lat="45.43322" lon="3.41227">
        <ele>541.8</ele>
        <time>2020-09-17T11:55:23Z</time>
      </trkpt>
      <trkpt lat="45.43323" lon="3.41228">
        <ele>541.8</ele>
        <time>2020-09-17T11:55:24Z</time>
      </trkpt>
      <trkpt lat="45.43324" lon="3.41229">
        <ele>541.8</ele>
        <time>2020-09-17T11:55:25Z</time>
      </trkpt>
      <trkpt lat="45.43325" lon="3.41229">
        <ele>541.8</ele>
        <time>2020-09-17T11:55:26Z</time>
      </trkpt>
      <trkpt lat="45.43326" lon="3.4123">
        <ele>541.9</ele>
        <time>2020-09-17T11:55:27Z</time>
      </trkpt>
      <trkpt lat="45.43327" lon="3.41231">
        <ele>541.9</ele>
        <time>2020-09-17T11:55:28Z</time>
      </trkpt>
      <trkpt lat="45.43328" lon="3.41231">
        <ele>542</ele>
        <time>2020-09-17T11:55:29Z</time>
      </trkpt>
      <trkpt lat="45.43329" lon="3.41232">
        <ele>542.1</ele>
        <time>2020-09-17T11:55:30Z</time>
      </trkpt>
      <trkpt lat="45.4333" lon="3.41233">
        <ele>542.1</ele>
        <time>2020-09-17T11:55:31Z</time>
      </trkpt>
      <trkpt lat="45.43331" lon="3.41233">
        <ele>542.1</ele>
        <time>2020-09-17T11:55:32Z</time>
      </trkpt>
      <trkpt lat="45.43333" lon="3.41234">
        <ele>542.2</ele>
        <time>2020-09-17T11:55:33Z</time>
      </trkpt>
      <trkpt lat="45.43334" lon="3.41235">
        <ele>542.3</ele>
        <time>2020-09-17T11:55:34Z</time>
      </trkpt>
      <trkpt lat="45.43335" lon="3.41235">
        <ele>542.3</ele>
        <time>2020-09-17T11:55:35Z</time>
      </trkpt>
      <trkpt lat="45.43336" lon="3.41236">
        <ele>542.2</ele>
        <time>2020-09-17T11:55:36Z</time>
      </trkpt>
      <trkpt lat="45.43337" lon="3.41237">
        <ele>542.2</ele>
        <time>2020-09-17T11:55:37Z</time>
      </trkpt>
      <trkpt lat="45.43338" lon="3.41238">
        <ele>542.2</ele>
        <time>2020-09-17T11:55:38Z</time>
      </trkpt>
      <trkpt lat="45.43339" lon="3.41238">
        <ele>542.2</ele>
        <time>2020-09-17T11:55:39Z</time>
      </trkpt>
      <trkpt lat="45.4334" lon="3.41239">
        <ele>542.2</ele>
        <time>2020-09-17T11:55:40Z</time>
      </trkpt>
      <trkpt lat="45.43341" lon="3.4124">
        <ele>542.2</ele>
        <time>2020-09-17T11:55:41Z</time>
      </trkpt>
      <trkpt lat="45.43342" lon="3.41241">
        <ele>542.2</ele>
        <time>2020-09-17T11:55:42Z</time>
      </trkpt>
      <trkpt lat="45.43343" lon="3.41241">
        <ele>542.2</ele>
        <time>2020-09-17T11:55:43Z</time>
      </trkpt>
      <trkpt lat="45.43344" lon="3.41242">
        <ele>542.2</ele>
        <time>2020-09-17T11:55:44Z</time>
      </trkpt>
      <trkpt lat="45.43345" lon="3.41243">
        <ele>542.2</ele>
        <time>2020-09-17T11:55:45Z</time>
      </trkpt>
      <trkpt lat="45.43346" lon="3.41244">
        <ele>542.2</ele>
        <time>2020-09-17T11:55:46Z</time>
      </trkpt>
      <trkpt lat="45.43348" lon="3.41245">
        <ele>542.2</ele>
        <time>2020-09-17T11:55:47Z</time>
      </trkpt>
      <trkpt lat="45.43348" lon="3.41245">
        <ele>542.2</ele>
        <time>2020-09-17T11:55:48Z</time>
      </trkpt>
      <trkpt lat="45.43349" lon="3.41247">
        <ele>542.2</ele>
        <time>2020-09-17T11:55:49Z</time>
      </trkpt>
      <trkpt lat="45.4335" lon="3.41247">
        <ele>542.1</ele>
        <time>2020-09-17T11:55:50Z</time>
      </trkpt>
      <trkpt lat="45.43351" lon="3.41248">
        <ele>542.1</ele>
        <time>2020-09-17T11:55:51Z</time>
      </trkpt>
      <trkpt lat="45.43352" lon="3.41249">
        <ele>542.1</ele>
        <time>2020-09-17T11:55:52Z</time>
      </trkpt>
      <trkpt lat="45.43353" lon="3.4125">
        <ele>542.1</ele>
        <time>2020-09-17T11:55:53Z</time>
      </trkpt>
      <trkpt lat="45.43354" lon="3.41251">
        <ele>542.2</ele>
        <time>2020-09-17T11:55:54Z</time>
      </trkpt>
      <trkpt lat="45.43355" lon="3.41252">
        <ele>542.2</ele>
        <time>2020-09-17T11:55:55Z</time>
      </trkpt>
      <trkpt lat="45.43356" lon="3.41253">
        <ele>542.3</ele>
        <time>2020-09-17T11:55:56Z</time>
      </trkpt>
      <trkpt lat="45.43357" lon="3.41254">
        <ele>542.3</ele>
        <time>2020-09-17T11:55:57Z</time>
      </trkpt>
      <trkpt lat="45.43358" lon="3.41255">
        <ele>542.4</ele>
        <time>2020-09-17T11:55:58Z</time>
      </trkpt>
      <trkpt lat="45.43359" lon="3.41255">
        <ele>542.4</ele>
        <time>2020-09-17T11:55:59Z</time>
      </trkpt>
      <trkpt lat="45.4336" lon="3.41256">
        <ele>542.5</ele>
        <time>2020-09-17T11:56:00Z</time>
      </trkpt>
      <trkpt lat="45.43361" lon="3.41257">
        <ele>542.5</ele>
        <time>2020-09-17T11:56:01Z</time>
      </trkpt>
      <trkpt lat="45.43362" lon="3.41258">
        <ele>542.5</ele>
        <time>2020-09-17T11:56:02Z</time>
      </trkpt>
      <trkpt lat="45.43363" lon="3.41259">
        <ele>542.5</ele>
        <time>2020-09-17T11:56:03Z</time>
      </trkpt>
      <trkpt lat="45.43365" lon="3.4126">
        <ele>542.6</ele>
        <time>2020-09-17T11:56:04Z</time>
      </trkpt>
      <trkpt lat="45.43366" lon="3.41261">
        <ele>542.6</ele>
        <time>2020-09-17T11:56:05Z</time>
      </trkpt>
      <trkpt lat="45.43367" lon="3.41262">
        <ele>542.6</ele>
        <time>2020-09-17T11:56:06Z</time>
      </trkpt>
      <trkpt lat="45.43368" lon="3.41263">
        <ele>542.6</ele>
        <time>2020-09-17T11:56:07Z</time>
      </trkpt>
      <trkpt lat="45.43369" lon="3.41264">
        <ele>542.7</ele>
        <time>2020-09-17T11:56:08Z</time>
      </trkpt>
      <trkpt lat="45.4337" lon="3.41265">
        <ele>542.7</ele>
        <time>2020-09-17T11:56:09Z</time>
      </trkpt>
      <trkpt lat="45.43371" lon="3.41266">
        <ele>542.7</ele>
        <time>2020-09-17T11:56:10Z</time>
      </trkpt>
      <trkpt lat="45.43372" lon="3.41267">
        <ele>542.8</ele>
        <time>2020-09-17T11:56:11Z</time>
      </trkpt>
      <trkpt lat="45.43373" lon="3.41268">
        <ele>542.8</ele>
        <time>2020-09-17T11:56:12Z</time>
      </trkpt>
      <trkpt lat="45.43374" lon="3.41269">
        <ele>542.8</ele>
        <time>2020-09-17T11:56:13Z</time>
      </trkpt>
      <trkpt lat="45.43375" lon="3.4127">
        <ele>542.9</ele>
        <time>2020-09-17T11:56:14Z</time>
      </trkpt>
      <trkpt lat="45.43375" lon="3.41271">
        <ele>542.9</ele>
        <time>2020-09-17T11:56:15Z</time>
      </trkpt>
      <trkpt lat="45.43376" lon="3.41272">
        <ele>542.9</ele>
        <time>2020-09-17T11:56:16Z</time>
      </trkpt>
      <trkpt lat="45.43377" lon="3.41274">
        <ele>542.9</ele>
        <time>2020-09-17T11:56:17Z</time>
      </trkpt>
      <trkpt lat="45.43378" lon="3.41275">
        <ele>543</ele>
        <time>2020-09-17T11:56:18Z</time>
      </trkpt>
      <trkpt lat="45.43379" lon="3.41276">
        <ele>543</ele>
        <time>2020-09-17T11:56:19Z</time>
      </trkpt>
      <trkpt lat="45.4338" lon="3.41277">
        <ele>543</ele>
        <time>2020-09-17T11:56:20Z</time>
      </trkpt>
      <trkpt lat="45.43381" lon="3.41278">
        <ele>543.1</ele>
        <time>2020-09-17T11:56:21Z</time>
      </trkpt>
      <trkpt lat="45.43382" lon="3.41279">
        <ele>543.1</ele>
        <time>2020-09-17T11:56:22Z</time>
      </trkpt>
      <trkpt lat="45.43383" lon="3.41281">
        <ele>543</ele>
        <time>2020-09-17T11:56:23Z</time>
      </trkpt>
      <trkpt lat="45.43383" lon="3.41282">
        <ele>543</ele>
        <time>2020-09-17T11:56:24Z</time>
      </trkpt>
      <trkpt lat="45.43384" lon="3.41283">
        <ele>543</ele>
        <time>2020-09-17T11:56:25Z</time>
      </trkpt>
      <trkpt lat="45.43385" lon="3.41284">
        <ele>543</ele>
        <time>2020-09-17T11:56:26Z</time>
      </trkpt>
      <trkpt lat="45.43386" lon="3.41286">
        <ele>542.9</ele>
        <time>2020-09-17T11:56:27Z</time>
      </trkpt>
      <trkpt lat="45.43387" lon="3.41287">
        <ele>542.9</ele>
        <time>2020-09-17T11:56:28Z</time>
      </trkpt>
      <trkpt lat="45.43388" lon="3.41288">
        <ele>542.8</ele>
        <time>2020-09-17T11:56:29Z</time>
      </trkpt>
      <trkpt lat="45.43389" lon="3.41289">
        <ele>542.7</ele>
        <time>2020-09-17T11:56:30Z</time>
      </trkpt>
      <trkpt lat="45.43389" lon="3.41291">
        <ele>542.6</ele>
        <time>2020-09-17T11:56:31Z</time>
      </trkpt>
      <trkpt lat="45.4339" lon="3.41292">
        <ele>542.6</ele>
        <time>2020-09-17T11:56:32Z</time>
      </trkpt>
      <trkpt lat="45.43391" lon="3.41294">
        <ele>542.5</ele>
        <time>2020-09-17T11:56:33Z</time>
      </trkpt>
      <trkpt lat="45.43392" lon="3.41295">
        <ele>542.5</ele>
        <time>2020-09-17T11:56:34Z</time>
      </trkpt>
      <trkpt lat="45.43393" lon="3.41296">
        <ele>542.4</ele>
        <time>2020-09-17T11:56:35Z</time>
      </trkpt>
      <trkpt lat="45.43393" lon="3.41297">
        <ele>542.3</ele>
        <time>2020-09-17T11:56:36Z</time>
      </trkpt>
      <trkpt lat="45.43394" lon="3.41299">
        <ele>542.3</ele>
        <time>2020-09-17T11:56:37Z</time>
      </trkpt>
      <trkpt lat="45.43395" lon="3.413">
        <ele>542.2</ele>
        <time>2020-09-17T11:56:38Z</time>
      </trkpt>
      <trkpt lat="45.43396" lon="3.41301">
        <ele>542.2</ele>
        <time>2020-09-17T11:56:39Z</time>
      </trkpt>
      <trkpt lat="45.43397" lon="3.41303">
        <ele>542.1</ele>
        <time>2020-09-17T11:56:40Z</time>
      </trkpt>
      <trkpt lat="45.43397" lon="3.41304">
        <ele>542</ele>
        <time>2020-09-17T11:56:41Z</time>
      </trkpt>
      <trkpt lat="45.43398" lon="3.41306">
        <ele>542</ele>
        <time>2020-09-17T11:56:42Z</time>
      </trkpt>
      <trkpt lat="45.43399" lon="3.41307">
        <ele>542</ele>
        <time>2020-09-17T11:56:43Z</time>
      </trkpt>
      <trkpt lat="45.434" lon="3.41308">
        <ele>542.1</ele>
        <time>2020-09-17T11:56:44Z</time>
      </trkpt>
      <trkpt lat="45.43401" lon="3.4131">
        <ele>542.1</ele>
        <time>2020-09-17T11:56:45Z</time>
      </trkpt>
      <trkpt lat="45.43401" lon="3.41311">
        <ele>542.2</ele>
        <time>2020-09-17T11:56:46Z</time>
      </trkpt>
      <trkpt lat="45.43402" lon="3.41312">
        <ele>542.2</ele>
        <time>2020-09-17T11:56:47Z</time>
      </trkpt>
      <trkpt lat="45.43403" lon="3.41313">
        <ele>542.2</ele>
        <time>2020-09-17T11:56:48Z</time>
      </trkpt>
      <trkpt lat="45.43404" lon="3.41315">
        <ele>542.3</ele>
        <time>2020-09-17T11:56:49Z</time>
      </trkpt>
      <trkpt lat="45.43405" lon="3.41316">
        <ele>542.3</ele>
        <time>2020-09-17T11:56:50Z</time>
      </trkpt>
      <trkpt lat="45.43405" lon="3.41317">
        <ele>542.4</ele>
        <time>2020-09-17T11:56:51Z</time>
      </trkpt>
      <trkpt lat="45.43406" lon="3.41319">
        <ele>542.4</ele>
        <time>2020-09-17T11:56:52Z</time>
      </trkpt>
      <trkpt lat="45.43407" lon="3.4132">
        <ele>542.5</ele>
        <time>2020-09-17T11:56:53Z</time>
      </trkpt>
      <trkpt lat="45.43408" lon="3.41321">
        <ele>542.5</ele>
        <time>2020-09-17T11:56:54Z</time>
      </trkpt>
      <trkpt lat="45.43409" lon="3.41323">
        <ele>542.5</ele>
        <time>2020-09-17T11:56:55Z</time>
      </trkpt>
      <trkpt lat="45.4341" lon="3.41324">
        <ele>542.6</ele>
        <time>2020-09-17T11:56:56Z</time>
      </trkpt>
      <trkpt lat="45.4341" lon="3.41325">
        <ele>542.6</ele>
        <time>2020-09-17T11:56:57Z</time>
      </trkpt>
      <trkpt lat="45.43411" lon="3.41327">
        <ele>542.7</ele>
        <time>2020-09-17T11:56:58Z</time>
      </trkpt>
      <trkpt lat="45.43412" lon="3.41328">
        <ele>542.7</ele>
        <time>2020-09-17T11:56:59Z</time>
      </trkpt>
      <trkpt lat="45.43413" lon="3.41329">
        <ele>542.7</ele>
        <time>2020-09-17T11:57:00Z</time>
      </trkpt>
      <trkpt lat="45.43414" lon="3.41331">
        <ele>542.8</ele>
        <time>2020-09-17T11:57:01Z</time>
      </trkpt>
      <trkpt lat="45.43415" lon="3.41332">
        <ele>542.8</ele>
        <time>2020-09-17T11:57:02Z</time>
      </trkpt>
      <trkpt lat="45.43415" lon="3.41334">
        <ele>542.9</ele>
        <time>2020-09-17T11:57:03Z</time>
      </trkpt>
      <trkpt lat="45.43416" lon="3.41335">
        <ele>542.9</ele>
        <time>2020-09-17T11:57:04Z</time>
      </trkpt>
      <trkpt lat="45.43417" lon="3.41336">
        <ele>542.9</ele>
        <time>2020-09-17T11:57:05Z</time>
      </trkpt>
      <trkpt lat="45.43418" lon="3.41338">
        <ele>542.9</ele>
        <time>2020-09-17T11:57:06Z</time>
      </trkpt>
      <trkpt lat="45.43419" lon="3.41339">
        <ele>542.9</ele>
        <time>2020-09-17T11:57:07Z</time>
      </trkpt>
      <trkpt lat="45.43419" lon="3.4134">
        <ele>542.9</ele>
        <time>2020-09-17T11:57:08Z</time>
      </trkpt>
      <trkpt lat="45.4342" lon="3.41342">
        <ele>543</ele>
        <time>2020-09-17T11:57:09Z</time>
      </trkpt>
      <trkpt lat="45.43421" lon="3.41343">
        <ele>543</ele>
        <time>2020-09-17T11:57:10Z</time>
      </trkpt>
      <trkpt lat="45.43422" lon="3.41344">
        <ele>543</ele>
        <time>2020-09-17T11:57:11Z</time>
      </trkpt>
      <trkpt lat="45.43423" lon="3.41346">
        <ele>543</ele>
        <time>2020-09-17T11:57:12Z</time>
      </trkpt>
      <trkpt lat="45.43424" lon="3.41347">
        <ele>543</ele>
        <time>2020-09-17T11:57:13Z</time>
      </trkpt>
      <trkpt lat="45.43424" lon="3.41349">
        <ele>543</ele>
        <time>2020-09-17T11:57:14Z</time>
      </trkpt>
      <trkpt lat="45.43425" lon="3.4135">
        <ele>543</ele>
        <time>2020-09-17T11:57:15Z</time>
      </trkpt>
      <trkpt lat="45.43426" lon="3.41351">
        <ele>543</ele>
        <time>2020-09-17T11:57:16Z</time>
      </trkpt>
      <trkpt lat="45.43427" lon="3.41353">
        <ele>543</ele>
        <time>2020-09-17T11:57:17Z</time>
      </trkpt>
      <trkpt lat="45.43428" lon="3.41354">
        <ele>543.1</ele>
        <time>2020-09-17T11:57:18Z</time>
      </trkpt>
      <trkpt lat="45.43428" lon="3.41355">
        <ele>543.1</ele>
        <time>2020-09-17T11:57:19Z</time>
      </trkpt>
      <trkpt lat="45.43429" lon="3.41356">
        <ele>543.1</ele>
        <time>2020-09-17T11:57:20Z</time>
      </trkpt>
      <trkpt lat="45.4343" lon="3.41358">
        <ele>543.1</ele>
        <time>2020-09-17T11:57:21Z</time>
      </trkpt>
      <trkpt lat="45.4343" lon="3.41359">
        <ele>543.1</ele>
        <time>2020-09-17T11:57:22Z</time>
      </trkpt>
      <trkpt lat="45.43431" lon="3.4136">
        <ele>543.1</ele>
        <time>2020-09-17T11:57:23Z</time>
      </trkpt>
      <trkpt lat="45.43432" lon="3.41362">
        <ele>543.1</ele>
        <time>2020-09-17T11:57:24Z</time>
      </trkpt>
      <trkpt lat="45.43433" lon="3.41363">
        <ele>543.1</ele>
        <time>2020-09-17T11:57:25Z</time>
      </trkpt>
      <trkpt lat="45.43434" lon="3.41364">
        <ele>543.1</ele>
        <time>2020-09-17T11:57:26Z</time>
      </trkpt>
      <trkpt lat="45.43434" lon="3.41366">
        <ele>543.1</ele>
        <time>2020-09-17T11:57:27Z</time>
      </trkpt>
      <trkpt lat="45.43435" lon="3.41367">
        <ele>543.1</ele>
        <time>2020-09-17T11:57:28Z</time>
      </trkpt>
      <trkpt lat="45.43436" lon="3.41369">
        <ele>543.1</ele>
        <time>2020-09-17T11:57:29Z</time>
      </trkpt>
      <trkpt lat="45.43437" lon="3.4137">
        <ele>543.1</ele>
        <time>2020-09-17T11:57:30Z</time>
      </trkpt>
      <trkpt lat="45.43437" lon="3.41371">
        <ele>543.1</ele>
        <time>2020-09-17T11:57:31Z</time>
      </trkpt>
      <trkpt lat="45.43438" lon="3.41372">
        <ele>543.1</ele>
        <time>2020-09-17T11:57:32Z</time>
      </trkpt>
      <trkpt lat="45.43439" lon="3.41374">
        <ele>543.2</ele>
        <time>2020-09-17T11:57:33Z</time>
      </trkpt>
      <trkpt lat="45.4344" lon="3.41375">
        <ele>543.2</ele>
        <time>2020-09-17T11:57:34Z</time>
      </trkpt>
      <trkpt lat="45.43441" lon="3.41376">
        <ele>543.2</ele>
        <time>2020-09-17T11:57:35Z</time>
      </trkpt>
      <trkpt lat="45.43442" lon="3.41378">
        <ele>543.2</ele>
        <time>2020-09-17T11:57:36Z</time>
      </trkpt>
      <trkpt lat="45.43442" lon="3.41379">
        <ele>543.2</ele>
        <time>2020-09-17T11:57:37Z</time>
      </trkpt>
      <trkpt lat="45.43443" lon="3.4138">
        <ele>543.2</ele>
        <time>2020-09-17T11:57:38Z</time>
      </trkpt>
      <trkpt lat="45.43444" lon="3.41382">
        <ele>543.2</ele>
        <time>2020-09-17T11:57:39Z</time>
      </trkpt>
      <trkpt lat="45.43445" lon="3.41383">
        <ele>543.2</ele>
        <time>2020-09-17T11:57:40Z</time>
      </trkpt>
      <trkpt lat="45.43445" lon="3.41384">
        <ele>543.2</ele>
        <time>2020-09-17T11:57:41Z</time>
      </trkpt>
      <trkpt lat="45.43446" lon="3.41386">
        <ele>543.2</ele>
        <time>2020-09-17T11:57:42Z</time>
      </trkpt>
      <trkpt lat="45.43447" lon="3.41387">
        <ele>543.2</ele>
        <time>2020-09-17T11:57:43Z</time>
      </trkpt>
      <trkpt lat="45.43447" lon="3.41388">
        <ele>543.2</ele>
        <time>2020-09-17T11:57:44Z</time>
      </trkpt>
      <trkpt lat="45.43448" lon="3.4139">
        <ele>543.2</ele>
        <time>2020-09-17T11:57:45Z</time>
      </trkpt>
      <trkpt lat="45.43448" lon="3.41391">
        <ele>543.3</ele>
        <time>2020-09-17T11:57:46Z</time>
      </trkpt>
      <trkpt lat="45.43449" lon="3.41393">
        <ele>543.3</ele>
        <time>2020-09-17T11:57:47Z</time>
      </trkpt>
      <trkpt lat="45.43449" lon="3.41394">
        <ele>543.3</ele>
        <time>2020-09-17T11:57:48Z</time>
      </trkpt>
      <trkpt lat="45.43449" lon="3.41396">
        <ele>543.3</ele>
        <time>2020-09-17T11:57:49Z</time>
      </trkpt>
      <trkpt lat="45.43449" lon="3.41398">
        <ele>543.3</ele>
        <time>2020-09-17T11:57:50Z</time>
      </trkpt>
      <trkpt lat="45.43448" lon="3.41399">
        <ele>543.3</ele>
        <time>2020-09-17T11:57:51Z</time>
      </trkpt>
      <trkpt lat="45.43448" lon="3.41401">
        <ele>543.2</ele>
        <time>2020-09-17T11:57:52Z</time>
      </trkpt>
      <trkpt lat="45.43448" lon="3.41403">
        <ele>543.2</ele>
        <time>2020-09-17T11:57:53Z</time>
      </trkpt>
      <trkpt lat="45.43447" lon="3.41404">
        <ele>543.2</ele>
        <time>2020-09-17T11:57:54Z</time>
      </trkpt>
      <trkpt lat="45.43447" lon="3.41406">
        <ele>543.2</ele>
        <time>2020-09-17T11:57:55Z</time>
      </trkpt>
      <trkpt lat="45.43447" lon="3.41407">
        <ele>543.2</ele>
        <time>2020-09-17T11:57:56Z</time>
      </trkpt>
      <trkpt lat="45.43447" lon="3.41409">
        <ele>543.2</ele>
        <time>2020-09-17T11:57:57Z</time>
      </trkpt>
      <trkpt lat="45.43447" lon="3.41411">
        <ele>543.1</ele>
        <time>2020-09-17T11:57:58Z</time>
      </trkpt>
      <trkpt lat="45.43446" lon="3.41412">
        <ele>543.1</ele>
        <time>2020-09-17T11:57:59Z</time>
      </trkpt>
      <trkpt lat="45.43446" lon="3.41414">
        <ele>543.1</ele>
        <time>2020-09-17T11:58:00Z</time>
      </trkpt>
      <trkpt lat="45.43445" lon="3.41415">
        <ele>543.1</ele>
        <time>2020-09-17T11:58:01Z</time>
      </trkpt>
      <trkpt lat="45.43445" lon="3.41417">
        <ele>543</ele>
        <time>2020-09-17T11:58:02Z</time>
      </trkpt>
      <trkpt lat="45.43444" lon="3.41419">
        <ele>542.9</ele>
        <time>2020-09-17T11:58:03Z</time>
      </trkpt>
      <trkpt lat="45.43444" lon="3.4142">
        <ele>542.8</ele>
        <time>2020-09-17T11:58:04Z</time>
      </trkpt>
      <trkpt lat="45.43443" lon="3.41422">
        <ele>542.7</ele>
        <time>2020-09-17T11:58:05Z</time>
      </trkpt>
      <trkpt lat="45.43442" lon="3.41423">
        <ele>542.6</ele>
        <time>2020-09-17T11:58:06Z</time>
      </trkpt>
      <trkpt lat="45.43442" lon="3.41425">
        <ele>542.6</ele>
        <time>2020-09-17T11:58:07Z</time>
      </trkpt>
      <trkpt lat="45.43441" lon="3.41426">
        <ele>542.5</ele>
        <time>2020-09-17T11:58:08Z</time>
      </trkpt>
      <trkpt lat="45.43441" lon="3.41428">
        <ele>542.4</ele>
        <time>2020-09-17T11:58:09Z</time>
      </trkpt>
      <trkpt lat="45.4344" lon="3.41429">
        <ele>542.3</ele>
        <time>2020-09-17T11:58:10Z</time>
      </trkpt>
      <trkpt lat="45.4344" lon="3.41431">
        <ele>542.2</ele>
        <time>2020-09-17T11:58:11Z</time>
      </trkpt>
      <trkpt lat="45.43439" lon="3.41432">
        <ele>542.2</ele>
        <time>2020-09-17T11:58:12Z</time>
      </trkpt>
      <trkpt lat="45.43438" lon="3.41433">
        <ele>542.1</ele>
        <time>2020-09-17T11:58:13Z</time>
      </trkpt>
      <trkpt lat="45.43438" lon="3.41435">
        <ele>542</ele>
        <time>2020-09-17T11:58:14Z</time>
      </trkpt>
      <trkpt lat="45.43437" lon="3.41436">
        <ele>542</ele>
        <time>2020-09-17T11:58:15Z</time>
      </trkpt>
      <trkpt lat="45.43437" lon="3.41438">
        <ele>541.9</ele>
        <time>2020-09-17T11:58:16Z</time>
      </trkpt>
      <trkpt lat="45.43436" lon="3.41439">
        <ele>541.8</ele>
        <time>2020-09-17T11:58:17Z</time>
      </trkpt>
      <trkpt lat="45.43436" lon="3.41441">
        <ele>541.8</ele>
        <time>2020-09-17T11:58:18Z</time>
      </trkpt>
      <trkpt lat="45.43435" lon="3.41442">
        <ele>541.7</ele>
        <time>2020-09-17T11:58:19Z</time>
      </trkpt>
      <trkpt lat="45.43435" lon="3.41444">
        <ele>541.7</ele>
        <time>2020-09-17T11:58:20Z</time>
      </trkpt>
      <trkpt lat="45.43434" lon="3.41445">
        <ele>541.6</ele>
        <time>2020-09-17T11:58:21Z</time>
      </trkpt>
      <trkpt lat="45.43434" lon="3.41446">
        <ele>541.6</ele>
        <time>2020-09-17T11:58:22Z</time>
      </trkpt>
      <trkpt lat="45.43433" lon="3.41448">
        <ele>541.6</ele>
        <time>2020-09-17T11:58:23Z</time>
      </trkpt>
      <trkpt lat="45.43433" lon="3.41449">
        <ele>541.6</ele>
        <time>2020-09-17T11:58:24Z</time>
      </trkpt>
      <trkpt lat="45.43432" lon="3.41451">
        <ele>541.6</ele>
        <time>2020-09-17T11:58:25Z</time>
      </trkpt>
      <trkpt lat="45.43431" lon="3.41453">
        <ele>541.5</ele>
        <time>2020-09-17T11:58:26Z</time>
      </trkpt>
      <trkpt lat="45.43431" lon="3.41454">
        <ele>541.5</ele>
        <time>2020-09-17T11:58:27Z</time>
      </trkpt>
      <trkpt lat="45.4343" lon="3.41456">
        <ele>541.5</ele>
        <time>2020-09-17T11:58:28Z</time>
      </trkpt>
      <trkpt lat="45.4343" lon="3.41457">
        <ele>541.5</ele>
        <time>2020-09-17T11:58:29Z</time>
      </trkpt>
      <trkpt lat="45.43429" lon="3.41458">
        <ele>541.5</ele>
        <time>2020-09-17T11:58:30Z</time>
      </trkpt>
      <trkpt lat="45.43429" lon="3.4146">
        <ele>541.4</ele>
        <time>2020-09-17T11:58:31Z</time>
      </trkpt>
      <trkpt lat="45.43428" lon="3.41461">
        <ele>541.4</ele>
        <time>2020-09-17T11:58:32Z</time>
      </trkpt>
      <trkpt lat="45.43428" lon="3.41463">
        <ele>541.4</ele>
        <time>2020-09-17T11:58:33Z</time>
      </trkpt>
      <trkpt lat="45.43427" lon="3.41464">
        <ele>541.4</ele>
        <time>2020-09-17T11:58:34Z</time>
      </trkpt>
      <trkpt lat="45.43427" lon="3.41465">
        <ele>541.4</ele>
        <time>2020-09-17T11:58:35Z</time>
      </trkpt>
      <trkpt lat="45.43426" lon="3.41467">
        <ele>541.3</ele>
        <time>2020-09-17T11:58:36Z</time>
      </trkpt>
      <trkpt lat="45.43425" lon="3.41468">
        <ele>541.3</ele>
        <time>2020-09-17T11:58:37Z</time>
      </trkpt>
      <trkpt lat="45.43425" lon="3.4147">
        <ele>541.3</ele>
        <time>2020-09-17T11:58:38Z</time>
      </trkpt>
      <trkpt lat="45.43424" lon="3.41471">
        <ele>541.3</ele>
        <time>2020-09-17T11:58:39Z</time>
      </trkpt>
      <trkpt lat="45.43424" lon="3.41473">
        <ele>541.2</ele>
        <time>2020-09-17T11:58:40Z</time>
      </trkpt>
      <trkpt lat="45.43423" lon="3.41474">
        <ele>541.2</ele>
        <time>2020-09-17T11:58:41Z</time>
      </trkpt>
      <trkpt lat="45.43423" lon="3.41475">
        <ele>541.1</ele>
        <time>2020-09-17T11:58:42Z</time>
      </trkpt>
      <trkpt lat="45.43422" lon="3.41477">
        <ele>541</ele>
        <time>2020-09-17T11:58:43Z</time>
      </trkpt>
      <trkpt lat="45.43421" lon="3.41478">
        <ele>540.9</ele>
        <time>2020-09-17T11:58:44Z</time>
      </trkpt>
      <trkpt lat="45.43421" lon="3.4148">
        <ele>540.9</ele>
        <time>2020-09-17T11:58:45Z</time>
      </trkpt>
      <trkpt lat="45.4342" lon="3.41481">
        <ele>540.8</ele>
        <time>2020-09-17T11:58:46Z</time>
      </trkpt>
      <trkpt lat="45.4342" lon="3.41483">
        <ele>540.7</ele>
        <time>2020-09-17T11:58:47Z</time>
      </trkpt>
      <trkpt lat="45.43419" lon="3.41484">
        <ele>540.7</ele>
        <time>2020-09-17T11:58:48Z</time>
      </trkpt>
      <trkpt lat="45.43419" lon="3.41486">
        <ele>540.6</ele>
        <time>2020-09-17T11:58:49Z</time>
      </trkpt>
      <trkpt lat="45.43418" lon="3.41487">
        <ele>540.5</ele>
        <time>2020-09-17T11:58:50Z</time>
      </trkpt>
      <trkpt lat="45.43418" lon="3.41489">
        <ele>540.4</ele>
        <time>2020-09-17T11:58:51Z</time>
      </trkpt>
      <trkpt lat="45.43417" lon="3.4149">
        <ele>540.4</ele>
        <time>2020-09-17T11:58:52Z</time>
      </trkpt>
      <trkpt lat="45.43416" lon="3.41492">
        <ele>540.3</ele>
        <time>2020-09-17T11:58:53Z</time>
      </trkpt>
      <trkpt lat="45.43416" lon="3.41493">
        <ele>540.3</ele>
        <time>2020-09-17T11:58:54Z</time>
      </trkpt>
      <trkpt lat="45.43415" lon="3.41495">
        <ele>540.2</ele>
        <time>2020-09-17T11:58:55Z</time>
      </trkpt>
      <trkpt lat="45.43414" lon="3.41496">
        <ele>540.2</ele>
        <time>2020-09-17T11:58:56Z</time>
      </trkpt>
      <trkpt lat="45.43414" lon="3.41497">
        <ele>540.2</ele>
        <time>2020-09-17T11:58:57Z</time>
      </trkpt>
      <trkpt lat="45.43413" lon="3.41499">
        <ele>540.2</ele>
        <time>2020-09-17T11:58:58Z</time>
      </trkpt>
      <trkpt lat="45.43412" lon="3.415">
        <ele>540.2</ele>
        <time>2020-09-17T11:58:59Z</time>
      </trkpt>
      <trkpt lat="45.43412" lon="3.41502">
        <ele>540.3</ele>
        <time>2020-09-17T11:59:00Z</time>
      </trkpt>
      <trkpt lat="45.43411" lon="3.41503">
        <ele>540.3</ele>
        <time>2020-09-17T11:59:01Z</time>
      </trkpt>
      <trkpt lat="45.4341" lon="3.41505">
        <ele>540.4</ele>
        <time>2020-09-17T11:59:02Z</time>
      </trkpt>
      <trkpt lat="45.4341" lon="3.41506">
        <ele>540.5</ele>
        <time>2020-09-17T11:59:03Z</time>
      </trkpt>
      <trkpt lat="45.43409" lon="3.41508">
        <ele>540.6</ele>
        <time>2020-09-17T11:59:04Z</time>
      </trkpt>
      <trkpt lat="45.43408" lon="3.41509">
        <ele>540.7</ele>
        <time>2020-09-17T11:59:05Z</time>
      </trkpt>
      <trkpt lat="45.43408" lon="3.41511">
        <ele>540.8</ele>
        <time>2020-09-17T11:59:06Z</time>
      </trkpt>
      <trkpt lat="45.43407" lon="3.41512">
        <ele>540.9</ele>
        <time>2020-09-17T11:59:07Z</time>
      </trkpt>
      <trkpt lat="45.43407" lon="3.41514">
        <ele>541</ele>
        <time>2020-09-17T11:59:08Z</time>
      </trkpt>
      <trkpt lat="45.43406" lon="3.41516">
        <ele>541.2</ele>
        <time>2020-09-17T11:59:09Z</time>
      </trkpt>
      <trkpt lat="45.43406" lon="3.41517">
        <ele>541.3</ele>
        <time>2020-09-17T11:59:10Z</time>
      </trkpt>
      <trkpt lat="45.43405" lon="3.41519">
        <ele>541.4</ele>
        <time>2020-09-17T11:59:11Z</time>
      </trkpt>
      <trkpt lat="45.43404" lon="3.4152">
        <ele>541.5</ele>
        <time>2020-09-17T11:59:12Z</time>
      </trkpt>
      <trkpt lat="45.43403" lon="3.41522">
        <ele>541.6</ele>
        <time>2020-09-17T11:59:13Z</time>
      </trkpt>
      <trkpt lat="45.43403" lon="3.41523">
        <ele>541.8</ele>
        <time>2020-09-17T11:59:14Z</time>
      </trkpt>
      <trkpt lat="45.43402" lon="3.41525">
        <ele>541.9</ele>
        <time>2020-09-17T11:59:15Z</time>
      </trkpt>
      <trkpt lat="45.43402" lon="3.41526">
        <ele>542</ele>
        <time>2020-09-17T11:59:16Z</time>
      </trkpt>
      <trkpt lat="45.43401" lon="3.41528">
        <ele>542.1</ele>
        <time>2020-09-17T11:59:17Z</time>
      </trkpt>
      <trkpt lat="45.434" lon="3.41529">
        <ele>542.2</ele>
        <time>2020-09-17T11:59:18Z</time>
      </trkpt>
      <trkpt lat="45.434" lon="3.4153">
        <ele>542.3</ele>
        <time>2020-09-17T11:59:19Z</time>
      </trkpt>
      <trkpt lat="45.43399" lon="3.41532">
        <ele>542.4</ele>
        <time>2020-09-17T11:59:20Z</time>
      </trkpt>
      <trkpt lat="45.43398" lon="3.41533">
        <ele>542.5</ele>
        <time>2020-09-17T11:59:21Z</time>
      </trkpt>
      <trkpt lat="45.43398" lon="3.41535">
        <ele>542.6</ele>
        <time>2020-09-17T11:59:22Z</time>
      </trkpt>
      <trkpt lat="45.43397" lon="3.41536">
        <ele>542.7</ele>
        <time>2020-09-17T11:59:23Z</time>
      </trkpt>
      <trkpt lat="45.43397" lon="3.41538">
        <ele>542.8</ele>
        <time>2020-09-17T11:59:24Z</time>
      </trkpt>
      <trkpt lat="45.43396" lon="3.41539">
        <ele>542.9</ele>
        <time>2020-09-17T11:59:25Z</time>
      </trkpt>
      <trkpt lat="45.43395" lon="3.4154">
        <ele>543</ele>
        <time>2020-09-17T11:59:26Z</time>
      </trkpt>
      <trkpt lat="45.43395" lon="3.41542">
        <ele>543.1</ele>
        <time>2020-09-17T11:59:27Z</time>
      </trkpt>
      <trkpt lat="45.43394" lon="3.41543">
        <ele>543.2</ele>
        <time>2020-09-17T11:59:28Z</time>
      </trkpt>
      <trkpt lat="45.43393" lon="3.41545">
        <ele>543.3</ele>
        <time>2020-09-17T11:59:29Z</time>
      </trkpt>
      <trkpt lat="45.43393" lon="3.41546">
        <ele>543.4</ele>
        <time>2020-09-17T11:59:30Z</time>
      </trkpt>
      <trkpt lat="45.43392" lon="3.41547">
        <ele>543.5</ele>
        <time>2020-09-17T11:59:31Z</time>
      </trkpt>
      <trkpt lat="45.43392" lon="3.41549">
        <ele>543.6</ele>
        <time>2020-09-17T11:59:32Z</time>
      </trkpt>
      <trkpt lat="45.43391" lon="3.4155">
        <ele>543.7</ele>
        <time>2020-09-17T11:59:33Z</time>
      </trkpt>
      <trkpt lat="45.43391" lon="3.41552">
        <ele>543.7</ele>
        <time>2020-09-17T11:59:34Z</time>
      </trkpt>
      <trkpt lat="45.4339" lon="3.41553">
        <ele>543.8</ele>
        <time>2020-09-17T11:59:35Z</time>
      </trkpt>
      <trkpt lat="45.4339" lon="3.41555">
        <ele>543.9</ele>
        <time>2020-09-17T11:59:36Z</time>
      </trkpt>
      <trkpt lat="45.43389" lon="3.41556">
        <ele>544</ele>
        <time>2020-09-17T11:59:37Z</time>
      </trkpt>
      <trkpt lat="45.43389" lon="3.41558">
        <ele>544</ele>
        <time>2020-09-17T11:59:38Z</time>
      </trkpt>
      <trkpt lat="45.43388" lon="3.41559">
        <ele>544</ele>
        <time>2020-09-17T11:59:39Z</time>
      </trkpt>
      <trkpt lat="45.43388" lon="3.41561">
        <ele>544</ele>
        <time>2020-09-17T11:59:40Z</time>
      </trkpt>
      <trkpt lat="45.43388" lon="3.41562">
        <ele>544.1</ele>
        <time>2020-09-17T11:59:41Z</time>
      </trkpt>
      <trkpt lat="45.43387" lon="3.41563">
        <ele>544.1</ele>
        <time>2020-09-17T11:59:42Z</time>
      </trkpt>
      <trkpt lat="45.43387" lon="3.41565">
        <ele>544.1</ele>
        <time>2020-09-17T11:59:43Z</time>
      </trkpt>
      <trkpt lat="45.43387" lon="3.41566">
        <ele>544.1</ele>
        <time>2020-09-17T11:59:44Z</time>
      </trkpt>
      <trkpt lat="45.43387" lon="3.41567">
        <ele>544.1</ele>
        <time>2020-09-17T11:59:45Z</time>
      </trkpt>
      <trkpt lat="45.43387" lon="3.41568">
        <ele>544.1</ele>
        <time>2020-09-17T11:59:46Z</time>
      </trkpt>
      <trkpt lat="45.43388" lon="3.41569">
        <ele>544.1</ele>
        <time>2020-09-17T11:59:47Z</time>
      </trkpt>
      <trkpt lat="45.43387" lon="3.41569">
        <ele>544.1</ele>
        <time>2020-09-17T11:59:48Z</time>
      </trkpt>
      <trkpt lat="45.43387" lon="3.41569">
        <ele>544.1</ele>
        <time>2020-09-17T11:59:49Z</time>
      </trkpt>
      <trkpt lat="45.43387" lon="3.41569">
        <ele>544.1</ele>
        <time>2020-09-17T11:59:50Z</time>
      </trkpt>
      <trkpt lat="45.43388" lon="3.41569">
        <ele>544.1</ele>
        <time>2020-09-17T11:59:51Z</time>
      </trkpt>
      <trkpt lat="45.43388" lon="3.41569">
        <ele>544.1</ele>
        <time>2020-09-17T11:59:52Z</time>
      </trkpt>
      <trkpt lat="45.43388" lon="3.41569">
        <ele>544.1</ele>
        <time>2020-09-17T11:59:53Z</time>
      </trkpt>
      <trkpt lat="45.43388" lon="3.41569">
        <ele>544.1</ele>
        <time>2020-09-17T11:59:54Z</time>
      </trkpt>
      <trkpt lat="45.43388" lon="3.41569">
        <ele>544.1</ele>
        <time>2020-09-17T11:59:55Z</time>
      </trkpt>
      <trkpt lat="45.43388" lon="3.41569">
        <ele>544.1</ele>
        <time>2020-09-17T11:59:56Z</time>
      </trkpt>
      <trkpt lat="45.43388" lon="3.41569">
        <ele>544.1</ele>
        <time>2020-09-17T11:59:57Z</time>
      </trkpt>
      <trkpt lat="45.43388" lon="3.41569">
        <ele>544.1</ele>
        <time>2020-09-17T11:59:58Z</time>
      </trkpt>
      <trkpt lat="45.43388" lon="3.41569">
        <ele>544.1</ele>
        <time>2020-09-17T11:59:59Z</time>
      </trkpt>
      <trkpt lat="45.43388" lon="3.41569">
        <ele>544.1</ele>
        <time>2020-09-17T12:00:00Z</time>
      </trkpt>
      <trkpt lat="45.43388" lon="3.41569">
        <ele>544.1</ele>
        <time>2020-09-17T12:00:01Z</time>
      </trkpt>
      <trkpt lat="45.43388" lon="3.41569">
        <ele>544.1</ele>
        <time>2020-09-17T12:00:02Z</time>
      </trkpt>
      <trkpt lat="45.43388" lon="3.41569">
        <ele>544.1</ele>
        <time>2020-09-17T12:00:03Z</time>
      </trkpt>
      <trkpt lat="45.43388" lon="3.41569">
        <ele>544.1</ele>
        <time>2020-09-17T12:00:04Z</time>
      </trkpt>
      <trkpt lat="45.43388" lon="3.41569">
        <ele>544.1</ele>
        <time>2020-09-17T12:00:05Z</time>
      </trkpt>
      <trkpt lat="45.43388" lon="3.41569">
        <ele>544.1</ele>
        <time>2020-09-17T12:00:06Z</time>
      </trkpt>
      <trkpt lat="45.43388" lon="3.41569">
        <ele>544.1</ele>
        <time>2020-09-17T12:00:07Z</time>
      </trkpt>
      <trkpt lat="45.43388" lon="3.41569">
        <ele>544.1</ele>
        <time>2020-09-17T12:00:08Z</time>
      </trkpt>
      <trkpt lat="45.43388" lon="3.41569">
        <ele>544.1</ele>
        <time>2020-09-17T12:00:09Z</time>
      </trkpt>
      <trkpt lat="45.43388" lon="3.41569">
        <ele>544.1</ele>
        <time>2020-09-17T12:00:10Z</time>
      </trkpt>
      <trkpt lat="45.43388" lon="3.41569">
        <ele>544.1</ele>
        <time>2020-09-17T12:00:11Z</time>
      </trkpt>
      <trkpt lat="45.43388" lon="3.41569">
        <ele>544.1</ele>
        <time>2020-09-17T12:00:12Z</time>
      </trkpt>
      <trkpt lat="45.43388" lon="3.4157">
        <ele>544.1</ele>
        <time>2020-09-17T12:00:13Z</time>
      </trkpt>
      <trkpt lat="45.43388" lon="3.4157">
        <ele>544.1</ele>
        <time>2020-09-17T12:00:14Z</time>
      </trkpt>
      <trkpt lat="45.43388" lon="3.4157">
        <ele>544.1</ele>
        <time>2020-09-17T12:00:15Z</time>
      </trkpt>
      <trkpt lat="45.43388" lon="3.4157">
        <ele>544.1</ele>
        <time>2020-09-17T12:00:16Z</time>
      </trkpt>
      <trkpt lat="45.43388" lon="3.4157">
        <ele>544</ele>
        <time>2020-09-17T12:00:17Z</time>
      </trkpt>
      <trkpt lat="45.43388" lon="3.4157">
        <ele>544</ele>
        <time>2020-09-17T12:00:18Z</time>
      </trkpt>
      <trkpt lat="45.43388" lon="3.4157">
        <ele>544</ele>
        <time>2020-09-17T12:00:19Z</time>
      </trkpt>
      <trkpt lat="45.43388" lon="3.41571">
        <ele>544</ele>
        <time>2020-09-17T12:00:20Z</time>
      </trkpt>
      <trkpt lat="45.43388" lon="3.41571">
        <ele>544</ele>
        <time>2020-09-17T12:00:21Z</time>
      </trkpt>
      <trkpt lat="45.43389" lon="3.41571">
        <ele>544</ele>
        <time>2020-09-17T12:00:22Z</time>
      </trkpt>
      <trkpt lat="45.43389" lon="3.41572">
        <ele>544</ele>
        <time>2020-09-17T12:00:23Z</time>
      </trkpt>
      <trkpt lat="45.43389" lon="3.41573">
        <ele>544</ele>
        <time>2020-09-17T12:00:24Z</time>
      </trkpt>
      <trkpt lat="45.43389" lon="3.41574">
        <ele>544</ele>
        <time>2020-09-17T12:00:25Z</time>
      </trkpt>
      <trkpt lat="45.4339" lon="3.41575">
        <ele>544</ele>
        <time>2020-09-17T12:00:26Z</time>
      </trkpt>
      <trkpt lat="45.4339" lon="3.41576">
        <ele>543.9</ele>
        <time>2020-09-17T12:00:27Z</time>
      </trkpt>
      <trkpt lat="45.43391" lon="3.41577">
        <ele>543.9</ele>
        <time>2020-09-17T12:00:28Z</time>
      </trkpt>
      <trkpt lat="45.43391" lon="3.41579">
        <ele>543.9</ele>
        <time>2020-09-17T12:00:29Z</time>
      </trkpt>
      <trkpt lat="45.43391" lon="3.4158">
        <ele>543.9</ele>
        <time>2020-09-17T12:00:30Z</time>
      </trkpt>
      <trkpt lat="45.43392" lon="3.41581">
        <ele>543.9</ele>
        <time>2020-09-17T12:00:31Z</time>
      </trkpt>
      <trkpt lat="45.43392" lon="3.41583">
        <ele>543.9</ele>
        <time>2020-09-17T12:00:32Z</time>
      </trkpt>
      <trkpt lat="45.43393" lon="3.41584">
        <ele>543.9</ele>
        <time>2020-09-17T12:00:33Z</time>
      </trkpt>
      <trkpt lat="45.43393" lon="3.41586">
        <ele>544.1</ele>
        <time>2020-09-17T12:00:34Z</time>
      </trkpt>
      <trkpt lat="45.43394" lon="3.41587">
        <ele>544.2</ele>
        <time>2020-09-17T12:00:35Z</time>
      </trkpt>
      <trkpt lat="45.43394" lon="3.41589">
        <ele>544.3</ele>
        <time>2020-09-17T12:00:36Z</time>
      </trkpt>
      <trkpt lat="45.43394" lon="3.4159">
        <ele>544.4</ele>
        <time>2020-09-17T12:00:37Z</time>
      </trkpt>
      <trkpt lat="45.43395" lon="3.41592">
        <ele>544.6</ele>
        <time>2020-09-17T12:00:38Z</time>
      </trkpt>
      <trkpt lat="45.43395" lon="3.41593">
        <ele>544.7</ele>
        <time>2020-09-17T12:00:39Z</time>
      </trkpt>
      <trkpt lat="45.43395" lon="3.41594">
        <ele>544.8</ele>
        <time>2020-09-17T12:00:40Z</time>
      </trkpt>
      <trkpt lat="45.43395" lon="3.41596">
        <ele>544.9</ele>
        <time>2020-09-17T12:00:41Z</time>
      </trkpt>
      <trkpt lat="45.43396" lon="3.41597">
        <ele>545</ele>
        <time>2020-09-17T12:00:42Z</time>
      </trkpt>
      <trkpt lat="45.43396" lon="3.41599">
        <ele>545.1</ele>
        <time>2020-09-17T12:00:43Z</time>
      </trkpt>
      <trkpt lat="45.43396" lon="3.416">
        <ele>545.2</ele>
        <time>2020-09-17T12:00:44Z</time>
      </trkpt>
      <trkpt lat="45.43397" lon="3.41601">
        <ele>545.3</ele>
        <time>2020-09-17T12:00:45Z</time>
      </trkpt>
      <trkpt lat="45.43397" lon="3.41602">
        <ele>545.4</ele>
        <time>2020-09-17T12:00:46Z</time>
      </trkpt>
      <trkpt lat="45.43398" lon="3.41604">
        <ele>545.4</ele>
        <time>2020-09-17T12:00:47Z</time>
      </trkpt>
      <trkpt lat="45.43398" lon="3.41605">
        <ele>545.4</ele>
        <time>2020-09-17T12:00:48Z</time>
      </trkpt>
      <trkpt lat="45.43399" lon="3.41606">
        <ele>545.5</ele>
        <time>2020-09-17T12:00:49Z</time>
      </trkpt>
      <trkpt lat="45.434" lon="3.41607">
        <ele>545.5</ele>
        <time>2020-09-17T12:00:50Z</time>
      </trkpt>
      <trkpt lat="45.434" lon="3.41608">
        <ele>545.5</ele>
        <time>2020-09-17T12:00:51Z</time>
      </trkpt>
      <trkpt lat="45.43401" lon="3.41609">
        <ele>545.6</ele>
        <time>2020-09-17T12:00:52Z</time>
      </trkpt>
      <trkpt lat="45.43401" lon="3.4161">
        <ele>545.6</ele>
        <time>2020-09-17T12:00:53Z</time>
      </trkpt>
      <trkpt lat="45.43402" lon="3.41611">
        <ele>545.6</ele>
        <time>2020-09-17T12:00:54Z</time>
      </trkpt>
      <trkpt lat="45.43403" lon="3.41612">
        <ele>545.7</ele>
        <time>2020-09-17T12:00:55Z</time>
      </trkpt>
      <trkpt lat="45.43403" lon="3.41614">
        <ele>545.9</ele>
        <time>2020-09-17T12:00:56Z</time>
      </trkpt>
      <trkpt lat="45.43404" lon="3.41615">
        <ele>546</ele>
        <time>2020-09-17T12:00:57Z</time>
      </trkpt>
      <trkpt lat="45.43405" lon="3.41616">
        <ele>546.2</ele>
        <time>2020-09-17T12:00:58Z</time>
      </trkpt>
      <trkpt lat="45.43405" lon="3.41617">
        <ele>546.3</ele>
        <time>2020-09-17T12:00:59Z</time>
      </trkpt>
      <trkpt lat="45.43406" lon="3.41618">
        <ele>546.5</ele>
        <time>2020-09-17T12:01:00Z</time>
      </trkpt>
      <trkpt lat="45.43406" lon="3.41619">
        <ele>546.6</ele>
        <time>2020-09-17T12:01:01Z</time>
      </trkpt>
      <trkpt lat="45.43407" lon="3.4162">
        <ele>546.8</ele>
        <time>2020-09-17T12:01:02Z</time>
      </trkpt>
      <trkpt lat="45.43408" lon="3.41622">
        <ele>547</ele>
        <time>2020-09-17T12:01:03Z</time>
      </trkpt>
      <trkpt lat="45.43408" lon="3.41623">
        <ele>547.2</ele>
        <time>2020-09-17T12:01:04Z</time>
      </trkpt>
      <trkpt lat="45.43408" lon="3.41624">
        <ele>547.4</ele>
        <time>2020-09-17T12:01:05Z</time>
      </trkpt>
      <trkpt lat="45.43409" lon="3.41625">
        <ele>547.6</ele>
        <time>2020-09-17T12:01:06Z</time>
      </trkpt>
      <trkpt lat="45.43409" lon="3.41627">
        <ele>547.8</ele>
        <time>2020-09-17T12:01:07Z</time>
      </trkpt>
      <trkpt lat="45.43409" lon="3.41628">
        <ele>548.1</ele>
        <time>2020-09-17T12:01:08Z</time>
      </trkpt>
      <trkpt lat="45.4341" lon="3.41629">
        <ele>548.3</ele>
        <time>2020-09-17T12:01:09Z</time>
      </trkpt>
      <trkpt lat="45.4341" lon="3.4163">
        <ele>548.5</ele>
        <time>2020-09-17T12:01:10Z</time>
      </trkpt>
      <trkpt lat="45.4341" lon="3.41631">
        <ele>548.7</ele>
        <time>2020-09-17T12:01:11Z</time>
      </trkpt>
      <trkpt lat="45.4341" lon="3.41632">
        <ele>548.9</ele>
        <time>2020-09-17T12:01:12Z</time>
      </trkpt>
      <trkpt lat="45.43411" lon="3.41633">
        <ele>549.1</ele>
        <time>2020-09-17T12:01:13Z</time>
      </trkpt>
      <trkpt lat="45.43411" lon="3.41634">
        <ele>549.3</ele>
        <time>2020-09-17T12:01:14Z</time>
      </trkpt>
      <trkpt lat="45.43411" lon="3.41635">
        <ele>549.4</ele>
        <time>2020-09-17T12:01:15Z</time>
      </trkpt>
      <trkpt lat="45.43412" lon="3.41636">
        <ele>549.6</ele>
        <time>2020-09-17T12:01:16Z</time>
      </trkpt>
      <trkpt lat="45.43412" lon="3.41637">
        <ele>549.8</ele>
        <time>2020-09-17T12:01:17Z</time>
      </trkpt>
      <trkpt lat="45.43413" lon="3.41638">
        <ele>549.9</ele>
        <time>2020-09-17T12:01:18Z</time>
      </trkpt>
      <trkpt lat="45.43413" lon="3.41639">
        <ele>550</ele>
        <time>2020-09-17T12:01:19Z</time>
      </trkpt>
      <trkpt lat="45.43414" lon="3.41639">
        <ele>550.2</ele>
        <time>2020-09-17T12:01:20Z</time>
      </trkpt>
      <trkpt lat="45.43414" lon="3.4164">
        <ele>550.3</ele>
        <time>2020-09-17T12:01:21Z</time>
      </trkpt>
      <trkpt lat="45.43415" lon="3.41641">
        <ele>550.5</ele>
        <time>2020-09-17T12:01:22Z</time>
      </trkpt>
      <trkpt lat="45.43415" lon="3.41642">
        <ele>550.6</ele>
        <time>2020-09-17T12:01:23Z</time>
      </trkpt>
      <trkpt lat="45.43415" lon="3.41642">
        <ele>550.7</ele>
        <time>2020-09-17T12:01:24Z</time>
      </trkpt>
      <trkpt lat="45.43416" lon="3.41642">
        <ele>550.7</ele>
        <time>2020-09-17T12:01:25Z</time>
      </trkpt>
      <trkpt lat="45.43416" lon="3.41642">
        <ele>550.8</ele>
        <time>2020-09-17T12:01:26Z</time>
      </trkpt>
      <trkpt lat="45.43416" lon="3.41643">
        <ele>550.8</ele>
        <time>2020-09-17T12:01:27Z</time>
      </trkpt>
      <trkpt lat="45.43417" lon="3.41643">
        <ele>550.9</ele>
        <time>2020-09-17T12:01:28Z</time>
      </trkpt>
      <trkpt lat="45.43417" lon="3.41644">
        <ele>551</ele>
        <time>2020-09-17T12:01:29Z</time>
      </trkpt>
      <trkpt lat="45.43418" lon="3.41645">
        <ele>551</ele>
        <time>2020-09-17T12:01:30Z</time>
      </trkpt>
      <trkpt lat="45.43418" lon="3.41645">
        <ele>551.2</ele>
        <time>2020-09-17T12:01:31Z</time>
      </trkpt>
      <trkpt lat="45.43419" lon="3.41646">
        <ele>551.3</ele>
        <time>2020-09-17T12:01:32Z</time>
      </trkpt>
      <trkpt lat="45.43419" lon="3.41647">
        <ele>551.5</ele>
        <time>2020-09-17T12:01:33Z</time>
      </trkpt>
      <trkpt lat="45.43419" lon="3.41648">
        <ele>551.6</ele>
        <time>2020-09-17T12:01:34Z</time>
      </trkpt>
      <trkpt lat="45.43419" lon="3.41649">
        <ele>551.9</ele>
        <time>2020-09-17T12:01:35Z</time>
      </trkpt>
      <trkpt lat="45.43419" lon="3.4165">
        <ele>552.1</ele>
        <time>2020-09-17T12:01:36Z</time>
      </trkpt>
      <trkpt lat="45.43418" lon="3.41651">
        <ele>552.4</ele>
        <time>2020-09-17T12:01:37Z</time>
      </trkpt>
      <trkpt lat="45.43418" lon="3.41652">
        <ele>552.6</ele>
        <time>2020-09-17T12:01:38Z</time>
      </trkpt>
      <trkpt lat="45.43417" lon="3.41652">
        <ele>552.8</ele>
        <time>2020-09-17T12:01:39Z</time>
      </trkpt>
      <trkpt lat="45.43416" lon="3.41652">
        <ele>552.9</ele>
        <time>2020-09-17T12:01:40Z</time>
      </trkpt>
      <trkpt lat="45.43415" lon="3.41652">
        <ele>552.9</ele>
        <time>2020-09-17T12:01:41Z</time>
      </trkpt>
      <trkpt lat="45.43415" lon="3.41652">
        <ele>552.8</ele>
        <time>2020-09-17T12:01:42Z</time>
      </trkpt>
      <trkpt lat="45.43414" lon="3.41652">
        <ele>552.8</ele>
        <time>2020-09-17T12:01:43Z</time>
      </trkpt>
      <trkpt lat="45.43414" lon="3.41652">
        <ele>552.8</ele>
        <time>2020-09-17T12:01:44Z</time>
      </trkpt>
      <trkpt lat="45.43414" lon="3.41652">
        <ele>552.8</ele>
        <time>2020-09-17T12:01:45Z</time>
      </trkpt>
      <trkpt lat="45.43414" lon="3.41652">
        <ele>552.8</ele>
        <time>2020-09-17T12:01:46Z</time>
      </trkpt>
      <trkpt lat="45.43414" lon="3.41652">
        <ele>552.8</ele>
        <time>2020-09-17T12:01:47Z</time>
      </trkpt>
      <trkpt lat="45.43414" lon="3.41652">
        <ele>552.7</ele>
        <time>2020-09-17T12:01:48Z</time>
      </trkpt>
      <trkpt lat="45.43414" lon="3.41652">
        <ele>552.8</ele>
        <time>2020-09-17T12:01:49Z</time>
      </trkpt>
      <trkpt lat="45.43414" lon="3.41652">
        <ele>552.7</ele>
        <time>2020-09-17T12:01:50Z</time>
      </trkpt>
      <trkpt lat="45.43414" lon="3.41651">
        <ele>552.7</ele>
        <time>2020-09-17T12:01:51Z</time>
      </trkpt>
      <trkpt lat="45.43413" lon="3.41651">
        <ele>552.6</ele>
        <time>2020-09-17T12:01:52Z</time>
      </trkpt>
      <trkpt lat="45.43413" lon="3.41651">
        <ele>552.6</ele>
        <time>2020-09-17T12:01:53Z</time>
      </trkpt>
      <trkpt lat="45.43413" lon="3.41651">
        <ele>552.5</ele>
        <time>2020-09-17T12:01:54Z</time>
      </trkpt>
      <trkpt lat="45.43413" lon="3.41651">
        <ele>552.6</ele>
        <time>2020-09-17T12:01:55Z</time>
      </trkpt>
      <trkpt lat="45.43413" lon="3.41651">
        <ele>552.5</ele>
        <time>2020-09-17T12:01:56Z</time>
      </trkpt>
      <trkpt lat="45.43413" lon="3.4165">
        <ele>552.5</ele>
        <time>2020-09-17T12:01:57Z</time>
      </trkpt>
      <trkpt lat="45.43413" lon="3.4165">
        <ele>552.4</ele>
        <time>2020-09-17T12:01:58Z</time>
      </trkpt>
      <trkpt lat="45.43413" lon="3.4165">
        <ele>552.3</ele>
        <time>2020-09-17T12:01:59Z</time>
      </trkpt>
      <trkpt lat="45.43412" lon="3.41649">
        <ele>552.2</ele>
        <time>2020-09-17T12:02:00Z</time>
      </trkpt>
      <trkpt lat="45.43412" lon="3.41649">
        <ele>552.2</ele>
        <time>2020-09-17T12:02:01Z</time>
      </trkpt>
      <trkpt lat="45.43412" lon="3.41648">
        <ele>552.1</ele>
        <time>2020-09-17T12:02:02Z</time>
      </trkpt>
      <trkpt lat="45.43411" lon="3.41648">
        <ele>552.1</ele>
        <time>2020-09-17T12:02:03Z</time>
      </trkpt>
      <trkpt lat="45.4341" lon="3.41648">
        <ele>552</ele>
        <time>2020-09-17T12:02:04Z</time>
      </trkpt>
      <trkpt lat="45.4341" lon="3.41647">
        <ele>551.9</ele>
        <time>2020-09-17T12:02:05Z</time>
      </trkpt>
      <trkpt lat="45.43409" lon="3.41647">
        <ele>551.9</ele>
        <time>2020-09-17T12:02:06Z</time>
      </trkpt>
      <trkpt lat="45.43408" lon="3.41647">
        <ele>551.8</ele>
        <time>2020-09-17T12:02:07Z</time>
      </trkpt>
      <trkpt lat="45.43408" lon="3.41646">
        <ele>551.8</ele>
        <time>2020-09-17T12:02:08Z</time>
      </trkpt>
      <trkpt lat="45.43405" lon="3.41627">
        <ele>548.2</ele>
        <time>2020-09-17T12:02:09Z</time>
      </trkpt>
      <trkpt lat="45.43404" lon="3.41626">
        <ele>548.1</ele>
        <time>2020-09-17T12:02:10Z</time>
      </trkpt>
      <trkpt lat="45.43404" lon="3.41625">
        <ele>548</ele>
        <time>2020-09-17T12:02:11Z</time>
      </trkpt>
      <trkpt lat="45.43403" lon="3.41624">
        <ele>547.8</ele>
        <time>2020-09-17T12:02:12Z</time>
      </trkpt>
      <trkpt lat="45.43403" lon="3.41623">
        <ele>547.7</ele>
        <time>2020-09-17T12:02:13Z</time>
      </trkpt>
      <trkpt lat="45.43402" lon="3.41622">
        <ele>547.5</ele>
        <time>2020-09-17T12:02:14Z</time>
      </trkpt>
      <trkpt lat="45.43402" lon="3.41621">
        <ele>547.4</ele>
        <time>2020-09-17T12:02:15Z</time>
      </trkpt>
      <trkpt lat="45.43401" lon="3.4162">
        <ele>547.2</ele>
        <time>2020-09-17T12:02:16Z</time>
      </trkpt>
      <trkpt lat="45.43401" lon="3.41619">
        <ele>547</ele>
        <time>2020-09-17T12:02:17Z</time>
      </trkpt>
      <trkpt lat="45.43401" lon="3.41618">
        <ele>546.9</ele>
        <time>2020-09-17T12:02:18Z</time>
      </trkpt>
      <trkpt lat="45.434" lon="3.41617">
        <ele>546.8</ele>
        <time>2020-09-17T12:02:19Z</time>
      </trkpt>
      <trkpt lat="45.43399" lon="3.41616">
        <ele>546.7</ele>
        <time>2020-09-17T12:02:20Z</time>
      </trkpt>
      <trkpt lat="45.43398" lon="3.41615">
        <ele>546.6</ele>
        <time>2020-09-17T12:02:21Z</time>
      </trkpt>
      <trkpt lat="45.43398" lon="3.41614">
        <ele>546.5</ele>
        <time>2020-09-17T12:02:22Z</time>
      </trkpt>
      <trkpt lat="45.43397" lon="3.41613">
        <ele>546.4</ele>
        <time>2020-09-17T12:02:23Z</time>
      </trkpt>
      <trkpt lat="45.43396" lon="3.41612">
        <ele>546.3</ele>
        <time>2020-09-17T12:02:24Z</time>
      </trkpt>
      <trkpt lat="45.43396" lon="3.41611">
        <ele>546.3</ele>
        <time>2020-09-17T12:02:25Z</time>
      </trkpt>
      <trkpt lat="45.43395" lon="3.4161">
        <ele>546.2</ele>
        <time>2020-09-17T12:02:26Z</time>
      </trkpt>
      <trkpt lat="45.43395" lon="3.41609">
        <ele>546.2</ele>
        <time>2020-09-17T12:02:27Z</time>
      </trkpt>
      <trkpt lat="45.43394" lon="3.41608">
        <ele>546.1</ele>
        <time>2020-09-17T12:02:28Z</time>
      </trkpt>
      <trkpt lat="45.43394" lon="3.41606">
        <ele>546</ele>
        <time>2020-09-17T12:02:29Z</time>
      </trkpt>
      <trkpt lat="45.43393" lon="3.41605">
        <ele>546</ele>
        <time>2020-09-17T12:02:30Z</time>
      </trkpt>
      <trkpt lat="45.43393" lon="3.41604">
        <ele>545.9</ele>
        <time>2020-09-17T12:02:31Z</time>
      </trkpt>
      <trkpt lat="45.43392" lon="3.41603">
        <ele>545.8</ele>
        <time>2020-09-17T12:02:32Z</time>
      </trkpt>
      <trkpt lat="45.43392" lon="3.41601">
        <ele>545.7</ele>
        <time>2020-09-17T12:02:33Z</time>
      </trkpt>
      <trkpt lat="45.43392" lon="3.416">
        <ele>545.6</ele>
        <time>2020-09-17T12:02:34Z</time>
      </trkpt>
      <trkpt lat="45.43391" lon="3.41598">
        <ele>545.4</ele>
        <time>2020-09-17T12:02:35Z</time>
      </trkpt>
      <trkpt lat="45.43391" lon="3.41597">
        <ele>545.3</ele>
        <time>2020-09-17T12:02:36Z</time>
      </trkpt>
      <trkpt lat="45.4339" lon="3.41595">
        <ele>545.2</ele>
        <time>2020-09-17T12:02:37Z</time>
      </trkpt>
      <trkpt lat="45.4339" lon="3.41594">
        <ele>545.1</ele>
        <time>2020-09-17T12:02:38Z</time>
      </trkpt>
      <trkpt lat="45.43389" lon="3.41593">
        <ele>545</ele>
        <time>2020-09-17T12:02:39Z</time>
      </trkpt>
      <trkpt lat="45.43389" lon="3.41592">
        <ele>544.9</ele>
        <time>2020-09-17T12:02:40Z</time>
      </trkpt>
      <trkpt lat="45.43389" lon="3.4159">
        <ele>544.8</ele>
        <time>2020-09-17T12:02:41Z</time>
      </trkpt>
      <trkpt lat="45.43388" lon="3.41589">
        <ele>544.7</ele>
        <time>2020-09-17T12:02:42Z</time>
      </trkpt>
      <trkpt lat="45.43388" lon="3.41588">
        <ele>544.5</ele>
        <time>2020-09-17T12:02:43Z</time>
      </trkpt>
      <trkpt lat="45.43387" lon="3.41586">
        <ele>544.4</ele>
        <time>2020-09-17T12:02:44Z</time>
      </trkpt>
      <trkpt lat="45.43387" lon="3.41585">
        <ele>544.3</ele>
        <time>2020-09-17T12:02:45Z</time>
      </trkpt>
      <trkpt lat="45.43387" lon="3.41584">
        <ele>544.2</ele>
        <time>2020-09-17T12:02:46Z</time>
      </trkpt>
      <trkpt lat="45.43387" lon="3.41582">
        <ele>544.2</ele>
        <time>2020-09-17T12:02:47Z</time>
      </trkpt>
      <trkpt lat="45.43387" lon="3.41581">
        <ele>544.2</ele>
        <time>2020-09-17T12:02:48Z</time>
      </trkpt>
      <trkpt lat="45.43387" lon="3.4158">
        <ele>544.1</ele>
        <time>2020-09-17T12:02:49Z</time>
      </trkpt>
      <trkpt lat="45.43387" lon="3.41579">
        <ele>544.1</ele>
        <time>2020-09-17T12:02:50Z</time>
      </trkpt>
      <trkpt lat="45.43387" lon="3.41579">
        <ele>544.1</ele>
        <time>2020-09-17T12:02:51Z</time>
      </trkpt>
      <trkpt lat="45.43387" lon="3.41579">
        <ele>544.1</ele>
        <time>2020-09-17T12:02:52Z</time>
      </trkpt>
      <trkpt lat="45.43388" lon="3.41579">
        <ele>544.1</ele>
        <time>2020-09-17T12:02:53Z</time>
      </trkpt>
      <trkpt lat="45.43388" lon="3.41578">
        <ele>544</ele>
        <time>2020-09-17T12:02:54Z</time>
      </trkpt>
      <trkpt lat="45.43388" lon="3.41578">
        <ele>544</ele>
        <time>2020-09-17T12:02:55Z</time>
      </trkpt>
      <trkpt lat="45.43388" lon="3.41578">
        <ele>544</ele>
        <time>2020-09-17T12:02:56Z</time>
      </trkpt>
      <trkpt lat="45.43388" lon="3.41578">
        <ele>544</ele>
        <time>2020-09-17T12:02:57Z</time>
      </trkpt>
      <trkpt lat="45.43388" lon="3.41578">
        <ele>544.1</ele>
        <time>2020-09-17T12:02:58Z</time>
      </trkpt>
      <trkpt lat="45.43388" lon="3.41578">
        <ele>544.1</ele>
        <time>2020-09-17T12:02:59Z</time>
      </trkpt>
      <trkpt lat="45.43387" lon="3.41578">
        <ele>544.1</ele>
        <time>2020-09-17T12:03:00Z</time>
      </trkpt>
      <trkpt lat="45.43386" lon="3.41578">
        <ele>544.2</ele>
        <time>2020-09-17T12:03:01Z</time>
      </trkpt>
      <trkpt lat="45.43385" lon="3.41577">
        <ele>544.2</ele>
        <time>2020-09-17T12:03:02Z</time>
      </trkpt>
      <trkpt lat="45.43384" lon="3.41577">
        <ele>544.3</ele>
        <time>2020-09-17T12:03:03Z</time>
      </trkpt>
      <trkpt lat="45.43384" lon="3.41577">
        <ele>544.3</ele>
        <time>2020-09-17T12:03:04Z</time>
      </trkpt>
      <trkpt lat="45.43383" lon="3.41577">
        <ele>544.4</ele>
        <time>2020-09-17T12:03:05Z</time>
      </trkpt>
      <trkpt lat="45.43382" lon="3.41577">
        <ele>544.5</ele>
        <time>2020-09-17T12:03:06Z</time>
      </trkpt>
      <trkpt lat="45.43381" lon="3.41577">
        <ele>544.5</ele>
        <time>2020-09-17T12:03:07Z</time>
      </trkpt>
      <trkpt lat="45.4338" lon="3.41577">
        <ele>544.6</ele>
        <time>2020-09-17T12:03:08Z</time>
      </trkpt>
      <trkpt lat="45.43379" lon="3.41576">
        <ele>544.6</ele>
        <time>2020-09-17T12:03:09Z</time>
      </trkpt>
      <trkpt lat="45.43379" lon="3.41576">
        <ele>544.7</ele>
        <time>2020-09-17T12:03:10Z</time>
      </trkpt>
      <trkpt lat="45.43378" lon="3.41576">
        <ele>544.7</ele>
        <time>2020-09-17T12:03:11Z</time>
      </trkpt>
      <trkpt lat="45.43377" lon="3.41576">
        <ele>544.7</ele>
        <time>2020-09-17T12:03:12Z</time>
      </trkpt>
      <trkpt lat="45.43376" lon="3.41576">
        <ele>544.8</ele>
        <time>2020-09-17T12:03:13Z</time>
      </trkpt>
      <trkpt lat="45.43376" lon="3.41575">
        <ele>544.8</ele>
        <time>2020-09-17T12:03:14Z</time>
      </trkpt>
      <trkpt lat="45.43375" lon="3.41576">
        <ele>544.9</ele>
        <time>2020-09-17T12:03:15Z</time>
      </trkpt>
      <trkpt lat="45.43374" lon="3.41576">
        <ele>544.9</ele>
        <time>2020-09-17T12:03:16Z</time>
      </trkpt>
      <trkpt lat="45.43374" lon="3.41576">
        <ele>545</ele>
        <time>2020-09-17T12:03:17Z</time>
      </trkpt>
      <trkpt lat="45.43373" lon="3.41577">
        <ele>545</ele>
        <time>2020-09-17T12:03:18Z</time>
      </trkpt>
      <trkpt lat="45.43372" lon="3.41577">
        <ele>545.1</ele>
        <time>2020-09-17T12:03:19Z</time>
      </trkpt>
      <trkpt lat="45.43371" lon="3.41577">
        <ele>545.1</ele>
        <time>2020-09-17T12:03:20Z</time>
      </trkpt>
      <trkpt lat="45.43371" lon="3.41577">
        <ele>545.2</ele>
        <time>2020-09-17T12:03:21Z</time>
      </trkpt>
      <trkpt lat="45.4337" lon="3.41577">
        <ele>545.2</ele>
        <time>2020-09-17T12:03:22Z</time>
      </trkpt>
      <trkpt lat="45.43369" lon="3.41578">
        <ele>545.3</ele>
        <time>2020-09-17T12:03:23Z</time>
      </trkpt>
      <trkpt lat="45.43369" lon="3.41578">
        <ele>545.3</ele>
        <time>2020-09-17T12:03:24Z</time>
      </trkpt>
      <trkpt lat="45.43369" lon="3.41578">
        <ele>545.3</ele>
        <time>2020-09-17T12:03:25Z</time>
      </trkpt>
      <trkpt lat="45.43367" lon="3.41577">
        <ele>545.4</ele>
        <time>2020-09-17T12:03:26Z</time>
      </trkpt>
      <trkpt lat="45.43366" lon="3.41577">
        <ele>545.5</ele>
        <time>2020-09-17T12:03:27Z</time>
      </trkpt>
      <trkpt lat="45.43365" lon="3.41577">
        <ele>545.5</ele>
        <time>2020-09-17T12:03:28Z</time>
      </trkpt>
      <trkpt lat="45.43364" lon="3.41577">
        <ele>545.6</ele>
        <time>2020-09-17T12:03:29Z</time>
      </trkpt>
      <trkpt lat="45.43363" lon="3.41577">
        <ele>545.6</ele>
        <time>2020-09-17T12:03:30Z</time>
      </trkpt>
      <trkpt lat="45.43362" lon="3.41577">
        <ele>545.7</ele>
        <time>2020-09-17T12:03:31Z</time>
      </trkpt>
      <trkpt lat="45.43361" lon="3.41577">
        <ele>545.8</ele>
        <time>2020-09-17T12:03:32Z</time>
      </trkpt>
      <trkpt lat="45.43361" lon="3.41577">
        <ele>545.9</ele>
        <time>2020-09-17T12:03:33Z</time>
      </trkpt>
      <trkpt lat="45.4336" lon="3.41578">
        <ele>546</ele>
        <time>2020-09-17T12:03:34Z</time>
      </trkpt>
      <trkpt lat="45.43359" lon="3.41578">
        <ele>546.1</ele>
        <time>2020-09-17T12:03:35Z</time>
      </trkpt>
      <trkpt lat="45.43358" lon="3.41579">
        <ele>546.3</ele>
        <time>2020-09-17T12:03:36Z</time>
      </trkpt>
      <trkpt lat="45.43357" lon="3.41579">
        <ele>546.5</ele>
        <time>2020-09-17T12:03:37Z</time>
      </trkpt>
      <trkpt lat="45.43356" lon="3.41579">
        <ele>546.7</ele>
        <time>2020-09-17T12:03:38Z</time>
      </trkpt>
      <trkpt lat="45.43356" lon="3.41579">
        <ele>546.8</ele>
        <time>2020-09-17T12:03:39Z</time>
      </trkpt>
      <trkpt lat="45.43355" lon="3.4158">
        <ele>546.9</ele>
        <time>2020-09-17T12:03:40Z</time>
      </trkpt>
      <trkpt lat="45.43354" lon="3.4158">
        <ele>547.1</ele>
        <time>2020-09-17T12:03:41Z</time>
      </trkpt>
      <trkpt lat="45.43353" lon="3.4158">
        <ele>547.2</ele>
        <time>2020-09-17T12:03:42Z</time>
      </trkpt>
      <trkpt lat="45.43353" lon="3.4158">
        <ele>547.3</ele>
        <time>2020-09-17T12:03:43Z</time>
      </trkpt>
      <trkpt lat="45.43353" lon="3.41581">
        <ele>547.4</ele>
        <time>2020-09-17T12:03:44Z</time>
      </trkpt>
      <trkpt lat="45.43352" lon="3.41581">
        <ele>547.5</ele>
        <time>2020-09-17T12:03:45Z</time>
      </trkpt>
      <trkpt lat="45.43352" lon="3.41581">
        <ele>547.5</ele>
        <time>2020-09-17T12:03:46Z</time>
      </trkpt>
      <trkpt lat="45.43352" lon="3.41581">
        <ele>547.6</ele>
        <time>2020-09-17T12:03:47Z</time>
      </trkpt>
      <trkpt lat="45.43352" lon="3.41581">
        <ele>547.6</ele>
        <time>2020-09-17T12:03:48Z</time>
      </trkpt>
      <trkpt lat="45.43352" lon="3.41581">
        <ele>547.5</ele>
        <time>2020-09-17T12:03:49Z</time>
      </trkpt>
      <trkpt lat="45.43352" lon="3.41581">
        <ele>547.5</ele>
        <time>2020-09-17T12:03:50Z</time>
      </trkpt>
      <trkpt lat="45.43352" lon="3.41581">
        <ele>547.6</ele>
        <time>2020-09-17T12:03:51Z</time>
      </trkpt>
      <trkpt lat="45.43352" lon="3.41581">
        <ele>547.6</ele>
        <time>2020-09-17T12:03:52Z</time>
      </trkpt>
      <trkpt lat="45.43352" lon="3.41581">
        <ele>547.6</ele>
        <time>2020-09-17T12:03:53Z</time>
      </trkpt>
      <trkpt lat="45.43352" lon="3.41581">
        <ele>547.6</ele>
        <time>2020-09-17T12:03:54Z</time>
      </trkpt>
      <trkpt lat="45.43352" lon="3.41581">
        <ele>547.6</ele>
        <time>2020-09-17T12:03:55Z</time>
      </trkpt>
      <trkpt lat="45.43352" lon="3.41581">
        <ele>547.6</ele>
        <time>2020-09-17T12:03:56Z</time>
      </trkpt>
      <trkpt lat="45.43352" lon="3.41581">
        <ele>547.6</ele>
        <time>2020-09-17T12:03:57Z</time>
      </trkpt>
      <trkpt lat="45.43352" lon="3.41581">
        <ele>547.6</ele>
        <time>2020-09-17T12:03:58Z</time>
      </trkpt>
      <trkpt lat="45.43352" lon="3.41581">
        <ele>547.6</ele>
        <time>2020-09-17T12:03:59Z</time>
      </trkpt>
      <trkpt lat="45.43352" lon="3.41581">
        <ele>547.6</ele>
        <time>2020-09-17T12:04:00Z</time>
      </trkpt>
      <trkpt lat="45.43352" lon="3.41581">
        <ele>547.5</ele>
        <time>2020-09-17T12:04:01Z</time>
      </trkpt>
      <trkpt lat="45.43352" lon="3.41581">
        <ele>547.5</ele>
        <time>2020-09-17T12:04:02Z</time>
      </trkpt>
      <trkpt lat="45.43352" lon="3.41581">
        <ele>547.6</ele>
        <time>2020-09-17T12:04:03Z</time>
      </trkpt>
      <trkpt lat="45.43351" lon="3.41581">
        <ele>547.6</ele>
        <time>2020-09-17T12:04:04Z</time>
      </trkpt>
      <trkpt lat="45.43351" lon="3.41582">
        <ele>547.7</ele>
        <time>2020-09-17T12:04:05Z</time>
      </trkpt>
      <trkpt lat="45.43351" lon="3.41582">
        <ele>547.7</ele>
        <time>2020-09-17T12:04:06Z</time>
      </trkpt>
      <trkpt lat="45.43351" lon="3.41582">
        <ele>547.7</ele>
        <time>2020-09-17T12:04:07Z</time>
      </trkpt>
      <trkpt lat="45.43351" lon="3.41582">
        <ele>547.7</ele>
        <time>2020-09-17T12:04:08Z</time>
      </trkpt>
      <trkpt lat="45.43351" lon="3.41582">
        <ele>547.7</ele>
        <time>2020-09-17T12:04:09Z</time>
      </trkpt>
      <trkpt lat="45.43351" lon="3.41582">
        <ele>547.7</ele>
        <time>2020-09-17T12:04:10Z</time>
      </trkpt>
      <trkpt lat="45.43351" lon="3.41582">
        <ele>547.7</ele>
        <time>2020-09-17T12:04:11Z</time>
      </trkpt>
      <trkpt lat="45.43351" lon="3.41582">
        <ele>547.8</ele>
        <time>2020-09-17T12:04:12Z</time>
      </trkpt>
      <trkpt lat="45.43351" lon="3.41583">
        <ele>547.8</ele>
        <time>2020-09-17T12:04:13Z</time>
      </trkpt>
      <trkpt lat="45.4335" lon="3.41583">
        <ele>547.9</ele>
        <time>2020-09-17T12:04:14Z</time>
      </trkpt>
      <trkpt lat="45.4335" lon="3.41583">
        <ele>548</ele>
        <time>2020-09-17T12:04:15Z</time>
      </trkpt>
      <trkpt lat="45.4335" lon="3.41584">
        <ele>548.1</ele>
        <time>2020-09-17T12:04:16Z</time>
      </trkpt>
      <trkpt lat="45.4335" lon="3.41585">
        <ele>548.2</ele>
        <time>2020-09-17T12:04:17Z</time>
      </trkpt>
      <trkpt lat="45.43349" lon="3.41585">
        <ele>548.3</ele>
        <time>2020-09-17T12:04:18Z</time>
      </trkpt>
      <trkpt lat="45.43349" lon="3.41585">
        <ele>548.3</ele>
        <time>2020-09-17T12:04:19Z</time>
      </trkpt>
      <trkpt lat="45.43349" lon="3.41585">
        <ele>548.3</ele>
        <time>2020-09-17T12:04:20Z</time>
      </trkpt>
      <trkpt lat="45.43349" lon="3.41585">
        <ele>548.3</ele>
        <time>2020-09-17T12:04:21Z</time>
      </trkpt>
      <trkpt lat="45.43349" lon="3.41585">
        <ele>548.3</ele>
        <time>2020-09-17T12:04:22Z</time>
      </trkpt>
      <trkpt lat="45.43349" lon="3.41585">
        <ele>548.3</ele>
        <time>2020-09-17T12:04:23Z</time>
      </trkpt>
      <trkpt lat="45.43349" lon="3.41585">
        <ele>548.3</ele>
        <time>2020-09-17T12:04:24Z</time>
      </trkpt>
      <trkpt lat="45.43349" lon="3.41585">
        <ele>548.3</ele>
        <time>2020-09-17T12:04:25Z</time>
      </trkpt>
      <trkpt lat="45.43349" lon="3.41585">
        <ele>548.3</ele>
        <time>2020-09-17T12:04:26Z</time>
      </trkpt>
      <trkpt lat="45.43349" lon="3.41585">
        <ele>548.3</ele>
        <time>2020-09-17T12:04:27Z</time>
      </trkpt>
      <trkpt lat="45.43349" lon="3.41585">
        <ele>548.3</ele>
        <time>2020-09-17T12:04:28Z</time>
      </trkpt>
      <trkpt lat="45.43349" lon="3.41585">
        <ele>548.3</ele>
        <time>2020-09-17T12:04:29Z</time>
      </trkpt>
      <trkpt lat="45.43349" lon="3.41585">
        <ele>548.3</ele>
        <time>2020-09-17T12:04:30Z</time>
      </trkpt>
      <trkpt lat="45.43349" lon="3.41585">
        <ele>548.3</ele>
        <time>2020-09-17T12:04:31Z</time>
      </trkpt>
      <trkpt lat="45.43349" lon="3.41585">
        <ele>548.3</ele>
        <time>2020-09-17T12:04:32Z</time>
      </trkpt>
      <trkpt lat="45.43309" lon="3.41576">
        <ele>553.7</ele>
        <time>2020-09-17T12:04:33Z</time>
      </trkpt>
      <trkpt lat="45.43308" lon="3.41576">
        <ele>553.8</ele>
        <time>2020-09-17T12:04:34Z</time>
      </trkpt>
      <trkpt lat="45.43308" lon="3.41576">
        <ele>553.9</ele>
        <time>2020-09-17T12:04:35Z</time>
      </trkpt>
      <trkpt lat="45.43307" lon="3.41576">
        <ele>554</ele>
        <time>2020-09-17T12:04:36Z</time>
      </trkpt>
      <trkpt lat="45.43306" lon="3.41575">
        <ele>554.1</ele>
        <time>2020-09-17T12:04:37Z</time>
      </trkpt>
      <trkpt lat="45.43305" lon="3.41575">
        <ele>554.1</ele>
        <time>2020-09-17T12:04:38Z</time>
      </trkpt>
      <trkpt lat="45.43304" lon="3.41575">
        <ele>554.3</ele>
        <time>2020-09-17T12:04:39Z</time>
      </trkpt>
      <trkpt lat="45.43303" lon="3.41575">
        <ele>554.4</ele>
        <time>2020-09-17T12:04:40Z</time>
      </trkpt>
      <trkpt lat="45.43303" lon="3.41574">
        <ele>554.5</ele>
        <time>2020-09-17T12:04:41Z</time>
      </trkpt>
      <trkpt lat="45.43302" lon="3.41574">
        <ele>554.6</ele>
        <time>2020-09-17T12:04:42Z</time>
      </trkpt>
      <trkpt lat="45.43301" lon="3.41573">
        <ele>554.6</ele>
        <time>2020-09-17T12:04:43Z</time>
      </trkpt>
      <trkpt lat="45.433" lon="3.41573">
        <ele>554.7</ele>
        <time>2020-09-17T12:04:44Z</time>
      </trkpt>
      <trkpt lat="45.43299" lon="3.41573">
        <ele>554.8</ele>
        <time>2020-09-17T12:04:45Z</time>
      </trkpt>
      <trkpt lat="45.43299" lon="3.41573">
        <ele>554.9</ele>
        <time>2020-09-17T12:04:46Z</time>
      </trkpt>
      <trkpt lat="45.43298" lon="3.41572">
        <ele>555</ele>
        <time>2020-09-17T12:04:47Z</time>
      </trkpt>
      <trkpt lat="45.43297" lon="3.41572">
        <ele>555.1</ele>
        <time>2020-09-17T12:04:48Z</time>
      </trkpt>
      <trkpt lat="45.43296" lon="3.41572">
        <ele>555.2</ele>
        <time>2020-09-17T12:04:49Z</time>
      </trkpt>
      <trkpt lat="45.43295" lon="3.41572">
        <ele>555.3</ele>
        <time>2020-09-17T12:04:50Z</time>
      </trkpt>
      <trkpt lat="45.43295" lon="3.41572">
        <ele>555.4</ele>
        <time>2020-09-17T12:04:51Z</time>
      </trkpt>
      <trkpt lat="45.43294" lon="3.41571">
        <ele>555.5</ele>
        <time>2020-09-17T12:04:52Z</time>
      </trkpt>
      <trkpt lat="45.43293" lon="3.41571">
        <ele>555.6</ele>
        <time>2020-09-17T12:04:53Z</time>
      </trkpt>
      <trkpt lat="45.43292" lon="3.41571">
        <ele>555.7</ele>
        <time>2020-09-17T12:04:54Z</time>
      </trkpt>
      <trkpt lat="45.43291" lon="3.41571">
        <ele>555.8</ele>
        <time>2020-09-17T12:04:55Z</time>
      </trkpt>
      <trkpt lat="45.4329" lon="3.4157">
        <ele>555.8</ele>
        <time>2020-09-17T12:04:56Z</time>
      </trkpt>
      <trkpt lat="45.43289" lon="3.4157">
        <ele>555.9</ele>
        <time>2020-09-17T12:04:57Z</time>
      </trkpt>
      <trkpt lat="45.43288" lon="3.4157">
        <ele>556</ele>
        <time>2020-09-17T12:04:58Z</time>
      </trkpt>
      <trkpt lat="45.43287" lon="3.41569">
        <ele>556.1</ele>
        <time>2020-09-17T12:04:59Z</time>
      </trkpt>
      <trkpt lat="45.43287" lon="3.41569">
        <ele>556.2</ele>
        <time>2020-09-17T12:05:00Z</time>
      </trkpt>
      <trkpt lat="45.43286" lon="3.41569">
        <ele>556.3</ele>
        <time>2020-09-17T12:05:01Z</time>
      </trkpt>
      <trkpt lat="45.43285" lon="3.41569">
        <ele>556.4</ele>
        <time>2020-09-17T12:05:02Z</time>
      </trkpt>
      <trkpt lat="45.43284" lon="3.41569">
        <ele>556.5</ele>
        <time>2020-09-17T12:05:03Z</time>
      </trkpt>
      <trkpt lat="45.43283" lon="3.41568">
        <ele>556.6</ele>
        <time>2020-09-17T12:05:04Z</time>
      </trkpt>
      <trkpt lat="45.43282" lon="3.41568">
        <ele>556.6</ele>
        <time>2020-09-17T12:05:05Z</time>
      </trkpt>
      <trkpt lat="45.43281" lon="3.41568">
        <ele>556.7</ele>
        <time>2020-09-17T12:05:06Z</time>
      </trkpt>
      <trkpt lat="45.4328" lon="3.41567">
        <ele>556.8</ele>
        <time>2020-09-17T12:05:07Z</time>
      </trkpt>
      <trkpt lat="45.43279" lon="3.41567">
        <ele>556.8</ele>
        <time>2020-09-17T12:05:08Z</time>
      </trkpt>
      <trkpt lat="45.43278" lon="3.41567">
        <ele>556.9</ele>
        <time>2020-09-17T12:05:09Z</time>
      </trkpt>
      <trkpt lat="45.43277" lon="3.41567">
        <ele>557</ele>
        <time>2020-09-17T12:05:10Z</time>
      </trkpt>
      <trkpt lat="45.43276" lon="3.41566">
        <ele>557.2</ele>
        <time>2020-09-17T12:05:11Z</time>
      </trkpt>
      <trkpt lat="45.43275" lon="3.41566">
        <ele>557.3</ele>
        <time>2020-09-17T12:05:12Z</time>
      </trkpt>
      <trkpt lat="45.43274" lon="3.41566">
        <ele>557.4</ele>
        <time>2020-09-17T12:05:13Z</time>
      </trkpt>
      <trkpt lat="45.43273" lon="3.41566">
        <ele>557.6</ele>
        <time>2020-09-17T12:05:14Z</time>
      </trkpt>
      <trkpt lat="45.43273" lon="3.41566">
        <ele>557.7</ele>
        <time>2020-09-17T12:05:15Z</time>
      </trkpt>
      <trkpt lat="45.43272" lon="3.41566">
        <ele>557.9</ele>
        <time>2020-09-17T12:05:16Z</time>
      </trkpt>
      <trkpt lat="45.43271" lon="3.41566">
        <ele>558.1</ele>
        <time>2020-09-17T12:05:17Z</time>
      </trkpt>
      <trkpt lat="45.4327" lon="3.41567">
        <ele>558.3</ele>
        <time>2020-09-17T12:05:18Z</time>
      </trkpt>
      <trkpt lat="45.43269" lon="3.41567">
        <ele>558.5</ele>
        <time>2020-09-17T12:05:19Z</time>
      </trkpt>
      <trkpt lat="45.43269" lon="3.41569">
        <ele>558.8</ele>
        <time>2020-09-17T12:05:20Z</time>
      </trkpt>
      <trkpt lat="45.43269" lon="3.4157">
        <ele>559</ele>
        <time>2020-09-17T12:05:21Z</time>
      </trkpt>
      <trkpt lat="45.43269" lon="3.41571">
        <ele>559.1</ele>
        <time>2020-09-17T12:05:22Z</time>
      </trkpt>
      <trkpt lat="45.4327" lon="3.41572">
        <ele>559.2</ele>
        <time>2020-09-17T12:05:23Z</time>
      </trkpt>
      <trkpt lat="45.4327" lon="3.41573">
        <ele>559.4</ele>
        <time>2020-09-17T12:05:24Z</time>
      </trkpt>
      <trkpt lat="45.43271" lon="3.41574">
        <ele>559.5</ele>
        <time>2020-09-17T12:05:25Z</time>
      </trkpt>
      <trkpt lat="45.43271" lon="3.41575">
        <ele>559.5</ele>
        <time>2020-09-17T12:05:26Z</time>
      </trkpt>
      <trkpt lat="45.43272" lon="3.41575">
        <ele>559.5</ele>
        <time>2020-09-17T12:05:27Z</time>
      </trkpt>
      <trkpt lat="45.43272" lon="3.41576">
        <ele>559.5</ele>
        <time>2020-09-17T12:05:28Z</time>
      </trkpt>
      <trkpt lat="45.43273" lon="3.41577">
        <ele>559.5</ele>
        <time>2020-09-17T12:05:29Z</time>
      </trkpt>
      <trkpt lat="45.43274" lon="3.41577">
        <ele>559.5</ele>
        <time>2020-09-17T12:05:30Z</time>
      </trkpt>
      <trkpt lat="45.43274" lon="3.41578">
        <ele>559.6</ele>
        <time>2020-09-17T12:05:31Z</time>
      </trkpt>
      <trkpt lat="45.43275" lon="3.41579">
        <ele>559.6</ele>
        <time>2020-09-17T12:05:32Z</time>
      </trkpt>
      <trkpt lat="45.43276" lon="3.4158">
        <ele>559.6</ele>
        <time>2020-09-17T12:05:33Z</time>
      </trkpt>
      <trkpt lat="45.43276" lon="3.41581">
        <ele>559.8</ele>
        <time>2020-09-17T12:05:34Z</time>
      </trkpt>
      <trkpt lat="45.43277" lon="3.41581">
        <ele>559.8</ele>
        <time>2020-09-17T12:05:35Z</time>
      </trkpt>
      <trkpt lat="45.43277" lon="3.41582">
        <ele>560</ele>
        <time>2020-09-17T12:05:36Z</time>
      </trkpt>
      <trkpt lat="45.43277" lon="3.41583">
        <ele>560.1</ele>
        <time>2020-09-17T12:05:37Z</time>
      </trkpt>
      <trkpt lat="45.43278" lon="3.41584">
        <ele>560.2</ele>
        <time>2020-09-17T12:05:38Z</time>
      </trkpt>
      <trkpt lat="45.43278" lon="3.41585">
        <ele>560.3</ele>
        <time>2020-09-17T12:05:39Z</time>
      </trkpt>
      <trkpt lat="45.43278" lon="3.41586">
        <ele>560.4</ele>
        <time>2020-09-17T12:05:40Z</time>
      </trkpt>
      <trkpt lat="45.43278" lon="3.41587">
        <ele>560.7</ele>
        <time>2020-09-17T12:05:41Z</time>
      </trkpt>
      <trkpt lat="45.43278" lon="3.41588">
        <ele>560.8</ele>
        <time>2020-09-17T12:05:42Z</time>
      </trkpt>
      <trkpt lat="45.43278" lon="3.41589">
        <ele>561</ele>
        <time>2020-09-17T12:05:43Z</time>
      </trkpt>
      <trkpt lat="45.43278" lon="3.41589">
        <ele>561.3</ele>
        <time>2020-09-17T12:05:44Z</time>
      </trkpt>
      <trkpt lat="45.43278" lon="3.4159">
        <ele>561.4</ele>
        <time>2020-09-17T12:05:45Z</time>
      </trkpt>
      <trkpt lat="45.43277" lon="3.41591">
        <ele>561.6</ele>
        <time>2020-09-17T12:05:46Z</time>
      </trkpt>
      <trkpt lat="45.43277" lon="3.41591">
        <ele>561.8</ele>
        <time>2020-09-17T12:05:47Z</time>
      </trkpt>
      <trkpt lat="45.43277" lon="3.41592">
        <ele>562.1</ele>
        <time>2020-09-17T12:05:48Z</time>
      </trkpt>
      <trkpt lat="45.43276" lon="3.41593">
        <ele>562.3</ele>
        <time>2020-09-17T12:05:49Z</time>
      </trkpt>
      <trkpt lat="45.43276" lon="3.41593">
        <ele>562.4</ele>
        <time>2020-09-17T12:05:50Z</time>
      </trkpt>
      <trkpt lat="45.43275" lon="3.41594">
        <ele>562.6</ele>
        <time>2020-09-17T12:05:51Z</time>
      </trkpt>
      <trkpt lat="45.43275" lon="3.41594">
        <ele>562.8</ele>
        <time>2020-09-17T12:05:52Z</time>
      </trkpt>
      <trkpt lat="45.43274" lon="3.41595">
        <ele>563</ele>
        <time>2020-09-17T12:05:53Z</time>
      </trkpt>
      <trkpt lat="45.43274" lon="3.41595">
        <ele>563.2</ele>
        <time>2020-09-17T12:05:54Z</time>
      </trkpt>
      <trkpt lat="45.43273" lon="3.41596">
        <ele>563.3</ele>
        <time>2020-09-17T12:05:55Z</time>
      </trkpt>
      <trkpt lat="45.43273" lon="3.41596">
        <ele>563.5</ele>
        <time>2020-09-17T12:05:56Z</time>
      </trkpt>
      <trkpt lat="45.43272" lon="3.41597">
        <ele>563.7</ele>
        <time>2020-09-17T12:05:57Z</time>
      </trkpt>
      <trkpt lat="45.43272" lon="3.41598">
        <ele>563.9</ele>
        <time>2020-09-17T12:05:58Z</time>
      </trkpt>
      <trkpt lat="45.43271" lon="3.41598">
        <ele>564.1</ele>
        <time>2020-09-17T12:05:59Z</time>
      </trkpt>
      <trkpt lat="45.43271" lon="3.41599">
        <ele>564.3</ele>
        <time>2020-09-17T12:06:00Z</time>
      </trkpt>
      <trkpt lat="45.43271" lon="3.41599">
        <ele>564.5</ele>
        <time>2020-09-17T12:06:01Z</time>
      </trkpt>
      <trkpt lat="45.4327" lon="3.416">
        <ele>564.6</ele>
        <time>2020-09-17T12:06:02Z</time>
      </trkpt>
      <trkpt lat="45.43269" lon="3.416">
        <ele>564.8</ele>
        <time>2020-09-17T12:06:03Z</time>
      </trkpt>
      <trkpt lat="45.43269" lon="3.41601">
        <ele>565</ele>
        <time>2020-09-17T12:06:04Z</time>
      </trkpt>
      <trkpt lat="45.43268" lon="3.41601">
        <ele>565.2</ele>
        <time>2020-09-17T12:06:05Z</time>
      </trkpt>
      <trkpt lat="45.43268" lon="3.41601">
        <ele>565.3</ele>
        <time>2020-09-17T12:06:06Z</time>
      </trkpt>
      <trkpt lat="45.43267" lon="3.41602">
        <ele>565.5</ele>
        <time>2020-09-17T12:06:07Z</time>
      </trkpt>
      <trkpt lat="45.43267" lon="3.41602">
        <ele>565.7</ele>
        <time>2020-09-17T12:06:08Z</time>
      </trkpt>
      <trkpt lat="45.43266" lon="3.41603">
        <ele>565.9</ele>
        <time>2020-09-17T12:06:09Z</time>
      </trkpt>
      <trkpt lat="45.43265" lon="3.41603">
        <ele>566</ele>
        <time>2020-09-17T12:06:10Z</time>
      </trkpt>
      <trkpt lat="45.43265" lon="3.41603">
        <ele>566.1</ele>
        <time>2020-09-17T12:06:11Z</time>
      </trkpt>
      <trkpt lat="45.43264" lon="3.41604">
        <ele>566.3</ele>
        <time>2020-09-17T12:06:12Z</time>
      </trkpt>
      <trkpt lat="45.43264" lon="3.41604">
        <ele>566.5</ele>
        <time>2020-09-17T12:06:13Z</time>
      </trkpt>
      <trkpt lat="45.43263" lon="3.41604">
        <ele>566.7</ele>
        <time>2020-09-17T12:06:14Z</time>
      </trkpt>
      <trkpt lat="45.43262" lon="3.41605">
        <ele>566.9</ele>
        <time>2020-09-17T12:06:15Z</time>
      </trkpt>
      <trkpt lat="45.43262" lon="3.41605">
        <ele>567</ele>
        <time>2020-09-17T12:06:16Z</time>
      </trkpt>
      <trkpt lat="45.43261" lon="3.41605">
        <ele>567.1</ele>
        <time>2020-09-17T12:06:17Z</time>
      </trkpt>
      <trkpt lat="45.43261" lon="3.41606">
        <ele>567.3</ele>
        <time>2020-09-17T12:06:18Z</time>
      </trkpt>
      <trkpt lat="45.4326" lon="3.41606">
        <ele>567.5</ele>
        <time>2020-09-17T12:06:19Z</time>
      </trkpt>
      <trkpt lat="45.4326" lon="3.41607">
        <ele>567.7</ele>
        <time>2020-09-17T12:06:20Z</time>
      </trkpt>
      <trkpt lat="45.43259" lon="3.41607">
        <ele>567.9</ele>
        <time>2020-09-17T12:06:21Z</time>
      </trkpt>
      <trkpt lat="45.43258" lon="3.41608">
        <ele>568.1</ele>
        <time>2020-09-17T12:06:22Z</time>
      </trkpt>
      <trkpt lat="45.43258" lon="3.41608">
        <ele>568.2</ele>
        <time>2020-09-17T12:06:23Z</time>
      </trkpt>
      <trkpt lat="45.43257" lon="3.41608">
        <ele>568.4</ele>
        <time>2020-09-17T12:06:24Z</time>
      </trkpt>
      <trkpt lat="45.43256" lon="3.41609">
        <ele>568.6</ele>
        <time>2020-09-17T12:06:25Z</time>
      </trkpt>
      <trkpt lat="45.43256" lon="3.41609">
        <ele>568.8</ele>
        <time>2020-09-17T12:06:26Z</time>
      </trkpt>
      <trkpt lat="45.43255" lon="3.4161">
        <ele>569</ele>
        <time>2020-09-17T12:06:27Z</time>
      </trkpt>
      <trkpt lat="45.43254" lon="3.4161">
        <ele>569.2</ele>
        <time>2020-09-17T12:06:28Z</time>
      </trkpt>
      <trkpt lat="45.43254" lon="3.41611">
        <ele>569.3</ele>
        <time>2020-09-17T12:06:29Z</time>
      </trkpt>
      <trkpt lat="45.43253" lon="3.41611">
        <ele>569.5</ele>
        <time>2020-09-17T12:06:30Z</time>
      </trkpt>
      <trkpt lat="45.43253" lon="3.41611">
        <ele>569.6</ele>
        <time>2020-09-17T12:06:31Z</time>
      </trkpt>
      <trkpt lat="45.43252" lon="3.41612">
        <ele>569.8</ele>
        <time>2020-09-17T12:06:32Z</time>
      </trkpt>
      <trkpt lat="45.43251" lon="3.41612">
        <ele>570</ele>
        <time>2020-09-17T12:06:33Z</time>
      </trkpt>
      <trkpt lat="45.43251" lon="3.41613">
        <ele>570.1</ele>
        <time>2020-09-17T12:06:34Z</time>
      </trkpt>
      <trkpt lat="45.4325" lon="3.41613">
        <ele>570.3</ele>
        <time>2020-09-17T12:06:35Z</time>
      </trkpt>
      <trkpt lat="45.4325" lon="3.41614">
        <ele>570.5</ele>
        <time>2020-09-17T12:06:36Z</time>
      </trkpt>
      <trkpt lat="45.43249" lon="3.41614">
        <ele>570.7</ele>
        <time>2020-09-17T12:06:37Z</time>
      </trkpt>
      <trkpt lat="45.43248" lon="3.41614">
        <ele>570.8</ele>
        <time>2020-09-17T12:06:38Z</time>
      </trkpt>
      <trkpt lat="45.43248" lon="3.41615">
        <ele>571</ele>
        <time>2020-09-17T12:06:39Z</time>
      </trkpt>
      <trkpt lat="45.43247" lon="3.41615">
        <ele>571.2</ele>
        <time>2020-09-17T12:06:40Z</time>
      </trkpt>
      <trkpt lat="45.43246" lon="3.41616">
        <ele>571.4</ele>
        <time>2020-09-17T12:06:41Z</time>
      </trkpt>
      <trkpt lat="45.43246" lon="3.41616">
        <ele>571.6</ele>
        <time>2020-09-17T12:06:42Z</time>
      </trkpt>
      <trkpt lat="45.43245" lon="3.41616">
        <ele>571.8</ele>
        <time>2020-09-17T12:06:43Z</time>
      </trkpt>
      <trkpt lat="45.43244" lon="3.41616">
        <ele>572</ele>
        <time>2020-09-17T12:06:44Z</time>
      </trkpt>
      <trkpt lat="45.43243" lon="3.41617">
        <ele>572.3</ele>
        <time>2020-09-17T12:06:45Z</time>
      </trkpt>
      <trkpt lat="45.43242" lon="3.41617">
        <ele>572.5</ele>
        <time>2020-09-17T12:06:46Z</time>
      </trkpt>
      <trkpt lat="45.43241" lon="3.41617">
        <ele>572.7</ele>
        <time>2020-09-17T12:06:47Z</time>
      </trkpt>
      <trkpt lat="45.43241" lon="3.41617">
        <ele>572.9</ele>
        <time>2020-09-17T12:06:48Z</time>
      </trkpt>
      <trkpt lat="45.4324" lon="3.41617">
        <ele>573.1</ele>
        <time>2020-09-17T12:06:49Z</time>
      </trkpt>
      <trkpt lat="45.43239" lon="3.41618">
        <ele>573.4</ele>
        <time>2020-09-17T12:06:50Z</time>
      </trkpt>
      <trkpt lat="45.43238" lon="3.41618">
        <ele>573.6</ele>
        <time>2020-09-17T12:06:51Z</time>
      </trkpt>
      <trkpt lat="45.43237" lon="3.41619">
        <ele>573.8</ele>
        <time>2020-09-17T12:06:52Z</time>
      </trkpt>
      <trkpt lat="45.43237" lon="3.41619">
        <ele>574</ele>
        <time>2020-09-17T12:06:53Z</time>
      </trkpt>
      <trkpt lat="45.43236" lon="3.4162">
        <ele>574.3</ele>
        <time>2020-09-17T12:06:54Z</time>
      </trkpt>
      <trkpt lat="45.43235" lon="3.4162">
        <ele>574.5</ele>
        <time>2020-09-17T12:06:55Z</time>
      </trkpt>
      <trkpt lat="45.43235" lon="3.4162">
        <ele>574.6</ele>
        <time>2020-09-17T12:06:56Z</time>
      </trkpt>
      <trkpt lat="45.43234" lon="3.41621">
        <ele>574.8</ele>
        <time>2020-09-17T12:06:57Z</time>
      </trkpt>
      <trkpt lat="45.43234" lon="3.41621">
        <ele>574.9</ele>
        <time>2020-09-17T12:06:58Z</time>
      </trkpt>
      <trkpt lat="45.43233" lon="3.41621">
        <ele>575.1</ele>
        <time>2020-09-17T12:06:59Z</time>
      </trkpt>
      <trkpt lat="45.43232" lon="3.41621">
        <ele>575.3</ele>
        <time>2020-09-17T12:07:00Z</time>
      </trkpt>
      <trkpt lat="45.43231" lon="3.41621">
        <ele>575.5</ele>
        <time>2020-09-17T12:07:01Z</time>
      </trkpt>
      <trkpt lat="45.43231" lon="3.41621">
        <ele>575.6</ele>
        <time>2020-09-17T12:07:02Z</time>
      </trkpt>
      <trkpt lat="45.4323" lon="3.41621">
        <ele>575.8</ele>
        <time>2020-09-17T12:07:03Z</time>
      </trkpt>
      <trkpt lat="45.43229" lon="3.41621">
        <ele>575.9</ele>
        <time>2020-09-17T12:07:04Z</time>
      </trkpt>
      <trkpt lat="45.43229" lon="3.41621">
        <ele>576</ele>
        <time>2020-09-17T12:07:05Z</time>
      </trkpt>
      <trkpt lat="45.43228" lon="3.41621">
        <ele>576.2</ele>
        <time>2020-09-17T12:07:06Z</time>
      </trkpt>
      <trkpt lat="45.43227" lon="3.41621">
        <ele>576.3</ele>
        <time>2020-09-17T12:07:07Z</time>
      </trkpt>
      <trkpt lat="45.43226" lon="3.41621">
        <ele>576.5</ele>
        <time>2020-09-17T12:07:08Z</time>
      </trkpt>
      <trkpt lat="45.43226" lon="3.41621">
        <ele>576.6</ele>
        <time>2020-09-17T12:07:09Z</time>
      </trkpt>
      <trkpt lat="45.43225" lon="3.41621">
        <ele>576.8</ele>
        <time>2020-09-17T12:07:10Z</time>
      </trkpt>
      <trkpt lat="45.43224" lon="3.41621">
        <ele>576.9</ele>
        <time>2020-09-17T12:07:11Z</time>
      </trkpt>
      <trkpt lat="45.43224" lon="3.41621">
        <ele>577.1</ele>
        <time>2020-09-17T12:07:12Z</time>
      </trkpt>
      <trkpt lat="45.43223" lon="3.41621">
        <ele>577.2</ele>
        <time>2020-09-17T12:07:13Z</time>
      </trkpt>
      <trkpt lat="45.43222" lon="3.41621">
        <ele>577.4</ele>
        <time>2020-09-17T12:07:14Z</time>
      </trkpt>
      <trkpt lat="45.43222" lon="3.4162">
        <ele>577.5</ele>
        <time>2020-09-17T12:07:15Z</time>
      </trkpt>
      <trkpt lat="45.43221" lon="3.4162">
        <ele>577.7</ele>
        <time>2020-09-17T12:07:16Z</time>
      </trkpt>
      <trkpt lat="45.4322" lon="3.4162">
        <ele>577.8</ele>
        <time>2020-09-17T12:07:17Z</time>
      </trkpt>
      <trkpt lat="45.43219" lon="3.4162">
        <ele>577.9</ele>
        <time>2020-09-17T12:07:18Z</time>
      </trkpt>
      <trkpt lat="45.43219" lon="3.4162">
        <ele>578.1</ele>
        <time>2020-09-17T12:07:19Z</time>
      </trkpt>
      <trkpt lat="45.43218" lon="3.4162">
        <ele>578.3</ele>
        <time>2020-09-17T12:07:20Z</time>
      </trkpt>
      <trkpt lat="45.43217" lon="3.4162">
        <ele>578.5</ele>
        <time>2020-09-17T12:07:21Z</time>
      </trkpt>
      <trkpt lat="45.43216" lon="3.4162">
        <ele>578.6</ele>
        <time>2020-09-17T12:07:22Z</time>
      </trkpt>
      <trkpt lat="45.43216" lon="3.41621">
        <ele>578.8</ele>
        <time>2020-09-17T12:07:23Z</time>
      </trkpt>
      <trkpt lat="45.43215" lon="3.41621">
        <ele>579</ele>
        <time>2020-09-17T12:07:24Z</time>
      </trkpt>
      <trkpt lat="45.43214" lon="3.41621">
        <ele>579.2</ele>
        <time>2020-09-17T12:07:25Z</time>
      </trkpt>
      <trkpt lat="45.43213" lon="3.41621">
        <ele>579.4</ele>
        <time>2020-09-17T12:07:26Z</time>
      </trkpt>
      <trkpt lat="45.43213" lon="3.41621">
        <ele>579.5</ele>
        <time>2020-09-17T12:07:27Z</time>
      </trkpt>
      <trkpt lat="45.43212" lon="3.41621">
        <ele>579.6</ele>
        <time>2020-09-17T12:07:28Z</time>
      </trkpt>
      <trkpt lat="45.43211" lon="3.41621">
        <ele>579.8</ele>
        <time>2020-09-17T12:07:29Z</time>
      </trkpt>
      <trkpt lat="45.4321" lon="3.41621">
        <ele>580</ele>
        <time>2020-09-17T12:07:30Z</time>
      </trkpt>
      <trkpt lat="45.4321" lon="3.41621">
        <ele>580.1</ele>
        <time>2020-09-17T12:07:31Z</time>
      </trkpt>
      <trkpt lat="45.43209" lon="3.41621">
        <ele>580.3</ele>
        <time>2020-09-17T12:07:32Z</time>
      </trkpt>
      <trkpt lat="45.43208" lon="3.41622">
        <ele>580.5</ele>
        <time>2020-09-17T12:07:33Z</time>
      </trkpt>
      <trkpt lat="45.43208" lon="3.41622">
        <ele>580.6</ele>
        <time>2020-09-17T12:07:34Z</time>
      </trkpt>
      <trkpt lat="45.43207" lon="3.41622">
        <ele>580.8</ele>
        <time>2020-09-17T12:07:35Z</time>
      </trkpt>
      <trkpt lat="45.43206" lon="3.41622">
        <ele>581</ele>
        <time>2020-09-17T12:07:36Z</time>
      </trkpt>
      <trkpt lat="45.43206" lon="3.41622">
        <ele>581.1</ele>
        <time>2020-09-17T12:07:37Z</time>
      </trkpt>
      <trkpt lat="45.43205" lon="3.41622">
        <ele>581.3</ele>
        <time>2020-09-17T12:07:38Z</time>
      </trkpt>
      <trkpt lat="45.43204" lon="3.41622">
        <ele>581.5</ele>
        <time>2020-09-17T12:07:39Z</time>
      </trkpt>
      <trkpt lat="45.43204" lon="3.41622">
        <ele>581.6</ele>
        <time>2020-09-17T12:07:40Z</time>
      </trkpt>
      <trkpt lat="45.43203" lon="3.41622">
        <ele>581.8</ele>
        <time>2020-09-17T12:07:41Z</time>
      </trkpt>
      <trkpt lat="45.43202" lon="3.41622">
        <ele>582</ele>
        <time>2020-09-17T12:07:42Z</time>
      </trkpt>
      <trkpt lat="45.43201" lon="3.41622">
        <ele>582.1</ele>
        <time>2020-09-17T12:07:43Z</time>
      </trkpt>
      <trkpt lat="45.43201" lon="3.41622">
        <ele>582.3</ele>
        <time>2020-09-17T12:07:44Z</time>
      </trkpt>
      <trkpt lat="45.432" lon="3.41623">
        <ele>582.5</ele>
        <time>2020-09-17T12:07:45Z</time>
      </trkpt>
      <trkpt lat="45.43199" lon="3.41623">
        <ele>582.7</ele>
        <time>2020-09-17T12:07:46Z</time>
      </trkpt>
      <trkpt lat="45.43198" lon="3.41623">
        <ele>582.9</ele>
        <time>2020-09-17T12:07:47Z</time>
      </trkpt>
      <trkpt lat="45.43198" lon="3.41623">
        <ele>583.1</ele>
        <time>2020-09-17T12:07:48Z</time>
      </trkpt>
      <trkpt lat="45.43197" lon="3.41624">
        <ele>583.3</ele>
        <time>2020-09-17T12:07:49Z</time>
      </trkpt>
      <trkpt lat="45.43196" lon="3.41624">
        <ele>583.5</ele>
        <time>2020-09-17T12:07:50Z</time>
      </trkpt>
      <trkpt lat="45.43195" lon="3.41624">
        <ele>583.7</ele>
        <time>2020-09-17T12:07:51Z</time>
      </trkpt>
      <trkpt lat="45.43195" lon="3.41624">
        <ele>583.9</ele>
        <time>2020-09-17T12:07:52Z</time>
      </trkpt>
      <trkpt lat="45.43194" lon="3.41624">
        <ele>584</ele>
        <time>2020-09-17T12:07:53Z</time>
      </trkpt>
      <trkpt lat="45.43193" lon="3.41625">
        <ele>584.3</ele>
        <time>2020-09-17T12:07:54Z</time>
      </trkpt>
      <trkpt lat="45.43192" lon="3.41625">
        <ele>584.4</ele>
        <time>2020-09-17T12:07:55Z</time>
      </trkpt>
      <trkpt lat="45.43191" lon="3.41625">
        <ele>584.6</ele>
        <time>2020-09-17T12:07:56Z</time>
      </trkpt>
      <trkpt lat="45.4319" lon="3.41625">
        <ele>584.8</ele>
        <time>2020-09-17T12:07:57Z</time>
      </trkpt>
      <trkpt lat="45.43189" lon="3.41625">
        <ele>584.9</ele>
        <time>2020-09-17T12:07:58Z</time>
      </trkpt>
      <trkpt lat="45.43188" lon="3.41625">
        <ele>585.1</ele>
        <time>2020-09-17T12:07:59Z</time>
      </trkpt>
      <trkpt lat="45.43187" lon="3.41626">
        <ele>585.3</ele>
        <time>2020-09-17T12:08:00Z</time>
      </trkpt>
      <trkpt lat="45.43187" lon="3.41626">
        <ele>585.5</ele>
        <time>2020-09-17T12:08:01Z</time>
      </trkpt>
      <trkpt lat="45.43186" lon="3.41626">
        <ele>585.7</ele>
        <time>2020-09-17T12:08:02Z</time>
      </trkpt>
      <trkpt lat="45.43185" lon="3.41627">
        <ele>585.9</ele>
        <time>2020-09-17T12:08:03Z</time>
      </trkpt>
      <trkpt lat="45.43184" lon="3.41627">
        <ele>586</ele>
        <time>2020-09-17T12:08:04Z</time>
      </trkpt>
      <trkpt lat="45.43183" lon="3.41627">
        <ele>586.2</ele>
        <time>2020-09-17T12:08:05Z</time>
      </trkpt>
      <trkpt lat="45.43183" lon="3.41628">
        <ele>586.5</ele>
        <time>2020-09-17T12:08:06Z</time>
      </trkpt>
      <trkpt lat="45.43182" lon="3.41629">
        <ele>586.7</ele>
        <time>2020-09-17T12:08:07Z</time>
      </trkpt>
      <trkpt lat="45.43181" lon="3.41629">
        <ele>587</ele>
        <time>2020-09-17T12:08:08Z</time>
      </trkpt>
      <trkpt lat="45.4318" lon="3.4163">
        <ele>587.3</ele>
        <time>2020-09-17T12:08:09Z</time>
      </trkpt>
      <trkpt lat="45.43179" lon="3.4163">
        <ele>587.5</ele>
        <time>2020-09-17T12:08:10Z</time>
      </trkpt>
      <trkpt lat="45.43179" lon="3.4163">
        <ele>587.7</ele>
        <time>2020-09-17T12:08:11Z</time>
      </trkpt>
      <trkpt lat="45.43178" lon="3.41631">
        <ele>587.9</ele>
        <time>2020-09-17T12:08:12Z</time>
      </trkpt>
      <trkpt lat="45.43177" lon="3.41631">
        <ele>588.1</ele>
        <time>2020-09-17T12:08:13Z</time>
      </trkpt>
      <trkpt lat="45.43176" lon="3.41632">
        <ele>588.3</ele>
        <time>2020-09-17T12:08:14Z</time>
      </trkpt>
      <trkpt lat="45.43176" lon="3.41632">
        <ele>588.6</ele>
        <time>2020-09-17T12:08:15Z</time>
      </trkpt>
      <trkpt lat="45.43175" lon="3.41633">
        <ele>588.8</ele>
        <time>2020-09-17T12:08:16Z</time>
      </trkpt>
      <trkpt lat="45.43174" lon="3.41633">
        <ele>589</ele>
        <time>2020-09-17T12:08:17Z</time>
      </trkpt>
      <trkpt lat="45.43174" lon="3.41633">
        <ele>589.1</ele>
        <time>2020-09-17T12:08:18Z</time>
      </trkpt>
      <trkpt lat="45.43173" lon="3.41633">
        <ele>589.3</ele>
        <time>2020-09-17T12:08:19Z</time>
      </trkpt>
      <trkpt lat="45.43173" lon="3.41633">
        <ele>589.5</ele>
        <time>2020-09-17T12:08:20Z</time>
      </trkpt>
      <trkpt lat="45.43172" lon="3.41634">
        <ele>589.7</ele>
        <time>2020-09-17T12:08:21Z</time>
      </trkpt>
      <trkpt lat="45.43171" lon="3.41634">
        <ele>590</ele>
        <time>2020-09-17T12:08:22Z</time>
      </trkpt>
      <trkpt lat="45.43171" lon="3.41635">
        <ele>590.2</ele>
        <time>2020-09-17T12:08:23Z</time>
      </trkpt>
      <trkpt lat="45.4317" lon="3.41635">
        <ele>590.4</ele>
        <time>2020-09-17T12:08:24Z</time>
      </trkpt>
      <trkpt lat="45.4317" lon="3.41636">
        <ele>590.7</ele>
        <time>2020-09-17T12:08:25Z</time>
      </trkpt>
      <trkpt lat="45.4317" lon="3.41636">
        <ele>590.7</ele>
        <time>2020-09-17T12:08:26Z</time>
      </trkpt>
      <trkpt lat="45.43169" lon="3.41636">
        <ele>590.8</ele>
        <time>2020-09-17T12:08:27Z</time>
      </trkpt>
      <trkpt lat="45.43169" lon="3.41637">
        <ele>591</ele>
        <time>2020-09-17T12:08:28Z</time>
      </trkpt>
      <trkpt lat="45.43168" lon="3.41637">
        <ele>591.2</ele>
        <time>2020-09-17T12:08:29Z</time>
      </trkpt>
      <trkpt lat="45.43168" lon="3.41637">
        <ele>591.4</ele>
        <time>2020-09-17T12:08:30Z</time>
      </trkpt>
      <trkpt lat="45.43167" lon="3.41638">
        <ele>591.7</ele>
        <time>2020-09-17T12:08:31Z</time>
      </trkpt>
      <trkpt lat="45.43166" lon="3.41638">
        <ele>591.9</ele>
        <time>2020-09-17T12:08:32Z</time>
      </trkpt>
      <trkpt lat="45.43166" lon="3.41639">
        <ele>592.1</ele>
        <time>2020-09-17T12:08:33Z</time>
      </trkpt>
      <trkpt lat="45.43165" lon="3.41639">
        <ele>592.2</ele>
        <time>2020-09-17T12:08:34Z</time>
      </trkpt>
      <trkpt lat="45.43165" lon="3.4164">
        <ele>592.4</ele>
        <time>2020-09-17T12:08:35Z</time>
      </trkpt>
      <trkpt lat="45.43164" lon="3.4164">
        <ele>592.6</ele>
        <time>2020-09-17T12:08:36Z</time>
      </trkpt>
      <trkpt lat="45.43164" lon="3.41641">
        <ele>592.8</ele>
        <time>2020-09-17T12:08:37Z</time>
      </trkpt>
      <trkpt lat="45.43163" lon="3.41641">
        <ele>593</ele>
        <time>2020-09-17T12:08:38Z</time>
      </trkpt>
      <trkpt lat="45.43162" lon="3.41642">
        <ele>593.2</ele>
        <time>2020-09-17T12:08:39Z</time>
      </trkpt>
      <trkpt lat="45.43162" lon="3.41643">
        <ele>593.4</ele>
        <time>2020-09-17T12:08:40Z</time>
      </trkpt>
      <trkpt lat="45.43161" lon="3.41643">
        <ele>593.6</ele>
        <time>2020-09-17T12:08:41Z</time>
      </trkpt>
      <trkpt lat="45.4316" lon="3.41643">
        <ele>593.7</ele>
        <time>2020-09-17T12:08:42Z</time>
      </trkpt>
      <trkpt lat="45.4316" lon="3.41643">
        <ele>593.9</ele>
        <time>2020-09-17T12:08:43Z</time>
      </trkpt>
      <trkpt lat="45.43159" lon="3.41644">
        <ele>594.1</ele>
        <time>2020-09-17T12:08:44Z</time>
      </trkpt>
      <trkpt lat="45.43158" lon="3.41644">
        <ele>594.3</ele>
        <time>2020-09-17T12:08:45Z</time>
      </trkpt>
      <trkpt lat="45.43157" lon="3.41645">
        <ele>594.5</ele>
        <time>2020-09-17T12:08:46Z</time>
      </trkpt>
      <trkpt lat="45.43156" lon="3.41645">
        <ele>594.7</ele>
        <time>2020-09-17T12:08:47Z</time>
      </trkpt>
      <trkpt lat="45.43156" lon="3.41646">
        <ele>594.9</ele>
        <time>2020-09-17T12:08:48Z</time>
      </trkpt>
      <trkpt lat="45.43155" lon="3.41646">
        <ele>595.1</ele>
        <time>2020-09-17T12:08:49Z</time>
      </trkpt>
      <trkpt lat="45.43154" lon="3.41647">
        <ele>595.3</ele>
        <time>2020-09-17T12:08:50Z</time>
      </trkpt>
      <trkpt lat="45.43154" lon="3.41647">
        <ele>595.5</ele>
        <time>2020-09-17T12:08:51Z</time>
      </trkpt>
      <trkpt lat="45.43153" lon="3.41648">
        <ele>595.7</ele>
        <time>2020-09-17T12:08:52Z</time>
      </trkpt>
      <trkpt lat="45.43152" lon="3.41648">
        <ele>595.9</ele>
        <time>2020-09-17T12:08:53Z</time>
      </trkpt>
      <trkpt lat="45.43152" lon="3.41649">
        <ele>596.1</ele>
        <time>2020-09-17T12:08:54Z</time>
      </trkpt>
      <trkpt lat="45.43151" lon="3.4165">
        <ele>596.4</ele>
        <time>2020-09-17T12:08:55Z</time>
      </trkpt>
      <trkpt lat="45.43151" lon="3.4165">
        <ele>596.5</ele>
        <time>2020-09-17T12:08:56Z</time>
      </trkpt>
      <trkpt lat="45.4315" lon="3.41651">
        <ele>596.7</ele>
        <time>2020-09-17T12:08:57Z</time>
      </trkpt>
      <trkpt lat="45.4315" lon="3.41651">
        <ele>596.9</ele>
        <time>2020-09-17T12:08:58Z</time>
      </trkpt>
      <trkpt lat="45.43149" lon="3.41652">
        <ele>597.2</ele>
        <time>2020-09-17T12:08:59Z</time>
      </trkpt>
      <trkpt lat="45.43149" lon="3.41652">
        <ele>597.4</ele>
        <time>2020-09-17T12:09:00Z</time>
      </trkpt>
      <trkpt lat="45.43148" lon="3.41653">
        <ele>597.6</ele>
        <time>2020-09-17T12:09:01Z</time>
      </trkpt>
      <trkpt lat="45.43147" lon="3.41654">
        <ele>597.8</ele>
        <time>2020-09-17T12:09:02Z</time>
      </trkpt>
      <trkpt lat="45.43147" lon="3.41655">
        <ele>598</ele>
        <time>2020-09-17T12:09:03Z</time>
      </trkpt>
      <trkpt lat="45.43147" lon="3.41655">
        <ele>598.3</ele>
        <time>2020-09-17T12:09:04Z</time>
      </trkpt>
      <trkpt lat="45.43146" lon="3.41656">
        <ele>598.5</ele>
        <time>2020-09-17T12:09:05Z</time>
      </trkpt>
      <trkpt lat="45.43146" lon="3.41657">
        <ele>598.7</ele>
        <time>2020-09-17T12:09:06Z</time>
      </trkpt>
      <trkpt lat="45.43145" lon="3.41658">
        <ele>599</ele>
        <time>2020-09-17T12:09:07Z</time>
      </trkpt>
      <trkpt lat="45.43145" lon="3.41658">
        <ele>599.2</ele>
        <time>2020-09-17T12:09:08Z</time>
      </trkpt>
      <trkpt lat="45.43145" lon="3.4166">
        <ele>599.5</ele>
        <time>2020-09-17T12:09:09Z</time>
      </trkpt>
      <trkpt lat="45.43145" lon="3.4166">
        <ele>599.7</ele>
        <time>2020-09-17T12:09:10Z</time>
      </trkpt>
      <trkpt lat="45.43144" lon="3.41661">
        <ele>599.9</ele>
        <time>2020-09-17T12:09:11Z</time>
      </trkpt>
      <trkpt lat="45.43144" lon="3.41662">
        <ele>600.1</ele>
        <time>2020-09-17T12:09:12Z</time>
      </trkpt>
      <trkpt lat="45.43144" lon="3.41663">
        <ele>600.4</ele>
        <time>2020-09-17T12:09:13Z</time>
      </trkpt>
      <trkpt lat="45.43144" lon="3.41664">
        <ele>600.7</ele>
        <time>2020-09-17T12:09:14Z</time>
      </trkpt>
      <trkpt lat="45.43143" lon="3.41666">
        <ele>601</ele>
        <time>2020-09-17T12:09:15Z</time>
      </trkpt>
      <trkpt lat="45.43143" lon="3.41666">
        <ele>601.2</ele>
        <time>2020-09-17T12:09:16Z</time>
      </trkpt>
      <trkpt lat="45.43143" lon="3.41668">
        <ele>601.4</ele>
        <time>2020-09-17T12:09:17Z</time>
      </trkpt>
      <trkpt lat="45.43143" lon="3.41669">
        <ele>601.5</ele>
        <time>2020-09-17T12:09:18Z</time>
      </trkpt>
      <trkpt lat="45.43143" lon="3.4167">
        <ele>601.6</ele>
        <time>2020-09-17T12:09:19Z</time>
      </trkpt>
      <trkpt lat="45.43142" lon="3.41671">
        <ele>601.8</ele>
        <time>2020-09-17T12:09:20Z</time>
      </trkpt>
      <trkpt lat="45.43142" lon="3.41672">
        <ele>601.9</ele>
        <time>2020-09-17T12:09:21Z</time>
      </trkpt>
      <trkpt lat="45.43143" lon="3.41673">
        <ele>601.9</ele>
        <time>2020-09-17T12:09:22Z</time>
      </trkpt>
      <trkpt lat="45.43142" lon="3.41674">
        <ele>602.1</ele>
        <time>2020-09-17T12:09:23Z</time>
      </trkpt>
      <trkpt lat="45.43142" lon="3.41675">
        <ele>602.2</ele>
        <time>2020-09-17T12:09:24Z</time>
      </trkpt>
      <trkpt lat="45.43142" lon="3.41676">
        <ele>602.3</ele>
        <time>2020-09-17T12:09:25Z</time>
      </trkpt>
      <trkpt lat="45.43142" lon="3.41678">
        <ele>602.4</ele>
        <time>2020-09-17T12:09:26Z</time>
      </trkpt>
      <trkpt lat="45.43142" lon="3.41679">
        <ele>602.5</ele>
        <time>2020-09-17T12:09:27Z</time>
      </trkpt>
      <trkpt lat="45.43142" lon="3.4168">
        <ele>602.7</ele>
        <time>2020-09-17T12:09:28Z</time>
      </trkpt>
      <trkpt lat="45.43142" lon="3.41681">
        <ele>602.8</ele>
        <time>2020-09-17T12:09:29Z</time>
      </trkpt>
      <trkpt lat="45.43142" lon="3.41682">
        <ele>602.9</ele>
        <time>2020-09-17T12:09:30Z</time>
      </trkpt>
      <trkpt lat="45.43142" lon="3.41684">
        <ele>603</ele>
        <time>2020-09-17T12:09:31Z</time>
      </trkpt>
      <trkpt lat="45.43143" lon="3.41685">
        <ele>603.1</ele>
        <time>2020-09-17T12:09:32Z</time>
      </trkpt>
      <trkpt lat="45.43143" lon="3.41686">
        <ele>603.2</ele>
        <time>2020-09-17T12:09:33Z</time>
      </trkpt>
      <trkpt lat="45.43143" lon="3.41687">
        <ele>603.3</ele>
        <time>2020-09-17T12:09:34Z</time>
      </trkpt>
      <trkpt lat="45.43142" lon="3.41689">
        <ele>603.5</ele>
        <time>2020-09-17T12:09:35Z</time>
      </trkpt>
      <trkpt lat="45.43142" lon="3.4169">
        <ele>603.7</ele>
        <time>2020-09-17T12:09:36Z</time>
      </trkpt>
      <trkpt lat="45.43142" lon="3.41691">
        <ele>603.9</ele>
        <time>2020-09-17T12:09:37Z</time>
      </trkpt>
      <trkpt lat="45.43141" lon="3.41693">
        <ele>604.2</ele>
        <time>2020-09-17T12:09:38Z</time>
      </trkpt>
      <trkpt lat="45.43141" lon="3.41694">
        <ele>604.4</ele>
        <time>2020-09-17T12:09:39Z</time>
      </trkpt>
      <trkpt lat="45.4314" lon="3.41694">
        <ele>604.6</ele>
        <time>2020-09-17T12:09:40Z</time>
      </trkpt>
      <trkpt lat="45.4314" lon="3.41696">
        <ele>604.7</ele>
        <time>2020-09-17T12:09:41Z</time>
      </trkpt>
      <trkpt lat="45.43139" lon="3.41696">
        <ele>604.9</ele>
        <time>2020-09-17T12:09:42Z</time>
      </trkpt>
      <trkpt lat="45.43138" lon="3.41697">
        <ele>605</ele>
        <time>2020-09-17T12:09:43Z</time>
      </trkpt>
      <trkpt lat="45.43138" lon="3.41698">
        <ele>605.1</ele>
        <time>2020-09-17T12:09:44Z</time>
      </trkpt>
      <trkpt lat="45.43137" lon="3.41699">
        <ele>605.2</ele>
        <time>2020-09-17T12:09:45Z</time>
      </trkpt>
      <trkpt lat="45.43137" lon="3.417">
        <ele>605.2</ele>
        <time>2020-09-17T12:09:46Z</time>
      </trkpt>
      <trkpt lat="45.43136" lon="3.41701">
        <ele>605.3</ele>
        <time>2020-09-17T12:09:47Z</time>
      </trkpt>
      <trkpt lat="45.43136" lon="3.41702">
        <ele>605.4</ele>
        <time>2020-09-17T12:09:48Z</time>
      </trkpt>
      <trkpt lat="45.43135" lon="3.41703">
        <ele>605.5</ele>
        <time>2020-09-17T12:09:49Z</time>
      </trkpt>
      <trkpt lat="45.43134" lon="3.41704">
        <ele>605.6</ele>
        <time>2020-09-17T12:09:50Z</time>
      </trkpt>
      <trkpt lat="45.43133" lon="3.41704">
        <ele>605.8</ele>
        <time>2020-09-17T12:09:51Z</time>
      </trkpt>
      <trkpt lat="45.43133" lon="3.41705">
        <ele>606</ele>
        <time>2020-09-17T12:09:52Z</time>
      </trkpt>
      <trkpt lat="45.43132" lon="3.41705">
        <ele>606.1</ele>
        <time>2020-09-17T12:09:53Z</time>
      </trkpt>
      <trkpt lat="45.43131" lon="3.41706">
        <ele>606.3</ele>
        <time>2020-09-17T12:09:54Z</time>
      </trkpt>
      <trkpt lat="45.4313" lon="3.41706">
        <ele>606.5</ele>
        <time>2020-09-17T12:09:55Z</time>
      </trkpt>
      <trkpt lat="45.43129" lon="3.41707">
        <ele>606.7</ele>
        <time>2020-09-17T12:09:56Z</time>
      </trkpt>
      <trkpt lat="45.43129" lon="3.41708">
        <ele>606.9</ele>
        <time>2020-09-17T12:09:57Z</time>
      </trkpt>
      <trkpt lat="45.43128" lon="3.41708">
        <ele>607.1</ele>
        <time>2020-09-17T12:09:58Z</time>
      </trkpt>
      <trkpt lat="45.43127" lon="3.41708">
        <ele>607.3</ele>
        <time>2020-09-17T12:09:59Z</time>
      </trkpt>
      <trkpt lat="45.43126" lon="3.41709">
        <ele>607.5</ele>
        <time>2020-09-17T12:10:00Z</time>
      </trkpt>
      <trkpt lat="45.43125" lon="3.41709">
        <ele>607.7</ele>
        <time>2020-09-17T12:10:01Z</time>
      </trkpt>
      <trkpt lat="45.43124" lon="3.4171">
        <ele>607.9</ele>
        <time>2020-09-17T12:10:02Z</time>
      </trkpt>
      <trkpt lat="45.43123" lon="3.41711">
        <ele>608.1</ele>
        <time>2020-09-17T12:10:03Z</time>
      </trkpt>
      <trkpt lat="45.43123" lon="3.41711">
        <ele>608.3</ele>
        <time>2020-09-17T12:10:04Z</time>
      </trkpt>
      <trkpt lat="45.43122" lon="3.41711">
        <ele>608.5</ele>
        <time>2020-09-17T12:10:05Z</time>
      </trkpt>
      <trkpt lat="45.43121" lon="3.41712">
        <ele>608.7</ele>
        <time>2020-09-17T12:10:06Z</time>
      </trkpt>
      <trkpt lat="45.4312" lon="3.41712">
        <ele>608.9</ele>
        <time>2020-09-17T12:10:07Z</time>
      </trkpt>
      <trkpt lat="45.43119" lon="3.41713">
        <ele>609.1</ele>
        <time>2020-09-17T12:10:08Z</time>
      </trkpt>
      <trkpt lat="45.43118" lon="3.41713">
        <ele>609.3</ele>
        <time>2020-09-17T12:10:09Z</time>
      </trkpt>
      <trkpt lat="45.43118" lon="3.41714">
        <ele>609.5</ele>
        <time>2020-09-17T12:10:10Z</time>
      </trkpt>
      <trkpt lat="45.43117" lon="3.41714">
        <ele>609.7</ele>
        <time>2020-09-17T12:10:11Z</time>
      </trkpt>
      <trkpt lat="45.43116" lon="3.41715">
        <ele>610</ele>
        <time>2020-09-17T12:10:12Z</time>
      </trkpt>
      <trkpt lat="45.43115" lon="3.41715">
        <ele>610.2</ele>
        <time>2020-09-17T12:10:13Z</time>
      </trkpt>
      <trkpt lat="45.43114" lon="3.41716">
        <ele>610.4</ele>
        <time>2020-09-17T12:10:14Z</time>
      </trkpt>
      <trkpt lat="45.43113" lon="3.41716">
        <ele>610.6</ele>
        <time>2020-09-17T12:10:15Z</time>
      </trkpt>
      <trkpt lat="45.43112" lon="3.41717">
        <ele>610.9</ele>
        <time>2020-09-17T12:10:16Z</time>
      </trkpt>
      <trkpt lat="45.43112" lon="3.41717">
        <ele>611.1</ele>
        <time>2020-09-17T12:10:17Z</time>
      </trkpt>
      <trkpt lat="45.43111" lon="3.41717">
        <ele>611.3</ele>
        <time>2020-09-17T12:10:18Z</time>
      </trkpt>
      <trkpt lat="45.4311" lon="3.41718">
        <ele>611.5</ele>
        <time>2020-09-17T12:10:19Z</time>
      </trkpt>
      <trkpt lat="45.43109" lon="3.41718">
        <ele>611.7</ele>
        <time>2020-09-17T12:10:20Z</time>
      </trkpt>
      <trkpt lat="45.43108" lon="3.41719">
        <ele>611.9</ele>
        <time>2020-09-17T12:10:21Z</time>
      </trkpt>
      <trkpt lat="45.43107" lon="3.41719">
        <ele>612.1</ele>
        <time>2020-09-17T12:10:22Z</time>
      </trkpt>
      <trkpt lat="45.43106" lon="3.4172">
        <ele>612.3</ele>
        <time>2020-09-17T12:10:23Z</time>
      </trkpt>
      <trkpt lat="45.43106" lon="3.41721">
        <ele>612.4</ele>
        <time>2020-09-17T12:10:24Z</time>
      </trkpt>
      <trkpt lat="45.43105" lon="3.41722">
        <ele>612.6</ele>
        <time>2020-09-17T12:10:25Z</time>
      </trkpt>
      <trkpt lat="45.43104" lon="3.41722">
        <ele>612.8</ele>
        <time>2020-09-17T12:10:26Z</time>
      </trkpt>
      <trkpt lat="45.43103" lon="3.41723">
        <ele>613</ele>
        <time>2020-09-17T12:10:27Z</time>
      </trkpt>
      <trkpt lat="45.43102" lon="3.41724">
        <ele>613.2</ele>
        <time>2020-09-17T12:10:28Z</time>
      </trkpt>
      <trkpt lat="45.43101" lon="3.41724">
        <ele>613.5</ele>
        <time>2020-09-17T12:10:29Z</time>
      </trkpt>
      <trkpt lat="45.431" lon="3.41725">
        <ele>613.7</ele>
        <time>2020-09-17T12:10:30Z</time>
      </trkpt>
      <trkpt lat="45.431" lon="3.41726">
        <ele>613.9</ele>
        <time>2020-09-17T12:10:31Z</time>
      </trkpt>
      <trkpt lat="45.43099" lon="3.41726">
        <ele>614.1</ele>
        <time>2020-09-17T12:10:32Z</time>
      </trkpt>
      <trkpt lat="45.43098" lon="3.41727">
        <ele>614.3</ele>
        <time>2020-09-17T12:10:33Z</time>
      </trkpt>
      <trkpt lat="45.43097" lon="3.41728">
        <ele>614.5</ele>
        <time>2020-09-17T12:10:34Z</time>
      </trkpt>
      <trkpt lat="45.43096" lon="3.41729">
        <ele>614.7</ele>
        <time>2020-09-17T12:10:35Z</time>
      </trkpt>
      <trkpt lat="45.43095" lon="3.41729">
        <ele>614.9</ele>
        <time>2020-09-17T12:10:36Z</time>
      </trkpt>
      <trkpt lat="45.43095" lon="3.4173">
        <ele>615.1</ele>
        <time>2020-09-17T12:10:37Z</time>
      </trkpt>
      <trkpt lat="45.43094" lon="3.41731">
        <ele>615.2</ele>
        <time>2020-09-17T12:10:38Z</time>
      </trkpt>
      <trkpt lat="45.43093" lon="3.41732">
        <ele>615.4</ele>
        <time>2020-09-17T12:10:39Z</time>
      </trkpt>
      <trkpt lat="45.43092" lon="3.41732">
        <ele>615.6</ele>
        <time>2020-09-17T12:10:40Z</time>
      </trkpt>
      <trkpt lat="45.43092" lon="3.41733">
        <ele>615.8</ele>
        <time>2020-09-17T12:10:41Z</time>
      </trkpt>
      <trkpt lat="45.43091" lon="3.41734">
        <ele>616</ele>
        <time>2020-09-17T12:10:42Z</time>
      </trkpt>
      <trkpt lat="45.4309" lon="3.41735">
        <ele>616.2</ele>
        <time>2020-09-17T12:10:43Z</time>
      </trkpt>
      <trkpt lat="45.43089" lon="3.41736">
        <ele>616.4</ele>
        <time>2020-09-17T12:10:44Z</time>
      </trkpt>
      <trkpt lat="45.43089" lon="3.41736">
        <ele>616.6</ele>
        <time>2020-09-17T12:10:45Z</time>
      </trkpt>
      <trkpt lat="45.43088" lon="3.41737">
        <ele>616.8</ele>
        <time>2020-09-17T12:10:46Z</time>
      </trkpt>
      <trkpt lat="45.43087" lon="3.41738">
        <ele>617</ele>
        <time>2020-09-17T12:10:47Z</time>
      </trkpt>
      <trkpt lat="45.43087" lon="3.41739">
        <ele>617.1</ele>
        <time>2020-09-17T12:10:48Z</time>
      </trkpt>
      <trkpt lat="45.43086" lon="3.4174">
        <ele>617.2</ele>
        <time>2020-09-17T12:10:49Z</time>
      </trkpt>
      <trkpt lat="45.43086" lon="3.41741">
        <ele>617.4</ele>
        <time>2020-09-17T12:10:50Z</time>
      </trkpt>
      <trkpt lat="45.43085" lon="3.41742">
        <ele>617.4</ele>
        <time>2020-09-17T12:10:51Z</time>
      </trkpt>
      <trkpt lat="45.43085" lon="3.41744">
        <ele>617.5</ele>
        <time>2020-09-17T12:10:52Z</time>
      </trkpt>
      <trkpt lat="45.43085" lon="3.41745">
        <ele>617.6</ele>
        <time>2020-09-17T12:10:53Z</time>
      </trkpt>
      <trkpt lat="45.43084" lon="3.41747">
        <ele>617.7</ele>
        <time>2020-09-17T12:10:54Z</time>
      </trkpt>
      <trkpt lat="45.43084" lon="3.41748">
        <ele>617.8</ele>
        <time>2020-09-17T12:10:55Z</time>
      </trkpt>
      <trkpt lat="45.43084" lon="3.41749">
        <ele>617.8</ele>
        <time>2020-09-17T12:10:56Z</time>
      </trkpt>
      <trkpt lat="45.43084" lon="3.41751">
        <ele>618</ele>
        <time>2020-09-17T12:10:57Z</time>
      </trkpt>
      <trkpt lat="45.43084" lon="3.41752">
        <ele>618.3</ele>
        <time>2020-09-17T12:10:58Z</time>
      </trkpt>
      <trkpt lat="45.43084" lon="3.41754">
        <ele>618.7</ele>
        <time>2020-09-17T12:10:59Z</time>
      </trkpt>
      <trkpt lat="45.43084" lon="3.41756">
        <ele>618.9</ele>
        <time>2020-09-17T12:11:00Z</time>
      </trkpt>
      <trkpt lat="45.43084" lon="3.41757">
        <ele>619.2</ele>
        <time>2020-09-17T12:11:01Z</time>
      </trkpt>
      <trkpt lat="45.43084" lon="3.41758">
        <ele>619.3</ele>
        <time>2020-09-17T12:11:02Z</time>
      </trkpt>
      <trkpt lat="45.43084" lon="3.4176">
        <ele>619.6</ele>
        <time>2020-09-17T12:11:03Z</time>
      </trkpt>
      <trkpt lat="45.43084" lon="3.41761">
        <ele>619.8</ele>
        <time>2020-09-17T12:11:04Z</time>
      </trkpt>
      <trkpt lat="45.43084" lon="3.41763">
        <ele>620.1</ele>
        <time>2020-09-17T12:11:05Z</time>
      </trkpt>
      <trkpt lat="45.43084" lon="3.41765">
        <ele>620.3</ele>
        <time>2020-09-17T12:11:06Z</time>
      </trkpt>
      <trkpt lat="45.43085" lon="3.41766">
        <ele>620.5</ele>
        <time>2020-09-17T12:11:07Z</time>
      </trkpt>
      <trkpt lat="45.43085" lon="3.41768">
        <ele>620.6</ele>
        <time>2020-09-17T12:11:08Z</time>
      </trkpt>
      <trkpt lat="45.43085" lon="3.41769">
        <ele>620.9</ele>
        <time>2020-09-17T12:11:09Z</time>
      </trkpt>
      <trkpt lat="45.43085" lon="3.4177">
        <ele>621.1</ele>
        <time>2020-09-17T12:11:10Z</time>
      </trkpt>
      <trkpt lat="45.43085" lon="3.41772">
        <ele>621.3</ele>
        <time>2020-09-17T12:11:11Z</time>
      </trkpt>
      <trkpt lat="45.43085" lon="3.41773">
        <ele>621.5</ele>
        <time>2020-09-17T12:11:12Z</time>
      </trkpt>
      <trkpt lat="45.43086" lon="3.41775">
        <ele>621.6</ele>
        <time>2020-09-17T12:11:13Z</time>
      </trkpt>
      <trkpt lat="45.43086" lon="3.41776">
        <ele>621.8</ele>
        <time>2020-09-17T12:11:14Z</time>
      </trkpt>
      <trkpt lat="45.43086" lon="3.41777">
        <ele>621.8</ele>
        <time>2020-09-17T12:11:15Z</time>
      </trkpt>
      <trkpt lat="45.43087" lon="3.41779">
        <ele>621.9</ele>
        <time>2020-09-17T12:11:16Z</time>
      </trkpt>
      <trkpt lat="45.43087" lon="3.4178">
        <ele>622.1</ele>
        <time>2020-09-17T12:11:17Z</time>
      </trkpt>
      <trkpt lat="45.43087" lon="3.41782">
        <ele>622.2</ele>
        <time>2020-09-17T12:11:18Z</time>
      </trkpt>
      <trkpt lat="45.43088" lon="3.41783">
        <ele>622.2</ele>
        <time>2020-09-17T12:11:19Z</time>
      </trkpt>
      <trkpt lat="45.43088" lon="3.41784">
        <ele>622.3</ele>
        <time>2020-09-17T12:11:20Z</time>
      </trkpt>
      <trkpt lat="45.43088" lon="3.41786">
        <ele>622.5</ele>
        <time>2020-09-17T12:11:21Z</time>
      </trkpt>
      <trkpt lat="45.43088" lon="3.41787">
        <ele>622.7</ele>
        <time>2020-09-17T12:11:22Z</time>
      </trkpt>
      <trkpt lat="45.43088" lon="3.41789">
        <ele>622.8</ele>
        <time>2020-09-17T12:11:23Z</time>
      </trkpt>
      <trkpt lat="45.43088" lon="3.4179">
        <ele>623</ele>
        <time>2020-09-17T12:11:24Z</time>
      </trkpt>
      <trkpt lat="45.43089" lon="3.41792">
        <ele>623.1</ele>
        <time>2020-09-17T12:11:25Z</time>
      </trkpt>
      <trkpt lat="45.43089" lon="3.41793">
        <ele>623.2</ele>
        <time>2020-09-17T12:11:26Z</time>
      </trkpt>
      <trkpt lat="45.43089" lon="3.41794">
        <ele>623.3</ele>
        <time>2020-09-17T12:11:27Z</time>
      </trkpt>
      <trkpt lat="45.43089" lon="3.41795">
        <ele>623.4</ele>
        <time>2020-09-17T12:11:28Z</time>
      </trkpt>
      <trkpt lat="45.4309" lon="3.41797">
        <ele>623.5</ele>
        <time>2020-09-17T12:11:29Z</time>
      </trkpt>
      <trkpt lat="45.4309" lon="3.41798">
        <ele>623.6</ele>
        <time>2020-09-17T12:11:30Z</time>
      </trkpt>
      <trkpt lat="45.4309" lon="3.41799">
        <ele>623.7</ele>
        <time>2020-09-17T12:11:31Z</time>
      </trkpt>
      <trkpt lat="45.4309" lon="3.41801">
        <ele>623.9</ele>
        <time>2020-09-17T12:11:32Z</time>
      </trkpt>
      <trkpt lat="45.4309" lon="3.41802">
        <ele>623.9</ele>
        <time>2020-09-17T12:11:33Z</time>
      </trkpt>
      <trkpt lat="45.43091" lon="3.41803">
        <ele>624</ele>
        <time>2020-09-17T12:11:34Z</time>
      </trkpt>
      <trkpt lat="45.43091" lon="3.41804">
        <ele>624</ele>
        <time>2020-09-17T12:11:35Z</time>
      </trkpt>
      <trkpt lat="45.43091" lon="3.41806">
        <ele>624.2</ele>
        <time>2020-09-17T12:11:36Z</time>
      </trkpt>
      <trkpt lat="45.43091" lon="3.41807">
        <ele>624.3</ele>
        <time>2020-09-17T12:11:37Z</time>
      </trkpt>
      <trkpt lat="45.43092" lon="3.41808">
        <ele>624.4</ele>
        <time>2020-09-17T12:11:38Z</time>
      </trkpt>
      <trkpt lat="45.43092" lon="3.41809">
        <ele>624.7</ele>
        <time>2020-09-17T12:11:39Z</time>
      </trkpt>
      <trkpt lat="45.43092" lon="3.41811">
        <ele>624.9</ele>
        <time>2020-09-17T12:11:40Z</time>
      </trkpt>
      <trkpt lat="45.43092" lon="3.41812">
        <ele>625</ele>
        <time>2020-09-17T12:11:41Z</time>
      </trkpt>
      <trkpt lat="45.43092" lon="3.41814">
        <ele>625.3</ele>
        <time>2020-09-17T12:11:42Z</time>
      </trkpt>
      <trkpt lat="45.43092" lon="3.41815">
        <ele>625.5</ele>
        <time>2020-09-17T12:11:43Z</time>
      </trkpt>
      <trkpt lat="45.43092" lon="3.41816">
        <ele>625.6</ele>
        <time>2020-09-17T12:11:44Z</time>
      </trkpt>
      <trkpt lat="45.43092" lon="3.41817">
        <ele>625.9</ele>
        <time>2020-09-17T12:11:45Z</time>
      </trkpt>
      <trkpt lat="45.43093" lon="3.41819">
        <ele>626</ele>
        <time>2020-09-17T12:11:46Z</time>
      </trkpt>
      <trkpt lat="45.43093" lon="3.4182">
        <ele>626.1</ele>
        <time>2020-09-17T12:11:47Z</time>
      </trkpt>
      <trkpt lat="45.43093" lon="3.41822">
        <ele>626.4</ele>
        <time>2020-09-17T12:11:48Z</time>
      </trkpt>
      <trkpt lat="45.43093" lon="3.41823">
        <ele>626.6</ele>
        <time>2020-09-17T12:11:49Z</time>
      </trkpt>
      <trkpt lat="45.43093" lon="3.41824">
        <ele>626.8</ele>
        <time>2020-09-17T12:11:50Z</time>
      </trkpt>
      <trkpt lat="45.43094" lon="3.41825">
        <ele>626.8</ele>
        <time>2020-09-17T12:11:51Z</time>
      </trkpt>
      <trkpt lat="45.43094" lon="3.41827">
        <ele>627</ele>
        <time>2020-09-17T12:11:52Z</time>
      </trkpt>
      <trkpt lat="45.43094" lon="3.41828">
        <ele>627.1</ele>
        <time>2020-09-17T12:11:53Z</time>
      </trkpt>
      <trkpt lat="45.43094" lon="3.41829">
        <ele>627.3</ele>
        <time>2020-09-17T12:11:54Z</time>
      </trkpt>
      <trkpt lat="45.43094" lon="3.4183">
        <ele>627.6</ele>
        <time>2020-09-17T12:11:55Z</time>
      </trkpt>
      <trkpt lat="45.43094" lon="3.41831">
        <ele>628</ele>
        <time>2020-09-17T12:11:56Z</time>
      </trkpt>
      <trkpt lat="45.43094" lon="3.41833">
        <ele>628.2</ele>
        <time>2020-09-17T12:11:57Z</time>
      </trkpt>
      <trkpt lat="45.43094" lon="3.41834">
        <ele>628.4</ele>
        <time>2020-09-17T12:11:58Z</time>
      </trkpt>
      <trkpt lat="45.43094" lon="3.41835">
        <ele>628.5</ele>
        <time>2020-09-17T12:11:59Z</time>
      </trkpt>
      <trkpt lat="45.43094" lon="3.41836">
        <ele>628.6</ele>
        <time>2020-09-17T12:12:00Z</time>
      </trkpt>
      <trkpt lat="45.43094" lon="3.41837">
        <ele>628.8</ele>
        <time>2020-09-17T12:12:01Z</time>
      </trkpt>
      <trkpt lat="45.43094" lon="3.41838">
        <ele>628.9</ele>
        <time>2020-09-17T12:12:02Z</time>
      </trkpt>
      <trkpt lat="45.43094" lon="3.4184">
        <ele>629</ele>
        <time>2020-09-17T12:12:03Z</time>
      </trkpt>
      <trkpt lat="45.43094" lon="3.41841">
        <ele>629.3</ele>
        <time>2020-09-17T12:12:04Z</time>
      </trkpt>
      <trkpt lat="45.43093" lon="3.41843">
        <ele>629.5</ele>
        <time>2020-09-17T12:12:05Z</time>
      </trkpt>
      <trkpt lat="45.43093" lon="3.41844">
        <ele>629.7</ele>
        <time>2020-09-17T12:12:06Z</time>
      </trkpt>
      <trkpt lat="45.43094" lon="3.41846">
        <ele>629.8</ele>
        <time>2020-09-17T12:12:07Z</time>
      </trkpt>
      <trkpt lat="45.43094" lon="3.41847">
        <ele>629.9</ele>
        <time>2020-09-17T12:12:08Z</time>
      </trkpt>
      <trkpt lat="45.43094" lon="3.41849">
        <ele>630.1</ele>
        <time>2020-09-17T12:12:09Z</time>
      </trkpt>
      <trkpt lat="45.43094" lon="3.4185">
        <ele>630.4</ele>
        <time>2020-09-17T12:12:10Z</time>
      </trkpt>
      <trkpt lat="45.43093" lon="3.41852">
        <ele>630.6</ele>
        <time>2020-09-17T12:12:11Z</time>
      </trkpt>
      <trkpt lat="45.43093" lon="3.41854">
        <ele>630.9</ele>
        <time>2020-09-17T12:12:12Z</time>
      </trkpt>
      <trkpt lat="45.43093" lon="3.41856">
        <ele>631.2</ele>
        <time>2020-09-17T12:12:13Z</time>
      </trkpt>
      <trkpt lat="45.43093" lon="3.41857">
        <ele>631.5</ele>
        <time>2020-09-17T12:12:14Z</time>
      </trkpt>
      <trkpt lat="45.43092" lon="3.41859">
        <ele>631.9</ele>
        <time>2020-09-17T12:12:15Z</time>
      </trkpt>
      <trkpt lat="45.43092" lon="3.41861">
        <ele>632.2</ele>
        <time>2020-09-17T12:12:16Z</time>
      </trkpt>
      <trkpt lat="45.43092" lon="3.41862">
        <ele>632.4</ele>
        <time>2020-09-17T12:12:17Z</time>
      </trkpt>
      <trkpt lat="45.43092" lon="3.41864">
        <ele>632.5</ele>
        <time>2020-09-17T12:12:18Z</time>
      </trkpt>
      <trkpt lat="45.43092" lon="3.41865">
        <ele>632.7</ele>
        <time>2020-09-17T12:12:19Z</time>
      </trkpt>
      <trkpt lat="45.43092" lon="3.41866">
        <ele>632.8</ele>
        <time>2020-09-17T12:12:20Z</time>
      </trkpt>
      <trkpt lat="45.43092" lon="3.41868">
        <ele>632.9</ele>
        <time>2020-09-17T12:12:21Z</time>
      </trkpt>
      <trkpt lat="45.43092" lon="3.41869">
        <ele>633</ele>
        <time>2020-09-17T12:12:22Z</time>
      </trkpt>
      <trkpt lat="45.43092" lon="3.4187">
        <ele>633.2</ele>
        <time>2020-09-17T12:12:23Z</time>
      </trkpt>
      <trkpt lat="45.43092" lon="3.41871">
        <ele>633.3</ele>
        <time>2020-09-17T12:12:24Z</time>
      </trkpt>
      <trkpt lat="45.43092" lon="3.41873">
        <ele>633.4</ele>
        <time>2020-09-17T12:12:25Z</time>
      </trkpt>
      <trkpt lat="45.43092" lon="3.41874">
        <ele>633.6</ele>
        <time>2020-09-17T12:12:26Z</time>
      </trkpt>
      <trkpt lat="45.43092" lon="3.41875">
        <ele>633.6</ele>
        <time>2020-09-17T12:12:27Z</time>
      </trkpt>
      <trkpt lat="45.43092" lon="3.41876">
        <ele>633.7</ele>
        <time>2020-09-17T12:12:28Z</time>
      </trkpt>
      <trkpt lat="45.43092" lon="3.41877">
        <ele>633.8</ele>
        <time>2020-09-17T12:12:29Z</time>
      </trkpt>
      <trkpt lat="45.43092" lon="3.41879">
        <ele>633.9</ele>
        <time>2020-09-17T12:12:30Z</time>
      </trkpt>
      <trkpt lat="45.43092" lon="3.41879">
        <ele>634.1</ele>
        <time>2020-09-17T12:12:31Z</time>
      </trkpt>
      <trkpt lat="45.43092" lon="3.41881">
        <ele>634.2</ele>
        <time>2020-09-17T12:12:32Z</time>
      </trkpt>
      <trkpt lat="45.43092" lon="3.41882">
        <ele>634.3</ele>
        <time>2020-09-17T12:12:33Z</time>
      </trkpt>
      <trkpt lat="45.43092" lon="3.41883">
        <ele>634.4</ele>
        <time>2020-09-17T12:12:34Z</time>
      </trkpt>
      <trkpt lat="45.43092" lon="3.41885">
        <ele>634.5</ele>
        <time>2020-09-17T12:12:35Z</time>
      </trkpt>
      <trkpt lat="45.43092" lon="3.41886">
        <ele>634.6</ele>
        <time>2020-09-17T12:12:36Z</time>
      </trkpt>
      <trkpt lat="45.43092" lon="3.41887">
        <ele>634.8</ele>
        <time>2020-09-17T12:12:37Z</time>
      </trkpt>
      <trkpt lat="45.43092" lon="3.41888">
        <ele>634.9</ele>
        <time>2020-09-17T12:12:38Z</time>
      </trkpt>
      <trkpt lat="45.43092" lon="3.41889">
        <ele>635.1</ele>
        <time>2020-09-17T12:12:39Z</time>
      </trkpt>
      <trkpt lat="45.43092" lon="3.4189">
        <ele>635.1</ele>
        <time>2020-09-17T12:12:40Z</time>
      </trkpt>
      <trkpt lat="45.43092" lon="3.41892">
        <ele>635.2</ele>
        <time>2020-09-17T12:12:41Z</time>
      </trkpt>
      <trkpt lat="45.43092" lon="3.41893">
        <ele>635.2</ele>
        <time>2020-09-17T12:12:42Z</time>
      </trkpt>
      <trkpt lat="45.43092" lon="3.41894">
        <ele>635.3</ele>
        <time>2020-09-17T12:12:43Z</time>
      </trkpt>
      <trkpt lat="45.43091" lon="3.41895">
        <ele>635.4</ele>
        <time>2020-09-17T12:12:44Z</time>
      </trkpt>
      <trkpt lat="45.43091" lon="3.41895">
        <ele>635.4</ele>
        <time>2020-09-17T12:12:45Z</time>
      </trkpt>
      <trkpt lat="45.43091" lon="3.41895">
        <ele>635.4</ele>
        <time>2020-09-17T12:12:46Z</time>
      </trkpt>
      <trkpt lat="45.43091" lon="3.41895">
        <ele>635.4</ele>
        <time>2020-09-17T12:12:47Z</time>
      </trkpt>
      <trkpt lat="45.43091" lon="3.41895">
        <ele>635.5</ele>
        <time>2020-09-17T12:12:48Z</time>
      </trkpt>
      <trkpt lat="45.43091" lon="3.41896">
        <ele>635.5</ele>
        <time>2020-09-17T12:12:49Z</time>
      </trkpt>
      <trkpt lat="45.43091" lon="3.41913">
        <ele>636.4</ele>
        <time>2020-09-17T12:12:50Z</time>
      </trkpt>
      <trkpt lat="45.43091" lon="3.41914">
        <ele>636.5</ele>
        <time>2020-09-17T12:12:51Z</time>
      </trkpt>
      <trkpt lat="45.43091" lon="3.41915">
        <ele>636.8</ele>
        <time>2020-09-17T12:12:52Z</time>
      </trkpt>
      <trkpt lat="45.4309" lon="3.41916">
        <ele>637</ele>
        <time>2020-09-17T12:12:53Z</time>
      </trkpt>
      <trkpt lat="45.4309" lon="3.41918">
        <ele>637.1</ele>
        <time>2020-09-17T12:12:54Z</time>
      </trkpt>
      <trkpt lat="45.4309" lon="3.41919">
        <ele>637.3</ele>
        <time>2020-09-17T12:12:55Z</time>
      </trkpt>
      <trkpt lat="45.43089" lon="3.4192">
        <ele>637.4</ele>
        <time>2020-09-17T12:12:56Z</time>
      </trkpt>
      <trkpt lat="45.43089" lon="3.41921">
        <ele>637.4</ele>
        <time>2020-09-17T12:12:57Z</time>
      </trkpt>
      <trkpt lat="45.43089" lon="3.41923">
        <ele>637.5</ele>
        <time>2020-09-17T12:12:58Z</time>
      </trkpt>
      <trkpt lat="45.43089" lon="3.41924">
        <ele>637.6</ele>
        <time>2020-09-17T12:12:59Z</time>
      </trkpt>
      <trkpt lat="45.43089" lon="3.41926">
        <ele>637.6</ele>
        <time>2020-09-17T12:13:00Z</time>
      </trkpt>
      <trkpt lat="45.43089" lon="3.41927">
        <ele>637.7</ele>
        <time>2020-09-17T12:13:01Z</time>
      </trkpt>
      <trkpt lat="45.43089" lon="3.41929">
        <ele>637.7</ele>
        <time>2020-09-17T12:13:02Z</time>
      </trkpt>
      <trkpt lat="45.43089" lon="3.4193">
        <ele>637.6</ele>
        <time>2020-09-17T12:13:03Z</time>
      </trkpt>
      <trkpt lat="45.43089" lon="3.41931">
        <ele>637.6</ele>
        <time>2020-09-17T12:13:04Z</time>
      </trkpt>
      <trkpt lat="45.43089" lon="3.41932">
        <ele>637.6</ele>
        <time>2020-09-17T12:13:05Z</time>
      </trkpt>
      <trkpt lat="45.43089" lon="3.41933">
        <ele>637.6</ele>
        <time>2020-09-17T12:13:06Z</time>
      </trkpt>
      <trkpt lat="45.43089" lon="3.41935">
        <ele>637.6</ele>
        <time>2020-09-17T12:13:07Z</time>
      </trkpt>
      <trkpt lat="45.43089" lon="3.41937">
        <ele>637.6</ele>
        <time>2020-09-17T12:13:08Z</time>
      </trkpt>
      <trkpt lat="45.43089" lon="3.41938">
        <ele>637.6</ele>
        <time>2020-09-17T12:13:09Z</time>
      </trkpt>
      <trkpt lat="45.43089" lon="3.4194">
        <ele>637.6</ele>
        <time>2020-09-17T12:13:10Z</time>
      </trkpt>
      <trkpt lat="45.43089" lon="3.41941">
        <ele>637.7</ele>
        <time>2020-09-17T12:13:11Z</time>
      </trkpt>
      <trkpt lat="45.43089" lon="3.41943">
        <ele>637.8</ele>
        <time>2020-09-17T12:13:12Z</time>
      </trkpt>
      <trkpt lat="45.43089" lon="3.41944">
        <ele>637.8</ele>
        <time>2020-09-17T12:13:13Z</time>
      </trkpt>
      <trkpt lat="45.43088" lon="3.41945">
        <ele>637.8</ele>
        <time>2020-09-17T12:13:14Z</time>
      </trkpt>
      <trkpt lat="45.43088" lon="3.41947">
        <ele>637.8</ele>
        <time>2020-09-17T12:13:15Z</time>
      </trkpt>
      <trkpt lat="45.43088" lon="3.41948">
        <ele>637.8</ele>
        <time>2020-09-17T12:13:16Z</time>
      </trkpt>
      <trkpt lat="45.43088" lon="3.4195">
        <ele>637.9</ele>
        <time>2020-09-17T12:13:17Z</time>
      </trkpt>
      <trkpt lat="45.43088" lon="3.41951">
        <ele>637.8</ele>
        <time>2020-09-17T12:13:18Z</time>
      </trkpt>
      <trkpt lat="45.43088" lon="3.41953">
        <ele>637.8</ele>
        <time>2020-09-17T12:13:19Z</time>
      </trkpt>
      <trkpt lat="45.43088" lon="3.41955">
        <ele>637.8</ele>
        <time>2020-09-17T12:13:20Z</time>
      </trkpt>
      <trkpt lat="45.43087" lon="3.41956">
        <ele>637.9</ele>
        <time>2020-09-17T12:13:21Z</time>
      </trkpt>
      <trkpt lat="45.43087" lon="3.41958">
        <ele>638</ele>
        <time>2020-09-17T12:13:22Z</time>
      </trkpt>
      <trkpt lat="45.43087" lon="3.41959">
        <ele>638</ele>
        <time>2020-09-17T12:13:23Z</time>
      </trkpt>
      <trkpt lat="45.43087" lon="3.41961">
        <ele>638.1</ele>
        <time>2020-09-17T12:13:24Z</time>
      </trkpt>
      <trkpt lat="45.43086" lon="3.41962">
        <ele>638.1</ele>
        <time>2020-09-17T12:13:25Z</time>
      </trkpt>
      <trkpt lat="45.43086" lon="3.41964">
        <ele>638.2</ele>
        <time>2020-09-17T12:13:26Z</time>
      </trkpt>
      <trkpt lat="45.43086" lon="3.41965">
        <ele>638.2</ele>
        <time>2020-09-17T12:13:27Z</time>
      </trkpt>
      <trkpt lat="45.43085" lon="3.41967">
        <ele>638.3</ele>
        <time>2020-09-17T12:13:28Z</time>
      </trkpt>
      <trkpt lat="45.43085" lon="3.41969">
        <ele>638.4</ele>
        <time>2020-09-17T12:13:29Z</time>
      </trkpt>
      <trkpt lat="45.43085" lon="3.4197">
        <ele>638.5</ele>
        <time>2020-09-17T12:13:30Z</time>
      </trkpt>
      <trkpt lat="45.43085" lon="3.41972">
        <ele>638.5</ele>
        <time>2020-09-17T12:13:31Z</time>
      </trkpt>
      <trkpt lat="45.43084" lon="3.41973">
        <ele>638.6</ele>
        <time>2020-09-17T12:13:32Z</time>
      </trkpt>
      <trkpt lat="45.43084" lon="3.41974">
        <ele>638.6</ele>
        <time>2020-09-17T12:13:33Z</time>
      </trkpt>
      <trkpt lat="45.43084" lon="3.41976">
        <ele>638.7</ele>
        <time>2020-09-17T12:13:34Z</time>
      </trkpt>
      <trkpt lat="45.43084" lon="3.41977">
        <ele>638.8</ele>
        <time>2020-09-17T12:13:35Z</time>
      </trkpt>
      <trkpt lat="45.43083" lon="3.41978">
        <ele>638.8</ele>
        <time>2020-09-17T12:13:36Z</time>
      </trkpt>
      <trkpt lat="45.43083" lon="3.4198">
        <ele>638.9</ele>
        <time>2020-09-17T12:13:37Z</time>
      </trkpt>
      <trkpt lat="45.43083" lon="3.41981">
        <ele>638.9</ele>
        <time>2020-09-17T12:13:38Z</time>
      </trkpt>
      <trkpt lat="45.43082" lon="3.41983">
        <ele>639</ele>
        <time>2020-09-17T12:13:39Z</time>
      </trkpt>
      <trkpt lat="45.43082" lon="3.41984">
        <ele>639</ele>
        <time>2020-09-17T12:13:40Z</time>
      </trkpt>
      <trkpt lat="45.43082" lon="3.41986">
        <ele>639.1</ele>
        <time>2020-09-17T12:13:41Z</time>
      </trkpt>
      <trkpt lat="45.43082" lon="3.41987">
        <ele>639.1</ele>
        <time>2020-09-17T12:13:42Z</time>
      </trkpt>
      <trkpt lat="45.43082" lon="3.41988">
        <ele>639.1</ele>
        <time>2020-09-17T12:13:43Z</time>
      </trkpt>
      <trkpt lat="45.43081" lon="3.4199">
        <ele>639.2</ele>
        <time>2020-09-17T12:13:44Z</time>
      </trkpt>
      <trkpt lat="45.43081" lon="3.41991">
        <ele>639.2</ele>
        <time>2020-09-17T12:13:45Z</time>
      </trkpt>
      <trkpt lat="45.43081" lon="3.41992">
        <ele>639.3</ele>
        <time>2020-09-17T12:13:46Z</time>
      </trkpt>
      <trkpt lat="45.43081" lon="3.41994">
        <ele>639.3</ele>
        <time>2020-09-17T12:13:47Z</time>
      </trkpt>
      <trkpt lat="45.4308" lon="3.41995">
        <ele>639.4</ele>
        <time>2020-09-17T12:13:48Z</time>
      </trkpt>
      <trkpt lat="45.4308" lon="3.41997">
        <ele>639.5</ele>
        <time>2020-09-17T12:13:49Z</time>
      </trkpt>
      <trkpt lat="45.4308" lon="3.41998">
        <ele>639.5</ele>
        <time>2020-09-17T12:13:50Z</time>
      </trkpt>
      <trkpt lat="45.43079" lon="3.41999">
        <ele>639.6</ele>
        <time>2020-09-17T12:13:51Z</time>
      </trkpt>
      <trkpt lat="45.43079" lon="3.42001">
        <ele>639.7</ele>
        <time>2020-09-17T12:13:52Z</time>
      </trkpt>
      <trkpt lat="45.43079" lon="3.42002">
        <ele>639.8</ele>
        <time>2020-09-17T12:13:53Z</time>
      </trkpt>
      <trkpt lat="45.43079" lon="3.42004">
        <ele>639.8</ele>
        <time>2020-09-17T12:13:54Z</time>
      </trkpt>
      <trkpt lat="45.43079" lon="3.42005">
        <ele>639.9</ele>
        <time>2020-09-17T12:13:55Z</time>
      </trkpt>
      <trkpt lat="45.43078" lon="3.42006">
        <ele>640</ele>
        <time>2020-09-17T12:13:56Z</time>
      </trkpt>
      <trkpt lat="45.43078" lon="3.42008">
        <ele>640.1</ele>
        <time>2020-09-17T12:13:57Z</time>
      </trkpt>
      <trkpt lat="45.43078" lon="3.4201">
        <ele>640.2</ele>
        <time>2020-09-17T12:13:58Z</time>
      </trkpt>
      <trkpt lat="45.43078" lon="3.42011">
        <ele>640.2</ele>
        <time>2020-09-17T12:13:59Z</time>
      </trkpt>
      <trkpt lat="45.43077" lon="3.42012">
        <ele>640.3</ele>
        <time>2020-09-17T12:14:00Z</time>
      </trkpt>
      <trkpt lat="45.43077" lon="3.42014">
        <ele>640.4</ele>
        <time>2020-09-17T12:14:01Z</time>
      </trkpt>
      <trkpt lat="45.43077" lon="3.42016">
        <ele>640.5</ele>
        <time>2020-09-17T12:14:02Z</time>
      </trkpt>
      <trkpt lat="45.43076" lon="3.42018">
        <ele>640.6</ele>
        <time>2020-09-17T12:14:03Z</time>
      </trkpt>
      <trkpt lat="45.43076" lon="3.42019">
        <ele>640.7</ele>
        <time>2020-09-17T12:14:04Z</time>
      </trkpt>
      <trkpt lat="45.43076" lon="3.42021">
        <ele>640.8</ele>
        <time>2020-09-17T12:14:05Z</time>
      </trkpt>
      <trkpt lat="45.43076" lon="3.42022">
        <ele>640.9</ele>
        <time>2020-09-17T12:14:06Z</time>
      </trkpt>
      <trkpt lat="45.43075" lon="3.42024">
        <ele>641</ele>
        <time>2020-09-17T12:14:07Z</time>
      </trkpt>
      <trkpt lat="45.43075" lon="3.42025">
        <ele>641.1</ele>
        <time>2020-09-17T12:14:08Z</time>
      </trkpt>
      <trkpt lat="45.43074" lon="3.42027">
        <ele>641.3</ele>
        <time>2020-09-17T12:14:09Z</time>
      </trkpt>
      <trkpt lat="45.43074" lon="3.42028">
        <ele>641.4</ele>
        <time>2020-09-17T12:14:10Z</time>
      </trkpt>
      <trkpt lat="45.43074" lon="3.4203">
        <ele>641.5</ele>
        <time>2020-09-17T12:14:11Z</time>
      </trkpt>
      <trkpt lat="45.43073" lon="3.42031">
        <ele>641.6</ele>
        <time>2020-09-17T12:14:12Z</time>
      </trkpt>
      <trkpt lat="45.43073" lon="3.42033">
        <ele>641.6</ele>
        <time>2020-09-17T12:14:13Z</time>
      </trkpt>
      <trkpt lat="45.43073" lon="3.42034">
        <ele>641.7</ele>
        <time>2020-09-17T12:14:14Z</time>
      </trkpt>
      <trkpt lat="45.43072" lon="3.42035">
        <ele>641.9</ele>
        <time>2020-09-17T12:14:15Z</time>
      </trkpt>
      <trkpt lat="45.43072" lon="3.42037">
        <ele>642</ele>
        <time>2020-09-17T12:14:16Z</time>
      </trkpt>
      <trkpt lat="45.43071" lon="3.42038">
        <ele>642.1</ele>
        <time>2020-09-17T12:14:17Z</time>
      </trkpt>
      <trkpt lat="45.43071" lon="3.42039">
        <ele>642.2</ele>
        <time>2020-09-17T12:14:18Z</time>
      </trkpt>
      <trkpt lat="45.4307" lon="3.42041">
        <ele>642.4</ele>
        <time>2020-09-17T12:14:19Z</time>
      </trkpt>
      <trkpt lat="45.43069" lon="3.42042">
        <ele>642.6</ele>
        <time>2020-09-17T12:14:20Z</time>
      </trkpt>
      <trkpt lat="45.43069" lon="3.42043">
        <ele>642.7</ele>
        <time>2020-09-17T12:14:21Z</time>
      </trkpt>
      <trkpt lat="45.43068" lon="3.42044">
        <ele>642.8</ele>
        <time>2020-09-17T12:14:22Z</time>
      </trkpt>
      <trkpt lat="45.43068" lon="3.42046">
        <ele>642.9</ele>
        <time>2020-09-17T12:14:23Z</time>
      </trkpt>
      <trkpt lat="45.43067" lon="3.42047">
        <ele>643.1</ele>
        <time>2020-09-17T12:14:24Z</time>
      </trkpt>
      <trkpt lat="45.43067" lon="3.42048">
        <ele>643.2</ele>
        <time>2020-09-17T12:14:25Z</time>
      </trkpt>
      <trkpt lat="45.43066" lon="3.42049">
        <ele>643.3</ele>
        <time>2020-09-17T12:14:26Z</time>
      </trkpt>
      <trkpt lat="45.43065" lon="3.42051">
        <ele>643.4</ele>
        <time>2020-09-17T12:14:27Z</time>
      </trkpt>
      <trkpt lat="45.43065" lon="3.42052">
        <ele>643.5</ele>
        <time>2020-09-17T12:14:28Z</time>
      </trkpt>
      <trkpt lat="45.43064" lon="3.42053">
        <ele>643.7</ele>
        <time>2020-09-17T12:14:29Z</time>
      </trkpt>
      <trkpt lat="45.43064" lon="3.42054">
        <ele>643.8</ele>
        <time>2020-09-17T12:14:30Z</time>
      </trkpt>
      <trkpt lat="45.43063" lon="3.42056">
        <ele>643.9</ele>
        <time>2020-09-17T12:14:31Z</time>
      </trkpt>
      <trkpt lat="45.43062" lon="3.42057">
        <ele>644.1</ele>
        <time>2020-09-17T12:14:32Z</time>
      </trkpt>
      <trkpt lat="45.43062" lon="3.42058">
        <ele>644.2</ele>
        <time>2020-09-17T12:14:33Z</time>
      </trkpt>
      <trkpt lat="45.43061" lon="3.42059">
        <ele>644.3</ele>
        <time>2020-09-17T12:14:34Z</time>
      </trkpt>
      <trkpt lat="45.4306" lon="3.4206">
        <ele>644.5</ele>
        <time>2020-09-17T12:14:35Z</time>
      </trkpt>
      <trkpt lat="45.4306" lon="3.42061">
        <ele>644.7</ele>
        <time>2020-09-17T12:14:36Z</time>
      </trkpt>
      <trkpt lat="45.43059" lon="3.42062">
        <ele>644.8</ele>
        <time>2020-09-17T12:14:37Z</time>
      </trkpt>
      <trkpt lat="45.43058" lon="3.42063">
        <ele>644.9</ele>
        <time>2020-09-17T12:14:38Z</time>
      </trkpt>
      <trkpt lat="45.43058" lon="3.42064">
        <ele>645.1</ele>
        <time>2020-09-17T12:14:39Z</time>
      </trkpt>
      <trkpt lat="45.43057" lon="3.42065">
        <ele>645.2</ele>
        <time>2020-09-17T12:14:40Z</time>
      </trkpt>
      <trkpt lat="45.43056" lon="3.42066">
        <ele>645.4</ele>
        <time>2020-09-17T12:14:41Z</time>
      </trkpt>
      <trkpt lat="45.43056" lon="3.42067">
        <ele>645.6</ele>
        <time>2020-09-17T12:14:42Z</time>
      </trkpt>
      <trkpt lat="45.43055" lon="3.42068">
        <ele>645.8</ele>
        <time>2020-09-17T12:14:43Z</time>
      </trkpt>
      <trkpt lat="45.43054" lon="3.42069">
        <ele>646</ele>
        <time>2020-09-17T12:14:44Z</time>
      </trkpt>
      <trkpt lat="45.43054" lon="3.4207">
        <ele>646.1</ele>
        <time>2020-09-17T12:14:45Z</time>
      </trkpt>
      <trkpt lat="45.43053" lon="3.42071">
        <ele>646.2</ele>
        <time>2020-09-17T12:14:46Z</time>
      </trkpt>
      <trkpt lat="45.43053" lon="3.42072">
        <ele>646.4</ele>
        <time>2020-09-17T12:14:47Z</time>
      </trkpt>
      <trkpt lat="45.43052" lon="3.42073">
        <ele>646.5</ele>
        <time>2020-09-17T12:14:48Z</time>
      </trkpt>
      <trkpt lat="45.43052" lon="3.42074">
        <ele>646.7</ele>
        <time>2020-09-17T12:14:49Z</time>
      </trkpt>
      <trkpt lat="45.43051" lon="3.42074">
        <ele>646.8</ele>
        <time>2020-09-17T12:14:50Z</time>
      </trkpt>
      <trkpt lat="45.43051" lon="3.42075">
        <ele>647</ele>
        <time>2020-09-17T12:14:51Z</time>
      </trkpt>
      <trkpt lat="45.4305" lon="3.42076">
        <ele>647.2</ele>
        <time>2020-09-17T12:14:52Z</time>
      </trkpt>
      <trkpt lat="45.43049" lon="3.42077">
        <ele>647.4</ele>
        <time>2020-09-17T12:14:53Z</time>
      </trkpt>
      <trkpt lat="45.43049" lon="3.42078">
        <ele>647.6</ele>
        <time>2020-09-17T12:14:54Z</time>
      </trkpt>
      <trkpt lat="45.43048" lon="3.4208">
        <ele>647.7</ele>
        <time>2020-09-17T12:14:55Z</time>
      </trkpt>
      <trkpt lat="45.43047" lon="3.42081">
        <ele>647.9</ele>
        <time>2020-09-17T12:14:56Z</time>
      </trkpt>
      <trkpt lat="45.43047" lon="3.42082">
        <ele>648</ele>
        <time>2020-09-17T12:14:57Z</time>
      </trkpt>
      <trkpt lat="45.43046" lon="3.42083">
        <ele>648.1</ele>
        <time>2020-09-17T12:14:58Z</time>
      </trkpt>
      <trkpt lat="45.43045" lon="3.42084">
        <ele>648.3</ele>
        <time>2020-09-17T12:14:59Z</time>
      </trkpt>
      <trkpt lat="45.43045" lon="3.42086">
        <ele>648.2</ele>
        <time>2020-09-17T12:15:00Z</time>
      </trkpt>
      <trkpt lat="45.43044" lon="3.42087">
        <ele>648.3</ele>
        <time>2020-09-17T12:15:01Z</time>
      </trkpt>
      <trkpt lat="45.43044" lon="3.42088">
        <ele>648.3</ele>
        <time>2020-09-17T12:15:02Z</time>
      </trkpt>
      <trkpt lat="45.43043" lon="3.42089">
        <ele>648.3</ele>
        <time>2020-09-17T12:15:03Z</time>
      </trkpt>
      <trkpt lat="45.43043" lon="3.42091">
        <ele>648.3</ele>
        <time>2020-09-17T12:15:04Z</time>
      </trkpt>
      <trkpt lat="45.43042" lon="3.42092">
        <ele>648.3</ele>
        <time>2020-09-17T12:15:05Z</time>
      </trkpt>
      <trkpt lat="45.43041" lon="3.42094">
        <ele>648.4</ele>
        <time>2020-09-17T12:15:06Z</time>
      </trkpt>
      <trkpt lat="45.43041" lon="3.42095">
        <ele>648.4</ele>
        <time>2020-09-17T12:15:07Z</time>
      </trkpt>
      <trkpt lat="45.4304" lon="3.42096">
        <ele>648.5</ele>
        <time>2020-09-17T12:15:08Z</time>
      </trkpt>
      <trkpt lat="45.43039" lon="3.42097">
        <ele>648.5</ele>
        <time>2020-09-17T12:15:09Z</time>
      </trkpt>
      <trkpt lat="45.43039" lon="3.42098">
        <ele>648.6</ele>
        <time>2020-09-17T12:15:10Z</time>
      </trkpt>
      <trkpt lat="45.43038" lon="3.42099">
        <ele>648.7</ele>
        <time>2020-09-17T12:15:11Z</time>
      </trkpt>
      <trkpt lat="45.43037" lon="3.421">
        <ele>648.8</ele>
        <time>2020-09-17T12:15:12Z</time>
      </trkpt>
      <trkpt lat="45.43037" lon="3.42101">
        <ele>648.8</ele>
        <time>2020-09-17T12:15:13Z</time>
      </trkpt>
      <trkpt lat="45.43036" lon="3.42102">
        <ele>648.9</ele>
        <time>2020-09-17T12:15:14Z</time>
      </trkpt>
      <trkpt lat="45.43035" lon="3.42103">
        <ele>648.9</ele>
        <time>2020-09-17T12:15:15Z</time>
      </trkpt>
      <trkpt lat="45.43035" lon="3.42104">
        <ele>649</ele>
        <time>2020-09-17T12:15:16Z</time>
      </trkpt>
      <trkpt lat="45.43034" lon="3.42106">
        <ele>648.9</ele>
        <time>2020-09-17T12:15:17Z</time>
      </trkpt>
      <trkpt lat="45.43034" lon="3.42107">
        <ele>648.9</ele>
        <time>2020-09-17T12:15:18Z</time>
      </trkpt>
      <trkpt lat="45.43033" lon="3.42108">
        <ele>648.9</ele>
        <time>2020-09-17T12:15:19Z</time>
      </trkpt>
      <trkpt lat="45.43033" lon="3.42109">
        <ele>648.8</ele>
        <time>2020-09-17T12:15:20Z</time>
      </trkpt>
      <trkpt lat="45.43032" lon="3.42111">
        <ele>648.8</ele>
        <time>2020-09-17T12:15:21Z</time>
      </trkpt>
      <trkpt lat="45.43032" lon="3.42112">
        <ele>648.8</ele>
        <time>2020-09-17T12:15:22Z</time>
      </trkpt>
      <trkpt lat="45.43032" lon="3.42112">
        <ele>648.7</ele>
        <time>2020-09-17T12:15:23Z</time>
      </trkpt>
      <trkpt lat="45.43032" lon="3.42113">
        <ele>648.8</ele>
        <time>2020-09-17T12:15:24Z</time>
      </trkpt>
      <trkpt lat="45.43032" lon="3.42113">
        <ele>648.7</ele>
        <time>2020-09-17T12:15:25Z</time>
      </trkpt>
      <trkpt lat="45.43032" lon="3.42113">
        <ele>648.7</ele>
        <time>2020-09-17T12:15:26Z</time>
      </trkpt>
      <trkpt lat="45.43032" lon="3.42113">
        <ele>648.7</ele>
        <time>2020-09-17T12:15:27Z</time>
      </trkpt>
      <trkpt lat="45.43032" lon="3.42113">
        <ele>648.7</ele>
        <time>2020-09-17T12:15:28Z</time>
      </trkpt>
      <trkpt lat="45.43031" lon="3.42113">
        <ele>648.7</ele>
        <time>2020-09-17T12:15:29Z</time>
      </trkpt>
      <trkpt lat="45.43031" lon="3.42113">
        <ele>648.7</ele>
        <time>2020-09-17T12:15:30Z</time>
      </trkpt>
      <trkpt lat="45.43032" lon="3.42114">
        <ele>648.7</ele>
        <time>2020-09-17T12:15:31Z</time>
      </trkpt>
      <trkpt lat="45.43032" lon="3.42114">
        <ele>648.7</ele>
        <time>2020-09-17T12:15:32Z</time>
      </trkpt>
      <trkpt lat="45.43032" lon="3.42114">
        <ele>648.7</ele>
        <time>2020-09-17T12:15:33Z</time>
      </trkpt>
      <trkpt lat="45.43032" lon="3.42114">
        <ele>648.7</ele>
        <time>2020-09-17T12:15:34Z</time>
      </trkpt>
      <trkpt lat="45.43032" lon="3.42114">
        <ele>648.5</ele>
        <time>2020-09-17T12:15:35Z</time>
      </trkpt>
      <trkpt lat="45.43032" lon="3.42114">
        <ele>648.5</ele>
        <time>2020-09-17T12:15:36Z</time>
      </trkpt>
      <trkpt lat="45.43032" lon="3.42114">
        <ele>648.5</ele>
        <time>2020-09-17T12:15:37Z</time>
      </trkpt>
      <trkpt lat="45.43032" lon="3.42115">
        <ele>648.6</ele>
        <time>2020-09-17T12:15:38Z</time>
      </trkpt>
      <trkpt lat="45.43032" lon="3.42115">
        <ele>648.5</ele>
        <time>2020-09-17T12:15:39Z</time>
      </trkpt>
      <trkpt lat="45.43031" lon="3.42116">
        <ele>648.5</ele>
        <time>2020-09-17T12:15:40Z</time>
      </trkpt>
      <trkpt lat="45.43031" lon="3.42116">
        <ele>648.5</ele>
        <time>2020-09-17T12:15:41Z</time>
      </trkpt>
      <trkpt lat="45.43031" lon="3.42117">
        <ele>648.5</ele>
        <time>2020-09-17T12:15:42Z</time>
      </trkpt>
      <trkpt lat="45.4303" lon="3.42118">
        <ele>648.5</ele>
        <time>2020-09-17T12:15:43Z</time>
      </trkpt>
      <trkpt lat="45.4303" lon="3.42119">
        <ele>648.6</ele>
        <time>2020-09-17T12:15:44Z</time>
      </trkpt>
      <trkpt lat="45.43029" lon="3.4212">
        <ele>648.6</ele>
        <time>2020-09-17T12:15:45Z</time>
      </trkpt>
      <trkpt lat="45.43028" lon="3.42121">
        <ele>648.8</ele>
        <time>2020-09-17T12:15:46Z</time>
      </trkpt>
      <trkpt lat="45.43028" lon="3.42122">
        <ele>648.8</ele>
        <time>2020-09-17T12:15:47Z</time>
      </trkpt>
      <trkpt lat="45.43027" lon="3.42123">
        <ele>648.9</ele>
        <time>2020-09-17T12:15:48Z</time>
      </trkpt>
      <trkpt lat="45.43026" lon="3.42124">
        <ele>649</ele>
        <time>2020-09-17T12:15:49Z</time>
      </trkpt>
      <trkpt lat="45.43026" lon="3.42125">
        <ele>649.1</ele>
        <time>2020-09-17T12:15:50Z</time>
      </trkpt>
      <trkpt lat="45.43025" lon="3.42126">
        <ele>649.2</ele>
        <time>2020-09-17T12:15:51Z</time>
      </trkpt>
      <trkpt lat="45.43024" lon="3.42127">
        <ele>649.3</ele>
        <time>2020-09-17T12:15:52Z</time>
      </trkpt>
      <trkpt lat="45.43023" lon="3.42128">
        <ele>649.3</ele>
        <time>2020-09-17T12:15:53Z</time>
      </trkpt>
      <trkpt lat="45.43023" lon="3.42129">
        <ele>649.5</ele>
        <time>2020-09-17T12:15:54Z</time>
      </trkpt>
      <trkpt lat="45.43022" lon="3.4213">
        <ele>649.5</ele>
        <time>2020-09-17T12:15:55Z</time>
      </trkpt>
      <trkpt lat="45.43021" lon="3.4213">
        <ele>649.6</ele>
        <time>2020-09-17T12:15:56Z</time>
      </trkpt>
      <trkpt lat="45.4302" lon="3.42131">
        <ele>649.7</ele>
        <time>2020-09-17T12:15:57Z</time>
      </trkpt>
      <trkpt lat="45.43019" lon="3.42132">
        <ele>649.8</ele>
        <time>2020-09-17T12:15:58Z</time>
      </trkpt>
      <trkpt lat="45.43019" lon="3.42133">
        <ele>649.9</ele>
        <time>2020-09-17T12:15:59Z</time>
      </trkpt>
      <trkpt lat="45.43018" lon="3.42134">
        <ele>650</ele>
        <time>2020-09-17T12:16:00Z</time>
      </trkpt>
      <trkpt lat="45.43017" lon="3.42135">
        <ele>650</ele>
        <time>2020-09-17T12:16:01Z</time>
      </trkpt>
      <trkpt lat="45.43016" lon="3.42136">
        <ele>650.1</ele>
        <time>2020-09-17T12:16:02Z</time>
      </trkpt>
      <trkpt lat="45.43015" lon="3.42136">
        <ele>650.1</ele>
        <time>2020-09-17T12:16:03Z</time>
      </trkpt>
      <trkpt lat="45.43014" lon="3.42137">
        <ele>650.2</ele>
        <time>2020-09-17T12:16:04Z</time>
      </trkpt>
      <trkpt lat="45.43014" lon="3.42138">
        <ele>650.3</ele>
        <time>2020-09-17T12:16:05Z</time>
      </trkpt>
      <trkpt lat="45.43013" lon="3.42138">
        <ele>650.4</ele>
        <time>2020-09-17T12:16:06Z</time>
      </trkpt>
      <trkpt lat="45.43012" lon="3.42139">
        <ele>650.4</ele>
        <time>2020-09-17T12:16:07Z</time>
      </trkpt>
      <trkpt lat="45.43011" lon="3.42139">
        <ele>650.5</ele>
        <time>2020-09-17T12:16:08Z</time>
      </trkpt>
      <trkpt lat="45.4301" lon="3.4214">
        <ele>650.6</ele>
        <time>2020-09-17T12:16:09Z</time>
      </trkpt>
      <trkpt lat="45.43009" lon="3.42141">
        <ele>650.6</ele>
        <time>2020-09-17T12:16:10Z</time>
      </trkpt>
      <trkpt lat="45.43008" lon="3.42142">
        <ele>650.7</ele>
        <time>2020-09-17T12:16:11Z</time>
      </trkpt>
      <trkpt lat="45.43007" lon="3.42142">
        <ele>650.8</ele>
        <time>2020-09-17T12:16:12Z</time>
      </trkpt>
      <trkpt lat="45.43007" lon="3.42143">
        <ele>650.8</ele>
        <time>2020-09-17T12:16:13Z</time>
      </trkpt>
      <trkpt lat="45.43006" lon="3.42144">
        <ele>650.9</ele>
        <time>2020-09-17T12:16:14Z</time>
      </trkpt>
      <trkpt lat="45.43005" lon="3.42145">
        <ele>650.9</ele>
        <time>2020-09-17T12:16:15Z</time>
      </trkpt>
      <trkpt lat="45.43004" lon="3.42146">
        <ele>650.9</ele>
        <time>2020-09-17T12:16:16Z</time>
      </trkpt>
      <trkpt lat="45.43003" lon="3.42146">
        <ele>651</ele>
        <time>2020-09-17T12:16:17Z</time>
      </trkpt>
      <trkpt lat="45.43002" lon="3.42147">
        <ele>651.1</ele>
        <time>2020-09-17T12:16:18Z</time>
      </trkpt>
      <trkpt lat="45.43001" lon="3.42147">
        <ele>651.2</ele>
        <time>2020-09-17T12:16:19Z</time>
      </trkpt>
      <trkpt lat="45.43" lon="3.42148">
        <ele>651.3</ele>
        <time>2020-09-17T12:16:20Z</time>
      </trkpt>
      <trkpt lat="45.42999" lon="3.42149">
        <ele>651.4</ele>
        <time>2020-09-17T12:16:21Z</time>
      </trkpt>
      <trkpt lat="45.42999" lon="3.42149">
        <ele>651.5</ele>
        <time>2020-09-17T12:16:22Z</time>
      </trkpt>
      <trkpt lat="45.42998" lon="3.4215">
        <ele>651.5</ele>
        <time>2020-09-17T12:16:23Z</time>
      </trkpt>
      <trkpt lat="45.42997" lon="3.42151">
        <ele>651.6</ele>
        <time>2020-09-17T12:16:24Z</time>
      </trkpt>
      <trkpt lat="45.42996" lon="3.42152">
        <ele>651.7</ele>
        <time>2020-09-17T12:16:25Z</time>
      </trkpt>
      <trkpt lat="45.42995" lon="3.42152">
        <ele>651.8</ele>
        <time>2020-09-17T12:16:26Z</time>
      </trkpt>
      <trkpt lat="45.42994" lon="3.42152">
        <ele>652</ele>
        <time>2020-09-17T12:16:27Z</time>
      </trkpt>
      <trkpt lat="45.42993" lon="3.42153">
        <ele>652</ele>
        <time>2020-09-17T12:16:28Z</time>
      </trkpt>
      <trkpt lat="45.42993" lon="3.42153">
        <ele>652.2</ele>
        <time>2020-09-17T12:16:29Z</time>
      </trkpt>
      <trkpt lat="45.42992" lon="3.42154">
        <ele>652.3</ele>
        <time>2020-09-17T12:16:30Z</time>
      </trkpt>
      <trkpt lat="45.42991" lon="3.42154">
        <ele>652.3</ele>
        <time>2020-09-17T12:16:31Z</time>
      </trkpt>
      <trkpt lat="45.4299" lon="3.42155">
        <ele>652.4</ele>
        <time>2020-09-17T12:16:32Z</time>
      </trkpt>
      <trkpt lat="45.42989" lon="3.42156">
        <ele>652.4</ele>
        <time>2020-09-17T12:16:33Z</time>
      </trkpt>
      <trkpt lat="45.42988" lon="3.42156">
        <ele>652.6</ele>
        <time>2020-09-17T12:16:34Z</time>
      </trkpt>
      <trkpt lat="45.42988" lon="3.42157">
        <ele>652.7</ele>
        <time>2020-09-17T12:16:35Z</time>
      </trkpt>
      <trkpt lat="45.42987" lon="3.42157">
        <ele>652.8</ele>
        <time>2020-09-17T12:16:36Z</time>
      </trkpt>
      <trkpt lat="45.42986" lon="3.42158">
        <ele>652.8</ele>
        <time>2020-09-17T12:16:37Z</time>
      </trkpt>
      <trkpt lat="45.42985" lon="3.42158">
        <ele>653</ele>
        <time>2020-09-17T12:16:38Z</time>
      </trkpt>
      <trkpt lat="45.42984" lon="3.42159">
        <ele>653.1</ele>
        <time>2020-09-17T12:16:39Z</time>
      </trkpt>
      <trkpt lat="45.42983" lon="3.42159">
        <ele>653.2</ele>
        <time>2020-09-17T12:16:40Z</time>
      </trkpt>
      <trkpt lat="45.42982" lon="3.4216">
        <ele>653.3</ele>
        <time>2020-09-17T12:16:41Z</time>
      </trkpt>
      <trkpt lat="45.42981" lon="3.42161">
        <ele>653.4</ele>
        <time>2020-09-17T12:16:42Z</time>
      </trkpt>
      <trkpt lat="45.4298" lon="3.42161">
        <ele>653.5</ele>
        <time>2020-09-17T12:16:43Z</time>
      </trkpt>
      <trkpt lat="45.42979" lon="3.42162">
        <ele>653.6</ele>
        <time>2020-09-17T12:16:44Z</time>
      </trkpt>
      <trkpt lat="45.42978" lon="3.42163">
        <ele>653.6</ele>
        <time>2020-09-17T12:16:45Z</time>
      </trkpt>
      <trkpt lat="45.42977" lon="3.42164">
        <ele>653.7</ele>
        <time>2020-09-17T12:16:46Z</time>
      </trkpt>
      <trkpt lat="45.42976" lon="3.42164">
        <ele>653.7</ele>
        <time>2020-09-17T12:16:47Z</time>
      </trkpt>
      <trkpt lat="45.42975" lon="3.42165">
        <ele>653.8</ele>
        <time>2020-09-17T12:16:48Z</time>
      </trkpt>
      <trkpt lat="45.42974" lon="3.42166">
        <ele>653.8</ele>
        <time>2020-09-17T12:16:49Z</time>
      </trkpt>
      <trkpt lat="45.42973" lon="3.42167">
        <ele>653.9</ele>
        <time>2020-09-17T12:16:50Z</time>
      </trkpt>
      <trkpt lat="45.42972" lon="3.42167">
        <ele>654</ele>
        <time>2020-09-17T12:16:51Z</time>
      </trkpt>
      <trkpt lat="45.42971" lon="3.42168">
        <ele>654.1</ele>
        <time>2020-09-17T12:16:52Z</time>
      </trkpt>
      <trkpt lat="45.4297" lon="3.42169">
        <ele>654.2</ele>
        <time>2020-09-17T12:16:53Z</time>
      </trkpt>
      <trkpt lat="45.42969" lon="3.42169">
        <ele>654.3</ele>
        <time>2020-09-17T12:16:54Z</time>
      </trkpt>
      <trkpt lat="45.42968" lon="3.4217">
        <ele>654.3</ele>
        <time>2020-09-17T12:16:55Z</time>
      </trkpt>
      <trkpt lat="45.42967" lon="3.42171">
        <ele>654.4</ele>
        <time>2020-09-17T12:16:56Z</time>
      </trkpt>
      <trkpt lat="45.42966" lon="3.42171">
        <ele>654.5</ele>
        <time>2020-09-17T12:16:57Z</time>
      </trkpt>
      <trkpt lat="45.42965" lon="3.42172">
        <ele>654.6</ele>
        <time>2020-09-17T12:16:58Z</time>
      </trkpt>
      <trkpt lat="45.42964" lon="3.42173">
        <ele>654.7</ele>
        <time>2020-09-17T12:16:59Z</time>
      </trkpt>
      <trkpt lat="45.42963" lon="3.42174">
        <ele>654.7</ele>
        <time>2020-09-17T12:17:00Z</time>
      </trkpt>
      <trkpt lat="45.42962" lon="3.42174">
        <ele>654.8</ele>
        <time>2020-09-17T12:17:01Z</time>
      </trkpt>
      <trkpt lat="45.42961" lon="3.42175">
        <ele>654.9</ele>
        <time>2020-09-17T12:17:02Z</time>
      </trkpt>
      <trkpt lat="45.4296" lon="3.42176">
        <ele>654.9</ele>
        <time>2020-09-17T12:17:03Z</time>
      </trkpt>
      <trkpt lat="45.42959" lon="3.42176">
        <ele>655</ele>
        <time>2020-09-17T12:17:04Z</time>
      </trkpt>
      <trkpt lat="45.42958" lon="3.42177">
        <ele>655.1</ele>
        <time>2020-09-17T12:17:05Z</time>
      </trkpt>
      <trkpt lat="45.42957" lon="3.42178">
        <ele>655.2</ele>
        <time>2020-09-17T12:17:06Z</time>
      </trkpt>
      <trkpt lat="45.42956" lon="3.42178">
        <ele>655.3</ele>
        <time>2020-09-17T12:17:07Z</time>
      </trkpt>
      <trkpt lat="45.42955" lon="3.42179">
        <ele>655.3</ele>
        <time>2020-09-17T12:17:08Z</time>
      </trkpt>
      <trkpt lat="45.42954" lon="3.4218">
        <ele>655.4</ele>
        <time>2020-09-17T12:17:09Z</time>
      </trkpt>
      <trkpt lat="45.42953" lon="3.4218">
        <ele>655.5</ele>
        <time>2020-09-17T12:17:10Z</time>
      </trkpt>
      <trkpt lat="45.42952" lon="3.42181">
        <ele>655.6</ele>
        <time>2020-09-17T12:17:11Z</time>
      </trkpt>
      <trkpt lat="45.42951" lon="3.42182">
        <ele>655.7</ele>
        <time>2020-09-17T12:17:12Z</time>
      </trkpt>
      <trkpt lat="45.42951" lon="3.42182">
        <ele>655.7</ele>
        <time>2020-09-17T12:17:13Z</time>
      </trkpt>
      <trkpt lat="45.4295" lon="3.42183">
        <ele>655.8</ele>
        <time>2020-09-17T12:17:14Z</time>
      </trkpt>
      <trkpt lat="45.4295" lon="3.42183">
        <ele>655.9</ele>
        <time>2020-09-17T12:17:15Z</time>
      </trkpt>
      <trkpt lat="45.42949" lon="3.42183">
        <ele>656</ele>
        <time>2020-09-17T12:17:16Z</time>
      </trkpt>
      <trkpt lat="45.42948" lon="3.42183">
        <ele>656.1</ele>
        <time>2020-09-17T12:17:17Z</time>
      </trkpt>
      <trkpt lat="45.42948" lon="3.42184">
        <ele>656.2</ele>
        <time>2020-09-17T12:17:18Z</time>
      </trkpt>
      <trkpt lat="45.42947" lon="3.42184">
        <ele>656.3</ele>
        <time>2020-09-17T12:17:19Z</time>
      </trkpt>
      <trkpt lat="45.42947" lon="3.42185">
        <ele>656.3</ele>
        <time>2020-09-17T12:17:20Z</time>
      </trkpt>
      <trkpt lat="45.42946" lon="3.42185">
        <ele>656.4</ele>
        <time>2020-09-17T12:17:21Z</time>
      </trkpt>
      <trkpt lat="45.42946" lon="3.42185">
        <ele>656.4</ele>
        <time>2020-09-17T12:17:22Z</time>
      </trkpt>
      <trkpt lat="45.42946" lon="3.42185">
        <ele>656.4</ele>
        <time>2020-09-17T12:17:23Z</time>
      </trkpt>
      <trkpt lat="45.42946" lon="3.42185">
        <ele>656.4</ele>
        <time>2020-09-17T12:17:24Z</time>
      </trkpt>
      <trkpt lat="45.42946" lon="3.42185">
        <ele>656.4</ele>
        <time>2020-09-17T12:17:25Z</time>
      </trkpt>
      <trkpt lat="45.42946" lon="3.42185">
        <ele>656.4</ele>
        <time>2020-09-17T12:17:26Z</time>
      </trkpt>
      <trkpt lat="45.42946" lon="3.42185">
        <ele>656.4</ele>
        <time>2020-09-17T12:17:27Z</time>
      </trkpt>
      <trkpt lat="45.42946" lon="3.42185">
        <ele>656.4</ele>
        <time>2020-09-17T12:17:28Z</time>
      </trkpt>
      <trkpt lat="45.42945" lon="3.42186">
        <ele>656.4</ele>
        <time>2020-09-17T12:17:29Z</time>
      </trkpt>
      <trkpt lat="45.42945" lon="3.42186">
        <ele>656.4</ele>
        <time>2020-09-17T12:17:30Z</time>
      </trkpt>
      <trkpt lat="45.42945" lon="3.42186">
        <ele>656.4</ele>
        <time>2020-09-17T12:17:31Z</time>
      </trkpt>
      <trkpt lat="45.42945" lon="3.42187">
        <ele>656.4</ele>
        <time>2020-09-17T12:17:32Z</time>
      </trkpt>
      <trkpt lat="45.42944" lon="3.42187">
        <ele>656.4</ele>
        <time>2020-09-17T12:17:33Z</time>
      </trkpt>
      <trkpt lat="45.42943" lon="3.42188">
        <ele>656.5</ele>
        <time>2020-09-17T12:17:34Z</time>
      </trkpt>
      <trkpt lat="45.42943" lon="3.42188">
        <ele>656.6</ele>
        <time>2020-09-17T12:17:35Z</time>
      </trkpt>
      <trkpt lat="45.42942" lon="3.42189">
        <ele>656.7</ele>
        <time>2020-09-17T12:17:36Z</time>
      </trkpt>
      <trkpt lat="45.42941" lon="3.42189">
        <ele>656.8</ele>
        <time>2020-09-17T12:17:37Z</time>
      </trkpt>
      <trkpt lat="45.42941" lon="3.4219">
        <ele>656.8</ele>
        <time>2020-09-17T12:17:38Z</time>
      </trkpt>
      <trkpt lat="45.4294" lon="3.4219">
        <ele>656.9</ele>
        <time>2020-09-17T12:17:39Z</time>
      </trkpt>
      <trkpt lat="45.42939" lon="3.42191">
        <ele>657.1</ele>
        <time>2020-09-17T12:17:40Z</time>
      </trkpt>
      <trkpt lat="45.42938" lon="3.42191">
        <ele>657.2</ele>
        <time>2020-09-17T12:17:41Z</time>
      </trkpt>
      <trkpt lat="45.42937" lon="3.42192">
        <ele>657.2</ele>
        <time>2020-09-17T12:17:42Z</time>
      </trkpt>
      <trkpt lat="45.42937" lon="3.42192">
        <ele>657.4</ele>
        <time>2020-09-17T12:17:43Z</time>
      </trkpt>
      <trkpt lat="45.42936" lon="3.42193">
        <ele>657.5</ele>
        <time>2020-09-17T12:17:44Z</time>
      </trkpt>
      <trkpt lat="45.42935" lon="3.42193">
        <ele>657.6</ele>
        <time>2020-09-17T12:17:45Z</time>
      </trkpt>
      <trkpt lat="45.42934" lon="3.42194">
        <ele>657.8</ele>
        <time>2020-09-17T12:17:46Z</time>
      </trkpt>
      <trkpt lat="45.42933" lon="3.42194">
        <ele>657.9</ele>
        <time>2020-09-17T12:17:47Z</time>
      </trkpt>
      <trkpt lat="45.42932" lon="3.42194">
        <ele>658.1</ele>
        <time>2020-09-17T12:17:48Z</time>
      </trkpt>
      <trkpt lat="45.42932" lon="3.42195">
        <ele>658.1</ele>
        <time>2020-09-17T12:17:49Z</time>
      </trkpt>
      <trkpt lat="45.42931" lon="3.42195">
        <ele>658.3</ele>
        <time>2020-09-17T12:17:50Z</time>
      </trkpt>
      <trkpt lat="45.4293" lon="3.42196">
        <ele>658.5</ele>
        <time>2020-09-17T12:17:51Z</time>
      </trkpt>
      <trkpt lat="45.42929" lon="3.42196">
        <ele>658.6</ele>
        <time>2020-09-17T12:17:52Z</time>
      </trkpt>
      <trkpt lat="45.42928" lon="3.42197">
        <ele>658.8</ele>
        <time>2020-09-17T12:17:53Z</time>
      </trkpt>
      <trkpt lat="45.42927" lon="3.42197">
        <ele>658.9</ele>
        <time>2020-09-17T12:17:54Z</time>
      </trkpt>
      <trkpt lat="45.42926" lon="3.42197">
        <ele>659.1</ele>
        <time>2020-09-17T12:17:55Z</time>
      </trkpt>
      <trkpt lat="45.42925" lon="3.42198">
        <ele>659.3</ele>
        <time>2020-09-17T12:17:56Z</time>
      </trkpt>
      <trkpt lat="45.42925" lon="3.42198">
        <ele>659.4</ele>
        <time>2020-09-17T12:17:57Z</time>
      </trkpt>
      <trkpt lat="45.42924" lon="3.42198">
        <ele>659.6</ele>
        <time>2020-09-17T12:17:58Z</time>
      </trkpt>
      <trkpt lat="45.42923" lon="3.42199">
        <ele>659.8</ele>
        <time>2020-09-17T12:17:59Z</time>
      </trkpt>
      <trkpt lat="45.42922" lon="3.42199">
        <ele>659.9</ele>
        <time>2020-09-17T12:18:00Z</time>
      </trkpt>
      <trkpt lat="45.42922" lon="3.42199">
        <ele>660</ele>
        <time>2020-09-17T12:18:01Z</time>
      </trkpt>
      <trkpt lat="45.42921" lon="3.422">
        <ele>660.2</ele>
        <time>2020-09-17T12:18:02Z</time>
      </trkpt>
      <trkpt lat="45.4292" lon="3.422">
        <ele>660.4</ele>
        <time>2020-09-17T12:18:03Z</time>
      </trkpt>
      <trkpt lat="45.42919" lon="3.422">
        <ele>660.6</ele>
        <time>2020-09-17T12:18:04Z</time>
      </trkpt>
      <trkpt lat="45.42918" lon="3.422">
        <ele>660.8</ele>
        <time>2020-09-17T12:18:05Z</time>
      </trkpt>
      <trkpt lat="45.42917" lon="3.42201">
        <ele>660.9</ele>
        <time>2020-09-17T12:18:06Z</time>
      </trkpt>
      <trkpt lat="45.42917" lon="3.42201">
        <ele>661.1</ele>
        <time>2020-09-17T12:18:07Z</time>
      </trkpt>
      <trkpt lat="45.42916" lon="3.42201">
        <ele>661.2</ele>
        <time>2020-09-17T12:18:08Z</time>
      </trkpt>
      <trkpt lat="45.42915" lon="3.42202">
        <ele>661.3</ele>
        <time>2020-09-17T12:18:09Z</time>
      </trkpt>
      <trkpt lat="45.42914" lon="3.42202">
        <ele>661.4</ele>
        <time>2020-09-17T12:18:10Z</time>
      </trkpt>
      <trkpt lat="45.42913" lon="3.42202">
        <ele>661.5</ele>
        <time>2020-09-17T12:18:11Z</time>
      </trkpt>
      <trkpt lat="45.42912" lon="3.42203">
        <ele>661.6</ele>
        <time>2020-09-17T12:18:12Z</time>
      </trkpt>
      <trkpt lat="45.42911" lon="3.42203">
        <ele>661.7</ele>
        <time>2020-09-17T12:18:13Z</time>
      </trkpt>
      <trkpt lat="45.4291" lon="3.42203">
        <ele>661.8</ele>
        <time>2020-09-17T12:18:14Z</time>
      </trkpt>
      <trkpt lat="45.42909" lon="3.42203">
        <ele>661.9</ele>
        <time>2020-09-17T12:18:15Z</time>
      </trkpt>
      <trkpt lat="45.42908" lon="3.42203">
        <ele>662.1</ele>
        <time>2020-09-17T12:18:16Z</time>
      </trkpt>
      <trkpt lat="45.42908" lon="3.42203">
        <ele>662.2</ele>
        <time>2020-09-17T12:18:17Z</time>
      </trkpt>
      <trkpt lat="45.42907" lon="3.42203">
        <ele>662.3</ele>
        <time>2020-09-17T12:18:18Z</time>
      </trkpt>
      <trkpt lat="45.42906" lon="3.42203">
        <ele>662.4</ele>
        <time>2020-09-17T12:18:19Z</time>
      </trkpt>
      <trkpt lat="45.42905" lon="3.42203">
        <ele>662.5</ele>
        <time>2020-09-17T12:18:20Z</time>
      </trkpt>
      <trkpt lat="45.42904" lon="3.42203">
        <ele>662.6</ele>
        <time>2020-09-17T12:18:21Z</time>
      </trkpt>
      <trkpt lat="45.42904" lon="3.42204">
        <ele>662.7</ele>
        <time>2020-09-17T12:18:22Z</time>
      </trkpt>
      <trkpt lat="45.42903" lon="3.42204">
        <ele>662.8</ele>
        <time>2020-09-17T12:18:23Z</time>
      </trkpt>
      <trkpt lat="45.42902" lon="3.42204">
        <ele>662.9</ele>
        <time>2020-09-17T12:18:24Z</time>
      </trkpt>
      <trkpt lat="45.42901" lon="3.42204">
        <ele>663</ele>
        <time>2020-09-17T12:18:25Z</time>
      </trkpt>
      <trkpt lat="45.42901" lon="3.42204">
        <ele>663.2</ele>
        <time>2020-09-17T12:18:26Z</time>
      </trkpt>
      <trkpt lat="45.429" lon="3.42204">
        <ele>663.3</ele>
        <time>2020-09-17T12:18:27Z</time>
      </trkpt>
      <trkpt lat="45.42899" lon="3.42204">
        <ele>663.4</ele>
        <time>2020-09-17T12:18:28Z</time>
      </trkpt>
      <trkpt lat="45.42898" lon="3.42204">
        <ele>663.5</ele>
        <time>2020-09-17T12:18:29Z</time>
      </trkpt>
      <trkpt lat="45.42897" lon="3.42204">
        <ele>663.7</ele>
        <time>2020-09-17T12:18:30Z</time>
      </trkpt>
      <trkpt lat="45.42897" lon="3.42204">
        <ele>663.8</ele>
        <time>2020-09-17T12:18:31Z</time>
      </trkpt>
      <trkpt lat="45.42896" lon="3.42203">
        <ele>664</ele>
        <time>2020-09-17T12:18:32Z</time>
      </trkpt>
      <trkpt lat="45.42895" lon="3.42203">
        <ele>664.2</ele>
        <time>2020-09-17T12:18:33Z</time>
      </trkpt>
      <trkpt lat="45.42894" lon="3.42203">
        <ele>664.3</ele>
        <time>2020-09-17T12:18:34Z</time>
      </trkpt>
      <trkpt lat="45.42894" lon="3.42203">
        <ele>664.4</ele>
        <time>2020-09-17T12:18:35Z</time>
      </trkpt>
      <trkpt lat="45.42893" lon="3.42203">
        <ele>664.5</ele>
        <time>2020-09-17T12:18:36Z</time>
      </trkpt>
      <trkpt lat="45.42892" lon="3.42202">
        <ele>664.7</ele>
        <time>2020-09-17T12:18:37Z</time>
      </trkpt>
      <trkpt lat="45.42891" lon="3.42202">
        <ele>664.9</ele>
        <time>2020-09-17T12:18:38Z</time>
      </trkpt>
      <trkpt lat="45.4289" lon="3.42202">
        <ele>665</ele>
        <time>2020-09-17T12:18:39Z</time>
      </trkpt>
      <trkpt lat="45.4289" lon="3.42201">
        <ele>665.2</ele>
        <time>2020-09-17T12:18:40Z</time>
      </trkpt>
      <trkpt lat="45.42889" lon="3.42201">
        <ele>665.3</ele>
        <time>2020-09-17T12:18:41Z</time>
      </trkpt>
      <trkpt lat="45.42888" lon="3.42201">
        <ele>665.5</ele>
        <time>2020-09-17T12:18:42Z</time>
      </trkpt>
      <trkpt lat="45.42887" lon="3.422">
        <ele>665.6</ele>
        <time>2020-09-17T12:18:43Z</time>
      </trkpt>
      <trkpt lat="45.42886" lon="3.422">
        <ele>665.7</ele>
        <time>2020-09-17T12:18:44Z</time>
      </trkpt>
      <trkpt lat="45.42886" lon="3.42199">
        <ele>665.9</ele>
        <time>2020-09-17T12:18:45Z</time>
      </trkpt>
      <trkpt lat="45.42885" lon="3.42199">
        <ele>666</ele>
        <time>2020-09-17T12:18:46Z</time>
      </trkpt>
      <trkpt lat="45.42884" lon="3.42198">
        <ele>666.1</ele>
        <time>2020-09-17T12:18:47Z</time>
      </trkpt>
      <trkpt lat="45.42883" lon="3.42197">
        <ele>666.3</ele>
        <time>2020-09-17T12:18:48Z</time>
      </trkpt>
      <trkpt lat="45.42883" lon="3.42197">
        <ele>666.4</ele>
        <time>2020-09-17T12:18:49Z</time>
      </trkpt>
      <trkpt lat="45.42882" lon="3.42196">
        <ele>666.6</ele>
        <time>2020-09-17T12:18:50Z</time>
      </trkpt>
      <trkpt lat="45.42881" lon="3.42196">
        <ele>666.7</ele>
        <time>2020-09-17T12:18:51Z</time>
      </trkpt>
      <trkpt lat="45.4288" lon="3.42195">
        <ele>666.9</ele>
        <time>2020-09-17T12:18:52Z</time>
      </trkpt>
      <trkpt lat="45.4288" lon="3.42194">
        <ele>667</ele>
        <time>2020-09-17T12:18:53Z</time>
      </trkpt>
      <trkpt lat="45.42879" lon="3.42194">
        <ele>667.2</ele>
        <time>2020-09-17T12:18:54Z</time>
      </trkpt>
      <trkpt lat="45.42878" lon="3.42193">
        <ele>667.3</ele>
        <time>2020-09-17T12:18:55Z</time>
      </trkpt>
      <trkpt lat="45.42878" lon="3.42192">
        <ele>667.5</ele>
        <time>2020-09-17T12:18:56Z</time>
      </trkpt>
      <trkpt lat="45.42877" lon="3.42192">
        <ele>667.7</ele>
        <time>2020-09-17T12:18:57Z</time>
      </trkpt>
      <trkpt lat="45.42876" lon="3.42191">
        <ele>667.8</ele>
        <time>2020-09-17T12:18:58Z</time>
      </trkpt>
      <trkpt lat="45.42876" lon="3.42191">
        <ele>667.9</ele>
        <time>2020-09-17T12:18:59Z</time>
      </trkpt>
      <trkpt lat="45.42875" lon="3.4219">
        <ele>668.1</ele>
        <time>2020-09-17T12:19:00Z</time>
      </trkpt>
      <trkpt lat="45.42874" lon="3.42189">
        <ele>668.2</ele>
        <time>2020-09-17T12:19:01Z</time>
      </trkpt>
      <trkpt lat="45.42874" lon="3.42189">
        <ele>668.4</ele>
        <time>2020-09-17T12:19:02Z</time>
      </trkpt>
      <trkpt lat="45.42873" lon="3.42188">
        <ele>668.5</ele>
        <time>2020-09-17T12:19:03Z</time>
      </trkpt>
      <trkpt lat="45.42872" lon="3.42188">
        <ele>668.7</ele>
        <time>2020-09-17T12:19:04Z</time>
      </trkpt>
      <trkpt lat="45.42872" lon="3.42187">
        <ele>668.8</ele>
        <time>2020-09-17T12:19:05Z</time>
      </trkpt>
      <trkpt lat="45.42871" lon="3.42186">
        <ele>669</ele>
        <time>2020-09-17T12:19:06Z</time>
      </trkpt>
      <trkpt lat="45.4287" lon="3.42186">
        <ele>669.1</ele>
        <time>2020-09-17T12:19:07Z</time>
      </trkpt>
      <trkpt lat="45.42869" lon="3.42185">
        <ele>669.3</ele>
        <time>2020-09-17T12:19:08Z</time>
      </trkpt>
      <trkpt lat="45.42869" lon="3.42185">
        <ele>669.4</ele>
        <time>2020-09-17T12:19:09Z</time>
      </trkpt>
      <trkpt lat="45.42868" lon="3.42184">
        <ele>669.5</ele>
        <time>2020-09-17T12:19:10Z</time>
      </trkpt>
      <trkpt lat="45.42867" lon="3.42183">
        <ele>669.7</ele>
        <time>2020-09-17T12:19:11Z</time>
      </trkpt>
      <trkpt lat="45.42866" lon="3.42182">
        <ele>669.8</ele>
        <time>2020-09-17T12:19:12Z</time>
      </trkpt>
      <trkpt lat="45.42865" lon="3.42182">
        <ele>670</ele>
        <time>2020-09-17T12:19:13Z</time>
      </trkpt>
      <trkpt lat="45.42865" lon="3.42181">
        <ele>670.1</ele>
        <time>2020-09-17T12:19:14Z</time>
      </trkpt>
      <trkpt lat="45.42864" lon="3.42181">
        <ele>670.3</ele>
        <time>2020-09-17T12:19:15Z</time>
      </trkpt>
      <trkpt lat="45.42863" lon="3.4218">
        <ele>670.4</ele>
        <time>2020-09-17T12:19:16Z</time>
      </trkpt>
      <trkpt lat="45.42863" lon="3.42179">
        <ele>670.5</ele>
        <time>2020-09-17T12:19:17Z</time>
      </trkpt>
      <trkpt lat="45.42862" lon="3.42178">
        <ele>670.7</ele>
        <time>2020-09-17T12:19:18Z</time>
      </trkpt>
      <trkpt lat="45.42861" lon="3.42178">
        <ele>670.8</ele>
        <time>2020-09-17T12:19:19Z</time>
      </trkpt>
      <trkpt lat="45.42861" lon="3.42177">
        <ele>670.9</ele>
        <time>2020-09-17T12:19:20Z</time>
      </trkpt>
      <trkpt lat="45.4286" lon="3.42177">
        <ele>671</ele>
        <time>2020-09-17T12:19:21Z</time>
      </trkpt>
      <trkpt lat="45.42859" lon="3.42176">
        <ele>671.1</ele>
        <time>2020-09-17T12:19:22Z</time>
      </trkpt>
      <trkpt lat="45.42858" lon="3.42176">
        <ele>671.2</ele>
        <time>2020-09-17T12:19:23Z</time>
      </trkpt>
      <trkpt lat="45.42858" lon="3.42175">
        <ele>671.3</ele>
        <time>2020-09-17T12:19:24Z</time>
      </trkpt>
      <trkpt lat="45.42857" lon="3.42174">
        <ele>671.4</ele>
        <time>2020-09-17T12:19:25Z</time>
      </trkpt>
      <trkpt lat="45.42856" lon="3.42174">
        <ele>671.5</ele>
        <time>2020-09-17T12:19:26Z</time>
      </trkpt>
      <trkpt lat="45.42855" lon="3.42173">
        <ele>671.6</ele>
        <time>2020-09-17T12:19:27Z</time>
      </trkpt>
      <trkpt lat="45.42854" lon="3.42172">
        <ele>671.7</ele>
        <time>2020-09-17T12:19:28Z</time>
      </trkpt>
      <trkpt lat="45.42854" lon="3.42171">
        <ele>671.8</ele>
        <time>2020-09-17T12:19:29Z</time>
      </trkpt>
      <trkpt lat="45.42853" lon="3.42171">
        <ele>671.9</ele>
        <time>2020-09-17T12:19:30Z</time>
      </trkpt>
      <trkpt lat="45.42852" lon="3.4217">
        <ele>672</ele>
        <time>2020-09-17T12:19:31Z</time>
      </trkpt>
      <trkpt lat="45.42851" lon="3.4217">
        <ele>672.1</ele>
        <time>2020-09-17T12:19:32Z</time>
      </trkpt>
      <trkpt lat="45.4285" lon="3.4217">
        <ele>672.1</ele>
        <time>2020-09-17T12:19:33Z</time>
      </trkpt>
      <trkpt lat="45.42849" lon="3.42169">
        <ele>672.2</ele>
        <time>2020-09-17T12:19:34Z</time>
      </trkpt>
      <trkpt lat="45.42848" lon="3.42169">
        <ele>672.3</ele>
        <time>2020-09-17T12:19:35Z</time>
      </trkpt>
      <trkpt lat="45.42848" lon="3.42168">
        <ele>672.4</ele>
        <time>2020-09-17T12:19:36Z</time>
      </trkpt>
      <trkpt lat="45.42847" lon="3.42168">
        <ele>672.4</ele>
        <time>2020-09-17T12:19:37Z</time>
      </trkpt>
      <trkpt lat="45.42846" lon="3.42167">
        <ele>672.5</ele>
        <time>2020-09-17T12:19:38Z</time>
      </trkpt>
      <trkpt lat="45.42846" lon="3.42167">
        <ele>672.6</ele>
        <time>2020-09-17T12:19:39Z</time>
      </trkpt>
      <trkpt lat="45.42845" lon="3.42166">
        <ele>672.6</ele>
        <time>2020-09-17T12:19:40Z</time>
      </trkpt>
      <trkpt lat="45.42844" lon="3.42166">
        <ele>672.7</ele>
        <time>2020-09-17T12:19:41Z</time>
      </trkpt>
      <trkpt lat="45.42843" lon="3.42165">
        <ele>672.8</ele>
        <time>2020-09-17T12:19:42Z</time>
      </trkpt>
      <trkpt lat="45.42842" lon="3.42165">
        <ele>672.8</ele>
        <time>2020-09-17T12:19:43Z</time>
      </trkpt>
      <trkpt lat="45.42841" lon="3.42164">
        <ele>672.9</ele>
        <time>2020-09-17T12:19:44Z</time>
      </trkpt>
      <trkpt lat="45.42841" lon="3.42164">
        <ele>673</ele>
        <time>2020-09-17T12:19:45Z</time>
      </trkpt>
      <trkpt lat="45.4284" lon="3.42163">
        <ele>673.1</ele>
        <time>2020-09-17T12:19:46Z</time>
      </trkpt>
      <trkpt lat="45.42839" lon="3.42162">
        <ele>673.2</ele>
        <time>2020-09-17T12:19:47Z</time>
      </trkpt>
      <trkpt lat="45.42838" lon="3.42162">
        <ele>673.2</ele>
        <time>2020-09-17T12:19:48Z</time>
      </trkpt>
      <trkpt lat="45.42837" lon="3.42161">
        <ele>673.3</ele>
        <time>2020-09-17T12:19:49Z</time>
      </trkpt>
      <trkpt lat="45.42836" lon="3.4216">
        <ele>673.4</ele>
        <time>2020-09-17T12:19:50Z</time>
      </trkpt>
      <trkpt lat="45.42836" lon="3.4216">
        <ele>673.4</ele>
        <time>2020-09-17T12:19:51Z</time>
      </trkpt>
      <trkpt lat="45.42835" lon="3.42159">
        <ele>673.5</ele>
        <time>2020-09-17T12:19:52Z</time>
      </trkpt>
      <trkpt lat="45.42835" lon="3.42159">
        <ele>673.6</ele>
        <time>2020-09-17T12:19:53Z</time>
      </trkpt>
      <trkpt lat="45.42834" lon="3.42158">
        <ele>673.6</ele>
        <time>2020-09-17T12:19:54Z</time>
      </trkpt>
      <trkpt lat="45.42834" lon="3.42158">
        <ele>673.6</ele>
        <time>2020-09-17T12:19:55Z</time>
      </trkpt>
      <trkpt lat="45.42834" lon="3.42158">
        <ele>673.6</ele>
        <time>2020-09-17T12:19:56Z</time>
      </trkpt>
      <trkpt lat="45.42833" lon="3.42157">
        <ele>673.7</ele>
        <time>2020-09-17T12:19:57Z</time>
      </trkpt>
      <trkpt lat="45.42833" lon="3.42157">
        <ele>673.7</ele>
        <time>2020-09-17T12:19:58Z</time>
      </trkpt>
      <trkpt lat="45.42832" lon="3.42157">
        <ele>673.7</ele>
        <time>2020-09-17T12:19:59Z</time>
      </trkpt>
      <trkpt lat="45.42832" lon="3.42157">
        <ele>673.7</ele>
        <time>2020-09-17T12:20:00Z</time>
      </trkpt>
      <trkpt lat="45.42831" lon="3.42157">
        <ele>673.8</ele>
        <time>2020-09-17T12:20:01Z</time>
      </trkpt>
      <trkpt lat="45.42831" lon="3.42156">
        <ele>673.8</ele>
        <time>2020-09-17T12:20:02Z</time>
      </trkpt>
      <trkpt lat="45.4283" lon="3.42155">
        <ele>673.9</ele>
        <time>2020-09-17T12:20:03Z</time>
      </trkpt>
      <trkpt lat="45.4283" lon="3.42153">
        <ele>674</ele>
        <time>2020-09-17T12:20:04Z</time>
      </trkpt>
      <trkpt lat="45.4283" lon="3.42152">
        <ele>674.1</ele>
        <time>2020-09-17T12:20:05Z</time>
      </trkpt>
      <trkpt lat="45.4283" lon="3.42152">
        <ele>674.1</ele>
        <time>2020-09-17T12:20:06Z</time>
      </trkpt>
      <trkpt lat="45.4283" lon="3.42152">
        <ele>674.2</ele>
        <time>2020-09-17T12:20:07Z</time>
      </trkpt>
      <trkpt lat="45.4283" lon="3.42152">
        <ele>674.2</ele>
        <time>2020-09-17T12:20:08Z</time>
      </trkpt>
      <trkpt lat="45.4283" lon="3.42152">
        <ele>674.2</ele>
        <time>2020-09-17T12:20:09Z</time>
      </trkpt>
      <trkpt lat="45.4283" lon="3.42152">
        <ele>674.2</ele>
        <time>2020-09-17T12:20:10Z</time>
      </trkpt>
      <trkpt lat="45.4283" lon="3.42151">
        <ele>674.2</ele>
        <time>2020-09-17T12:20:11Z</time>
      </trkpt>
      <trkpt lat="45.4283" lon="3.42151">
        <ele>674.2</ele>
        <time>2020-09-17T12:20:12Z</time>
      </trkpt>
      <trkpt lat="45.4283" lon="3.42151">
        <ele>674.2</ele>
        <time>2020-09-17T12:20:13Z</time>
      </trkpt>
      <trkpt lat="45.4283" lon="3.42151">
        <ele>674.2</ele>
        <time>2020-09-17T12:20:14Z</time>
      </trkpt>
      <trkpt lat="45.4283" lon="3.42151">
        <ele>674.2</ele>
        <time>2020-09-17T12:20:15Z</time>
      </trkpt>
      <trkpt lat="45.4283" lon="3.42151">
        <ele>674.2</ele>
        <time>2020-09-17T12:20:16Z</time>
      </trkpt>
      <trkpt lat="45.4283" lon="3.42151">
        <ele>674.2</ele>
        <time>2020-09-17T12:20:17Z</time>
      </trkpt>
      <trkpt lat="45.4283" lon="3.42151">
        <ele>674.2</ele>
        <time>2020-09-17T12:20:18Z</time>
      </trkpt>
      <trkpt lat="45.42829" lon="3.42151">
        <ele>674.2</ele>
        <time>2020-09-17T12:20:19Z</time>
      </trkpt>
      <trkpt lat="45.42829" lon="3.42151">
        <ele>674.2</ele>
        <time>2020-09-17T12:20:20Z</time>
      </trkpt>
      <trkpt lat="45.42829" lon="3.42151">
        <ele>674.2</ele>
        <time>2020-09-17T12:20:21Z</time>
      </trkpt>
      <trkpt lat="45.42829" lon="3.42151">
        <ele>674.2</ele>
        <time>2020-09-17T12:20:22Z</time>
      </trkpt>
      <trkpt lat="45.42829" lon="3.42151">
        <ele>674.2</ele>
        <time>2020-09-17T12:20:23Z</time>
      </trkpt>
      <trkpt lat="45.42829" lon="3.42151">
        <ele>674.3</ele>
        <time>2020-09-17T12:20:24Z</time>
      </trkpt>
      <trkpt lat="45.42829" lon="3.4215">
        <ele>674.3</ele>
        <time>2020-09-17T12:20:25Z</time>
      </trkpt>
      <trkpt lat="45.42829" lon="3.42149">
        <ele>674.4</ele>
        <time>2020-09-17T12:20:26Z</time>
      </trkpt>
      <trkpt lat="45.42829" lon="3.42147">
        <ele>674.5</ele>
        <time>2020-09-17T12:20:27Z</time>
      </trkpt>
      <trkpt lat="45.42829" lon="3.42146">
        <ele>674.6</ele>
        <time>2020-09-17T12:20:28Z</time>
      </trkpt>
      <trkpt lat="45.42829" lon="3.42145">
        <ele>674.7</ele>
        <time>2020-09-17T12:20:29Z</time>
      </trkpt>
      <trkpt lat="45.42828" lon="3.42143">
        <ele>674.8</ele>
        <time>2020-09-17T12:20:30Z</time>
      </trkpt>
      <trkpt lat="45.42828" lon="3.42142">
        <ele>675</ele>
        <time>2020-09-17T12:20:31Z</time>
      </trkpt>
      <trkpt lat="45.42828" lon="3.42141">
        <ele>675.1</ele>
        <time>2020-09-17T12:20:32Z</time>
      </trkpt>
      <trkpt lat="45.42827" lon="3.42139">
        <ele>675.2</ele>
        <time>2020-09-17T12:20:33Z</time>
      </trkpt>
      <trkpt lat="45.42826" lon="3.42138">
        <ele>675.3</ele>
        <time>2020-09-17T12:20:34Z</time>
      </trkpt>
      <trkpt lat="45.42826" lon="3.42137">
        <ele>675.5</ele>
        <time>2020-09-17T12:20:35Z</time>
      </trkpt>
      <trkpt lat="45.42825" lon="3.42137">
        <ele>675.6</ele>
        <time>2020-09-17T12:20:36Z</time>
      </trkpt>
      <trkpt lat="45.42825" lon="3.42136">
        <ele>675.7</ele>
        <time>2020-09-17T12:20:37Z</time>
      </trkpt>
      <trkpt lat="45.42824" lon="3.42135">
        <ele>675.8</ele>
        <time>2020-09-17T12:20:38Z</time>
      </trkpt>
      <trkpt lat="45.42824" lon="3.42134">
        <ele>675.9</ele>
        <time>2020-09-17T12:20:39Z</time>
      </trkpt>
      <trkpt lat="45.42824" lon="3.42134">
        <ele>676</ele>
        <time>2020-09-17T12:20:40Z</time>
      </trkpt>
      <trkpt lat="45.42824" lon="3.42133">
        <ele>676.1</ele>
        <time>2020-09-17T12:20:41Z</time>
      </trkpt>
      <trkpt lat="45.42823" lon="3.42133">
        <ele>676.1</ele>
        <time>2020-09-17T12:20:42Z</time>
      </trkpt>
      <trkpt lat="45.42823" lon="3.42133">
        <ele>676.1</ele>
        <time>2020-09-17T12:20:43Z</time>
      </trkpt>
      <trkpt lat="45.42823" lon="3.42133">
        <ele>676.1</ele>
        <time>2020-09-17T12:20:44Z</time>
      </trkpt>
      <trkpt lat="45.42823" lon="3.42133">
        <ele>676.1</ele>
        <time>2020-09-17T12:20:45Z</time>
      </trkpt>
      <trkpt lat="45.42823" lon="3.42133">
        <ele>676.1</ele>
        <time>2020-09-17T12:20:46Z</time>
      </trkpt>
      <trkpt lat="45.42823" lon="3.42133">
        <ele>676.1</ele>
        <time>2020-09-17T12:20:47Z</time>
      </trkpt>
      <trkpt lat="45.42823" lon="3.42133">
        <ele>676.1</ele>
        <time>2020-09-17T12:20:48Z</time>
      </trkpt>
      <trkpt lat="45.42823" lon="3.42132">
        <ele>676.1</ele>
        <time>2020-09-17T12:20:49Z</time>
      </trkpt>
      <trkpt lat="45.42823" lon="3.42132">
        <ele>676.1</ele>
        <time>2020-09-17T12:20:50Z</time>
      </trkpt>
      <trkpt lat="45.42823" lon="3.42132">
        <ele>676.1</ele>
        <time>2020-09-17T12:20:51Z</time>
      </trkpt>
      <trkpt lat="45.42823" lon="3.42132">
        <ele>676.2</ele>
        <time>2020-09-17T12:20:52Z</time>
      </trkpt>
      <trkpt lat="45.42823" lon="3.42132">
        <ele>676.2</ele>
        <time>2020-09-17T12:20:53Z</time>
      </trkpt>
      <trkpt lat="45.42823" lon="3.42132">
        <ele>676.2</ele>
        <time>2020-09-17T12:20:54Z</time>
      </trkpt>
      <trkpt lat="45.42823" lon="3.42132">
        <ele>676.2</ele>
        <time>2020-09-17T12:20:55Z</time>
      </trkpt>
      <trkpt lat="45.42823" lon="3.42132">
        <ele>676.2</ele>
        <time>2020-09-17T12:20:56Z</time>
      </trkpt>
      <trkpt lat="45.42823" lon="3.42132">
        <ele>676.2</ele>
        <time>2020-09-17T12:20:57Z</time>
      </trkpt>
      <trkpt lat="45.42823" lon="3.42132">
        <ele>676.2</ele>
        <time>2020-09-17T12:20:58Z</time>
      </trkpt>
      <trkpt lat="45.42823" lon="3.42132">
        <ele>676.2</ele>
        <time>2020-09-17T12:20:59Z</time>
      </trkpt>
      <trkpt lat="45.42823" lon="3.42132">
        <ele>676.2</ele>
        <time>2020-09-17T12:21:00Z</time>
      </trkpt>
      <trkpt lat="45.42823" lon="3.42132">
        <ele>676.2</ele>
        <time>2020-09-17T12:21:01Z</time>
      </trkpt>
      <trkpt lat="45.42823" lon="3.42132">
        <ele>676.2</ele>
        <time>2020-09-17T12:21:02Z</time>
      </trkpt>
      <trkpt lat="45.42823" lon="3.42132">
        <ele>676.2</ele>
        <time>2020-09-17T12:21:03Z</time>
      </trkpt>
      <trkpt lat="45.42823" lon="3.42132">
        <ele>676.2</ele>
        <time>2020-09-17T12:21:04Z</time>
      </trkpt>
      <trkpt lat="45.42822" lon="3.42132">
        <ele>676.2</ele>
        <time>2020-09-17T12:21:05Z</time>
      </trkpt>
      <trkpt lat="45.42822" lon="3.42132">
        <ele>676.2</ele>
        <time>2020-09-17T12:21:06Z</time>
      </trkpt>
      <trkpt lat="45.42822" lon="3.42132">
        <ele>676.2</ele>
        <time>2020-09-17T12:21:07Z</time>
      </trkpt>
      <trkpt lat="45.42822" lon="3.42132">
        <ele>676.2</ele>
        <time>2020-09-17T12:21:08Z</time>
      </trkpt>
      <trkpt lat="45.42821" lon="3.42132">
        <ele>676.3</ele>
        <time>2020-09-17T12:21:09Z</time>
      </trkpt>
      <trkpt lat="45.42821" lon="3.42131">
        <ele>676.3</ele>
        <time>2020-09-17T12:21:10Z</time>
      </trkpt>
      <trkpt lat="45.42821" lon="3.42131">
        <ele>676.4</ele>
        <time>2020-09-17T12:21:11Z</time>
      </trkpt>
      <trkpt lat="45.42821" lon="3.4213">
        <ele>676.4</ele>
        <time>2020-09-17T12:21:12Z</time>
      </trkpt>
      <trkpt lat="45.42821" lon="3.4213">
        <ele>676.4</ele>
        <time>2020-09-17T12:21:13Z</time>
      </trkpt>
      <trkpt lat="45.42821" lon="3.4213">
        <ele>676.4</ele>
        <time>2020-09-17T12:21:14Z</time>
      </trkpt>
      <trkpt lat="45.42821" lon="3.4213">
        <ele>676.4</ele>
        <time>2020-09-17T12:21:15Z</time>
      </trkpt>
      <trkpt lat="45.4282" lon="3.4213">
        <ele>676.5</ele>
        <time>2020-09-17T12:21:16Z</time>
      </trkpt>
      <trkpt lat="45.4282" lon="3.4213">
        <ele>676.4</ele>
        <time>2020-09-17T12:21:17Z</time>
      </trkpt>
      <trkpt lat="45.42819" lon="3.4213">
        <ele>676.4</ele>
        <time>2020-09-17T12:21:18Z</time>
      </trkpt>
      <trkpt lat="45.42818" lon="3.4213">
        <ele>676.5</ele>
        <time>2020-09-17T12:21:19Z</time>
      </trkpt>
      <trkpt lat="45.42818" lon="3.4213">
        <ele>676.5</ele>
        <time>2020-09-17T12:21:20Z</time>
      </trkpt>
      <trkpt lat="45.42817" lon="3.4213">
        <ele>676.5</ele>
        <time>2020-09-17T12:21:21Z</time>
      </trkpt>
      <trkpt lat="45.42817" lon="3.4213">
        <ele>676.5</ele>
        <time>2020-09-17T12:21:22Z</time>
      </trkpt>
      <trkpt lat="45.42817" lon="3.4213">
        <ele>676.5</ele>
        <time>2020-09-17T12:21:23Z</time>
      </trkpt>
      <trkpt lat="45.42817" lon="3.4213">
        <ele>676.5</ele>
        <time>2020-09-17T12:21:24Z</time>
      </trkpt>
      <trkpt lat="45.42817" lon="3.4213">
        <ele>676.5</ele>
        <time>2020-09-17T12:21:25Z</time>
      </trkpt>
      <trkpt lat="45.42817" lon="3.4213">
        <ele>676.5</ele>
        <time>2020-09-17T12:21:26Z</time>
      </trkpt>
      <trkpt lat="45.42816" lon="3.42131">
        <ele>676.5</ele>
        <time>2020-09-17T12:21:27Z</time>
      </trkpt>
      <trkpt lat="45.42816" lon="3.42131">
        <ele>676.4</ele>
        <time>2020-09-17T12:21:28Z</time>
      </trkpt>
      <trkpt lat="45.42815" lon="3.42131">
        <ele>676.5</ele>
        <time>2020-09-17T12:21:29Z</time>
      </trkpt>
      <trkpt lat="45.42814" lon="3.4213">
        <ele>676.5</ele>
        <time>2020-09-17T12:21:30Z</time>
      </trkpt>
      <trkpt lat="45.42813" lon="3.4213">
        <ele>676.6</ele>
        <time>2020-09-17T12:21:31Z</time>
      </trkpt>
      <trkpt lat="45.42812" lon="3.42129">
        <ele>676.6</ele>
        <time>2020-09-17T12:21:32Z</time>
      </trkpt>
      <trkpt lat="45.42811" lon="3.42129">
        <ele>676.7</ele>
        <time>2020-09-17T12:21:33Z</time>
      </trkpt>
      <trkpt lat="45.4281" lon="3.42128">
        <ele>676.8</ele>
        <time>2020-09-17T12:21:34Z</time>
      </trkpt>
      <trkpt lat="45.42809" lon="3.42128">
        <ele>676.8</ele>
        <time>2020-09-17T12:21:35Z</time>
      </trkpt>
      <trkpt lat="45.42808" lon="3.42127">
        <ele>676.9</ele>
        <time>2020-09-17T12:21:36Z</time>
      </trkpt>
      <trkpt lat="45.42807" lon="3.42126">
        <ele>676.9</ele>
        <time>2020-09-17T12:21:37Z</time>
      </trkpt>
      <trkpt lat="45.42806" lon="3.42126">
        <ele>677</ele>
        <time>2020-09-17T12:21:38Z</time>
      </trkpt>
      <trkpt lat="45.42805" lon="3.42125">
        <ele>676.9</ele>
        <time>2020-09-17T12:21:39Z</time>
      </trkpt>
      <trkpt lat="45.42803" lon="3.42124">
        <ele>676.8</ele>
        <time>2020-09-17T12:21:40Z</time>
      </trkpt>
      <trkpt lat="45.42802" lon="3.42123">
        <ele>676.8</ele>
        <time>2020-09-17T12:21:41Z</time>
      </trkpt>
      <trkpt lat="45.42801" lon="3.42123">
        <ele>676.7</ele>
        <time>2020-09-17T12:21:42Z</time>
      </trkpt>
      <trkpt lat="45.428" lon="3.42122">
        <ele>676.7</ele>
        <time>2020-09-17T12:21:43Z</time>
      </trkpt>
      <trkpt lat="45.42799" lon="3.42121">
        <ele>676.6</ele>
        <time>2020-09-17T12:21:44Z</time>
      </trkpt>
      <trkpt lat="45.42798" lon="3.4212">
        <ele>676.6</ele>
        <time>2020-09-17T12:21:45Z</time>
      </trkpt>
      <trkpt lat="45.42797" lon="3.42119">
        <ele>676.5</ele>
        <time>2020-09-17T12:21:46Z</time>
      </trkpt>
      <trkpt lat="45.42796" lon="3.42119">
        <ele>676.5</ele>
        <time>2020-09-17T12:21:47Z</time>
      </trkpt>
      <trkpt lat="45.42795" lon="3.42118">
        <ele>676.4</ele>
        <time>2020-09-17T12:21:48Z</time>
      </trkpt>
      <trkpt lat="45.42795" lon="3.42116">
        <ele>676.4</ele>
        <time>2020-09-17T12:21:49Z</time>
      </trkpt>
      <trkpt lat="45.42794" lon="3.42115">
        <ele>676.5</ele>
        <time>2020-09-17T12:21:50Z</time>
      </trkpt>
      <trkpt lat="45.42794" lon="3.42114">
        <ele>676.5</ele>
        <time>2020-09-17T12:21:51Z</time>
      </trkpt>
      <trkpt lat="45.42793" lon="3.42113">
        <ele>676.5</ele>
        <time>2020-09-17T12:21:52Z</time>
      </trkpt>
      <trkpt lat="45.42793" lon="3.42111">
        <ele>676.6</ele>
        <time>2020-09-17T12:21:53Z</time>
      </trkpt>
      <trkpt lat="45.42792" lon="3.4211">
        <ele>676.6</ele>
        <time>2020-09-17T12:21:54Z</time>
      </trkpt>
      <trkpt lat="45.42791" lon="3.42109">
        <ele>676.6</ele>
        <time>2020-09-17T12:21:55Z</time>
      </trkpt>
      <trkpt lat="45.42791" lon="3.42108">
        <ele>676.7</ele>
        <time>2020-09-17T12:21:56Z</time>
      </trkpt>
      <trkpt lat="45.4279" lon="3.42106">
        <ele>676.7</ele>
        <time>2020-09-17T12:21:57Z</time>
      </trkpt>
      <trkpt lat="45.4279" lon="3.42105">
        <ele>676.7</ele>
        <time>2020-09-17T12:21:58Z</time>
      </trkpt>
      <trkpt lat="45.42789" lon="3.42104">
        <ele>676.7</ele>
        <time>2020-09-17T12:21:59Z</time>
      </trkpt>
      <trkpt lat="45.42789" lon="3.42103">
        <ele>676.8</ele>
        <time>2020-09-17T12:22:00Z</time>
      </trkpt>
      <trkpt lat="45.42788" lon="3.42101">
        <ele>676.8</ele>
        <time>2020-09-17T12:22:01Z</time>
      </trkpt>
      <trkpt lat="45.42788" lon="3.421">
        <ele>676.9</ele>
        <time>2020-09-17T12:22:02Z</time>
      </trkpt>
      <trkpt lat="45.42787" lon="3.42099">
        <ele>676.9</ele>
        <time>2020-09-17T12:22:03Z</time>
      </trkpt>
      <trkpt lat="45.42787" lon="3.42098">
        <ele>676.9</ele>
        <time>2020-09-17T12:22:04Z</time>
      </trkpt>
      <trkpt lat="45.42786" lon="3.42096">
        <ele>677</ele>
        <time>2020-09-17T12:22:05Z</time>
      </trkpt>
      <trkpt lat="45.42786" lon="3.42095">
        <ele>677</ele>
        <time>2020-09-17T12:22:06Z</time>
      </trkpt>
      <trkpt lat="45.42785" lon="3.42094">
        <ele>677</ele>
        <time>2020-09-17T12:22:07Z</time>
      </trkpt>
      <trkpt lat="45.42784" lon="3.42093">
        <ele>677</ele>
        <time>2020-09-17T12:22:08Z</time>
      </trkpt>
      <trkpt lat="45.42784" lon="3.42091">
        <ele>677.1</ele>
        <time>2020-09-17T12:22:09Z</time>
      </trkpt>
      <trkpt lat="45.42784" lon="3.4209">
        <ele>677.2</ele>
        <time>2020-09-17T12:22:10Z</time>
      </trkpt>
      <trkpt lat="45.42783" lon="3.42089">
        <ele>677.2</ele>
        <time>2020-09-17T12:22:11Z</time>
      </trkpt>
      <trkpt lat="45.42783" lon="3.42088">
        <ele>677.2</ele>
        <time>2020-09-17T12:22:12Z</time>
      </trkpt>
      <trkpt lat="45.42782" lon="3.42087">
        <ele>677.2</ele>
        <time>2020-09-17T12:22:13Z</time>
      </trkpt>
      <trkpt lat="45.42782" lon="3.42086">
        <ele>677.2</ele>
        <time>2020-09-17T12:22:14Z</time>
      </trkpt>
      <trkpt lat="45.42781" lon="3.42086">
        <ele>677.2</ele>
        <time>2020-09-17T12:22:15Z</time>
      </trkpt>
      <trkpt lat="45.42781" lon="3.42085">
        <ele>677.2</ele>
        <time>2020-09-17T12:22:16Z</time>
      </trkpt>
      <trkpt lat="45.4278" lon="3.42085">
        <ele>677.1</ele>
        <time>2020-09-17T12:22:17Z</time>
      </trkpt>
      <trkpt lat="45.42779" lon="3.42084">
        <ele>677.1</ele>
        <time>2020-09-17T12:22:18Z</time>
      </trkpt>
      <trkpt lat="45.42778" lon="3.42084">
        <ele>677</ele>
        <time>2020-09-17T12:22:19Z</time>
      </trkpt>
      <trkpt lat="45.42778" lon="3.42084">
        <ele>677</ele>
        <time>2020-09-17T12:22:20Z</time>
      </trkpt>
      <trkpt lat="45.42777" lon="3.42084">
        <ele>676.8</ele>
        <time>2020-09-17T12:22:21Z</time>
      </trkpt>
      <trkpt lat="45.42776" lon="3.42084">
        <ele>676.7</ele>
        <time>2020-09-17T12:22:22Z</time>
      </trkpt>
      <trkpt lat="45.42775" lon="3.42084">
        <ele>676.5</ele>
        <time>2020-09-17T12:22:23Z</time>
      </trkpt>
      <trkpt lat="45.42775" lon="3.42084">
        <ele>676.4</ele>
        <time>2020-09-17T12:22:24Z</time>
      </trkpt>
      <trkpt lat="45.42774" lon="3.42085">
        <ele>676.2</ele>
        <time>2020-09-17T12:22:25Z</time>
      </trkpt>
      <trkpt lat="45.42774" lon="3.42085">
        <ele>676.1</ele>
        <time>2020-09-17T12:22:26Z</time>
      </trkpt>
      <trkpt lat="45.42773" lon="3.42087">
        <ele>676</ele>
        <time>2020-09-17T12:22:27Z</time>
      </trkpt>
      <trkpt lat="45.42773" lon="3.42088">
        <ele>675.8</ele>
        <time>2020-09-17T12:22:28Z</time>
      </trkpt>
      <trkpt lat="45.42773" lon="3.42089">
        <ele>675.7</ele>
        <time>2020-09-17T12:22:29Z</time>
      </trkpt>
      <trkpt lat="45.42773" lon="3.4209">
        <ele>675.6</ele>
        <time>2020-09-17T12:22:30Z</time>
      </trkpt>
      <trkpt lat="45.42773" lon="3.42091">
        <ele>675.6</ele>
        <time>2020-09-17T12:22:31Z</time>
      </trkpt>
      <trkpt lat="45.42772" lon="3.42092">
        <ele>675.4</ele>
        <time>2020-09-17T12:22:32Z</time>
      </trkpt>
      <trkpt lat="45.42772" lon="3.42093">
        <ele>675.4</ele>
        <time>2020-09-17T12:22:33Z</time>
      </trkpt>
      <trkpt lat="45.42772" lon="3.42095">
        <ele>675.3</ele>
        <time>2020-09-17T12:22:34Z</time>
      </trkpt>
      <trkpt lat="45.42772" lon="3.42096">
        <ele>675.2</ele>
        <time>2020-09-17T12:22:35Z</time>
      </trkpt>
      <trkpt lat="45.42772" lon="3.42097">
        <ele>675</ele>
        <time>2020-09-17T12:22:36Z</time>
      </trkpt>
      <trkpt lat="45.42771" lon="3.42098">
        <ele>674.9</ele>
        <time>2020-09-17T12:22:37Z</time>
      </trkpt>
      <trkpt lat="45.42771" lon="3.421">
        <ele>674.7</ele>
        <time>2020-09-17T12:22:38Z</time>
      </trkpt>
      <trkpt lat="45.42771" lon="3.42101">
        <ele>674.6</ele>
        <time>2020-09-17T12:22:39Z</time>
      </trkpt>
      <trkpt lat="45.4277" lon="3.42102">
        <ele>674.5</ele>
        <time>2020-09-17T12:22:40Z</time>
      </trkpt>
      <trkpt lat="45.4277" lon="3.42103">
        <ele>674.3</ele>
        <time>2020-09-17T12:22:41Z</time>
      </trkpt>
      <trkpt lat="45.42769" lon="3.42105">
        <ele>674.2</ele>
        <time>2020-09-17T12:22:42Z</time>
      </trkpt>
      <trkpt lat="45.42769" lon="3.42106">
        <ele>674.1</ele>
        <time>2020-09-17T12:22:43Z</time>
      </trkpt>
      <trkpt lat="45.42769" lon="3.42107">
        <ele>673.9</ele>
        <time>2020-09-17T12:22:44Z</time>
      </trkpt>
      <trkpt lat="45.42768" lon="3.42108">
        <ele>673.8</ele>
        <time>2020-09-17T12:22:45Z</time>
      </trkpt>
      <trkpt lat="45.42768" lon="3.42109">
        <ele>673.6</ele>
        <time>2020-09-17T12:22:46Z</time>
      </trkpt>
      <trkpt lat="45.42767" lon="3.4211">
        <ele>673.5</ele>
        <time>2020-09-17T12:22:47Z</time>
      </trkpt>
      <trkpt lat="45.42767" lon="3.42111">
        <ele>673.4</ele>
        <time>2020-09-17T12:22:48Z</time>
      </trkpt>
      <trkpt lat="45.42767" lon="3.42112">
        <ele>673.3</ele>
        <time>2020-09-17T12:22:49Z</time>
      </trkpt>
      <trkpt lat="45.42766" lon="3.42113">
        <ele>673.3</ele>
        <time>2020-09-17T12:22:50Z</time>
      </trkpt>
      <trkpt lat="45.42766" lon="3.42114">
        <ele>673.2</ele>
        <time>2020-09-17T12:22:51Z</time>
      </trkpt>
      <trkpt lat="45.42765" lon="3.42115">
        <ele>673.1</ele>
        <time>2020-09-17T12:22:52Z</time>
      </trkpt>
      <trkpt lat="45.42764" lon="3.42116">
        <ele>673</ele>
        <time>2020-09-17T12:22:53Z</time>
      </trkpt>
      <trkpt lat="45.42764" lon="3.42117">
        <ele>672.9</ele>
        <time>2020-09-17T12:22:54Z</time>
      </trkpt>
      <trkpt lat="45.42763" lon="3.42118">
        <ele>672.8</ele>
        <time>2020-09-17T12:22:55Z</time>
      </trkpt>
      <trkpt lat="45.42763" lon="3.42119">
        <ele>672.7</ele>
        <time>2020-09-17T12:22:56Z</time>
      </trkpt>
      <trkpt lat="45.42762" lon="3.4212">
        <ele>672.7</ele>
        <time>2020-09-17T12:22:57Z</time>
      </trkpt>
      <trkpt lat="45.42762" lon="3.42121">
        <ele>672.6</ele>
        <time>2020-09-17T12:22:58Z</time>
      </trkpt>
      <trkpt lat="45.42761" lon="3.42122">
        <ele>672.5</ele>
        <time>2020-09-17T12:22:59Z</time>
      </trkpt>
      <trkpt lat="45.42761" lon="3.42123">
        <ele>672.5</ele>
        <time>2020-09-17T12:23:00Z</time>
      </trkpt>
      <trkpt lat="45.42761" lon="3.42124">
        <ele>672.5</ele>
        <time>2020-09-17T12:23:01Z</time>
      </trkpt>
      <trkpt lat="45.42761" lon="3.42124">
        <ele>672.4</ele>
        <time>2020-09-17T12:23:02Z</time>
      </trkpt>
      <trkpt lat="45.4276" lon="3.42125">
        <ele>672.4</ele>
        <time>2020-09-17T12:23:03Z</time>
      </trkpt>
      <trkpt lat="45.4276" lon="3.42126">
        <ele>672.4</ele>
        <time>2020-09-17T12:23:04Z</time>
      </trkpt>
      <trkpt lat="45.4276" lon="3.42126">
        <ele>672.4</ele>
        <time>2020-09-17T12:23:05Z</time>
      </trkpt>
      <trkpt lat="45.42759" lon="3.42126">
        <ele>672.3</ele>
        <time>2020-09-17T12:23:06Z</time>
      </trkpt>
      <trkpt lat="45.42758" lon="3.42126">
        <ele>672.2</ele>
        <time>2020-09-17T12:23:07Z</time>
      </trkpt>
      <trkpt lat="45.42757" lon="3.42126">
        <ele>672.1</ele>
        <time>2020-09-17T12:23:08Z</time>
      </trkpt>
      <trkpt lat="45.42756" lon="3.42125">
        <ele>672</ele>
        <time>2020-09-17T12:23:09Z</time>
      </trkpt>
      <trkpt lat="45.42755" lon="3.42125">
        <ele>672</ele>
        <time>2020-09-17T12:23:10Z</time>
      </trkpt>
      <trkpt lat="45.42754" lon="3.42124">
        <ele>671.9</ele>
        <time>2020-09-17T12:23:11Z</time>
      </trkpt>
      <trkpt lat="45.42754" lon="3.42123">
        <ele>671.8</ele>
        <time>2020-09-17T12:23:12Z</time>
      </trkpt>
      <trkpt lat="45.42753" lon="3.42123">
        <ele>671.7</ele>
        <time>2020-09-17T12:23:13Z</time>
      </trkpt>
      <trkpt lat="45.42752" lon="3.42122">
        <ele>671.6</ele>
        <time>2020-09-17T12:23:14Z</time>
      </trkpt>
      <trkpt lat="45.42751" lon="3.42121">
        <ele>671.5</ele>
        <time>2020-09-17T12:23:15Z</time>
      </trkpt>
      <trkpt lat="45.4275" lon="3.42121">
        <ele>671.4</ele>
        <time>2020-09-17T12:23:16Z</time>
      </trkpt>
      <trkpt lat="45.4275" lon="3.4212">
        <ele>671.3</ele>
        <time>2020-09-17T12:23:17Z</time>
      </trkpt>
      <trkpt lat="45.42749" lon="3.42119">
        <ele>671.1</ele>
        <time>2020-09-17T12:23:18Z</time>
      </trkpt>
      <trkpt lat="45.42748" lon="3.42118">
        <ele>671</ele>
        <time>2020-09-17T12:23:19Z</time>
      </trkpt>
      <trkpt lat="45.42748" lon="3.42117">
        <ele>670.9</ele>
        <time>2020-09-17T12:23:20Z</time>
      </trkpt>
      <trkpt lat="45.42747" lon="3.42116">
        <ele>670.8</ele>
        <time>2020-09-17T12:23:21Z</time>
      </trkpt>
      <trkpt lat="45.42746" lon="3.42115">
        <ele>670.7</ele>
        <time>2020-09-17T12:23:22Z</time>
      </trkpt>
      <trkpt lat="45.42746" lon="3.42114">
        <ele>670.6</ele>
        <time>2020-09-17T12:23:23Z</time>
      </trkpt>
      <trkpt lat="45.42745" lon="3.42112">
        <ele>670.5</ele>
        <time>2020-09-17T12:23:24Z</time>
      </trkpt>
      <trkpt lat="45.42745" lon="3.42111">
        <ele>670.4</ele>
        <time>2020-09-17T12:23:25Z</time>
      </trkpt>
      <trkpt lat="45.42744" lon="3.4211">
        <ele>670.4</ele>
        <time>2020-09-17T12:23:26Z</time>
      </trkpt>
      <trkpt lat="45.42744" lon="3.42108">
        <ele>670.4</ele>
        <time>2020-09-17T12:23:27Z</time>
      </trkpt>
      <trkpt lat="45.42743" lon="3.42107">
        <ele>670.3</ele>
        <time>2020-09-17T12:23:28Z</time>
      </trkpt>
      <trkpt lat="45.42743" lon="3.42106">
        <ele>670.3</ele>
        <time>2020-09-17T12:23:29Z</time>
      </trkpt>
      <trkpt lat="45.42742" lon="3.42105">
        <ele>670.2</ele>
        <time>2020-09-17T12:23:30Z</time>
      </trkpt>
      <trkpt lat="45.42742" lon="3.42104">
        <ele>670.2</ele>
        <time>2020-09-17T12:23:31Z</time>
      </trkpt>
      <trkpt lat="45.42741" lon="3.42104">
        <ele>670.1</ele>
        <time>2020-09-17T12:23:32Z</time>
      </trkpt>
      <trkpt lat="45.42741" lon="3.42103">
        <ele>670.2</ele>
        <time>2020-09-17T12:23:33Z</time>
      </trkpt>
      <trkpt lat="45.42741" lon="3.42103">
        <ele>670.1</ele>
        <time>2020-09-17T12:23:34Z</time>
      </trkpt>
      <trkpt lat="45.42741" lon="3.42103">
        <ele>670.1</ele>
        <time>2020-09-17T12:23:35Z</time>
      </trkpt>
      <trkpt lat="45.42741" lon="3.42103">
        <ele>670.1</ele>
        <time>2020-09-17T12:23:36Z</time>
      </trkpt>
      <trkpt lat="45.42741" lon="3.42103">
        <ele>670.1</ele>
        <time>2020-09-17T12:23:37Z</time>
      </trkpt>
      <trkpt lat="45.42741" lon="3.42103">
        <ele>670.1</ele>
        <time>2020-09-17T12:23:38Z</time>
      </trkpt>
      <trkpt lat="45.42741" lon="3.42103">
        <ele>670.1</ele>
        <time>2020-09-17T12:23:39Z</time>
      </trkpt>
      <trkpt lat="45.42741" lon="3.42103">
        <ele>670.1</ele>
        <time>2020-09-17T12:23:40Z</time>
      </trkpt>
      <trkpt lat="45.42741" lon="3.42103">
        <ele>670.2</ele>
        <time>2020-09-17T12:23:41Z</time>
      </trkpt>
      <trkpt lat="45.42741" lon="3.42103">
        <ele>670.2</ele>
        <time>2020-09-17T12:23:42Z</time>
      </trkpt>
      <trkpt lat="45.42741" lon="3.42103">
        <ele>670.2</ele>
        <time>2020-09-17T12:23:43Z</time>
      </trkpt>
      <trkpt lat="45.42741" lon="3.42103">
        <ele>670.2</ele>
        <time>2020-09-17T12:23:44Z</time>
      </trkpt>
      <trkpt lat="45.42741" lon="3.42103">
        <ele>670.2</ele>
        <time>2020-09-17T12:23:45Z</time>
      </trkpt>
      <trkpt lat="45.42741" lon="3.42103">
        <ele>670.2</ele>
        <time>2020-09-17T12:23:46Z</time>
      </trkpt>
      <trkpt lat="45.42741" lon="3.42103">
        <ele>670.2</ele>
        <time>2020-09-17T12:23:47Z</time>
      </trkpt>
      <trkpt lat="45.42741" lon="3.42103">
        <ele>670.2</ele>
        <time>2020-09-17T12:23:48Z</time>
      </trkpt>
      <trkpt lat="45.42741" lon="3.42103">
        <ele>670.2</ele>
        <time>2020-09-17T12:23:49Z</time>
      </trkpt>
      <trkpt lat="45.42741" lon="3.42103">
        <ele>670.2</ele>
        <time>2020-09-17T12:23:50Z</time>
      </trkpt>
      <trkpt lat="45.42741" lon="3.42103">
        <ele>670.2</ele>
        <time>2020-09-17T12:23:51Z</time>
      </trkpt>
      <trkpt lat="45.42741" lon="3.42103">
        <ele>670.2</ele>
        <time>2020-09-17T12:23:52Z</time>
      </trkpt>
      <trkpt lat="45.42741" lon="3.42103">
        <ele>670.2</ele>
        <time>2020-09-17T12:23:53Z</time>
      </trkpt>
      <trkpt lat="45.42741" lon="3.42103">
        <ele>670.2</ele>
        <time>2020-09-17T12:23:54Z</time>
      </trkpt>
      <trkpt lat="45.42741" lon="3.42103">
        <ele>670.2</ele>
        <time>2020-09-17T12:23:55Z</time>
      </trkpt>
      <trkpt lat="45.42741" lon="3.42103">
        <ele>670.2</ele>
        <time>2020-09-17T12:23:56Z</time>
      </trkpt>
      <trkpt lat="45.42741" lon="3.42103">
        <ele>670.2</ele>
        <time>2020-09-17T12:23:57Z</time>
      </trkpt>
      <trkpt lat="45.42741" lon="3.42102">
        <ele>670.2</ele>
        <time>2020-09-17T12:23:58Z</time>
      </trkpt>
      <trkpt lat="45.42741" lon="3.42102">
        <ele>670.2</ele>
        <time>2020-09-17T12:23:59Z</time>
      </trkpt>
      <trkpt lat="45.42741" lon="3.42103">
        <ele>670.2</ele>
        <time>2020-09-17T12:24:00Z</time>
      </trkpt>
      <trkpt lat="45.42742" lon="3.42103">
        <ele>670.2</ele>
        <time>2020-09-17T12:24:01Z</time>
      </trkpt>
      <trkpt lat="45.42742" lon="3.42104">
        <ele>670.2</ele>
        <time>2020-09-17T12:24:02Z</time>
      </trkpt>
      <trkpt lat="45.42742" lon="3.42105">
        <ele>670.2</ele>
        <time>2020-09-17T12:24:03Z</time>
      </trkpt>
      <trkpt lat="45.42741" lon="3.42106">
        <ele>670.1</ele>
        <time>2020-09-17T12:24:04Z</time>
      </trkpt>
      <trkpt lat="45.42741" lon="3.42107">
        <ele>670</ele>
        <time>2020-09-17T12:24:05Z</time>
      </trkpt>
      <trkpt lat="45.4274" lon="3.42108">
        <ele>669.9</ele>
        <time>2020-09-17T12:24:06Z</time>
      </trkpt>
      <trkpt lat="45.42739" lon="3.42108">
        <ele>669.8</ele>
        <time>2020-09-17T12:24:07Z</time>
      </trkpt>
      <trkpt lat="45.42738" lon="3.42109">
        <ele>669.7</ele>
        <time>2020-09-17T12:24:08Z</time>
      </trkpt>
      <trkpt lat="45.42737" lon="3.42109">
        <ele>669.6</ele>
        <time>2020-09-17T12:24:09Z</time>
      </trkpt>
      <trkpt lat="45.42737" lon="3.4211">
        <ele>669.6</ele>
        <time>2020-09-17T12:24:10Z</time>
      </trkpt>
      <trkpt lat="45.42736" lon="3.4211">
        <ele>669.5</ele>
        <time>2020-09-17T12:24:11Z</time>
      </trkpt>
      <trkpt lat="45.42735" lon="3.42111">
        <ele>669.4</ele>
        <time>2020-09-17T12:24:12Z</time>
      </trkpt>
      <trkpt lat="45.42734" lon="3.42111">
        <ele>669.3</ele>
        <time>2020-09-17T12:24:13Z</time>
      </trkpt>
      <trkpt lat="45.42733" lon="3.42112">
        <ele>669.2</ele>
        <time>2020-09-17T12:24:14Z</time>
      </trkpt>
      <trkpt lat="45.42732" lon="3.42112">
        <ele>669.1</ele>
        <time>2020-09-17T12:24:15Z</time>
      </trkpt>
      <trkpt lat="45.42731" lon="3.42113">
        <ele>669</ele>
        <time>2020-09-17T12:24:16Z</time>
      </trkpt>
      <trkpt lat="45.42731" lon="3.42113">
        <ele>669</ele>
        <time>2020-09-17T12:24:17Z</time>
      </trkpt>
      <trkpt lat="45.4273" lon="3.42113">
        <ele>668.9</ele>
        <time>2020-09-17T12:24:18Z</time>
      </trkpt>
      <trkpt lat="45.42729" lon="3.42114">
        <ele>668.8</ele>
        <time>2020-09-17T12:24:19Z</time>
      </trkpt>
      <trkpt lat="45.42728" lon="3.42114">
        <ele>668.7</ele>
        <time>2020-09-17T12:24:20Z</time>
      </trkpt>
      <trkpt lat="45.42727" lon="3.42114">
        <ele>668.6</ele>
        <time>2020-09-17T12:24:21Z</time>
      </trkpt>
      <trkpt lat="45.42726" lon="3.42114">
        <ele>668.5</ele>
        <time>2020-09-17T12:24:22Z</time>
      </trkpt>
      <trkpt lat="45.42725" lon="3.42114">
        <ele>668.4</ele>
        <time>2020-09-17T12:24:23Z</time>
      </trkpt>
      <trkpt lat="45.42724" lon="3.42114">
        <ele>668.3</ele>
        <time>2020-09-17T12:24:24Z</time>
      </trkpt>
      <trkpt lat="45.42724" lon="3.42114">
        <ele>668.2</ele>
        <time>2020-09-17T12:24:25Z</time>
      </trkpt>
      <trkpt lat="45.42723" lon="3.42115">
        <ele>668.2</ele>
        <time>2020-09-17T12:24:26Z</time>
      </trkpt>
      <trkpt lat="45.42722" lon="3.42115">
        <ele>668.1</ele>
        <time>2020-09-17T12:24:27Z</time>
      </trkpt>
      <trkpt lat="45.42721" lon="3.42115">
        <ele>668</ele>
        <time>2020-09-17T12:24:28Z</time>
      </trkpt>
      <trkpt lat="45.4272" lon="3.42116">
        <ele>667.9</ele>
        <time>2020-09-17T12:24:29Z</time>
      </trkpt>
      <trkpt lat="45.42719" lon="3.42116">
        <ele>667.8</ele>
        <time>2020-09-17T12:24:30Z</time>
      </trkpt>
      <trkpt lat="45.42718" lon="3.42116">
        <ele>667.8</ele>
        <time>2020-09-17T12:24:31Z</time>
      </trkpt>
      <trkpt lat="45.42717" lon="3.42117">
        <ele>667.7</ele>
        <time>2020-09-17T12:24:32Z</time>
      </trkpt>
      <trkpt lat="45.42716" lon="3.42117">
        <ele>667.6</ele>
        <time>2020-09-17T12:24:33Z</time>
      </trkpt>
      <trkpt lat="45.42715" lon="3.42117">
        <ele>667.5</ele>
        <time>2020-09-17T12:24:34Z</time>
      </trkpt>
      <trkpt lat="45.42714" lon="3.42118">
        <ele>667.4</ele>
        <time>2020-09-17T12:24:35Z</time>
      </trkpt>
      <trkpt lat="45.42713" lon="3.42118">
        <ele>667.4</ele>
        <time>2020-09-17T12:24:36Z</time>
      </trkpt>
      <trkpt lat="45.42712" lon="3.42119">
        <ele>667.3</ele>
        <time>2020-09-17T12:24:37Z</time>
      </trkpt>
      <trkpt lat="45.42711" lon="3.42119">
        <ele>667.2</ele>
        <time>2020-09-17T12:24:38Z</time>
      </trkpt>
      <trkpt lat="45.42711" lon="3.42119">
        <ele>667.2</ele>
        <time>2020-09-17T12:24:39Z</time>
      </trkpt>
      <trkpt lat="45.4271" lon="3.4212">
        <ele>667.1</ele>
        <time>2020-09-17T12:24:40Z</time>
      </trkpt>
      <trkpt lat="45.42709" lon="3.4212">
        <ele>667</ele>
        <time>2020-09-17T12:24:41Z</time>
      </trkpt>
      <trkpt lat="45.42708" lon="3.42121">
        <ele>666.9</ele>
        <time>2020-09-17T12:24:42Z</time>
      </trkpt>
      <trkpt lat="45.42707" lon="3.42121">
        <ele>666.9</ele>
        <time>2020-09-17T12:24:43Z</time>
      </trkpt>
      <trkpt lat="45.42706" lon="3.42122">
        <ele>666.8</ele>
        <time>2020-09-17T12:24:44Z</time>
      </trkpt>
      <trkpt lat="45.42705" lon="3.42122">
        <ele>666.7</ele>
        <time>2020-09-17T12:24:45Z</time>
      </trkpt>
      <trkpt lat="45.42704" lon="3.42122">
        <ele>666.7</ele>
        <time>2020-09-17T12:24:46Z</time>
      </trkpt>
      <trkpt lat="45.42703" lon="3.42123">
        <ele>666.6</ele>
        <time>2020-09-17T12:24:47Z</time>
      </trkpt>
      <trkpt lat="45.42702" lon="3.42123">
        <ele>666.6</ele>
        <time>2020-09-17T12:24:48Z</time>
      </trkpt>
      <trkpt lat="45.42701" lon="3.42124">
        <ele>666.5</ele>
        <time>2020-09-17T12:24:49Z</time>
      </trkpt>
      <trkpt lat="45.427" lon="3.42124">
        <ele>666.5</ele>
        <time>2020-09-17T12:24:50Z</time>
      </trkpt>
      <trkpt lat="45.427" lon="3.42125">
        <ele>666.4</ele>
        <time>2020-09-17T12:24:51Z</time>
      </trkpt>
      <trkpt lat="45.42699" lon="3.42125">
        <ele>666.4</ele>
        <time>2020-09-17T12:24:52Z</time>
      </trkpt>
      <trkpt lat="45.42698" lon="3.42126">
        <ele>666.3</ele>
        <time>2020-09-17T12:24:53Z</time>
      </trkpt>
      <trkpt lat="45.42697" lon="3.42126">
        <ele>666.3</ele>
        <time>2020-09-17T12:24:54Z</time>
      </trkpt>
      <trkpt lat="45.42696" lon="3.42127">
        <ele>666.3</ele>
        <time>2020-09-17T12:24:55Z</time>
      </trkpt>
      <trkpt lat="45.42695" lon="3.42127">
        <ele>666.2</ele>
        <time>2020-09-17T12:24:56Z</time>
      </trkpt>
      <trkpt lat="45.42694" lon="3.42128">
        <ele>666.1</ele>
        <time>2020-09-17T12:24:57Z</time>
      </trkpt>
      <trkpt lat="45.42693" lon="3.42128">
        <ele>666.1</ele>
        <time>2020-09-17T12:24:58Z</time>
      </trkpt>
      <trkpt lat="45.42692" lon="3.42129">
        <ele>666</ele>
        <time>2020-09-17T12:24:59Z</time>
      </trkpt>
      <trkpt lat="45.42691" lon="3.42129">
        <ele>665.9</ele>
        <time>2020-09-17T12:25:00Z</time>
      </trkpt>
      <trkpt lat="45.4269" lon="3.4213">
        <ele>665.8</ele>
        <time>2020-09-17T12:25:01Z</time>
      </trkpt>
      <trkpt lat="45.42689" lon="3.42131">
        <ele>665.7</ele>
        <time>2020-09-17T12:25:02Z</time>
      </trkpt>
      <trkpt lat="45.42688" lon="3.42131">
        <ele>665.6</ele>
        <time>2020-09-17T12:25:03Z</time>
      </trkpt>
      <trkpt lat="45.42687" lon="3.42132">
        <ele>665.5</ele>
        <time>2020-09-17T12:25:04Z</time>
      </trkpt>
      <trkpt lat="45.42686" lon="3.42132">
        <ele>665.4</ele>
        <time>2020-09-17T12:25:05Z</time>
      </trkpt>
      <trkpt lat="45.42685" lon="3.42132">
        <ele>665.3</ele>
        <time>2020-09-17T12:25:06Z</time>
      </trkpt>
      <trkpt lat="45.42684" lon="3.42133">
        <ele>665.2</ele>
        <time>2020-09-17T12:25:07Z</time>
      </trkpt>
      <trkpt lat="45.42684" lon="3.42133">
        <ele>665.1</ele>
        <time>2020-09-17T12:25:08Z</time>
      </trkpt>
      <trkpt lat="45.42683" lon="3.42134">
        <ele>665</ele>
        <time>2020-09-17T12:25:09Z</time>
      </trkpt>
      <trkpt lat="45.42682" lon="3.42135">
        <ele>664.9</ele>
        <time>2020-09-17T12:25:10Z</time>
      </trkpt>
      <trkpt lat="45.42681" lon="3.42135">
        <ele>664.8</ele>
        <time>2020-09-17T12:25:11Z</time>
      </trkpt>
      <trkpt lat="45.4268" lon="3.42136">
        <ele>664.7</ele>
        <time>2020-09-17T12:25:12Z</time>
      </trkpt>
      <trkpt lat="45.42679" lon="3.42137">
        <ele>664.6</ele>
        <time>2020-09-17T12:25:13Z</time>
      </trkpt>
      <trkpt lat="45.42678" lon="3.42137">
        <ele>664.5</ele>
        <time>2020-09-17T12:25:14Z</time>
      </trkpt>
      <trkpt lat="45.42677" lon="3.42138">
        <ele>664.4</ele>
        <time>2020-09-17T12:25:15Z</time>
      </trkpt>
      <trkpt lat="45.42676" lon="3.42138">
        <ele>664.3</ele>
        <time>2020-09-17T12:25:16Z</time>
      </trkpt>
      <trkpt lat="45.42675" lon="3.42139">
        <ele>664.2</ele>
        <time>2020-09-17T12:25:17Z</time>
      </trkpt>
      <trkpt lat="45.42674" lon="3.4214">
        <ele>664.1</ele>
        <time>2020-09-17T12:25:18Z</time>
      </trkpt>
      <trkpt lat="45.42673" lon="3.4214">
        <ele>663.9</ele>
        <time>2020-09-17T12:25:19Z</time>
      </trkpt>
      <trkpt lat="45.42672" lon="3.42141">
        <ele>663.8</ele>
        <time>2020-09-17T12:25:20Z</time>
      </trkpt>
      <trkpt lat="45.42672" lon="3.42141">
        <ele>663.7</ele>
        <time>2020-09-17T12:25:21Z</time>
      </trkpt>
      <trkpt lat="45.42671" lon="3.42142">
        <ele>663.5</ele>
        <time>2020-09-17T12:25:22Z</time>
      </trkpt>
      <trkpt lat="45.4267" lon="3.42143">
        <ele>663.4</ele>
        <time>2020-09-17T12:25:23Z</time>
      </trkpt>
      <trkpt lat="45.42669" lon="3.42143">
        <ele>663.3</ele>
        <time>2020-09-17T12:25:24Z</time>
      </trkpt>
      <trkpt lat="45.42668" lon="3.42144">
        <ele>663.1</ele>
        <time>2020-09-17T12:25:25Z</time>
      </trkpt>
      <trkpt lat="45.42667" lon="3.42144">
        <ele>663</ele>
        <time>2020-09-17T12:25:26Z</time>
      </trkpt>
      <trkpt lat="45.42666" lon="3.42145">
        <ele>662.9</ele>
        <time>2020-09-17T12:25:27Z</time>
      </trkpt>
      <trkpt lat="45.42665" lon="3.42145">
        <ele>662.7</ele>
        <time>2020-09-17T12:25:28Z</time>
      </trkpt>
      <trkpt lat="45.42664" lon="3.42146">
        <ele>662.7</ele>
        <time>2020-09-17T12:25:29Z</time>
      </trkpt>
      <trkpt lat="45.42663" lon="3.42146">
        <ele>662.5</ele>
        <time>2020-09-17T12:25:30Z</time>
      </trkpt>
      <trkpt lat="45.42662" lon="3.42147">
        <ele>662.4</ele>
        <time>2020-09-17T12:25:31Z</time>
      </trkpt>
      <trkpt lat="45.42661" lon="3.42147">
        <ele>662.3</ele>
        <time>2020-09-17T12:25:32Z</time>
      </trkpt>
      <trkpt lat="45.4266" lon="3.42148">
        <ele>662.1</ele>
        <time>2020-09-17T12:25:33Z</time>
      </trkpt>
      <trkpt lat="45.42659" lon="3.42148">
        <ele>662</ele>
        <time>2020-09-17T12:25:34Z</time>
      </trkpt>
      <trkpt lat="45.42657" lon="3.42148">
        <ele>661.9</ele>
        <time>2020-09-17T12:25:35Z</time>
      </trkpt>
      <trkpt lat="45.42656" lon="3.42149">
        <ele>661.8</ele>
        <time>2020-09-17T12:25:36Z</time>
      </trkpt>
      <trkpt lat="45.42655" lon="3.42148">
        <ele>661.6</ele>
        <time>2020-09-17T12:25:37Z</time>
      </trkpt>
      <trkpt lat="45.42654" lon="3.42148">
        <ele>661.5</ele>
        <time>2020-09-17T12:25:38Z</time>
      </trkpt>
      <trkpt lat="45.42653" lon="3.42148">
        <ele>661.4</ele>
        <time>2020-09-17T12:25:39Z</time>
      </trkpt>
      <trkpt lat="45.42652" lon="3.42148">
        <ele>661.2</ele>
        <time>2020-09-17T12:25:40Z</time>
      </trkpt>
      <trkpt lat="45.42651" lon="3.42149">
        <ele>661.1</ele>
        <time>2020-09-17T12:25:41Z</time>
      </trkpt>
      <trkpt lat="45.4265" lon="3.42149">
        <ele>661</ele>
        <time>2020-09-17T12:25:42Z</time>
      </trkpt>
      <trkpt lat="45.42649" lon="3.42148">
        <ele>660.8</ele>
        <time>2020-09-17T12:25:43Z</time>
      </trkpt>
      <trkpt lat="45.42648" lon="3.42148">
        <ele>660.7</ele>
        <time>2020-09-17T12:25:44Z</time>
      </trkpt>
      <trkpt lat="45.42646" lon="3.42148">
        <ele>660.6</ele>
        <time>2020-09-17T12:25:45Z</time>
      </trkpt>
      <trkpt lat="45.42645" lon="3.42147">
        <ele>660.4</ele>
        <time>2020-09-17T12:25:46Z</time>
      </trkpt>
      <trkpt lat="45.42644" lon="3.42147">
        <ele>660.3</ele>
        <time>2020-09-17T12:25:47Z</time>
      </trkpt>
      <trkpt lat="45.42643" lon="3.42146">
        <ele>660.3</ele>
        <time>2020-09-17T12:25:48Z</time>
      </trkpt>
      <trkpt lat="45.42642" lon="3.42145">
        <ele>660.2</ele>
        <time>2020-09-17T12:25:49Z</time>
      </trkpt>
      <trkpt lat="45.42642" lon="3.42144">
        <ele>660.1</ele>
        <time>2020-09-17T12:25:50Z</time>
      </trkpt>
      <trkpt lat="45.42641" lon="3.42143">
        <ele>660</ele>
        <time>2020-09-17T12:25:51Z</time>
      </trkpt>
      <trkpt lat="45.4264" lon="3.42142">
        <ele>660</ele>
        <time>2020-09-17T12:25:52Z</time>
      </trkpt>
      <trkpt lat="45.42639" lon="3.42141">
        <ele>659.9</ele>
        <time>2020-09-17T12:25:53Z</time>
      </trkpt>
      <trkpt lat="45.42638" lon="3.4214">
        <ele>659.9</ele>
        <time>2020-09-17T12:25:54Z</time>
      </trkpt>
      <trkpt lat="45.42637" lon="3.4214">
        <ele>659.8</ele>
        <time>2020-09-17T12:25:55Z</time>
      </trkpt>
      <trkpt lat="45.42636" lon="3.42139">
        <ele>659.8</ele>
        <time>2020-09-17T12:25:56Z</time>
      </trkpt>
      <trkpt lat="45.42635" lon="3.42138">
        <ele>659.7</ele>
        <time>2020-09-17T12:25:57Z</time>
      </trkpt>
      <trkpt lat="45.42634" lon="3.42137">
        <ele>659.6</ele>
        <time>2020-09-17T12:25:58Z</time>
      </trkpt>
      <trkpt lat="45.42633" lon="3.42136">
        <ele>659.6</ele>
        <time>2020-09-17T12:25:59Z</time>
      </trkpt>
      <trkpt lat="45.42632" lon="3.42136">
        <ele>659.5</ele>
        <time>2020-09-17T12:26:00Z</time>
      </trkpt>
      <trkpt lat="45.42631" lon="3.42135">
        <ele>659.4</ele>
        <time>2020-09-17T12:26:01Z</time>
      </trkpt>
      <trkpt lat="45.4263" lon="3.42134">
        <ele>659.3</ele>
        <time>2020-09-17T12:26:02Z</time>
      </trkpt>
      <trkpt lat="45.42629" lon="3.42134">
        <ele>659.3</ele>
        <time>2020-09-17T12:26:03Z</time>
      </trkpt>
      <trkpt lat="45.42628" lon="3.42133">
        <ele>659.2</ele>
        <time>2020-09-17T12:26:04Z</time>
      </trkpt>
      <trkpt lat="45.42627" lon="3.42132">
        <ele>659.1</ele>
        <time>2020-09-17T12:26:05Z</time>
      </trkpt>
      <trkpt lat="45.42626" lon="3.42131">
        <ele>659.1</ele>
        <time>2020-09-17T12:26:06Z</time>
      </trkpt>
      <trkpt lat="45.42625" lon="3.4213">
        <ele>659</ele>
        <time>2020-09-17T12:26:07Z</time>
      </trkpt>
      <trkpt lat="45.42624" lon="3.42129">
        <ele>658.9</ele>
        <time>2020-09-17T12:26:08Z</time>
      </trkpt>
      <trkpt lat="45.42623" lon="3.42128">
        <ele>658.9</ele>
        <time>2020-09-17T12:26:09Z</time>
      </trkpt>
      <trkpt lat="45.42623" lon="3.42127">
        <ele>658.8</ele>
        <time>2020-09-17T12:26:10Z</time>
      </trkpt>
      <trkpt lat="45.42622" lon="3.42126">
        <ele>658.8</ele>
        <time>2020-09-17T12:26:11Z</time>
      </trkpt>
      <trkpt lat="45.42621" lon="3.42124">
        <ele>658.7</ele>
        <time>2020-09-17T12:26:12Z</time>
      </trkpt>
      <trkpt lat="45.4262" lon="3.42123">
        <ele>658.6</ele>
        <time>2020-09-17T12:26:13Z</time>
      </trkpt>
      <trkpt lat="45.42619" lon="3.42122">
        <ele>658.6</ele>
        <time>2020-09-17T12:26:14Z</time>
      </trkpt>
      <trkpt lat="45.42618" lon="3.42121">
        <ele>658.5</ele>
        <time>2020-09-17T12:26:15Z</time>
      </trkpt>
      <trkpt lat="45.42618" lon="3.4212">
        <ele>658.5</ele>
        <time>2020-09-17T12:26:16Z</time>
      </trkpt>
      <trkpt lat="45.42617" lon="3.42119">
        <ele>658.4</ele>
        <time>2020-09-17T12:26:17Z</time>
      </trkpt>
      <trkpt lat="45.42616" lon="3.42117">
        <ele>658.4</ele>
        <time>2020-09-17T12:26:18Z</time>
      </trkpt>
      <trkpt lat="45.42615" lon="3.42116">
        <ele>658.3</ele>
        <time>2020-09-17T12:26:19Z</time>
      </trkpt>
      <trkpt lat="45.42615" lon="3.42115">
        <ele>658.2</ele>
        <time>2020-09-17T12:26:20Z</time>
      </trkpt>
      <trkpt lat="45.42614" lon="3.42114">
        <ele>658.2</ele>
        <time>2020-09-17T12:26:21Z</time>
      </trkpt>
      <trkpt lat="45.42613" lon="3.42113">
        <ele>658.1</ele>
        <time>2020-09-17T12:26:22Z</time>
      </trkpt>
      <trkpt lat="45.42612" lon="3.42111">
        <ele>658.1</ele>
        <time>2020-09-17T12:26:23Z</time>
      </trkpt>
      <trkpt lat="45.42612" lon="3.4211">
        <ele>658</ele>
        <time>2020-09-17T12:26:24Z</time>
      </trkpt>
      <trkpt lat="45.42611" lon="3.42109">
        <ele>657.9</ele>
        <time>2020-09-17T12:26:25Z</time>
      </trkpt>
      <trkpt lat="45.42611" lon="3.42107">
        <ele>657.8</ele>
        <time>2020-09-17T12:26:26Z</time>
      </trkpt>
      <trkpt lat="45.4261" lon="3.42106">
        <ele>657.8</ele>
        <time>2020-09-17T12:26:27Z</time>
      </trkpt>
      <trkpt lat="45.42609" lon="3.42105">
        <ele>657.7</ele>
        <time>2020-09-17T12:26:28Z</time>
      </trkpt>
      <trkpt lat="45.42609" lon="3.42103">
        <ele>657.7</ele>
        <time>2020-09-17T12:26:29Z</time>
      </trkpt>
      <trkpt lat="45.42608" lon="3.42102">
        <ele>657.6</ele>
        <time>2020-09-17T12:26:30Z</time>
      </trkpt>
      <trkpt lat="45.42608" lon="3.421">
        <ele>657.5</ele>
        <time>2020-09-17T12:26:31Z</time>
      </trkpt>
      <trkpt lat="45.42607" lon="3.42099">
        <ele>657.5</ele>
        <time>2020-09-17T12:26:32Z</time>
      </trkpt>
      <trkpt lat="45.42607" lon="3.42098">
        <ele>657.4</ele>
        <time>2020-09-17T12:26:33Z</time>
      </trkpt>
      <trkpt lat="45.42606" lon="3.42096">
        <ele>657.4</ele>
        <time>2020-09-17T12:26:34Z</time>
      </trkpt>
      <trkpt lat="45.42606" lon="3.42095">
        <ele>657.3</ele>
        <time>2020-09-17T12:26:35Z</time>
      </trkpt>
      <trkpt lat="45.42605" lon="3.42094">
        <ele>657.3</ele>
        <time>2020-09-17T12:26:36Z</time>
      </trkpt>
      <trkpt lat="45.42605" lon="3.42092">
        <ele>657.2</ele>
        <time>2020-09-17T12:26:37Z</time>
      </trkpt>
      <trkpt lat="45.42605" lon="3.4209">
        <ele>657.2</ele>
        <time>2020-09-17T12:26:38Z</time>
      </trkpt>
      <trkpt lat="45.42605" lon="3.42089">
        <ele>657.1</ele>
        <time>2020-09-17T12:26:39Z</time>
      </trkpt>
      <trkpt lat="45.42604" lon="3.42087">
        <ele>657.1</ele>
        <time>2020-09-17T12:26:40Z</time>
      </trkpt>
      <trkpt lat="45.42604" lon="3.42086">
        <ele>657.1</ele>
        <time>2020-09-17T12:26:41Z</time>
      </trkpt>
      <trkpt lat="45.42604" lon="3.42084">
        <ele>657</ele>
        <time>2020-09-17T12:26:42Z</time>
      </trkpt>
      <trkpt lat="45.42604" lon="3.42083">
        <ele>657</ele>
        <time>2020-09-17T12:26:43Z</time>
      </trkpt>
      <trkpt lat="45.42603" lon="3.42081">
        <ele>656.9</ele>
        <time>2020-09-17T12:26:44Z</time>
      </trkpt>
      <trkpt lat="45.42603" lon="3.42079">
        <ele>656.9</ele>
        <time>2020-09-17T12:26:45Z</time>
      </trkpt>
      <trkpt lat="45.42603" lon="3.42078">
        <ele>656.8</ele>
        <time>2020-09-17T12:26:46Z</time>
      </trkpt>
      <trkpt lat="45.42603" lon="3.42076">
        <ele>656.7</ele>
        <time>2020-09-17T12:26:47Z</time>
      </trkpt>
      <trkpt lat="45.42603" lon="3.42075">
        <ele>656.7</ele>
        <time>2020-09-17T12:26:48Z</time>
      </trkpt>
      <trkpt lat="45.42603" lon="3.42073">
        <ele>656.6</ele>
        <time>2020-09-17T12:26:49Z</time>
      </trkpt>
      <trkpt lat="45.42602" lon="3.42071">
        <ele>656.6</ele>
        <time>2020-09-17T12:26:50Z</time>
      </trkpt>
      <trkpt lat="45.42602" lon="3.4207">
        <ele>656.5</ele>
        <time>2020-09-17T12:26:51Z</time>
      </trkpt>
      <trkpt lat="45.42602" lon="3.42068">
        <ele>656.4</ele>
        <time>2020-09-17T12:26:52Z</time>
      </trkpt>
      <trkpt lat="45.42602" lon="3.42066">
        <ele>656.4</ele>
        <time>2020-09-17T12:26:53Z</time>
      </trkpt>
      <trkpt lat="45.42602" lon="3.42065">
        <ele>656.3</ele>
        <time>2020-09-17T12:26:54Z</time>
      </trkpt>
      <trkpt lat="45.42602" lon="3.42063">
        <ele>656.3</ele>
        <time>2020-09-17T12:26:55Z</time>
      </trkpt>
      <trkpt lat="45.42602" lon="3.42062">
        <ele>656.2</ele>
        <time>2020-09-17T12:26:56Z</time>
      </trkpt>
      <trkpt lat="45.42602" lon="3.4206">
        <ele>656.2</ele>
        <time>2020-09-17T12:26:57Z</time>
      </trkpt>
      <trkpt lat="45.42602" lon="3.42059">
        <ele>656.1</ele>
        <time>2020-09-17T12:26:58Z</time>
      </trkpt>
      <trkpt lat="45.42602" lon="3.42057">
        <ele>656.1</ele>
        <time>2020-09-17T12:26:59Z</time>
      </trkpt>
      <trkpt lat="45.42602" lon="3.42056">
        <ele>656</ele>
        <time>2020-09-17T12:27:00Z</time>
      </trkpt>
      <trkpt lat="45.42602" lon="3.42054">
        <ele>655.9</ele>
        <time>2020-09-17T12:27:01Z</time>
      </trkpt>
      <trkpt lat="45.42602" lon="3.42052">
        <ele>655.9</ele>
        <time>2020-09-17T12:27:02Z</time>
      </trkpt>
      <trkpt lat="45.42602" lon="3.42051">
        <ele>655.8</ele>
        <time>2020-09-17T12:27:03Z</time>
      </trkpt>
      <trkpt lat="45.42602" lon="3.42049">
        <ele>655.8</ele>
        <time>2020-09-17T12:27:04Z</time>
      </trkpt>
      <trkpt lat="45.42602" lon="3.42048">
        <ele>655.7</ele>
        <time>2020-09-17T12:27:05Z</time>
      </trkpt>
      <trkpt lat="45.42602" lon="3.42046">
        <ele>655.7</ele>
        <time>2020-09-17T12:27:06Z</time>
      </trkpt>
      <trkpt lat="45.42602" lon="3.42045">
        <ele>655.6</ele>
        <time>2020-09-17T12:27:07Z</time>
      </trkpt>
      <trkpt lat="45.42602" lon="3.42043">
        <ele>655.5</ele>
        <time>2020-09-17T12:27:08Z</time>
      </trkpt>
      <trkpt lat="45.42602" lon="3.42041">
        <ele>655.5</ele>
        <time>2020-09-17T12:27:09Z</time>
      </trkpt>
      <trkpt lat="45.42602" lon="3.4204">
        <ele>655.4</ele>
        <time>2020-09-17T12:27:10Z</time>
      </trkpt>
      <trkpt lat="45.42602" lon="3.42038">
        <ele>655.4</ele>
        <time>2020-09-17T12:27:11Z</time>
      </trkpt>
      <trkpt lat="45.42602" lon="3.42037">
        <ele>655.3</ele>
        <time>2020-09-17T12:27:12Z</time>
      </trkpt>
      <trkpt lat="45.42602" lon="3.42035">
        <ele>655.3</ele>
        <time>2020-09-17T12:27:13Z</time>
      </trkpt>
      <trkpt lat="45.42602" lon="3.42033">
        <ele>655.2</ele>
        <time>2020-09-17T12:27:14Z</time>
      </trkpt>
      <trkpt lat="45.42602" lon="3.42032">
        <ele>655.1</ele>
        <time>2020-09-17T12:27:15Z</time>
      </trkpt>
      <trkpt lat="45.42602" lon="3.4203">
        <ele>655.1</ele>
        <time>2020-09-17T12:27:16Z</time>
      </trkpt>
      <trkpt lat="45.42602" lon="3.42029">
        <ele>655</ele>
        <time>2020-09-17T12:27:17Z</time>
      </trkpt>
      <trkpt lat="45.42602" lon="3.42027">
        <ele>654.9</ele>
        <time>2020-09-17T12:27:18Z</time>
      </trkpt>
      <trkpt lat="45.42602" lon="3.42025">
        <ele>654.8</ele>
        <time>2020-09-17T12:27:19Z</time>
      </trkpt>
      <trkpt lat="45.42602" lon="3.42024">
        <ele>654.7</ele>
        <time>2020-09-17T12:27:20Z</time>
      </trkpt>
      <trkpt lat="45.42602" lon="3.42022">
        <ele>654.6</ele>
        <time>2020-09-17T12:27:21Z</time>
      </trkpt>
      <trkpt lat="45.42602" lon="3.42021">
        <ele>654.5</ele>
        <time>2020-09-17T12:27:22Z</time>
      </trkpt>
      <trkpt lat="45.42602" lon="3.42019">
        <ele>654.4</ele>
        <time>2020-09-17T12:27:23Z</time>
      </trkpt>
      <trkpt lat="45.42602" lon="3.42017">
        <ele>654.2</ele>
        <time>2020-09-17T12:27:24Z</time>
      </trkpt>
      <trkpt lat="45.42602" lon="3.42016">
        <ele>654.1</ele>
        <time>2020-09-17T12:27:25Z</time>
      </trkpt>
      <trkpt lat="45.42602" lon="3.42014">
        <ele>654</ele>
        <time>2020-09-17T12:27:26Z</time>
      </trkpt>
      <trkpt lat="45.42602" lon="3.42013">
        <ele>653.9</ele>
        <time>2020-09-17T12:27:27Z</time>
      </trkpt>
      <trkpt lat="45.42602" lon="3.42011">
        <ele>653.8</ele>
        <time>2020-09-17T12:27:28Z</time>
      </trkpt>
      <trkpt lat="45.42602" lon="3.42009">
        <ele>653.7</ele>
        <time>2020-09-17T12:27:29Z</time>
      </trkpt>
      <trkpt lat="45.42602" lon="3.42008">
        <ele>653.6</ele>
        <time>2020-09-17T12:27:30Z</time>
      </trkpt>
      <trkpt lat="45.42602" lon="3.42006">
        <ele>653.4</ele>
        <time>2020-09-17T12:27:31Z</time>
      </trkpt>
      <trkpt lat="45.42602" lon="3.42005">
        <ele>653.3</ele>
        <time>2020-09-17T12:27:32Z</time>
      </trkpt>
      <trkpt lat="45.42602" lon="3.42003">
        <ele>653.2</ele>
        <time>2020-09-17T12:27:33Z</time>
      </trkpt>
      <trkpt lat="45.42602" lon="3.42002">
        <ele>653.1</ele>
        <time>2020-09-17T12:27:34Z</time>
      </trkpt>
      <trkpt lat="45.42602" lon="3.42">
        <ele>653</ele>
        <time>2020-09-17T12:27:35Z</time>
      </trkpt>
      <trkpt lat="45.42602" lon="3.41998">
        <ele>652.8</ele>
        <time>2020-09-17T12:27:36Z</time>
      </trkpt>
      <trkpt lat="45.42602" lon="3.41997">
        <ele>652.7</ele>
        <time>2020-09-17T12:27:37Z</time>
      </trkpt>
      <trkpt lat="45.42602" lon="3.41995">
        <ele>652.5</ele>
        <time>2020-09-17T12:27:38Z</time>
      </trkpt>
      <trkpt lat="45.42602" lon="3.41994">
        <ele>652.4</ele>
        <time>2020-09-17T12:27:39Z</time>
      </trkpt>
      <trkpt lat="45.42602" lon="3.41992">
        <ele>652.2</ele>
        <time>2020-09-17T12:27:40Z</time>
      </trkpt>
      <trkpt lat="45.42602" lon="3.41991">
        <ele>652.1</ele>
        <time>2020-09-17T12:27:41Z</time>
      </trkpt>
      <trkpt lat="45.42602" lon="3.41989">
        <ele>651.9</ele>
        <time>2020-09-17T12:27:42Z</time>
      </trkpt>
      <trkpt lat="45.42602" lon="3.41987">
        <ele>651.8</ele>
        <time>2020-09-17T12:27:43Z</time>
      </trkpt>
      <trkpt lat="45.42602" lon="3.41986">
        <ele>651.6</ele>
        <time>2020-09-17T12:27:44Z</time>
      </trkpt>
      <trkpt lat="45.42602" lon="3.41984">
        <ele>651.5</ele>
        <time>2020-09-17T12:27:45Z</time>
      </trkpt>
      <trkpt lat="45.42602" lon="3.41983">
        <ele>651.4</ele>
        <time>2020-09-17T12:27:46Z</time>
      </trkpt>
      <trkpt lat="45.42602" lon="3.41981">
        <ele>651.2</ele>
        <time>2020-09-17T12:27:47Z</time>
      </trkpt>
      <trkpt lat="45.42602" lon="3.4198">
        <ele>651.1</ele>
        <time>2020-09-17T12:27:48Z</time>
      </trkpt>
      <trkpt lat="45.42602" lon="3.41979">
        <ele>650.9</ele>
        <time>2020-09-17T12:27:49Z</time>
      </trkpt>
      <trkpt lat="45.42602" lon="3.41978">
        <ele>650.8</ele>
        <time>2020-09-17T12:27:50Z</time>
      </trkpt>
      <trkpt lat="45.42602" lon="3.41976">
        <ele>650.7</ele>
        <time>2020-09-17T12:27:51Z</time>
      </trkpt>
      <trkpt lat="45.42602" lon="3.41975">
        <ele>650.6</ele>
        <time>2020-09-17T12:27:52Z</time>
      </trkpt>
      <trkpt lat="45.42602" lon="3.41975">
        <ele>650.6</ele>
        <time>2020-09-17T12:27:53Z</time>
      </trkpt>
      <trkpt lat="45.42602" lon="3.41975">
        <ele>650.6</ele>
        <time>2020-09-17T12:27:54Z</time>
      </trkpt>
      <trkpt lat="45.42602" lon="3.41975">
        <ele>650.6</ele>
        <time>2020-09-17T12:27:55Z</time>
      </trkpt>
      <trkpt lat="45.42602" lon="3.41975">
        <ele>650.6</ele>
        <time>2020-09-17T12:27:56Z</time>
      </trkpt>
      <trkpt lat="45.42603" lon="3.41974">
        <ele>650.5</ele>
        <time>2020-09-17T12:27:57Z</time>
      </trkpt>
      <trkpt lat="45.42603" lon="3.41973">
        <ele>650.4</ele>
        <time>2020-09-17T12:27:58Z</time>
      </trkpt>
      <trkpt lat="45.42603" lon="3.41972">
        <ele>650.3</ele>
        <time>2020-09-17T12:27:59Z</time>
      </trkpt>
      <trkpt lat="45.42603" lon="3.41971">
        <ele>650.2</ele>
        <time>2020-09-17T12:28:00Z</time>
      </trkpt>
      <trkpt lat="45.42604" lon="3.4197">
        <ele>650.2</ele>
        <time>2020-09-17T12:28:01Z</time>
      </trkpt>
      <trkpt lat="45.42604" lon="3.4197">
        <ele>650.1</ele>
        <time>2020-09-17T12:28:02Z</time>
      </trkpt>
      <trkpt lat="45.42604" lon="3.41969">
        <ele>650.1</ele>
        <time>2020-09-17T12:28:03Z</time>
      </trkpt>
      <trkpt lat="45.42604" lon="3.41968">
        <ele>650.1</ele>
        <time>2020-09-17T12:28:04Z</time>
      </trkpt>
      <trkpt lat="45.42604" lon="3.41967">
        <ele>650</ele>
        <time>2020-09-17T12:28:05Z</time>
      </trkpt>
      <trkpt lat="45.42604" lon="3.41967">
        <ele>650</ele>
        <time>2020-09-17T12:28:06Z</time>
      </trkpt>
      <trkpt lat="45.42604" lon="3.41967">
        <ele>650</ele>
        <time>2020-09-17T12:28:07Z</time>
      </trkpt>
      <trkpt lat="45.42604" lon="3.41967">
        <ele>650</ele>
        <time>2020-09-17T12:28:08Z</time>
      </trkpt>
      <trkpt lat="45.42604" lon="3.41967">
        <ele>650</ele>
        <time>2020-09-17T12:28:09Z</time>
      </trkpt>
      <trkpt lat="45.42604" lon="3.41966">
        <ele>650</ele>
        <time>2020-09-17T12:28:10Z</time>
      </trkpt>
      <trkpt lat="45.42604" lon="3.41966">
        <ele>650</ele>
        <time>2020-09-17T12:28:11Z</time>
      </trkpt>
      <trkpt lat="45.42604" lon="3.41967">
        <ele>650</ele>
        <time>2020-09-17T12:28:12Z</time>
      </trkpt>
      <trkpt lat="45.42653" lon="3.41518">
        <ele>630.5</ele>
        <time>2020-09-17T12:28:13Z</time>
      </trkpt>
      <trkpt lat="45.42653" lon="3.41518">
        <ele>630.4</ele>
        <time>2020-09-17T12:28:14Z</time>
      </trkpt>
      <trkpt lat="45.42653" lon="3.41518">
        <ele>630.4</ele>
        <time>2020-09-17T12:28:15Z</time>
      </trkpt>
      <trkpt lat="45.42653" lon="3.41517">
        <ele>630.4</ele>
        <time>2020-09-17T12:28:16Z</time>
      </trkpt>
      <trkpt lat="45.42653" lon="3.41517">
        <ele>630.4</ele>
        <time>2020-09-17T12:28:17Z</time>
      </trkpt>
      <trkpt lat="45.42652" lon="3.41516">
        <ele>630.4</ele>
        <time>2020-09-17T12:28:18Z</time>
      </trkpt>
      <trkpt lat="45.42652" lon="3.41515">
        <ele>630.3</ele>
        <time>2020-09-17T12:28:19Z</time>
      </trkpt>
      <trkpt lat="45.42651" lon="3.41513">
        <ele>630.3</ele>
        <time>2020-09-17T12:28:20Z</time>
      </trkpt>
      <trkpt lat="45.42651" lon="3.41512">
        <ele>630.2</ele>
        <time>2020-09-17T12:28:21Z</time>
      </trkpt>
      <trkpt lat="45.4265" lon="3.4151">
        <ele>630.2</ele>
        <time>2020-09-17T12:28:22Z</time>
      </trkpt>
      <trkpt lat="45.4265" lon="3.41509">
        <ele>630.1</ele>
        <time>2020-09-17T12:28:23Z</time>
      </trkpt>
      <trkpt lat="45.42649" lon="3.41507">
        <ele>630</ele>
        <time>2020-09-17T12:28:24Z</time>
      </trkpt>
      <trkpt lat="45.42649" lon="3.41506">
        <ele>630</ele>
        <time>2020-09-17T12:28:25Z</time>
      </trkpt>
      <trkpt lat="45.42648" lon="3.41504">
        <ele>629.9</ele>
        <time>2020-09-17T12:28:26Z</time>
      </trkpt>
      <trkpt lat="45.42648" lon="3.41503">
        <ele>629.8</ele>
        <time>2020-09-17T12:28:27Z</time>
      </trkpt>
      <trkpt lat="45.42647" lon="3.41501">
        <ele>629.8</ele>
        <time>2020-09-17T12:28:28Z</time>
      </trkpt>
      <trkpt lat="45.42646" lon="3.415">
        <ele>629.7</ele>
        <time>2020-09-17T12:28:29Z</time>
      </trkpt>
      <trkpt lat="45.42646" lon="3.41498">
        <ele>629.7</ele>
        <time>2020-09-17T12:28:30Z</time>
      </trkpt>
      <trkpt lat="45.42645" lon="3.41497">
        <ele>629.7</ele>
        <time>2020-09-17T12:28:31Z</time>
      </trkpt>
      <trkpt lat="45.42645" lon="3.41496">
        <ele>629.7</ele>
        <time>2020-09-17T12:28:32Z</time>
      </trkpt>
      <trkpt lat="45.42644" lon="3.41496">
        <ele>629.7</ele>
        <time>2020-09-17T12:28:33Z</time>
      </trkpt>
      <trkpt lat="45.42642" lon="3.41495">
        <ele>629.7</ele>
        <time>2020-09-17T12:28:34Z</time>
      </trkpt>
      <trkpt lat="45.42641" lon="3.41495">
        <ele>629.7</ele>
        <time>2020-09-17T12:28:35Z</time>
      </trkpt>
      <trkpt lat="45.4264" lon="3.41495">
        <ele>629.8</ele>
        <time>2020-09-17T12:28:36Z</time>
      </trkpt>
      <trkpt lat="45.42639" lon="3.41495">
        <ele>629.8</ele>
        <time>2020-09-17T12:28:37Z</time>
      </trkpt>
      <trkpt lat="45.42638" lon="3.41495">
        <ele>629.8</ele>
        <time>2020-09-17T12:28:38Z</time>
      </trkpt>
      <trkpt lat="45.42637" lon="3.41496">
        <ele>629.8</ele>
        <time>2020-09-17T12:28:39Z</time>
      </trkpt>
      <trkpt lat="45.42636" lon="3.41497">
        <ele>629.8</ele>
        <time>2020-09-17T12:28:40Z</time>
      </trkpt>
      <trkpt lat="45.42635" lon="3.41497">
        <ele>629.7</ele>
        <time>2020-09-17T12:28:41Z</time>
      </trkpt>
      <trkpt lat="45.42634" lon="3.41498">
        <ele>629.7</ele>
        <time>2020-09-17T12:28:42Z</time>
      </trkpt>
      <trkpt lat="45.42633" lon="3.41499">
        <ele>629.7</ele>
        <time>2020-09-17T12:28:43Z</time>
      </trkpt>
      <trkpt lat="45.42631" lon="3.41499">
        <ele>629.7</ele>
        <time>2020-09-17T12:28:44Z</time>
      </trkpt>
      <trkpt lat="45.4263" lon="3.415">
        <ele>629.7</ele>
        <time>2020-09-17T12:28:45Z</time>
      </trkpt>
      <trkpt lat="45.42629" lon="3.415">
        <ele>629.7</ele>
        <time>2020-09-17T12:28:46Z</time>
      </trkpt>
      <trkpt lat="45.42628" lon="3.41501">
        <ele>629.7</ele>
        <time>2020-09-17T12:28:47Z</time>
      </trkpt>
      <trkpt lat="45.42627" lon="3.41501">
        <ele>629.7</ele>
        <time>2020-09-17T12:28:48Z</time>
      </trkpt>
      <trkpt lat="45.42626" lon="3.41502">
        <ele>629.7</ele>
        <time>2020-09-17T12:28:49Z</time>
      </trkpt>
      <trkpt lat="45.42625" lon="3.41503">
        <ele>629.7</ele>
        <time>2020-09-17T12:28:50Z</time>
      </trkpt>
      <trkpt lat="45.42624" lon="3.41503">
        <ele>629.7</ele>
        <time>2020-09-17T12:28:51Z</time>
      </trkpt>
      <trkpt lat="45.42623" lon="3.41504">
        <ele>629.7</ele>
        <time>2020-09-17T12:28:52Z</time>
      </trkpt>
      <trkpt lat="45.42621" lon="3.41505">
        <ele>629.7</ele>
        <time>2020-09-17T12:28:53Z</time>
      </trkpt>
      <trkpt lat="45.4262" lon="3.41505">
        <ele>629.7</ele>
        <time>2020-09-17T12:28:54Z</time>
      </trkpt>
      <trkpt lat="45.42619" lon="3.41506">
        <ele>629.7</ele>
        <time>2020-09-17T12:28:55Z</time>
      </trkpt>
      <trkpt lat="45.42618" lon="3.41507">
        <ele>629.7</ele>
        <time>2020-09-17T12:28:56Z</time>
      </trkpt>
      <trkpt lat="45.42617" lon="3.41508">
        <ele>629.8</ele>
        <time>2020-09-17T12:28:57Z</time>
      </trkpt>
      <trkpt lat="45.42616" lon="3.41509">
        <ele>629.8</ele>
        <time>2020-09-17T12:28:58Z</time>
      </trkpt>
      <trkpt lat="45.42615" lon="3.41509">
        <ele>629.8</ele>
        <time>2020-09-17T12:28:59Z</time>
      </trkpt>
      <trkpt lat="45.42614" lon="3.4151">
        <ele>629.8</ele>
        <time>2020-09-17T12:29:00Z</time>
      </trkpt>
      <trkpt lat="45.42613" lon="3.41511">
        <ele>629.8</ele>
        <time>2020-09-17T12:29:01Z</time>
      </trkpt>
      <trkpt lat="45.42612" lon="3.41512">
        <ele>629.8</ele>
        <time>2020-09-17T12:29:02Z</time>
      </trkpt>
      <trkpt lat="45.42611" lon="3.41513">
        <ele>629.8</ele>
        <time>2020-09-17T12:29:03Z</time>
      </trkpt>
      <trkpt lat="45.42609" lon="3.41513">
        <ele>629.8</ele>
        <time>2020-09-17T12:29:04Z</time>
      </trkpt>
      <trkpt lat="45.42608" lon="3.41514">
        <ele>629.7</ele>
        <time>2020-09-17T12:29:05Z</time>
      </trkpt>
      <trkpt lat="45.42607" lon="3.41515">
        <ele>629.6</ele>
        <time>2020-09-17T12:29:06Z</time>
      </trkpt>
      <trkpt lat="45.42606" lon="3.41515">
        <ele>629.5</ele>
        <time>2020-09-17T12:29:07Z</time>
      </trkpt>
      <trkpt lat="45.42605" lon="3.41516">
        <ele>629.4</ele>
        <time>2020-09-17T12:29:08Z</time>
      </trkpt>
      <trkpt lat="45.42603" lon="3.41516">
        <ele>629.3</ele>
        <time>2020-09-17T12:29:09Z</time>
      </trkpt>
      <trkpt lat="45.42602" lon="3.41517">
        <ele>629.2</ele>
        <time>2020-09-17T12:29:10Z</time>
      </trkpt>
      <trkpt lat="45.42601" lon="3.41518">
        <ele>629.1</ele>
        <time>2020-09-17T12:29:11Z</time>
      </trkpt>
      <trkpt lat="45.426" lon="3.41519">
        <ele>629</ele>
        <time>2020-09-17T12:29:12Z</time>
      </trkpt>
      <trkpt lat="45.42599" lon="3.41519">
        <ele>628.9</ele>
        <time>2020-09-17T12:29:13Z</time>
      </trkpt>
      <trkpt lat="45.42598" lon="3.4152">
        <ele>628.8</ele>
        <time>2020-09-17T12:29:14Z</time>
      </trkpt>
      <trkpt lat="45.42597" lon="3.41521">
        <ele>628.7</ele>
        <time>2020-09-17T12:29:15Z</time>
      </trkpt>
      <trkpt lat="45.42596" lon="3.41522">
        <ele>628.6</ele>
        <time>2020-09-17T12:29:16Z</time>
      </trkpt>
      <trkpt lat="45.42595" lon="3.41523">
        <ele>628.5</ele>
        <time>2020-09-17T12:29:17Z</time>
      </trkpt>
      <trkpt lat="45.42594" lon="3.41524">
        <ele>628.4</ele>
        <time>2020-09-17T12:29:18Z</time>
      </trkpt>
      <trkpt lat="45.42593" lon="3.41525">
        <ele>628.3</ele>
        <time>2020-09-17T12:29:19Z</time>
      </trkpt>
      <trkpt lat="45.42592" lon="3.41526">
        <ele>628.2</ele>
        <time>2020-09-17T12:29:20Z</time>
      </trkpt>
      <trkpt lat="45.42591" lon="3.41526">
        <ele>628.1</ele>
        <time>2020-09-17T12:29:21Z</time>
      </trkpt>
      <trkpt lat="45.4259" lon="3.41527">
        <ele>627.9</ele>
        <time>2020-09-17T12:29:22Z</time>
      </trkpt>
      <trkpt lat="45.42589" lon="3.41528">
        <ele>627.8</ele>
        <time>2020-09-17T12:29:23Z</time>
      </trkpt>
      <trkpt lat="45.42588" lon="3.41528">
        <ele>627.6</ele>
        <time>2020-09-17T12:29:24Z</time>
      </trkpt>
      <trkpt lat="45.42587" lon="3.41529">
        <ele>627.5</ele>
        <time>2020-09-17T12:29:25Z</time>
      </trkpt>
      <trkpt lat="45.42586" lon="3.4153">
        <ele>627.3</ele>
        <time>2020-09-17T12:29:26Z</time>
      </trkpt>
      <trkpt lat="45.42585" lon="3.4153">
        <ele>627.2</ele>
        <time>2020-09-17T12:29:27Z</time>
      </trkpt>
      <trkpt lat="45.42584" lon="3.41531">
        <ele>627</ele>
        <time>2020-09-17T12:29:28Z</time>
      </trkpt>
      <trkpt lat="45.42583" lon="3.41531">
        <ele>626.8</ele>
        <time>2020-09-17T12:29:29Z</time>
      </trkpt>
      <trkpt lat="45.42582" lon="3.41531">
        <ele>626.7</ele>
        <time>2020-09-17T12:29:30Z</time>
      </trkpt>
      <trkpt lat="45.42581" lon="3.41532">
        <ele>626.5</ele>
        <time>2020-09-17T12:29:31Z</time>
      </trkpt>
      <trkpt lat="45.4258" lon="3.41532">
        <ele>626.3</ele>
        <time>2020-09-17T12:29:32Z</time>
      </trkpt>
      <trkpt lat="45.42579" lon="3.41533">
        <ele>626.1</ele>
        <time>2020-09-17T12:29:33Z</time>
      </trkpt>
      <trkpt lat="45.42578" lon="3.41533">
        <ele>625.9</ele>
        <time>2020-09-17T12:29:34Z</time>
      </trkpt>
      <trkpt lat="45.42576" lon="3.41533">
        <ele>625.7</ele>
        <time>2020-09-17T12:29:35Z</time>
      </trkpt>
      <trkpt lat="45.42575" lon="3.41533">
        <ele>625.5</ele>
        <time>2020-09-17T12:29:36Z</time>
      </trkpt>
      <trkpt lat="45.42574" lon="3.41533">
        <ele>625.3</ele>
        <time>2020-09-17T12:29:37Z</time>
      </trkpt>
      <trkpt lat="45.42573" lon="3.41532">
        <ele>625.1</ele>
        <time>2020-09-17T12:29:38Z</time>
      </trkpt>
      <trkpt lat="45.42572" lon="3.41532">
        <ele>624.9</ele>
        <time>2020-09-17T12:29:39Z</time>
      </trkpt>
      <trkpt lat="45.42571" lon="3.41531">
        <ele>624.7</ele>
        <time>2020-09-17T12:29:40Z</time>
      </trkpt>
      <trkpt lat="45.4257" lon="3.41531">
        <ele>624.5</ele>
        <time>2020-09-17T12:29:41Z</time>
      </trkpt>
      <trkpt lat="45.42569" lon="3.4153">
        <ele>624.3</ele>
        <time>2020-09-17T12:29:42Z</time>
      </trkpt>
      <trkpt lat="45.42568" lon="3.41529">
        <ele>624.1</ele>
        <time>2020-09-17T12:29:43Z</time>
      </trkpt>
      <trkpt lat="45.42567" lon="3.41528">
        <ele>624</ele>
        <time>2020-09-17T12:29:44Z</time>
      </trkpt>
      <trkpt lat="45.42566" lon="3.41527">
        <ele>623.8</ele>
        <time>2020-09-17T12:29:45Z</time>
      </trkpt>
      <trkpt lat="45.42565" lon="3.41526">
        <ele>623.7</ele>
        <time>2020-09-17T12:29:46Z</time>
      </trkpt>
      <trkpt lat="45.42564" lon="3.41525">
        <ele>623.6</ele>
        <time>2020-09-17T12:29:47Z</time>
      </trkpt>
      <trkpt lat="45.42563" lon="3.41524">
        <ele>623.5</ele>
        <time>2020-09-17T12:29:48Z</time>
      </trkpt>
      <trkpt lat="45.42562" lon="3.41523">
        <ele>623.3</ele>
        <time>2020-09-17T12:29:49Z</time>
      </trkpt>
      <trkpt lat="45.42561" lon="3.41522">
        <ele>623.3</ele>
        <time>2020-09-17T12:29:50Z</time>
      </trkpt>
      <trkpt lat="45.4256" lon="3.41522">
        <ele>623.1</ele>
        <time>2020-09-17T12:29:51Z</time>
      </trkpt>
      <trkpt lat="45.42559" lon="3.41521">
        <ele>623</ele>
        <time>2020-09-17T12:29:52Z</time>
      </trkpt>
      <trkpt lat="45.42558" lon="3.4152">
        <ele>622.9</ele>
        <time>2020-09-17T12:29:53Z</time>
      </trkpt>
      <trkpt lat="45.42557" lon="3.41519">
        <ele>622.8</ele>
        <time>2020-09-17T12:29:54Z</time>
      </trkpt>
      <trkpt lat="45.42556" lon="3.41518">
        <ele>622.7</ele>
        <time>2020-09-17T12:29:55Z</time>
      </trkpt>
      <trkpt lat="45.42555" lon="3.41518">
        <ele>622.6</ele>
        <time>2020-09-17T12:29:56Z</time>
      </trkpt>
      <trkpt lat="45.42554" lon="3.41517">
        <ele>622.5</ele>
        <time>2020-09-17T12:29:57Z</time>
      </trkpt>
      <trkpt lat="45.42553" lon="3.41516">
        <ele>622.4</ele>
        <time>2020-09-17T12:29:58Z</time>
      </trkpt>
      <trkpt lat="45.42552" lon="3.41515">
        <ele>622.3</ele>
        <time>2020-09-17T12:29:59Z</time>
      </trkpt>
      <trkpt lat="45.42551" lon="3.41515">
        <ele>622.2</ele>
        <time>2020-09-17T12:30:00Z</time>
      </trkpt>
      <trkpt lat="45.4255" lon="3.41514">
        <ele>622.1</ele>
        <time>2020-09-17T12:30:01Z</time>
      </trkpt>
      <trkpt lat="45.42549" lon="3.41513">
        <ele>621.9</ele>
        <time>2020-09-17T12:30:02Z</time>
      </trkpt>
      <trkpt lat="45.42548" lon="3.41513">
        <ele>621.8</ele>
        <time>2020-09-17T12:30:03Z</time>
      </trkpt>
      <trkpt lat="45.42547" lon="3.41512">
        <ele>621.7</ele>
        <time>2020-09-17T12:30:04Z</time>
      </trkpt>
      <trkpt lat="45.42545" lon="3.41512">
        <ele>621.5</ele>
        <time>2020-09-17T12:30:05Z</time>
      </trkpt>
      <trkpt lat="45.42544" lon="3.41511">
        <ele>621.4</ele>
        <time>2020-09-17T12:30:06Z</time>
      </trkpt>
      <trkpt lat="45.42543" lon="3.41511">
        <ele>621.3</ele>
        <time>2020-09-17T12:30:07Z</time>
      </trkpt>
      <trkpt lat="45.42542" lon="3.4151">
        <ele>621.1</ele>
        <time>2020-09-17T12:30:08Z</time>
      </trkpt>
      <trkpt lat="45.42541" lon="3.4151">
        <ele>621</ele>
        <time>2020-09-17T12:30:09Z</time>
      </trkpt>
      <trkpt lat="45.4254" lon="3.4151">
        <ele>620.8</ele>
        <time>2020-09-17T12:30:10Z</time>
      </trkpt>
      <trkpt lat="45.42539" lon="3.41509">
        <ele>620.7</ele>
        <time>2020-09-17T12:30:11Z</time>
      </trkpt>
      <trkpt lat="45.42537" lon="3.41509">
        <ele>620.5</ele>
        <time>2020-09-17T12:30:12Z</time>
      </trkpt>
      <trkpt lat="45.42536" lon="3.41508">
        <ele>620.4</ele>
        <time>2020-09-17T12:30:13Z</time>
      </trkpt>
      <trkpt lat="45.42535" lon="3.41508">
        <ele>620.3</ele>
        <time>2020-09-17T12:30:14Z</time>
      </trkpt>
      <trkpt lat="45.42534" lon="3.41508">
        <ele>620.1</ele>
        <time>2020-09-17T12:30:15Z</time>
      </trkpt>
      <trkpt lat="45.42533" lon="3.41507">
        <ele>620</ele>
        <time>2020-09-17T12:30:16Z</time>
      </trkpt>
      <trkpt lat="45.42532" lon="3.41507">
        <ele>619.8</ele>
        <time>2020-09-17T12:30:17Z</time>
      </trkpt>
      <trkpt lat="45.42531" lon="3.41507">
        <ele>619.7</ele>
        <time>2020-09-17T12:30:18Z</time>
      </trkpt>
      <trkpt lat="45.42529" lon="3.41507">
        <ele>619.5</ele>
        <time>2020-09-17T12:30:19Z</time>
      </trkpt>
      <trkpt lat="45.42528" lon="3.41506">
        <ele>619.4</ele>
        <time>2020-09-17T12:30:20Z</time>
      </trkpt>
      <trkpt lat="45.42527" lon="3.41506">
        <ele>619.3</ele>
        <time>2020-09-17T12:30:21Z</time>
      </trkpt>
      <trkpt lat="45.42526" lon="3.41506">
        <ele>619.1</ele>
        <time>2020-09-17T12:30:22Z</time>
      </trkpt>
      <trkpt lat="45.42525" lon="3.41505">
        <ele>618.9</ele>
        <time>2020-09-17T12:30:23Z</time>
      </trkpt>
      <trkpt lat="45.42524" lon="3.41505">
        <ele>618.7</ele>
        <time>2020-09-17T12:30:24Z</time>
      </trkpt>
      <trkpt lat="45.42523" lon="3.41505">
        <ele>618.5</ele>
        <time>2020-09-17T12:30:25Z</time>
      </trkpt>
      <trkpt lat="45.42522" lon="3.41505">
        <ele>618.3</ele>
        <time>2020-09-17T12:30:26Z</time>
      </trkpt>
      <trkpt lat="45.4252" lon="3.41504">
        <ele>618.2</ele>
        <time>2020-09-17T12:30:27Z</time>
      </trkpt>
      <trkpt lat="45.42519" lon="3.41504">
        <ele>618</ele>
        <time>2020-09-17T12:30:28Z</time>
      </trkpt>
      <trkpt lat="45.42518" lon="3.41504">
        <ele>617.8</ele>
        <time>2020-09-17T12:30:29Z</time>
      </trkpt>
      <trkpt lat="45.42517" lon="3.41504">
        <ele>617.6</ele>
        <time>2020-09-17T12:30:30Z</time>
      </trkpt>
      <trkpt lat="45.42516" lon="3.41504">
        <ele>617.4</ele>
        <time>2020-09-17T12:30:31Z</time>
      </trkpt>
      <trkpt lat="45.42515" lon="3.41503">
        <ele>617.3</ele>
        <time>2020-09-17T12:30:32Z</time>
      </trkpt>
      <trkpt lat="45.42514" lon="3.41503">
        <ele>617.1</ele>
        <time>2020-09-17T12:30:33Z</time>
      </trkpt>
      <trkpt lat="45.42513" lon="3.41503">
        <ele>616.9</ele>
        <time>2020-09-17T12:30:34Z</time>
      </trkpt>
      <trkpt lat="45.42512" lon="3.41503">
        <ele>616.7</ele>
        <time>2020-09-17T12:30:35Z</time>
      </trkpt>
      <trkpt lat="45.4251" lon="3.41503">
        <ele>616.5</ele>
        <time>2020-09-17T12:30:36Z</time>
      </trkpt>
      <trkpt lat="45.42509" lon="3.41502">
        <ele>616.3</ele>
        <time>2020-09-17T12:30:37Z</time>
      </trkpt>
      <trkpt lat="45.42508" lon="3.41502">
        <ele>616.2</ele>
        <time>2020-09-17T12:30:38Z</time>
      </trkpt>
      <trkpt lat="45.42507" lon="3.41502">
        <ele>616</ele>
        <time>2020-09-17T12:30:39Z</time>
      </trkpt>
      <trkpt lat="45.42506" lon="3.41502">
        <ele>615.8</ele>
        <time>2020-09-17T12:30:40Z</time>
      </trkpt>
      <trkpt lat="45.42505" lon="3.41502">
        <ele>615.6</ele>
        <time>2020-09-17T12:30:41Z</time>
      </trkpt>
      <trkpt lat="45.42503" lon="3.41502">
        <ele>615.4</ele>
        <time>2020-09-17T12:30:42Z</time>
      </trkpt>
      <trkpt lat="45.42502" lon="3.41502">
        <ele>615.2</ele>
        <time>2020-09-17T12:30:43Z</time>
      </trkpt>
      <trkpt lat="45.42501" lon="3.41502">
        <ele>615</ele>
        <time>2020-09-17T12:30:44Z</time>
      </trkpt>
      <trkpt lat="45.425" lon="3.41501">
        <ele>614.8</ele>
        <time>2020-09-17T12:30:45Z</time>
      </trkpt>
      <trkpt lat="45.42498" lon="3.41501">
        <ele>614.6</ele>
        <time>2020-09-17T12:30:46Z</time>
      </trkpt>
      <trkpt lat="45.42497" lon="3.41501">
        <ele>614.4</ele>
        <time>2020-09-17T12:30:47Z</time>
      </trkpt>
      <trkpt lat="45.42496" lon="3.41501">
        <ele>614.2</ele>
        <time>2020-09-17T12:30:48Z</time>
      </trkpt>
      <trkpt lat="45.42494" lon="3.41501">
        <ele>614</ele>
        <time>2020-09-17T12:30:49Z</time>
      </trkpt>
      <trkpt lat="45.42493" lon="3.41501">
        <ele>613.8</ele>
        <time>2020-09-17T12:30:50Z</time>
      </trkpt>
      <trkpt lat="45.42492" lon="3.41501">
        <ele>613.6</ele>
        <time>2020-09-17T12:30:51Z</time>
      </trkpt>
      <trkpt lat="45.42491" lon="3.41501">
        <ele>613.5</ele>
        <time>2020-09-17T12:30:52Z</time>
      </trkpt>
      <trkpt lat="45.42489" lon="3.41501">
        <ele>613.3</ele>
        <time>2020-09-17T12:30:53Z</time>
      </trkpt>
      <trkpt lat="45.42488" lon="3.41501">
        <ele>613.2</ele>
        <time>2020-09-17T12:30:54Z</time>
      </trkpt>
      <trkpt lat="45.42487" lon="3.415">
        <ele>613</ele>
        <time>2020-09-17T12:30:55Z</time>
      </trkpt>
      <trkpt lat="45.42485" lon="3.415">
        <ele>612.8</ele>
        <time>2020-09-17T12:30:56Z</time>
      </trkpt>
      <trkpt lat="45.42484" lon="3.415">
        <ele>612.7</ele>
        <time>2020-09-17T12:30:57Z</time>
      </trkpt>
      <trkpt lat="45.42483" lon="3.415">
        <ele>612.5</ele>
        <time>2020-09-17T12:30:58Z</time>
      </trkpt>
      <trkpt lat="45.42481" lon="3.415">
        <ele>612.3</ele>
        <time>2020-09-17T12:30:59Z</time>
      </trkpt>
      <trkpt lat="45.4248" lon="3.415">
        <ele>612.2</ele>
        <time>2020-09-17T12:31:00Z</time>
      </trkpt>
      <trkpt lat="45.42479" lon="3.415">
        <ele>612</ele>
        <time>2020-09-17T12:31:01Z</time>
      </trkpt>
      <trkpt lat="45.42478" lon="3.415">
        <ele>611.8</ele>
        <time>2020-09-17T12:31:02Z</time>
      </trkpt>
      <trkpt lat="45.42476" lon="3.415">
        <ele>611.5</ele>
        <time>2020-09-17T12:31:03Z</time>
      </trkpt>
      <trkpt lat="45.42475" lon="3.415">
        <ele>611.4</ele>
        <time>2020-09-17T12:31:04Z</time>
      </trkpt>
      <trkpt lat="45.42474" lon="3.415">
        <ele>611.2</ele>
        <time>2020-09-17T12:31:05Z</time>
      </trkpt>
      <trkpt lat="45.42473" lon="3.415">
        <ele>611</ele>
        <time>2020-09-17T12:31:06Z</time>
      </trkpt>
      <trkpt lat="45.42471" lon="3.415">
        <ele>610.9</ele>
        <time>2020-09-17T12:31:07Z</time>
      </trkpt>
      <trkpt lat="45.4247" lon="3.415">
        <ele>610.8</ele>
        <time>2020-09-17T12:31:08Z</time>
      </trkpt>
      <trkpt lat="45.42469" lon="3.415">
        <ele>610.6</ele>
        <time>2020-09-17T12:31:09Z</time>
      </trkpt>
      <trkpt lat="45.42468" lon="3.415">
        <ele>610.5</ele>
        <time>2020-09-17T12:31:10Z</time>
      </trkpt>
      <trkpt lat="45.42466" lon="3.415">
        <ele>610.3</ele>
        <time>2020-09-17T12:31:11Z</time>
      </trkpt>
      <trkpt lat="45.42465" lon="3.415">
        <ele>610.2</ele>
        <time>2020-09-17T12:31:12Z</time>
      </trkpt>
      <trkpt lat="45.42464" lon="3.415">
        <ele>610.1</ele>
        <time>2020-09-17T12:31:13Z</time>
      </trkpt>
      <trkpt lat="45.42462" lon="3.415">
        <ele>610</ele>
        <time>2020-09-17T12:31:14Z</time>
      </trkpt>
      <trkpt lat="45.42461" lon="3.415">
        <ele>609.8</ele>
        <time>2020-09-17T12:31:15Z</time>
      </trkpt>
      <trkpt lat="45.4246" lon="3.415">
        <ele>609.7</ele>
        <time>2020-09-17T12:31:16Z</time>
      </trkpt>
      <trkpt lat="45.42459" lon="3.415">
        <ele>609.5</ele>
        <time>2020-09-17T12:31:17Z</time>
      </trkpt>
      <trkpt lat="45.42458" lon="3.415">
        <ele>609.4</ele>
        <time>2020-09-17T12:31:18Z</time>
      </trkpt>
      <trkpt lat="45.42456" lon="3.415">
        <ele>609.3</ele>
        <time>2020-09-17T12:31:19Z</time>
      </trkpt>
      <trkpt lat="45.42455" lon="3.415">
        <ele>609.1</ele>
        <time>2020-09-17T12:31:20Z</time>
      </trkpt>
      <trkpt lat="45.42454" lon="3.415">
        <ele>609.1</ele>
        <time>2020-09-17T12:31:21Z</time>
      </trkpt>
      <trkpt lat="45.42453" lon="3.415">
        <ele>608.9</ele>
        <time>2020-09-17T12:31:22Z</time>
      </trkpt>
      <trkpt lat="45.42452" lon="3.415">
        <ele>608.8</ele>
        <time>2020-09-17T12:31:23Z</time>
      </trkpt>
      <trkpt lat="45.4245" lon="3.415">
        <ele>608.7</ele>
        <time>2020-09-17T12:31:24Z</time>
      </trkpt>
      <trkpt lat="45.42449" lon="3.415">
        <ele>608.5</ele>
        <time>2020-09-17T12:31:25Z</time>
      </trkpt>
      <trkpt lat="45.42448" lon="3.415">
        <ele>608.4</ele>
        <time>2020-09-17T12:31:26Z</time>
      </trkpt>
      <trkpt lat="45.42447" lon="3.415">
        <ele>608.3</ele>
        <time>2020-09-17T12:31:27Z</time>
      </trkpt>
      <trkpt lat="45.42445" lon="3.415">
        <ele>608.2</ele>
        <time>2020-09-17T12:31:28Z</time>
      </trkpt>
      <trkpt lat="45.42444" lon="3.415">
        <ele>608.1</ele>
        <time>2020-09-17T12:31:29Z</time>
      </trkpt>
      <trkpt lat="45.42443" lon="3.415">
        <ele>607.9</ele>
        <time>2020-09-17T12:31:30Z</time>
      </trkpt>
      <trkpt lat="45.42442" lon="3.415">
        <ele>607.8</ele>
        <time>2020-09-17T12:31:31Z</time>
      </trkpt>
      <trkpt lat="45.4244" lon="3.415">
        <ele>607.7</ele>
        <time>2020-09-17T12:31:32Z</time>
      </trkpt>
      <trkpt lat="45.42439" lon="3.415">
        <ele>607.6</ele>
        <time>2020-09-17T12:31:33Z</time>
      </trkpt>
      <trkpt lat="45.42438" lon="3.415">
        <ele>607.5</ele>
        <time>2020-09-17T12:31:34Z</time>
      </trkpt>
      <trkpt lat="45.42437" lon="3.415">
        <ele>607.3</ele>
        <time>2020-09-17T12:31:35Z</time>
      </trkpt>
      <trkpt lat="45.42436" lon="3.41499">
        <ele>607.3</ele>
        <time>2020-09-17T12:31:36Z</time>
      </trkpt>
      <trkpt lat="45.42435" lon="3.41499">
        <ele>607.1</ele>
        <time>2020-09-17T12:31:37Z</time>
      </trkpt>
      <trkpt lat="45.42433" lon="3.41499">
        <ele>607.1</ele>
        <time>2020-09-17T12:31:38Z</time>
      </trkpt>
      <trkpt lat="45.42432" lon="3.41499">
        <ele>607</ele>
        <time>2020-09-17T12:31:39Z</time>
      </trkpt>
      <trkpt lat="45.42431" lon="3.41499">
        <ele>606.8</ele>
        <time>2020-09-17T12:31:40Z</time>
      </trkpt>
      <trkpt lat="45.4243" lon="3.41499">
        <ele>606.8</ele>
        <time>2020-09-17T12:31:41Z</time>
      </trkpt>
      <trkpt lat="45.42429" lon="3.41499">
        <ele>606.5</ele>
        <time>2020-09-17T12:31:42Z</time>
      </trkpt>
      <trkpt lat="45.42427" lon="3.41499">
        <ele>606.4</ele>
        <time>2020-09-17T12:31:43Z</time>
      </trkpt>
      <trkpt lat="45.42426" lon="3.415">
        <ele>606.1</ele>
        <time>2020-09-17T12:31:44Z</time>
      </trkpt>
      <trkpt lat="45.42425" lon="3.415">
        <ele>606</ele>
        <time>2020-09-17T12:31:45Z</time>
      </trkpt>
      <trkpt lat="45.42424" lon="3.415">
        <ele>605.9</ele>
        <time>2020-09-17T12:31:46Z</time>
      </trkpt>
      <trkpt lat="45.42423" lon="3.415">
        <ele>605.8</ele>
        <time>2020-09-17T12:31:47Z</time>
      </trkpt>
      <trkpt lat="45.42422" lon="3.41499">
        <ele>605.8</ele>
        <time>2020-09-17T12:31:48Z</time>
      </trkpt>
      <trkpt lat="45.4242" lon="3.41499">
        <ele>605.7</ele>
        <time>2020-09-17T12:31:49Z</time>
      </trkpt>
      <trkpt lat="45.42419" lon="3.41499">
        <ele>605.6</ele>
        <time>2020-09-17T12:31:50Z</time>
      </trkpt>
      <trkpt lat="45.42418" lon="3.41499">
        <ele>605.4</ele>
        <time>2020-09-17T12:31:51Z</time>
      </trkpt>
      <trkpt lat="45.42416" lon="3.41499">
        <ele>605.2</ele>
        <time>2020-09-17T12:31:52Z</time>
      </trkpt>
      <trkpt lat="45.42415" lon="3.41499">
        <ele>605</ele>
        <time>2020-09-17T12:31:53Z</time>
      </trkpt>
      <trkpt lat="45.42414" lon="3.41499">
        <ele>604.9</ele>
        <time>2020-09-17T12:31:54Z</time>
      </trkpt>
      <trkpt lat="45.42413" lon="3.415">
        <ele>604.7</ele>
        <time>2020-09-17T12:31:55Z</time>
      </trkpt>
      <trkpt lat="45.42411" lon="3.415">
        <ele>604.4</ele>
        <time>2020-09-17T12:31:56Z</time>
      </trkpt>
      <trkpt lat="45.4241" lon="3.415">
        <ele>604.2</ele>
        <time>2020-09-17T12:31:57Z</time>
      </trkpt>
      <trkpt lat="45.42409" lon="3.41501">
        <ele>604</ele>
        <time>2020-09-17T12:31:58Z</time>
      </trkpt>
      <trkpt lat="45.42408" lon="3.41501">
        <ele>603.9</ele>
        <time>2020-09-17T12:31:59Z</time>
      </trkpt>
      <trkpt lat="45.42407" lon="3.41501">
        <ele>603.7</ele>
        <time>2020-09-17T12:32:00Z</time>
      </trkpt>
      <trkpt lat="45.42405" lon="3.41501">
        <ele>603.5</ele>
        <time>2020-09-17T12:32:01Z</time>
      </trkpt>
      <trkpt lat="45.42404" lon="3.41501">
        <ele>603.4</ele>
        <time>2020-09-17T12:32:02Z</time>
      </trkpt>
      <trkpt lat="45.42403" lon="3.41502">
        <ele>603.2</ele>
        <time>2020-09-17T12:32:03Z</time>
      </trkpt>
      <trkpt lat="45.42402" lon="3.41502">
        <ele>603</ele>
        <time>2020-09-17T12:32:04Z</time>
      </trkpt>
      <trkpt lat="45.42401" lon="3.41503">
        <ele>602.7</ele>
        <time>2020-09-17T12:32:05Z</time>
      </trkpt>
      <trkpt lat="45.42399" lon="3.41503">
        <ele>602.5</ele>
        <time>2020-09-17T12:32:06Z</time>
      </trkpt>
      <trkpt lat="45.42398" lon="3.41503">
        <ele>602.3</ele>
        <time>2020-09-17T12:32:07Z</time>
      </trkpt>
      <trkpt lat="45.42397" lon="3.41504">
        <ele>602.1</ele>
        <time>2020-09-17T12:32:08Z</time>
      </trkpt>
      <trkpt lat="45.42396" lon="3.41504">
        <ele>601.9</ele>
        <time>2020-09-17T12:32:09Z</time>
      </trkpt>
      <trkpt lat="45.42394" lon="3.41504">
        <ele>601.7</ele>
        <time>2020-09-17T12:32:10Z</time>
      </trkpt>
      <trkpt lat="45.42393" lon="3.41505">
        <ele>601.5</ele>
        <time>2020-09-17T12:32:11Z</time>
      </trkpt>
      <trkpt lat="45.42392" lon="3.41505">
        <ele>601.3</ele>
        <time>2020-09-17T12:32:12Z</time>
      </trkpt>
      <trkpt lat="45.42391" lon="3.41505">
        <ele>601.1</ele>
        <time>2020-09-17T12:32:13Z</time>
      </trkpt>
      <trkpt lat="45.4239" lon="3.41505">
        <ele>600.9</ele>
        <time>2020-09-17T12:32:14Z</time>
      </trkpt>
      <trkpt lat="45.42389" lon="3.41506">
        <ele>600.8</ele>
        <time>2020-09-17T12:32:15Z</time>
      </trkpt>
      <trkpt lat="45.42387" lon="3.41506">
        <ele>600.7</ele>
        <time>2020-09-17T12:32:16Z</time>
      </trkpt>
      <trkpt lat="45.42386" lon="3.41506">
        <ele>600.5</ele>
        <time>2020-09-17T12:32:17Z</time>
      </trkpt>
      <trkpt lat="45.42385" lon="3.41506">
        <ele>600.4</ele>
        <time>2020-09-17T12:32:18Z</time>
      </trkpt>
      <trkpt lat="45.42384" lon="3.41506">
        <ele>600.2</ele>
        <time>2020-09-17T12:32:19Z</time>
      </trkpt>
      <trkpt lat="45.42383" lon="3.41507">
        <ele>600.1</ele>
        <time>2020-09-17T12:32:20Z</time>
      </trkpt>
      <trkpt lat="45.42382" lon="3.41507">
        <ele>600</ele>
        <time>2020-09-17T12:32:21Z</time>
      </trkpt>
      <trkpt lat="45.4238" lon="3.41507">
        <ele>599.8</ele>
        <time>2020-09-17T12:32:22Z</time>
      </trkpt>
      <trkpt lat="45.42379" lon="3.41507">
        <ele>599.7</ele>
        <time>2020-09-17T12:32:23Z</time>
      </trkpt>
      <trkpt lat="45.42378" lon="3.41507">
        <ele>599.5</ele>
        <time>2020-09-17T12:32:24Z</time>
      </trkpt>
      <trkpt lat="45.42377" lon="3.41508">
        <ele>599.4</ele>
        <time>2020-09-17T12:32:25Z</time>
      </trkpt>
      <trkpt lat="45.42376" lon="3.41508">
        <ele>599.3</ele>
        <time>2020-09-17T12:32:26Z</time>
      </trkpt>
      <trkpt lat="45.42375" lon="3.41508">
        <ele>599.2</ele>
        <time>2020-09-17T12:32:27Z</time>
      </trkpt>
      <trkpt lat="45.42374" lon="3.41508">
        <ele>599</ele>
        <time>2020-09-17T12:32:28Z</time>
      </trkpt>
      <trkpt lat="45.42373" lon="3.41508">
        <ele>598.9</ele>
        <time>2020-09-17T12:32:29Z</time>
      </trkpt>
      <trkpt lat="45.42372" lon="3.41508">
        <ele>598.8</ele>
        <time>2020-09-17T12:32:30Z</time>
      </trkpt>
      <trkpt lat="45.4237" lon="3.41508">
        <ele>598.7</ele>
        <time>2020-09-17T12:32:31Z</time>
      </trkpt>
      <trkpt lat="45.42369" lon="3.41509">
        <ele>598.5</ele>
        <time>2020-09-17T12:32:32Z</time>
      </trkpt>
      <trkpt lat="45.42368" lon="3.41509">
        <ele>598.4</ele>
        <time>2020-09-17T12:32:33Z</time>
      </trkpt>
      <trkpt lat="45.42367" lon="3.41509">
        <ele>598.3</ele>
        <time>2020-09-17T12:32:34Z</time>
      </trkpt>
      <trkpt lat="45.42366" lon="3.41509">
        <ele>598.2</ele>
        <time>2020-09-17T12:32:35Z</time>
      </trkpt>
      <trkpt lat="45.42365" lon="3.41509">
        <ele>598.1</ele>
        <time>2020-09-17T12:32:36Z</time>
      </trkpt>
      <trkpt lat="45.42363" lon="3.41509">
        <ele>598</ele>
        <time>2020-09-17T12:32:37Z</time>
      </trkpt>
      <trkpt lat="45.42362" lon="3.41509">
        <ele>597.9</ele>
        <time>2020-09-17T12:32:38Z</time>
      </trkpt>
      <trkpt lat="45.42361" lon="3.41509">
        <ele>597.8</ele>
        <time>2020-09-17T12:32:39Z</time>
      </trkpt>
      <trkpt lat="45.4236" lon="3.41509">
        <ele>597.6</ele>
        <time>2020-09-17T12:32:40Z</time>
      </trkpt>
      <trkpt lat="45.42359" lon="3.4151">
        <ele>597.4</ele>
        <time>2020-09-17T12:32:41Z</time>
      </trkpt>
      <trkpt lat="45.42357" lon="3.4151">
        <ele>597.2</ele>
        <time>2020-09-17T12:32:42Z</time>
      </trkpt>
      <trkpt lat="45.42356" lon="3.4151">
        <ele>597</ele>
        <time>2020-09-17T12:32:43Z</time>
      </trkpt>
      <trkpt lat="45.42355" lon="3.4151">
        <ele>596.9</ele>
        <time>2020-09-17T12:32:44Z</time>
      </trkpt>
      <trkpt lat="45.42353" lon="3.4151">
        <ele>596.7</ele>
        <time>2020-09-17T12:32:45Z</time>
      </trkpt>
      <trkpt lat="45.42352" lon="3.41511">
        <ele>596.5</ele>
        <time>2020-09-17T12:32:46Z</time>
      </trkpt>
      <trkpt lat="45.42351" lon="3.41511">
        <ele>596.3</ele>
        <time>2020-09-17T12:32:47Z</time>
      </trkpt>
      <trkpt lat="45.42349" lon="3.41511">
        <ele>596.1</ele>
        <time>2020-09-17T12:32:48Z</time>
      </trkpt>
      <trkpt lat="45.42348" lon="3.41511">
        <ele>595.9</ele>
        <time>2020-09-17T12:32:49Z</time>
      </trkpt>
      <trkpt lat="45.42347" lon="3.41512">
        <ele>595.7</ele>
        <time>2020-09-17T12:32:50Z</time>
      </trkpt>
      <trkpt lat="45.42345" lon="3.41512">
        <ele>595.5</ele>
        <time>2020-09-17T12:32:51Z</time>
      </trkpt>
      <trkpt lat="45.42344" lon="3.41512">
        <ele>595.3</ele>
        <time>2020-09-17T12:32:52Z</time>
      </trkpt>
      <trkpt lat="45.42343" lon="3.41513">
        <ele>595.1</ele>
        <time>2020-09-17T12:32:53Z</time>
      </trkpt>
      <trkpt lat="45.42341" lon="3.41513">
        <ele>594.9</ele>
        <time>2020-09-17T12:32:54Z</time>
      </trkpt>
      <trkpt lat="45.4234" lon="3.41513">
        <ele>594.7</ele>
        <time>2020-09-17T12:32:55Z</time>
      </trkpt>
      <trkpt lat="45.42338" lon="3.41514">
        <ele>594.5</ele>
        <time>2020-09-17T12:32:56Z</time>
      </trkpt>
      <trkpt lat="45.42337" lon="3.41514">
        <ele>594.4</ele>
        <time>2020-09-17T12:32:57Z</time>
      </trkpt>
      <trkpt lat="45.42336" lon="3.41514">
        <ele>594.2</ele>
        <time>2020-09-17T12:32:58Z</time>
      </trkpt>
      <trkpt lat="45.42335" lon="3.41514">
        <ele>594</ele>
        <time>2020-09-17T12:32:59Z</time>
      </trkpt>
      <trkpt lat="45.42333" lon="3.41515">
        <ele>593.8</ele>
        <time>2020-09-17T12:33:00Z</time>
      </trkpt>
      <trkpt lat="45.42332" lon="3.41515">
        <ele>593.7</ele>
        <time>2020-09-17T12:33:01Z</time>
      </trkpt>
      <trkpt lat="45.42331" lon="3.41516">
        <ele>593.6</ele>
        <time>2020-09-17T12:33:02Z</time>
      </trkpt>
      <trkpt lat="45.42329" lon="3.41516">
        <ele>593.4</ele>
        <time>2020-09-17T12:33:03Z</time>
      </trkpt>
      <trkpt lat="45.42328" lon="3.41516">
        <ele>593.3</ele>
        <time>2020-09-17T12:33:04Z</time>
      </trkpt>
      <trkpt lat="45.42327" lon="3.41517">
        <ele>593.2</ele>
        <time>2020-09-17T12:33:05Z</time>
      </trkpt>
      <trkpt lat="45.42325" lon="3.41517">
        <ele>593</ele>
        <time>2020-09-17T12:33:06Z</time>
      </trkpt>
      <trkpt lat="45.42324" lon="3.41518">
        <ele>592.8</ele>
        <time>2020-09-17T12:33:07Z</time>
      </trkpt>
      <trkpt lat="45.42322" lon="3.41518">
        <ele>592.7</ele>
        <time>2020-09-17T12:33:08Z</time>
      </trkpt>
      <trkpt lat="45.42321" lon="3.41519">
        <ele>592.5</ele>
        <time>2020-09-17T12:33:09Z</time>
      </trkpt>
      <trkpt lat="45.4232" lon="3.41519">
        <ele>592.3</ele>
        <time>2020-09-17T12:33:10Z</time>
      </trkpt>
      <trkpt lat="45.42318" lon="3.4152">
        <ele>592.1</ele>
        <time>2020-09-17T12:33:11Z</time>
      </trkpt>
      <trkpt lat="45.42317" lon="3.4152">
        <ele>591.9</ele>
        <time>2020-09-17T12:33:12Z</time>
      </trkpt>
      <trkpt lat="45.42316" lon="3.41521">
        <ele>591.7</ele>
        <time>2020-09-17T12:33:13Z</time>
      </trkpt>
      <trkpt lat="45.42314" lon="3.41521">
        <ele>591.5</ele>
        <time>2020-09-17T12:33:14Z</time>
      </trkpt>
      <trkpt lat="45.42313" lon="3.41522">
        <ele>591.4</ele>
        <time>2020-09-17T12:33:15Z</time>
      </trkpt>
      <trkpt lat="45.42312" lon="3.41522">
        <ele>591.2</ele>
        <time>2020-09-17T12:33:16Z</time>
      </trkpt>
      <trkpt lat="45.4231" lon="3.41522">
        <ele>591</ele>
        <time>2020-09-17T12:33:17Z</time>
      </trkpt>
      <trkpt lat="45.42309" lon="3.41523">
        <ele>590.8</ele>
        <time>2020-09-17T12:33:18Z</time>
      </trkpt>
      <trkpt lat="45.42308" lon="3.41523">
        <ele>590.6</ele>
        <time>2020-09-17T12:33:19Z</time>
      </trkpt>
      <trkpt lat="45.42306" lon="3.41524">
        <ele>590.4</ele>
        <time>2020-09-17T12:33:20Z</time>
      </trkpt>
      <trkpt lat="45.42305" lon="3.41524">
        <ele>590.2</ele>
        <time>2020-09-17T12:33:21Z</time>
      </trkpt>
      <trkpt lat="45.42304" lon="3.41524">
        <ele>589.8</ele>
        <time>2020-09-17T12:33:22Z</time>
      </trkpt>
      <trkpt lat="45.42302" lon="3.41525">
        <ele>589.5</ele>
        <time>2020-09-17T12:33:23Z</time>
      </trkpt>
      <trkpt lat="45.42301" lon="3.41525">
        <ele>589.3</ele>
        <time>2020-09-17T12:33:24Z</time>
      </trkpt>
      <trkpt lat="45.423" lon="3.41525">
        <ele>589</ele>
        <time>2020-09-17T12:33:25Z</time>
      </trkpt>
      <trkpt lat="45.42298" lon="3.41525">
        <ele>588.7</ele>
        <time>2020-09-17T12:33:26Z</time>
      </trkpt>
      <trkpt lat="45.42297" lon="3.41525">
        <ele>588.5</ele>
        <time>2020-09-17T12:33:27Z</time>
      </trkpt>
      <trkpt lat="45.42296" lon="3.41526">
        <ele>588.3</ele>
        <time>2020-09-17T12:33:28Z</time>
      </trkpt>
      <trkpt lat="45.42294" lon="3.41526">
        <ele>588</ele>
        <time>2020-09-17T12:33:29Z</time>
      </trkpt>
      <trkpt lat="45.42293" lon="3.41526">
        <ele>587.9</ele>
        <time>2020-09-17T12:33:30Z</time>
      </trkpt>
      <trkpt lat="45.42291" lon="3.41526">
        <ele>587.6</ele>
        <time>2020-09-17T12:33:31Z</time>
      </trkpt>
      <trkpt lat="45.4229" lon="3.41526">
        <ele>587.3</ele>
        <time>2020-09-17T12:33:32Z</time>
      </trkpt>
      <trkpt lat="45.42288" lon="3.41526">
        <ele>587</ele>
        <time>2020-09-17T12:33:33Z</time>
      </trkpt>
      <trkpt lat="45.42287" lon="3.41526">
        <ele>586.7</ele>
        <time>2020-09-17T12:33:34Z</time>
      </trkpt>
      <trkpt lat="45.42285" lon="3.41526">
        <ele>586.6</ele>
        <time>2020-09-17T12:33:35Z</time>
      </trkpt>
      <trkpt lat="45.42284" lon="3.41526">
        <ele>586.4</ele>
        <time>2020-09-17T12:33:36Z</time>
      </trkpt>
      <trkpt lat="45.42283" lon="3.41527">
        <ele>586.1</ele>
        <time>2020-09-17T12:33:37Z</time>
      </trkpt>
      <trkpt lat="45.42281" lon="3.41527">
        <ele>585.9</ele>
        <time>2020-09-17T12:33:38Z</time>
      </trkpt>
      <trkpt lat="45.4228" lon="3.41526">
        <ele>585.8</ele>
        <time>2020-09-17T12:33:39Z</time>
      </trkpt>
      <trkpt lat="45.42278" lon="3.41526">
        <ele>585.7</ele>
        <time>2020-09-17T12:33:40Z</time>
      </trkpt>
      <trkpt lat="45.42277" lon="3.41526">
        <ele>585.6</ele>
        <time>2020-09-17T12:33:41Z</time>
      </trkpt>
      <trkpt lat="45.42276" lon="3.41525">
        <ele>585.4</ele>
        <time>2020-09-17T12:33:42Z</time>
      </trkpt>
      <trkpt lat="45.42274" lon="3.41525">
        <ele>585.1</ele>
        <time>2020-09-17T12:33:43Z</time>
      </trkpt>
      <trkpt lat="45.42273" lon="3.41525">
        <ele>584.9</ele>
        <time>2020-09-17T12:33:44Z</time>
      </trkpt>
      <trkpt lat="45.42271" lon="3.41525">
        <ele>584.7</ele>
        <time>2020-09-17T12:33:45Z</time>
      </trkpt>
      <trkpt lat="45.4227" lon="3.41524">
        <ele>584.6</ele>
        <time>2020-09-17T12:33:46Z</time>
      </trkpt>
      <trkpt lat="45.42269" lon="3.41524">
        <ele>584.4</ele>
        <time>2020-09-17T12:33:47Z</time>
      </trkpt>
      <trkpt lat="45.42268" lon="3.41524">
        <ele>584.2</ele>
        <time>2020-09-17T12:33:48Z</time>
      </trkpt>
      <trkpt lat="45.42266" lon="3.41523">
        <ele>584</ele>
        <time>2020-09-17T12:33:49Z</time>
      </trkpt>
      <trkpt lat="45.42265" lon="3.41522">
        <ele>583.9</ele>
        <time>2020-09-17T12:33:50Z</time>
      </trkpt>
      <trkpt lat="45.42264" lon="3.41522">
        <ele>583.8</ele>
        <time>2020-09-17T12:33:51Z</time>
      </trkpt>
      <trkpt lat="45.42263" lon="3.41521">
        <ele>583.7</ele>
        <time>2020-09-17T12:33:52Z</time>
      </trkpt>
      <trkpt lat="45.42261" lon="3.4152">
        <ele>583.6</ele>
        <time>2020-09-17T12:33:53Z</time>
      </trkpt>
      <trkpt lat="45.4226" lon="3.41519">
        <ele>583.4</ele>
        <time>2020-09-17T12:33:54Z</time>
      </trkpt>
      <trkpt lat="45.42259" lon="3.41518">
        <ele>583.3</ele>
        <time>2020-09-17T12:33:55Z</time>
      </trkpt>
      <trkpt lat="45.42258" lon="3.41517">
        <ele>583.2</ele>
        <time>2020-09-17T12:33:56Z</time>
      </trkpt>
      <trkpt lat="45.42257" lon="3.41516">
        <ele>583.1</ele>
        <time>2020-09-17T12:33:57Z</time>
      </trkpt>
      <trkpt lat="45.42256" lon="3.41515">
        <ele>583</ele>
        <time>2020-09-17T12:33:58Z</time>
      </trkpt>
      <trkpt lat="45.42255" lon="3.41514">
        <ele>583</ele>
        <time>2020-09-17T12:33:59Z</time>
      </trkpt>
      <trkpt lat="45.42254" lon="3.41513">
        <ele>582.9</ele>
        <time>2020-09-17T12:34:00Z</time>
      </trkpt>
      <trkpt lat="45.42253" lon="3.41512">
        <ele>582.8</ele>
        <time>2020-09-17T12:34:01Z</time>
      </trkpt>
      <trkpt lat="45.42253" lon="3.41511">
        <ele>582.7</ele>
        <time>2020-09-17T12:34:02Z</time>
      </trkpt>
      <trkpt lat="45.42252" lon="3.4151">
        <ele>582.6</ele>
        <time>2020-09-17T12:34:03Z</time>
      </trkpt>
      <trkpt lat="45.42251" lon="3.41508">
        <ele>582.5</ele>
        <time>2020-09-17T12:34:04Z</time>
      </trkpt>
      <trkpt lat="45.42251" lon="3.41507">
        <ele>582.4</ele>
        <time>2020-09-17T12:34:05Z</time>
      </trkpt>
      <trkpt lat="45.4225" lon="3.41506">
        <ele>582.4</ele>
        <time>2020-09-17T12:34:06Z</time>
      </trkpt>
      <trkpt lat="45.42249" lon="3.41504">
        <ele>582.5</ele>
        <time>2020-09-17T12:34:07Z</time>
      </trkpt>
      <trkpt lat="45.42249" lon="3.41503">
        <ele>582.5</ele>
        <time>2020-09-17T12:34:08Z</time>
      </trkpt>
      <trkpt lat="45.42248" lon="3.41502">
        <ele>582.6</ele>
        <time>2020-09-17T12:34:09Z</time>
      </trkpt>
      <trkpt lat="45.42248" lon="3.41501">
        <ele>582.6</ele>
        <time>2020-09-17T12:34:10Z</time>
      </trkpt>
      <trkpt lat="45.42247" lon="3.41499">
        <ele>582.6</ele>
        <time>2020-09-17T12:34:11Z</time>
      </trkpt>
      <trkpt lat="45.42247" lon="3.41498">
        <ele>582.6</ele>
        <time>2020-09-17T12:34:12Z</time>
      </trkpt>
      <trkpt lat="45.42246" lon="3.41497">
        <ele>582.5</ele>
        <time>2020-09-17T12:34:13Z</time>
      </trkpt>
      <trkpt lat="45.42246" lon="3.41495">
        <ele>582.5</ele>
        <time>2020-09-17T12:34:14Z</time>
      </trkpt>
      <trkpt lat="45.42245" lon="3.41494">
        <ele>582.5</ele>
        <time>2020-09-17T12:34:15Z</time>
      </trkpt>
      <trkpt lat="45.42245" lon="3.41492">
        <ele>582.5</ele>
        <time>2020-09-17T12:34:16Z</time>
      </trkpt>
      <trkpt lat="45.42245" lon="3.4149">
        <ele>582.4</ele>
        <time>2020-09-17T12:34:17Z</time>
      </trkpt>
      <trkpt lat="45.42244" lon="3.41488">
        <ele>582.4</ele>
        <time>2020-09-17T12:34:18Z</time>
      </trkpt>
      <trkpt lat="45.42244" lon="3.41486">
        <ele>582.4</ele>
        <time>2020-09-17T12:34:19Z</time>
      </trkpt>
      <trkpt lat="45.42244" lon="3.41485">
        <ele>582.4</ele>
        <time>2020-09-17T12:34:20Z</time>
      </trkpt>
      <trkpt lat="45.42243" lon="3.41483">
        <ele>582.3</ele>
        <time>2020-09-17T12:34:21Z</time>
      </trkpt>
      <trkpt lat="45.42243" lon="3.41481">
        <ele>582.3</ele>
        <time>2020-09-17T12:34:22Z</time>
      </trkpt>
      <trkpt lat="45.42242" lon="3.41479">
        <ele>582.2</ele>
        <time>2020-09-17T12:34:23Z</time>
      </trkpt>
      <trkpt lat="45.42242" lon="3.41477">
        <ele>582.2</ele>
        <time>2020-09-17T12:34:24Z</time>
      </trkpt>
      <trkpt lat="45.42242" lon="3.41475">
        <ele>582.2</ele>
        <time>2020-09-17T12:34:25Z</time>
      </trkpt>
      <trkpt lat="45.42241" lon="3.41473">
        <ele>582.1</ele>
        <time>2020-09-17T12:34:26Z</time>
      </trkpt>
      <trkpt lat="45.42241" lon="3.41471">
        <ele>581.9</ele>
        <time>2020-09-17T12:34:27Z</time>
      </trkpt>
      <trkpt lat="45.42241" lon="3.41469">
        <ele>581.8</ele>
        <time>2020-09-17T12:34:28Z</time>
      </trkpt>
      <trkpt lat="45.4224" lon="3.41467">
        <ele>581.6</ele>
        <time>2020-09-17T12:34:29Z</time>
      </trkpt>
      <trkpt lat="45.4224" lon="3.41465">
        <ele>581.5</ele>
        <time>2020-09-17T12:34:30Z</time>
      </trkpt>
      <trkpt lat="45.4224" lon="3.41463">
        <ele>581.4</ele>
        <time>2020-09-17T12:34:31Z</time>
      </trkpt>
      <trkpt lat="45.4224" lon="3.41461">
        <ele>581.2</ele>
        <time>2020-09-17T12:34:32Z</time>
      </trkpt>
      <trkpt lat="45.42239" lon="3.41459">
        <ele>581.1</ele>
        <time>2020-09-17T12:34:33Z</time>
      </trkpt>
      <trkpt lat="45.42239" lon="3.41457">
        <ele>580.9</ele>
        <time>2020-09-17T12:34:34Z</time>
      </trkpt>
      <trkpt lat="45.42239" lon="3.41456">
        <ele>580.8</ele>
        <time>2020-09-17T12:34:35Z</time>
      </trkpt>
      <trkpt lat="45.42238" lon="3.41454">
        <ele>580.7</ele>
        <time>2020-09-17T12:34:36Z</time>
      </trkpt>
      <trkpt lat="45.42238" lon="3.41452">
        <ele>580.5</ele>
        <time>2020-09-17T12:34:37Z</time>
      </trkpt>
      <trkpt lat="45.42237" lon="3.4145">
        <ele>580.4</ele>
        <time>2020-09-17T12:34:38Z</time>
      </trkpt>
      <trkpt lat="45.42237" lon="3.41449">
        <ele>580.2</ele>
        <time>2020-09-17T12:34:39Z</time>
      </trkpt>
      <trkpt lat="45.42236" lon="3.41447">
        <ele>580.1</ele>
        <time>2020-09-17T12:34:40Z</time>
      </trkpt>
      <trkpt lat="45.42236" lon="3.41445">
        <ele>579.9</ele>
        <time>2020-09-17T12:34:41Z</time>
      </trkpt>
      <trkpt lat="45.42235" lon="3.41444">
        <ele>579.9</ele>
        <time>2020-09-17T12:34:42Z</time>
      </trkpt>
      <trkpt lat="45.42235" lon="3.41442">
        <ele>579.8</ele>
        <time>2020-09-17T12:34:43Z</time>
      </trkpt>
      <trkpt lat="45.42234" lon="3.4144">
        <ele>579.7</ele>
        <time>2020-09-17T12:34:44Z</time>
      </trkpt>
      <trkpt lat="45.42233" lon="3.41439">
        <ele>579.6</ele>
        <time>2020-09-17T12:34:45Z</time>
      </trkpt>
      <trkpt lat="45.42233" lon="3.41439">
        <ele>579.6</ele>
        <time>2020-09-17T12:34:46Z</time>
      </trkpt>
      <trkpt lat="45.42233" lon="3.41438">
        <ele>579.6</ele>
        <time>2020-09-17T12:34:47Z</time>
      </trkpt>
      <trkpt lat="45.42233" lon="3.41438">
        <ele>579.6</ele>
        <time>2020-09-17T12:34:48Z</time>
      </trkpt>
      <trkpt lat="45.42233" lon="3.41438">
        <ele>579.6</ele>
        <time>2020-09-17T12:34:49Z</time>
      </trkpt>
      <trkpt lat="45.42233" lon="3.41438">
        <ele>579.6</ele>
        <time>2020-09-17T12:34:50Z</time>
      </trkpt>
      <trkpt lat="45.42233" lon="3.41438">
        <ele>579.6</ele>
        <time>2020-09-17T12:34:51Z</time>
      </trkpt>
      <trkpt lat="45.42233" lon="3.41437">
        <ele>579.6</ele>
        <time>2020-09-17T12:34:52Z</time>
      </trkpt>
      <trkpt lat="45.42233" lon="3.41436">
        <ele>579.5</ele>
        <time>2020-09-17T12:34:53Z</time>
      </trkpt>
      <trkpt lat="45.42232" lon="3.41435">
        <ele>579.4</ele>
        <time>2020-09-17T12:34:54Z</time>
      </trkpt>
      <trkpt lat="45.42231" lon="3.41435">
        <ele>579.3</ele>
        <time>2020-09-17T12:34:55Z</time>
      </trkpt>
      <trkpt lat="45.4223" lon="3.41434">
        <ele>579.1</ele>
        <time>2020-09-17T12:34:56Z</time>
      </trkpt>
      <trkpt lat="45.4223" lon="3.41433">
        <ele>579</ele>
        <time>2020-09-17T12:34:57Z</time>
      </trkpt>
      <trkpt lat="45.42229" lon="3.41433">
        <ele>578.8</ele>
        <time>2020-09-17T12:34:58Z</time>
      </trkpt>
      <trkpt lat="45.42228" lon="3.41432">
        <ele>578.7</ele>
        <time>2020-09-17T12:34:59Z</time>
      </trkpt>
      <trkpt lat="45.42227" lon="3.41431">
        <ele>578.5</ele>
        <time>2020-09-17T12:35:00Z</time>
      </trkpt>
      <trkpt lat="45.42227" lon="3.4143">
        <ele>578.3</ele>
        <time>2020-09-17T12:35:01Z</time>
      </trkpt>
      <trkpt lat="45.42226" lon="3.41428">
        <ele>578.1</ele>
        <time>2020-09-17T12:35:02Z</time>
      </trkpt>
      <trkpt lat="45.42225" lon="3.41427">
        <ele>577.9</ele>
        <time>2020-09-17T12:35:03Z</time>
      </trkpt>
      <trkpt lat="45.42224" lon="3.41426">
        <ele>577.6</ele>
        <time>2020-09-17T12:35:04Z</time>
      </trkpt>
      <trkpt lat="45.42223" lon="3.41425">
        <ele>577.4</ele>
        <time>2020-09-17T12:35:05Z</time>
      </trkpt>
      <trkpt lat="45.42222" lon="3.41423">
        <ele>577.6</ele>
        <time>2020-09-17T12:35:06Z</time>
      </trkpt>
      <trkpt lat="45.42221" lon="3.41422">
        <ele>578.1</ele>
        <time>2020-09-17T12:35:07Z</time>
      </trkpt>
      <trkpt lat="45.4222" lon="3.41421">
        <ele>578.5</ele>
        <time>2020-09-17T12:35:08Z</time>
      </trkpt>
      <trkpt lat="45.42219" lon="3.4142">
        <ele>579</ele>
        <time>2020-09-17T12:35:09Z</time>
      </trkpt>
      <trkpt lat="45.42218" lon="3.41418">
        <ele>579.3</ele>
        <time>2020-09-17T12:35:10Z</time>
      </trkpt>
      <trkpt lat="45.42218" lon="3.41416">
        <ele>579.6</ele>
        <time>2020-09-17T12:35:11Z</time>
      </trkpt>
      <trkpt lat="45.42217" lon="3.41415">
        <ele>580</ele>
        <time>2020-09-17T12:35:12Z</time>
      </trkpt>
      <trkpt lat="45.42216" lon="3.41413">
        <ele>580.4</ele>
        <time>2020-09-17T12:35:13Z</time>
      </trkpt>
      <trkpt lat="45.42215" lon="3.41411">
        <ele>580.7</ele>
        <time>2020-09-17T12:35:14Z</time>
      </trkpt>
      <trkpt lat="45.42215" lon="3.4141">
        <ele>581</ele>
        <time>2020-09-17T12:35:15Z</time>
      </trkpt>
      <trkpt lat="45.42214" lon="3.41408">
        <ele>581.3</ele>
        <time>2020-09-17T12:35:16Z</time>
      </trkpt>
      <trkpt lat="45.42213" lon="3.41407">
        <ele>581.7</ele>
        <time>2020-09-17T12:35:17Z</time>
      </trkpt>
      <trkpt lat="45.42212" lon="3.41405">
        <ele>581.8</ele>
        <time>2020-09-17T12:35:18Z</time>
      </trkpt>
      <trkpt lat="45.42212" lon="3.41403">
        <ele>581.9</ele>
        <time>2020-09-17T12:35:19Z</time>
      </trkpt>
      <trkpt lat="45.42212" lon="3.41402">
        <ele>581.9</ele>
        <time>2020-09-17T12:35:20Z</time>
      </trkpt>
      <trkpt lat="45.42211" lon="3.414">
        <ele>582</ele>
        <time>2020-09-17T12:35:21Z</time>
      </trkpt>
      <trkpt lat="45.42211" lon="3.41398">
        <ele>582.1</ele>
        <time>2020-09-17T12:35:22Z</time>
      </trkpt>
      <trkpt lat="45.42211" lon="3.41396">
        <ele>582.1</ele>
        <time>2020-09-17T12:35:23Z</time>
      </trkpt>
      <trkpt lat="45.4221" lon="3.41395">
        <ele>582.2</ele>
        <time>2020-09-17T12:35:24Z</time>
      </trkpt>
      <trkpt lat="45.4221" lon="3.41393">
        <ele>582.2</ele>
        <time>2020-09-17T12:35:25Z</time>
      </trkpt>
      <trkpt lat="45.42209" lon="3.41391">
        <ele>582.2</ele>
        <time>2020-09-17T12:35:26Z</time>
      </trkpt>
      <trkpt lat="45.42209" lon="3.41389">
        <ele>582.2</ele>
        <time>2020-09-17T12:35:27Z</time>
      </trkpt>
      <trkpt lat="45.42209" lon="3.41388">
        <ele>582.3</ele>
        <time>2020-09-17T12:35:28Z</time>
      </trkpt>
      <trkpt lat="45.42208" lon="3.41386">
        <ele>582.4</ele>
        <time>2020-09-17T12:35:29Z</time>
      </trkpt>
      <trkpt lat="45.42208" lon="3.41384">
        <ele>582.5</ele>
        <time>2020-09-17T12:35:30Z</time>
      </trkpt>
      <trkpt lat="45.42208" lon="3.41382">
        <ele>582.7</ele>
        <time>2020-09-17T12:35:31Z</time>
      </trkpt>
      <trkpt lat="45.42207" lon="3.41381">
        <ele>582.8</ele>
        <time>2020-09-17T12:35:32Z</time>
      </trkpt>
      <trkpt lat="45.42207" lon="3.41379">
        <ele>583</ele>
        <time>2020-09-17T12:35:33Z</time>
      </trkpt>
      <trkpt lat="45.42207" lon="3.41378">
        <ele>583</ele>
        <time>2020-09-17T12:35:34Z</time>
      </trkpt>
      <trkpt lat="45.42207" lon="3.41377">
        <ele>583</ele>
        <time>2020-09-17T12:35:35Z</time>
      </trkpt>
      <trkpt lat="45.42207" lon="3.41375">
        <ele>583.1</ele>
        <time>2020-09-17T12:35:36Z</time>
      </trkpt>
      <trkpt lat="45.42206" lon="3.41373">
        <ele>583.2</ele>
        <time>2020-09-17T12:35:37Z</time>
      </trkpt>
      <trkpt lat="45.42206" lon="3.41372">
        <ele>583.3</ele>
        <time>2020-09-17T12:35:38Z</time>
      </trkpt>
      <trkpt lat="45.42206" lon="3.41371">
        <ele>583.4</ele>
        <time>2020-09-17T12:35:39Z</time>
      </trkpt>
      <trkpt lat="45.42206" lon="3.4137">
        <ele>583.4</ele>
        <time>2020-09-17T12:35:40Z</time>
      </trkpt>
      <trkpt lat="45.42206" lon="3.41368">
        <ele>583.4</ele>
        <time>2020-09-17T12:35:41Z</time>
      </trkpt>
      <trkpt lat="45.42206" lon="3.41367">
        <ele>583.5</ele>
        <time>2020-09-17T12:35:42Z</time>
      </trkpt>
      <trkpt lat="45.42205" lon="3.41366">
        <ele>583.7</ele>
        <time>2020-09-17T12:35:43Z</time>
      </trkpt>
      <trkpt lat="45.42205" lon="3.41364">
        <ele>583.9</ele>
        <time>2020-09-17T12:35:44Z</time>
      </trkpt>
      <trkpt lat="45.42205" lon="3.41363">
        <ele>584</ele>
        <time>2020-09-17T12:35:45Z</time>
      </trkpt>
      <trkpt lat="45.42204" lon="3.41362">
        <ele>584</ele>
        <time>2020-09-17T12:35:46Z</time>
      </trkpt>
      <trkpt lat="45.42204" lon="3.41361">
        <ele>584</ele>
        <time>2020-09-17T12:35:47Z</time>
      </trkpt>
      <trkpt lat="45.42204" lon="3.4136">
        <ele>584.1</ele>
        <time>2020-09-17T12:35:48Z</time>
      </trkpt>
      <trkpt lat="45.42204" lon="3.41359">
        <ele>584.1</ele>
        <time>2020-09-17T12:35:49Z</time>
      </trkpt>
      <trkpt lat="45.42204" lon="3.41358">
        <ele>584.2</ele>
        <time>2020-09-17T12:35:50Z</time>
      </trkpt>
      <trkpt lat="45.42204" lon="3.41356">
        <ele>584.2</ele>
        <time>2020-09-17T12:35:51Z</time>
      </trkpt>
      <trkpt lat="45.42204" lon="3.41355">
        <ele>584.3</ele>
        <time>2020-09-17T12:35:52Z</time>
      </trkpt>
      <trkpt lat="45.42204" lon="3.41354">
        <ele>584.3</ele>
        <time>2020-09-17T12:35:53Z</time>
      </trkpt>
      <trkpt lat="45.42204" lon="3.41352">
        <ele>584.2</ele>
        <time>2020-09-17T12:35:54Z</time>
      </trkpt>
      <trkpt lat="45.42204" lon="3.41351">
        <ele>584.1</ele>
        <time>2020-09-17T12:35:55Z</time>
      </trkpt>
      <trkpt lat="45.42204" lon="3.41349">
        <ele>584</ele>
        <time>2020-09-17T12:35:56Z</time>
      </trkpt>
      <trkpt lat="45.42205" lon="3.41348">
        <ele>583.9</ele>
        <time>2020-09-17T12:35:57Z</time>
      </trkpt>
      <trkpt lat="45.42205" lon="3.41347">
        <ele>583.9</ele>
        <time>2020-09-17T12:35:58Z</time>
      </trkpt>
      <trkpt lat="45.42205" lon="3.41345">
        <ele>583.9</ele>
        <time>2020-09-17T12:35:59Z</time>
      </trkpt>
      <trkpt lat="45.42205" lon="3.41344">
        <ele>583.9</ele>
        <time>2020-09-17T12:36:00Z</time>
      </trkpt>
      <trkpt lat="45.42205" lon="3.41343">
        <ele>583.9</ele>
        <time>2020-09-17T12:36:01Z</time>
      </trkpt>
      <trkpt lat="45.42205" lon="3.41341">
        <ele>583.8</ele>
        <time>2020-09-17T12:36:02Z</time>
      </trkpt>
      <trkpt lat="45.42205" lon="3.4134">
        <ele>583.8</ele>
        <time>2020-09-17T12:36:03Z</time>
      </trkpt>
      <trkpt lat="45.42205" lon="3.41338">
        <ele>583.8</ele>
        <time>2020-09-17T12:36:04Z</time>
      </trkpt>
      <trkpt lat="45.42205" lon="3.41337">
        <ele>583.9</ele>
        <time>2020-09-17T12:36:05Z</time>
      </trkpt>
      <trkpt lat="45.42204" lon="3.41336">
        <ele>584</ele>
        <time>2020-09-17T12:36:06Z</time>
      </trkpt>
      <trkpt lat="45.42204" lon="3.41335">
        <ele>584</ele>
        <time>2020-09-17T12:36:07Z</time>
      </trkpt>
      <trkpt lat="45.42204" lon="3.41333">
        <ele>584.2</ele>
        <time>2020-09-17T12:36:08Z</time>
      </trkpt>
      <trkpt lat="45.42204" lon="3.41332">
        <ele>584.2</ele>
        <time>2020-09-17T12:36:09Z</time>
      </trkpt>
      <trkpt lat="45.42204" lon="3.4133">
        <ele>584.1</ele>
        <time>2020-09-17T12:36:10Z</time>
      </trkpt>
      <trkpt lat="45.42204" lon="3.41329">
        <ele>584.1</ele>
        <time>2020-09-17T12:36:11Z</time>
      </trkpt>
      <trkpt lat="45.42203" lon="3.41328">
        <ele>584.3</ele>
        <time>2020-09-17T12:36:12Z</time>
      </trkpt>
      <trkpt lat="45.42203" lon="3.41327">
        <ele>584.5</ele>
        <time>2020-09-17T12:36:13Z</time>
      </trkpt>
      <trkpt lat="45.42202" lon="3.41325">
        <ele>584.7</ele>
        <time>2020-09-17T12:36:14Z</time>
      </trkpt>
      <trkpt lat="45.42202" lon="3.41325">
        <ele>584.9</ele>
        <time>2020-09-17T12:36:15Z</time>
      </trkpt>
      <trkpt lat="45.42201" lon="3.41324">
        <ele>585.1</ele>
        <time>2020-09-17T12:36:16Z</time>
      </trkpt>
      <trkpt lat="45.42201" lon="3.41323">
        <ele>585.3</ele>
        <time>2020-09-17T12:36:17Z</time>
      </trkpt>
      <trkpt lat="45.422" lon="3.41323">
        <ele>585.5</ele>
        <time>2020-09-17T12:36:18Z</time>
      </trkpt>
      <trkpt lat="45.42199" lon="3.41323">
        <ele>585.8</ele>
        <time>2020-09-17T12:36:19Z</time>
      </trkpt>
      <trkpt lat="45.42198" lon="3.41322">
        <ele>586.1</ele>
        <time>2020-09-17T12:36:20Z</time>
      </trkpt>
      <trkpt lat="45.42198" lon="3.41322">
        <ele>586.4</ele>
        <time>2020-09-17T12:36:21Z</time>
      </trkpt>
      <trkpt lat="45.42197" lon="3.41321">
        <ele>586.7</ele>
        <time>2020-09-17T12:36:22Z</time>
      </trkpt>
      <trkpt lat="45.42196" lon="3.41321">
        <ele>587</ele>
        <time>2020-09-17T12:36:23Z</time>
      </trkpt>
      <trkpt lat="45.42195" lon="3.41321">
        <ele>587.5</ele>
        <time>2020-09-17T12:36:24Z</time>
      </trkpt>
      <trkpt lat="45.42194" lon="3.41321">
        <ele>587.6</ele>
        <time>2020-09-17T12:36:25Z</time>
      </trkpt>
      <trkpt lat="45.42193" lon="3.41321">
        <ele>587.6</ele>
        <time>2020-09-17T12:36:26Z</time>
      </trkpt>
      <trkpt lat="45.42192" lon="3.41322">
        <ele>587.6</ele>
        <time>2020-09-17T12:36:27Z</time>
      </trkpt>
      <trkpt lat="45.42191" lon="3.41323">
        <ele>587.7</ele>
        <time>2020-09-17T12:36:28Z</time>
      </trkpt>
      <trkpt lat="45.4219" lon="3.41324">
        <ele>587.8</ele>
        <time>2020-09-17T12:36:29Z</time>
      </trkpt>
      <trkpt lat="45.42189" lon="3.41324">
        <ele>587.8</ele>
        <time>2020-09-17T12:36:30Z</time>
      </trkpt>
      <trkpt lat="45.42188" lon="3.41325">
        <ele>587.9</ele>
        <time>2020-09-17T12:36:31Z</time>
      </trkpt>
      <trkpt lat="45.42187" lon="3.41324">
        <ele>587.8</ele>
        <time>2020-09-17T12:36:32Z</time>
      </trkpt>
      <trkpt lat="45.42185" lon="3.41324">
        <ele>587.7</ele>
        <time>2020-09-17T12:36:33Z</time>
      </trkpt>
      <trkpt lat="45.42184" lon="3.41325">
        <ele>587.7</ele>
        <time>2020-09-17T12:36:34Z</time>
      </trkpt>
      <trkpt lat="45.42183" lon="3.41325">
        <ele>587.8</ele>
        <time>2020-09-17T12:36:35Z</time>
      </trkpt>
      <trkpt lat="45.42182" lon="3.41326">
        <ele>587.9</ele>
        <time>2020-09-17T12:36:36Z</time>
      </trkpt>
      <trkpt lat="45.42181" lon="3.41326">
        <ele>588</ele>
        <time>2020-09-17T12:36:37Z</time>
      </trkpt>
      <trkpt lat="45.4218" lon="3.41327">
        <ele>588.1</ele>
        <time>2020-09-17T12:36:38Z</time>
      </trkpt>
      <trkpt lat="45.42179" lon="3.41328">
        <ele>588.3</ele>
        <time>2020-09-17T12:36:39Z</time>
      </trkpt>
      <trkpt lat="45.42178" lon="3.41329">
        <ele>588.5</ele>
        <time>2020-09-17T12:36:40Z</time>
      </trkpt>
      <trkpt lat="45.42178" lon="3.41329">
        <ele>588.7</ele>
        <time>2020-09-17T12:36:41Z</time>
      </trkpt>
      <trkpt lat="45.42177" lon="3.4133">
        <ele>588.9</ele>
        <time>2020-09-17T12:36:42Z</time>
      </trkpt>
      <trkpt lat="45.42176" lon="3.41331">
        <ele>589.1</ele>
        <time>2020-09-17T12:36:43Z</time>
      </trkpt>
      <trkpt lat="45.42175" lon="3.41332">
        <ele>589.4</ele>
        <time>2020-09-17T12:36:44Z</time>
      </trkpt>
      <trkpt lat="45.42174" lon="3.41333">
        <ele>589.7</ele>
        <time>2020-09-17T12:36:45Z</time>
      </trkpt>
      <trkpt lat="45.42173" lon="3.41334">
        <ele>589.9</ele>
        <time>2020-09-17T12:36:46Z</time>
      </trkpt>
      <trkpt lat="45.42172" lon="3.41335">
        <ele>590.2</ele>
        <time>2020-09-17T12:36:47Z</time>
      </trkpt>
      <trkpt lat="45.42171" lon="3.41336">
        <ele>590.4</ele>
        <time>2020-09-17T12:36:48Z</time>
      </trkpt>
      <trkpt lat="45.42171" lon="3.41337">
        <ele>590.7</ele>
        <time>2020-09-17T12:36:49Z</time>
      </trkpt>
      <trkpt lat="45.4217" lon="3.41338">
        <ele>590.9</ele>
        <time>2020-09-17T12:36:50Z</time>
      </trkpt>
      <trkpt lat="45.42169" lon="3.41338">
        <ele>591.1</ele>
        <time>2020-09-17T12:36:51Z</time>
      </trkpt>
      <trkpt lat="45.42168" lon="3.41339">
        <ele>591.4</ele>
        <time>2020-09-17T12:36:52Z</time>
      </trkpt>
      <trkpt lat="45.42167" lon="3.4134">
        <ele>591.7</ele>
        <time>2020-09-17T12:36:53Z</time>
      </trkpt>
      <trkpt lat="45.42166" lon="3.41341">
        <ele>592</ele>
        <time>2020-09-17T12:36:54Z</time>
      </trkpt>
      <trkpt lat="45.42166" lon="3.41342">
        <ele>592.2</ele>
        <time>2020-09-17T12:36:55Z</time>
      </trkpt>
      <trkpt lat="45.42165" lon="3.41343">
        <ele>592.4</ele>
        <time>2020-09-17T12:36:56Z</time>
      </trkpt>
      <trkpt lat="45.42164" lon="3.41344">
        <ele>592.6</ele>
        <time>2020-09-17T12:36:57Z</time>
      </trkpt>
      <trkpt lat="45.42164" lon="3.41345">
        <ele>592.8</ele>
        <time>2020-09-17T12:36:58Z</time>
      </trkpt>
      <trkpt lat="45.42163" lon="3.41345">
        <ele>593</ele>
        <time>2020-09-17T12:36:59Z</time>
      </trkpt>
      <trkpt lat="45.42162" lon="3.41346">
        <ele>593.1</ele>
        <time>2020-09-17T12:37:00Z</time>
      </trkpt>
      <trkpt lat="45.42161" lon="3.41347">
        <ele>593.3</ele>
        <time>2020-09-17T12:37:01Z</time>
      </trkpt>
      <trkpt lat="45.42161" lon="3.41347">
        <ele>593.4</ele>
        <time>2020-09-17T12:37:02Z</time>
      </trkpt>
      <trkpt lat="45.4216" lon="3.41348">
        <ele>593.5</ele>
        <time>2020-09-17T12:37:03Z</time>
      </trkpt>
      <trkpt lat="45.42159" lon="3.41349">
        <ele>593.8</ele>
        <time>2020-09-17T12:37:04Z</time>
      </trkpt>
      <trkpt lat="45.42158" lon="3.4135">
        <ele>593.9</ele>
        <time>2020-09-17T12:37:05Z</time>
      </trkpt>
      <trkpt lat="45.42157" lon="3.4135">
        <ele>594</ele>
        <time>2020-09-17T12:37:06Z</time>
      </trkpt>
      <trkpt lat="45.42156" lon="3.4135">
        <ele>594</ele>
        <time>2020-09-17T12:37:07Z</time>
      </trkpt>
      <trkpt lat="45.42155" lon="3.41351">
        <ele>594.1</ele>
        <time>2020-09-17T12:37:08Z</time>
      </trkpt>
      <trkpt lat="45.42154" lon="3.41351">
        <ele>594.1</ele>
        <time>2020-09-17T12:37:09Z</time>
      </trkpt>
      <trkpt lat="45.42153" lon="3.41351">
        <ele>594.2</ele>
        <time>2020-09-17T12:37:10Z</time>
      </trkpt>
      <trkpt lat="45.42151" lon="3.41351">
        <ele>594.2</ele>
        <time>2020-09-17T12:37:11Z</time>
      </trkpt>
      <trkpt lat="45.4215" lon="3.41352">
        <ele>594.2</ele>
        <time>2020-09-17T12:37:12Z</time>
      </trkpt>
      <trkpt lat="45.42149" lon="3.41352">
        <ele>594.2</ele>
        <time>2020-09-17T12:37:13Z</time>
      </trkpt>
      <trkpt lat="45.42147" lon="3.41352">
        <ele>594.2</ele>
        <time>2020-09-17T12:37:14Z</time>
      </trkpt>
      <trkpt lat="45.42146" lon="3.41352">
        <ele>594.1</ele>
        <time>2020-09-17T12:37:15Z</time>
      </trkpt>
      <trkpt lat="45.42145" lon="3.41352">
        <ele>594.1</ele>
        <time>2020-09-17T12:37:16Z</time>
      </trkpt>
      <trkpt lat="45.42143" lon="3.41352">
        <ele>594.1</ele>
        <time>2020-09-17T12:37:17Z</time>
      </trkpt>
      <trkpt lat="45.42142" lon="3.41352">
        <ele>594.1</ele>
        <time>2020-09-17T12:37:18Z</time>
      </trkpt>
      <trkpt lat="45.42141" lon="3.41352">
        <ele>594</ele>
        <time>2020-09-17T12:37:19Z</time>
      </trkpt>
      <trkpt lat="45.42139" lon="3.41352">
        <ele>593.9</ele>
        <time>2020-09-17T12:37:20Z</time>
      </trkpt>
      <trkpt lat="45.42138" lon="3.41351">
        <ele>593.9</ele>
        <time>2020-09-17T12:37:21Z</time>
      </trkpt>
      <trkpt lat="45.42137" lon="3.41351">
        <ele>594.1</ele>
        <time>2020-09-17T12:37:22Z</time>
      </trkpt>
      <trkpt lat="45.42136" lon="3.41351">
        <ele>594.3</ele>
        <time>2020-09-17T12:37:23Z</time>
      </trkpt>
      <trkpt lat="45.42135" lon="3.41351">
        <ele>594.4</ele>
        <time>2020-09-17T12:37:24Z</time>
      </trkpt>
      <trkpt lat="45.42133" lon="3.41351">
        <ele>594.5</ele>
        <time>2020-09-17T12:37:25Z</time>
      </trkpt>
      <trkpt lat="45.42132" lon="3.41351">
        <ele>594.6</ele>
        <time>2020-09-17T12:37:26Z</time>
      </trkpt>
      <trkpt lat="45.4213" lon="3.4135">
        <ele>594.8</ele>
        <time>2020-09-17T12:37:27Z</time>
      </trkpt>
      <trkpt lat="45.42129" lon="3.4135">
        <ele>594.9</ele>
        <time>2020-09-17T12:37:28Z</time>
      </trkpt>
      <trkpt lat="45.42128" lon="3.4135">
        <ele>595.1</ele>
        <time>2020-09-17T12:37:29Z</time>
      </trkpt>
      <trkpt lat="45.42127" lon="3.4135">
        <ele>595.2</ele>
        <time>2020-09-17T12:37:30Z</time>
      </trkpt>
      <trkpt lat="45.42125" lon="3.4135">
        <ele>595.4</ele>
        <time>2020-09-17T12:37:31Z</time>
      </trkpt>
      <trkpt lat="45.42124" lon="3.4135">
        <ele>595.6</ele>
        <time>2020-09-17T12:37:32Z</time>
      </trkpt>
      <trkpt lat="45.42123" lon="3.4135">
        <ele>595.6</ele>
        <time>2020-09-17T12:37:33Z</time>
      </trkpt>
      <trkpt lat="45.42121" lon="3.41349">
        <ele>595.7</ele>
        <time>2020-09-17T12:37:34Z</time>
      </trkpt>
      <trkpt lat="45.4212" lon="3.41349">
        <ele>595.9</ele>
        <time>2020-09-17T12:37:35Z</time>
      </trkpt>
      <trkpt lat="45.42119" lon="3.41349">
        <ele>596</ele>
        <time>2020-09-17T12:37:36Z</time>
      </trkpt>
      <trkpt lat="45.42117" lon="3.41349">
        <ele>596.1</ele>
        <time>2020-09-17T12:37:37Z</time>
      </trkpt>
      <trkpt lat="45.42116" lon="3.41349">
        <ele>596.2</ele>
        <time>2020-09-17T12:37:38Z</time>
      </trkpt>
      <trkpt lat="45.42115" lon="3.41349">
        <ele>596.4</ele>
        <time>2020-09-17T12:37:39Z</time>
      </trkpt>
      <trkpt lat="45.42114" lon="3.41349">
        <ele>596.6</ele>
        <time>2020-09-17T12:37:40Z</time>
      </trkpt>
      <trkpt lat="45.42112" lon="3.41349">
        <ele>596.7</ele>
        <time>2020-09-17T12:37:41Z</time>
      </trkpt>
      <trkpt lat="45.42111" lon="3.41349">
        <ele>596.9</ele>
        <time>2020-09-17T12:37:42Z</time>
      </trkpt>
      <trkpt lat="45.42109" lon="3.41349">
        <ele>597.1</ele>
        <time>2020-09-17T12:37:43Z</time>
      </trkpt>
      <trkpt lat="45.42108" lon="3.41348">
        <ele>597.2</ele>
        <time>2020-09-17T12:37:44Z</time>
      </trkpt>
      <trkpt lat="45.42107" lon="3.41348">
        <ele>597.3</ele>
        <time>2020-09-17T12:37:45Z</time>
      </trkpt>
      <trkpt lat="45.42106" lon="3.41348">
        <ele>597.5</ele>
        <time>2020-09-17T12:37:46Z</time>
      </trkpt>
      <trkpt lat="45.42104" lon="3.41348">
        <ele>597.6</ele>
        <time>2020-09-17T12:37:47Z</time>
      </trkpt>
      <trkpt lat="45.42103" lon="3.41348">
        <ele>597.7</ele>
        <time>2020-09-17T12:37:48Z</time>
      </trkpt>
      <trkpt lat="45.42102" lon="3.41348">
        <ele>597.9</ele>
        <time>2020-09-17T12:37:49Z</time>
      </trkpt>
      <trkpt lat="45.42101" lon="3.41348">
        <ele>598</ele>
        <time>2020-09-17T12:37:50Z</time>
      </trkpt>
      <trkpt lat="45.42099" lon="3.41348">
        <ele>598.1</ele>
        <time>2020-09-17T12:37:51Z</time>
      </trkpt>
      <trkpt lat="45.42098" lon="3.41348">
        <ele>598.2</ele>
        <time>2020-09-17T12:37:52Z</time>
      </trkpt>
      <trkpt lat="45.42097" lon="3.41348">
        <ele>598.4</ele>
        <time>2020-09-17T12:37:53Z</time>
      </trkpt>
      <trkpt lat="45.42095" lon="3.41348">
        <ele>598.6</ele>
        <time>2020-09-17T12:37:54Z</time>
      </trkpt>
      <trkpt lat="45.42094" lon="3.41348">
        <ele>598.7</ele>
        <time>2020-09-17T12:37:55Z</time>
      </trkpt>
      <trkpt lat="45.42093" lon="3.41347">
        <ele>598.9</ele>
        <time>2020-09-17T12:37:56Z</time>
      </trkpt>
      <trkpt lat="45.42091" lon="3.41347">
        <ele>599</ele>
        <time>2020-09-17T12:37:57Z</time>
      </trkpt>
      <trkpt lat="45.4209" lon="3.41347">
        <ele>599.1</ele>
        <time>2020-09-17T12:37:58Z</time>
      </trkpt>
      <trkpt lat="45.42089" lon="3.41347">
        <ele>599.2</ele>
        <time>2020-09-17T12:37:59Z</time>
      </trkpt>
      <trkpt lat="45.42087" lon="3.41347">
        <ele>599.3</ele>
        <time>2020-09-17T12:38:00Z</time>
      </trkpt>
      <trkpt lat="45.42086" lon="3.41346">
        <ele>599.4</ele>
        <time>2020-09-17T12:38:01Z</time>
      </trkpt>
      <trkpt lat="45.42085" lon="3.41346">
        <ele>599.5</ele>
        <time>2020-09-17T12:38:02Z</time>
      </trkpt>
      <trkpt lat="45.42084" lon="3.41346">
        <ele>599.5</ele>
        <time>2020-09-17T12:38:03Z</time>
      </trkpt>
      <trkpt lat="45.42083" lon="3.41346">
        <ele>599.6</ele>
        <time>2020-09-17T12:38:04Z</time>
      </trkpt>
      <trkpt lat="45.42082" lon="3.41345">
        <ele>599.7</ele>
        <time>2020-09-17T12:38:05Z</time>
      </trkpt>
      <trkpt lat="45.42081" lon="3.41345">
        <ele>599.7</ele>
        <time>2020-09-17T12:38:06Z</time>
      </trkpt>
      <trkpt lat="45.42079" lon="3.41345">
        <ele>599.8</ele>
        <time>2020-09-17T12:38:07Z</time>
      </trkpt>
      <trkpt lat="45.42078" lon="3.41345">
        <ele>599.8</ele>
        <time>2020-09-17T12:38:08Z</time>
      </trkpt>
      <trkpt lat="45.42077" lon="3.41344">
        <ele>599.8</ele>
        <time>2020-09-17T12:38:09Z</time>
      </trkpt>
      <trkpt lat="45.42076" lon="3.41344">
        <ele>599.9</ele>
        <time>2020-09-17T12:38:10Z</time>
      </trkpt>
      <trkpt lat="45.42075" lon="3.41344">
        <ele>600</ele>
        <time>2020-09-17T12:38:11Z</time>
      </trkpt>
      <trkpt lat="45.42074" lon="3.41344">
        <ele>600</ele>
        <time>2020-09-17T12:38:12Z</time>
      </trkpt>
      <trkpt lat="45.42073" lon="3.41344">
        <ele>600.1</ele>
        <time>2020-09-17T12:38:13Z</time>
      </trkpt>
      <trkpt lat="45.42072" lon="3.41343">
        <ele>600.1</ele>
        <time>2020-09-17T12:38:14Z</time>
      </trkpt>
      <trkpt lat="45.42071" lon="3.41343">
        <ele>600.2</ele>
        <time>2020-09-17T12:38:15Z</time>
      </trkpt>
      <trkpt lat="45.4207" lon="3.41343">
        <ele>600.2</ele>
        <time>2020-09-17T12:38:16Z</time>
      </trkpt>
      <trkpt lat="45.42069" lon="3.41342">
        <ele>600.1</ele>
        <time>2020-09-17T12:38:17Z</time>
      </trkpt>
      <trkpt lat="45.42068" lon="3.41342">
        <ele>600.2</ele>
        <time>2020-09-17T12:38:18Z</time>
      </trkpt>
      <trkpt lat="45.42067" lon="3.41342">
        <ele>600.1</ele>
        <time>2020-09-17T12:38:19Z</time>
      </trkpt>
      <trkpt lat="45.42066" lon="3.41341">
        <ele>600.2</ele>
        <time>2020-09-17T12:38:20Z</time>
      </trkpt>
      <trkpt lat="45.42065" lon="3.41341">
        <ele>600.3</ele>
        <time>2020-09-17T12:38:21Z</time>
      </trkpt>
      <trkpt lat="45.42064" lon="3.41341">
        <ele>600.3</ele>
        <time>2020-09-17T12:38:22Z</time>
      </trkpt>
      <trkpt lat="45.42063" lon="3.41341">
        <ele>600.4</ele>
        <time>2020-09-17T12:38:23Z</time>
      </trkpt>
      <trkpt lat="45.42061" lon="3.41341">
        <ele>600.4</ele>
        <time>2020-09-17T12:38:24Z</time>
      </trkpt>
      <trkpt lat="45.4206" lon="3.4134">
        <ele>600.5</ele>
        <time>2020-09-17T12:38:25Z</time>
      </trkpt>
      <trkpt lat="45.42059" lon="3.4134">
        <ele>600.5</ele>
        <time>2020-09-17T12:38:26Z</time>
      </trkpt>
      <trkpt lat="45.42058" lon="3.4134">
        <ele>600.6</ele>
        <time>2020-09-17T12:38:27Z</time>
      </trkpt>
      <trkpt lat="45.42057" lon="3.4134">
        <ele>600.7</ele>
        <time>2020-09-17T12:38:28Z</time>
      </trkpt>
      <trkpt lat="45.42056" lon="3.4134">
        <ele>600.8</ele>
        <time>2020-09-17T12:38:29Z</time>
      </trkpt>
      <trkpt lat="45.42054" lon="3.4134">
        <ele>600.8</ele>
        <time>2020-09-17T12:38:30Z</time>
      </trkpt>
      <trkpt lat="45.42053" lon="3.41339">
        <ele>600.8</ele>
        <time>2020-09-17T12:38:31Z</time>
      </trkpt>
      <trkpt lat="45.42052" lon="3.41339">
        <ele>600.8</ele>
        <time>2020-09-17T12:38:32Z</time>
      </trkpt>
      <trkpt lat="45.42051" lon="3.41339">
        <ele>600.8</ele>
        <time>2020-09-17T12:38:33Z</time>
      </trkpt>
      <trkpt lat="45.42049" lon="3.41339">
        <ele>600.8</ele>
        <time>2020-09-17T12:38:34Z</time>
      </trkpt>
      <trkpt lat="45.42048" lon="3.41338">
        <ele>600.8</ele>
        <time>2020-09-17T12:38:35Z</time>
      </trkpt>
      <trkpt lat="45.42047" lon="3.41338">
        <ele>600.7</ele>
        <time>2020-09-17T12:38:36Z</time>
      </trkpt>
      <trkpt lat="45.42046" lon="3.41338">
        <ele>600.7</ele>
        <time>2020-09-17T12:38:37Z</time>
      </trkpt>
      <trkpt lat="45.42044" lon="3.41337">
        <ele>600.6</ele>
        <time>2020-09-17T12:38:38Z</time>
      </trkpt>
      <trkpt lat="45.42043" lon="3.41337">
        <ele>600.6</ele>
        <time>2020-09-17T12:38:39Z</time>
      </trkpt>
      <trkpt lat="45.42042" lon="3.41337">
        <ele>600.5</ele>
        <time>2020-09-17T12:38:40Z</time>
      </trkpt>
      <trkpt lat="45.42041" lon="3.41337">
        <ele>600.5</ele>
        <time>2020-09-17T12:38:41Z</time>
      </trkpt>
      <trkpt lat="45.4204" lon="3.41337">
        <ele>600.7</ele>
        <time>2020-09-17T12:38:42Z</time>
      </trkpt>
      <trkpt lat="45.42038" lon="3.41337">
        <ele>600.8</ele>
        <time>2020-09-17T12:38:43Z</time>
      </trkpt>
      <trkpt lat="45.42037" lon="3.41338">
        <ele>601</ele>
        <time>2020-09-17T12:38:44Z</time>
      </trkpt>
      <trkpt lat="45.42036" lon="3.41338">
        <ele>601.2</ele>
        <time>2020-09-17T12:38:45Z</time>
      </trkpt>
      <trkpt lat="45.42035" lon="3.41339">
        <ele>601.4</ele>
        <time>2020-09-17T12:38:46Z</time>
      </trkpt>
      <trkpt lat="45.42034" lon="3.41339">
        <ele>601.5</ele>
        <time>2020-09-17T12:38:47Z</time>
      </trkpt>
      <trkpt lat="45.42032" lon="3.41339">
        <ele>601.6</ele>
        <time>2020-09-17T12:38:48Z</time>
      </trkpt>
      <trkpt lat="45.42031" lon="3.41339">
        <ele>601.7</ele>
        <time>2020-09-17T12:38:49Z</time>
      </trkpt>
      <trkpt lat="45.4203" lon="3.41339">
        <ele>601.8</ele>
        <time>2020-09-17T12:38:50Z</time>
      </trkpt>
      <trkpt lat="45.42029" lon="3.4134">
        <ele>602</ele>
        <time>2020-09-17T12:38:51Z</time>
      </trkpt>
      <trkpt lat="45.42028" lon="3.4134">
        <ele>602.2</ele>
        <time>2020-09-17T12:38:52Z</time>
      </trkpt>
      <trkpt lat="45.42027" lon="3.41341">
        <ele>602.4</ele>
        <time>2020-09-17T12:38:53Z</time>
      </trkpt>
      <trkpt lat="45.42026" lon="3.41341">
        <ele>602.6</ele>
        <time>2020-09-17T12:38:54Z</time>
      </trkpt>
      <trkpt lat="45.42025" lon="3.41342">
        <ele>602.8</ele>
        <time>2020-09-17T12:38:55Z</time>
      </trkpt>
      <trkpt lat="45.42023" lon="3.41343">
        <ele>603</ele>
        <time>2020-09-17T12:38:56Z</time>
      </trkpt>
      <trkpt lat="45.42022" lon="3.41343">
        <ele>603.1</ele>
        <time>2020-09-17T12:38:57Z</time>
      </trkpt>
      <trkpt lat="45.42021" lon="3.41343">
        <ele>603.2</ele>
        <time>2020-09-17T12:38:58Z</time>
      </trkpt>
      <trkpt lat="45.4202" lon="3.41344">
        <ele>603.4</ele>
        <time>2020-09-17T12:38:59Z</time>
      </trkpt>
      <trkpt lat="45.42018" lon="3.41344">
        <ele>603.6</ele>
        <time>2020-09-17T12:39:00Z</time>
      </trkpt>
      <trkpt lat="45.42017" lon="3.41345">
        <ele>603.7</ele>
        <time>2020-09-17T12:39:01Z</time>
      </trkpt>
      <trkpt lat="45.42016" lon="3.41345">
        <ele>603.8</ele>
        <time>2020-09-17T12:39:02Z</time>
      </trkpt>
      <trkpt lat="45.42015" lon="3.41345">
        <ele>603.8</ele>
        <time>2020-09-17T12:39:03Z</time>
      </trkpt>
      <trkpt lat="45.42013" lon="3.41345">
        <ele>603.9</ele>
        <time>2020-09-17T12:39:04Z</time>
      </trkpt>
      <trkpt lat="45.42012" lon="3.41346">
        <ele>603.9</ele>
        <time>2020-09-17T12:39:05Z</time>
      </trkpt>
      <trkpt lat="45.42011" lon="3.41346">
        <ele>604</ele>
        <time>2020-09-17T12:39:06Z</time>
      </trkpt>
      <trkpt lat="45.42009" lon="3.41346">
        <ele>604</ele>
        <time>2020-09-17T12:39:07Z</time>
      </trkpt>
      <trkpt lat="45.42008" lon="3.41346">
        <ele>604.1</ele>
        <time>2020-09-17T12:39:08Z</time>
      </trkpt>
      <trkpt lat="45.42007" lon="3.41346">
        <ele>604.2</ele>
        <time>2020-09-17T12:39:09Z</time>
      </trkpt>
      <trkpt lat="45.42006" lon="3.41347">
        <ele>604.3</ele>
        <time>2020-09-17T12:39:10Z</time>
      </trkpt>
      <trkpt lat="45.42004" lon="3.41347">
        <ele>604.4</ele>
        <time>2020-09-17T12:39:11Z</time>
      </trkpt>
      <trkpt lat="45.42003" lon="3.41347">
        <ele>604.5</ele>
        <time>2020-09-17T12:39:12Z</time>
      </trkpt>
      <trkpt lat="45.42002" lon="3.41348">
        <ele>604.7</ele>
        <time>2020-09-17T12:39:13Z</time>
      </trkpt>
      <trkpt lat="45.42001" lon="3.41348">
        <ele>604.8</ele>
        <time>2020-09-17T12:39:14Z</time>
      </trkpt>
      <trkpt lat="45.42" lon="3.41349">
        <ele>605</ele>
        <time>2020-09-17T12:39:15Z</time>
      </trkpt>
      <trkpt lat="45.41999" lon="3.41349">
        <ele>605.1</ele>
        <time>2020-09-17T12:39:16Z</time>
      </trkpt>
      <trkpt lat="45.41997" lon="3.4135">
        <ele>605.3</ele>
        <time>2020-09-17T12:39:17Z</time>
      </trkpt>
      <trkpt lat="45.41996" lon="3.4135">
        <ele>605.4</ele>
        <time>2020-09-17T12:39:18Z</time>
      </trkpt>
      <trkpt lat="45.41995" lon="3.4135">
        <ele>605.5</ele>
        <time>2020-09-17T12:39:19Z</time>
      </trkpt>
      <trkpt lat="45.41994" lon="3.41351">
        <ele>605.6</ele>
        <time>2020-09-17T12:39:20Z</time>
      </trkpt>
      <trkpt lat="45.41992" lon="3.41351">
        <ele>605.6</ele>
        <time>2020-09-17T12:39:21Z</time>
      </trkpt>
      <trkpt lat="45.41991" lon="3.41351">
        <ele>605.7</ele>
        <time>2020-09-17T12:39:22Z</time>
      </trkpt>
      <trkpt lat="45.4199" lon="3.41351">
        <ele>605.7</ele>
        <time>2020-09-17T12:39:23Z</time>
      </trkpt>
      <trkpt lat="45.41989" lon="3.41352">
        <ele>605.8</ele>
        <time>2020-09-17T12:39:24Z</time>
      </trkpt>
      <trkpt lat="45.41988" lon="3.41352">
        <ele>605.8</ele>
        <time>2020-09-17T12:39:25Z</time>
      </trkpt>
      <trkpt lat="45.41987" lon="3.41353">
        <ele>606</ele>
        <time>2020-09-17T12:39:26Z</time>
      </trkpt>
      <trkpt lat="45.41985" lon="3.41353">
        <ele>606.2</ele>
        <time>2020-09-17T12:39:27Z</time>
      </trkpt>
      <trkpt lat="45.41984" lon="3.41354">
        <ele>606.3</ele>
        <time>2020-09-17T12:39:28Z</time>
      </trkpt>
      <trkpt lat="45.41983" lon="3.41354">
        <ele>606.4</ele>
        <time>2020-09-17T12:39:29Z</time>
      </trkpt>
      <trkpt lat="45.41982" lon="3.41355">
        <ele>606.6</ele>
        <time>2020-09-17T12:39:30Z</time>
      </trkpt>
      <trkpt lat="45.41981" lon="3.41356">
        <ele>606.8</ele>
        <time>2020-09-17T12:39:31Z</time>
      </trkpt>
      <trkpt lat="45.4198" lon="3.41356">
        <ele>606.9</ele>
        <time>2020-09-17T12:39:32Z</time>
      </trkpt>
      <trkpt lat="45.41978" lon="3.41357">
        <ele>607.1</ele>
        <time>2020-09-17T12:39:33Z</time>
      </trkpt>
      <trkpt lat="45.41977" lon="3.41358">
        <ele>607.2</ele>
        <time>2020-09-17T12:39:34Z</time>
      </trkpt>
      <trkpt lat="45.41976" lon="3.41358">
        <ele>607.3</ele>
        <time>2020-09-17T12:39:35Z</time>
      </trkpt>
      <trkpt lat="45.41974" lon="3.41359">
        <ele>607.4</ele>
        <time>2020-09-17T12:39:36Z</time>
      </trkpt>
      <trkpt lat="45.41973" lon="3.41359">
        <ele>607.6</ele>
        <time>2020-09-17T12:39:37Z</time>
      </trkpt>
      <trkpt lat="45.41972" lon="3.4136">
        <ele>607.7</ele>
        <time>2020-09-17T12:39:38Z</time>
      </trkpt>
      <trkpt lat="45.41971" lon="3.41361">
        <ele>607.8</ele>
        <time>2020-09-17T12:39:39Z</time>
      </trkpt>
      <trkpt lat="45.4197" lon="3.41361">
        <ele>607.9</ele>
        <time>2020-09-17T12:39:40Z</time>
      </trkpt>
      <trkpt lat="45.41969" lon="3.41362">
        <ele>608.1</ele>
        <time>2020-09-17T12:39:41Z</time>
      </trkpt>
      <trkpt lat="45.41968" lon="3.41363">
        <ele>608.3</ele>
        <time>2020-09-17T12:39:42Z</time>
      </trkpt>
      <trkpt lat="45.41967" lon="3.41363">
        <ele>608.4</ele>
        <time>2020-09-17T12:39:43Z</time>
      </trkpt>
      <trkpt lat="45.41966" lon="3.41364">
        <ele>608.7</ele>
        <time>2020-09-17T12:39:44Z</time>
      </trkpt>
      <trkpt lat="45.41965" lon="3.41365">
        <ele>608.9</ele>
        <time>2020-09-17T12:39:45Z</time>
      </trkpt>
      <trkpt lat="45.41964" lon="3.41366">
        <ele>609</ele>
        <time>2020-09-17T12:39:46Z</time>
      </trkpt>
      <trkpt lat="45.41963" lon="3.41366">
        <ele>609.2</ele>
        <time>2020-09-17T12:39:47Z</time>
      </trkpt>
      <trkpt lat="45.41962" lon="3.41367">
        <ele>609.3</ele>
        <time>2020-09-17T12:39:48Z</time>
      </trkpt>
      <trkpt lat="45.41961" lon="3.41367">
        <ele>609.4</ele>
        <time>2020-09-17T12:39:49Z</time>
      </trkpt>
      <trkpt lat="45.41959" lon="3.41368">
        <ele>609.4</ele>
        <time>2020-09-17T12:39:50Z</time>
      </trkpt>
      <trkpt lat="45.41958" lon="3.41368">
        <ele>609.5</ele>
        <time>2020-09-17T12:39:51Z</time>
      </trkpt>
      <trkpt lat="45.41957" lon="3.41368">
        <ele>609.5</ele>
        <time>2020-09-17T12:39:52Z</time>
      </trkpt>
      <trkpt lat="45.41956" lon="3.41369">
        <ele>609.6</ele>
        <time>2020-09-17T12:39:53Z</time>
      </trkpt>
      <trkpt lat="45.41955" lon="3.4137">
        <ele>609.7</ele>
        <time>2020-09-17T12:39:54Z</time>
      </trkpt>
      <trkpt lat="45.41954" lon="3.4137">
        <ele>609.8</ele>
        <time>2020-09-17T12:39:55Z</time>
      </trkpt>
      <trkpt lat="45.41953" lon="3.41371">
        <ele>610</ele>
        <time>2020-09-17T12:39:56Z</time>
      </trkpt>
      <trkpt lat="45.41952" lon="3.41372">
        <ele>610.1</ele>
        <time>2020-09-17T12:39:57Z</time>
      </trkpt>
      <trkpt lat="45.41951" lon="3.41372">
        <ele>610.2</ele>
        <time>2020-09-17T12:39:58Z</time>
      </trkpt>
      <trkpt lat="45.4195" lon="3.41373">
        <ele>610.3</ele>
        <time>2020-09-17T12:39:59Z</time>
      </trkpt>
      <trkpt lat="45.41948" lon="3.41374">
        <ele>610.5</ele>
        <time>2020-09-17T12:40:00Z</time>
      </trkpt>
      <trkpt lat="45.41947" lon="3.41374">
        <ele>610.5</ele>
        <time>2020-09-17T12:40:01Z</time>
      </trkpt>
      <trkpt lat="45.41946" lon="3.41375">
        <ele>610.6</ele>
        <time>2020-09-17T12:40:02Z</time>
      </trkpt>
      <trkpt lat="45.41945" lon="3.41376">
        <ele>610.8</ele>
        <time>2020-09-17T12:40:03Z</time>
      </trkpt>
      <trkpt lat="45.41944" lon="3.41377">
        <ele>610.9</ele>
        <time>2020-09-17T12:40:04Z</time>
      </trkpt>
      <trkpt lat="45.41943" lon="3.41377">
        <ele>611</ele>
        <time>2020-09-17T12:40:05Z</time>
      </trkpt>
      <trkpt lat="45.41942" lon="3.41378">
        <ele>611.1</ele>
        <time>2020-09-17T12:40:06Z</time>
      </trkpt>
      <trkpt lat="45.41941" lon="3.41379">
        <ele>611.2</ele>
        <time>2020-09-17T12:40:07Z</time>
      </trkpt>
      <trkpt lat="45.4194" lon="3.4138">
        <ele>611.3</ele>
        <time>2020-09-17T12:40:08Z</time>
      </trkpt>
      <trkpt lat="45.41939" lon="3.41381">
        <ele>611.4</ele>
        <time>2020-09-17T12:40:09Z</time>
      </trkpt>
      <trkpt lat="45.41938" lon="3.41381">
        <ele>611.4</ele>
        <time>2020-09-17T12:40:10Z</time>
      </trkpt>
      <trkpt lat="45.41937" lon="3.41382">
        <ele>611.5</ele>
        <time>2020-09-17T12:40:11Z</time>
      </trkpt>
      <trkpt lat="45.41936" lon="3.41383">
        <ele>611.6</ele>
        <time>2020-09-17T12:40:12Z</time>
      </trkpt>
      <trkpt lat="45.41935" lon="3.41384">
        <ele>611.7</ele>
        <time>2020-09-17T12:40:13Z</time>
      </trkpt>
      <trkpt lat="45.41934" lon="3.41384">
        <ele>611.8</ele>
        <time>2020-09-17T12:40:14Z</time>
      </trkpt>
      <trkpt lat="45.41934" lon="3.41385">
        <ele>611.9</ele>
        <time>2020-09-17T12:40:15Z</time>
      </trkpt>
      <trkpt lat="45.41933" lon="3.41386">
        <ele>612</ele>
        <time>2020-09-17T12:40:16Z</time>
      </trkpt>
      <trkpt lat="45.41932" lon="3.41386">
        <ele>612</ele>
        <time>2020-09-17T12:40:17Z</time>
      </trkpt>
      <trkpt lat="45.41931" lon="3.41387">
        <ele>612.1</ele>
        <time>2020-09-17T12:40:18Z</time>
      </trkpt>
      <trkpt lat="45.4193" lon="3.41388">
        <ele>612.2</ele>
        <time>2020-09-17T12:40:19Z</time>
      </trkpt>
      <trkpt lat="45.41929" lon="3.41389">
        <ele>612.3</ele>
        <time>2020-09-17T12:40:20Z</time>
      </trkpt>
      <trkpt lat="45.41929" lon="3.4139">
        <ele>612.5</ele>
        <time>2020-09-17T12:40:21Z</time>
      </trkpt>
      <trkpt lat="45.41928" lon="3.41391">
        <ele>612.7</ele>
        <time>2020-09-17T12:40:22Z</time>
      </trkpt>
      <trkpt lat="45.41927" lon="3.41391">
        <ele>612.8</ele>
        <time>2020-09-17T12:40:23Z</time>
      </trkpt>
      <trkpt lat="45.41926" lon="3.41392">
        <ele>612.9</ele>
        <time>2020-09-17T12:40:24Z</time>
      </trkpt>
      <trkpt lat="45.41925" lon="3.41393">
        <ele>613.1</ele>
        <time>2020-09-17T12:40:25Z</time>
      </trkpt>
      <trkpt lat="45.41924" lon="3.41394">
        <ele>613.2</ele>
        <time>2020-09-17T12:40:26Z</time>
      </trkpt>
      <trkpt lat="45.41924" lon="3.41395">
        <ele>613.4</ele>
        <time>2020-09-17T12:40:27Z</time>
      </trkpt>
      <trkpt lat="45.41923" lon="3.41396">
        <ele>613.7</ele>
        <time>2020-09-17T12:40:28Z</time>
      </trkpt>
      <trkpt lat="45.41922" lon="3.41397">
        <ele>613.9</ele>
        <time>2020-09-17T12:40:29Z</time>
      </trkpt>
      <trkpt lat="45.41921" lon="3.41398">
        <ele>614.1</ele>
        <time>2020-09-17T12:40:30Z</time>
      </trkpt>
      <trkpt lat="45.4192" lon="3.41399">
        <ele>614.3</ele>
        <time>2020-09-17T12:40:31Z</time>
      </trkpt>
      <trkpt lat="45.41919" lon="3.414">
        <ele>614.3</ele>
        <time>2020-09-17T12:40:32Z</time>
      </trkpt>
      <trkpt lat="45.41918" lon="3.41401">
        <ele>614.5</ele>
        <time>2020-09-17T12:40:33Z</time>
      </trkpt>
      <trkpt lat="45.41917" lon="3.41401">
        <ele>614.6</ele>
        <time>2020-09-17T12:40:34Z</time>
      </trkpt>
      <trkpt lat="45.41916" lon="3.41402">
        <ele>614.7</ele>
        <time>2020-09-17T12:40:35Z</time>
      </trkpt>
      <trkpt lat="45.41915" lon="3.41403">
        <ele>614.8</ele>
        <time>2020-09-17T12:40:36Z</time>
      </trkpt>
      <trkpt lat="45.41914" lon="3.41404">
        <ele>614.9</ele>
        <time>2020-09-17T12:40:37Z</time>
      </trkpt>
      <trkpt lat="45.41913" lon="3.41405">
        <ele>615</ele>
        <time>2020-09-17T12:40:38Z</time>
      </trkpt>
      <trkpt lat="45.41912" lon="3.41405">
        <ele>615.1</ele>
        <time>2020-09-17T12:40:39Z</time>
      </trkpt>
      <trkpt lat="45.41911" lon="3.41406">
        <ele>615.1</ele>
        <time>2020-09-17T12:40:40Z</time>
      </trkpt>
      <trkpt lat="45.4191" lon="3.41407">
        <ele>615.2</ele>
        <time>2020-09-17T12:40:41Z</time>
      </trkpt>
      <trkpt lat="45.41909" lon="3.41408">
        <ele>615.4</ele>
        <time>2020-09-17T12:40:42Z</time>
      </trkpt>
      <trkpt lat="45.41908" lon="3.41409">
        <ele>615.4</ele>
        <time>2020-09-17T12:40:43Z</time>
      </trkpt>
      <trkpt lat="45.41907" lon="3.41409">
        <ele>615.5</ele>
        <time>2020-09-17T12:40:44Z</time>
      </trkpt>
      <trkpt lat="45.41906" lon="3.4141">
        <ele>615.6</ele>
        <time>2020-09-17T12:40:45Z</time>
      </trkpt>
      <trkpt lat="45.41905" lon="3.41411">
        <ele>615.7</ele>
        <time>2020-09-17T12:40:46Z</time>
      </trkpt>
      <trkpt lat="45.41904" lon="3.41412">
        <ele>615.8</ele>
        <time>2020-09-17T12:40:47Z</time>
      </trkpt>
      <trkpt lat="45.41903" lon="3.41413">
        <ele>615.9</ele>
        <time>2020-09-17T12:40:48Z</time>
      </trkpt>
      <trkpt lat="45.41902" lon="3.41414">
        <ele>616</ele>
        <time>2020-09-17T12:40:49Z</time>
      </trkpt>
      <trkpt lat="45.41901" lon="3.41414">
        <ele>616.1</ele>
        <time>2020-09-17T12:40:50Z</time>
      </trkpt>
      <trkpt lat="45.419" lon="3.41415">
        <ele>616.3</ele>
        <time>2020-09-17T12:40:51Z</time>
      </trkpt>
      <trkpt lat="45.41899" lon="3.41416">
        <ele>616.3</ele>
        <time>2020-09-17T12:40:52Z</time>
      </trkpt>
      <trkpt lat="45.41898" lon="3.41417">
        <ele>616.3</ele>
        <time>2020-09-17T12:40:53Z</time>
      </trkpt>
      <trkpt lat="45.41897" lon="3.41418">
        <ele>616.4</ele>
        <time>2020-09-17T12:40:54Z</time>
      </trkpt>
      <trkpt lat="45.41896" lon="3.41419">
        <ele>616.4</ele>
        <time>2020-09-17T12:40:55Z</time>
      </trkpt>
      <trkpt lat="45.41895" lon="3.41419">
        <ele>616.4</ele>
        <time>2020-09-17T12:40:56Z</time>
      </trkpt>
      <trkpt lat="45.41894" lon="3.41421">
        <ele>616.5</ele>
        <time>2020-09-17T12:40:57Z</time>
      </trkpt>
      <trkpt lat="45.41894" lon="3.41422">
        <ele>616.6</ele>
        <time>2020-09-17T12:40:58Z</time>
      </trkpt>
      <trkpt lat="45.41893" lon="3.41422">
        <ele>616.6</ele>
        <time>2020-09-17T12:40:59Z</time>
      </trkpt>
      <trkpt lat="45.41892" lon="3.41424">
        <ele>616.7</ele>
        <time>2020-09-17T12:41:00Z</time>
      </trkpt>
      <trkpt lat="45.41891" lon="3.41425">
        <ele>616.8</ele>
        <time>2020-09-17T12:41:01Z</time>
      </trkpt>
      <trkpt lat="45.41891" lon="3.41426">
        <ele>616.9</ele>
        <time>2020-09-17T12:41:02Z</time>
      </trkpt>
      <trkpt lat="45.4189" lon="3.41427">
        <ele>617.1</ele>
        <time>2020-09-17T12:41:03Z</time>
      </trkpt>
      <trkpt lat="45.41889" lon="3.41429">
        <ele>617.2</ele>
        <time>2020-09-17T12:41:04Z</time>
      </trkpt>
      <trkpt lat="45.41889" lon="3.4143">
        <ele>617.3</ele>
        <time>2020-09-17T12:41:05Z</time>
      </trkpt>
      <trkpt lat="45.41888" lon="3.41431">
        <ele>617.4</ele>
        <time>2020-09-17T12:41:06Z</time>
      </trkpt>
      <trkpt lat="45.41887" lon="3.41432">
        <ele>617.4</ele>
        <time>2020-09-17T12:41:07Z</time>
      </trkpt>
      <trkpt lat="45.41887" lon="3.41434">
        <ele>617.5</ele>
        <time>2020-09-17T12:41:08Z</time>
      </trkpt>
      <trkpt lat="45.41886" lon="3.41435">
        <ele>617.7</ele>
        <time>2020-09-17T12:41:09Z</time>
      </trkpt>
      <trkpt lat="45.41886" lon="3.41437">
        <ele>617.8</ele>
        <time>2020-09-17T12:41:10Z</time>
      </trkpt>
      <trkpt lat="45.41885" lon="3.41438">
        <ele>617.9</ele>
        <time>2020-09-17T12:41:11Z</time>
      </trkpt>
      <trkpt lat="45.41885" lon="3.4144">
        <ele>618.1</ele>
        <time>2020-09-17T12:41:12Z</time>
      </trkpt>
      <trkpt lat="45.41885" lon="3.41441">
        <ele>618.3</ele>
        <time>2020-09-17T12:41:13Z</time>
      </trkpt>
      <trkpt lat="45.41885" lon="3.41443">
        <ele>618.6</ele>
        <time>2020-09-17T12:41:14Z</time>
      </trkpt>
      <trkpt lat="45.41885" lon="3.41445">
        <ele>618.9</ele>
        <time>2020-09-17T12:41:15Z</time>
      </trkpt>
      <trkpt lat="45.41885" lon="3.41446">
        <ele>618.9</ele>
        <time>2020-09-17T12:41:16Z</time>
      </trkpt>
      <trkpt lat="45.41885" lon="3.41448">
        <ele>618.9</ele>
        <time>2020-09-17T12:41:17Z</time>
      </trkpt>
      <trkpt lat="45.41885" lon="3.41449">
        <ele>619</ele>
        <time>2020-09-17T12:41:18Z</time>
      </trkpt>
      <trkpt lat="45.41885" lon="3.41451">
        <ele>619</ele>
        <time>2020-09-17T12:41:19Z</time>
      </trkpt>
      <trkpt lat="45.41886" lon="3.41452">
        <ele>619.1</ele>
        <time>2020-09-17T12:41:20Z</time>
      </trkpt>
      <trkpt lat="45.41886" lon="3.41454">
        <ele>619.1</ele>
        <time>2020-09-17T12:41:21Z</time>
      </trkpt>
      <trkpt lat="45.41886" lon="3.41455">
        <ele>619.2</ele>
        <time>2020-09-17T12:41:22Z</time>
      </trkpt>
      <trkpt lat="45.41886" lon="3.41457">
        <ele>619.2</ele>
        <time>2020-09-17T12:41:23Z</time>
      </trkpt>
      <trkpt lat="45.41886" lon="3.41458">
        <ele>619.2</ele>
        <time>2020-09-17T12:41:24Z</time>
      </trkpt>
      <trkpt lat="45.41886" lon="3.4146">
        <ele>619.3</ele>
        <time>2020-09-17T12:41:25Z</time>
      </trkpt>
      <trkpt lat="45.41886" lon="3.41461">
        <ele>619.3</ele>
        <time>2020-09-17T12:41:26Z</time>
      </trkpt>
      <trkpt lat="45.41886" lon="3.41463">
        <ele>619.4</ele>
        <time>2020-09-17T12:41:27Z</time>
      </trkpt>
      <trkpt lat="45.41887" lon="3.41464">
        <ele>619.4</ele>
        <time>2020-09-17T12:41:28Z</time>
      </trkpt>
      <trkpt lat="45.41887" lon="3.41466">
        <ele>619.5</ele>
        <time>2020-09-17T12:41:29Z</time>
      </trkpt>
      <trkpt lat="45.41887" lon="3.41467">
        <ele>619.6</ele>
        <time>2020-09-17T12:41:30Z</time>
      </trkpt>
      <trkpt lat="45.41888" lon="3.41468">
        <ele>619.7</ele>
        <time>2020-09-17T12:41:31Z</time>
      </trkpt>
      <trkpt lat="45.41888" lon="3.4147">
        <ele>619.8</ele>
        <time>2020-09-17T12:41:32Z</time>
      </trkpt>
      <trkpt lat="45.41888" lon="3.41471">
        <ele>619.9</ele>
        <time>2020-09-17T12:41:33Z</time>
      </trkpt>
      <trkpt lat="45.41889" lon="3.41472">
        <ele>620</ele>
        <time>2020-09-17T12:41:34Z</time>
      </trkpt>
      <trkpt lat="45.41889" lon="3.41473">
        <ele>620</ele>
        <time>2020-09-17T12:41:35Z</time>
      </trkpt>
      <trkpt lat="45.4189" lon="3.41474">
        <ele>620.1</ele>
        <time>2020-09-17T12:41:36Z</time>
      </trkpt>
      <trkpt lat="45.41891" lon="3.41475">
        <ele>620.2</ele>
        <time>2020-09-17T12:41:37Z</time>
      </trkpt>
      <trkpt lat="45.41891" lon="3.41477">
        <ele>620.3</ele>
        <time>2020-09-17T12:41:38Z</time>
      </trkpt>
      <trkpt lat="45.41892" lon="3.41478">
        <ele>620.5</ele>
        <time>2020-09-17T12:41:39Z</time>
      </trkpt>
      <trkpt lat="45.41893" lon="3.41479">
        <ele>620.6</ele>
        <time>2020-09-17T12:41:40Z</time>
      </trkpt>
      <trkpt lat="45.41894" lon="3.4148">
        <ele>620.7</ele>
        <time>2020-09-17T12:41:41Z</time>
      </trkpt>
      <trkpt lat="45.41894" lon="3.41482">
        <ele>620.9</ele>
        <time>2020-09-17T12:41:42Z</time>
      </trkpt>
      <trkpt lat="45.41895" lon="3.41483">
        <ele>620.9</ele>
        <time>2020-09-17T12:41:43Z</time>
      </trkpt>
      <trkpt lat="45.41896" lon="3.41484">
        <ele>621.1</ele>
        <time>2020-09-17T12:41:44Z</time>
      </trkpt>
      <trkpt lat="45.41896" lon="3.41485">
        <ele>621.2</ele>
        <time>2020-09-17T12:41:45Z</time>
      </trkpt>
      <trkpt lat="45.41897" lon="3.41486">
        <ele>621.3</ele>
        <time>2020-09-17T12:41:46Z</time>
      </trkpt>
      <trkpt lat="45.41898" lon="3.41488">
        <ele>621.5</ele>
        <time>2020-09-17T12:41:47Z</time>
      </trkpt>
      <trkpt lat="45.41898" lon="3.41489">
        <ele>621.7</ele>
        <time>2020-09-17T12:41:48Z</time>
      </trkpt>
      <trkpt lat="45.41899" lon="3.4149">
        <ele>621.9</ele>
        <time>2020-09-17T12:41:49Z</time>
      </trkpt>
      <trkpt lat="45.419" lon="3.41492">
        <ele>622.1</ele>
        <time>2020-09-17T12:41:50Z</time>
      </trkpt>
      <trkpt lat="45.41901" lon="3.41493">
        <ele>622.3</ele>
        <time>2020-09-17T12:41:51Z</time>
      </trkpt>
      <trkpt lat="45.41902" lon="3.41494">
        <ele>622.4</ele>
        <time>2020-09-17T12:41:52Z</time>
      </trkpt>
      <trkpt lat="45.41902" lon="3.41496">
        <ele>622.6</ele>
        <time>2020-09-17T12:41:53Z</time>
      </trkpt>
      <trkpt lat="45.41903" lon="3.41497">
        <ele>622.7</ele>
        <time>2020-09-17T12:41:54Z</time>
      </trkpt>
      <trkpt lat="45.41903" lon="3.41498">
        <ele>622.8</ele>
        <time>2020-09-17T12:41:55Z</time>
      </trkpt>
      <trkpt lat="45.41904" lon="3.415">
        <ele>623</ele>
        <time>2020-09-17T12:41:56Z</time>
      </trkpt>
      <trkpt lat="45.41905" lon="3.41501">
        <ele>623.2</ele>
        <time>2020-09-17T12:41:57Z</time>
      </trkpt>
      <trkpt lat="45.41905" lon="3.41502">
        <ele>623.3</ele>
        <time>2020-09-17T12:41:58Z</time>
      </trkpt>
      <trkpt lat="45.41906" lon="3.41503">
        <ele>623.4</ele>
        <time>2020-09-17T12:41:59Z</time>
      </trkpt>
      <trkpt lat="45.41906" lon="3.41505">
        <ele>623.5</ele>
        <time>2020-09-17T12:42:00Z</time>
      </trkpt>
      <trkpt lat="45.41907" lon="3.41506">
        <ele>623.7</ele>
        <time>2020-09-17T12:42:01Z</time>
      </trkpt>
      <trkpt lat="45.41907" lon="3.41507">
        <ele>623.8</ele>
        <time>2020-09-17T12:42:02Z</time>
      </trkpt>
      <trkpt lat="45.41907" lon="3.41509">
        <ele>623.9</ele>
        <time>2020-09-17T12:42:03Z</time>
      </trkpt>
      <trkpt lat="45.41908" lon="3.4151">
        <ele>623.9</ele>
        <time>2020-09-17T12:42:04Z</time>
      </trkpt>
      <trkpt lat="45.41908" lon="3.41512">
        <ele>624</ele>
        <time>2020-09-17T12:42:05Z</time>
      </trkpt>
      <trkpt lat="45.41908" lon="3.41513">
        <ele>624</ele>
        <time>2020-09-17T12:42:06Z</time>
      </trkpt>
      <trkpt lat="45.41909" lon="3.41515">
        <ele>624.1</ele>
        <time>2020-09-17T12:42:07Z</time>
      </trkpt>
      <trkpt lat="45.41909" lon="3.41516">
        <ele>624.2</ele>
        <time>2020-09-17T12:42:08Z</time>
      </trkpt>
      <trkpt lat="45.4191" lon="3.41518">
        <ele>624.2</ele>
        <time>2020-09-17T12:42:09Z</time>
      </trkpt>
      <trkpt lat="45.4191" lon="3.4152">
        <ele>624.2</ele>
        <time>2020-09-17T12:42:10Z</time>
      </trkpt>
      <trkpt lat="45.4191" lon="3.41521">
        <ele>624.2</ele>
        <time>2020-09-17T12:42:11Z</time>
      </trkpt>
      <trkpt lat="45.4191" lon="3.41523">
        <ele>624.2</ele>
        <time>2020-09-17T12:42:12Z</time>
      </trkpt>
      <trkpt lat="45.4191" lon="3.41525">
        <ele>624.1</ele>
        <time>2020-09-17T12:42:13Z</time>
      </trkpt>
      <trkpt lat="45.41911" lon="3.41526">
        <ele>624.1</ele>
        <time>2020-09-17T12:42:14Z</time>
      </trkpt>
      <trkpt lat="45.41911" lon="3.41528">
        <ele>624.1</ele>
        <time>2020-09-17T12:42:15Z</time>
      </trkpt>
      <trkpt lat="45.41911" lon="3.41529">
        <ele>624.1</ele>
        <time>2020-09-17T12:42:16Z</time>
      </trkpt>
      <trkpt lat="45.41911" lon="3.41531">
        <ele>624.2</ele>
        <time>2020-09-17T12:42:17Z</time>
      </trkpt>
      <trkpt lat="45.41911" lon="3.41533">
        <ele>624.2</ele>
        <time>2020-09-17T12:42:18Z</time>
      </trkpt>
      <trkpt lat="45.41911" lon="3.41535">
        <ele>624.2</ele>
        <time>2020-09-17T12:42:19Z</time>
      </trkpt>
      <trkpt lat="45.41911" lon="3.41537">
        <ele>624.2</ele>
        <time>2020-09-17T12:42:20Z</time>
      </trkpt>
      <trkpt lat="45.41911" lon="3.41539">
        <ele>624.3</ele>
        <time>2020-09-17T12:42:21Z</time>
      </trkpt>
      <trkpt lat="45.41911" lon="3.4154">
        <ele>624.3</ele>
        <time>2020-09-17T12:42:22Z</time>
      </trkpt>
      <trkpt lat="45.41911" lon="3.41542">
        <ele>624.3</ele>
        <time>2020-09-17T12:42:23Z</time>
      </trkpt>
      <trkpt lat="45.41911" lon="3.41544">
        <ele>624.3</ele>
        <time>2020-09-17T12:42:24Z</time>
      </trkpt>
      <trkpt lat="45.41911" lon="3.41546">
        <ele>624.3</ele>
        <time>2020-09-17T12:42:25Z</time>
      </trkpt>
      <trkpt lat="45.4191" lon="3.41548">
        <ele>624.3</ele>
        <time>2020-09-17T12:42:26Z</time>
      </trkpt>
      <trkpt lat="45.4191" lon="3.41549">
        <ele>624.3</ele>
        <time>2020-09-17T12:42:27Z</time>
      </trkpt>
      <trkpt lat="45.4191" lon="3.41551">
        <ele>624.2</ele>
        <time>2020-09-17T12:42:28Z</time>
      </trkpt>
      <trkpt lat="45.4191" lon="3.41553">
        <ele>624.2</ele>
        <time>2020-09-17T12:42:29Z</time>
      </trkpt>
      <trkpt lat="45.4191" lon="3.41554">
        <ele>624.2</ele>
        <time>2020-09-17T12:42:30Z</time>
      </trkpt>
      <trkpt lat="45.41909" lon="3.41556">
        <ele>624.2</ele>
        <time>2020-09-17T12:42:31Z</time>
      </trkpt>
      <trkpt lat="45.41909" lon="3.41558">
        <ele>624.3</ele>
        <time>2020-09-17T12:42:32Z</time>
      </trkpt>
      <trkpt lat="45.41908" lon="3.4156">
        <ele>624.4</ele>
        <time>2020-09-17T12:42:33Z</time>
      </trkpt>
      <trkpt lat="45.41908" lon="3.41561">
        <ele>624.5</ele>
        <time>2020-09-17T12:42:34Z</time>
      </trkpt>
      <trkpt lat="45.41908" lon="3.41563">
        <ele>624.6</ele>
        <time>2020-09-17T12:42:35Z</time>
      </trkpt>
      <trkpt lat="45.41907" lon="3.41565">
        <ele>624.7</ele>
        <time>2020-09-17T12:42:36Z</time>
      </trkpt>
      <trkpt lat="45.41907" lon="3.41567">
        <ele>624.8</ele>
        <time>2020-09-17T12:42:37Z</time>
      </trkpt>
      <trkpt lat="45.41906" lon="3.41568">
        <ele>624.9</ele>
        <time>2020-09-17T12:42:38Z</time>
      </trkpt>
      <trkpt lat="45.41906" lon="3.4157">
        <ele>624.9</ele>
        <time>2020-09-17T12:42:39Z</time>
      </trkpt>
      <trkpt lat="45.41905" lon="3.41572">
        <ele>625</ele>
        <time>2020-09-17T12:42:40Z</time>
      </trkpt>
      <trkpt lat="45.41905" lon="3.41573">
        <ele>625</ele>
        <time>2020-09-17T12:42:41Z</time>
      </trkpt>
      <trkpt lat="45.41905" lon="3.41575">
        <ele>625.1</ele>
        <time>2020-09-17T12:42:42Z</time>
      </trkpt>
      <trkpt lat="45.41904" lon="3.41577">
        <ele>625.1</ele>
        <time>2020-09-17T12:42:43Z</time>
      </trkpt>
      <trkpt lat="45.41903" lon="3.41578">
        <ele>625.1</ele>
        <time>2020-09-17T12:42:44Z</time>
      </trkpt>
      <trkpt lat="45.41903" lon="3.4158">
        <ele>625.1</ele>
        <time>2020-09-17T12:42:45Z</time>
      </trkpt>
      <trkpt lat="45.41902" lon="3.41581">
        <ele>625.1</ele>
        <time>2020-09-17T12:42:46Z</time>
      </trkpt>
      <trkpt lat="45.41902" lon="3.41583">
        <ele>625.2</ele>
        <time>2020-09-17T12:42:47Z</time>
      </trkpt>
      <trkpt lat="45.41901" lon="3.41584">
        <ele>625.1</ele>
        <time>2020-09-17T12:42:48Z</time>
      </trkpt>
      <trkpt lat="45.41901" lon="3.41586">
        <ele>625</ele>
        <time>2020-09-17T12:42:49Z</time>
      </trkpt>
      <trkpt lat="45.419" lon="3.41587">
        <ele>624.9</ele>
        <time>2020-09-17T12:42:50Z</time>
      </trkpt>
      <trkpt lat="45.41899" lon="3.41589">
        <ele>624.9</ele>
        <time>2020-09-17T12:42:51Z</time>
      </trkpt>
      <trkpt lat="45.41899" lon="3.4159">
        <ele>624.8</ele>
        <time>2020-09-17T12:42:52Z</time>
      </trkpt>
      <trkpt lat="45.41898" lon="3.41592">
        <ele>624.8</ele>
        <time>2020-09-17T12:42:53Z</time>
      </trkpt>
      <trkpt lat="45.41897" lon="3.41593">
        <ele>624.7</ele>
        <time>2020-09-17T12:42:54Z</time>
      </trkpt>
      <trkpt lat="45.41897" lon="3.41595">
        <ele>624.7</ele>
        <time>2020-09-17T12:42:55Z</time>
      </trkpt>
      <trkpt lat="45.41896" lon="3.41596">
        <ele>624.7</ele>
        <time>2020-09-17T12:42:56Z</time>
      </trkpt>
      <trkpt lat="45.41896" lon="3.41598">
        <ele>624.6</ele>
        <time>2020-09-17T12:42:57Z</time>
      </trkpt>
      <trkpt lat="45.41895" lon="3.41599">
        <ele>624.6</ele>
        <time>2020-09-17T12:42:58Z</time>
      </trkpt>
      <trkpt lat="45.41895" lon="3.416">
        <ele>624.6</ele>
        <time>2020-09-17T12:42:59Z</time>
      </trkpt>
      <trkpt lat="45.41894" lon="3.41601">
        <ele>624.5</ele>
        <time>2020-09-17T12:43:00Z</time>
      </trkpt>
      <trkpt lat="45.41894" lon="3.41603">
        <ele>624.4</ele>
        <time>2020-09-17T12:43:01Z</time>
      </trkpt>
      <trkpt lat="45.41893" lon="3.41604">
        <ele>624.4</ele>
        <time>2020-09-17T12:43:02Z</time>
      </trkpt>
      <trkpt lat="45.41892" lon="3.41605">
        <ele>624.3</ele>
        <time>2020-09-17T12:43:03Z</time>
      </trkpt>
      <trkpt lat="45.41892" lon="3.41607">
        <ele>624.3</ele>
        <time>2020-09-17T12:43:04Z</time>
      </trkpt>
      <trkpt lat="45.41891" lon="3.41608">
        <ele>624.2</ele>
        <time>2020-09-17T12:43:05Z</time>
      </trkpt>
      <trkpt lat="45.4189" lon="3.41609">
        <ele>624.2</ele>
        <time>2020-09-17T12:43:06Z</time>
      </trkpt>
      <trkpt lat="45.4189" lon="3.41611">
        <ele>624.1</ele>
        <time>2020-09-17T12:43:07Z</time>
      </trkpt>
      <trkpt lat="45.41889" lon="3.41612">
        <ele>624.1</ele>
        <time>2020-09-17T12:43:08Z</time>
      </trkpt>
      <trkpt lat="45.41888" lon="3.41613">
        <ele>624.3</ele>
        <time>2020-09-17T12:43:09Z</time>
      </trkpt>
      <trkpt lat="45.41888" lon="3.41615">
        <ele>624.4</ele>
        <time>2020-09-17T12:43:10Z</time>
      </trkpt>
      <trkpt lat="45.41887" lon="3.41616">
        <ele>624.6</ele>
        <time>2020-09-17T12:43:11Z</time>
      </trkpt>
      <trkpt lat="45.41886" lon="3.41617">
        <ele>624.8</ele>
        <time>2020-09-17T12:43:12Z</time>
      </trkpt>
      <trkpt lat="45.41886" lon="3.41619">
        <ele>624.9</ele>
        <time>2020-09-17T12:43:13Z</time>
      </trkpt>
      <trkpt lat="45.41885" lon="3.4162">
        <ele>625.1</ele>
        <time>2020-09-17T12:43:14Z</time>
      </trkpt>
      <trkpt lat="45.41884" lon="3.41621">
        <ele>625.1</ele>
        <time>2020-09-17T12:43:15Z</time>
      </trkpt>
      <trkpt lat="45.41883" lon="3.41622">
        <ele>625.3</ele>
        <time>2020-09-17T12:43:16Z</time>
      </trkpt>
      <trkpt lat="45.41883" lon="3.41624">
        <ele>625.4</ele>
        <time>2020-09-17T12:43:17Z</time>
      </trkpt>
      <trkpt lat="45.41882" lon="3.41625">
        <ele>625.5</ele>
        <time>2020-09-17T12:43:18Z</time>
      </trkpt>
      <trkpt lat="45.41881" lon="3.41627">
        <ele>625.7</ele>
        <time>2020-09-17T12:43:19Z</time>
      </trkpt>
      <trkpt lat="45.41881" lon="3.41628">
        <ele>625.8</ele>
        <time>2020-09-17T12:43:20Z</time>
      </trkpt>
      <trkpt lat="45.4188" lon="3.4163">
        <ele>625.9</ele>
        <time>2020-09-17T12:43:21Z</time>
      </trkpt>
      <trkpt lat="45.4188" lon="3.41631">
        <ele>626.1</ele>
        <time>2020-09-17T12:43:22Z</time>
      </trkpt>
      <trkpt lat="45.41879" lon="3.41633">
        <ele>626.2</ele>
        <time>2020-09-17T12:43:23Z</time>
      </trkpt>
      <trkpt lat="45.41879" lon="3.41634">
        <ele>626.3</ele>
        <time>2020-09-17T12:43:24Z</time>
      </trkpt>
      <trkpt lat="45.41878" lon="3.41636">
        <ele>626.4</ele>
        <time>2020-09-17T12:43:25Z</time>
      </trkpt>
      <trkpt lat="45.41877" lon="3.41637">
        <ele>626.5</ele>
        <time>2020-09-17T12:43:26Z</time>
      </trkpt>
      <trkpt lat="45.41877" lon="3.41638">
        <ele>626.6</ele>
        <time>2020-09-17T12:43:27Z</time>
      </trkpt>
      <trkpt lat="45.41876" lon="3.41639">
        <ele>626.7</ele>
        <time>2020-09-17T12:43:28Z</time>
      </trkpt>
      <trkpt lat="45.41875" lon="3.41641">
        <ele>626.8</ele>
        <time>2020-09-17T12:43:29Z</time>
      </trkpt>
      <trkpt lat="45.41875" lon="3.41642">
        <ele>626.9</ele>
        <time>2020-09-17T12:43:30Z</time>
      </trkpt>
      <trkpt lat="45.41874" lon="3.41643">
        <ele>627</ele>
        <time>2020-09-17T12:43:31Z</time>
      </trkpt>
      <trkpt lat="45.41873" lon="3.41645">
        <ele>627.1</ele>
        <time>2020-09-17T12:43:32Z</time>
      </trkpt>
      <trkpt lat="45.41872" lon="3.41646">
        <ele>627.1</ele>
        <time>2020-09-17T12:43:33Z</time>
      </trkpt>
      <trkpt lat="45.41872" lon="3.41647">
        <ele>627.2</ele>
        <time>2020-09-17T12:43:34Z</time>
      </trkpt>
      <trkpt lat="45.41871" lon="3.41649">
        <ele>627.3</ele>
        <time>2020-09-17T12:43:35Z</time>
      </trkpt>
      <trkpt lat="45.4187" lon="3.4165">
        <ele>627.3</ele>
        <time>2020-09-17T12:43:36Z</time>
      </trkpt>
      <trkpt lat="45.41869" lon="3.41651">
        <ele>627.3</ele>
        <time>2020-09-17T12:43:37Z</time>
      </trkpt>
      <trkpt lat="45.41869" lon="3.41652">
        <ele>627.3</ele>
        <time>2020-09-17T12:43:38Z</time>
      </trkpt>
      <trkpt lat="45.41868" lon="3.41653">
        <ele>627.2</ele>
        <time>2020-09-17T12:43:39Z</time>
      </trkpt>
      <trkpt lat="45.41867" lon="3.41654">
        <ele>627.1</ele>
        <time>2020-09-17T12:43:40Z</time>
      </trkpt>
      <trkpt lat="45.41866" lon="3.41655">
        <ele>627</ele>
        <time>2020-09-17T12:43:41Z</time>
      </trkpt>
      <trkpt lat="45.41865" lon="3.41657">
        <ele>627</ele>
        <time>2020-09-17T12:43:42Z</time>
      </trkpt>
      <trkpt lat="45.41864" lon="3.41658">
        <ele>626.9</ele>
        <time>2020-09-17T12:43:43Z</time>
      </trkpt>
      <trkpt lat="45.41863" lon="3.41659">
        <ele>626.8</ele>
        <time>2020-09-17T12:43:44Z</time>
      </trkpt>
      <trkpt lat="45.41862" lon="3.4166">
        <ele>626.6</ele>
        <time>2020-09-17T12:43:45Z</time>
      </trkpt>
      <trkpt lat="45.41861" lon="3.41661">
        <ele>626.6</ele>
        <time>2020-09-17T12:43:46Z</time>
      </trkpt>
      <trkpt lat="45.4186" lon="3.41662">
        <ele>626.8</ele>
        <time>2020-09-17T12:43:47Z</time>
      </trkpt>
      <trkpt lat="45.41859" lon="3.41663">
        <ele>626.9</ele>
        <time>2020-09-17T12:43:48Z</time>
      </trkpt>
      <trkpt lat="45.41858" lon="3.41665">
        <ele>627</ele>
        <time>2020-09-17T12:43:49Z</time>
      </trkpt>
      <trkpt lat="45.41857" lon="3.41665">
        <ele>627.1</ele>
        <time>2020-09-17T12:43:50Z</time>
      </trkpt>
      <trkpt lat="45.41855" lon="3.41666">
        <ele>627.2</ele>
        <time>2020-09-17T12:43:51Z</time>
      </trkpt>
      <trkpt lat="45.41854" lon="3.41667">
        <ele>627.3</ele>
        <time>2020-09-17T12:43:52Z</time>
      </trkpt>
      <trkpt lat="45.41853" lon="3.41667">
        <ele>627.3</ele>
        <time>2020-09-17T12:43:53Z</time>
      </trkpt>
      <trkpt lat="45.41852" lon="3.41668">
        <ele>627.4</ele>
        <time>2020-09-17T12:43:54Z</time>
      </trkpt>
      <trkpt lat="45.41851" lon="3.41668">
        <ele>627.5</ele>
        <time>2020-09-17T12:43:55Z</time>
      </trkpt>
      <trkpt lat="45.4185" lon="3.41668">
        <ele>627.5</ele>
        <time>2020-09-17T12:43:56Z</time>
      </trkpt>
      <trkpt lat="45.41848" lon="3.41669">
        <ele>627.6</ele>
        <time>2020-09-17T12:43:57Z</time>
      </trkpt>
      <trkpt lat="45.41847" lon="3.41669">
        <ele>627.6</ele>
        <time>2020-09-17T12:43:58Z</time>
      </trkpt>
      <trkpt lat="45.41846" lon="3.41669">
        <ele>627.7</ele>
        <time>2020-09-17T12:43:59Z</time>
      </trkpt>
      <trkpt lat="45.41845" lon="3.41669">
        <ele>627.7</ele>
        <time>2020-09-17T12:44:00Z</time>
      </trkpt>
      <trkpt lat="45.41844" lon="3.41668">
        <ele>627.7</ele>
        <time>2020-09-17T12:44:01Z</time>
      </trkpt>
      <trkpt lat="45.41843" lon="3.41668">
        <ele>627.7</ele>
        <time>2020-09-17T12:44:02Z</time>
      </trkpt>
      <trkpt lat="45.41842" lon="3.41667">
        <ele>627.7</ele>
        <time>2020-09-17T12:44:03Z</time>
      </trkpt>
      <trkpt lat="45.41841" lon="3.41666">
        <ele>627.7</ele>
        <time>2020-09-17T12:44:04Z</time>
      </trkpt>
      <trkpt lat="45.4184" lon="3.41666">
        <ele>627.8</ele>
        <time>2020-09-17T12:44:05Z</time>
      </trkpt>
      <trkpt lat="45.41839" lon="3.41665">
        <ele>627.8</ele>
        <time>2020-09-17T12:44:06Z</time>
      </trkpt>
      <trkpt lat="45.41838" lon="3.41665">
        <ele>627.9</ele>
        <time>2020-09-17T12:44:07Z</time>
      </trkpt>
      <trkpt lat="45.41837" lon="3.41664">
        <ele>627.9</ele>
        <time>2020-09-17T12:44:08Z</time>
      </trkpt>
      <trkpt lat="45.41836" lon="3.41663">
        <ele>628</ele>
        <time>2020-09-17T12:44:09Z</time>
      </trkpt>
      <trkpt lat="45.41836" lon="3.41662">
        <ele>628.1</ele>
        <time>2020-09-17T12:44:10Z</time>
      </trkpt>
      <trkpt lat="45.41835" lon="3.4166">
        <ele>628.1</ele>
        <time>2020-09-17T12:44:11Z</time>
      </trkpt>
      <trkpt lat="45.41834" lon="3.41659">
        <ele>628.2</ele>
        <time>2020-09-17T12:44:12Z</time>
      </trkpt>
      <trkpt lat="45.41834" lon="3.41658">
        <ele>628.3</ele>
        <time>2020-09-17T12:44:13Z</time>
      </trkpt>
      <trkpt lat="45.41833" lon="3.41657">
        <ele>628.4</ele>
        <time>2020-09-17T12:44:14Z</time>
      </trkpt>
      <trkpt lat="45.41833" lon="3.41656">
        <ele>628.6</ele>
        <time>2020-09-17T12:44:15Z</time>
      </trkpt>
      <trkpt lat="45.41832" lon="3.41654">
        <ele>628.8</ele>
        <time>2020-09-17T12:44:16Z</time>
      </trkpt>
      <trkpt lat="45.41832" lon="3.41653">
        <ele>629</ele>
        <time>2020-09-17T12:44:17Z</time>
      </trkpt>
      <trkpt lat="45.41831" lon="3.41652">
        <ele>629.3</ele>
        <time>2020-09-17T12:44:18Z</time>
      </trkpt>
      <trkpt lat="45.41831" lon="3.41651">
        <ele>629.5</ele>
        <time>2020-09-17T12:44:19Z</time>
      </trkpt>
      <trkpt lat="45.41831" lon="3.41649">
        <ele>629.7</ele>
        <time>2020-09-17T12:44:20Z</time>
      </trkpt>
      <trkpt lat="45.4183" lon="3.41648">
        <ele>629.9</ele>
        <time>2020-09-17T12:44:21Z</time>
      </trkpt>
      <trkpt lat="45.4183" lon="3.41647">
        <ele>630</ele>
        <time>2020-09-17T12:44:22Z</time>
      </trkpt>
      <trkpt lat="45.4183" lon="3.41646">
        <ele>630.2</ele>
        <time>2020-09-17T12:44:23Z</time>
      </trkpt>
      <trkpt lat="45.41829" lon="3.41645">
        <ele>630.4</ele>
        <time>2020-09-17T12:44:24Z</time>
      </trkpt>
      <trkpt lat="45.41829" lon="3.41644">
        <ele>630.6</ele>
        <time>2020-09-17T12:44:25Z</time>
      </trkpt>
      <trkpt lat="45.41829" lon="3.41643">
        <ele>630.7</ele>
        <time>2020-09-17T12:44:26Z</time>
      </trkpt>
      <trkpt lat="45.41829" lon="3.41642">
        <ele>630.8</ele>
        <time>2020-09-17T12:44:27Z</time>
      </trkpt>
      <trkpt lat="45.41828" lon="3.41641">
        <ele>630.9</ele>
        <time>2020-09-17T12:44:28Z</time>
      </trkpt>
      <trkpt lat="45.41828" lon="3.4164">
        <ele>631.1</ele>
        <time>2020-09-17T12:44:29Z</time>
      </trkpt>
      <trkpt lat="45.41828" lon="3.41638">
        <ele>631.3</ele>
        <time>2020-09-17T12:44:30Z</time>
      </trkpt>
      <trkpt lat="45.41827" lon="3.41637">
        <ele>631.4</ele>
        <time>2020-09-17T12:44:31Z</time>
      </trkpt>
      <trkpt lat="45.41827" lon="3.41636">
        <ele>631.6</ele>
        <time>2020-09-17T12:44:32Z</time>
      </trkpt>
      <trkpt lat="45.41827" lon="3.41634">
        <ele>631.7</ele>
        <time>2020-09-17T12:44:33Z</time>
      </trkpt>
      <trkpt lat="45.41826" lon="3.41633">
        <ele>631.9</ele>
        <time>2020-09-17T12:44:34Z</time>
      </trkpt>
      <trkpt lat="45.41826" lon="3.41632">
        <ele>632.1</ele>
        <time>2020-09-17T12:44:35Z</time>
      </trkpt>
      <trkpt lat="45.41826" lon="3.41631">
        <ele>632.3</ele>
        <time>2020-09-17T12:44:36Z</time>
      </trkpt>
      <trkpt lat="45.41826" lon="3.4163">
        <ele>632.3</ele>
        <time>2020-09-17T12:44:37Z</time>
      </trkpt>
      <trkpt lat="45.41825" lon="3.41629">
        <ele>632.5</ele>
        <time>2020-09-17T12:44:38Z</time>
      </trkpt>
      <trkpt lat="45.41825" lon="3.41628">
        <ele>632.6</ele>
        <time>2020-09-17T12:44:39Z</time>
      </trkpt>
      <trkpt lat="45.41825" lon="3.41627">
        <ele>632.7</ele>
        <time>2020-09-17T12:44:40Z</time>
      </trkpt>
      <trkpt lat="45.41824" lon="3.41625">
        <ele>632.9</ele>
        <time>2020-09-17T12:44:41Z</time>
      </trkpt>
      <trkpt lat="45.41824" lon="3.41624">
        <ele>633</ele>
        <time>2020-09-17T12:44:42Z</time>
      </trkpt>
      <trkpt lat="45.41824" lon="3.41623">
        <ele>633.2</ele>
        <time>2020-09-17T12:44:43Z</time>
      </trkpt>
      <trkpt lat="45.41823" lon="3.41622">
        <ele>633.4</ele>
        <time>2020-09-17T12:44:44Z</time>
      </trkpt>
      <trkpt lat="45.41823" lon="3.4162">
        <ele>633.6</ele>
        <time>2020-09-17T12:44:45Z</time>
      </trkpt>
      <trkpt lat="45.41823" lon="3.41619">
        <ele>633.7</ele>
        <time>2020-09-17T12:44:46Z</time>
      </trkpt>
      <trkpt lat="45.41822" lon="3.41618">
        <ele>633.9</ele>
        <time>2020-09-17T12:44:47Z</time>
      </trkpt>
      <trkpt lat="45.41822" lon="3.41617">
        <ele>634.1</ele>
        <time>2020-09-17T12:44:48Z</time>
      </trkpt>
      <trkpt lat="45.41821" lon="3.41615">
        <ele>634.3</ele>
        <time>2020-09-17T12:44:49Z</time>
      </trkpt>
      <trkpt lat="45.41821" lon="3.41614">
        <ele>634.5</ele>
        <time>2020-09-17T12:44:50Z</time>
      </trkpt>
      <trkpt lat="45.4182" lon="3.41612">
        <ele>634.7</ele>
        <time>2020-09-17T12:44:51Z</time>
      </trkpt>
      <trkpt lat="45.4182" lon="3.41611">
        <ele>634.9</ele>
        <time>2020-09-17T12:44:52Z</time>
      </trkpt>
      <trkpt lat="45.41819" lon="3.41609">
        <ele>635</ele>
        <time>2020-09-17T12:44:53Z</time>
      </trkpt>
      <trkpt lat="45.41819" lon="3.41608">
        <ele>635.1</ele>
        <time>2020-09-17T12:44:54Z</time>
      </trkpt>
      <trkpt lat="45.41818" lon="3.41607">
        <ele>635.3</ele>
        <time>2020-09-17T12:44:55Z</time>
      </trkpt>
      <trkpt lat="45.41817" lon="3.41606">
        <ele>635.3</ele>
        <time>2020-09-17T12:44:56Z</time>
      </trkpt>
      <trkpt lat="45.41817" lon="3.41604">
        <ele>635.4</ele>
        <time>2020-09-17T12:44:57Z</time>
      </trkpt>
      <trkpt lat="45.41816" lon="3.41603">
        <ele>635.5</ele>
        <time>2020-09-17T12:44:58Z</time>
      </trkpt>
      <trkpt lat="45.41816" lon="3.41602">
        <ele>635.5</ele>
        <time>2020-09-17T12:44:59Z</time>
      </trkpt>
      <trkpt lat="45.41815" lon="3.416">
        <ele>635.6</ele>
        <time>2020-09-17T12:45:00Z</time>
      </trkpt>
      <trkpt lat="45.41815" lon="3.41599">
        <ele>635.6</ele>
        <time>2020-09-17T12:45:01Z</time>
      </trkpt>
      <trkpt lat="45.41815" lon="3.41598">
        <ele>635.7</ele>
        <time>2020-09-17T12:45:02Z</time>
      </trkpt>
      <trkpt lat="45.41814" lon="3.41597">
        <ele>635.7</ele>
        <time>2020-09-17T12:45:03Z</time>
      </trkpt>
      <trkpt lat="45.41814" lon="3.41595">
        <ele>635.7</ele>
        <time>2020-09-17T12:45:04Z</time>
      </trkpt>
      <trkpt lat="45.41813" lon="3.41594">
        <ele>635.7</ele>
        <time>2020-09-17T12:45:05Z</time>
      </trkpt>
      <trkpt lat="45.41813" lon="3.41593">
        <ele>635.7</ele>
        <time>2020-09-17T12:45:06Z</time>
      </trkpt>
      <trkpt lat="45.41812" lon="3.41591">
        <ele>635.8</ele>
        <time>2020-09-17T12:45:07Z</time>
      </trkpt>
      <trkpt lat="45.41812" lon="3.4159">
        <ele>635.8</ele>
        <time>2020-09-17T12:45:08Z</time>
      </trkpt>
      <trkpt lat="45.41812" lon="3.41588">
        <ele>635.8</ele>
        <time>2020-09-17T12:45:09Z</time>
      </trkpt>
      <trkpt lat="45.41811" lon="3.41587">
        <ele>635.8</ele>
        <time>2020-09-17T12:45:10Z</time>
      </trkpt>
      <trkpt lat="45.41811" lon="3.41586">
        <ele>635.8</ele>
        <time>2020-09-17T12:45:11Z</time>
      </trkpt>
      <trkpt lat="45.4181" lon="3.41585">
        <ele>635.7</ele>
        <time>2020-09-17T12:45:12Z</time>
      </trkpt>
      <trkpt lat="45.4181" lon="3.41583">
        <ele>635.7</ele>
        <time>2020-09-17T12:45:13Z</time>
      </trkpt>
      <trkpt lat="45.4181" lon="3.41582">
        <ele>635.8</ele>
        <time>2020-09-17T12:45:14Z</time>
      </trkpt>
      <trkpt lat="45.41809" lon="3.4158">
        <ele>635.9</ele>
        <time>2020-09-17T12:45:15Z</time>
      </trkpt>
      <trkpt lat="45.41809" lon="3.41579">
        <ele>636.1</ele>
        <time>2020-09-17T12:45:16Z</time>
      </trkpt>
      <trkpt lat="45.41809" lon="3.41577">
        <ele>636.2</ele>
        <time>2020-09-17T12:45:17Z</time>
      </trkpt>
      <trkpt lat="45.41808" lon="3.41575">
        <ele>636.3</ele>
        <time>2020-09-17T12:45:18Z</time>
      </trkpt>
      <trkpt lat="45.41808" lon="3.41574">
        <ele>636.4</ele>
        <time>2020-09-17T12:45:19Z</time>
      </trkpt>
      <trkpt lat="45.41807" lon="3.41572">
        <ele>636.5</ele>
        <time>2020-09-17T12:45:20Z</time>
      </trkpt>
      <trkpt lat="45.41807" lon="3.41571">
        <ele>636.6</ele>
        <time>2020-09-17T12:45:21Z</time>
      </trkpt>
      <trkpt lat="45.41807" lon="3.41569">
        <ele>636.7</ele>
        <time>2020-09-17T12:45:22Z</time>
      </trkpt>
      <trkpt lat="45.41807" lon="3.41568">
        <ele>636.7</ele>
        <time>2020-09-17T12:45:23Z</time>
      </trkpt>
      <trkpt lat="45.41806" lon="3.41566">
        <ele>636.8</ele>
        <time>2020-09-17T12:45:24Z</time>
      </trkpt>
      <trkpt lat="45.41806" lon="3.41565">
        <ele>637</ele>
        <time>2020-09-17T12:45:25Z</time>
      </trkpt>
      <trkpt lat="45.41806" lon="3.41563">
        <ele>637</ele>
        <time>2020-09-17T12:45:26Z</time>
      </trkpt>
      <trkpt lat="45.41805" lon="3.41562">
        <ele>637.2</ele>
        <time>2020-09-17T12:45:27Z</time>
      </trkpt>
      <trkpt lat="45.41805" lon="3.4156">
        <ele>637.3</ele>
        <time>2020-09-17T12:45:28Z</time>
      </trkpt>
      <trkpt lat="45.41805" lon="3.41559">
        <ele>637.4</ele>
        <time>2020-09-17T12:45:29Z</time>
      </trkpt>
      <trkpt lat="45.41804" lon="3.41557">
        <ele>637.7</ele>
        <time>2020-09-17T12:45:30Z</time>
      </trkpt>
      <trkpt lat="45.41804" lon="3.41556">
        <ele>637.9</ele>
        <time>2020-09-17T12:45:31Z</time>
      </trkpt>
      <trkpt lat="45.41804" lon="3.41555">
        <ele>638</ele>
        <time>2020-09-17T12:45:32Z</time>
      </trkpt>
      <trkpt lat="45.41803" lon="3.41554">
        <ele>638.1</ele>
        <time>2020-09-17T12:45:33Z</time>
      </trkpt>
      <trkpt lat="45.41803" lon="3.41552">
        <ele>638.2</ele>
        <time>2020-09-17T12:45:34Z</time>
      </trkpt>
      <trkpt lat="45.41803" lon="3.41551">
        <ele>638.4</ele>
        <time>2020-09-17T12:45:35Z</time>
      </trkpt>
      <trkpt lat="45.41802" lon="3.4155">
        <ele>638.6</ele>
        <time>2020-09-17T12:45:36Z</time>
      </trkpt>
      <trkpt lat="45.41802" lon="3.41549">
        <ele>638.8</ele>
        <time>2020-09-17T12:45:37Z</time>
      </trkpt>
      <trkpt lat="45.41802" lon="3.41547">
        <ele>639</ele>
        <time>2020-09-17T12:45:38Z</time>
      </trkpt>
      <trkpt lat="45.41801" lon="3.41546">
        <ele>639.2</ele>
        <time>2020-09-17T12:45:39Z</time>
      </trkpt>
      <trkpt lat="45.41801" lon="3.41545">
        <ele>639.4</ele>
        <time>2020-09-17T12:45:40Z</time>
      </trkpt>
      <trkpt lat="45.418" lon="3.41543">
        <ele>639.5</ele>
        <time>2020-09-17T12:45:41Z</time>
      </trkpt>
      <trkpt lat="45.418" lon="3.41542">
        <ele>639.8</ele>
        <time>2020-09-17T12:45:42Z</time>
      </trkpt>
      <trkpt lat="45.418" lon="3.41541">
        <ele>639.9</ele>
        <time>2020-09-17T12:45:43Z</time>
      </trkpt>
      <trkpt lat="45.41799" lon="3.41539">
        <ele>640.2</ele>
        <time>2020-09-17T12:45:44Z</time>
      </trkpt>
      <trkpt lat="45.41799" lon="3.41538">
        <ele>640.4</ele>
        <time>2020-09-17T12:45:45Z</time>
      </trkpt>
      <trkpt lat="45.41798" lon="3.41537">
        <ele>640.6</ele>
        <time>2020-09-17T12:45:46Z</time>
      </trkpt>
      <trkpt lat="45.41798" lon="3.41535">
        <ele>640.8</ele>
        <time>2020-09-17T12:45:47Z</time>
      </trkpt>
      <trkpt lat="45.41797" lon="3.41534">
        <ele>641.1</ele>
        <time>2020-09-17T12:45:48Z</time>
      </trkpt>
      <trkpt lat="45.41796" lon="3.41533">
        <ele>641.4</ele>
        <time>2020-09-17T12:45:49Z</time>
      </trkpt>
      <trkpt lat="45.41796" lon="3.41532">
        <ele>641.6</ele>
        <time>2020-09-17T12:45:50Z</time>
      </trkpt>
      <trkpt lat="45.41795" lon="3.4153">
        <ele>641.8</ele>
        <time>2020-09-17T12:45:51Z</time>
      </trkpt>
      <trkpt lat="45.41795" lon="3.41529">
        <ele>642</ele>
        <time>2020-09-17T12:45:52Z</time>
      </trkpt>
      <trkpt lat="45.41794" lon="3.41528">
        <ele>642.3</ele>
        <time>2020-09-17T12:45:53Z</time>
      </trkpt>
      <trkpt lat="45.41794" lon="3.41527">
        <ele>642.4</ele>
        <time>2020-09-17T12:45:54Z</time>
      </trkpt>
      <trkpt lat="45.41793" lon="3.41525">
        <ele>642.4</ele>
        <time>2020-09-17T12:45:55Z</time>
      </trkpt>
      <trkpt lat="45.41793" lon="3.41524">
        <ele>642.5</ele>
        <time>2020-09-17T12:45:56Z</time>
      </trkpt>
      <trkpt lat="45.41792" lon="3.41523">
        <ele>642.5</ele>
        <time>2020-09-17T12:45:57Z</time>
      </trkpt>
      <trkpt lat="45.41792" lon="3.41522">
        <ele>642.5</ele>
        <time>2020-09-17T12:45:58Z</time>
      </trkpt>
      <trkpt lat="45.41791" lon="3.41521">
        <ele>642.4</ele>
        <time>2020-09-17T12:45:59Z</time>
      </trkpt>
      <trkpt lat="45.41791" lon="3.41519">
        <ele>642.4</ele>
        <time>2020-09-17T12:46:00Z</time>
      </trkpt>
      <trkpt lat="45.4179" lon="3.41518">
        <ele>642.4</ele>
        <time>2020-09-17T12:46:01Z</time>
      </trkpt>
      <trkpt lat="45.4179" lon="3.41516">
        <ele>642.3</ele>
        <time>2020-09-17T12:46:02Z</time>
      </trkpt>
      <trkpt lat="45.41789" lon="3.41515">
        <ele>642.2</ele>
        <time>2020-09-17T12:46:03Z</time>
      </trkpt>
      <trkpt lat="45.41789" lon="3.41513">
        <ele>642.1</ele>
        <time>2020-09-17T12:46:04Z</time>
      </trkpt>
      <trkpt lat="45.41789" lon="3.41512">
        <ele>642.1</ele>
        <time>2020-09-17T12:46:05Z</time>
      </trkpt>
      <trkpt lat="45.41788" lon="3.4151">
        <ele>642</ele>
        <time>2020-09-17T12:46:06Z</time>
      </trkpt>
      <trkpt lat="45.41788" lon="3.41508">
        <ele>641.9</ele>
        <time>2020-09-17T12:46:07Z</time>
      </trkpt>
      <trkpt lat="45.41787" lon="3.41507">
        <ele>641.7</ele>
        <time>2020-09-17T12:46:08Z</time>
      </trkpt>
      <trkpt lat="45.41787" lon="3.41505">
        <ele>641.5</ele>
        <time>2020-09-17T12:46:09Z</time>
      </trkpt>
      <trkpt lat="45.41787" lon="3.41504">
        <ele>641.4</ele>
        <time>2020-09-17T12:46:10Z</time>
      </trkpt>
      <trkpt lat="45.41787" lon="3.41502">
        <ele>641.2</ele>
        <time>2020-09-17T12:46:11Z</time>
      </trkpt>
      <trkpt lat="45.41787" lon="3.41501">
        <ele>641</ele>
        <time>2020-09-17T12:46:12Z</time>
      </trkpt>
      <trkpt lat="45.41786" lon="3.41499">
        <ele>641</ele>
        <time>2020-09-17T12:46:13Z</time>
      </trkpt>
      <trkpt lat="45.41786" lon="3.41498">
        <ele>641.2</ele>
        <time>2020-09-17T12:46:14Z</time>
      </trkpt>
      <trkpt lat="45.41785" lon="3.41496">
        <ele>641.2</ele>
        <time>2020-09-17T12:46:15Z</time>
      </trkpt>
      <trkpt lat="45.41785" lon="3.41494">
        <ele>641.4</ele>
        <time>2020-09-17T12:46:16Z</time>
      </trkpt>
      <trkpt lat="45.41785" lon="3.41492">
        <ele>641.4</ele>
        <time>2020-09-17T12:46:17Z</time>
      </trkpt>
      <trkpt lat="45.41784" lon="3.41491">
        <ele>641.4</ele>
        <time>2020-09-17T12:46:18Z</time>
      </trkpt>
      <trkpt lat="45.41784" lon="3.41489">
        <ele>641.5</ele>
        <time>2020-09-17T12:46:19Z</time>
      </trkpt>
      <trkpt lat="45.41784" lon="3.41488">
        <ele>641.5</ele>
        <time>2020-09-17T12:46:20Z</time>
      </trkpt>
      <trkpt lat="45.41784" lon="3.41486">
        <ele>641.6</ele>
        <time>2020-09-17T12:46:21Z</time>
      </trkpt>
      <trkpt lat="45.41783" lon="3.41484">
        <ele>641.7</ele>
        <time>2020-09-17T12:46:22Z</time>
      </trkpt>
      <trkpt lat="45.41783" lon="3.41483">
        <ele>641.9</ele>
        <time>2020-09-17T12:46:23Z</time>
      </trkpt>
      <trkpt lat="45.41782" lon="3.41481">
        <ele>642</ele>
        <time>2020-09-17T12:46:24Z</time>
      </trkpt>
      <trkpt lat="45.41782" lon="3.4148">
        <ele>642.1</ele>
        <time>2020-09-17T12:46:25Z</time>
      </trkpt>
      <trkpt lat="45.41782" lon="3.41478">
        <ele>642.2</ele>
        <time>2020-09-17T12:46:26Z</time>
      </trkpt>
      <trkpt lat="45.41781" lon="3.41476">
        <ele>642.4</ele>
        <time>2020-09-17T12:46:27Z</time>
      </trkpt>
      <trkpt lat="45.4178" lon="3.41475">
        <ele>642.7</ele>
        <time>2020-09-17T12:46:28Z</time>
      </trkpt>
      <trkpt lat="45.4178" lon="3.41473">
        <ele>642.9</ele>
        <time>2020-09-17T12:46:29Z</time>
      </trkpt>
      <trkpt lat="45.4178" lon="3.41472">
        <ele>643.1</ele>
        <time>2020-09-17T12:46:30Z</time>
      </trkpt>
      <trkpt lat="45.41779" lon="3.4147">
        <ele>643.2</ele>
        <time>2020-09-17T12:46:31Z</time>
      </trkpt>
      <trkpt lat="45.41779" lon="3.41469">
        <ele>643.3</ele>
        <time>2020-09-17T12:46:32Z</time>
      </trkpt>
      <trkpt lat="45.41779" lon="3.41467">
        <ele>643.4</ele>
        <time>2020-09-17T12:46:33Z</time>
      </trkpt>
      <trkpt lat="45.41778" lon="3.41466">
        <ele>643.6</ele>
        <time>2020-09-17T12:46:34Z</time>
      </trkpt>
      <trkpt lat="45.41778" lon="3.41464">
        <ele>643.7</ele>
        <time>2020-09-17T12:46:35Z</time>
      </trkpt>
      <trkpt lat="45.41777" lon="3.41463">
        <ele>643.8</ele>
        <time>2020-09-17T12:46:36Z</time>
      </trkpt>
      <trkpt lat="45.41777" lon="3.41461">
        <ele>643.9</ele>
        <time>2020-09-17T12:46:37Z</time>
      </trkpt>
      <trkpt lat="45.41777" lon="3.41459">
        <ele>643.9</ele>
        <time>2020-09-17T12:46:38Z</time>
      </trkpt>
      <trkpt lat="45.41776" lon="3.41458">
        <ele>644.1</ele>
        <time>2020-09-17T12:46:39Z</time>
      </trkpt>
      <trkpt lat="45.41776" lon="3.41457">
        <ele>644.1</ele>
        <time>2020-09-17T12:46:40Z</time>
      </trkpt>
      <trkpt lat="45.41775" lon="3.41455">
        <ele>644.2</ele>
        <time>2020-09-17T12:46:41Z</time>
      </trkpt>
      <trkpt lat="45.41775" lon="3.41454">
        <ele>644.2</ele>
        <time>2020-09-17T12:46:42Z</time>
      </trkpt>
      <trkpt lat="45.41775" lon="3.41452">
        <ele>644.3</ele>
        <time>2020-09-17T12:46:43Z</time>
      </trkpt>
      <trkpt lat="45.41774" lon="3.4145">
        <ele>644.3</ele>
        <time>2020-09-17T12:46:44Z</time>
      </trkpt>
      <trkpt lat="45.41774" lon="3.41449">
        <ele>644.4</ele>
        <time>2020-09-17T12:46:45Z</time>
      </trkpt>
      <trkpt lat="45.41774" lon="3.41447">
        <ele>644.5</ele>
        <time>2020-09-17T12:46:46Z</time>
      </trkpt>
      <trkpt lat="45.41773" lon="3.41446">
        <ele>644.5</ele>
        <time>2020-09-17T12:46:47Z</time>
      </trkpt>
      <trkpt lat="45.41773" lon="3.41445">
        <ele>644.6</ele>
        <time>2020-09-17T12:46:48Z</time>
      </trkpt>
      <trkpt lat="45.41773" lon="3.41443">
        <ele>644.7</ele>
        <time>2020-09-17T12:46:49Z</time>
      </trkpt>
      <trkpt lat="45.41772" lon="3.41442">
        <ele>644.9</ele>
        <time>2020-09-17T12:46:50Z</time>
      </trkpt>
      <trkpt lat="45.41772" lon="3.4144">
        <ele>645.1</ele>
        <time>2020-09-17T12:46:51Z</time>
      </trkpt>
      <trkpt lat="45.41771" lon="3.41439">
        <ele>645.4</ele>
        <time>2020-09-17T12:46:52Z</time>
      </trkpt>
      <trkpt lat="45.4177" lon="3.41437">
        <ele>645.5</ele>
        <time>2020-09-17T12:46:53Z</time>
      </trkpt>
      <trkpt lat="45.4177" lon="3.41436">
        <ele>645.8</ele>
        <time>2020-09-17T12:46:54Z</time>
      </trkpt>
      <trkpt lat="45.41769" lon="3.41434">
        <ele>646</ele>
        <time>2020-09-17T12:46:55Z</time>
      </trkpt>
      <trkpt lat="45.41768" lon="3.41433">
        <ele>646.2</ele>
        <time>2020-09-17T12:46:56Z</time>
      </trkpt>
      <trkpt lat="45.41768" lon="3.41432">
        <ele>646.4</ele>
        <time>2020-09-17T12:46:57Z</time>
      </trkpt>
      <trkpt lat="45.41767" lon="3.41431">
        <ele>646.6</ele>
        <time>2020-09-17T12:46:58Z</time>
      </trkpt>
      <trkpt lat="45.41767" lon="3.41429">
        <ele>646.8</ele>
        <time>2020-09-17T12:46:59Z</time>
      </trkpt>
      <trkpt lat="45.41766" lon="3.41428">
        <ele>647</ele>
        <time>2020-09-17T12:47:00Z</time>
      </trkpt>
      <trkpt lat="45.41765" lon="3.41427">
        <ele>647.1</ele>
        <time>2020-09-17T12:47:01Z</time>
      </trkpt>
      <trkpt lat="45.41765" lon="3.41425">
        <ele>647.3</ele>
        <time>2020-09-17T12:47:02Z</time>
      </trkpt>
      <trkpt lat="45.41764" lon="3.41424">
        <ele>647.5</ele>
        <time>2020-09-17T12:47:03Z</time>
      </trkpt>
      <trkpt lat="45.41763" lon="3.41423">
        <ele>647.6</ele>
        <time>2020-09-17T12:47:04Z</time>
      </trkpt>
      <trkpt lat="45.41763" lon="3.41421">
        <ele>647.8</ele>
        <time>2020-09-17T12:47:05Z</time>
      </trkpt>
      <trkpt lat="45.41762" lon="3.4142">
        <ele>647.9</ele>
        <time>2020-09-17T12:47:06Z</time>
      </trkpt>
      <trkpt lat="45.41761" lon="3.41418">
        <ele>648.2</ele>
        <time>2020-09-17T12:47:07Z</time>
      </trkpt>
      <trkpt lat="45.41761" lon="3.41417">
        <ele>648.3</ele>
        <time>2020-09-17T12:47:08Z</time>
      </trkpt>
      <trkpt lat="45.4176" lon="3.41415">
        <ele>648.4</ele>
        <time>2020-09-17T12:47:09Z</time>
      </trkpt>
      <trkpt lat="45.41759" lon="3.41414">
        <ele>648.6</ele>
        <time>2020-09-17T12:47:10Z</time>
      </trkpt>
      <trkpt lat="45.41759" lon="3.41413">
        <ele>648.7</ele>
        <time>2020-09-17T12:47:11Z</time>
      </trkpt>
      <trkpt lat="45.41758" lon="3.41411">
        <ele>648.7</ele>
        <time>2020-09-17T12:47:12Z</time>
      </trkpt>
      <trkpt lat="45.41758" lon="3.4141">
        <ele>648.8</ele>
        <time>2020-09-17T12:47:13Z</time>
      </trkpt>
      <trkpt lat="45.41757" lon="3.41408">
        <ele>648.8</ele>
        <time>2020-09-17T12:47:14Z</time>
      </trkpt>
      <trkpt lat="45.41757" lon="3.41406">
        <ele>648.9</ele>
        <time>2020-09-17T12:47:15Z</time>
      </trkpt>
      <trkpt lat="45.41756" lon="3.41405">
        <ele>648.9</ele>
        <time>2020-09-17T12:47:16Z</time>
      </trkpt>
      <trkpt lat="45.41755" lon="3.41403">
        <ele>649</ele>
        <time>2020-09-17T12:47:17Z</time>
      </trkpt>
      <trkpt lat="45.41755" lon="3.41402">
        <ele>649</ele>
        <time>2020-09-17T12:47:18Z</time>
      </trkpt>
      <trkpt lat="45.41754" lon="3.414">
        <ele>649</ele>
        <time>2020-09-17T12:47:19Z</time>
      </trkpt>
      <trkpt lat="45.41754" lon="3.41399">
        <ele>649</ele>
        <time>2020-09-17T12:47:20Z</time>
      </trkpt>
      <trkpt lat="45.41753" lon="3.41397">
        <ele>649</ele>
        <time>2020-09-17T12:47:21Z</time>
      </trkpt>
      <trkpt lat="45.41753" lon="3.41395">
        <ele>649</ele>
        <time>2020-09-17T12:47:22Z</time>
      </trkpt>
      <trkpt lat="45.41752" lon="3.41394">
        <ele>649</ele>
        <time>2020-09-17T12:47:23Z</time>
      </trkpt>
      <trkpt lat="45.41752" lon="3.41392">
        <ele>648.9</ele>
        <time>2020-09-17T12:47:24Z</time>
      </trkpt>
      <trkpt lat="45.41752" lon="3.4139">
        <ele>648.9</ele>
        <time>2020-09-17T12:47:25Z</time>
      </trkpt>
      <trkpt lat="45.41751" lon="3.41389">
        <ele>648.9</ele>
        <time>2020-09-17T12:47:26Z</time>
      </trkpt>
      <trkpt lat="45.41751" lon="3.41387">
        <ele>648.9</ele>
        <time>2020-09-17T12:47:27Z</time>
      </trkpt>
      <trkpt lat="45.4175" lon="3.41386">
        <ele>648.9</ele>
        <time>2020-09-17T12:47:28Z</time>
      </trkpt>
      <trkpt lat="45.4175" lon="3.41384">
        <ele>648.9</ele>
        <time>2020-09-17T12:47:29Z</time>
      </trkpt>
      <trkpt lat="45.41749" lon="3.41383">
        <ele>648.9</ele>
        <time>2020-09-17T12:47:30Z</time>
      </trkpt>
      <trkpt lat="45.41748" lon="3.41382">
        <ele>648.9</ele>
        <time>2020-09-17T12:47:31Z</time>
      </trkpt>
      <trkpt lat="45.41748" lon="3.4138">
        <ele>648.9</ele>
        <time>2020-09-17T12:47:32Z</time>
      </trkpt>
      <trkpt lat="45.41747" lon="3.41379">
        <ele>648.9</ele>
        <time>2020-09-17T12:47:33Z</time>
      </trkpt>
      <trkpt lat="45.41747" lon="3.41378">
        <ele>649</ele>
        <time>2020-09-17T12:47:34Z</time>
      </trkpt>
      <trkpt lat="45.41746" lon="3.41376">
        <ele>649</ele>
        <time>2020-09-17T12:47:35Z</time>
      </trkpt>
      <trkpt lat="45.41745" lon="3.41375">
        <ele>649</ele>
        <time>2020-09-17T12:47:36Z</time>
      </trkpt>
      <trkpt lat="45.41744" lon="3.41374">
        <ele>649.1</ele>
        <time>2020-09-17T12:47:37Z</time>
      </trkpt>
      <trkpt lat="45.41744" lon="3.41373">
        <ele>649.1</ele>
        <time>2020-09-17T12:47:38Z</time>
      </trkpt>
      <trkpt lat="45.41743" lon="3.41371">
        <ele>649.1</ele>
        <time>2020-09-17T12:47:39Z</time>
      </trkpt>
      <trkpt lat="45.41743" lon="3.4137">
        <ele>649.1</ele>
        <time>2020-09-17T12:47:40Z</time>
      </trkpt>
      <trkpt lat="45.41742" lon="3.41369">
        <ele>649.2</ele>
        <time>2020-09-17T12:47:41Z</time>
      </trkpt>
      <trkpt lat="45.41741" lon="3.41368">
        <ele>649.2</ele>
        <time>2020-09-17T12:47:42Z</time>
      </trkpt>
      <trkpt lat="45.41741" lon="3.41366">
        <ele>649.2</ele>
        <time>2020-09-17T12:47:43Z</time>
      </trkpt>
      <trkpt lat="45.4174" lon="3.41365">
        <ele>649.2</ele>
        <time>2020-09-17T12:47:44Z</time>
      </trkpt>
      <trkpt lat="45.4174" lon="3.41363">
        <ele>649.2</ele>
        <time>2020-09-17T12:47:45Z</time>
      </trkpt>
      <trkpt lat="45.41739" lon="3.41362">
        <ele>649.2</ele>
        <time>2020-09-17T12:47:46Z</time>
      </trkpt>
      <trkpt lat="45.41739" lon="3.4136">
        <ele>649.2</ele>
        <time>2020-09-17T12:47:47Z</time>
      </trkpt>
      <trkpt lat="45.41738" lon="3.41359">
        <ele>649.2</ele>
        <time>2020-09-17T12:47:48Z</time>
      </trkpt>
      <trkpt lat="45.41738" lon="3.41357">
        <ele>649.3</ele>
        <time>2020-09-17T12:47:49Z</time>
      </trkpt>
      <trkpt lat="45.41737" lon="3.41356">
        <ele>649.3</ele>
        <time>2020-09-17T12:47:50Z</time>
      </trkpt>
      <trkpt lat="45.41737" lon="3.41354">
        <ele>649.3</ele>
        <time>2020-09-17T12:47:51Z</time>
      </trkpt>
      <trkpt lat="45.41736" lon="3.41353">
        <ele>649.3</ele>
        <time>2020-09-17T12:47:52Z</time>
      </trkpt>
      <trkpt lat="45.41736" lon="3.41351">
        <ele>649.4</ele>
        <time>2020-09-17T12:47:53Z</time>
      </trkpt>
      <trkpt lat="45.41735" lon="3.4135">
        <ele>649.4</ele>
        <time>2020-09-17T12:47:54Z</time>
      </trkpt>
      <trkpt lat="45.41735" lon="3.41348">
        <ele>649.4</ele>
        <time>2020-09-17T12:47:55Z</time>
      </trkpt>
      <trkpt lat="45.41735" lon="3.41347">
        <ele>649.4</ele>
        <time>2020-09-17T12:47:56Z</time>
      </trkpt>
      <trkpt lat="45.41735" lon="3.41346">
        <ele>649.3</ele>
        <time>2020-09-17T12:47:57Z</time>
      </trkpt>
      <trkpt lat="45.41735" lon="3.41344">
        <ele>649.3</ele>
        <time>2020-09-17T12:47:58Z</time>
      </trkpt>
      <trkpt lat="45.41734" lon="3.41343">
        <ele>649.3</ele>
        <time>2020-09-17T12:47:59Z</time>
      </trkpt>
      <trkpt lat="45.41734" lon="3.41342">
        <ele>649.3</ele>
        <time>2020-09-17T12:48:00Z</time>
      </trkpt>
      <trkpt lat="45.41734" lon="3.41341">
        <ele>649.3</ele>
        <time>2020-09-17T12:48:01Z</time>
      </trkpt>
      <trkpt lat="45.41734" lon="3.41339">
        <ele>649.3</ele>
        <time>2020-09-17T12:48:02Z</time>
      </trkpt>
      <trkpt lat="45.41733" lon="3.41338">
        <ele>649.3</ele>
        <time>2020-09-17T12:48:03Z</time>
      </trkpt>
      <trkpt lat="45.41733" lon="3.41336">
        <ele>649.3</ele>
        <time>2020-09-17T12:48:04Z</time>
      </trkpt>
      <trkpt lat="45.41733" lon="3.41335">
        <ele>649.3</ele>
        <time>2020-09-17T12:48:05Z</time>
      </trkpt>
      <trkpt lat="45.41733" lon="3.41334">
        <ele>649.3</ele>
        <time>2020-09-17T12:48:06Z</time>
      </trkpt>
      <trkpt lat="45.41732" lon="3.41332">
        <ele>649.2</ele>
        <time>2020-09-17T12:48:07Z</time>
      </trkpt>
      <trkpt lat="45.41732" lon="3.41331">
        <ele>649.2</ele>
        <time>2020-09-17T12:48:08Z</time>
      </trkpt>
      <trkpt lat="45.41732" lon="3.4133">
        <ele>649.2</ele>
        <time>2020-09-17T12:48:09Z</time>
      </trkpt>
      <trkpt lat="45.41732" lon="3.41328">
        <ele>649.1</ele>
        <time>2020-09-17T12:48:10Z</time>
      </trkpt>
      <trkpt lat="45.41732" lon="3.41327">
        <ele>649.1</ele>
        <time>2020-09-17T12:48:11Z</time>
      </trkpt>
      <trkpt lat="45.41731" lon="3.41325">
        <ele>649.1</ele>
        <time>2020-09-17T12:48:12Z</time>
      </trkpt>
      <trkpt lat="45.41731" lon="3.41324">
        <ele>649</ele>
        <time>2020-09-17T12:48:13Z</time>
      </trkpt>
      <trkpt lat="45.41731" lon="3.41322">
        <ele>649</ele>
        <time>2020-09-17T12:48:14Z</time>
      </trkpt>
      <trkpt lat="45.41731" lon="3.41321">
        <ele>648.9</ele>
        <time>2020-09-17T12:48:15Z</time>
      </trkpt>
      <trkpt lat="45.4173" lon="3.41319">
        <ele>648.9</ele>
        <time>2020-09-17T12:48:16Z</time>
      </trkpt>
      <trkpt lat="45.4173" lon="3.41318">
        <ele>648.9</ele>
        <time>2020-09-17T12:48:17Z</time>
      </trkpt>
      <trkpt lat="45.4173" lon="3.41316">
        <ele>648.8</ele>
        <time>2020-09-17T12:48:18Z</time>
      </trkpt>
      <trkpt lat="45.4173" lon="3.41314">
        <ele>648.8</ele>
        <time>2020-09-17T12:48:19Z</time>
      </trkpt>
      <trkpt lat="45.4173" lon="3.41313">
        <ele>648.7</ele>
        <time>2020-09-17T12:48:20Z</time>
      </trkpt>
      <trkpt lat="45.41729" lon="3.41311">
        <ele>648.7</ele>
        <time>2020-09-17T12:48:21Z</time>
      </trkpt>
      <trkpt lat="45.41729" lon="3.4131">
        <ele>648.7</ele>
        <time>2020-09-17T12:48:22Z</time>
      </trkpt>
      <trkpt lat="45.41729" lon="3.41308">
        <ele>648.6</ele>
        <time>2020-09-17T12:48:23Z</time>
      </trkpt>
      <trkpt lat="45.41729" lon="3.41307">
        <ele>648.6</ele>
        <time>2020-09-17T12:48:24Z</time>
      </trkpt>
      <trkpt lat="45.41728" lon="3.41305">
        <ele>648.6</ele>
        <time>2020-09-17T12:48:25Z</time>
      </trkpt>
      <trkpt lat="45.41728" lon="3.41304">
        <ele>648.5</ele>
        <time>2020-09-17T12:48:26Z</time>
      </trkpt>
      <trkpt lat="45.41728" lon="3.41302">
        <ele>648.5</ele>
        <time>2020-09-17T12:48:27Z</time>
      </trkpt>
      <trkpt lat="45.41728" lon="3.41301">
        <ele>648.4</ele>
        <time>2020-09-17T12:48:28Z</time>
      </trkpt>
      <trkpt lat="45.41727" lon="3.41299">
        <ele>648.4</ele>
        <time>2020-09-17T12:48:29Z</time>
      </trkpt>
      <trkpt lat="45.41727" lon="3.41297">
        <ele>648.4</ele>
        <time>2020-09-17T12:48:30Z</time>
      </trkpt>
      <trkpt lat="45.41727" lon="3.41296">
        <ele>648.3</ele>
        <time>2020-09-17T12:48:31Z</time>
      </trkpt>
      <trkpt lat="45.41727" lon="3.41294">
        <ele>648.3</ele>
        <time>2020-09-17T12:48:32Z</time>
      </trkpt>
      <trkpt lat="45.41726" lon="3.41293">
        <ele>648.3</ele>
        <time>2020-09-17T12:48:33Z</time>
      </trkpt>
      <trkpt lat="45.41726" lon="3.41291">
        <ele>648.2</ele>
        <time>2020-09-17T12:48:34Z</time>
      </trkpt>
      <trkpt lat="45.41726" lon="3.41289">
        <ele>648.2</ele>
        <time>2020-09-17T12:48:35Z</time>
      </trkpt>
      <trkpt lat="45.41725" lon="3.41288">
        <ele>648.1</ele>
        <time>2020-09-17T12:48:36Z</time>
      </trkpt>
      <trkpt lat="45.41725" lon="3.41286">
        <ele>648.1</ele>
        <time>2020-09-17T12:48:37Z</time>
      </trkpt>
      <trkpt lat="45.41725" lon="3.41285">
        <ele>648.1</ele>
        <time>2020-09-17T12:48:38Z</time>
      </trkpt>
      <trkpt lat="45.41724" lon="3.41283">
        <ele>648</ele>
        <time>2020-09-17T12:48:39Z</time>
      </trkpt>
      <trkpt lat="45.41724" lon="3.41282">
        <ele>648</ele>
        <time>2020-09-17T12:48:40Z</time>
      </trkpt>
      <trkpt lat="45.41724" lon="3.4128">
        <ele>648</ele>
        <time>2020-09-17T12:48:41Z</time>
      </trkpt>
      <trkpt lat="45.41724" lon="3.41279">
        <ele>647.9</ele>
        <time>2020-09-17T12:48:42Z</time>
      </trkpt>
      <trkpt lat="45.41724" lon="3.41277">
        <ele>647.9</ele>
        <time>2020-09-17T12:48:43Z</time>
      </trkpt>
      <trkpt lat="45.41724" lon="3.41275">
        <ele>647.9</ele>
        <time>2020-09-17T12:48:44Z</time>
      </trkpt>
      <trkpt lat="45.41724" lon="3.41274">
        <ele>647.9</ele>
        <time>2020-09-17T12:48:45Z</time>
      </trkpt>
      <trkpt lat="45.41724" lon="3.41272">
        <ele>647.9</ele>
        <time>2020-09-17T12:48:46Z</time>
      </trkpt>
      <trkpt lat="45.41725" lon="3.41271">
        <ele>647.8</ele>
        <time>2020-09-17T12:48:47Z</time>
      </trkpt>
      <trkpt lat="45.41725" lon="3.4127">
        <ele>647.8</ele>
        <time>2020-09-17T12:48:48Z</time>
      </trkpt>
      <trkpt lat="45.41726" lon="3.41269">
        <ele>647.8</ele>
        <time>2020-09-17T12:48:49Z</time>
      </trkpt>
      <trkpt lat="45.41727" lon="3.41268">
        <ele>647.7</ele>
        <time>2020-09-17T12:48:50Z</time>
      </trkpt>
      <trkpt lat="45.41728" lon="3.41267">
        <ele>647.7</ele>
        <time>2020-09-17T12:48:51Z</time>
      </trkpt>
      <trkpt lat="45.41729" lon="3.41267">
        <ele>647.6</ele>
        <time>2020-09-17T12:48:52Z</time>
      </trkpt>
      <trkpt lat="45.4173" lon="3.41267">
        <ele>647.5</ele>
        <time>2020-09-17T12:48:53Z</time>
      </trkpt>
      <trkpt lat="45.41731" lon="3.41267">
        <ele>647.5</ele>
        <time>2020-09-17T12:48:54Z</time>
      </trkpt>
      <trkpt lat="45.41732" lon="3.41267">
        <ele>647.4</ele>
        <time>2020-09-17T12:48:55Z</time>
      </trkpt>
      <trkpt lat="45.41733" lon="3.41267">
        <ele>647.4</ele>
        <time>2020-09-17T12:48:56Z</time>
      </trkpt>
      <trkpt lat="45.41734" lon="3.41266">
        <ele>647.3</ele>
        <time>2020-09-17T12:48:57Z</time>
      </trkpt>
      <trkpt lat="45.41735" lon="3.41267">
        <ele>647.2</ele>
        <time>2020-09-17T12:48:58Z</time>
      </trkpt>
      <trkpt lat="45.41737" lon="3.41267">
        <ele>647.2</ele>
        <time>2020-09-17T12:48:59Z</time>
      </trkpt>
      <trkpt lat="45.41738" lon="3.41267">
        <ele>647.1</ele>
        <time>2020-09-17T12:49:00Z</time>
      </trkpt>
      <trkpt lat="45.41739" lon="3.41267">
        <ele>647.1</ele>
        <time>2020-09-17T12:49:01Z</time>
      </trkpt>
      <trkpt lat="45.4174" lon="3.41267">
        <ele>647</ele>
        <time>2020-09-17T12:49:02Z</time>
      </trkpt>
      <trkpt lat="45.41741" lon="3.41267">
        <ele>646.9</ele>
        <time>2020-09-17T12:49:03Z</time>
      </trkpt>
      <trkpt lat="45.41742" lon="3.41267">
        <ele>646.9</ele>
        <time>2020-09-17T12:49:04Z</time>
      </trkpt>
      <trkpt lat="45.41743" lon="3.41268">
        <ele>646.8</ele>
        <time>2020-09-17T12:49:05Z</time>
      </trkpt>
      <trkpt lat="45.41744" lon="3.41268">
        <ele>646.7</ele>
        <time>2020-09-17T12:49:06Z</time>
      </trkpt>
      <trkpt lat="45.41745" lon="3.41268">
        <ele>646.7</ele>
        <time>2020-09-17T12:49:07Z</time>
      </trkpt>
      <trkpt lat="45.41746" lon="3.41268">
        <ele>646.6</ele>
        <time>2020-09-17T12:49:08Z</time>
      </trkpt>
      <trkpt lat="45.41747" lon="3.41268">
        <ele>646.5</ele>
        <time>2020-09-17T12:49:09Z</time>
      </trkpt>
      <trkpt lat="45.41748" lon="3.41268">
        <ele>646.5</ele>
        <time>2020-09-17T12:49:10Z</time>
      </trkpt>
      <trkpt lat="45.41749" lon="3.41268">
        <ele>646.4</ele>
        <time>2020-09-17T12:49:11Z</time>
      </trkpt>
      <trkpt lat="45.4175" lon="3.41268">
        <ele>646.3</ele>
        <time>2020-09-17T12:49:12Z</time>
      </trkpt>
      <trkpt lat="45.41752" lon="3.41268">
        <ele>646.2</ele>
        <time>2020-09-17T12:49:13Z</time>
      </trkpt>
      <trkpt lat="45.41753" lon="3.41267">
        <ele>646.1</ele>
        <time>2020-09-17T12:49:14Z</time>
      </trkpt>
      <trkpt lat="45.41754" lon="3.41267">
        <ele>646</ele>
        <time>2020-09-17T12:49:15Z</time>
      </trkpt>
      <trkpt lat="45.41755" lon="3.41266">
        <ele>645.9</ele>
        <time>2020-09-17T12:49:16Z</time>
      </trkpt>
      <trkpt lat="45.41756" lon="3.41266">
        <ele>645.8</ele>
        <time>2020-09-17T12:49:17Z</time>
      </trkpt>
      <trkpt lat="45.41756" lon="3.41265">
        <ele>645.7</ele>
        <time>2020-09-17T12:49:18Z</time>
      </trkpt>
      <trkpt lat="45.41757" lon="3.41264">
        <ele>645.6</ele>
        <time>2020-09-17T12:49:19Z</time>
      </trkpt>
      <trkpt lat="45.41758" lon="3.41263">
        <ele>645.5</ele>
        <time>2020-09-17T12:49:20Z</time>
      </trkpt>
      <trkpt lat="45.41759" lon="3.41262">
        <ele>645.4</ele>
        <time>2020-09-17T12:49:21Z</time>
      </trkpt>
      <trkpt lat="45.4176" lon="3.41261">
        <ele>645.3</ele>
        <time>2020-09-17T12:49:22Z</time>
      </trkpt>
      <trkpt lat="45.41761" lon="3.4126">
        <ele>645.3</ele>
        <time>2020-09-17T12:49:23Z</time>
      </trkpt>
      <trkpt lat="45.41761" lon="3.41259">
        <ele>645.2</ele>
        <time>2020-09-17T12:49:24Z</time>
      </trkpt>
      <trkpt lat="45.41762" lon="3.41258">
        <ele>645.1</ele>
        <time>2020-09-17T12:49:25Z</time>
      </trkpt>
      <trkpt lat="45.41763" lon="3.41256">
        <ele>645.1</ele>
        <time>2020-09-17T12:49:26Z</time>
      </trkpt>
      <trkpt lat="45.41763" lon="3.41255">
        <ele>645</ele>
        <time>2020-09-17T12:49:27Z</time>
      </trkpt>
      <trkpt lat="45.41764" lon="3.41254">
        <ele>645</ele>
        <time>2020-09-17T12:49:28Z</time>
      </trkpt>
      <trkpt lat="45.41764" lon="3.41252">
        <ele>644.9</ele>
        <time>2020-09-17T12:49:29Z</time>
      </trkpt>
      <trkpt lat="45.41765" lon="3.41251">
        <ele>644.9</ele>
        <time>2020-09-17T12:49:30Z</time>
      </trkpt>
      <trkpt lat="45.41765" lon="3.41249">
        <ele>644.9</ele>
        <time>2020-09-17T12:49:31Z</time>
      </trkpt>
      <trkpt lat="45.41766" lon="3.41248">
        <ele>644.9</ele>
        <time>2020-09-17T12:49:32Z</time>
      </trkpt>
      <trkpt lat="45.41766" lon="3.41246">
        <ele>644.9</ele>
        <time>2020-09-17T12:49:33Z</time>
      </trkpt>
      <trkpt lat="45.41767" lon="3.41245">
        <ele>645</ele>
        <time>2020-09-17T12:49:34Z</time>
      </trkpt>
      <trkpt lat="45.41768" lon="3.41243">
        <ele>645</ele>
        <time>2020-09-17T12:49:35Z</time>
      </trkpt>
      <trkpt lat="45.41768" lon="3.41242">
        <ele>645</ele>
        <time>2020-09-17T12:49:36Z</time>
      </trkpt>
      <trkpt lat="45.41769" lon="3.41241">
        <ele>645.1</ele>
        <time>2020-09-17T12:49:37Z</time>
      </trkpt>
      <trkpt lat="45.41769" lon="3.41239">
        <ele>645.1</ele>
        <time>2020-09-17T12:49:38Z</time>
      </trkpt>
      <trkpt lat="45.4177" lon="3.41238">
        <ele>645.2</ele>
        <time>2020-09-17T12:49:39Z</time>
      </trkpt>
      <trkpt lat="45.41771" lon="3.41236">
        <ele>645.2</ele>
        <time>2020-09-17T12:49:40Z</time>
      </trkpt>
      <trkpt lat="45.41772" lon="3.41235">
        <ele>645.3</ele>
        <time>2020-09-17T12:49:41Z</time>
      </trkpt>
      <trkpt lat="45.41772" lon="3.41234">
        <ele>645.4</ele>
        <time>2020-09-17T12:49:42Z</time>
      </trkpt>
      <trkpt lat="45.41773" lon="3.41232">
        <ele>645.4</ele>
        <time>2020-09-17T12:49:43Z</time>
      </trkpt>
      <trkpt lat="45.41774" lon="3.41231">
        <ele>645.4</ele>
        <time>2020-09-17T12:49:44Z</time>
      </trkpt>
      <trkpt lat="45.41775" lon="3.4123">
        <ele>645.4</ele>
        <time>2020-09-17T12:49:45Z</time>
      </trkpt>
      <trkpt lat="45.41776" lon="3.41229">
        <ele>645.5</ele>
        <time>2020-09-17T12:49:46Z</time>
      </trkpt>
      <trkpt lat="45.41777" lon="3.41228">
        <ele>645.5</ele>
        <time>2020-09-17T12:49:47Z</time>
      </trkpt>
      <trkpt lat="45.41777" lon="3.41227">
        <ele>645.5</ele>
        <time>2020-09-17T12:49:48Z</time>
      </trkpt>
      <trkpt lat="45.41778" lon="3.41227">
        <ele>645.5</ele>
        <time>2020-09-17T12:49:49Z</time>
      </trkpt>
      <trkpt lat="45.41779" lon="3.41226">
        <ele>645.5</ele>
        <time>2020-09-17T12:49:50Z</time>
      </trkpt>
      <trkpt lat="45.4178" lon="3.41225">
        <ele>645.5</ele>
        <time>2020-09-17T12:49:51Z</time>
      </trkpt>
      <trkpt lat="45.41782" lon="3.41224">
        <ele>645.5</ele>
        <time>2020-09-17T12:49:52Z</time>
      </trkpt>
      <trkpt lat="45.41782" lon="3.41224">
        <ele>645.5</ele>
        <time>2020-09-17T12:49:53Z</time>
      </trkpt>
      <trkpt lat="45.41783" lon="3.41223">
        <ele>645.5</ele>
        <time>2020-09-17T12:49:54Z</time>
      </trkpt>
      <trkpt lat="45.41784" lon="3.41222">
        <ele>645.5</ele>
        <time>2020-09-17T12:49:55Z</time>
      </trkpt>
      <trkpt lat="45.41785" lon="3.41222">
        <ele>645.5</ele>
        <time>2020-09-17T12:49:56Z</time>
      </trkpt>
      <trkpt lat="45.41786" lon="3.41221">
        <ele>645.6</ele>
        <time>2020-09-17T12:49:57Z</time>
      </trkpt>
      <trkpt lat="45.41787" lon="3.41221">
        <ele>645.7</ele>
        <time>2020-09-17T12:49:58Z</time>
      </trkpt>
      <trkpt lat="45.41788" lon="3.4122">
        <ele>645.8</ele>
        <time>2020-09-17T12:49:59Z</time>
      </trkpt>
      <trkpt lat="45.41789" lon="3.41219">
        <ele>645.9</ele>
        <time>2020-09-17T12:50:00Z</time>
      </trkpt>
      <trkpt lat="45.4179" lon="3.41218">
        <ele>646</ele>
        <time>2020-09-17T12:50:01Z</time>
      </trkpt>
      <trkpt lat="45.41791" lon="3.41218">
        <ele>646</ele>
        <time>2020-09-17T12:50:02Z</time>
      </trkpt>
      <trkpt lat="45.41792" lon="3.41217">
        <ele>646.1</ele>
        <time>2020-09-17T12:50:03Z</time>
      </trkpt>
      <trkpt lat="45.41793" lon="3.41216">
        <ele>646.1</ele>
        <time>2020-09-17T12:50:04Z</time>
      </trkpt>
      <trkpt lat="45.41794" lon="3.41216">
        <ele>646.2</ele>
        <time>2020-09-17T12:50:05Z</time>
      </trkpt>
      <trkpt lat="45.41794" lon="3.41215">
        <ele>646.2</ele>
        <time>2020-09-17T12:50:06Z</time>
      </trkpt>
      <trkpt lat="45.41795" lon="3.41214">
        <ele>646.3</ele>
        <time>2020-09-17T12:50:07Z</time>
      </trkpt>
      <trkpt lat="45.41796" lon="3.41213">
        <ele>646.4</ele>
        <time>2020-09-17T12:50:08Z</time>
      </trkpt>
      <trkpt lat="45.41797" lon="3.41213">
        <ele>646.5</ele>
        <time>2020-09-17T12:50:09Z</time>
      </trkpt>
      <trkpt lat="45.41798" lon="3.41212">
        <ele>646.6</ele>
        <time>2020-09-17T12:50:10Z</time>
      </trkpt>
      <trkpt lat="45.41799" lon="3.41211">
        <ele>646.7</ele>
        <time>2020-09-17T12:50:11Z</time>
      </trkpt>
      <trkpt lat="45.41799" lon="3.4121">
        <ele>646.8</ele>
        <time>2020-09-17T12:50:12Z</time>
      </trkpt>
      <trkpt lat="45.418" lon="3.41209">
        <ele>646.9</ele>
        <time>2020-09-17T12:50:13Z</time>
      </trkpt>
      <trkpt lat="45.41801" lon="3.41208">
        <ele>647.1</ele>
        <time>2020-09-17T12:50:14Z</time>
      </trkpt>
      <trkpt lat="45.41802" lon="3.41207">
        <ele>647.2</ele>
        <time>2020-09-17T12:50:15Z</time>
      </trkpt>
      <trkpt lat="45.41803" lon="3.41206">
        <ele>647.3</ele>
        <time>2020-09-17T12:50:16Z</time>
      </trkpt>
      <trkpt lat="45.41803" lon="3.41205">
        <ele>647.4</ele>
        <time>2020-09-17T12:50:17Z</time>
      </trkpt>
      <trkpt lat="45.41804" lon="3.41204">
        <ele>647.5</ele>
        <time>2020-09-17T12:50:18Z</time>
      </trkpt>
      <trkpt lat="45.41805" lon="3.41203">
        <ele>647.6</ele>
        <time>2020-09-17T12:50:19Z</time>
      </trkpt>
      <trkpt lat="45.41806" lon="3.41202">
        <ele>647.6</ele>
        <time>2020-09-17T12:50:20Z</time>
      </trkpt>
      <trkpt lat="45.41806" lon="3.41201">
        <ele>647.7</ele>
        <time>2020-09-17T12:50:21Z</time>
      </trkpt>
      <trkpt lat="45.41807" lon="3.412">
        <ele>647.8</ele>
        <time>2020-09-17T12:50:22Z</time>
      </trkpt>
      <trkpt lat="45.41808" lon="3.412">
        <ele>647.8</ele>
        <time>2020-09-17T12:50:23Z</time>
      </trkpt>
      <trkpt lat="45.41808" lon="3.41199">
        <ele>647.9</ele>
        <time>2020-09-17T12:50:24Z</time>
      </trkpt>
      <trkpt lat="45.41809" lon="3.41197">
        <ele>648</ele>
        <time>2020-09-17T12:50:25Z</time>
      </trkpt>
      <trkpt lat="45.4181" lon="3.41196">
        <ele>648.1</ele>
        <time>2020-09-17T12:50:26Z</time>
      </trkpt>
      <trkpt lat="45.4181" lon="3.41195">
        <ele>648.2</ele>
        <time>2020-09-17T12:50:27Z</time>
      </trkpt>
      <trkpt lat="45.41811" lon="3.41194">
        <ele>648.3</ele>
        <time>2020-09-17T12:50:28Z</time>
      </trkpt>
      <trkpt lat="45.41811" lon="3.41192">
        <ele>648.5</ele>
        <time>2020-09-17T12:50:29Z</time>
      </trkpt>
      <trkpt lat="45.41812" lon="3.41191">
        <ele>648.5</ele>
        <time>2020-09-17T12:50:30Z</time>
      </trkpt>
      <trkpt lat="45.41813" lon="3.4119">
        <ele>648.6</ele>
        <time>2020-09-17T12:50:31Z</time>
      </trkpt>
      <trkpt lat="45.41813" lon="3.41189">
        <ele>648.7</ele>
        <time>2020-09-17T12:50:32Z</time>
      </trkpt>
      <trkpt lat="45.41814" lon="3.41188">
        <ele>648.8</ele>
        <time>2020-09-17T12:50:33Z</time>
      </trkpt>
      <trkpt lat="45.41814" lon="3.41187">
        <ele>648.8</ele>
        <time>2020-09-17T12:50:34Z</time>
      </trkpt>
      <trkpt lat="45.41814" lon="3.41185">
        <ele>649</ele>
        <time>2020-09-17T12:50:35Z</time>
      </trkpt>
      <trkpt lat="45.41815" lon="3.41184">
        <ele>649.1</ele>
        <time>2020-09-17T12:50:36Z</time>
      </trkpt>
      <trkpt lat="45.41815" lon="3.41183">
        <ele>649.2</ele>
        <time>2020-09-17T12:50:37Z</time>
      </trkpt>
      <trkpt lat="45.41815" lon="3.41181">
        <ele>649.4</ele>
        <time>2020-09-17T12:50:38Z</time>
      </trkpt>
      <trkpt lat="45.41815" lon="3.4118">
        <ele>649.5</ele>
        <time>2020-09-17T12:50:39Z</time>
      </trkpt>
      <trkpt lat="45.41816" lon="3.41179">
        <ele>649.6</ele>
        <time>2020-09-17T12:50:40Z</time>
      </trkpt>
      <trkpt lat="45.41816" lon="3.41178">
        <ele>649.7</ele>
        <time>2020-09-17T12:50:41Z</time>
      </trkpt>
      <trkpt lat="45.41816" lon="3.41177">
        <ele>649.9</ele>
        <time>2020-09-17T12:50:42Z</time>
      </trkpt>
      <trkpt lat="45.41816" lon="3.41175">
        <ele>650.1</ele>
        <time>2020-09-17T12:50:43Z</time>
      </trkpt>
      <trkpt lat="45.41815" lon="3.41174">
        <ele>650.3</ele>
        <time>2020-09-17T12:50:44Z</time>
      </trkpt>
      <trkpt lat="45.41815" lon="3.41172">
        <ele>650.5</ele>
        <time>2020-09-17T12:50:45Z</time>
      </trkpt>
      <trkpt lat="45.41815" lon="3.41171">
        <ele>650.7</ele>
        <time>2020-09-17T12:50:46Z</time>
      </trkpt>
      <trkpt lat="45.41815" lon="3.4117">
        <ele>650.8</ele>
        <time>2020-09-17T12:50:47Z</time>
      </trkpt>
      <trkpt lat="45.41815" lon="3.41168">
        <ele>651.1</ele>
        <time>2020-09-17T12:50:48Z</time>
      </trkpt>
      <trkpt lat="45.41815" lon="3.41167">
        <ele>651.3</ele>
        <time>2020-09-17T12:50:49Z</time>
      </trkpt>
      <trkpt lat="45.41815" lon="3.41166">
        <ele>651.4</ele>
        <time>2020-09-17T12:50:50Z</time>
      </trkpt>
      <trkpt lat="45.41815" lon="3.41165">
        <ele>651.5</ele>
        <time>2020-09-17T12:50:51Z</time>
      </trkpt>
      <trkpt lat="45.41815" lon="3.41163">
        <ele>651.6</ele>
        <time>2020-09-17T12:50:52Z</time>
      </trkpt>
      <trkpt lat="45.41814" lon="3.41162">
        <ele>651.7</ele>
        <time>2020-09-17T12:50:53Z</time>
      </trkpt>
      <trkpt lat="45.41814" lon="3.41161">
        <ele>651.9</ele>
        <time>2020-09-17T12:50:54Z</time>
      </trkpt>
      <trkpt lat="45.41814" lon="3.4116">
        <ele>652</ele>
        <time>2020-09-17T12:50:55Z</time>
      </trkpt>
      <trkpt lat="45.41814" lon="3.41158">
        <ele>652.1</ele>
        <time>2020-09-17T12:50:56Z</time>
      </trkpt>
      <trkpt lat="45.41814" lon="3.41157">
        <ele>652.3</ele>
        <time>2020-09-17T12:50:57Z</time>
      </trkpt>
      <trkpt lat="45.41813" lon="3.41156">
        <ele>652.4</ele>
        <time>2020-09-17T12:50:58Z</time>
      </trkpt>
      <trkpt lat="45.41813" lon="3.41155">
        <ele>652.5</ele>
        <time>2020-09-17T12:50:59Z</time>
      </trkpt>
      <trkpt lat="45.41813" lon="3.41154">
        <ele>652.7</ele>
        <time>2020-09-17T12:51:00Z</time>
      </trkpt>
      <trkpt lat="45.41812" lon="3.41152">
        <ele>652.8</ele>
        <time>2020-09-17T12:51:01Z</time>
      </trkpt>
      <trkpt lat="45.41812" lon="3.41151">
        <ele>653</ele>
        <time>2020-09-17T12:51:02Z</time>
      </trkpt>
      <trkpt lat="45.41812" lon="3.4115">
        <ele>653.1</ele>
        <time>2020-09-17T12:51:03Z</time>
      </trkpt>
      <trkpt lat="45.41811" lon="3.41148">
        <ele>653.3</ele>
        <time>2020-09-17T12:51:04Z</time>
      </trkpt>
      <trkpt lat="45.41811" lon="3.41147">
        <ele>653.4</ele>
        <time>2020-09-17T12:51:05Z</time>
      </trkpt>
      <trkpt lat="45.41811" lon="3.41146">
        <ele>653.6</ele>
        <time>2020-09-17T12:51:06Z</time>
      </trkpt>
      <trkpt lat="45.41811" lon="3.41144">
        <ele>653.7</ele>
        <time>2020-09-17T12:51:07Z</time>
      </trkpt>
      <trkpt lat="45.4181" lon="3.41143">
        <ele>653.9</ele>
        <time>2020-09-17T12:51:08Z</time>
      </trkpt>
      <trkpt lat="45.4181" lon="3.41142">
        <ele>654</ele>
        <time>2020-09-17T12:51:09Z</time>
      </trkpt>
      <trkpt lat="45.4181" lon="3.4114">
        <ele>654.1</ele>
        <time>2020-09-17T12:51:10Z</time>
      </trkpt>
      <trkpt lat="45.4181" lon="3.41139">
        <ele>654.3</ele>
        <time>2020-09-17T12:51:11Z</time>
      </trkpt>
      <trkpt lat="45.41809" lon="3.41137">
        <ele>654.3</ele>
        <time>2020-09-17T12:51:12Z</time>
      </trkpt>
      <trkpt lat="45.41809" lon="3.41136">
        <ele>654.4</ele>
        <time>2020-09-17T12:51:13Z</time>
      </trkpt>
      <trkpt lat="45.41809" lon="3.41134">
        <ele>654.4</ele>
        <time>2020-09-17T12:51:14Z</time>
      </trkpt>
      <trkpt lat="45.41809" lon="3.41133">
        <ele>654.4</ele>
        <time>2020-09-17T12:51:15Z</time>
      </trkpt>
      <trkpt lat="45.41809" lon="3.41131">
        <ele>654.5</ele>
        <time>2020-09-17T12:51:16Z</time>
      </trkpt>
      <trkpt lat="45.41809" lon="3.41129">
        <ele>654.5</ele>
        <time>2020-09-17T12:51:17Z</time>
      </trkpt>
      <trkpt lat="45.41809" lon="3.41128">
        <ele>654.5</ele>
        <time>2020-09-17T12:51:18Z</time>
      </trkpt>
      <trkpt lat="45.41809" lon="3.41126">
        <ele>654.5</ele>
        <time>2020-09-17T12:51:19Z</time>
      </trkpt>
      <trkpt lat="45.41809" lon="3.41125">
        <ele>654.6</ele>
        <time>2020-09-17T12:51:20Z</time>
      </trkpt>
      <trkpt lat="45.41809" lon="3.41123">
        <ele>654.6</ele>
        <time>2020-09-17T12:51:21Z</time>
      </trkpt>
      <trkpt lat="45.41809" lon="3.41121">
        <ele>654.6</ele>
        <time>2020-09-17T12:51:22Z</time>
      </trkpt>
      <trkpt lat="45.41809" lon="3.4112">
        <ele>654.6</ele>
        <time>2020-09-17T12:51:23Z</time>
      </trkpt>
      <trkpt lat="45.41809" lon="3.41118">
        <ele>654.6</ele>
        <time>2020-09-17T12:51:24Z</time>
      </trkpt>
      <trkpt lat="45.41809" lon="3.41116">
        <ele>654.6</ele>
        <time>2020-09-17T12:51:25Z</time>
      </trkpt>
      <trkpt lat="45.41809" lon="3.41115">
        <ele>654.6</ele>
        <time>2020-09-17T12:51:26Z</time>
      </trkpt>
      <trkpt lat="45.41809" lon="3.41113">
        <ele>654.6</ele>
        <time>2020-09-17T12:51:27Z</time>
      </trkpt>
      <trkpt lat="45.41809" lon="3.41112">
        <ele>654.6</ele>
        <time>2020-09-17T12:51:28Z</time>
      </trkpt>
      <trkpt lat="45.41809" lon="3.4111">
        <ele>654.6</ele>
        <time>2020-09-17T12:51:29Z</time>
      </trkpt>
      <trkpt lat="45.4181" lon="3.41108">
        <ele>654.7</ele>
        <time>2020-09-17T12:51:30Z</time>
      </trkpt>
      <trkpt lat="45.4181" lon="3.41107">
        <ele>654.7</ele>
        <time>2020-09-17T12:51:31Z</time>
      </trkpt>
      <trkpt lat="45.4181" lon="3.41106">
        <ele>654.7</ele>
        <time>2020-09-17T12:51:32Z</time>
      </trkpt>
      <trkpt lat="45.4181" lon="3.41104">
        <ele>654.7</ele>
        <time>2020-09-17T12:51:33Z</time>
      </trkpt>
      <trkpt lat="45.41811" lon="3.41103">
        <ele>654.8</ele>
        <time>2020-09-17T12:51:34Z</time>
      </trkpt>
      <trkpt lat="45.41811" lon="3.41101">
        <ele>654.8</ele>
        <time>2020-09-17T12:51:35Z</time>
      </trkpt>
      <trkpt lat="45.41811" lon="3.411">
        <ele>654.8</ele>
        <time>2020-09-17T12:51:36Z</time>
      </trkpt>
      <trkpt lat="45.41811" lon="3.41098">
        <ele>654.9</ele>
        <time>2020-09-17T12:51:37Z</time>
      </trkpt>
      <trkpt lat="45.41811" lon="3.41097">
        <ele>654.9</ele>
        <time>2020-09-17T12:51:38Z</time>
      </trkpt>
      <trkpt lat="45.41811" lon="3.41095">
        <ele>655</ele>
        <time>2020-09-17T12:51:39Z</time>
      </trkpt>
      <trkpt lat="45.41811" lon="3.41094">
        <ele>655</ele>
        <time>2020-09-17T12:51:40Z</time>
      </trkpt>
      <trkpt lat="45.41811" lon="3.41092">
        <ele>655.1</ele>
        <time>2020-09-17T12:51:41Z</time>
      </trkpt>
      <trkpt lat="45.41811" lon="3.41091">
        <ele>655.1</ele>
        <time>2020-09-17T12:51:42Z</time>
      </trkpt>
      <trkpt lat="45.41811" lon="3.41089">
        <ele>655.2</ele>
        <time>2020-09-17T12:51:43Z</time>
      </trkpt>
      <trkpt lat="45.41811" lon="3.41088">
        <ele>655.2</ele>
        <time>2020-09-17T12:51:44Z</time>
      </trkpt>
      <trkpt lat="45.41811" lon="3.41087">
        <ele>655.3</ele>
        <time>2020-09-17T12:51:45Z</time>
      </trkpt>
      <trkpt lat="45.41811" lon="3.41085">
        <ele>655.4</ele>
        <time>2020-09-17T12:51:46Z</time>
      </trkpt>
      <trkpt lat="45.41811" lon="3.41084">
        <ele>655.5</ele>
        <time>2020-09-17T12:51:47Z</time>
      </trkpt>
      <trkpt lat="45.4181" lon="3.41082">
        <ele>655.5</ele>
        <time>2020-09-17T12:51:48Z</time>
      </trkpt>
      <trkpt lat="45.4181" lon="3.41081">
        <ele>655.6</ele>
        <time>2020-09-17T12:51:49Z</time>
      </trkpt>
      <trkpt lat="45.41809" lon="3.4108">
        <ele>655.7</ele>
        <time>2020-09-17T12:51:50Z</time>
      </trkpt>
      <trkpt lat="45.41809" lon="3.41078">
        <ele>655.8</ele>
        <time>2020-09-17T12:51:51Z</time>
      </trkpt>
      <trkpt lat="45.41809" lon="3.41077">
        <ele>655.8</ele>
        <time>2020-09-17T12:51:52Z</time>
      </trkpt>
      <trkpt lat="45.41808" lon="3.41076">
        <ele>655.9</ele>
        <time>2020-09-17T12:51:53Z</time>
      </trkpt>
      <trkpt lat="45.41808" lon="3.41074">
        <ele>656</ele>
        <time>2020-09-17T12:51:54Z</time>
      </trkpt>
      <trkpt lat="45.41808" lon="3.41073">
        <ele>656.1</ele>
        <time>2020-09-17T12:51:55Z</time>
      </trkpt>
      <trkpt lat="45.41807" lon="3.41072">
        <ele>656.2</ele>
        <time>2020-09-17T12:51:56Z</time>
      </trkpt>
      <trkpt lat="45.41807" lon="3.4107">
        <ele>656.3</ele>
        <time>2020-09-17T12:51:57Z</time>
      </trkpt>
      <trkpt lat="45.41807" lon="3.41069">
        <ele>656.4</ele>
        <time>2020-09-17T12:51:58Z</time>
      </trkpt>
      <trkpt lat="45.41806" lon="3.41068">
        <ele>656.5</ele>
        <time>2020-09-17T12:51:59Z</time>
      </trkpt>
      <trkpt lat="45.41806" lon="3.41067">
        <ele>656.6</ele>
        <time>2020-09-17T12:52:00Z</time>
      </trkpt>
      <trkpt lat="45.41805" lon="3.41066">
        <ele>656.7</ele>
        <time>2020-09-17T12:52:01Z</time>
      </trkpt>
      <trkpt lat="45.41805" lon="3.41065">
        <ele>656.7</ele>
        <time>2020-09-17T12:52:02Z</time>
      </trkpt>
      <trkpt lat="45.41805" lon="3.41064">
        <ele>656.8</ele>
        <time>2020-09-17T12:52:03Z</time>
      </trkpt>
      <trkpt lat="45.41805" lon="3.41063">
        <ele>656.8</ele>
        <time>2020-09-17T12:52:04Z</time>
      </trkpt>
      <trkpt lat="45.41804" lon="3.41062">
        <ele>656.9</ele>
        <time>2020-09-17T12:52:05Z</time>
      </trkpt>
      <trkpt lat="45.41804" lon="3.41061">
        <ele>657</ele>
        <time>2020-09-17T12:52:06Z</time>
      </trkpt>
      <trkpt lat="45.41804" lon="3.4106">
        <ele>657.1</ele>
        <time>2020-09-17T12:52:07Z</time>
      </trkpt>
      <trkpt lat="45.41803" lon="3.41059">
        <ele>657.2</ele>
        <time>2020-09-17T12:52:08Z</time>
      </trkpt>
      <trkpt lat="45.41803" lon="3.41058">
        <ele>657.3</ele>
        <time>2020-09-17T12:52:09Z</time>
      </trkpt>
      <trkpt lat="45.41802" lon="3.41057">
        <ele>657.4</ele>
        <time>2020-09-17T12:52:10Z</time>
      </trkpt>
      <trkpt lat="45.41802" lon="3.41055">
        <ele>657.5</ele>
        <time>2020-09-17T12:52:11Z</time>
      </trkpt>
      <trkpt lat="45.41802" lon="3.41054">
        <ele>657.5</ele>
        <time>2020-09-17T12:52:12Z</time>
      </trkpt>
      <trkpt lat="45.41802" lon="3.41053">
        <ele>657.5</ele>
        <time>2020-09-17T12:52:13Z</time>
      </trkpt>
      <trkpt lat="45.41801" lon="3.41053">
        <ele>657.5</ele>
        <time>2020-09-17T12:52:14Z</time>
      </trkpt>
      <trkpt lat="45.41801" lon="3.41052">
        <ele>657.6</ele>
        <time>2020-09-17T12:52:15Z</time>
      </trkpt>
      <trkpt lat="45.41801" lon="3.41051">
        <ele>657.6</ele>
        <time>2020-09-17T12:52:16Z</time>
      </trkpt>
      <trkpt lat="45.41801" lon="3.4105">
        <ele>657.6</ele>
        <time>2020-09-17T12:52:17Z</time>
      </trkpt>
      <trkpt lat="45.418" lon="3.41049">
        <ele>657.7</ele>
        <time>2020-09-17T12:52:18Z</time>
      </trkpt>
      <trkpt lat="45.418" lon="3.41048">
        <ele>657.7</ele>
        <time>2020-09-17T12:52:19Z</time>
      </trkpt>
      <trkpt lat="45.41799" lon="3.41047">
        <ele>657.8</ele>
        <time>2020-09-17T12:52:20Z</time>
      </trkpt>
      <trkpt lat="45.41799" lon="3.41046">
        <ele>657.8</ele>
        <time>2020-09-17T12:52:21Z</time>
      </trkpt>
      <trkpt lat="45.41799" lon="3.41044">
        <ele>657.9</ele>
        <time>2020-09-17T12:52:22Z</time>
      </trkpt>
      <trkpt lat="45.41798" lon="3.41043">
        <ele>658</ele>
        <time>2020-09-17T12:52:23Z</time>
      </trkpt>
      <trkpt lat="45.41798" lon="3.41042">
        <ele>658.1</ele>
        <time>2020-09-17T12:52:24Z</time>
      </trkpt>
      <trkpt lat="45.41797" lon="3.41041">
        <ele>658.2</ele>
        <time>2020-09-17T12:52:25Z</time>
      </trkpt>
      <trkpt lat="45.41796" lon="3.4104">
        <ele>658.4</ele>
        <time>2020-09-17T12:52:26Z</time>
      </trkpt>
      <trkpt lat="45.41796" lon="3.41039">
        <ele>658.5</ele>
        <time>2020-09-17T12:52:27Z</time>
      </trkpt>
      <trkpt lat="45.41795" lon="3.41038">
        <ele>658.6</ele>
        <time>2020-09-17T12:52:28Z</time>
      </trkpt>
      <trkpt lat="45.41794" lon="3.41037">
        <ele>658.8</ele>
        <time>2020-09-17T12:52:29Z</time>
      </trkpt>
      <trkpt lat="45.41794" lon="3.41036">
        <ele>658.9</ele>
        <time>2020-09-17T12:52:30Z</time>
      </trkpt>
      <trkpt lat="45.41793" lon="3.41035">
        <ele>659.1</ele>
        <time>2020-09-17T12:52:31Z</time>
      </trkpt>
      <trkpt lat="45.41792" lon="3.41034">
        <ele>659.2</ele>
        <time>2020-09-17T12:52:32Z</time>
      </trkpt>
      <trkpt lat="45.41792" lon="3.41033">
        <ele>659.4</ele>
        <time>2020-09-17T12:52:33Z</time>
      </trkpt>
      <trkpt lat="45.41791" lon="3.41032">
        <ele>659.6</ele>
        <time>2020-09-17T12:52:34Z</time>
      </trkpt>
      <trkpt lat="45.41791" lon="3.41031">
        <ele>659.7</ele>
        <time>2020-09-17T12:52:35Z</time>
      </trkpt>
      <trkpt lat="45.4179" lon="3.41031">
        <ele>659.8</ele>
        <time>2020-09-17T12:52:36Z</time>
      </trkpt>
      <trkpt lat="45.4179" lon="3.41031">
        <ele>659.9</ele>
        <time>2020-09-17T12:52:37Z</time>
      </trkpt>
      <trkpt lat="45.41789" lon="3.4103">
        <ele>660</ele>
        <time>2020-09-17T12:52:38Z</time>
      </trkpt>
      <trkpt lat="45.41789" lon="3.4103">
        <ele>660.1</ele>
        <time>2020-09-17T12:52:39Z</time>
      </trkpt>
      <trkpt lat="45.41789" lon="3.41029">
        <ele>660.1</ele>
        <time>2020-09-17T12:52:40Z</time>
      </trkpt>
      <trkpt lat="45.41789" lon="3.41029">
        <ele>660.2</ele>
        <time>2020-09-17T12:52:41Z</time>
      </trkpt>
      <trkpt lat="45.41789" lon="3.41029">
        <ele>660.2</ele>
        <time>2020-09-17T12:52:42Z</time>
      </trkpt>
      <trkpt lat="45.41789" lon="3.41029">
        <ele>660.3</ele>
        <time>2020-09-17T12:52:43Z</time>
      </trkpt>
      <trkpt lat="45.41789" lon="3.41029">
        <ele>660.3</ele>
        <time>2020-09-17T12:52:44Z</time>
      </trkpt>
      <trkpt lat="45.41789" lon="3.41029">
        <ele>660.3</ele>
        <time>2020-09-17T12:52:45Z</time>
      </trkpt>
      <trkpt lat="45.41788" lon="3.41028">
        <ele>660.3</ele>
        <time>2020-09-17T12:52:46Z</time>
      </trkpt>
      <trkpt lat="45.41788" lon="3.41028">
        <ele>660.3</ele>
        <time>2020-09-17T12:52:47Z</time>
      </trkpt>
      <trkpt lat="45.41788" lon="3.41028">
        <ele>660.3</ele>
        <time>2020-09-17T12:52:48Z</time>
      </trkpt>
      <trkpt lat="45.41788" lon="3.41028">
        <ele>660.4</ele>
        <time>2020-09-17T12:52:49Z</time>
      </trkpt>
      <trkpt lat="45.41788" lon="3.41027">
        <ele>660.5</ele>
        <time>2020-09-17T12:52:50Z</time>
      </trkpt>
      <trkpt lat="45.41787" lon="3.41026">
        <ele>660.6</ele>
        <time>2020-09-17T12:52:51Z</time>
      </trkpt>
      <trkpt lat="45.41787" lon="3.41025">
        <ele>660.7</ele>
        <time>2020-09-17T12:52:52Z</time>
      </trkpt>
      <trkpt lat="45.41786" lon="3.41024">
        <ele>660.8</ele>
        <time>2020-09-17T12:52:53Z</time>
      </trkpt>
      <trkpt lat="45.41785" lon="3.41023">
        <ele>661</ele>
        <time>2020-09-17T12:52:54Z</time>
      </trkpt>
      <trkpt lat="45.41785" lon="3.41022">
        <ele>661.1</ele>
        <time>2020-09-17T12:52:55Z</time>
      </trkpt>
      <trkpt lat="45.41784" lon="3.41021">
        <ele>661.3</ele>
        <time>2020-09-17T12:52:56Z</time>
      </trkpt>
      <trkpt lat="45.41783" lon="3.4102">
        <ele>661.4</ele>
        <time>2020-09-17T12:52:57Z</time>
      </trkpt>
      <trkpt lat="45.41782" lon="3.4102">
        <ele>661.6</ele>
        <time>2020-09-17T12:52:58Z</time>
      </trkpt>
      <trkpt lat="45.41781" lon="3.41019">
        <ele>661.8</ele>
        <time>2020-09-17T12:52:59Z</time>
      </trkpt>
      <trkpt lat="45.41781" lon="3.41018">
        <ele>661.9</ele>
        <time>2020-09-17T12:53:00Z</time>
      </trkpt>
      <trkpt lat="45.4178" lon="3.41017">
        <ele>662.1</ele>
        <time>2020-09-17T12:53:01Z</time>
      </trkpt>
      <trkpt lat="45.41779" lon="3.41017">
        <ele>662.2</ele>
        <time>2020-09-17T12:53:02Z</time>
      </trkpt>
      <trkpt lat="45.41779" lon="3.41016">
        <ele>662.4</ele>
        <time>2020-09-17T12:53:03Z</time>
      </trkpt>
      <trkpt lat="45.41778" lon="3.41015">
        <ele>662.5</ele>
        <time>2020-09-17T12:53:04Z</time>
      </trkpt>
      <trkpt lat="45.41777" lon="3.41014">
        <ele>662.5</ele>
        <time>2020-09-17T12:53:05Z</time>
      </trkpt>
      <trkpt lat="45.41776" lon="3.41013">
        <ele>662.5</ele>
        <time>2020-09-17T12:53:06Z</time>
      </trkpt>
      <trkpt lat="45.41776" lon="3.41012">
        <ele>662.5</ele>
        <time>2020-09-17T12:53:07Z</time>
      </trkpt>
      <trkpt lat="45.41775" lon="3.41011">
        <ele>662.5</ele>
        <time>2020-09-17T12:53:08Z</time>
      </trkpt>
      <trkpt lat="45.41775" lon="3.41011">
        <ele>662.5</ele>
        <time>2020-09-17T12:53:09Z</time>
      </trkpt>
      <trkpt lat="45.41774" lon="3.4101">
        <ele>662.5</ele>
        <time>2020-09-17T12:53:10Z</time>
      </trkpt>
      <trkpt lat="45.41773" lon="3.41009">
        <ele>662.5</ele>
        <time>2020-09-17T12:53:11Z</time>
      </trkpt>
      <trkpt lat="45.41772" lon="3.41008">
        <ele>662.5</ele>
        <time>2020-09-17T12:53:12Z</time>
      </trkpt>
      <trkpt lat="45.41772" lon="3.41008">
        <ele>662.5</ele>
        <time>2020-09-17T12:53:13Z</time>
      </trkpt>
      <trkpt lat="45.41771" lon="3.41007">
        <ele>662.6</ele>
        <time>2020-09-17T12:53:14Z</time>
      </trkpt>
      <trkpt lat="45.4177" lon="3.41007">
        <ele>662.6</ele>
        <time>2020-09-17T12:53:15Z</time>
      </trkpt>
      <trkpt lat="45.41769" lon="3.41006">
        <ele>662.6</ele>
        <time>2020-09-17T12:53:16Z</time>
      </trkpt>
      <trkpt lat="45.41769" lon="3.41005">
        <ele>662.7</ele>
        <time>2020-09-17T12:53:17Z</time>
      </trkpt>
      <trkpt lat="45.41768" lon="3.41005">
        <ele>662.7</ele>
        <time>2020-09-17T12:53:18Z</time>
      </trkpt>
      <trkpt lat="45.41767" lon="3.41004">
        <ele>662.7</ele>
        <time>2020-09-17T12:53:19Z</time>
      </trkpt>
      <trkpt lat="45.41766" lon="3.41003">
        <ele>662.8</ele>
        <time>2020-09-17T12:53:20Z</time>
      </trkpt>
      <trkpt lat="45.41765" lon="3.41003">
        <ele>662.9</ele>
        <time>2020-09-17T12:53:21Z</time>
      </trkpt>
      <trkpt lat="45.41764" lon="3.41002">
        <ele>662.9</ele>
        <time>2020-09-17T12:53:22Z</time>
      </trkpt>
      <trkpt lat="45.41764" lon="3.41002">
        <ele>663</ele>
        <time>2020-09-17T12:53:23Z</time>
      </trkpt>
      <trkpt lat="45.41763" lon="3.41001">
        <ele>663.1</ele>
        <time>2020-09-17T12:53:24Z</time>
      </trkpt>
      <trkpt lat="45.41762" lon="3.41001">
        <ele>663.1</ele>
        <time>2020-09-17T12:53:25Z</time>
      </trkpt>
      <trkpt lat="45.41761" lon="3.41">
        <ele>663.3</ele>
        <time>2020-09-17T12:53:26Z</time>
      </trkpt>
      <trkpt lat="45.4176" lon="3.41">
        <ele>663.4</ele>
        <time>2020-09-17T12:53:27Z</time>
      </trkpt>
      <trkpt lat="45.41759" lon="3.40999">
        <ele>663.5</ele>
        <time>2020-09-17T12:53:28Z</time>
      </trkpt>
      <trkpt lat="45.41758" lon="3.40999">
        <ele>663.6</ele>
        <time>2020-09-17T12:53:29Z</time>
      </trkpt>
      <trkpt lat="45.41757" lon="3.40998">
        <ele>663.8</ele>
        <time>2020-09-17T12:53:30Z</time>
      </trkpt>
      <trkpt lat="45.41756" lon="3.40997">
        <ele>663.9</ele>
        <time>2020-09-17T12:53:31Z</time>
      </trkpt>
      <trkpt lat="45.41755" lon="3.40997">
        <ele>664.1</ele>
        <time>2020-09-17T12:53:32Z</time>
      </trkpt>
      <trkpt lat="45.41754" lon="3.40996">
        <ele>664.2</ele>
        <time>2020-09-17T12:53:33Z</time>
      </trkpt>
      <trkpt lat="45.41753" lon="3.40996">
        <ele>664.4</ele>
        <time>2020-09-17T12:53:34Z</time>
      </trkpt>
      <trkpt lat="45.41752" lon="3.40995">
        <ele>664.6</ele>
        <time>2020-09-17T12:53:35Z</time>
      </trkpt>
      <trkpt lat="45.41751" lon="3.40994">
        <ele>664.7</ele>
        <time>2020-09-17T12:53:36Z</time>
      </trkpt>
      <trkpt lat="45.4175" lon="3.40994">
        <ele>664.9</ele>
        <time>2020-09-17T12:53:37Z</time>
      </trkpt>
      <trkpt lat="45.41749" lon="3.40993">
        <ele>664.9</ele>
        <time>2020-09-17T12:53:38Z</time>
      </trkpt>
      <trkpt lat="45.41748" lon="3.40993">
        <ele>664.9</ele>
        <time>2020-09-17T12:53:39Z</time>
      </trkpt>
      <trkpt lat="45.41747" lon="3.40992">
        <ele>664.9</ele>
        <time>2020-09-17T12:53:40Z</time>
      </trkpt>
      <trkpt lat="45.41746" lon="3.40991">
        <ele>665</ele>
        <time>2020-09-17T12:53:41Z</time>
      </trkpt>
      <trkpt lat="45.41745" lon="3.40991">
        <ele>665</ele>
        <time>2020-09-17T12:53:42Z</time>
      </trkpt>
      <trkpt lat="45.41744" lon="3.4099">
        <ele>665</ele>
        <time>2020-09-17T12:53:43Z</time>
      </trkpt>
      <trkpt lat="45.41743" lon="3.40989">
        <ele>665.1</ele>
        <time>2020-09-17T12:53:44Z</time>
      </trkpt>
      <trkpt lat="45.41742" lon="3.40989">
        <ele>665.1</ele>
        <time>2020-09-17T12:53:45Z</time>
      </trkpt>
      <trkpt lat="45.41741" lon="3.40987">
        <ele>665.2</ele>
        <time>2020-09-17T12:53:46Z</time>
      </trkpt>
      <trkpt lat="45.4174" lon="3.40987">
        <ele>665.2</ele>
        <time>2020-09-17T12:53:47Z</time>
      </trkpt>
      <trkpt lat="45.41739" lon="3.40986">
        <ele>665.3</ele>
        <time>2020-09-17T12:53:48Z</time>
      </trkpt>
      <trkpt lat="45.41739" lon="3.40985">
        <ele>665.3</ele>
        <time>2020-09-17T12:53:49Z</time>
      </trkpt>
      <trkpt lat="45.41738" lon="3.40985">
        <ele>665.3</ele>
        <time>2020-09-17T12:53:50Z</time>
      </trkpt>
      <trkpt lat="45.41737" lon="3.40984">
        <ele>665.4</ele>
        <time>2020-09-17T12:53:51Z</time>
      </trkpt>
      <trkpt lat="45.41736" lon="3.40983">
        <ele>665.5</ele>
        <time>2020-09-17T12:53:52Z</time>
      </trkpt>
      <trkpt lat="45.41736" lon="3.40982">
        <ele>665.6</ele>
        <time>2020-09-17T12:53:53Z</time>
      </trkpt>
      <trkpt lat="45.41735" lon="3.40981">
        <ele>665.7</ele>
        <time>2020-09-17T12:53:54Z</time>
      </trkpt>
      <trkpt lat="45.41735" lon="3.4098">
        <ele>665.8</ele>
        <time>2020-09-17T12:53:55Z</time>
      </trkpt>
      <trkpt lat="45.41734" lon="3.40979">
        <ele>665.9</ele>
        <time>2020-09-17T12:53:56Z</time>
      </trkpt>
      <trkpt lat="45.41734" lon="3.40979">
        <ele>665.9</ele>
        <time>2020-09-17T12:53:57Z</time>
      </trkpt>
      <trkpt lat="45.41733" lon="3.40978">
        <ele>665.9</ele>
        <time>2020-09-17T12:53:58Z</time>
      </trkpt>
      <trkpt lat="45.41732" lon="3.40978">
        <ele>666</ele>
        <time>2020-09-17T12:53:59Z</time>
      </trkpt>
      <trkpt lat="45.41732" lon="3.40977">
        <ele>666</ele>
        <time>2020-09-17T12:54:00Z</time>
      </trkpt>
      <trkpt lat="45.41731" lon="3.40977">
        <ele>666</ele>
        <time>2020-09-17T12:54:01Z</time>
      </trkpt>
      <trkpt lat="45.41731" lon="3.40976">
        <ele>666.1</ele>
        <time>2020-09-17T12:54:02Z</time>
      </trkpt>
      <trkpt lat="45.4173" lon="3.40975">
        <ele>666.2</ele>
        <time>2020-09-17T12:54:03Z</time>
      </trkpt>
      <trkpt lat="45.4173" lon="3.40974">
        <ele>666.3</ele>
        <time>2020-09-17T12:54:04Z</time>
      </trkpt>
      <trkpt lat="45.41729" lon="3.40973">
        <ele>666.4</ele>
        <time>2020-09-17T12:54:05Z</time>
      </trkpt>
      <trkpt lat="45.41729" lon="3.40972">
        <ele>666.5</ele>
        <time>2020-09-17T12:54:06Z</time>
      </trkpt>
      <trkpt lat="45.41729" lon="3.40971">
        <ele>666.7</ele>
        <time>2020-09-17T12:54:07Z</time>
      </trkpt>
      <trkpt lat="45.41728" lon="3.4097">
        <ele>666.8</ele>
        <time>2020-09-17T12:54:08Z</time>
      </trkpt>
      <trkpt lat="45.41728" lon="3.40969">
        <ele>666.9</ele>
        <time>2020-09-17T12:54:09Z</time>
      </trkpt>
      <trkpt lat="45.41728" lon="3.40968">
        <ele>667.1</ele>
        <time>2020-09-17T12:54:10Z</time>
      </trkpt>
      <trkpt lat="45.41727" lon="3.40967">
        <ele>667.2</ele>
        <time>2020-09-17T12:54:11Z</time>
      </trkpt>
      <trkpt lat="45.41727" lon="3.40967">
        <ele>667.3</ele>
        <time>2020-09-17T12:54:12Z</time>
      </trkpt>
      <trkpt lat="45.41727" lon="3.40966">
        <ele>667.3</ele>
        <time>2020-09-17T12:54:13Z</time>
      </trkpt>
      <trkpt lat="45.41727" lon="3.40965">
        <ele>667.4</ele>
        <time>2020-09-17T12:54:14Z</time>
      </trkpt>
      <trkpt lat="45.41727" lon="3.40965">
        <ele>667.5</ele>
        <time>2020-09-17T12:54:15Z</time>
      </trkpt>
      <trkpt lat="45.41726" lon="3.40964">
        <ele>667.6</ele>
        <time>2020-09-17T12:54:16Z</time>
      </trkpt>
      <trkpt lat="45.41726" lon="3.40964">
        <ele>667.6</ele>
        <time>2020-09-17T12:54:17Z</time>
      </trkpt>
      <trkpt lat="45.41726" lon="3.40963">
        <ele>667.8</ele>
        <time>2020-09-17T12:54:18Z</time>
      </trkpt>
      <trkpt lat="45.41726" lon="3.40962">
        <ele>667.8</ele>
        <time>2020-09-17T12:54:19Z</time>
      </trkpt>
      <trkpt lat="45.41726" lon="3.40961">
        <ele>668</ele>
        <time>2020-09-17T12:54:20Z</time>
      </trkpt>
      <trkpt lat="45.41726" lon="3.40961">
        <ele>668.1</ele>
        <time>2020-09-17T12:54:21Z</time>
      </trkpt>
      <trkpt lat="45.41726" lon="3.40961">
        <ele>668.1</ele>
        <time>2020-09-17T12:54:22Z</time>
      </trkpt>
      <trkpt lat="45.41726" lon="3.4096">
        <ele>668.1</ele>
        <time>2020-09-17T12:54:23Z</time>
      </trkpt>
      <trkpt lat="45.41726" lon="3.4096">
        <ele>668.2</ele>
        <time>2020-09-17T12:54:24Z</time>
      </trkpt>
      <trkpt lat="45.41726" lon="3.4096">
        <ele>668.3</ele>
        <time>2020-09-17T12:54:25Z</time>
      </trkpt>
      <trkpt lat="45.41726" lon="3.40959">
        <ele>668.4</ele>
        <time>2020-09-17T12:54:26Z</time>
      </trkpt>
      <trkpt lat="45.41726" lon="3.40959">
        <ele>668.4</ele>
        <time>2020-09-17T12:54:27Z</time>
      </trkpt>
      <trkpt lat="45.41727" lon="3.40959">
        <ele>668.4</ele>
        <time>2020-09-17T12:54:28Z</time>
      </trkpt>
      <trkpt lat="45.41727" lon="3.40959">
        <ele>668.5</ele>
        <time>2020-09-17T12:54:29Z</time>
      </trkpt>
      <trkpt lat="45.41727" lon="3.40959">
        <ele>668.5</ele>
        <time>2020-09-17T12:54:30Z</time>
      </trkpt>
      <trkpt lat="45.41728" lon="3.40954">
        <ele>669.4</ele>
        <time>2020-09-17T12:54:31Z</time>
      </trkpt>
      <trkpt lat="45.41728" lon="3.40954">
        <ele>669.4</ele>
        <time>2020-09-17T12:54:32Z</time>
      </trkpt>
      <trkpt lat="45.41728" lon="3.40954">
        <ele>669.4</ele>
        <time>2020-09-17T12:54:33Z</time>
      </trkpt>
      <trkpt lat="45.41728" lon="3.40954">
        <ele>669.4</ele>
        <time>2020-09-17T12:54:34Z</time>
      </trkpt>
      <trkpt lat="45.41728" lon="3.40954">
        <ele>669.4</ele>
        <time>2020-09-17T12:54:35Z</time>
      </trkpt>
      <trkpt lat="45.41727" lon="3.40954">
        <ele>669.4</ele>
        <time>2020-09-17T12:54:36Z</time>
      </trkpt>
      <trkpt lat="45.41727" lon="3.40953">
        <ele>669.5</ele>
        <time>2020-09-17T12:54:37Z</time>
      </trkpt>
      <trkpt lat="45.41727" lon="3.40953">
        <ele>669.5</ele>
        <time>2020-09-17T12:54:38Z</time>
      </trkpt>
      <trkpt lat="45.41726" lon="3.40952">
        <ele>669.6</ele>
        <time>2020-09-17T12:54:39Z</time>
      </trkpt>
      <trkpt lat="45.41726" lon="3.40951">
        <ele>669.7</ele>
        <time>2020-09-17T12:54:40Z</time>
      </trkpt>
      <trkpt lat="45.41726" lon="3.4095">
        <ele>669.9</ele>
        <time>2020-09-17T12:54:41Z</time>
      </trkpt>
      <trkpt lat="45.41727" lon="3.40949">
        <ele>670</ele>
        <time>2020-09-17T12:54:42Z</time>
      </trkpt>
      <trkpt lat="45.41727" lon="3.40949">
        <ele>670.1</ele>
        <time>2020-09-17T12:54:43Z</time>
      </trkpt>
      <trkpt lat="45.41727" lon="3.40948">
        <ele>670.2</ele>
        <time>2020-09-17T12:54:44Z</time>
      </trkpt>
      <trkpt lat="45.41727" lon="3.40948">
        <ele>670.3</ele>
        <time>2020-09-17T12:54:45Z</time>
      </trkpt>
      <trkpt lat="45.41728" lon="3.40948">
        <ele>670.4</ele>
        <time>2020-09-17T12:54:46Z</time>
      </trkpt>
      <trkpt lat="45.41728" lon="3.40947">
        <ele>670.6</ele>
        <time>2020-09-17T12:54:47Z</time>
      </trkpt>
      <trkpt lat="45.41728" lon="3.40946">
        <ele>670.7</ele>
        <time>2020-09-17T12:54:48Z</time>
      </trkpt>
      <trkpt lat="45.41728" lon="3.40946">
        <ele>670.8</ele>
        <time>2020-09-17T12:54:49Z</time>
      </trkpt>
      <trkpt lat="45.41728" lon="3.40945">
        <ele>670.9</ele>
        <time>2020-09-17T12:54:50Z</time>
      </trkpt>
      <trkpt lat="45.41728" lon="3.40945">
        <ele>671</ele>
        <time>2020-09-17T12:54:51Z</time>
      </trkpt>
      <trkpt lat="45.41729" lon="3.40945">
        <ele>671.1</ele>
        <time>2020-09-17T12:54:52Z</time>
      </trkpt>
      <trkpt lat="45.41729" lon="3.40945">
        <ele>671.2</ele>
        <time>2020-09-17T12:54:53Z</time>
      </trkpt>
      <trkpt lat="45.41729" lon="3.40944">
        <ele>671.3</ele>
        <time>2020-09-17T12:54:54Z</time>
      </trkpt>
      <trkpt lat="45.4173" lon="3.40944">
        <ele>671.4</ele>
        <time>2020-09-17T12:54:55Z</time>
      </trkpt>
      <trkpt lat="45.4173" lon="3.40944">
        <ele>671.5</ele>
        <time>2020-09-17T12:54:56Z</time>
      </trkpt>
      <trkpt lat="45.4173" lon="3.40943">
        <ele>671.6</ele>
        <time>2020-09-17T12:54:57Z</time>
      </trkpt>
      <trkpt lat="45.4173" lon="3.40942">
        <ele>671.7</ele>
        <time>2020-09-17T12:54:58Z</time>
      </trkpt>
      <trkpt lat="45.4173" lon="3.40942">
        <ele>671.7</ele>
        <time>2020-09-17T12:54:59Z</time>
      </trkpt>
      <trkpt lat="45.4173" lon="3.40941">
        <ele>671.8</ele>
        <time>2020-09-17T12:55:00Z</time>
      </trkpt>
      <trkpt lat="45.4173" lon="3.4094">
        <ele>671.9</ele>
        <time>2020-09-17T12:55:01Z</time>
      </trkpt>
      <trkpt lat="45.4173" lon="3.4094">
        <ele>672.1</ele>
        <time>2020-09-17T12:55:02Z</time>
      </trkpt>
      <trkpt lat="45.4173" lon="3.40939">
        <ele>672.2</ele>
        <time>2020-09-17T12:55:03Z</time>
      </trkpt>
      <trkpt lat="45.4173" lon="3.40939">
        <ele>672.3</ele>
        <time>2020-09-17T12:55:04Z</time>
      </trkpt>
      <trkpt lat="45.4173" lon="3.40938">
        <ele>672.3</ele>
        <time>2020-09-17T12:55:05Z</time>
      </trkpt>
      <trkpt lat="45.4173" lon="3.40938">
        <ele>672.5</ele>
        <time>2020-09-17T12:55:06Z</time>
      </trkpt>
      <trkpt lat="45.41731" lon="3.40937">
        <ele>672.7</ele>
        <time>2020-09-17T12:55:07Z</time>
      </trkpt>
      <trkpt lat="45.41731" lon="3.40936">
        <ele>672.8</ele>
        <time>2020-09-17T12:55:08Z</time>
      </trkpt>
      <trkpt lat="45.41731" lon="3.40936">
        <ele>672.9</ele>
        <time>2020-09-17T12:55:09Z</time>
      </trkpt>
      <trkpt lat="45.41731" lon="3.40935">
        <ele>673</ele>
        <time>2020-09-17T12:55:10Z</time>
      </trkpt>
      <trkpt lat="45.41731" lon="3.40934">
        <ele>673.2</ele>
        <time>2020-09-17T12:55:11Z</time>
      </trkpt>
      <trkpt lat="45.41732" lon="3.40934">
        <ele>673.4</ele>
        <time>2020-09-17T12:55:12Z</time>
      </trkpt>
      <trkpt lat="45.41732" lon="3.40934">
        <ele>673.4</ele>
        <time>2020-09-17T12:55:13Z</time>
      </trkpt>
      <trkpt lat="45.41732" lon="3.40933">
        <ele>673.6</ele>
        <time>2020-09-17T12:55:14Z</time>
      </trkpt>
      <trkpt lat="45.41732" lon="3.40933">
        <ele>673.6</ele>
        <time>2020-09-17T12:55:15Z</time>
      </trkpt>
      <trkpt lat="45.41733" lon="3.40933">
        <ele>673.7</ele>
        <time>2020-09-17T12:55:16Z</time>
      </trkpt>
      <trkpt lat="45.41733" lon="3.40932">
        <ele>673.9</ele>
        <time>2020-09-17T12:55:17Z</time>
      </trkpt>
      <trkpt lat="45.41733" lon="3.40932">
        <ele>674</ele>
        <time>2020-09-17T12:55:18Z</time>
      </trkpt>
      <trkpt lat="45.41734" lon="3.40932">
        <ele>674.1</ele>
        <time>2020-09-17T12:55:19Z</time>
      </trkpt>
      <trkpt lat="45.41734" lon="3.40932">
        <ele>674.1</ele>
        <time>2020-09-17T12:55:20Z</time>
      </trkpt>
      <trkpt lat="45.41734" lon="3.40932">
        <ele>674.2</ele>
        <time>2020-09-17T12:55:21Z</time>
      </trkpt>
      <trkpt lat="45.41735" lon="3.40932">
        <ele>674.3</ele>
        <time>2020-09-17T12:55:22Z</time>
      </trkpt>
      <trkpt lat="45.41735" lon="3.40931">
        <ele>674.5</ele>
        <time>2020-09-17T12:55:23Z</time>
      </trkpt>
      <trkpt lat="45.41735" lon="3.40931">
        <ele>674.6</ele>
        <time>2020-09-17T12:55:24Z</time>
      </trkpt>
      <trkpt lat="45.41736" lon="3.4093">
        <ele>674.7</ele>
        <time>2020-09-17T12:55:25Z</time>
      </trkpt>
      <trkpt lat="45.41736" lon="3.4093">
        <ele>674.8</ele>
        <time>2020-09-17T12:55:26Z</time>
      </trkpt>
      <trkpt lat="45.41736" lon="3.40929">
        <ele>675</ele>
        <time>2020-09-17T12:55:27Z</time>
      </trkpt>
      <trkpt lat="45.41736" lon="3.40928">
        <ele>675.2</ele>
        <time>2020-09-17T12:55:28Z</time>
      </trkpt>
      <trkpt lat="45.41737" lon="3.40928">
        <ele>675.3</ele>
        <time>2020-09-17T12:55:29Z</time>
      </trkpt>
      <trkpt lat="45.41737" lon="3.40927">
        <ele>675.5</ele>
        <time>2020-09-17T12:55:30Z</time>
      </trkpt>
      <trkpt lat="45.41737" lon="3.40927">
        <ele>675.6</ele>
        <time>2020-09-17T12:55:31Z</time>
      </trkpt>
      <trkpt lat="45.41737" lon="3.40926">
        <ele>675.7</ele>
        <time>2020-09-17T12:55:32Z</time>
      </trkpt>
      <trkpt lat="45.41738" lon="3.40926">
        <ele>675.9</ele>
        <time>2020-09-17T12:55:33Z</time>
      </trkpt>
      <trkpt lat="45.41738" lon="3.40925">
        <ele>676</ele>
        <time>2020-09-17T12:55:34Z</time>
      </trkpt>
      <trkpt lat="45.41739" lon="3.40925">
        <ele>676.1</ele>
        <time>2020-09-17T12:55:35Z</time>
      </trkpt>
      <trkpt lat="45.41739" lon="3.40925">
        <ele>676.2</ele>
        <time>2020-09-17T12:55:36Z</time>
      </trkpt>
      <trkpt lat="45.41739" lon="3.40926">
        <ele>676.2</ele>
        <time>2020-09-17T12:55:37Z</time>
      </trkpt>
      <trkpt lat="45.4174" lon="3.40926">
        <ele>676.3</ele>
        <time>2020-09-17T12:55:38Z</time>
      </trkpt>
      <trkpt lat="45.4174" lon="3.40926">
        <ele>676.4</ele>
        <time>2020-09-17T12:55:39Z</time>
      </trkpt>
      <trkpt lat="45.41741" lon="3.40926">
        <ele>676.5</ele>
        <time>2020-09-17T12:55:40Z</time>
      </trkpt>
      <trkpt lat="45.41741" lon="3.40925">
        <ele>676.6</ele>
        <time>2020-09-17T12:55:41Z</time>
      </trkpt>
      <trkpt lat="45.41741" lon="3.40925">
        <ele>676.7</ele>
        <time>2020-09-17T12:55:42Z</time>
      </trkpt>
      <trkpt lat="45.41676" lon="3.40837">
        <ele>674.2</ele>
        <time>2020-09-17T12:55:43Z</time>
      </trkpt>
      <trkpt lat="45.41676" lon="3.40837">
        <ele>673.9</ele>
        <time>2020-09-17T12:55:44Z</time>
      </trkpt>
      <trkpt lat="45.41675" lon="3.40837">
        <ele>673.7</ele>
        <time>2020-09-17T12:55:45Z</time>
      </trkpt>
      <trkpt lat="45.41675" lon="3.40838">
        <ele>673.5</ele>
        <time>2020-09-17T12:55:46Z</time>
      </trkpt>
      <trkpt lat="45.41675" lon="3.40838">
        <ele>673.4</ele>
        <time>2020-09-17T12:55:47Z</time>
      </trkpt>
      <trkpt lat="45.41674" lon="3.40838">
        <ele>673.3</ele>
        <time>2020-09-17T12:55:48Z</time>
      </trkpt>
      <trkpt lat="45.41674" lon="3.40839">
        <ele>673.1</ele>
        <time>2020-09-17T12:55:49Z</time>
      </trkpt>
      <trkpt lat="45.41674" lon="3.40839">
        <ele>673</ele>
        <time>2020-09-17T12:55:50Z</time>
      </trkpt>
      <trkpt lat="45.41673" lon="3.40839">
        <ele>672.8</ele>
        <time>2020-09-17T12:55:51Z</time>
      </trkpt>
      <trkpt lat="45.41673" lon="3.40839">
        <ele>672.8</ele>
        <time>2020-09-17T12:55:52Z</time>
      </trkpt>
      <trkpt lat="45.41673" lon="3.40839">
        <ele>672.6</ele>
        <time>2020-09-17T12:55:53Z</time>
      </trkpt>
      <trkpt lat="45.41672" lon="3.4084">
        <ele>672.5</ele>
        <time>2020-09-17T12:55:54Z</time>
      </trkpt>
      <trkpt lat="45.41672" lon="3.4084">
        <ele>672.3</ele>
        <time>2020-09-17T12:55:55Z</time>
      </trkpt>
      <trkpt lat="45.41672" lon="3.40841">
        <ele>672.2</ele>
        <time>2020-09-17T12:55:56Z</time>
      </trkpt>
      <trkpt lat="45.41671" lon="3.40841">
        <ele>672</ele>
        <time>2020-09-17T12:55:57Z</time>
      </trkpt>
      <trkpt lat="45.41671" lon="3.40841">
        <ele>671.8</ele>
        <time>2020-09-17T12:55:58Z</time>
      </trkpt>
      <trkpt lat="45.4167" lon="3.40842">
        <ele>671.6</ele>
        <time>2020-09-17T12:55:59Z</time>
      </trkpt>
      <trkpt lat="45.4167" lon="3.40842">
        <ele>671.5</ele>
        <time>2020-09-17T12:56:00Z</time>
      </trkpt>
      <trkpt lat="45.41669" lon="3.40842">
        <ele>671.2</ele>
        <time>2020-09-17T12:56:01Z</time>
      </trkpt>
      <trkpt lat="45.41669" lon="3.40842">
        <ele>671</ele>
        <time>2020-09-17T12:56:02Z</time>
      </trkpt>
      <trkpt lat="45.41668" lon="3.40843">
        <ele>670.8</ele>
        <time>2020-09-17T12:56:03Z</time>
      </trkpt>
      <trkpt lat="45.41667" lon="3.40843">
        <ele>670.6</ele>
        <time>2020-09-17T12:56:04Z</time>
      </trkpt>
      <trkpt lat="45.41667" lon="3.40843">
        <ele>670.3</ele>
        <time>2020-09-17T12:56:05Z</time>
      </trkpt>
      <trkpt lat="45.41666" lon="3.40844">
        <ele>670.1</ele>
        <time>2020-09-17T12:56:06Z</time>
      </trkpt>
      <trkpt lat="45.41666" lon="3.40844">
        <ele>670</ele>
        <time>2020-09-17T12:56:07Z</time>
      </trkpt>
      <trkpt lat="45.41665" lon="3.40845">
        <ele>669.8</ele>
        <time>2020-09-17T12:56:08Z</time>
      </trkpt>
      <trkpt lat="45.41665" lon="3.40845">
        <ele>669.7</ele>
        <time>2020-09-17T12:56:09Z</time>
      </trkpt>
      <trkpt lat="45.41664" lon="3.40845">
        <ele>669.6</ele>
        <time>2020-09-17T12:56:10Z</time>
      </trkpt>
      <trkpt lat="45.41664" lon="3.40845">
        <ele>669.5</ele>
        <time>2020-09-17T12:56:11Z</time>
      </trkpt>
      <trkpt lat="45.41664" lon="3.40845">
        <ele>669.4</ele>
        <time>2020-09-17T12:56:12Z</time>
      </trkpt>
      <trkpt lat="45.41663" lon="3.40845">
        <ele>669.3</ele>
        <time>2020-09-17T12:56:13Z</time>
      </trkpt>
      <trkpt lat="45.41663" lon="3.40845">
        <ele>669.2</ele>
        <time>2020-09-17T12:56:14Z</time>
      </trkpt>
      <trkpt lat="45.41662" lon="3.40845">
        <ele>669.1</ele>
        <time>2020-09-17T12:56:15Z</time>
      </trkpt>
      <trkpt lat="45.41662" lon="3.40846">
        <ele>669</ele>
        <time>2020-09-17T12:56:16Z</time>
      </trkpt>
      <trkpt lat="45.41661" lon="3.40846">
        <ele>668.8</ele>
        <time>2020-09-17T12:56:17Z</time>
      </trkpt>
      <trkpt lat="45.41661" lon="3.40847">
        <ele>668.7</ele>
        <time>2020-09-17T12:56:18Z</time>
      </trkpt>
      <trkpt lat="45.41661" lon="3.40847">
        <ele>668.6</ele>
        <time>2020-09-17T12:56:19Z</time>
      </trkpt>
      <trkpt lat="45.4166" lon="3.40847">
        <ele>668.5</ele>
        <time>2020-09-17T12:56:20Z</time>
      </trkpt>
      <trkpt lat="45.4166" lon="3.40847">
        <ele>668.4</ele>
        <time>2020-09-17T12:56:21Z</time>
      </trkpt>
      <trkpt lat="45.41659" lon="3.40847">
        <ele>668.3</ele>
        <time>2020-09-17T12:56:22Z</time>
      </trkpt>
      <trkpt lat="45.41659" lon="3.40848">
        <ele>668.2</ele>
        <time>2020-09-17T12:56:23Z</time>
      </trkpt>
      <trkpt lat="45.41659" lon="3.40848">
        <ele>668</ele>
        <time>2020-09-17T12:56:24Z</time>
      </trkpt>
      <trkpt lat="45.41658" lon="3.40848">
        <ele>667.9</ele>
        <time>2020-09-17T12:56:25Z</time>
      </trkpt>
      <trkpt lat="45.41658" lon="3.40848">
        <ele>667.8</ele>
        <time>2020-09-17T12:56:26Z</time>
      </trkpt>
      <trkpt lat="45.41657" lon="3.40848">
        <ele>667.7</ele>
        <time>2020-09-17T12:56:27Z</time>
      </trkpt>
      <trkpt lat="45.41657" lon="3.40848">
        <ele>667.6</ele>
        <time>2020-09-17T12:56:28Z</time>
      </trkpt>
      <trkpt lat="45.41656" lon="3.40848">
        <ele>667.5</ele>
        <time>2020-09-17T12:56:29Z</time>
      </trkpt>
      <trkpt lat="45.41656" lon="3.40849">
        <ele>667.4</ele>
        <time>2020-09-17T12:56:30Z</time>
      </trkpt>
      <trkpt lat="45.41656" lon="3.40849">
        <ele>667.3</ele>
        <time>2020-09-17T12:56:31Z</time>
      </trkpt>
      <trkpt lat="45.41655" lon="3.4085">
        <ele>667.1</ele>
        <time>2020-09-17T12:56:32Z</time>
      </trkpt>
      <trkpt lat="45.41655" lon="3.4085">
        <ele>667</ele>
        <time>2020-09-17T12:56:33Z</time>
      </trkpt>
      <trkpt lat="45.41655" lon="3.4085">
        <ele>667</ele>
        <time>2020-09-17T12:56:34Z</time>
      </trkpt>
      <trkpt lat="45.41654" lon="3.4085">
        <ele>666.9</ele>
        <time>2020-09-17T12:56:35Z</time>
      </trkpt>
      <trkpt lat="45.41654" lon="3.40851">
        <ele>666.8</ele>
        <time>2020-09-17T12:56:36Z</time>
      </trkpt>
      <trkpt lat="45.41654" lon="3.40851">
        <ele>666.7</ele>
        <time>2020-09-17T12:56:37Z</time>
      </trkpt>
      <trkpt lat="45.41654" lon="3.40851">
        <ele>666.7</ele>
        <time>2020-09-17T12:56:38Z</time>
      </trkpt>
      <trkpt lat="45.41653" lon="3.40851">
        <ele>666.7</ele>
        <time>2020-09-17T12:56:39Z</time>
      </trkpt>
      <trkpt lat="45.41653" lon="3.40852">
        <ele>666.6</ele>
        <time>2020-09-17T12:56:40Z</time>
      </trkpt>
      <trkpt lat="45.41653" lon="3.40852">
        <ele>666.5</ele>
        <time>2020-09-17T12:56:41Z</time>
      </trkpt>
      <trkpt lat="45.41652" lon="3.40851">
        <ele>666.4</ele>
        <time>2020-09-17T12:56:42Z</time>
      </trkpt>
      <trkpt lat="45.41652" lon="3.40851">
        <ele>666.4</ele>
        <time>2020-09-17T12:56:43Z</time>
      </trkpt>
      <trkpt lat="45.41652" lon="3.40852">
        <ele>666.3</ele>
        <time>2020-09-17T12:56:44Z</time>
      </trkpt>
      <trkpt lat="45.41651" lon="3.40852">
        <ele>666.1</ele>
        <time>2020-09-17T12:56:45Z</time>
      </trkpt>
      <trkpt lat="45.41651" lon="3.40852">
        <ele>666</ele>
        <time>2020-09-17T12:56:46Z</time>
      </trkpt>
      <trkpt lat="45.4165" lon="3.40852">
        <ele>665.9</ele>
        <time>2020-09-17T12:56:47Z</time>
      </trkpt>
      <trkpt lat="45.4165" lon="3.40853">
        <ele>665.8</ele>
        <time>2020-09-17T12:56:48Z</time>
      </trkpt>
      <trkpt lat="45.4165" lon="3.40853">
        <ele>665.7</ele>
        <time>2020-09-17T12:56:49Z</time>
      </trkpt>
      <trkpt lat="45.41649" lon="3.40854">
        <ele>665.5</ele>
        <time>2020-09-17T12:56:50Z</time>
      </trkpt>
      <trkpt lat="45.41649" lon="3.40854">
        <ele>665.4</ele>
        <time>2020-09-17T12:56:51Z</time>
      </trkpt>
      <trkpt lat="45.41648" lon="3.40854">
        <ele>665.3</ele>
        <time>2020-09-17T12:56:52Z</time>
      </trkpt>
      <trkpt lat="45.41648" lon="3.40855">
        <ele>665.2</ele>
        <time>2020-09-17T12:56:53Z</time>
      </trkpt>
      <trkpt lat="45.41647" lon="3.40855">
        <ele>665.1</ele>
        <time>2020-09-17T12:56:54Z</time>
      </trkpt>
      <trkpt lat="45.41647" lon="3.40855">
        <ele>664.9</ele>
        <time>2020-09-17T12:56:55Z</time>
      </trkpt>
      <trkpt lat="45.41646" lon="3.40855">
        <ele>664.8</ele>
        <time>2020-09-17T12:56:56Z</time>
      </trkpt>
      <trkpt lat="45.41645" lon="3.40855">
        <ele>664.7</ele>
        <time>2020-09-17T12:56:57Z</time>
      </trkpt>
      <trkpt lat="45.41645" lon="3.40855">
        <ele>664.6</ele>
        <time>2020-09-17T12:56:58Z</time>
      </trkpt>
      <trkpt lat="45.41645" lon="3.40855">
        <ele>664.6</ele>
        <time>2020-09-17T12:56:59Z</time>
      </trkpt>
      <trkpt lat="45.41645" lon="3.40855">
        <ele>664.5</ele>
        <time>2020-09-17T12:57:00Z</time>
      </trkpt>
      <trkpt lat="45.41645" lon="3.40856">
        <ele>664.5</ele>
        <time>2020-09-17T12:57:01Z</time>
      </trkpt>
      <trkpt lat="45.41644" lon="3.40856">
        <ele>664.4</ele>
        <time>2020-09-17T12:57:02Z</time>
      </trkpt>
      <trkpt lat="45.41644" lon="3.40856">
        <ele>664.3</ele>
        <time>2020-09-17T12:57:03Z</time>
      </trkpt>
      <trkpt lat="45.41644" lon="3.40856">
        <ele>664.2</ele>
        <time>2020-09-17T12:57:04Z</time>
      </trkpt>
      <trkpt lat="45.41644" lon="3.40857">
        <ele>664.2</ele>
        <time>2020-09-17T12:57:05Z</time>
      </trkpt>
      <trkpt lat="45.41643" lon="3.40857">
        <ele>664.1</ele>
        <time>2020-09-17T12:57:06Z</time>
      </trkpt>
      <trkpt lat="45.41643" lon="3.40857">
        <ele>664.1</ele>
        <time>2020-09-17T12:57:07Z</time>
      </trkpt>
      <trkpt lat="45.41643" lon="3.40857">
        <ele>664</ele>
        <time>2020-09-17T12:57:08Z</time>
      </trkpt>
      <trkpt lat="45.41643" lon="3.40857">
        <ele>664</ele>
        <time>2020-09-17T12:57:09Z</time>
      </trkpt>
      <trkpt lat="45.41643" lon="3.40856">
        <ele>664</ele>
        <time>2020-09-17T12:57:10Z</time>
      </trkpt>
      <trkpt lat="45.41643" lon="3.40856">
        <ele>664</ele>
        <time>2020-09-17T12:57:11Z</time>
      </trkpt>
      <trkpt lat="45.41642" lon="3.40856">
        <ele>663.9</ele>
        <time>2020-09-17T12:57:12Z</time>
      </trkpt>
      <trkpt lat="45.41642" lon="3.40856">
        <ele>663.8</ele>
        <time>2020-09-17T12:57:13Z</time>
      </trkpt>
      <trkpt lat="45.41641" lon="3.40857">
        <ele>663.6</ele>
        <time>2020-09-17T12:57:14Z</time>
      </trkpt>
      <trkpt lat="45.41641" lon="3.40857">
        <ele>663.5</ele>
        <time>2020-09-17T12:57:15Z</time>
      </trkpt>
      <trkpt lat="45.4164" lon="3.40857">
        <ele>663.4</ele>
        <time>2020-09-17T12:57:16Z</time>
      </trkpt>
      <trkpt lat="45.4164" lon="3.40857">
        <ele>663.3</ele>
        <time>2020-09-17T12:57:17Z</time>
      </trkpt>
      <trkpt lat="45.41639" lon="3.40858">
        <ele>663.2</ele>
        <time>2020-09-17T12:57:18Z</time>
      </trkpt>
      <trkpt lat="45.41639" lon="3.40858">
        <ele>663.1</ele>
        <time>2020-09-17T12:57:19Z</time>
      </trkpt>
      <trkpt lat="45.41639" lon="3.40858">
        <ele>663</ele>
        <time>2020-09-17T12:57:20Z</time>
      </trkpt>
      <trkpt lat="45.41638" lon="3.40858">
        <ele>663</ele>
        <time>2020-09-17T12:57:21Z</time>
      </trkpt>
      <trkpt lat="45.41638" lon="3.40858">
        <ele>662.9</ele>
        <time>2020-09-17T12:57:22Z</time>
      </trkpt>
      <trkpt lat="45.41637" lon="3.40859">
        <ele>662.8</ele>
        <time>2020-09-17T12:57:23Z</time>
      </trkpt>
      <trkpt lat="45.41637" lon="3.40859">
        <ele>662.7</ele>
        <time>2020-09-17T12:57:24Z</time>
      </trkpt>
      <trkpt lat="45.41636" lon="3.4086">
        <ele>662.6</ele>
        <time>2020-09-17T12:57:25Z</time>
      </trkpt>
      <trkpt lat="45.41636" lon="3.4086">
        <ele>662.4</ele>
        <time>2020-09-17T12:57:26Z</time>
      </trkpt>
      <trkpt lat="45.41635" lon="3.40861">
        <ele>662.4</ele>
        <time>2020-09-17T12:57:27Z</time>
      </trkpt>
      <trkpt lat="45.41635" lon="3.40861">
        <ele>662.3</ele>
        <time>2020-09-17T12:57:28Z</time>
      </trkpt>
      <trkpt lat="45.41634" lon="3.40861">
        <ele>662.2</ele>
        <time>2020-09-17T12:57:29Z</time>
      </trkpt>
      <trkpt lat="45.41634" lon="3.40861">
        <ele>662.1</ele>
        <time>2020-09-17T12:57:30Z</time>
      </trkpt>
      <trkpt lat="45.41633" lon="3.40861">
        <ele>662</ele>
        <time>2020-09-17T12:57:31Z</time>
      </trkpt>
      <trkpt lat="45.41633" lon="3.40861">
        <ele>662</ele>
        <time>2020-09-17T12:57:32Z</time>
      </trkpt>
      <trkpt lat="45.41633" lon="3.40861">
        <ele>661.9</ele>
        <time>2020-09-17T12:57:33Z</time>
      </trkpt>
      <trkpt lat="45.41632" lon="3.40861">
        <ele>661.8</ele>
        <time>2020-09-17T12:57:34Z</time>
      </trkpt>
      <trkpt lat="45.41632" lon="3.40861">
        <ele>661.7</ele>
        <time>2020-09-17T12:57:35Z</time>
      </trkpt>
      <trkpt lat="45.41632" lon="3.40861">
        <ele>661.7</ele>
        <time>2020-09-17T12:57:36Z</time>
      </trkpt>
      <trkpt lat="45.41631" lon="3.40861">
        <ele>661.6</ele>
        <time>2020-09-17T12:57:37Z</time>
      </trkpt>
      <trkpt lat="45.4163" lon="3.40861">
        <ele>661.5</ele>
        <time>2020-09-17T12:57:38Z</time>
      </trkpt>
      <trkpt lat="45.4163" lon="3.40861">
        <ele>661.4</ele>
        <time>2020-09-17T12:57:39Z</time>
      </trkpt>
      <trkpt lat="45.41629" lon="3.40862">
        <ele>661.2</ele>
        <time>2020-09-17T12:57:40Z</time>
      </trkpt>
      <trkpt lat="45.41629" lon="3.40862">
        <ele>661</ele>
        <time>2020-09-17T12:57:41Z</time>
      </trkpt>
      <trkpt lat="45.41628" lon="3.40863">
        <ele>660.9</ele>
        <time>2020-09-17T12:57:42Z</time>
      </trkpt>
      <trkpt lat="45.41628" lon="3.40863">
        <ele>660.7</ele>
        <time>2020-09-17T12:57:43Z</time>
      </trkpt>
      <trkpt lat="45.41627" lon="3.40864">
        <ele>660.6</ele>
        <time>2020-09-17T12:57:44Z</time>
      </trkpt>
      <trkpt lat="45.41626" lon="3.40863">
        <ele>660.5</ele>
        <time>2020-09-17T12:57:45Z</time>
      </trkpt>
      <trkpt lat="45.41626" lon="3.40863">
        <ele>660.4</ele>
        <time>2020-09-17T12:57:46Z</time>
      </trkpt>
      <trkpt lat="45.41625" lon="3.40862">
        <ele>660.4</ele>
        <time>2020-09-17T12:57:47Z</time>
      </trkpt>
      <trkpt lat="45.41625" lon="3.40862">
        <ele>660.4</ele>
        <time>2020-09-17T12:57:48Z</time>
      </trkpt>
      <trkpt lat="45.41624" lon="3.40861">
        <ele>660.3</ele>
        <time>2020-09-17T12:57:49Z</time>
      </trkpt>
      <trkpt lat="45.41624" lon="3.4086">
        <ele>660.3</ele>
        <time>2020-09-17T12:57:50Z</time>
      </trkpt>
      <trkpt lat="45.41623" lon="3.40859">
        <ele>660.2</ele>
        <time>2020-09-17T12:57:51Z</time>
      </trkpt>
      <trkpt lat="45.41623" lon="3.40858">
        <ele>660.2</ele>
        <time>2020-09-17T12:57:52Z</time>
      </trkpt>
      <trkpt lat="45.41622" lon="3.40857">
        <ele>660.1</ele>
        <time>2020-09-17T12:57:53Z</time>
      </trkpt>
      <trkpt lat="45.41622" lon="3.40856">
        <ele>660.1</ele>
        <time>2020-09-17T12:57:54Z</time>
      </trkpt>
      <trkpt lat="45.41622" lon="3.40855">
        <ele>660.2</ele>
        <time>2020-09-17T12:57:55Z</time>
      </trkpt>
      <trkpt lat="45.41622" lon="3.40853">
        <ele>660.2</ele>
        <time>2020-09-17T12:57:56Z</time>
      </trkpt>
      <trkpt lat="45.41622" lon="3.40852">
        <ele>660.3</ele>
        <time>2020-09-17T12:57:57Z</time>
      </trkpt>
      <trkpt lat="45.41622" lon="3.40851">
        <ele>660.3</ele>
        <time>2020-09-17T12:57:58Z</time>
      </trkpt>
      <trkpt lat="45.41622" lon="3.40849">
        <ele>660.3</ele>
        <time>2020-09-17T12:57:59Z</time>
      </trkpt>
      <trkpt lat="45.41621" lon="3.40848">
        <ele>660.3</ele>
        <time>2020-09-17T12:58:00Z</time>
      </trkpt>
      <trkpt lat="45.41621" lon="3.40847">
        <ele>660.3</ele>
        <time>2020-09-17T12:58:01Z</time>
      </trkpt>
      <trkpt lat="45.41621" lon="3.40845">
        <ele>660.4</ele>
        <time>2020-09-17T12:58:02Z</time>
      </trkpt>
      <trkpt lat="45.41621" lon="3.40844">
        <ele>660.4</ele>
        <time>2020-09-17T12:58:03Z</time>
      </trkpt>
      <trkpt lat="45.41621" lon="3.40842">
        <ele>660.4</ele>
        <time>2020-09-17T12:58:04Z</time>
      </trkpt>
      <trkpt lat="45.41621" lon="3.40841">
        <ele>660.4</ele>
        <time>2020-09-17T12:58:05Z</time>
      </trkpt>
      <trkpt lat="45.4162" lon="3.40839">
        <ele>660.5</ele>
        <time>2020-09-17T12:58:06Z</time>
      </trkpt>
      <trkpt lat="45.4162" lon="3.40838">
        <ele>660.5</ele>
        <time>2020-09-17T12:58:07Z</time>
      </trkpt>
      <trkpt lat="45.4162" lon="3.40836">
        <ele>660.5</ele>
        <time>2020-09-17T12:58:08Z</time>
      </trkpt>
      <trkpt lat="45.4162" lon="3.40835">
        <ele>660.5</ele>
        <time>2020-09-17T12:58:09Z</time>
      </trkpt>
      <trkpt lat="45.4162" lon="3.40834">
        <ele>660.5</ele>
        <time>2020-09-17T12:58:10Z</time>
      </trkpt>
      <trkpt lat="45.41619" lon="3.40832">
        <ele>660.5</ele>
        <time>2020-09-17T12:58:11Z</time>
      </trkpt>
      <trkpt lat="45.41619" lon="3.40831">
        <ele>660.4</ele>
        <time>2020-09-17T12:58:12Z</time>
      </trkpt>
      <trkpt lat="45.41619" lon="3.4083">
        <ele>660.4</ele>
        <time>2020-09-17T12:58:13Z</time>
      </trkpt>
      <trkpt lat="45.41619" lon="3.40828">
        <ele>660.3</ele>
        <time>2020-09-17T12:58:14Z</time>
      </trkpt>
      <trkpt lat="45.41618" lon="3.40827">
        <ele>660.3</ele>
        <time>2020-09-17T12:58:15Z</time>
      </trkpt>
      <trkpt lat="45.41618" lon="3.40825">
        <ele>660.2</ele>
        <time>2020-09-17T12:58:16Z</time>
      </trkpt>
      <trkpt lat="45.41618" lon="3.40824">
        <ele>660.2</ele>
        <time>2020-09-17T12:58:17Z</time>
      </trkpt>
      <trkpt lat="45.41618" lon="3.40823">
        <ele>660.2</ele>
        <time>2020-09-17T12:58:18Z</time>
      </trkpt>
      <trkpt lat="45.41617" lon="3.40821">
        <ele>660.1</ele>
        <time>2020-09-17T12:58:19Z</time>
      </trkpt>
      <trkpt lat="45.41617" lon="3.4082">
        <ele>660.1</ele>
        <time>2020-09-17T12:58:20Z</time>
      </trkpt>
      <trkpt lat="45.41617" lon="3.40818">
        <ele>660</ele>
        <time>2020-09-17T12:58:21Z</time>
      </trkpt>
      <trkpt lat="45.41617" lon="3.40817">
        <ele>660</ele>
        <time>2020-09-17T12:58:22Z</time>
      </trkpt>
      <trkpt lat="45.41616" lon="3.40816">
        <ele>659.9</ele>
        <time>2020-09-17T12:58:23Z</time>
      </trkpt>
      <trkpt lat="45.41616" lon="3.40814">
        <ele>659.8</ele>
        <time>2020-09-17T12:58:24Z</time>
      </trkpt>
      <trkpt lat="45.41616" lon="3.40813">
        <ele>659.8</ele>
        <time>2020-09-17T12:58:25Z</time>
      </trkpt>
      <trkpt lat="45.41615" lon="3.40811">
        <ele>659.7</ele>
        <time>2020-09-17T12:58:26Z</time>
      </trkpt>
      <trkpt lat="45.41615" lon="3.4081">
        <ele>659.6</ele>
        <time>2020-09-17T12:58:27Z</time>
      </trkpt>
      <trkpt lat="45.41614" lon="3.40809">
        <ele>659.5</ele>
        <time>2020-09-17T12:58:28Z</time>
      </trkpt>
      <trkpt lat="45.41613" lon="3.40807">
        <ele>659.4</ele>
        <time>2020-09-17T12:58:29Z</time>
      </trkpt>
      <trkpt lat="45.41613" lon="3.40806">
        <ele>659.3</ele>
        <time>2020-09-17T12:58:30Z</time>
      </trkpt>
      <trkpt lat="45.41612" lon="3.40805">
        <ele>659.2</ele>
        <time>2020-09-17T12:58:31Z</time>
      </trkpt>
      <trkpt lat="45.41612" lon="3.40803">
        <ele>659.1</ele>
        <time>2020-09-17T12:58:32Z</time>
      </trkpt>
      <trkpt lat="45.41611" lon="3.40802">
        <ele>659</ele>
        <time>2020-09-17T12:58:33Z</time>
      </trkpt>
      <trkpt lat="45.4161" lon="3.40801">
        <ele>658.9</ele>
        <time>2020-09-17T12:58:34Z</time>
      </trkpt>
      <trkpt lat="45.41609" lon="3.408">
        <ele>658.7</ele>
        <time>2020-09-17T12:58:35Z</time>
      </trkpt>
      <trkpt lat="45.41609" lon="3.40799">
        <ele>658.6</ele>
        <time>2020-09-17T12:58:36Z</time>
      </trkpt>
      <trkpt lat="45.41608" lon="3.40798">
        <ele>658.4</ele>
        <time>2020-09-17T12:58:37Z</time>
      </trkpt>
      <trkpt lat="45.41607" lon="3.40798">
        <ele>658.3</ele>
        <time>2020-09-17T12:58:38Z</time>
      </trkpt>
      <trkpt lat="45.41606" lon="3.40797">
        <ele>658.2</ele>
        <time>2020-09-17T12:58:39Z</time>
      </trkpt>
      <trkpt lat="45.41605" lon="3.40797">
        <ele>658</ele>
        <time>2020-09-17T12:58:40Z</time>
      </trkpt>
      <trkpt lat="45.41604" lon="3.40796">
        <ele>657.9</ele>
        <time>2020-09-17T12:58:41Z</time>
      </trkpt>
      <trkpt lat="45.41603" lon="3.40796">
        <ele>657.7</ele>
        <time>2020-09-17T12:58:42Z</time>
      </trkpt>
      <trkpt lat="45.41602" lon="3.40796">
        <ele>657.6</ele>
        <time>2020-09-17T12:58:43Z</time>
      </trkpt>
      <trkpt lat="45.41601" lon="3.40796">
        <ele>657.4</ele>
        <time>2020-09-17T12:58:44Z</time>
      </trkpt>
      <trkpt lat="45.416" lon="3.40797">
        <ele>657.3</ele>
        <time>2020-09-17T12:58:45Z</time>
      </trkpt>
      <trkpt lat="45.41599" lon="3.40797">
        <ele>657.1</ele>
        <time>2020-09-17T12:58:46Z</time>
      </trkpt>
      <trkpt lat="45.41598" lon="3.40797">
        <ele>657</ele>
        <time>2020-09-17T12:58:47Z</time>
      </trkpt>
      <trkpt lat="45.41597" lon="3.40797">
        <ele>656.8</ele>
        <time>2020-09-17T12:58:48Z</time>
      </trkpt>
      <trkpt lat="45.41596" lon="3.40798">
        <ele>656.7</ele>
        <time>2020-09-17T12:58:49Z</time>
      </trkpt>
      <trkpt lat="45.41595" lon="3.40798">
        <ele>656.5</ele>
        <time>2020-09-17T12:58:50Z</time>
      </trkpt>
      <trkpt lat="45.41594" lon="3.40798">
        <ele>656.4</ele>
        <time>2020-09-17T12:58:51Z</time>
      </trkpt>
      <trkpt lat="45.41593" lon="3.40798">
        <ele>656.3</ele>
        <time>2020-09-17T12:58:52Z</time>
      </trkpt>
      <trkpt lat="45.41592" lon="3.40798">
        <ele>656.1</ele>
        <time>2020-09-17T12:58:53Z</time>
      </trkpt>
      <trkpt lat="45.41592" lon="3.40798">
        <ele>656</ele>
        <time>2020-09-17T12:58:54Z</time>
      </trkpt>
      <trkpt lat="45.41591" lon="3.40798">
        <ele>655.8</ele>
        <time>2020-09-17T12:58:55Z</time>
      </trkpt>
      <trkpt lat="45.4159" lon="3.40798">
        <ele>655.7</ele>
        <time>2020-09-17T12:58:56Z</time>
      </trkpt>
      <trkpt lat="45.41588" lon="3.40798">
        <ele>655.5</ele>
        <time>2020-09-17T12:58:57Z</time>
      </trkpt>
      <trkpt lat="45.41588" lon="3.40798">
        <ele>655.4</ele>
        <time>2020-09-17T12:58:58Z</time>
      </trkpt>
      <trkpt lat="45.41587" lon="3.40798">
        <ele>655.2</ele>
        <time>2020-09-17T12:58:59Z</time>
      </trkpt>
      <trkpt lat="45.41586" lon="3.40798">
        <ele>655.1</ele>
        <time>2020-09-17T12:59:00Z</time>
      </trkpt>
      <trkpt lat="45.41585" lon="3.40798">
        <ele>654.9</ele>
        <time>2020-09-17T12:59:01Z</time>
      </trkpt>
      <trkpt lat="45.41584" lon="3.40798">
        <ele>654.8</ele>
        <time>2020-09-17T12:59:02Z</time>
      </trkpt>
      <trkpt lat="45.41583" lon="3.40798">
        <ele>654.6</ele>
        <time>2020-09-17T12:59:03Z</time>
      </trkpt>
      <trkpt lat="45.41582" lon="3.40798">
        <ele>654.3</ele>
        <time>2020-09-17T12:59:04Z</time>
      </trkpt>
      <trkpt lat="45.4158" lon="3.40798">
        <ele>654.1</ele>
        <time>2020-09-17T12:59:05Z</time>
      </trkpt>
      <trkpt lat="45.41579" lon="3.40798">
        <ele>653.9</ele>
        <time>2020-09-17T12:59:06Z</time>
      </trkpt>
      <trkpt lat="45.41578" lon="3.40798">
        <ele>653.7</ele>
        <time>2020-09-17T12:59:07Z</time>
      </trkpt>
      <trkpt lat="45.41577" lon="3.40798">
        <ele>653.5</ele>
        <time>2020-09-17T12:59:08Z</time>
      </trkpt>
      <trkpt lat="45.41576" lon="3.40797">
        <ele>653.3</ele>
        <time>2020-09-17T12:59:09Z</time>
      </trkpt>
      <trkpt lat="45.41575" lon="3.40797">
        <ele>653.1</ele>
        <time>2020-09-17T12:59:10Z</time>
      </trkpt>
      <trkpt lat="45.41574" lon="3.40797">
        <ele>652.8</ele>
        <time>2020-09-17T12:59:11Z</time>
      </trkpt>
      <trkpt lat="45.41573" lon="3.40797">
        <ele>652.6</ele>
        <time>2020-09-17T12:59:12Z</time>
      </trkpt>
      <trkpt lat="45.41573" lon="3.40796">
        <ele>652.5</ele>
        <time>2020-09-17T12:59:13Z</time>
      </trkpt>
      <trkpt lat="45.41572" lon="3.40796">
        <ele>652.2</ele>
        <time>2020-09-17T12:59:14Z</time>
      </trkpt>
      <trkpt lat="45.4157" lon="3.40796">
        <ele>652</ele>
        <time>2020-09-17T12:59:15Z</time>
      </trkpt>
      <trkpt lat="45.41569" lon="3.40796">
        <ele>651.8</ele>
        <time>2020-09-17T12:59:16Z</time>
      </trkpt>
      <trkpt lat="45.41568" lon="3.40796">
        <ele>651.6</ele>
        <time>2020-09-17T12:59:17Z</time>
      </trkpt>
      <trkpt lat="45.41567" lon="3.40796">
        <ele>651.4</ele>
        <time>2020-09-17T12:59:18Z</time>
      </trkpt>
      <trkpt lat="45.41566" lon="3.40796">
        <ele>651.2</ele>
        <time>2020-09-17T12:59:19Z</time>
      </trkpt>
      <trkpt lat="45.41565" lon="3.40796">
        <ele>651</ele>
        <time>2020-09-17T12:59:20Z</time>
      </trkpt>
      <trkpt lat="45.41564" lon="3.40796">
        <ele>650.8</ele>
        <time>2020-09-17T12:59:21Z</time>
      </trkpt>
      <trkpt lat="45.41563" lon="3.40796">
        <ele>650.6</ele>
        <time>2020-09-17T12:59:22Z</time>
      </trkpt>
      <trkpt lat="45.41562" lon="3.40796">
        <ele>650.4</ele>
        <time>2020-09-17T12:59:23Z</time>
      </trkpt>
      <trkpt lat="45.41561" lon="3.40796">
        <ele>650.2</ele>
        <time>2020-09-17T12:59:24Z</time>
      </trkpt>
      <trkpt lat="45.41561" lon="3.40796">
        <ele>650</ele>
        <time>2020-09-17T12:59:25Z</time>
      </trkpt>
      <trkpt lat="45.4156" lon="3.40796">
        <ele>649.8</ele>
        <time>2020-09-17T12:59:26Z</time>
      </trkpt>
      <trkpt lat="45.41559" lon="3.40796">
        <ele>649.6</ele>
        <time>2020-09-17T12:59:27Z</time>
      </trkpt>
      <trkpt lat="45.41557" lon="3.40796">
        <ele>649.4</ele>
        <time>2020-09-17T12:59:28Z</time>
      </trkpt>
      <trkpt lat="45.41556" lon="3.40796">
        <ele>649.2</ele>
        <time>2020-09-17T12:59:29Z</time>
      </trkpt>
      <trkpt lat="45.41555" lon="3.40796">
        <ele>649</ele>
        <time>2020-09-17T12:59:30Z</time>
      </trkpt>
      <trkpt lat="45.41554" lon="3.40796">
        <ele>648.7</ele>
        <time>2020-09-17T12:59:31Z</time>
      </trkpt>
      <trkpt lat="45.41553" lon="3.40796">
        <ele>648.5</ele>
        <time>2020-09-17T12:59:32Z</time>
      </trkpt>
      <trkpt lat="45.41552" lon="3.40796">
        <ele>648.3</ele>
        <time>2020-09-17T12:59:33Z</time>
      </trkpt>
      <trkpt lat="45.41551" lon="3.40796">
        <ele>648.1</ele>
        <time>2020-09-17T12:59:34Z</time>
      </trkpt>
      <trkpt lat="45.4155" lon="3.40796">
        <ele>647.9</ele>
        <time>2020-09-17T12:59:35Z</time>
      </trkpt>
      <trkpt lat="45.41549" lon="3.40796">
        <ele>647.7</ele>
        <time>2020-09-17T12:59:36Z</time>
      </trkpt>
      <trkpt lat="45.41548" lon="3.40796">
        <ele>647.5</ele>
        <time>2020-09-17T12:59:37Z</time>
      </trkpt>
      <trkpt lat="45.41547" lon="3.40796">
        <ele>647.3</ele>
        <time>2020-09-17T12:59:38Z</time>
      </trkpt>
      <trkpt lat="45.41546" lon="3.40796">
        <ele>647.1</ele>
        <time>2020-09-17T12:59:39Z</time>
      </trkpt>
      <trkpt lat="45.41545" lon="3.40797">
        <ele>646.8</ele>
        <time>2020-09-17T12:59:40Z</time>
      </trkpt>
      <trkpt lat="45.41544" lon="3.40797">
        <ele>646.6</ele>
        <time>2020-09-17T12:59:41Z</time>
      </trkpt>
      <trkpt lat="45.41543" lon="3.40797">
        <ele>646.4</ele>
        <time>2020-09-17T12:59:42Z</time>
      </trkpt>
      <trkpt lat="45.41542" lon="3.40797">
        <ele>646.3</ele>
        <time>2020-09-17T12:59:43Z</time>
      </trkpt>
      <trkpt lat="45.41541" lon="3.40797">
        <ele>646.1</ele>
        <time>2020-09-17T12:59:44Z</time>
      </trkpt>
      <trkpt lat="45.41541" lon="3.40796">
        <ele>646</ele>
        <time>2020-09-17T12:59:45Z</time>
      </trkpt>
      <trkpt lat="45.4154" lon="3.40796">
        <ele>645.8</ele>
        <time>2020-09-17T12:59:46Z</time>
      </trkpt>
      <trkpt lat="45.41539" lon="3.40796">
        <ele>645.7</ele>
        <time>2020-09-17T12:59:47Z</time>
      </trkpt>
      <trkpt lat="45.41539" lon="3.40796">
        <ele>645.5</ele>
        <time>2020-09-17T12:59:48Z</time>
      </trkpt>
      <trkpt lat="45.41538" lon="3.40795">
        <ele>645.4</ele>
        <time>2020-09-17T12:59:49Z</time>
      </trkpt>
      <trkpt lat="45.41537" lon="3.40795">
        <ele>645.3</ele>
        <time>2020-09-17T12:59:50Z</time>
      </trkpt>
      <trkpt lat="45.41536" lon="3.40794">
        <ele>645.1</ele>
        <time>2020-09-17T12:59:51Z</time>
      </trkpt>
      <trkpt lat="45.41535" lon="3.40794">
        <ele>644.9</ele>
        <time>2020-09-17T12:59:52Z</time>
      </trkpt>
      <trkpt lat="45.41535" lon="3.40793">
        <ele>644.8</ele>
        <time>2020-09-17T12:59:53Z</time>
      </trkpt>
      <trkpt lat="45.41534" lon="3.40793">
        <ele>644.6</ele>
        <time>2020-09-17T12:59:54Z</time>
      </trkpt>
      <trkpt lat="45.41533" lon="3.40793">
        <ele>644.4</ele>
        <time>2020-09-17T12:59:55Z</time>
      </trkpt>
      <trkpt lat="45.41532" lon="3.40793">
        <ele>644.2</ele>
        <time>2020-09-17T12:59:56Z</time>
      </trkpt>
      <trkpt lat="45.41531" lon="3.40793">
        <ele>644</ele>
        <time>2020-09-17T12:59:57Z</time>
      </trkpt>
      <trkpt lat="45.4153" lon="3.40793">
        <ele>643.8</ele>
        <time>2020-09-17T12:59:58Z</time>
      </trkpt>
      <trkpt lat="45.41529" lon="3.40792">
        <ele>643.7</ele>
        <time>2020-09-17T12:59:59Z</time>
      </trkpt>
      <trkpt lat="45.41528" lon="3.40792">
        <ele>643.5</ele>
        <time>2020-09-17T13:00:00Z</time>
      </trkpt>
      <trkpt lat="45.41527" lon="3.40793">
        <ele>643.3</ele>
        <time>2020-09-17T13:00:01Z</time>
      </trkpt>
      <trkpt lat="45.41526" lon="3.40793">
        <ele>643</ele>
        <time>2020-09-17T13:00:02Z</time>
      </trkpt>
      <trkpt lat="45.41525" lon="3.40793">
        <ele>642.8</ele>
        <time>2020-09-17T13:00:03Z</time>
      </trkpt>
      <trkpt lat="45.41524" lon="3.40793">
        <ele>642.6</ele>
        <time>2020-09-17T13:00:04Z</time>
      </trkpt>
      <trkpt lat="45.41523" lon="3.40793">
        <ele>642.4</ele>
        <time>2020-09-17T13:00:05Z</time>
      </trkpt>
      <trkpt lat="45.41522" lon="3.40793">
        <ele>642.2</ele>
        <time>2020-09-17T13:00:06Z</time>
      </trkpt>
      <trkpt lat="45.41521" lon="3.40793">
        <ele>642</ele>
        <time>2020-09-17T13:00:07Z</time>
      </trkpt>
      <trkpt lat="45.4152" lon="3.40793">
        <ele>641.8</ele>
        <time>2020-09-17T13:00:08Z</time>
      </trkpt>
      <trkpt lat="45.41519" lon="3.40794">
        <ele>641.6</ele>
        <time>2020-09-17T13:00:09Z</time>
      </trkpt>
      <trkpt lat="45.41518" lon="3.40794">
        <ele>641.4</ele>
        <time>2020-09-17T13:00:10Z</time>
      </trkpt>
      <trkpt lat="45.41517" lon="3.40794">
        <ele>641.2</ele>
        <time>2020-09-17T13:00:11Z</time>
      </trkpt>
      <trkpt lat="45.41517" lon="3.40794">
        <ele>641</ele>
        <time>2020-09-17T13:00:12Z</time>
      </trkpt>
      <trkpt lat="45.41516" lon="3.40795">
        <ele>640.7</ele>
        <time>2020-09-17T13:00:13Z</time>
      </trkpt>
      <trkpt lat="45.41515" lon="3.40795">
        <ele>640.6</ele>
        <time>2020-09-17T13:00:14Z</time>
      </trkpt>
      <trkpt lat="45.41514" lon="3.40795">
        <ele>640.3</ele>
        <time>2020-09-17T13:00:15Z</time>
      </trkpt>
      <trkpt lat="45.41513" lon="3.40795">
        <ele>640.2</ele>
        <time>2020-09-17T13:00:16Z</time>
      </trkpt>
      <trkpt lat="45.41511" lon="3.40795">
        <ele>639.8</ele>
        <time>2020-09-17T13:00:17Z</time>
      </trkpt>
      <trkpt lat="45.4151" lon="3.40796">
        <ele>639.5</ele>
        <time>2020-09-17T13:00:18Z</time>
      </trkpt>
      <trkpt lat="45.41509" lon="3.40796">
        <ele>639.2</ele>
        <time>2020-09-17T13:00:19Z</time>
      </trkpt>
      <trkpt lat="45.41507" lon="3.40796">
        <ele>638.8</ele>
        <time>2020-09-17T13:00:20Z</time>
      </trkpt>
      <trkpt lat="45.41505" lon="3.40796">
        <ele>638.5</ele>
        <time>2020-09-17T13:00:21Z</time>
      </trkpt>
      <trkpt lat="45.41504" lon="3.40796">
        <ele>638.3</ele>
        <time>2020-09-17T13:00:22Z</time>
      </trkpt>
      <trkpt lat="45.41504" lon="3.40797">
        <ele>638.1</ele>
        <time>2020-09-17T13:00:23Z</time>
      </trkpt>
      <trkpt lat="45.41503" lon="3.40796">
        <ele>638</ele>
        <time>2020-09-17T13:00:24Z</time>
      </trkpt>
      <trkpt lat="45.41503" lon="3.40796">
        <ele>637.9</ele>
        <time>2020-09-17T13:00:25Z</time>
      </trkpt>
      <trkpt lat="45.41503" lon="3.40796">
        <ele>637.9</ele>
        <time>2020-09-17T13:00:26Z</time>
      </trkpt>
      <trkpt lat="45.41502" lon="3.40796">
        <ele>637.8</ele>
        <time>2020-09-17T13:00:27Z</time>
      </trkpt>
      <trkpt lat="45.41502" lon="3.40796">
        <ele>637.7</ele>
        <time>2020-09-17T13:00:28Z</time>
      </trkpt>
      <trkpt lat="45.41501" lon="3.40796">
        <ele>637.5</ele>
        <time>2020-09-17T13:00:29Z</time>
      </trkpt>
      <trkpt lat="45.415" lon="3.40795">
        <ele>637.4</ele>
        <time>2020-09-17T13:00:30Z</time>
      </trkpt>
      <trkpt lat="45.415" lon="3.40795">
        <ele>637.3</ele>
        <time>2020-09-17T13:00:31Z</time>
      </trkpt>
      <trkpt lat="45.41499" lon="3.40795">
        <ele>637.2</ele>
        <time>2020-09-17T13:00:32Z</time>
      </trkpt>
      <trkpt lat="45.41498" lon="3.40795">
        <ele>637.1</ele>
        <time>2020-09-17T13:00:33Z</time>
      </trkpt>
      <trkpt lat="45.41498" lon="3.40795">
        <ele>637</ele>
        <time>2020-09-17T13:00:34Z</time>
      </trkpt>
      <trkpt lat="45.41497" lon="3.40795">
        <ele>636.8</ele>
        <time>2020-09-17T13:00:35Z</time>
      </trkpt>
      <trkpt lat="45.41496" lon="3.40796">
        <ele>636.7</ele>
        <time>2020-09-17T13:00:36Z</time>
      </trkpt>
      <trkpt lat="45.41495" lon="3.40796">
        <ele>636.6</ele>
        <time>2020-09-17T13:00:37Z</time>
      </trkpt>
      <trkpt lat="45.41495" lon="3.40796">
        <ele>636.5</ele>
        <time>2020-09-17T13:00:38Z</time>
      </trkpt>
      <trkpt lat="45.41494" lon="3.40796">
        <ele>636.4</ele>
        <time>2020-09-17T13:00:39Z</time>
      </trkpt>
      <trkpt lat="45.41494" lon="3.40796">
        <ele>636.3</ele>
        <time>2020-09-17T13:00:40Z</time>
      </trkpt>
      <trkpt lat="45.41493" lon="3.40797">
        <ele>636.2</ele>
        <time>2020-09-17T13:00:41Z</time>
      </trkpt>
      <trkpt lat="45.41492" lon="3.40797">
        <ele>636.1</ele>
        <time>2020-09-17T13:00:42Z</time>
      </trkpt>
      <trkpt lat="45.41491" lon="3.40797">
        <ele>636</ele>
        <time>2020-09-17T13:00:43Z</time>
      </trkpt>
      <trkpt lat="45.41491" lon="3.40798">
        <ele>635.8</ele>
        <time>2020-09-17T13:00:44Z</time>
      </trkpt>
      <trkpt lat="45.4149" lon="3.40798">
        <ele>635.7</ele>
        <time>2020-09-17T13:00:45Z</time>
      </trkpt>
      <trkpt lat="45.41489" lon="3.40799">
        <ele>635.6</ele>
        <time>2020-09-17T13:00:46Z</time>
      </trkpt>
      <trkpt lat="45.41488" lon="3.40799">
        <ele>635.4</ele>
        <time>2020-09-17T13:00:47Z</time>
      </trkpt>
      <trkpt lat="45.41487" lon="3.408">
        <ele>635.3</ele>
        <time>2020-09-17T13:00:48Z</time>
      </trkpt>
      <trkpt lat="45.41486" lon="3.408">
        <ele>635.1</ele>
        <time>2020-09-17T13:00:49Z</time>
      </trkpt>
      <trkpt lat="45.41485" lon="3.40801">
        <ele>634.9</ele>
        <time>2020-09-17T13:00:50Z</time>
      </trkpt>
      <trkpt lat="45.41484" lon="3.40801">
        <ele>634.8</ele>
        <time>2020-09-17T13:00:51Z</time>
      </trkpt>
      <trkpt lat="45.41483" lon="3.40802">
        <ele>634.7</ele>
        <time>2020-09-17T13:00:52Z</time>
      </trkpt>
      <trkpt lat="45.41482" lon="3.40802">
        <ele>634.5</ele>
        <time>2020-09-17T13:00:53Z</time>
      </trkpt>
      <trkpt lat="45.41481" lon="3.40803">
        <ele>634.3</ele>
        <time>2020-09-17T13:00:54Z</time>
      </trkpt>
      <trkpt lat="45.4148" lon="3.40804">
        <ele>634.2</ele>
        <time>2020-09-17T13:00:55Z</time>
      </trkpt>
      <trkpt lat="45.41479" lon="3.40804">
        <ele>634</ele>
        <time>2020-09-17T13:00:56Z</time>
      </trkpt>
      <trkpt lat="45.41478" lon="3.40804">
        <ele>633.8</ele>
        <time>2020-09-17T13:00:57Z</time>
      </trkpt>
      <trkpt lat="45.41477" lon="3.40805">
        <ele>633.7</ele>
        <time>2020-09-17T13:00:58Z</time>
      </trkpt>
      <trkpt lat="45.41476" lon="3.40805">
        <ele>633.5</ele>
        <time>2020-09-17T13:00:59Z</time>
      </trkpt>
      <trkpt lat="45.41475" lon="3.40805">
        <ele>633.4</ele>
        <time>2020-09-17T13:01:00Z</time>
      </trkpt>
      <trkpt lat="45.41474" lon="3.40805">
        <ele>633.2</ele>
        <time>2020-09-17T13:01:01Z</time>
      </trkpt>
      <trkpt lat="45.41473" lon="3.40805">
        <ele>633.1</ele>
        <time>2020-09-17T13:01:02Z</time>
      </trkpt>
      <trkpt lat="45.41471" lon="3.40805">
        <ele>632.9</ele>
        <time>2020-09-17T13:01:03Z</time>
      </trkpt>
      <trkpt lat="45.4147" lon="3.40806">
        <ele>632.9</ele>
        <time>2020-09-17T13:01:04Z</time>
      </trkpt>
      <trkpt lat="45.41469" lon="3.40806">
        <ele>632.8</ele>
        <time>2020-09-17T13:01:05Z</time>
      </trkpt>
      <trkpt lat="45.41468" lon="3.40806">
        <ele>632.7</ele>
        <time>2020-09-17T13:01:06Z</time>
      </trkpt>
      <trkpt lat="45.41468" lon="3.40806">
        <ele>632.7</ele>
        <time>2020-09-17T13:01:07Z</time>
      </trkpt>
      <trkpt lat="45.41467" lon="3.40807">
        <ele>632.6</ele>
        <time>2020-09-17T13:01:08Z</time>
      </trkpt>
      <trkpt lat="45.41466" lon="3.40807">
        <ele>632.6</ele>
        <time>2020-09-17T13:01:09Z</time>
      </trkpt>
      <trkpt lat="45.41466" lon="3.40807">
        <ele>632.5</ele>
        <time>2020-09-17T13:01:10Z</time>
      </trkpt>
      <trkpt lat="45.41465" lon="3.40806">
        <ele>632.5</ele>
        <time>2020-09-17T13:01:11Z</time>
      </trkpt>
      <trkpt lat="45.41464" lon="3.40805">
        <ele>632.4</ele>
        <time>2020-09-17T13:01:12Z</time>
      </trkpt>
      <trkpt lat="45.41463" lon="3.40805">
        <ele>632.3</ele>
        <time>2020-09-17T13:01:13Z</time>
      </trkpt>
      <trkpt lat="45.41463" lon="3.40804">
        <ele>632.3</ele>
        <time>2020-09-17T13:01:14Z</time>
      </trkpt>
      <trkpt lat="45.41462" lon="3.40803">
        <ele>632.2</ele>
        <time>2020-09-17T13:01:15Z</time>
      </trkpt>
      <trkpt lat="45.41461" lon="3.40801">
        <ele>632.1</ele>
        <time>2020-09-17T13:01:16Z</time>
      </trkpt>
      <trkpt lat="45.4146" lon="3.408">
        <ele>632.1</ele>
        <time>2020-09-17T13:01:17Z</time>
      </trkpt>
      <trkpt lat="45.4146" lon="3.408">
        <ele>632</ele>
        <time>2020-09-17T13:01:18Z</time>
      </trkpt>
      <trkpt lat="45.4146" lon="3.40799">
        <ele>632</ele>
        <time>2020-09-17T13:01:19Z</time>
      </trkpt>
      <trkpt lat="45.4146" lon="3.40799">
        <ele>632</ele>
        <time>2020-09-17T13:01:20Z</time>
      </trkpt>
      <trkpt lat="45.41459" lon="3.40798">
        <ele>631.9</ele>
        <time>2020-09-17T13:01:21Z</time>
      </trkpt>
      <trkpt lat="45.41459" lon="3.40797">
        <ele>631.9</ele>
        <time>2020-09-17T13:01:22Z</time>
      </trkpt>
      <trkpt lat="45.41458" lon="3.40795">
        <ele>631.8</ele>
        <time>2020-09-17T13:01:23Z</time>
      </trkpt>
      <trkpt lat="45.41458" lon="3.40794">
        <ele>631.7</ele>
        <time>2020-09-17T13:01:24Z</time>
      </trkpt>
      <trkpt lat="45.41457" lon="3.40793">
        <ele>631.7</ele>
        <time>2020-09-17T13:01:25Z</time>
      </trkpt>
      <trkpt lat="45.41457" lon="3.40791">
        <ele>631.6</ele>
        <time>2020-09-17T13:01:26Z</time>
      </trkpt>
      <trkpt lat="45.41456" lon="3.4079">
        <ele>631.5</ele>
        <time>2020-09-17T13:01:27Z</time>
      </trkpt>
      <trkpt lat="45.41455" lon="3.40789">
        <ele>631.4</ele>
        <time>2020-09-17T13:01:28Z</time>
      </trkpt>
      <trkpt lat="45.41455" lon="3.40787">
        <ele>631.3</ele>
        <time>2020-09-17T13:01:29Z</time>
      </trkpt>
      <trkpt lat="45.41454" lon="3.40786">
        <ele>631.2</ele>
        <time>2020-09-17T13:01:30Z</time>
      </trkpt>
      <trkpt lat="45.41454" lon="3.40785">
        <ele>631.2</ele>
        <time>2020-09-17T13:01:31Z</time>
      </trkpt>
      <trkpt lat="45.41453" lon="3.40783">
        <ele>631.1</ele>
        <time>2020-09-17T13:01:32Z</time>
      </trkpt>
      <trkpt lat="45.41453" lon="3.40782">
        <ele>631</ele>
        <time>2020-09-17T13:01:33Z</time>
      </trkpt>
      <trkpt lat="45.41452" lon="3.40781">
        <ele>630.9</ele>
        <time>2020-09-17T13:01:34Z</time>
      </trkpt>
      <trkpt lat="45.41451" lon="3.4078">
        <ele>630.8</ele>
        <time>2020-09-17T13:01:35Z</time>
      </trkpt>
      <trkpt lat="45.41451" lon="3.40778">
        <ele>630.7</ele>
        <time>2020-09-17T13:01:36Z</time>
      </trkpt>
      <trkpt lat="45.4145" lon="3.40777">
        <ele>630.7</ele>
        <time>2020-09-17T13:01:37Z</time>
      </trkpt>
      <trkpt lat="45.4145" lon="3.40775">
        <ele>630.6</ele>
        <time>2020-09-17T13:01:38Z</time>
      </trkpt>
      <trkpt lat="45.41449" lon="3.40774">
        <ele>630.6</ele>
        <time>2020-09-17T13:01:39Z</time>
      </trkpt>
      <trkpt lat="45.41449" lon="3.40773">
        <ele>630.6</ele>
        <time>2020-09-17T13:01:40Z</time>
      </trkpt>
      <trkpt lat="45.41448" lon="3.40771">
        <ele>630.6</ele>
        <time>2020-09-17T13:01:41Z</time>
      </trkpt>
      <trkpt lat="45.41447" lon="3.4077">
        <ele>630.6</ele>
        <time>2020-09-17T13:01:42Z</time>
      </trkpt>
      <trkpt lat="45.41447" lon="3.40769">
        <ele>630.6</ele>
        <time>2020-09-17T13:01:43Z</time>
      </trkpt>
      <trkpt lat="45.41446" lon="3.40768">
        <ele>630.5</ele>
        <time>2020-09-17T13:01:44Z</time>
      </trkpt>
      <trkpt lat="45.41446" lon="3.40768">
        <ele>630.5</ele>
        <time>2020-09-17T13:01:45Z</time>
      </trkpt>
      <trkpt lat="45.41446" lon="3.40768">
        <ele>630.5</ele>
        <time>2020-09-17T13:01:46Z</time>
      </trkpt>
      <trkpt lat="45.41446" lon="3.40768">
        <ele>630.5</ele>
        <time>2020-09-17T13:01:47Z</time>
      </trkpt>
      <trkpt lat="45.41446" lon="3.40768">
        <ele>630.5</ele>
        <time>2020-09-17T13:01:48Z</time>
      </trkpt>
      <trkpt lat="45.41445" lon="3.40767">
        <ele>630.5</ele>
        <time>2020-09-17T13:01:49Z</time>
      </trkpt>
      <trkpt lat="45.41445" lon="3.40766">
        <ele>630.5</ele>
        <time>2020-09-17T13:01:50Z</time>
      </trkpt>
      <trkpt lat="45.41445" lon="3.40764">
        <ele>630.5</ele>
        <time>2020-09-17T13:01:51Z</time>
      </trkpt>
      <trkpt lat="45.41445" lon="3.40763">
        <ele>630.5</ele>
        <time>2020-09-17T13:01:52Z</time>
      </trkpt>
      <trkpt lat="45.41444" lon="3.40762">
        <ele>630.6</ele>
        <time>2020-09-17T13:01:53Z</time>
      </trkpt>
      <trkpt lat="45.41444" lon="3.4076">
        <ele>630.6</ele>
        <time>2020-09-17T13:01:54Z</time>
      </trkpt>
      <trkpt lat="45.41443" lon="3.40759">
        <ele>630.6</ele>
        <time>2020-09-17T13:01:55Z</time>
      </trkpt>
      <trkpt lat="45.41442" lon="3.40758">
        <ele>630.7</ele>
        <time>2020-09-17T13:01:56Z</time>
      </trkpt>
      <trkpt lat="45.41442" lon="3.40756">
        <ele>630.7</ele>
        <time>2020-09-17T13:01:57Z</time>
      </trkpt>
      <trkpt lat="45.41441" lon="3.40755">
        <ele>630.7</ele>
        <time>2020-09-17T13:01:58Z</time>
      </trkpt>
      <trkpt lat="45.41441" lon="3.40754">
        <ele>630.7</ele>
        <time>2020-09-17T13:01:59Z</time>
      </trkpt>
      <trkpt lat="45.4144" lon="3.40752">
        <ele>630.8</ele>
        <time>2020-09-17T13:02:00Z</time>
      </trkpt>
      <trkpt lat="45.41439" lon="3.40751">
        <ele>630.8</ele>
        <time>2020-09-17T13:02:01Z</time>
      </trkpt>
      <trkpt lat="45.41439" lon="3.4075">
        <ele>630.8</ele>
        <time>2020-09-17T13:02:02Z</time>
      </trkpt>
      <trkpt lat="45.41438" lon="3.40748">
        <ele>630.8</ele>
        <time>2020-09-17T13:02:03Z</time>
      </trkpt>
      <trkpt lat="45.41438" lon="3.40747">
        <ele>630.8</ele>
        <time>2020-09-17T13:02:04Z</time>
      </trkpt>
      <trkpt lat="45.41437" lon="3.40746">
        <ele>630.8</ele>
        <time>2020-09-17T13:02:05Z</time>
      </trkpt>
      <trkpt lat="45.41436" lon="3.40745">
        <ele>630.8</ele>
        <time>2020-09-17T13:02:06Z</time>
      </trkpt>
      <trkpt lat="45.41436" lon="3.40743">
        <ele>630.8</ele>
        <time>2020-09-17T13:02:07Z</time>
      </trkpt>
      <trkpt lat="45.41435" lon="3.40742">
        <ele>630.8</ele>
        <time>2020-09-17T13:02:08Z</time>
      </trkpt>
      <trkpt lat="45.41435" lon="3.4074">
        <ele>630.8</ele>
        <time>2020-09-17T13:02:09Z</time>
      </trkpt>
      <trkpt lat="45.41434" lon="3.40739">
        <ele>630.7</ele>
        <time>2020-09-17T13:02:10Z</time>
      </trkpt>
      <trkpt lat="45.41434" lon="3.40738">
        <ele>630.7</ele>
        <time>2020-09-17T13:02:11Z</time>
      </trkpt>
      <trkpt lat="45.41433" lon="3.40737">
        <ele>630.7</ele>
        <time>2020-09-17T13:02:12Z</time>
      </trkpt>
      <trkpt lat="45.41433" lon="3.40735">
        <ele>630.7</ele>
        <time>2020-09-17T13:02:13Z</time>
      </trkpt>
      <trkpt lat="45.41432" lon="3.40734">
        <ele>630.6</ele>
        <time>2020-09-17T13:02:14Z</time>
      </trkpt>
      <trkpt lat="45.41432" lon="3.40733">
        <ele>630.6</ele>
        <time>2020-09-17T13:02:15Z</time>
      </trkpt>
      <trkpt lat="45.41431" lon="3.40732">
        <ele>630.6</ele>
        <time>2020-09-17T13:02:16Z</time>
      </trkpt>
      <trkpt lat="45.41431" lon="3.40731">
        <ele>630.5</ele>
        <time>2020-09-17T13:02:17Z</time>
      </trkpt>
      <trkpt lat="45.41431" lon="3.4073">
        <ele>630.5</ele>
        <time>2020-09-17T13:02:18Z</time>
      </trkpt>
      <trkpt lat="45.4143" lon="3.40728">
        <ele>630.5</ele>
        <time>2020-09-17T13:02:19Z</time>
      </trkpt>
      <trkpt lat="45.4143" lon="3.40727">
        <ele>630.4</ele>
        <time>2020-09-17T13:02:20Z</time>
      </trkpt>
      <trkpt lat="45.41429" lon="3.40726">
        <ele>630.4</ele>
        <time>2020-09-17T13:02:21Z</time>
      </trkpt>
      <trkpt lat="45.41429" lon="3.40725">
        <ele>630.3</ele>
        <time>2020-09-17T13:02:22Z</time>
      </trkpt>
      <trkpt lat="45.41428" lon="3.40724">
        <ele>630.3</ele>
        <time>2020-09-17T13:02:23Z</time>
      </trkpt>
      <trkpt lat="45.41428" lon="3.40722">
        <ele>630.2</ele>
        <time>2020-09-17T13:02:24Z</time>
      </trkpt>
      <trkpt lat="45.41428" lon="3.40721">
        <ele>630.2</ele>
        <time>2020-09-17T13:02:25Z</time>
      </trkpt>
      <trkpt lat="45.41427" lon="3.4072">
        <ele>630.2</ele>
        <time>2020-09-17T13:02:26Z</time>
      </trkpt>
      <trkpt lat="45.41427" lon="3.40719">
        <ele>630.2</ele>
        <time>2020-09-17T13:02:27Z</time>
      </trkpt>
      <trkpt lat="45.41426" lon="3.40718">
        <ele>630.2</ele>
        <time>2020-09-17T13:02:28Z</time>
      </trkpt>
      <trkpt lat="45.41426" lon="3.40717">
        <ele>630.2</ele>
        <time>2020-09-17T13:02:29Z</time>
      </trkpt>
      <trkpt lat="45.41426" lon="3.40716">
        <ele>630.2</ele>
        <time>2020-09-17T13:02:30Z</time>
      </trkpt>
      <trkpt lat="45.41426" lon="3.40716">
        <ele>630.2</ele>
        <time>2020-09-17T13:02:31Z</time>
      </trkpt>
      <trkpt lat="45.41426" lon="3.40716">
        <ele>630.2</ele>
        <time>2020-09-17T13:02:32Z</time>
      </trkpt>
      <trkpt lat="45.41426" lon="3.40716">
        <ele>630.2</ele>
        <time>2020-09-17T13:02:33Z</time>
      </trkpt>
      <trkpt lat="45.41426" lon="3.40716">
        <ele>630.2</ele>
        <time>2020-09-17T13:02:34Z</time>
      </trkpt>
      <trkpt lat="45.41426" lon="3.40715">
        <ele>630.2</ele>
        <time>2020-09-17T13:02:35Z</time>
      </trkpt>
      <trkpt lat="45.41426" lon="3.40715">
        <ele>630.2</ele>
        <time>2020-09-17T13:02:36Z</time>
      </trkpt>
      <trkpt lat="45.41426" lon="3.40715">
        <ele>630.2</ele>
        <time>2020-09-17T13:02:37Z</time>
      </trkpt>
      <trkpt lat="45.41426" lon="3.40715">
        <ele>630.2</ele>
        <time>2020-09-17T13:02:38Z</time>
      </trkpt>
      <trkpt lat="45.41426" lon="3.40715">
        <ele>630.2</ele>
        <time>2020-09-17T13:02:39Z</time>
      </trkpt>
      <trkpt lat="45.41426" lon="3.40715">
        <ele>630.2</ele>
        <time>2020-09-17T13:02:40Z</time>
      </trkpt>
      <trkpt lat="45.41426" lon="3.40715">
        <ele>630.2</ele>
        <time>2020-09-17T13:02:41Z</time>
      </trkpt>
      <trkpt lat="45.41426" lon="3.40715">
        <ele>630.2</ele>
        <time>2020-09-17T13:02:42Z</time>
      </trkpt>
      <trkpt lat="45.41426" lon="3.40715">
        <ele>630.2</ele>
        <time>2020-09-17T13:02:43Z</time>
      </trkpt>
      <trkpt lat="45.41426" lon="3.40715">
        <ele>630.2</ele>
        <time>2020-09-17T13:02:44Z</time>
      </trkpt>
      <trkpt lat="45.41426" lon="3.40715">
        <ele>630.2</ele>
        <time>2020-09-17T13:02:45Z</time>
      </trkpt>
      <trkpt lat="45.41426" lon="3.40715">
        <ele>630.2</ele>
        <time>2020-09-17T13:02:46Z</time>
      </trkpt>
      <trkpt lat="45.41426" lon="3.40715">
        <ele>630.2</ele>
        <time>2020-09-17T13:02:47Z</time>
      </trkpt>
      <trkpt lat="45.41426" lon="3.40715">
        <ele>630.2</ele>
        <time>2020-09-17T13:02:48Z</time>
      </trkpt>
      <trkpt lat="45.41426" lon="3.40715">
        <ele>630.2</ele>
        <time>2020-09-17T13:02:49Z</time>
      </trkpt>
      <trkpt lat="45.41426" lon="3.40715">
        <ele>630.2</ele>
        <time>2020-09-17T13:02:50Z</time>
      </trkpt>
      <trkpt lat="45.41426" lon="3.40715">
        <ele>630.2</ele>
        <time>2020-09-17T13:02:51Z</time>
      </trkpt>
      <trkpt lat="45.41426" lon="3.40715">
        <ele>630.2</ele>
        <time>2020-09-17T13:02:52Z</time>
      </trkpt>
      <trkpt lat="45.41426" lon="3.40715">
        <ele>630.2</ele>
        <time>2020-09-17T13:02:53Z</time>
      </trkpt>
      <trkpt lat="45.41426" lon="3.40715">
        <ele>630.2</ele>
        <time>2020-09-17T13:02:54Z</time>
      </trkpt>
      <trkpt lat="45.41426" lon="3.40715">
        <ele>630.2</ele>
        <time>2020-09-17T13:02:55Z</time>
      </trkpt>
      <trkpt lat="45.41426" lon="3.40715">
        <ele>630.2</ele>
        <time>2020-09-17T13:02:56Z</time>
      </trkpt>
      <trkpt lat="45.41426" lon="3.40715">
        <ele>630.2</ele>
        <time>2020-09-17T13:02:57Z</time>
      </trkpt>
      <trkpt lat="45.41426" lon="3.40715">
        <ele>630.2</ele>
        <time>2020-09-17T13:02:58Z</time>
      </trkpt>
      <trkpt lat="45.41426" lon="3.40715">
        <ele>630.2</ele>
        <time>2020-09-17T13:02:59Z</time>
      </trkpt>
      <trkpt lat="45.41426" lon="3.40715">
        <ele>630.2</ele>
        <time>2020-09-17T13:03:00Z</time>
      </trkpt>
      <trkpt lat="45.41426" lon="3.40715">
        <ele>630.2</ele>
        <time>2020-09-17T13:03:01Z</time>
      </trkpt>
      <trkpt lat="45.41426" lon="3.40715">
        <ele>630.2</ele>
        <time>2020-09-17T13:03:02Z</time>
      </trkpt>
      <trkpt lat="45.41426" lon="3.40715">
        <ele>630.2</ele>
        <time>2020-09-17T13:03:03Z</time>
      </trkpt>
      <trkpt lat="45.41426" lon="3.40715">
        <ele>630.2</ele>
        <time>2020-09-17T13:03:04Z</time>
      </trkpt>
      <trkpt lat="45.41426" lon="3.40715">
        <ele>630.2</ele>
        <time>2020-09-17T13:03:05Z</time>
      </trkpt>
      <trkpt lat="45.41426" lon="3.40715">
        <ele>630.2</ele>
        <time>2020-09-17T13:03:06Z</time>
      </trkpt>
      <trkpt lat="45.41425" lon="3.40715">
        <ele>630.2</ele>
        <time>2020-09-17T13:03:07Z</time>
      </trkpt>
      <trkpt lat="45.41425" lon="3.40715">
        <ele>630.2</ele>
        <time>2020-09-17T13:03:08Z</time>
      </trkpt>
      <trkpt lat="45.41425" lon="3.40714">
        <ele>630.1</ele>
        <time>2020-09-17T13:03:09Z</time>
      </trkpt>
      <trkpt lat="45.41424" lon="3.40714">
        <ele>630.1</ele>
        <time>2020-09-17T13:03:10Z</time>
      </trkpt>
      <trkpt lat="45.41424" lon="3.40714">
        <ele>630.1</ele>
        <time>2020-09-17T13:03:11Z</time>
      </trkpt>
      <trkpt lat="45.41424" lon="3.40714">
        <ele>630.1</ele>
        <time>2020-09-17T13:03:12Z</time>
      </trkpt>
      <trkpt lat="45.41424" lon="3.40714">
        <ele>630.1</ele>
        <time>2020-09-17T13:03:13Z</time>
      </trkpt>
      <trkpt lat="45.41424" lon="3.40714">
        <ele>630.1</ele>
        <time>2020-09-17T13:03:14Z</time>
      </trkpt>
      <trkpt lat="45.41424" lon="3.40714">
        <ele>630.1</ele>
        <time>2020-09-17T13:03:15Z</time>
      </trkpt>
      <trkpt lat="45.41424" lon="3.40713">
        <ele>630.1</ele>
        <time>2020-09-17T13:03:16Z</time>
      </trkpt>
      <trkpt lat="45.41424" lon="3.40713">
        <ele>630.1</ele>
        <time>2020-09-17T13:03:17Z</time>
      </trkpt>
      <trkpt lat="45.41424" lon="3.40713">
        <ele>630.1</ele>
        <time>2020-09-17T13:03:18Z</time>
      </trkpt>
      <trkpt lat="45.41424" lon="3.40713">
        <ele>630.1</ele>
        <time>2020-09-17T13:03:19Z</time>
      </trkpt>
      <trkpt lat="45.41423" lon="3.40713">
        <ele>630</ele>
        <time>2020-09-17T13:03:20Z</time>
      </trkpt>
      <trkpt lat="45.41423" lon="3.40713">
        <ele>630</ele>
        <time>2020-09-17T13:03:21Z</time>
      </trkpt>
      <trkpt lat="45.41423" lon="3.40713">
        <ele>630</ele>
        <time>2020-09-17T13:03:22Z</time>
      </trkpt>
      <trkpt lat="45.41423" lon="3.40713">
        <ele>630</ele>
        <time>2020-09-17T13:03:23Z</time>
      </trkpt>
      <trkpt lat="45.41423" lon="3.40712">
        <ele>630</ele>
        <time>2020-09-17T13:03:24Z</time>
      </trkpt>
      <trkpt lat="45.41423" lon="3.40712">
        <ele>630</ele>
        <time>2020-09-17T13:03:25Z</time>
      </trkpt>
      <trkpt lat="45.41423" lon="3.40712">
        <ele>630</ele>
        <time>2020-09-17T13:03:26Z</time>
      </trkpt>
      <trkpt lat="45.41423" lon="3.40711">
        <ele>630</ele>
        <time>2020-09-17T13:03:27Z</time>
      </trkpt>
      <trkpt lat="45.41422" lon="3.40711">
        <ele>630</ele>
        <time>2020-09-17T13:03:28Z</time>
      </trkpt>
      <trkpt lat="45.41422" lon="3.4071">
        <ele>630.1</ele>
        <time>2020-09-17T13:03:29Z</time>
      </trkpt>
      <trkpt lat="45.41422" lon="3.4071">
        <ele>630.1</ele>
        <time>2020-09-17T13:03:30Z</time>
      </trkpt>
      <trkpt lat="45.41422" lon="3.40709">
        <ele>630</ele>
        <time>2020-09-17T13:03:31Z</time>
      </trkpt>
      <trkpt lat="45.41422" lon="3.40708">
        <ele>630</ele>
        <time>2020-09-17T13:03:32Z</time>
      </trkpt>
      <trkpt lat="45.41422" lon="3.40708">
        <ele>630</ele>
        <time>2020-09-17T13:03:33Z</time>
      </trkpt>
      <trkpt lat="45.41421" lon="3.40707">
        <ele>630</ele>
        <time>2020-09-17T13:03:34Z</time>
      </trkpt>
      <trkpt lat="45.41421" lon="3.40707">
        <ele>630</ele>
        <time>2020-09-17T13:03:35Z</time>
      </trkpt>
      <trkpt lat="45.41421" lon="3.40706">
        <ele>630</ele>
        <time>2020-09-17T13:03:36Z</time>
      </trkpt>
      <trkpt lat="45.4142" lon="3.40705">
        <ele>630</ele>
        <time>2020-09-17T13:03:37Z</time>
      </trkpt>
      <trkpt lat="45.4142" lon="3.40704">
        <ele>630</ele>
        <time>2020-09-17T13:03:38Z</time>
      </trkpt>
      <trkpt lat="45.4142" lon="3.40703">
        <ele>630</ele>
        <time>2020-09-17T13:03:39Z</time>
      </trkpt>
      <trkpt lat="45.41419" lon="3.40702">
        <ele>630</ele>
        <time>2020-09-17T13:03:40Z</time>
      </trkpt>
      <trkpt lat="45.41419" lon="3.40701">
        <ele>630</ele>
        <time>2020-09-17T13:03:41Z</time>
      </trkpt>
      <trkpt lat="45.41418" lon="3.407">
        <ele>630</ele>
        <time>2020-09-17T13:03:42Z</time>
      </trkpt>
      <trkpt lat="45.41418" lon="3.40699">
        <ele>629.9</ele>
        <time>2020-09-17T13:03:43Z</time>
      </trkpt>
      <trkpt lat="45.41417" lon="3.40699">
        <ele>629.9</ele>
        <time>2020-09-17T13:03:44Z</time>
      </trkpt>
      <trkpt lat="45.41416" lon="3.40698">
        <ele>629.8</ele>
        <time>2020-09-17T13:03:45Z</time>
      </trkpt>
      <trkpt lat="45.41415" lon="3.40698">
        <ele>629.8</ele>
        <time>2020-09-17T13:03:46Z</time>
      </trkpt>
      <trkpt lat="45.41414" lon="3.40699">
        <ele>629.8</ele>
        <time>2020-09-17T13:03:47Z</time>
      </trkpt>
      <trkpt lat="45.41413" lon="3.40699">
        <ele>629.8</ele>
        <time>2020-09-17T13:03:48Z</time>
      </trkpt>
      <trkpt lat="45.41413" lon="3.40699">
        <ele>629.7</ele>
        <time>2020-09-17T13:03:49Z</time>
      </trkpt>
      <trkpt lat="45.41412" lon="3.407">
        <ele>629.7</ele>
        <time>2020-09-17T13:03:50Z</time>
      </trkpt>
      <trkpt lat="45.41411" lon="3.407">
        <ele>629.7</ele>
        <time>2020-09-17T13:03:51Z</time>
      </trkpt>
      <trkpt lat="45.4141" lon="3.40701">
        <ele>629.6</ele>
        <time>2020-09-17T13:03:52Z</time>
      </trkpt>
      <trkpt lat="45.4141" lon="3.40702">
        <ele>629.6</ele>
        <time>2020-09-17T13:03:53Z</time>
      </trkpt>
      <trkpt lat="45.41409" lon="3.40703">
        <ele>629.6</ele>
        <time>2020-09-17T13:03:54Z</time>
      </trkpt>
      <trkpt lat="45.41408" lon="3.40704">
        <ele>629.6</ele>
        <time>2020-09-17T13:03:55Z</time>
      </trkpt>
      <trkpt lat="45.41407" lon="3.40705">
        <ele>629.5</ele>
        <time>2020-09-17T13:03:56Z</time>
      </trkpt>
      <trkpt lat="45.41406" lon="3.40706">
        <ele>629.5</ele>
        <time>2020-09-17T13:03:57Z</time>
      </trkpt>
      <trkpt lat="45.41406" lon="3.40707">
        <ele>629.5</ele>
        <time>2020-09-17T13:03:58Z</time>
      </trkpt>
      <trkpt lat="45.41405" lon="3.40707">
        <ele>629.5</ele>
        <time>2020-09-17T13:03:59Z</time>
      </trkpt>
      <trkpt lat="45.41404" lon="3.40708">
        <ele>629.5</ele>
        <time>2020-09-17T13:04:00Z</time>
      </trkpt>
      <trkpt lat="45.41403" lon="3.40709">
        <ele>629.5</ele>
        <time>2020-09-17T13:04:01Z</time>
      </trkpt>
      <trkpt lat="45.41403" lon="3.40709">
        <ele>629.5</ele>
        <time>2020-09-17T13:04:02Z</time>
      </trkpt>
      <trkpt lat="45.41402" lon="3.4071">
        <ele>629.5</ele>
        <time>2020-09-17T13:04:03Z</time>
      </trkpt>
      <trkpt lat="45.41401" lon="3.40711">
        <ele>629.5</ele>
        <time>2020-09-17T13:04:04Z</time>
      </trkpt>
      <trkpt lat="45.414" lon="3.40711">
        <ele>629.5</ele>
        <time>2020-09-17T13:04:05Z</time>
      </trkpt>
      <trkpt lat="45.41399" lon="3.40711">
        <ele>629.5</ele>
        <time>2020-09-17T13:04:06Z</time>
      </trkpt>
      <trkpt lat="45.41398" lon="3.40712">
        <ele>629.5</ele>
        <time>2020-09-17T13:04:07Z</time>
      </trkpt>
      <trkpt lat="45.41397" lon="3.40712">
        <ele>629.6</ele>
        <time>2020-09-17T13:04:08Z</time>
      </trkpt>
      <trkpt lat="45.41396" lon="3.40713">
        <ele>629.6</ele>
        <time>2020-09-17T13:04:09Z</time>
      </trkpt>
      <trkpt lat="45.41395" lon="3.40713">
        <ele>629.6</ele>
        <time>2020-09-17T13:04:10Z</time>
      </trkpt>
      <trkpt lat="45.41394" lon="3.40713">
        <ele>629.6</ele>
        <time>2020-09-17T13:04:11Z</time>
      </trkpt>
      <trkpt lat="45.41393" lon="3.40714">
        <ele>629.6</ele>
        <time>2020-09-17T13:04:12Z</time>
      </trkpt>
      <trkpt lat="45.41392" lon="3.40714">
        <ele>629.7</ele>
        <time>2020-09-17T13:04:13Z</time>
      </trkpt>
      <trkpt lat="45.41391" lon="3.40714">
        <ele>629.7</ele>
        <time>2020-09-17T13:04:14Z</time>
      </trkpt>
      <trkpt lat="45.4139" lon="3.40714">
        <ele>629.7</ele>
        <time>2020-09-17T13:04:15Z</time>
      </trkpt>
      <trkpt lat="45.41389" lon="3.40715">
        <ele>629.8</ele>
        <time>2020-09-17T13:04:16Z</time>
      </trkpt>
      <trkpt lat="45.41388" lon="3.40715">
        <ele>629.9</ele>
        <time>2020-09-17T13:04:17Z</time>
      </trkpt>
      <trkpt lat="45.41386" lon="3.40715">
        <ele>630.1</ele>
        <time>2020-09-17T13:04:18Z</time>
      </trkpt>
      <trkpt lat="45.41385" lon="3.40716">
        <ele>630.2</ele>
        <time>2020-09-17T13:04:19Z</time>
      </trkpt>
      <trkpt lat="45.41384" lon="3.40716">
        <ele>630.3</ele>
        <time>2020-09-17T13:04:20Z</time>
      </trkpt>
      <trkpt lat="45.41383" lon="3.40716">
        <ele>630.5</ele>
        <time>2020-09-17T13:04:21Z</time>
      </trkpt>
      <trkpt lat="45.41382" lon="3.40716">
        <ele>630.6</ele>
        <time>2020-09-17T13:04:22Z</time>
      </trkpt>
      <trkpt lat="45.41381" lon="3.40716">
        <ele>630.8</ele>
        <time>2020-09-17T13:04:23Z</time>
      </trkpt>
      <trkpt lat="45.4138" lon="3.40717">
        <ele>630.9</ele>
        <time>2020-09-17T13:04:24Z</time>
      </trkpt>
      <trkpt lat="45.41379" lon="3.40717">
        <ele>631</ele>
        <time>2020-09-17T13:04:25Z</time>
      </trkpt>
      <trkpt lat="45.41378" lon="3.40717">
        <ele>631.2</ele>
        <time>2020-09-17T13:04:26Z</time>
      </trkpt>
      <trkpt lat="45.41378" lon="3.40716">
        <ele>631.3</ele>
        <time>2020-09-17T13:04:27Z</time>
      </trkpt>
      <trkpt lat="45.41377" lon="3.40717">
        <ele>631.4</ele>
        <time>2020-09-17T13:04:28Z</time>
      </trkpt>
      <trkpt lat="45.41376" lon="3.40716">
        <ele>631.5</ele>
        <time>2020-09-17T13:04:29Z</time>
      </trkpt>
      <trkpt lat="45.41374" lon="3.40716">
        <ele>631.6</ele>
        <time>2020-09-17T13:04:30Z</time>
      </trkpt>
      <trkpt lat="45.41374" lon="3.40716">
        <ele>631.8</ele>
        <time>2020-09-17T13:04:31Z</time>
      </trkpt>
      <trkpt lat="45.41372" lon="3.40716">
        <ele>631.9</ele>
        <time>2020-09-17T13:04:32Z</time>
      </trkpt>
      <trkpt lat="45.41371" lon="3.40716">
        <ele>632</ele>
        <time>2020-09-17T13:04:33Z</time>
      </trkpt>
      <trkpt lat="45.4137" lon="3.40716">
        <ele>632.1</ele>
        <time>2020-09-17T13:04:34Z</time>
      </trkpt>
      <trkpt lat="45.41369" lon="3.40716">
        <ele>632.3</ele>
        <time>2020-09-17T13:04:35Z</time>
      </trkpt>
      <trkpt lat="45.41368" lon="3.40716">
        <ele>632.4</ele>
        <time>2020-09-17T13:04:36Z</time>
      </trkpt>
      <trkpt lat="45.41367" lon="3.40716">
        <ele>632.5</ele>
        <time>2020-09-17T13:04:37Z</time>
      </trkpt>
      <trkpt lat="45.41366" lon="3.40716">
        <ele>632.7</ele>
        <time>2020-09-17T13:04:38Z</time>
      </trkpt>
      <trkpt lat="45.41365" lon="3.40716">
        <ele>632.8</ele>
        <time>2020-09-17T13:04:39Z</time>
      </trkpt>
      <trkpt lat="45.41364" lon="3.40717">
        <ele>633</ele>
        <time>2020-09-17T13:04:40Z</time>
      </trkpt>
      <trkpt lat="45.41363" lon="3.40717">
        <ele>633.1</ele>
        <time>2020-09-17T13:04:41Z</time>
      </trkpt>
      <trkpt lat="45.41362" lon="3.40717">
        <ele>633.2</ele>
        <time>2020-09-17T13:04:42Z</time>
      </trkpt>
      <trkpt lat="45.41361" lon="3.40717">
        <ele>633.4</ele>
        <time>2020-09-17T13:04:43Z</time>
      </trkpt>
      <trkpt lat="45.4136" lon="3.40717">
        <ele>633.5</ele>
        <time>2020-09-17T13:04:44Z</time>
      </trkpt>
      <trkpt lat="45.41359" lon="3.40717">
        <ele>633.6</ele>
        <time>2020-09-17T13:04:45Z</time>
      </trkpt>
      <trkpt lat="45.41358" lon="3.40717">
        <ele>633.7</ele>
        <time>2020-09-17T13:04:46Z</time>
      </trkpt>
      <trkpt lat="45.41357" lon="3.40717">
        <ele>633.8</ele>
        <time>2020-09-17T13:04:47Z</time>
      </trkpt>
      <trkpt lat="45.41356" lon="3.40718">
        <ele>633.9</ele>
        <time>2020-09-17T13:04:48Z</time>
      </trkpt>
      <trkpt lat="45.41355" lon="3.40718">
        <ele>634</ele>
        <time>2020-09-17T13:04:49Z</time>
      </trkpt>
      <trkpt lat="45.41354" lon="3.40718">
        <ele>634.1</ele>
        <time>2020-09-17T13:04:50Z</time>
      </trkpt>
      <trkpt lat="45.41353" lon="3.40718">
        <ele>634.2</ele>
        <time>2020-09-17T13:04:51Z</time>
      </trkpt>
      <trkpt lat="45.41352" lon="3.40718">
        <ele>634.3</ele>
        <time>2020-09-17T13:04:52Z</time>
      </trkpt>
      <trkpt lat="45.41351" lon="3.40718">
        <ele>634.4</ele>
        <time>2020-09-17T13:04:53Z</time>
      </trkpt>
      <trkpt lat="45.41351" lon="3.40718">
        <ele>634.5</ele>
        <time>2020-09-17T13:04:54Z</time>
      </trkpt>
      <trkpt lat="45.4135" lon="3.40718">
        <ele>634.6</ele>
        <time>2020-09-17T13:04:55Z</time>
      </trkpt>
      <trkpt lat="45.41349" lon="3.40718">
        <ele>634.7</ele>
        <time>2020-09-17T13:04:56Z</time>
      </trkpt>
      <trkpt lat="45.41348" lon="3.40719">
        <ele>634.8</ele>
        <time>2020-09-17T13:04:57Z</time>
      </trkpt>
      <trkpt lat="45.41347" lon="3.40719">
        <ele>634.9</ele>
        <time>2020-09-17T13:04:58Z</time>
      </trkpt>
      <trkpt lat="45.41346" lon="3.40719">
        <ele>635</ele>
        <time>2020-09-17T13:04:59Z</time>
      </trkpt>
      <trkpt lat="45.41345" lon="3.4072">
        <ele>635.1</ele>
        <time>2020-09-17T13:05:00Z</time>
      </trkpt>
      <trkpt lat="45.41344" lon="3.4072">
        <ele>635.2</ele>
        <time>2020-09-17T13:05:01Z</time>
      </trkpt>
      <trkpt lat="45.41343" lon="3.4072">
        <ele>635.3</ele>
        <time>2020-09-17T13:05:02Z</time>
      </trkpt>
      <trkpt lat="45.41342" lon="3.4072">
        <ele>635.4</ele>
        <time>2020-09-17T13:05:03Z</time>
      </trkpt>
      <trkpt lat="45.41341" lon="3.40721">
        <ele>635.4</ele>
        <time>2020-09-17T13:05:04Z</time>
      </trkpt>
      <trkpt lat="45.4134" lon="3.40721">
        <ele>635.5</ele>
        <time>2020-09-17T13:05:05Z</time>
      </trkpt>
      <trkpt lat="45.41339" lon="3.40721">
        <ele>635.6</ele>
        <time>2020-09-17T13:05:06Z</time>
      </trkpt>
      <trkpt lat="45.41338" lon="3.40722">
        <ele>635.7</ele>
        <time>2020-09-17T13:05:07Z</time>
      </trkpt>
      <trkpt lat="45.41336" lon="3.40722">
        <ele>635.8</ele>
        <time>2020-09-17T13:05:08Z</time>
      </trkpt>
      <trkpt lat="45.41335" lon="3.40722">
        <ele>635.9</ele>
        <time>2020-09-17T13:05:09Z</time>
      </trkpt>
      <trkpt lat="45.41335" lon="3.40723">
        <ele>636</ele>
        <time>2020-09-17T13:05:10Z</time>
      </trkpt>
      <trkpt lat="45.41334" lon="3.40723">
        <ele>636.1</ele>
        <time>2020-09-17T13:05:11Z</time>
      </trkpt>
      <trkpt lat="45.41333" lon="3.40723">
        <ele>636.3</ele>
        <time>2020-09-17T13:05:12Z</time>
      </trkpt>
      <trkpt lat="45.41332" lon="3.40724">
        <ele>636.5</ele>
        <time>2020-09-17T13:05:13Z</time>
      </trkpt>
      <trkpt lat="45.41331" lon="3.40724">
        <ele>636.7</ele>
        <time>2020-09-17T13:05:14Z</time>
      </trkpt>
      <trkpt lat="45.4133" lon="3.40724">
        <ele>636.9</ele>
        <time>2020-09-17T13:05:15Z</time>
      </trkpt>
      <trkpt lat="45.41329" lon="3.40724">
        <ele>637.1</ele>
        <time>2020-09-17T13:05:16Z</time>
      </trkpt>
      <trkpt lat="45.41328" lon="3.40725">
        <ele>637.4</ele>
        <time>2020-09-17T13:05:17Z</time>
      </trkpt>
      <trkpt lat="45.41327" lon="3.40725">
        <ele>637.6</ele>
        <time>2020-09-17T13:05:18Z</time>
      </trkpt>
      <trkpt lat="45.41326" lon="3.40725">
        <ele>637.8</ele>
        <time>2020-09-17T13:05:19Z</time>
      </trkpt>
      <trkpt lat="45.41325" lon="3.40725">
        <ele>638</ele>
        <time>2020-09-17T13:05:20Z</time>
      </trkpt>
      <trkpt lat="45.41324" lon="3.40726">
        <ele>638.2</ele>
        <time>2020-09-17T13:05:21Z</time>
      </trkpt>
      <trkpt lat="45.41323" lon="3.40726">
        <ele>638.5</ele>
        <time>2020-09-17T13:05:22Z</time>
      </trkpt>
      <trkpt lat="45.41322" lon="3.40726">
        <ele>638.6</ele>
        <time>2020-09-17T13:05:23Z</time>
      </trkpt>
      <trkpt lat="45.41321" lon="3.40727">
        <ele>638.9</ele>
        <time>2020-09-17T13:05:24Z</time>
      </trkpt>
      <trkpt lat="45.41321" lon="3.40727">
        <ele>639</ele>
        <time>2020-09-17T13:05:25Z</time>
      </trkpt>
      <trkpt lat="45.4132" lon="3.40728">
        <ele>639.3</ele>
        <time>2020-09-17T13:05:26Z</time>
      </trkpt>
      <trkpt lat="45.41319" lon="3.40728">
        <ele>639.5</ele>
        <time>2020-09-17T13:05:27Z</time>
      </trkpt>
      <trkpt lat="45.41318" lon="3.40728">
        <ele>639.7</ele>
        <time>2020-09-17T13:05:28Z</time>
      </trkpt>
      <trkpt lat="45.41317" lon="3.40728">
        <ele>639.9</ele>
        <time>2020-09-17T13:05:29Z</time>
      </trkpt>
      <trkpt lat="45.41316" lon="3.40729">
        <ele>640</ele>
        <time>2020-09-17T13:05:30Z</time>
      </trkpt>
      <trkpt lat="45.41315" lon="3.40729">
        <ele>640.2</ele>
        <time>2020-09-17T13:05:31Z</time>
      </trkpt>
      <trkpt lat="45.41314" lon="3.40729">
        <ele>640.4</ele>
        <time>2020-09-17T13:05:32Z</time>
      </trkpt>
      <trkpt lat="45.41313" lon="3.40729">
        <ele>640.5</ele>
        <time>2020-09-17T13:05:33Z</time>
      </trkpt>
      <trkpt lat="45.41312" lon="3.40729">
        <ele>640.7</ele>
        <time>2020-09-17T13:05:34Z</time>
      </trkpt>
      <trkpt lat="45.41312" lon="3.40729">
        <ele>640.9</ele>
        <time>2020-09-17T13:05:35Z</time>
      </trkpt>
      <trkpt lat="45.41311" lon="3.40729">
        <ele>641</ele>
        <time>2020-09-17T13:05:36Z</time>
      </trkpt>
      <trkpt lat="45.4131" lon="3.40729">
        <ele>641.2</ele>
        <time>2020-09-17T13:05:37Z</time>
      </trkpt>
      <trkpt lat="45.41309" lon="3.40729">
        <ele>641.3</ele>
        <time>2020-09-17T13:05:38Z</time>
      </trkpt>
      <trkpt lat="45.41308" lon="3.40728">
        <ele>641.5</ele>
        <time>2020-09-17T13:05:39Z</time>
      </trkpt>
      <trkpt lat="45.41308" lon="3.40727">
        <ele>641.5</ele>
        <time>2020-09-17T13:05:40Z</time>
      </trkpt>
      <trkpt lat="45.41308" lon="3.40726">
        <ele>641.5</ele>
        <time>2020-09-17T13:05:41Z</time>
      </trkpt>
      <trkpt lat="45.41308" lon="3.40725">
        <ele>641.5</ele>
        <time>2020-09-17T13:05:42Z</time>
      </trkpt>
      <trkpt lat="45.41308" lon="3.40724">
        <ele>641.5</ele>
        <time>2020-09-17T13:05:43Z</time>
      </trkpt>
      <trkpt lat="45.41308" lon="3.40723">
        <ele>641.4</ele>
        <time>2020-09-17T13:05:44Z</time>
      </trkpt>
      <trkpt lat="45.41309" lon="3.40722">
        <ele>641.3</ele>
        <time>2020-09-17T13:05:45Z</time>
      </trkpt>
      <trkpt lat="45.41309" lon="3.4072">
        <ele>641.2</ele>
        <time>2020-09-17T13:05:46Z</time>
      </trkpt>
      <trkpt lat="45.41309" lon="3.40719">
        <ele>641.1</ele>
        <time>2020-09-17T13:05:47Z</time>
      </trkpt>
      <trkpt lat="45.4131" lon="3.40717">
        <ele>641</ele>
        <time>2020-09-17T13:05:48Z</time>
      </trkpt>
      <trkpt lat="45.4131" lon="3.40716">
        <ele>640.9</ele>
        <time>2020-09-17T13:05:49Z</time>
      </trkpt>
      <trkpt lat="45.4131" lon="3.40715">
        <ele>640.8</ele>
        <time>2020-09-17T13:05:50Z</time>
      </trkpt>
      <trkpt lat="45.4131" lon="3.40713">
        <ele>640.7</ele>
        <time>2020-09-17T13:05:51Z</time>
      </trkpt>
      <trkpt lat="45.4131" lon="3.40712">
        <ele>640.7</ele>
        <time>2020-09-17T13:05:52Z</time>
      </trkpt>
      <trkpt lat="45.41311" lon="3.4071">
        <ele>640.6</ele>
        <time>2020-09-17T13:05:53Z</time>
      </trkpt>
      <trkpt lat="45.41311" lon="3.40709">
        <ele>640.5</ele>
        <time>2020-09-17T13:05:54Z</time>
      </trkpt>
      <trkpt lat="45.41311" lon="3.40707">
        <ele>640.5</ele>
        <time>2020-09-17T13:05:55Z</time>
      </trkpt>
      <trkpt lat="45.41311" lon="3.40706">
        <ele>640.5</ele>
        <time>2020-09-17T13:05:56Z</time>
      </trkpt>
      <trkpt lat="45.41311" lon="3.40704">
        <ele>640.4</ele>
        <time>2020-09-17T13:05:57Z</time>
      </trkpt>
      <trkpt lat="45.41311" lon="3.40703">
        <ele>640.3</ele>
        <time>2020-09-17T13:05:58Z</time>
      </trkpt>
      <trkpt lat="45.41311" lon="3.40702">
        <ele>640.3</ele>
        <time>2020-09-17T13:05:59Z</time>
      </trkpt>
      <trkpt lat="45.41311" lon="3.407">
        <ele>640.2</ele>
        <time>2020-09-17T13:06:00Z</time>
      </trkpt>
      <trkpt lat="45.41311" lon="3.40699">
        <ele>640.1</ele>
        <time>2020-09-17T13:06:01Z</time>
      </trkpt>
      <trkpt lat="45.41311" lon="3.40698">
        <ele>640.1</ele>
        <time>2020-09-17T13:06:02Z</time>
      </trkpt>
      <trkpt lat="45.41311" lon="3.40696">
        <ele>640</ele>
        <time>2020-09-17T13:06:03Z</time>
      </trkpt>
      <trkpt lat="45.41312" lon="3.40695">
        <ele>639.9</ele>
        <time>2020-09-17T13:06:04Z</time>
      </trkpt>
      <trkpt lat="45.41312" lon="3.40693">
        <ele>639.8</ele>
        <time>2020-09-17T13:06:05Z</time>
      </trkpt>
      <trkpt lat="45.41312" lon="3.40692">
        <ele>639.8</ele>
        <time>2020-09-17T13:06:06Z</time>
      </trkpt>
      <trkpt lat="45.41312" lon="3.40691">
        <ele>639.7</ele>
        <time>2020-09-17T13:06:07Z</time>
      </trkpt>
      <trkpt lat="45.41312" lon="3.40689">
        <ele>639.6</ele>
        <time>2020-09-17T13:06:08Z</time>
      </trkpt>
      <trkpt lat="45.41312" lon="3.40687">
        <ele>639.5</ele>
        <time>2020-09-17T13:06:09Z</time>
      </trkpt>
      <trkpt lat="45.41312" lon="3.40686">
        <ele>639.4</ele>
        <time>2020-09-17T13:06:10Z</time>
      </trkpt>
      <trkpt lat="45.41313" lon="3.40685">
        <ele>639.3</ele>
        <time>2020-09-17T13:06:11Z</time>
      </trkpt>
      <trkpt lat="45.41313" lon="3.40683">
        <ele>639.2</ele>
        <time>2020-09-17T13:06:12Z</time>
      </trkpt>
      <trkpt lat="45.41313" lon="3.40682">
        <ele>639.1</ele>
        <time>2020-09-17T13:06:13Z</time>
      </trkpt>
      <trkpt lat="45.41313" lon="3.4068">
        <ele>639</ele>
        <time>2020-09-17T13:06:14Z</time>
      </trkpt>
      <trkpt lat="45.41313" lon="3.40679">
        <ele>639</ele>
        <time>2020-09-17T13:06:15Z</time>
      </trkpt>
      <trkpt lat="45.41313" lon="3.40677">
        <ele>638.9</ele>
        <time>2020-09-17T13:06:16Z</time>
      </trkpt>
      <trkpt lat="45.41313" lon="3.40676">
        <ele>638.8</ele>
        <time>2020-09-17T13:06:17Z</time>
      </trkpt>
      <trkpt lat="45.41313" lon="3.40674">
        <ele>638.7</ele>
        <time>2020-09-17T13:06:18Z</time>
      </trkpt>
      <trkpt lat="45.41314" lon="3.40673">
        <ele>638.6</ele>
        <time>2020-09-17T13:06:19Z</time>
      </trkpt>
      <trkpt lat="45.41314" lon="3.40671">
        <ele>638.5</ele>
        <time>2020-09-17T13:06:20Z</time>
      </trkpt>
      <trkpt lat="45.41314" lon="3.4067">
        <ele>638.4</ele>
        <time>2020-09-17T13:06:21Z</time>
      </trkpt>
      <trkpt lat="45.41314" lon="3.40668">
        <ele>638.3</ele>
        <time>2020-09-17T13:06:22Z</time>
      </trkpt>
      <trkpt lat="45.41314" lon="3.40667">
        <ele>638.2</ele>
        <time>2020-09-17T13:06:23Z</time>
      </trkpt>
      <trkpt lat="45.41314" lon="3.40665">
        <ele>638.1</ele>
        <time>2020-09-17T13:06:24Z</time>
      </trkpt>
      <trkpt lat="45.41314" lon="3.40664">
        <ele>638</ele>
        <time>2020-09-17T13:06:25Z</time>
      </trkpt>
      <trkpt lat="45.41314" lon="3.40662">
        <ele>637.9</ele>
        <time>2020-09-17T13:06:26Z</time>
      </trkpt>
      <trkpt lat="45.41315" lon="3.40661">
        <ele>637.8</ele>
        <time>2020-09-17T13:06:27Z</time>
      </trkpt>
      <trkpt lat="45.41315" lon="3.40659">
        <ele>637.7</ele>
        <time>2020-09-17T13:06:28Z</time>
      </trkpt>
      <trkpt lat="45.41315" lon="3.40657">
        <ele>637.5</ele>
        <time>2020-09-17T13:06:29Z</time>
      </trkpt>
      <trkpt lat="45.41315" lon="3.40656">
        <ele>637.5</ele>
        <time>2020-09-17T13:06:30Z</time>
      </trkpt>
      <trkpt lat="45.41315" lon="3.40654">
        <ele>637.4</ele>
        <time>2020-09-17T13:06:31Z</time>
      </trkpt>
      <trkpt lat="45.41315" lon="3.40653">
        <ele>637.2</ele>
        <time>2020-09-17T13:06:32Z</time>
      </trkpt>
      <trkpt lat="45.41315" lon="3.40651">
        <ele>637.2</ele>
        <time>2020-09-17T13:06:33Z</time>
      </trkpt>
      <trkpt lat="45.41315" lon="3.4065">
        <ele>637.1</ele>
        <time>2020-09-17T13:06:34Z</time>
      </trkpt>
      <trkpt lat="45.41315" lon="3.40648">
        <ele>637</ele>
        <time>2020-09-17T13:06:35Z</time>
      </trkpt>
      <trkpt lat="45.41315" lon="3.40646">
        <ele>636.9</ele>
        <time>2020-09-17T13:06:36Z</time>
      </trkpt>
      <trkpt lat="45.41316" lon="3.40645">
        <ele>636.7</ele>
        <time>2020-09-17T13:06:37Z</time>
      </trkpt>
      <trkpt lat="45.41316" lon="3.40643">
        <ele>636.7</ele>
        <time>2020-09-17T13:06:38Z</time>
      </trkpt>
      <trkpt lat="45.41316" lon="3.40642">
        <ele>636.6</ele>
        <time>2020-09-17T13:06:39Z</time>
      </trkpt>
      <trkpt lat="45.41316" lon="3.4064">
        <ele>636.5</ele>
        <time>2020-09-17T13:06:40Z</time>
      </trkpt>
      <trkpt lat="45.41316" lon="3.40638">
        <ele>636.4</ele>
        <time>2020-09-17T13:06:41Z</time>
      </trkpt>
      <trkpt lat="45.41316" lon="3.40637">
        <ele>636.3</ele>
        <time>2020-09-17T13:06:42Z</time>
      </trkpt>
      <trkpt lat="45.41316" lon="3.40635">
        <ele>636.2</ele>
        <time>2020-09-17T13:06:43Z</time>
      </trkpt>
      <trkpt lat="45.41315" lon="3.40634">
        <ele>636.2</ele>
        <time>2020-09-17T13:06:44Z</time>
      </trkpt>
      <trkpt lat="45.41315" lon="3.40632">
        <ele>636.1</ele>
        <time>2020-09-17T13:06:45Z</time>
      </trkpt>
      <trkpt lat="45.41315" lon="3.40631">
        <ele>636.1</ele>
        <time>2020-09-17T13:06:46Z</time>
      </trkpt>
      <trkpt lat="45.41314" lon="3.40629">
        <ele>636.1</ele>
        <time>2020-09-17T13:06:47Z</time>
      </trkpt>
      <trkpt lat="45.41314" lon="3.40628">
        <ele>636.1</ele>
        <time>2020-09-17T13:06:48Z</time>
      </trkpt>
      <trkpt lat="45.41314" lon="3.40627">
        <ele>636.1</ele>
        <time>2020-09-17T13:06:49Z</time>
      </trkpt>
      <trkpt lat="45.41314" lon="3.40625">
        <ele>636</ele>
        <time>2020-09-17T13:06:50Z</time>
      </trkpt>
      <trkpt lat="45.41313" lon="3.40624">
        <ele>636</ele>
        <time>2020-09-17T13:06:51Z</time>
      </trkpt>
      <trkpt lat="45.41313" lon="3.40622">
        <ele>636</ele>
        <time>2020-09-17T13:06:52Z</time>
      </trkpt>
      <trkpt lat="45.41313" lon="3.40621">
        <ele>635.9</ele>
        <time>2020-09-17T13:06:53Z</time>
      </trkpt>
      <trkpt lat="45.41312" lon="3.40619">
        <ele>635.9</ele>
        <time>2020-09-17T13:06:54Z</time>
      </trkpt>
      <trkpt lat="45.41312" lon="3.40618">
        <ele>635.9</ele>
        <time>2020-09-17T13:06:55Z</time>
      </trkpt>
      <trkpt lat="45.41312" lon="3.40617">
        <ele>635.9</ele>
        <time>2020-09-17T13:06:56Z</time>
      </trkpt>
      <trkpt lat="45.41311" lon="3.40615">
        <ele>635.9</ele>
        <time>2020-09-17T13:06:57Z</time>
      </trkpt>
      <trkpt lat="45.41311" lon="3.40614">
        <ele>635.9</ele>
        <time>2020-09-17T13:06:58Z</time>
      </trkpt>
      <trkpt lat="45.4131" lon="3.40613">
        <ele>635.9</ele>
        <time>2020-09-17T13:06:59Z</time>
      </trkpt>
      <trkpt lat="45.4131" lon="3.40611">
        <ele>636</ele>
        <time>2020-09-17T13:07:00Z</time>
      </trkpt>
      <trkpt lat="45.41309" lon="3.4061">
        <ele>636</ele>
        <time>2020-09-17T13:07:01Z</time>
      </trkpt>
      <trkpt lat="45.41309" lon="3.40609">
        <ele>636</ele>
        <time>2020-09-17T13:07:02Z</time>
      </trkpt>
      <trkpt lat="45.41308" lon="3.40607">
        <ele>636</ele>
        <time>2020-09-17T13:07:03Z</time>
      </trkpt>
      <trkpt lat="45.41307" lon="3.40606">
        <ele>636</ele>
        <time>2020-09-17T13:07:04Z</time>
      </trkpt>
      <trkpt lat="45.41307" lon="3.40605">
        <ele>636</ele>
        <time>2020-09-17T13:07:05Z</time>
      </trkpt>
      <trkpt lat="45.41306" lon="3.40603">
        <ele>636.1</ele>
        <time>2020-09-17T13:07:06Z</time>
      </trkpt>
      <trkpt lat="45.41305" lon="3.40602">
        <ele>636.1</ele>
        <time>2020-09-17T13:07:07Z</time>
      </trkpt>
      <trkpt lat="45.41304" lon="3.406">
        <ele>636</ele>
        <time>2020-09-17T13:07:08Z</time>
      </trkpt>
      <trkpt lat="45.41304" lon="3.40599">
        <ele>635.9</ele>
        <time>2020-09-17T13:07:09Z</time>
      </trkpt>
      <trkpt lat="45.41303" lon="3.40598">
        <ele>635.8</ele>
        <time>2020-09-17T13:07:10Z</time>
      </trkpt>
      <trkpt lat="45.41303" lon="3.40596">
        <ele>635.8</ele>
        <time>2020-09-17T13:07:11Z</time>
      </trkpt>
      <trkpt lat="45.41302" lon="3.40595">
        <ele>635.7</ele>
        <time>2020-09-17T13:07:12Z</time>
      </trkpt>
      <trkpt lat="45.41301" lon="3.40593">
        <ele>635.6</ele>
        <time>2020-09-17T13:07:13Z</time>
      </trkpt>
      <trkpt lat="45.41301" lon="3.40592">
        <ele>635.6</ele>
        <time>2020-09-17T13:07:14Z</time>
      </trkpt>
      <trkpt lat="45.413" lon="3.40591">
        <ele>635.5</ele>
        <time>2020-09-17T13:07:15Z</time>
      </trkpt>
      <trkpt lat="45.41299" lon="3.40589">
        <ele>635.5</ele>
        <time>2020-09-17T13:07:16Z</time>
      </trkpt>
      <trkpt lat="45.41299" lon="3.40588">
        <ele>635.4</ele>
        <time>2020-09-17T13:07:17Z</time>
      </trkpt>
      <trkpt lat="45.41298" lon="3.40586">
        <ele>635.4</ele>
        <time>2020-09-17T13:07:18Z</time>
      </trkpt>
      <trkpt lat="45.41298" lon="3.40585">
        <ele>635.3</ele>
        <time>2020-09-17T13:07:19Z</time>
      </trkpt>
      <trkpt lat="45.41297" lon="3.40584">
        <ele>635.3</ele>
        <time>2020-09-17T13:07:20Z</time>
      </trkpt>
      <trkpt lat="45.41297" lon="3.40582">
        <ele>635.2</ele>
        <time>2020-09-17T13:07:21Z</time>
      </trkpt>
      <trkpt lat="45.41296" lon="3.40581">
        <ele>635.1</ele>
        <time>2020-09-17T13:07:22Z</time>
      </trkpt>
      <trkpt lat="45.41295" lon="3.40579">
        <ele>635</ele>
        <time>2020-09-17T13:07:23Z</time>
      </trkpt>
      <trkpt lat="45.41295" lon="3.40578">
        <ele>635</ele>
        <time>2020-09-17T13:07:24Z</time>
      </trkpt>
      <trkpt lat="45.41294" lon="3.40576">
        <ele>634.9</ele>
        <time>2020-09-17T13:07:25Z</time>
      </trkpt>
      <trkpt lat="45.41294" lon="3.40575">
        <ele>634.8</ele>
        <time>2020-09-17T13:07:26Z</time>
      </trkpt>
      <trkpt lat="45.41293" lon="3.40573">
        <ele>634.7</ele>
        <time>2020-09-17T13:07:27Z</time>
      </trkpt>
      <trkpt lat="45.41293" lon="3.40572">
        <ele>634.6</ele>
        <time>2020-09-17T13:07:28Z</time>
      </trkpt>
      <trkpt lat="45.41292" lon="3.4057">
        <ele>634.6</ele>
        <time>2020-09-17T13:07:29Z</time>
      </trkpt>
      <trkpt lat="45.41291" lon="3.40569">
        <ele>634.5</ele>
        <time>2020-09-17T13:07:30Z</time>
      </trkpt>
      <trkpt lat="45.41291" lon="3.40567">
        <ele>634.4</ele>
        <time>2020-09-17T13:07:31Z</time>
      </trkpt>
      <trkpt lat="45.4129" lon="3.40566">
        <ele>634.3</ele>
        <time>2020-09-17T13:07:32Z</time>
      </trkpt>
      <trkpt lat="45.4129" lon="3.40564">
        <ele>634.2</ele>
        <time>2020-09-17T13:07:33Z</time>
      </trkpt>
      <trkpt lat="45.4129" lon="3.40563">
        <ele>634.1</ele>
        <time>2020-09-17T13:07:34Z</time>
      </trkpt>
      <trkpt lat="45.41289" lon="3.40561">
        <ele>634</ele>
        <time>2020-09-17T13:07:35Z</time>
      </trkpt>
      <trkpt lat="45.41289" lon="3.4056">
        <ele>633.9</ele>
        <time>2020-09-17T13:07:36Z</time>
      </trkpt>
      <trkpt lat="45.41288" lon="3.40558">
        <ele>633.8</ele>
        <time>2020-09-17T13:07:37Z</time>
      </trkpt>
      <trkpt lat="45.41288" lon="3.40557">
        <ele>633.6</ele>
        <time>2020-09-17T13:07:38Z</time>
      </trkpt>
      <trkpt lat="45.41288" lon="3.40555">
        <ele>633.5</ele>
        <time>2020-09-17T13:07:39Z</time>
      </trkpt>
      <trkpt lat="45.41287" lon="3.40554">
        <ele>633.4</ele>
        <time>2020-09-17T13:07:40Z</time>
      </trkpt>
      <trkpt lat="45.41287" lon="3.40552">
        <ele>633.3</ele>
        <time>2020-09-17T13:07:41Z</time>
      </trkpt>
      <trkpt lat="45.41287" lon="3.40551">
        <ele>633.2</ele>
        <time>2020-09-17T13:07:42Z</time>
      </trkpt>
      <trkpt lat="45.41286" lon="3.40549">
        <ele>633.1</ele>
        <time>2020-09-17T13:07:43Z</time>
      </trkpt>
      <trkpt lat="45.41286" lon="3.40548">
        <ele>633</ele>
        <time>2020-09-17T13:07:44Z</time>
      </trkpt>
      <trkpt lat="45.41286" lon="3.40546">
        <ele>632.9</ele>
        <time>2020-09-17T13:07:45Z</time>
      </trkpt>
      <trkpt lat="45.41285" lon="3.40545">
        <ele>632.8</ele>
        <time>2020-09-17T13:07:46Z</time>
      </trkpt>
      <trkpt lat="45.41285" lon="3.40543">
        <ele>632.6</ele>
        <time>2020-09-17T13:07:47Z</time>
      </trkpt>
      <trkpt lat="45.41285" lon="3.40542">
        <ele>632.5</ele>
        <time>2020-09-17T13:07:48Z</time>
      </trkpt>
      <trkpt lat="45.41284" lon="3.4054">
        <ele>632.4</ele>
        <time>2020-09-17T13:07:49Z</time>
      </trkpt>
      <trkpt lat="45.41284" lon="3.40539">
        <ele>632.4</ele>
        <time>2020-09-17T13:07:50Z</time>
      </trkpt>
      <trkpt lat="45.41283" lon="3.40537">
        <ele>632.3</ele>
        <time>2020-09-17T13:07:51Z</time>
      </trkpt>
      <trkpt lat="45.41283" lon="3.40536">
        <ele>632.2</ele>
        <time>2020-09-17T13:07:52Z</time>
      </trkpt>
      <trkpt lat="45.41283" lon="3.40535">
        <ele>632</ele>
        <time>2020-09-17T13:07:53Z</time>
      </trkpt>
      <trkpt lat="45.41282" lon="3.40533">
        <ele>631.9</ele>
        <time>2020-09-17T13:07:54Z</time>
      </trkpt>
      <trkpt lat="45.41282" lon="3.40532">
        <ele>631.8</ele>
        <time>2020-09-17T13:07:55Z</time>
      </trkpt>
      <trkpt lat="45.41281" lon="3.4053">
        <ele>631.7</ele>
        <time>2020-09-17T13:07:56Z</time>
      </trkpt>
      <trkpt lat="45.41281" lon="3.40528">
        <ele>631.6</ele>
        <time>2020-09-17T13:07:57Z</time>
      </trkpt>
      <trkpt lat="45.41281" lon="3.40527">
        <ele>631.5</ele>
        <time>2020-09-17T13:07:58Z</time>
      </trkpt>
      <trkpt lat="45.4128" lon="3.40525">
        <ele>631.4</ele>
        <time>2020-09-17T13:07:59Z</time>
      </trkpt>
      <trkpt lat="45.4128" lon="3.40524">
        <ele>631.3</ele>
        <time>2020-09-17T13:08:00Z</time>
      </trkpt>
      <trkpt lat="45.4128" lon="3.40522">
        <ele>631.1</ele>
        <time>2020-09-17T13:08:01Z</time>
      </trkpt>
      <trkpt lat="45.41279" lon="3.40521">
        <ele>631</ele>
        <time>2020-09-17T13:08:02Z</time>
      </trkpt>
      <trkpt lat="45.41279" lon="3.40519">
        <ele>630.9</ele>
        <time>2020-09-17T13:08:03Z</time>
      </trkpt>
      <trkpt lat="45.41278" lon="3.40518">
        <ele>630.9</ele>
        <time>2020-09-17T13:08:04Z</time>
      </trkpt>
      <trkpt lat="45.41278" lon="3.40516">
        <ele>630.8</ele>
        <time>2020-09-17T13:08:05Z</time>
      </trkpt>
      <trkpt lat="45.41277" lon="3.40515">
        <ele>630.7</ele>
        <time>2020-09-17T13:08:06Z</time>
      </trkpt>
      <trkpt lat="45.41277" lon="3.40514">
        <ele>630.5</ele>
        <time>2020-09-17T13:08:07Z</time>
      </trkpt>
      <trkpt lat="45.41276" lon="3.40512">
        <ele>630.4</ele>
        <time>2020-09-17T13:08:08Z</time>
      </trkpt>
      <trkpt lat="45.41276" lon="3.4051">
        <ele>630.3</ele>
        <time>2020-09-17T13:08:09Z</time>
      </trkpt>
      <trkpt lat="45.41275" lon="3.40509">
        <ele>630.1</ele>
        <time>2020-09-17T13:08:10Z</time>
      </trkpt>
      <trkpt lat="45.41275" lon="3.40507">
        <ele>630</ele>
        <time>2020-09-17T13:08:11Z</time>
      </trkpt>
      <trkpt lat="45.41275" lon="3.40506">
        <ele>629.9</ele>
        <time>2020-09-17T13:08:12Z</time>
      </trkpt>
      <trkpt lat="45.41275" lon="3.40504">
        <ele>629.7</ele>
        <time>2020-09-17T13:08:13Z</time>
      </trkpt>
      <trkpt lat="45.41274" lon="3.40503">
        <ele>629.5</ele>
        <time>2020-09-17T13:08:14Z</time>
      </trkpt>
      <trkpt lat="45.41274" lon="3.40501">
        <ele>629.4</ele>
        <time>2020-09-17T13:08:15Z</time>
      </trkpt>
      <trkpt lat="45.41273" lon="3.405">
        <ele>629.3</ele>
        <time>2020-09-17T13:08:16Z</time>
      </trkpt>
      <trkpt lat="45.41273" lon="3.40498">
        <ele>629.2</ele>
        <time>2020-09-17T13:08:17Z</time>
      </trkpt>
      <trkpt lat="45.41273" lon="3.40497">
        <ele>629.1</ele>
        <time>2020-09-17T13:08:18Z</time>
      </trkpt>
      <trkpt lat="45.41272" lon="3.40495">
        <ele>629</ele>
        <time>2020-09-17T13:08:19Z</time>
      </trkpt>
      <trkpt lat="45.41272" lon="3.40494">
        <ele>628.9</ele>
        <time>2020-09-17T13:08:20Z</time>
      </trkpt>
      <trkpt lat="45.41272" lon="3.40492">
        <ele>628.8</ele>
        <time>2020-09-17T13:08:21Z</time>
      </trkpt>
      <trkpt lat="45.41271" lon="3.40491">
        <ele>628.7</ele>
        <time>2020-09-17T13:08:22Z</time>
      </trkpt>
      <trkpt lat="45.41271" lon="3.40489">
        <ele>628.7</ele>
        <time>2020-09-17T13:08:23Z</time>
      </trkpt>
      <trkpt lat="45.4127" lon="3.40488">
        <ele>628.5</ele>
        <time>2020-09-17T13:08:24Z</time>
      </trkpt>
      <trkpt lat="45.4127" lon="3.40486">
        <ele>628.4</ele>
        <time>2020-09-17T13:08:25Z</time>
      </trkpt>
      <trkpt lat="45.4127" lon="3.40485">
        <ele>628.3</ele>
        <time>2020-09-17T13:08:26Z</time>
      </trkpt>
      <trkpt lat="45.41269" lon="3.40483">
        <ele>628.2</ele>
        <time>2020-09-17T13:08:27Z</time>
      </trkpt>
      <trkpt lat="45.41269" lon="3.40482">
        <ele>628.1</ele>
        <time>2020-09-17T13:08:28Z</time>
      </trkpt>
      <trkpt lat="45.41269" lon="3.4048">
        <ele>628</ele>
        <time>2020-09-17T13:08:29Z</time>
      </trkpt>
      <trkpt lat="45.41268" lon="3.40479">
        <ele>627.9</ele>
        <time>2020-09-17T13:08:30Z</time>
      </trkpt>
      <trkpt lat="45.41268" lon="3.40477">
        <ele>627.8</ele>
        <time>2020-09-17T13:08:31Z</time>
      </trkpt>
      <trkpt lat="45.41268" lon="3.40476">
        <ele>627.7</ele>
        <time>2020-09-17T13:08:32Z</time>
      </trkpt>
      <trkpt lat="45.41267" lon="3.40474">
        <ele>627.5</ele>
        <time>2020-09-17T13:08:33Z</time>
      </trkpt>
      <trkpt lat="45.41267" lon="3.40472">
        <ele>627.4</ele>
        <time>2020-09-17T13:08:34Z</time>
      </trkpt>
      <trkpt lat="45.41267" lon="3.40471">
        <ele>627.3</ele>
        <time>2020-09-17T13:08:35Z</time>
      </trkpt>
      <trkpt lat="45.41267" lon="3.40469">
        <ele>627.1</ele>
        <time>2020-09-17T13:08:36Z</time>
      </trkpt>
      <trkpt lat="45.41266" lon="3.40468">
        <ele>627</ele>
        <time>2020-09-17T13:08:37Z</time>
      </trkpt>
      <trkpt lat="45.41266" lon="3.40467">
        <ele>626.9</ele>
        <time>2020-09-17T13:08:38Z</time>
      </trkpt>
      <trkpt lat="45.41266" lon="3.40465">
        <ele>626.8</ele>
        <time>2020-09-17T13:08:39Z</time>
      </trkpt>
      <trkpt lat="45.41265" lon="3.40464">
        <ele>626.7</ele>
        <time>2020-09-17T13:08:40Z</time>
      </trkpt>
      <trkpt lat="45.41265" lon="3.40462">
        <ele>626.5</ele>
        <time>2020-09-17T13:08:41Z</time>
      </trkpt>
      <trkpt lat="45.41265" lon="3.40461">
        <ele>626.4</ele>
        <time>2020-09-17T13:08:42Z</time>
      </trkpt>
      <trkpt lat="45.41264" lon="3.40459">
        <ele>626.3</ele>
        <time>2020-09-17T13:08:43Z</time>
      </trkpt>
      <trkpt lat="45.41264" lon="3.40458">
        <ele>626.2</ele>
        <time>2020-09-17T13:08:44Z</time>
      </trkpt>
      <trkpt lat="45.41264" lon="3.40456">
        <ele>626</ele>
        <time>2020-09-17T13:08:45Z</time>
      </trkpt>
      <trkpt lat="45.41264" lon="3.40454">
        <ele>625.9</ele>
        <time>2020-09-17T13:08:46Z</time>
      </trkpt>
      <trkpt lat="45.41263" lon="3.40453">
        <ele>625.8</ele>
        <time>2020-09-17T13:08:47Z</time>
      </trkpt>
      <trkpt lat="45.41263" lon="3.40451">
        <ele>625.6</ele>
        <time>2020-09-17T13:08:48Z</time>
      </trkpt>
      <trkpt lat="45.41263" lon="3.40449">
        <ele>625.5</ele>
        <time>2020-09-17T13:08:49Z</time>
      </trkpt>
      <trkpt lat="45.41263" lon="3.40448">
        <ele>625.4</ele>
        <time>2020-09-17T13:08:50Z</time>
      </trkpt>
      <trkpt lat="45.41262" lon="3.40446">
        <ele>625.3</ele>
        <time>2020-09-17T13:08:51Z</time>
      </trkpt>
      <trkpt lat="45.41262" lon="3.40445">
        <ele>625.1</ele>
        <time>2020-09-17T13:08:52Z</time>
      </trkpt>
      <trkpt lat="45.41262" lon="3.40443">
        <ele>625</ele>
        <time>2020-09-17T13:08:53Z</time>
      </trkpt>
      <trkpt lat="45.41261" lon="3.40441">
        <ele>624.8</ele>
        <time>2020-09-17T13:08:54Z</time>
      </trkpt>
      <trkpt lat="45.41261" lon="3.4044">
        <ele>624.6</ele>
        <time>2020-09-17T13:08:55Z</time>
      </trkpt>
      <trkpt lat="45.41261" lon="3.40438">
        <ele>624.4</ele>
        <time>2020-09-17T13:08:56Z</time>
      </trkpt>
      <trkpt lat="45.41261" lon="3.40437">
        <ele>624.2</ele>
        <time>2020-09-17T13:08:57Z</time>
      </trkpt>
      <trkpt lat="45.4126" lon="3.40435">
        <ele>624</ele>
        <time>2020-09-17T13:08:58Z</time>
      </trkpt>
      <trkpt lat="45.4126" lon="3.40433">
        <ele>623.8</ele>
        <time>2020-09-17T13:08:59Z</time>
      </trkpt>
      <trkpt lat="45.4126" lon="3.40432">
        <ele>623.6</ele>
        <time>2020-09-17T13:09:00Z</time>
      </trkpt>
      <trkpt lat="45.41259" lon="3.4043">
        <ele>623.4</ele>
        <time>2020-09-17T13:09:01Z</time>
      </trkpt>
      <trkpt lat="45.41259" lon="3.40429">
        <ele>623.3</ele>
        <time>2020-09-17T13:09:02Z</time>
      </trkpt>
      <trkpt lat="45.41259" lon="3.40427">
        <ele>623.1</ele>
        <time>2020-09-17T13:09:03Z</time>
      </trkpt>
      <trkpt lat="45.41259" lon="3.40426">
        <ele>622.9</ele>
        <time>2020-09-17T13:09:04Z</time>
      </trkpt>
      <trkpt lat="45.41258" lon="3.40424">
        <ele>622.7</ele>
        <time>2020-09-17T13:09:05Z</time>
      </trkpt>
      <trkpt lat="45.41258" lon="3.40422">
        <ele>622.5</ele>
        <time>2020-09-17T13:09:06Z</time>
      </trkpt>
      <trkpt lat="45.41258" lon="3.40421">
        <ele>622.3</ele>
        <time>2020-09-17T13:09:07Z</time>
      </trkpt>
      <trkpt lat="45.41257" lon="3.40419">
        <ele>622.1</ele>
        <time>2020-09-17T13:09:08Z</time>
      </trkpt>
      <trkpt lat="45.41257" lon="3.40418">
        <ele>621.9</ele>
        <time>2020-09-17T13:09:09Z</time>
      </trkpt>
      <trkpt lat="45.41257" lon="3.40416">
        <ele>621.7</ele>
        <time>2020-09-17T13:09:10Z</time>
      </trkpt>
      <trkpt lat="45.41257" lon="3.40414">
        <ele>621.6</ele>
        <time>2020-09-17T13:09:11Z</time>
      </trkpt>
      <trkpt lat="45.41257" lon="3.40413">
        <ele>621.6</ele>
        <time>2020-09-17T13:09:12Z</time>
      </trkpt>
      <trkpt lat="45.41256" lon="3.40411">
        <ele>621.5</ele>
        <time>2020-09-17T13:09:13Z</time>
      </trkpt>
      <trkpt lat="45.41256" lon="3.40409">
        <ele>621.4</ele>
        <time>2020-09-17T13:09:14Z</time>
      </trkpt>
      <trkpt lat="45.41256" lon="3.40408">
        <ele>621.3</ele>
        <time>2020-09-17T13:09:15Z</time>
      </trkpt>
      <trkpt lat="45.41256" lon="3.40406">
        <ele>621.2</ele>
        <time>2020-09-17T13:09:16Z</time>
      </trkpt>
      <trkpt lat="45.41256" lon="3.40404">
        <ele>621.2</ele>
        <time>2020-09-17T13:09:17Z</time>
      </trkpt>
      <trkpt lat="45.41256" lon="3.40402">
        <ele>621.1</ele>
        <time>2020-09-17T13:09:18Z</time>
      </trkpt>
      <trkpt lat="45.41256" lon="3.40401">
        <ele>621</ele>
        <time>2020-09-17T13:09:19Z</time>
      </trkpt>
      <trkpt lat="45.41256" lon="3.40399">
        <ele>620.9</ele>
        <time>2020-09-17T13:09:20Z</time>
      </trkpt>
      <trkpt lat="45.41255" lon="3.40398">
        <ele>620.9</ele>
        <time>2020-09-17T13:09:21Z</time>
      </trkpt>
      <trkpt lat="45.41255" lon="3.40396">
        <ele>620.8</ele>
        <time>2020-09-17T13:09:22Z</time>
      </trkpt>
      <trkpt lat="45.41255" lon="3.40394">
        <ele>620.7</ele>
        <time>2020-09-17T13:09:23Z</time>
      </trkpt>
      <trkpt lat="45.41255" lon="3.40393">
        <ele>620.6</ele>
        <time>2020-09-17T13:09:24Z</time>
      </trkpt>
      <trkpt lat="45.41255" lon="3.40391">
        <ele>620.6</ele>
        <time>2020-09-17T13:09:25Z</time>
      </trkpt>
      <trkpt lat="45.41255" lon="3.40389">
        <ele>620.5</ele>
        <time>2020-09-17T13:09:26Z</time>
      </trkpt>
      <trkpt lat="45.41255" lon="3.40387">
        <ele>620.6</ele>
        <time>2020-09-17T13:09:27Z</time>
      </trkpt>
      <trkpt lat="45.41255" lon="3.40386">
        <ele>620.8</ele>
        <time>2020-09-17T13:09:28Z</time>
      </trkpt>
      <trkpt lat="45.41255" lon="3.40384">
        <ele>620.9</ele>
        <time>2020-09-17T13:09:29Z</time>
      </trkpt>
      <trkpt lat="45.41255" lon="3.40383">
        <ele>621.1</ele>
        <time>2020-09-17T13:09:30Z</time>
      </trkpt>
      <trkpt lat="45.41255" lon="3.40381">
        <ele>621.2</ele>
        <time>2020-09-17T13:09:31Z</time>
      </trkpt>
      <trkpt lat="45.41255" lon="3.40379">
        <ele>621.4</ele>
        <time>2020-09-17T13:09:32Z</time>
      </trkpt>
      <trkpt lat="45.41255" lon="3.40378">
        <ele>621.5</ele>
        <time>2020-09-17T13:09:33Z</time>
      </trkpt>
      <trkpt lat="45.41255" lon="3.40376">
        <ele>621.6</ele>
        <time>2020-09-17T13:09:34Z</time>
      </trkpt>
      <trkpt lat="45.41255" lon="3.40374">
        <ele>621.8</ele>
        <time>2020-09-17T13:09:35Z</time>
      </trkpt>
      <trkpt lat="45.41255" lon="3.40373">
        <ele>621.9</ele>
        <time>2020-09-17T13:09:36Z</time>
      </trkpt>
      <trkpt lat="45.41255" lon="3.40371">
        <ele>622</ele>
        <time>2020-09-17T13:09:37Z</time>
      </trkpt>
      <trkpt lat="45.41256" lon="3.40369">
        <ele>622.1</ele>
        <time>2020-09-17T13:09:38Z</time>
      </trkpt>
      <trkpt lat="45.41256" lon="3.40368">
        <ele>622.2</ele>
        <time>2020-09-17T13:09:39Z</time>
      </trkpt>
      <trkpt lat="45.41256" lon="3.40366">
        <ele>622.2</ele>
        <time>2020-09-17T13:09:40Z</time>
      </trkpt>
      <trkpt lat="45.41257" lon="3.40365">
        <ele>622.3</ele>
        <time>2020-09-17T13:09:41Z</time>
      </trkpt>
      <trkpt lat="45.41257" lon="3.40364">
        <ele>622.4</ele>
        <time>2020-09-17T13:09:42Z</time>
      </trkpt>
      <trkpt lat="45.41257" lon="3.40363">
        <ele>622.4</ele>
        <time>2020-09-17T13:09:43Z</time>
      </trkpt>
      <trkpt lat="45.41257" lon="3.40361">
        <ele>622.4</ele>
        <time>2020-09-17T13:09:44Z</time>
      </trkpt>
      <trkpt lat="45.41258" lon="3.4036">
        <ele>622.4</ele>
        <time>2020-09-17T13:09:45Z</time>
      </trkpt>
      <trkpt lat="45.41258" lon="3.40359">
        <ele>622.4</ele>
        <time>2020-09-17T13:09:46Z</time>
      </trkpt>
      <trkpt lat="45.41258" lon="3.40358">
        <ele>622.4</ele>
        <time>2020-09-17T13:09:47Z</time>
      </trkpt>
      <trkpt lat="45.41258" lon="3.40356">
        <ele>622.4</ele>
        <time>2020-09-17T13:09:48Z</time>
      </trkpt>
      <trkpt lat="45.41259" lon="3.40355">
        <ele>622.4</ele>
        <time>2020-09-17T13:09:49Z</time>
      </trkpt>
      <trkpt lat="45.41259" lon="3.40354">
        <ele>622.5</ele>
        <time>2020-09-17T13:09:50Z</time>
      </trkpt>
      <trkpt lat="45.41259" lon="3.40353">
        <ele>622.6</ele>
        <time>2020-09-17T13:09:51Z</time>
      </trkpt>
      <trkpt lat="45.41259" lon="3.40352">
        <ele>622.6</ele>
        <time>2020-09-17T13:09:52Z</time>
      </trkpt>
      <trkpt lat="45.41258" lon="3.40351">
        <ele>622.7</ele>
        <time>2020-09-17T13:09:53Z</time>
      </trkpt>
      <trkpt lat="45.41258" lon="3.40349">
        <ele>622.8</ele>
        <time>2020-09-17T13:09:54Z</time>
      </trkpt>
      <trkpt lat="45.41258" lon="3.40348">
        <ele>622.9</ele>
        <time>2020-09-17T13:09:55Z</time>
      </trkpt>
      <trkpt lat="45.41257" lon="3.40347">
        <ele>623</ele>
        <time>2020-09-17T13:09:56Z</time>
      </trkpt>
      <trkpt lat="45.41257" lon="3.40346">
        <ele>623.2</ele>
        <time>2020-09-17T13:09:57Z</time>
      </trkpt>
      <trkpt lat="45.41256" lon="3.40345">
        <ele>623.3</ele>
        <time>2020-09-17T13:09:58Z</time>
      </trkpt>
      <trkpt lat="45.41256" lon="3.40344">
        <ele>623.5</ele>
        <time>2020-09-17T13:09:59Z</time>
      </trkpt>
      <trkpt lat="45.41255" lon="3.40343">
        <ele>623.7</ele>
        <time>2020-09-17T13:10:00Z</time>
      </trkpt>
      <trkpt lat="45.41254" lon="3.40342">
        <ele>623.9</ele>
        <time>2020-09-17T13:10:01Z</time>
      </trkpt>
      <trkpt lat="45.41254" lon="3.40341">
        <ele>624</ele>
        <time>2020-09-17T13:10:02Z</time>
      </trkpt>
      <trkpt lat="45.41253" lon="3.40341">
        <ele>624.2</ele>
        <time>2020-09-17T13:10:03Z</time>
      </trkpt>
      <trkpt lat="45.41252" lon="3.4034">
        <ele>624.4</ele>
        <time>2020-09-17T13:10:04Z</time>
      </trkpt>
      <trkpt lat="45.41251" lon="3.40339">
        <ele>624.6</ele>
        <time>2020-09-17T13:10:05Z</time>
      </trkpt>
      <trkpt lat="45.4125" lon="3.40339">
        <ele>624.7</ele>
        <time>2020-09-17T13:10:06Z</time>
      </trkpt>
      <trkpt lat="45.4125" lon="3.40338">
        <ele>624.9</ele>
        <time>2020-09-17T13:10:07Z</time>
      </trkpt>
      <trkpt lat="45.41249" lon="3.40337">
        <ele>625</ele>
        <time>2020-09-17T13:10:08Z</time>
      </trkpt>
      <trkpt lat="45.41248" lon="3.40337">
        <ele>625.2</ele>
        <time>2020-09-17T13:10:09Z</time>
      </trkpt>
      <trkpt lat="45.41247" lon="3.40336">
        <ele>625.3</ele>
        <time>2020-09-17T13:10:10Z</time>
      </trkpt>
      <trkpt lat="45.41246" lon="3.40335">
        <ele>625.5</ele>
        <time>2020-09-17T13:10:11Z</time>
      </trkpt>
      <trkpt lat="45.41245" lon="3.40335">
        <ele>625.6</ele>
        <time>2020-09-17T13:10:12Z</time>
      </trkpt>
      <trkpt lat="45.41245" lon="3.40334">
        <ele>625.8</ele>
        <time>2020-09-17T13:10:13Z</time>
      </trkpt>
      <trkpt lat="45.41244" lon="3.40334">
        <ele>625.9</ele>
        <time>2020-09-17T13:10:14Z</time>
      </trkpt>
      <trkpt lat="45.41243" lon="3.40333">
        <ele>626.1</ele>
        <time>2020-09-17T13:10:15Z</time>
      </trkpt>
      <trkpt lat="45.41242" lon="3.40333">
        <ele>626.2</ele>
        <time>2020-09-17T13:10:16Z</time>
      </trkpt>
      <trkpt lat="45.41241" lon="3.40332">
        <ele>626.3</ele>
        <time>2020-09-17T13:10:17Z</time>
      </trkpt>
      <trkpt lat="45.4124" lon="3.40332">
        <ele>626.4</ele>
        <time>2020-09-17T13:10:18Z</time>
      </trkpt>
      <trkpt lat="45.41239" lon="3.40331">
        <ele>626.6</ele>
        <time>2020-09-17T13:10:19Z</time>
      </trkpt>
      <trkpt lat="45.41238" lon="3.40331">
        <ele>626.7</ele>
        <time>2020-09-17T13:10:20Z</time>
      </trkpt>
      <trkpt lat="45.41238" lon="3.4033">
        <ele>626.8</ele>
        <time>2020-09-17T13:10:21Z</time>
      </trkpt>
      <trkpt lat="45.41237" lon="3.40329">
        <ele>626.9</ele>
        <time>2020-09-17T13:10:22Z</time>
      </trkpt>
      <trkpt lat="45.41236" lon="3.40329">
        <ele>627</ele>
        <time>2020-09-17T13:10:23Z</time>
      </trkpt>
      <trkpt lat="45.41235" lon="3.40328">
        <ele>627.1</ele>
        <time>2020-09-17T13:10:24Z</time>
      </trkpt>
      <trkpt lat="45.41235" lon="3.40327">
        <ele>627.2</ele>
        <time>2020-09-17T13:10:25Z</time>
      </trkpt>
      <trkpt lat="45.41234" lon="3.40326">
        <ele>627.4</ele>
        <time>2020-09-17T13:10:26Z</time>
      </trkpt>
      <trkpt lat="45.41233" lon="3.40325">
        <ele>627.5</ele>
        <time>2020-09-17T13:10:27Z</time>
      </trkpt>
      <trkpt lat="45.41232" lon="3.40324">
        <ele>627.6</ele>
        <time>2020-09-17T13:10:28Z</time>
      </trkpt>
      <trkpt lat="45.41232" lon="3.40324">
        <ele>627.7</ele>
        <time>2020-09-17T13:10:29Z</time>
      </trkpt>
      <trkpt lat="45.41231" lon="3.40323">
        <ele>627.8</ele>
        <time>2020-09-17T13:10:30Z</time>
      </trkpt>
      <trkpt lat="45.4123" lon="3.40322">
        <ele>627.9</ele>
        <time>2020-09-17T13:10:31Z</time>
      </trkpt>
      <trkpt lat="45.4123" lon="3.40322">
        <ele>628</ele>
        <time>2020-09-17T13:10:32Z</time>
      </trkpt>
      <trkpt lat="45.41229" lon="3.40321">
        <ele>628</ele>
        <time>2020-09-17T13:10:33Z</time>
      </trkpt>
      <trkpt lat="45.41228" lon="3.4032">
        <ele>628.2</ele>
        <time>2020-09-17T13:10:34Z</time>
      </trkpt>
      <trkpt lat="45.41227" lon="3.4032">
        <ele>628.3</ele>
        <time>2020-09-17T13:10:35Z</time>
      </trkpt>
      <trkpt lat="45.41226" lon="3.40319">
        <ele>628.4</ele>
        <time>2020-09-17T13:10:36Z</time>
      </trkpt>
      <trkpt lat="45.41226" lon="3.40318">
        <ele>628.5</ele>
        <time>2020-09-17T13:10:37Z</time>
      </trkpt>
      <trkpt lat="45.41225" lon="3.40318">
        <ele>628.6</ele>
        <time>2020-09-17T13:10:38Z</time>
      </trkpt>
      <trkpt lat="45.41224" lon="3.40317">
        <ele>628.8</ele>
        <time>2020-09-17T13:10:39Z</time>
      </trkpt>
      <trkpt lat="45.41223" lon="3.40316">
        <ele>628.9</ele>
        <time>2020-09-17T13:10:40Z</time>
      </trkpt>
      <trkpt lat="45.41222" lon="3.40316">
        <ele>629</ele>
        <time>2020-09-17T13:10:41Z</time>
      </trkpt>
      <trkpt lat="45.41221" lon="3.40315">
        <ele>629.2</ele>
        <time>2020-09-17T13:10:42Z</time>
      </trkpt>
      <trkpt lat="45.4122" lon="3.40314">
        <ele>629.3</ele>
        <time>2020-09-17T13:10:43Z</time>
      </trkpt>
      <trkpt lat="45.41219" lon="3.40313">
        <ele>629.4</ele>
        <time>2020-09-17T13:10:44Z</time>
      </trkpt>
      <trkpt lat="45.41219" lon="3.40312">
        <ele>629.5</ele>
        <time>2020-09-17T13:10:45Z</time>
      </trkpt>
      <trkpt lat="45.41218" lon="3.40311">
        <ele>629.7</ele>
        <time>2020-09-17T13:10:46Z</time>
      </trkpt>
      <trkpt lat="45.41217" lon="3.4031">
        <ele>629.8</ele>
        <time>2020-09-17T13:10:47Z</time>
      </trkpt>
      <trkpt lat="45.41216" lon="3.40309">
        <ele>629.9</ele>
        <time>2020-09-17T13:10:48Z</time>
      </trkpt>
      <trkpt lat="45.41215" lon="3.40308">
        <ele>630</ele>
        <time>2020-09-17T13:10:49Z</time>
      </trkpt>
      <trkpt lat="45.41215" lon="3.40307">
        <ele>630.1</ele>
        <time>2020-09-17T13:10:50Z</time>
      </trkpt>
      <trkpt lat="45.41214" lon="3.40306">
        <ele>630.2</ele>
        <time>2020-09-17T13:10:51Z</time>
      </trkpt>
      <trkpt lat="45.41213" lon="3.40305">
        <ele>630.3</ele>
        <time>2020-09-17T13:10:52Z</time>
      </trkpt>
      <trkpt lat="45.41212" lon="3.40304">
        <ele>630.4</ele>
        <time>2020-09-17T13:10:53Z</time>
      </trkpt>
      <trkpt lat="45.41211" lon="3.40303">
        <ele>630.5</ele>
        <time>2020-09-17T13:10:54Z</time>
      </trkpt>
      <trkpt lat="45.4121" lon="3.40302">
        <ele>630.6</ele>
        <time>2020-09-17T13:10:55Z</time>
      </trkpt>
      <trkpt lat="45.41209" lon="3.40301">
        <ele>630.7</ele>
        <time>2020-09-17T13:10:56Z</time>
      </trkpt>
      <trkpt lat="45.41209" lon="3.403">
        <ele>630.8</ele>
        <time>2020-09-17T13:10:57Z</time>
      </trkpt>
      <trkpt lat="45.41208" lon="3.40298">
        <ele>630.9</ele>
        <time>2020-09-17T13:10:58Z</time>
      </trkpt>
      <trkpt lat="45.41207" lon="3.40297">
        <ele>630.9</ele>
        <time>2020-09-17T13:10:59Z</time>
      </trkpt>
      <trkpt lat="45.41206" lon="3.40296">
        <ele>631</ele>
        <time>2020-09-17T13:11:00Z</time>
      </trkpt>
      <trkpt lat="45.41205" lon="3.40295">
        <ele>631.1</ele>
        <time>2020-09-17T13:11:01Z</time>
      </trkpt>
      <trkpt lat="45.41204" lon="3.40294">
        <ele>631.2</ele>
        <time>2020-09-17T13:11:02Z</time>
      </trkpt>
      <trkpt lat="45.41203" lon="3.40293">
        <ele>631.3</ele>
        <time>2020-09-17T13:11:03Z</time>
      </trkpt>
      <trkpt lat="45.41203" lon="3.40292">
        <ele>631.3</ele>
        <time>2020-09-17T13:11:04Z</time>
      </trkpt>
      <trkpt lat="45.41202" lon="3.40291">
        <ele>631.4</ele>
        <time>2020-09-17T13:11:05Z</time>
      </trkpt>
      <trkpt lat="45.41201" lon="3.40289">
        <ele>631.5</ele>
        <time>2020-09-17T13:11:06Z</time>
      </trkpt>
      <trkpt lat="45.412" lon="3.40288">
        <ele>631.5</ele>
        <time>2020-09-17T13:11:07Z</time>
      </trkpt>
      <trkpt lat="45.41199" lon="3.40287">
        <ele>631.6</ele>
        <time>2020-09-17T13:11:08Z</time>
      </trkpt>
      <trkpt lat="45.41198" lon="3.40286">
        <ele>631.7</ele>
        <time>2020-09-17T13:11:09Z</time>
      </trkpt>
      <trkpt lat="45.41198" lon="3.40286">
        <ele>631.8</ele>
        <time>2020-09-17T13:11:10Z</time>
      </trkpt>
      <trkpt lat="45.41197" lon="3.40285">
        <ele>632</ele>
        <time>2020-09-17T13:11:11Z</time>
      </trkpt>
      <trkpt lat="45.41196" lon="3.40284">
        <ele>632.1</ele>
        <time>2020-09-17T13:11:12Z</time>
      </trkpt>
      <trkpt lat="45.41195" lon="3.40283">
        <ele>632.2</ele>
        <time>2020-09-17T13:11:13Z</time>
      </trkpt>
      <trkpt lat="45.41194" lon="3.40283">
        <ele>632.3</ele>
        <time>2020-09-17T13:11:14Z</time>
      </trkpt>
      <trkpt lat="45.41193" lon="3.40282">
        <ele>632.4</ele>
        <time>2020-09-17T13:11:15Z</time>
      </trkpt>
      <trkpt lat="45.41192" lon="3.40281">
        <ele>632.4</ele>
        <time>2020-09-17T13:11:16Z</time>
      </trkpt>
      <trkpt lat="45.41191" lon="3.4028">
        <ele>632.5</ele>
        <time>2020-09-17T13:11:17Z</time>
      </trkpt>
      <trkpt lat="45.4119" lon="3.40279">
        <ele>632.5</ele>
        <time>2020-09-17T13:11:18Z</time>
      </trkpt>
      <trkpt lat="45.41189" lon="3.40278">
        <ele>632.6</ele>
        <time>2020-09-17T13:11:19Z</time>
      </trkpt>
      <trkpt lat="45.41188" lon="3.40277">
        <ele>632.6</ele>
        <time>2020-09-17T13:11:20Z</time>
      </trkpt>
      <trkpt lat="45.41187" lon="3.40276">
        <ele>632.7</ele>
        <time>2020-09-17T13:11:21Z</time>
      </trkpt>
      <trkpt lat="45.41186" lon="3.40276">
        <ele>632.7</ele>
        <time>2020-09-17T13:11:22Z</time>
      </trkpt>
      <trkpt lat="45.41186" lon="3.40275">
        <ele>632.7</ele>
        <time>2020-09-17T13:11:23Z</time>
      </trkpt>
      <trkpt lat="45.41185" lon="3.40274">
        <ele>632.8</ele>
        <time>2020-09-17T13:11:24Z</time>
      </trkpt>
      <trkpt lat="45.41184" lon="3.40273">
        <ele>632.8</ele>
        <time>2020-09-17T13:11:25Z</time>
      </trkpt>
      <trkpt lat="45.41183" lon="3.40272">
        <ele>632.9</ele>
        <time>2020-09-17T13:11:26Z</time>
      </trkpt>
      <trkpt lat="45.41182" lon="3.40271">
        <ele>632.9</ele>
        <time>2020-09-17T13:11:27Z</time>
      </trkpt>
      <trkpt lat="45.41181" lon="3.4027">
        <ele>633</ele>
        <time>2020-09-17T13:11:28Z</time>
      </trkpt>
      <trkpt lat="45.4118" lon="3.4027">
        <ele>633</ele>
        <time>2020-09-17T13:11:29Z</time>
      </trkpt>
      <trkpt lat="45.41179" lon="3.40269">
        <ele>633.1</ele>
        <time>2020-09-17T13:11:30Z</time>
      </trkpt>
      <trkpt lat="45.41178" lon="3.40268">
        <ele>633.1</ele>
        <time>2020-09-17T13:11:31Z</time>
      </trkpt>
      <trkpt lat="45.41177" lon="3.40268">
        <ele>633.2</ele>
        <time>2020-09-17T13:11:32Z</time>
      </trkpt>
      <trkpt lat="45.41176" lon="3.40267">
        <ele>633.3</ele>
        <time>2020-09-17T13:11:33Z</time>
      </trkpt>
      <trkpt lat="45.41175" lon="3.40266">
        <ele>633.3</ele>
        <time>2020-09-17T13:11:34Z</time>
      </trkpt>
      <trkpt lat="45.41174" lon="3.40266">
        <ele>633.4</ele>
        <time>2020-09-17T13:11:35Z</time>
      </trkpt>
      <trkpt lat="45.41172" lon="3.40265">
        <ele>633.4</ele>
        <time>2020-09-17T13:11:36Z</time>
      </trkpt>
      <trkpt lat="45.41171" lon="3.40264">
        <ele>633.5</ele>
        <time>2020-09-17T13:11:37Z</time>
      </trkpt>
      <trkpt lat="45.4117" lon="3.40263">
        <ele>633.6</ele>
        <time>2020-09-17T13:11:38Z</time>
      </trkpt>
      <trkpt lat="45.41169" lon="3.40263">
        <ele>633.6</ele>
        <time>2020-09-17T13:11:39Z</time>
      </trkpt>
      <trkpt lat="45.41168" lon="3.40262">
        <ele>633.7</ele>
        <time>2020-09-17T13:11:40Z</time>
      </trkpt>
      <trkpt lat="45.41167" lon="3.40261">
        <ele>633.8</ele>
        <time>2020-09-17T13:11:41Z</time>
      </trkpt>
      <trkpt lat="45.41166" lon="3.40261">
        <ele>633.9</ele>
        <time>2020-09-17T13:11:42Z</time>
      </trkpt>
      <trkpt lat="45.41165" lon="3.4026">
        <ele>633.9</ele>
        <time>2020-09-17T13:11:43Z</time>
      </trkpt>
      <trkpt lat="45.41164" lon="3.4026">
        <ele>634</ele>
        <time>2020-09-17T13:11:44Z</time>
      </trkpt>
      <trkpt lat="45.41163" lon="3.40259">
        <ele>634.1</ele>
        <time>2020-09-17T13:11:45Z</time>
      </trkpt>
      <trkpt lat="45.41161" lon="3.40259">
        <ele>634.2</ele>
        <time>2020-09-17T13:11:46Z</time>
      </trkpt>
      <trkpt lat="45.4116" lon="3.40259">
        <ele>634.3</ele>
        <time>2020-09-17T13:11:47Z</time>
      </trkpt>
      <trkpt lat="45.41159" lon="3.40259">
        <ele>634.4</ele>
        <time>2020-09-17T13:11:48Z</time>
      </trkpt>
      <trkpt lat="45.41158" lon="3.40258">
        <ele>634.5</ele>
        <time>2020-09-17T13:11:49Z</time>
      </trkpt>
      <trkpt lat="45.41157" lon="3.40258">
        <ele>634.6</ele>
        <time>2020-09-17T13:11:50Z</time>
      </trkpt>
      <trkpt lat="45.41155" lon="3.40257">
        <ele>634.7</ele>
        <time>2020-09-17T13:11:51Z</time>
      </trkpt>
      <trkpt lat="45.41154" lon="3.40257">
        <ele>634.8</ele>
        <time>2020-09-17T13:11:52Z</time>
      </trkpt>
      <trkpt lat="45.41153" lon="3.40257">
        <ele>634.9</ele>
        <time>2020-09-17T13:11:53Z</time>
      </trkpt>
      <trkpt lat="45.41152" lon="3.40256">
        <ele>635</ele>
        <time>2020-09-17T13:11:54Z</time>
      </trkpt>
      <trkpt lat="45.41151" lon="3.40256">
        <ele>635.1</ele>
        <time>2020-09-17T13:11:55Z</time>
      </trkpt>
      <trkpt lat="45.4115" lon="3.40256">
        <ele>635.2</ele>
        <time>2020-09-17T13:11:56Z</time>
      </trkpt>
      <trkpt lat="45.41149" lon="3.40255">
        <ele>635.3</ele>
        <time>2020-09-17T13:11:57Z</time>
      </trkpt>
      <trkpt lat="45.41148" lon="3.40255">
        <ele>635.3</ele>
        <time>2020-09-17T13:11:58Z</time>
      </trkpt>
      <trkpt lat="45.41147" lon="3.40254">
        <ele>635.4</ele>
        <time>2020-09-17T13:11:59Z</time>
      </trkpt>
      <trkpt lat="45.41146" lon="3.40254">
        <ele>635.5</ele>
        <time>2020-09-17T13:12:00Z</time>
      </trkpt>
      <trkpt lat="45.41145" lon="3.40253">
        <ele>635.6</ele>
        <time>2020-09-17T13:12:01Z</time>
      </trkpt>
      <trkpt lat="45.41144" lon="3.40253">
        <ele>635.7</ele>
        <time>2020-09-17T13:12:02Z</time>
      </trkpt>
      <trkpt lat="45.41143" lon="3.40252">
        <ele>635.7</ele>
        <time>2020-09-17T13:12:03Z</time>
      </trkpt>
      <trkpt lat="45.41142" lon="3.40251">
        <ele>635.8</ele>
        <time>2020-09-17T13:12:04Z</time>
      </trkpt>
      <trkpt lat="45.41141" lon="3.40251">
        <ele>635.9</ele>
        <time>2020-09-17T13:12:05Z</time>
      </trkpt>
      <trkpt lat="45.4114" lon="3.4025">
        <ele>635.9</ele>
        <time>2020-09-17T13:12:06Z</time>
      </trkpt>
      <trkpt lat="45.41139" lon="3.4025">
        <ele>635.9</ele>
        <time>2020-09-17T13:12:07Z</time>
      </trkpt>
      <trkpt lat="45.41138" lon="3.40249">
        <ele>636</ele>
        <time>2020-09-17T13:12:08Z</time>
      </trkpt>
      <trkpt lat="45.41136" lon="3.40249">
        <ele>636</ele>
        <time>2020-09-17T13:12:09Z</time>
      </trkpt>
      <trkpt lat="45.41135" lon="3.40248">
        <ele>636</ele>
        <time>2020-09-17T13:12:10Z</time>
      </trkpt>
      <trkpt lat="45.41134" lon="3.40248">
        <ele>636</ele>
        <time>2020-09-17T13:12:11Z</time>
      </trkpt>
      <trkpt lat="45.41133" lon="3.40247">
        <ele>636.1</ele>
        <time>2020-09-17T13:12:12Z</time>
      </trkpt>
      <trkpt lat="45.41132" lon="3.40247">
        <ele>636.1</ele>
        <time>2020-09-17T13:12:13Z</time>
      </trkpt>
      <trkpt lat="45.41131" lon="3.40246">
        <ele>636.1</ele>
        <time>2020-09-17T13:12:14Z</time>
      </trkpt>
      <trkpt lat="45.4113" lon="3.40246">
        <ele>636.1</ele>
        <time>2020-09-17T13:12:15Z</time>
      </trkpt>
      <trkpt lat="45.41129" lon="3.40245">
        <ele>636.1</ele>
        <time>2020-09-17T13:12:16Z</time>
      </trkpt>
      <trkpt lat="45.41128" lon="3.40245">
        <ele>636.1</ele>
        <time>2020-09-17T13:12:17Z</time>
      </trkpt>
      <trkpt lat="45.41126" lon="3.40244">
        <ele>636.2</ele>
        <time>2020-09-17T13:12:18Z</time>
      </trkpt>
      <trkpt lat="45.41125" lon="3.40244">
        <ele>636.2</ele>
        <time>2020-09-17T13:12:19Z</time>
      </trkpt>
      <trkpt lat="45.41124" lon="3.40244">
        <ele>636.2</ele>
        <time>2020-09-17T13:12:20Z</time>
      </trkpt>
      <trkpt lat="45.41123" lon="3.40243">
        <ele>636.3</ele>
        <time>2020-09-17T13:12:21Z</time>
      </trkpt>
      <trkpt lat="45.41122" lon="3.40243">
        <ele>636.3</ele>
        <time>2020-09-17T13:12:22Z</time>
      </trkpt>
      <trkpt lat="45.41122" lon="3.40243">
        <ele>636.4</ele>
        <time>2020-09-17T13:12:23Z</time>
      </trkpt>
      <trkpt lat="45.41121" lon="3.40243">
        <ele>636.5</ele>
        <time>2020-09-17T13:12:24Z</time>
      </trkpt>
      <trkpt lat="45.4112" lon="3.40243">
        <ele>636.6</ele>
        <time>2020-09-17T13:12:25Z</time>
      </trkpt>
      <trkpt lat="45.41119" lon="3.40244">
        <ele>636.7</ele>
        <time>2020-09-17T13:12:26Z</time>
      </trkpt>
      <trkpt lat="45.41119" lon="3.40244">
        <ele>636.8</ele>
        <time>2020-09-17T13:12:27Z</time>
      </trkpt>
      <trkpt lat="45.41118" lon="3.40245">
        <ele>636.9</ele>
        <time>2020-09-17T13:12:28Z</time>
      </trkpt>
      <trkpt lat="45.41117" lon="3.40245">
        <ele>637</ele>
        <time>2020-09-17T13:12:29Z</time>
      </trkpt>
      <trkpt lat="45.41116" lon="3.40245">
        <ele>637.1</ele>
        <time>2020-09-17T13:12:30Z</time>
      </trkpt>
      <trkpt lat="45.41115" lon="3.40246">
        <ele>637.2</ele>
        <time>2020-09-17T13:12:31Z</time>
      </trkpt>
      <trkpt lat="45.41115" lon="3.40246">
        <ele>637.3</ele>
        <time>2020-09-17T13:12:32Z</time>
      </trkpt>
      <trkpt lat="45.41114" lon="3.40247">
        <ele>637.4</ele>
        <time>2020-09-17T13:12:33Z</time>
      </trkpt>
      <trkpt lat="45.41113" lon="3.40247">
        <ele>637.5</ele>
        <time>2020-09-17T13:12:34Z</time>
      </trkpt>
      <trkpt lat="45.41113" lon="3.40248">
        <ele>637.7</ele>
        <time>2020-09-17T13:12:35Z</time>
      </trkpt>
      <trkpt lat="45.41112" lon="3.40249">
        <ele>637.8</ele>
        <time>2020-09-17T13:12:36Z</time>
      </trkpt>
      <trkpt lat="45.41111" lon="3.40249">
        <ele>637.9</ele>
        <time>2020-09-17T13:12:37Z</time>
      </trkpt>
      <trkpt lat="45.41111" lon="3.4025">
        <ele>638.1</ele>
        <time>2020-09-17T13:12:38Z</time>
      </trkpt>
      <trkpt lat="45.4111" lon="3.40251">
        <ele>638.2</ele>
        <time>2020-09-17T13:12:39Z</time>
      </trkpt>
      <trkpt lat="45.41109" lon="3.40252">
        <ele>638.3</ele>
        <time>2020-09-17T13:12:40Z</time>
      </trkpt>
      <trkpt lat="45.41109" lon="3.40253">
        <ele>638.5</ele>
        <time>2020-09-17T13:12:41Z</time>
      </trkpt>
      <trkpt lat="45.41108" lon="3.40254">
        <ele>638.7</ele>
        <time>2020-09-17T13:12:42Z</time>
      </trkpt>
      <trkpt lat="45.41107" lon="3.40255">
        <ele>638.8</ele>
        <time>2020-09-17T13:12:43Z</time>
      </trkpt>
      <trkpt lat="45.41107" lon="3.40256">
        <ele>639</ele>
        <time>2020-09-17T13:12:44Z</time>
      </trkpt>
      <trkpt lat="45.41106" lon="3.40257">
        <ele>639.1</ele>
        <time>2020-09-17T13:12:45Z</time>
      </trkpt>
      <trkpt lat="45.41105" lon="3.40257">
        <ele>639.2</ele>
        <time>2020-09-17T13:12:46Z</time>
      </trkpt>
      <trkpt lat="45.41105" lon="3.40258">
        <ele>639.3</ele>
        <time>2020-09-17T13:12:47Z</time>
      </trkpt>
      <trkpt lat="45.41104" lon="3.40259">
        <ele>639.5</ele>
        <time>2020-09-17T13:12:48Z</time>
      </trkpt>
      <trkpt lat="45.41104" lon="3.4026">
        <ele>639.6</ele>
        <time>2020-09-17T13:12:49Z</time>
      </trkpt>
      <trkpt lat="45.41103" lon="3.40261">
        <ele>639.7</ele>
        <time>2020-09-17T13:12:50Z</time>
      </trkpt>
      <trkpt lat="45.41102" lon="3.40262">
        <ele>639.9</ele>
        <time>2020-09-17T13:12:51Z</time>
      </trkpt>
      <trkpt lat="45.41102" lon="3.40263">
        <ele>640</ele>
        <time>2020-09-17T13:12:52Z</time>
      </trkpt>
      <trkpt lat="45.41101" lon="3.40264">
        <ele>640.2</ele>
        <time>2020-09-17T13:12:53Z</time>
      </trkpt>
      <trkpt lat="45.41101" lon="3.40265">
        <ele>640.4</ele>
        <time>2020-09-17T13:12:54Z</time>
      </trkpt>
      <trkpt lat="45.411" lon="3.40266">
        <ele>640.5</ele>
        <time>2020-09-17T13:12:55Z</time>
      </trkpt>
      <trkpt lat="45.411" lon="3.40267">
        <ele>640.7</ele>
        <time>2020-09-17T13:12:56Z</time>
      </trkpt>
      <trkpt lat="45.41099" lon="3.40268">
        <ele>640.8</ele>
        <time>2020-09-17T13:12:57Z</time>
      </trkpt>
      <trkpt lat="45.41099" lon="3.40269">
        <ele>641</ele>
        <time>2020-09-17T13:12:58Z</time>
      </trkpt>
      <trkpt lat="45.41098" lon="3.4027">
        <ele>641.1</ele>
        <time>2020-09-17T13:12:59Z</time>
      </trkpt>
      <trkpt lat="45.41097" lon="3.40271">
        <ele>641.3</ele>
        <time>2020-09-17T13:13:00Z</time>
      </trkpt>
      <trkpt lat="45.41097" lon="3.40272">
        <ele>641.4</ele>
        <time>2020-09-17T13:13:01Z</time>
      </trkpt>
      <trkpt lat="45.41096" lon="3.40273">
        <ele>641.6</ele>
        <time>2020-09-17T13:13:02Z</time>
      </trkpt>
      <trkpt lat="45.41096" lon="3.40275">
        <ele>641.7</ele>
        <time>2020-09-17T13:13:03Z</time>
      </trkpt>
      <trkpt lat="45.41095" lon="3.40276">
        <ele>641.9</ele>
        <time>2020-09-17T13:13:04Z</time>
      </trkpt>
      <trkpt lat="45.41095" lon="3.40277">
        <ele>642.1</ele>
        <time>2020-09-17T13:13:05Z</time>
      </trkpt>
      <trkpt lat="45.41095" lon="3.40278">
        <ele>642.2</ele>
        <time>2020-09-17T13:13:06Z</time>
      </trkpt>
      <trkpt lat="45.41094" lon="3.40279">
        <ele>642.3</ele>
        <time>2020-09-17T13:13:07Z</time>
      </trkpt>
      <trkpt lat="45.41094" lon="3.4028">
        <ele>642.4</ele>
        <time>2020-09-17T13:13:08Z</time>
      </trkpt>
      <trkpt lat="45.41093" lon="3.40281">
        <ele>642.5</ele>
        <time>2020-09-17T13:13:09Z</time>
      </trkpt>
      <trkpt lat="45.41093" lon="3.40282">
        <ele>642.6</ele>
        <time>2020-09-17T13:13:10Z</time>
      </trkpt>
      <trkpt lat="45.41093" lon="3.40283">
        <ele>642.7</ele>
        <time>2020-09-17T13:13:11Z</time>
      </trkpt>
      <trkpt lat="45.41093" lon="3.40285">
        <ele>642.8</ele>
        <time>2020-09-17T13:13:12Z</time>
      </trkpt>
      <trkpt lat="45.41093" lon="3.40286">
        <ele>642.9</ele>
        <time>2020-09-17T13:13:13Z</time>
      </trkpt>
      <trkpt lat="45.41092" lon="3.40287">
        <ele>643.1</ele>
        <time>2020-09-17T13:13:14Z</time>
      </trkpt>
      <trkpt lat="45.41092" lon="3.40289">
        <ele>643.2</ele>
        <time>2020-09-17T13:13:15Z</time>
      </trkpt>
      <trkpt lat="45.41092" lon="3.4029">
        <ele>643.3</ele>
        <time>2020-09-17T13:13:16Z</time>
      </trkpt>
      <trkpt lat="45.41091" lon="3.40291">
        <ele>643.4</ele>
        <time>2020-09-17T13:13:17Z</time>
      </trkpt>
      <trkpt lat="45.41091" lon="3.40292">
        <ele>643.5</ele>
        <time>2020-09-17T13:13:18Z</time>
      </trkpt>
      <trkpt lat="45.4109" lon="3.40293">
        <ele>643.6</ele>
        <time>2020-09-17T13:13:19Z</time>
      </trkpt>
      <trkpt lat="45.41089" lon="3.40294">
        <ele>643.7</ele>
        <time>2020-09-17T13:13:20Z</time>
      </trkpt>
      <trkpt lat="45.41089" lon="3.40295">
        <ele>643.9</ele>
        <time>2020-09-17T13:13:21Z</time>
      </trkpt>
      <trkpt lat="45.41088" lon="3.40296">
        <ele>644</ele>
        <time>2020-09-17T13:13:22Z</time>
      </trkpt>
      <trkpt lat="45.41088" lon="3.40297">
        <ele>644.1</ele>
        <time>2020-09-17T13:13:23Z</time>
      </trkpt>
      <trkpt lat="45.41087" lon="3.40298">
        <ele>644.2</ele>
        <time>2020-09-17T13:13:24Z</time>
      </trkpt>
      <trkpt lat="45.41087" lon="3.40299">
        <ele>644.3</ele>
        <time>2020-09-17T13:13:25Z</time>
      </trkpt>
      <trkpt lat="45.41086" lon="3.403">
        <ele>644.4</ele>
        <time>2020-09-17T13:13:26Z</time>
      </trkpt>
      <trkpt lat="45.41085" lon="3.40301">
        <ele>644.5</ele>
        <time>2020-09-17T13:13:27Z</time>
      </trkpt>
      <trkpt lat="45.41085" lon="3.40302">
        <ele>644.7</ele>
        <time>2020-09-17T13:13:28Z</time>
      </trkpt>
      <trkpt lat="45.41084" lon="3.40303">
        <ele>644.8</ele>
        <time>2020-09-17T13:13:29Z</time>
      </trkpt>
      <trkpt lat="45.41083" lon="3.40304">
        <ele>644.9</ele>
        <time>2020-09-17T13:13:30Z</time>
      </trkpt>
      <trkpt lat="45.41082" lon="3.40305">
        <ele>645</ele>
        <time>2020-09-17T13:13:31Z</time>
      </trkpt>
      <trkpt lat="45.41082" lon="3.40306">
        <ele>645</ele>
        <time>2020-09-17T13:13:32Z</time>
      </trkpt>
      <trkpt lat="45.41081" lon="3.40307">
        <ele>645.1</ele>
        <time>2020-09-17T13:13:33Z</time>
      </trkpt>
      <trkpt lat="45.4108" lon="3.40308">
        <ele>645.2</ele>
        <time>2020-09-17T13:13:34Z</time>
      </trkpt>
      <trkpt lat="45.4108" lon="3.40309">
        <ele>645.3</ele>
        <time>2020-09-17T13:13:35Z</time>
      </trkpt>
      <trkpt lat="45.41079" lon="3.4031">
        <ele>645.3</ele>
        <time>2020-09-17T13:13:36Z</time>
      </trkpt>
      <trkpt lat="45.41078" lon="3.40311">
        <ele>645.4</ele>
        <time>2020-09-17T13:13:37Z</time>
      </trkpt>
      <trkpt lat="45.41078" lon="3.40312">
        <ele>645.5</ele>
        <time>2020-09-17T13:13:38Z</time>
      </trkpt>
      <trkpt lat="45.41077" lon="3.40313">
        <ele>645.7</ele>
        <time>2020-09-17T13:13:39Z</time>
      </trkpt>
      <trkpt lat="45.41077" lon="3.40314">
        <ele>645.8</ele>
        <time>2020-09-17T13:13:40Z</time>
      </trkpt>
      <trkpt lat="45.41076" lon="3.40315">
        <ele>645.9</ele>
        <time>2020-09-17T13:13:41Z</time>
      </trkpt>
      <trkpt lat="45.41075" lon="3.40316">
        <ele>646</ele>
        <time>2020-09-17T13:13:42Z</time>
      </trkpt>
      <trkpt lat="45.41074" lon="3.40317">
        <ele>646.1</ele>
        <time>2020-09-17T13:13:43Z</time>
      </trkpt>
      <trkpt lat="45.41074" lon="3.40318">
        <ele>646.2</ele>
        <time>2020-09-17T13:13:44Z</time>
      </trkpt>
      <trkpt lat="45.41073" lon="3.40319">
        <ele>646.4</ele>
        <time>2020-09-17T13:13:45Z</time>
      </trkpt>
      <trkpt lat="45.41072" lon="3.4032">
        <ele>646.5</ele>
        <time>2020-09-17T13:13:46Z</time>
      </trkpt>
      <trkpt lat="45.41071" lon="3.40321">
        <ele>646.6</ele>
        <time>2020-09-17T13:13:47Z</time>
      </trkpt>
      <trkpt lat="45.4107" lon="3.40322">
        <ele>646.8</ele>
        <time>2020-09-17T13:13:48Z</time>
      </trkpt>
      <trkpt lat="45.4107" lon="3.40324">
        <ele>646.9</ele>
        <time>2020-09-17T13:13:49Z</time>
      </trkpt>
      <trkpt lat="45.41069" lon="3.40325">
        <ele>647.1</ele>
        <time>2020-09-17T13:13:50Z</time>
      </trkpt>
      <trkpt lat="45.41068" lon="3.40325">
        <ele>647.2</ele>
        <time>2020-09-17T13:13:51Z</time>
      </trkpt>
      <trkpt lat="45.41067" lon="3.40327">
        <ele>647.4</ele>
        <time>2020-09-17T13:13:52Z</time>
      </trkpt>
      <trkpt lat="45.41067" lon="3.40328">
        <ele>647.6</ele>
        <time>2020-09-17T13:13:53Z</time>
      </trkpt>
      <trkpt lat="45.41066" lon="3.40329">
        <ele>647.7</ele>
        <time>2020-09-17T13:13:54Z</time>
      </trkpt>
      <trkpt lat="45.41065" lon="3.4033">
        <ele>647.9</ele>
        <time>2020-09-17T13:13:55Z</time>
      </trkpt>
      <trkpt lat="45.41064" lon="3.40331">
        <ele>648</ele>
        <time>2020-09-17T13:13:56Z</time>
      </trkpt>
      <trkpt lat="45.41064" lon="3.40332">
        <ele>648.2</ele>
        <time>2020-09-17T13:13:57Z</time>
      </trkpt>
      <trkpt lat="45.41063" lon="3.40333">
        <ele>648.4</ele>
        <time>2020-09-17T13:13:58Z</time>
      </trkpt>
      <trkpt lat="45.41063" lon="3.40334">
        <ele>648.5</ele>
        <time>2020-09-17T13:13:59Z</time>
      </trkpt>
      <trkpt lat="45.41062" lon="3.40335">
        <ele>648.6</ele>
        <time>2020-09-17T13:14:00Z</time>
      </trkpt>
      <trkpt lat="45.41061" lon="3.40336">
        <ele>648.7</ele>
        <time>2020-09-17T13:14:01Z</time>
      </trkpt>
      <trkpt lat="45.4106" lon="3.40336">
        <ele>648.9</ele>
        <time>2020-09-17T13:14:02Z</time>
      </trkpt>
      <trkpt lat="45.4106" lon="3.40337">
        <ele>648.9</ele>
        <time>2020-09-17T13:14:03Z</time>
      </trkpt>
      <trkpt lat="45.41059" lon="3.40338">
        <ele>649.1</ele>
        <time>2020-09-17T13:14:04Z</time>
      </trkpt>
      <trkpt lat="45.41058" lon="3.40339">
        <ele>649.2</ele>
        <time>2020-09-17T13:14:05Z</time>
      </trkpt>
      <trkpt lat="45.41058" lon="3.4034">
        <ele>649.3</ele>
        <time>2020-09-17T13:14:06Z</time>
      </trkpt>
      <trkpt lat="45.41057" lon="3.40341">
        <ele>649.4</ele>
        <time>2020-09-17T13:14:07Z</time>
      </trkpt>
      <trkpt lat="45.41056" lon="3.40341">
        <ele>649.5</ele>
        <time>2020-09-17T13:14:08Z</time>
      </trkpt>
      <trkpt lat="45.41056" lon="3.40342">
        <ele>649.6</ele>
        <time>2020-09-17T13:14:09Z</time>
      </trkpt>
      <trkpt lat="45.41055" lon="3.40343">
        <ele>649.7</ele>
        <time>2020-09-17T13:14:10Z</time>
      </trkpt>
      <trkpt lat="45.41054" lon="3.40344">
        <ele>649.8</ele>
        <time>2020-09-17T13:14:11Z</time>
      </trkpt>
      <trkpt lat="45.41053" lon="3.40345">
        <ele>649.9</ele>
        <time>2020-09-17T13:14:12Z</time>
      </trkpt>
      <trkpt lat="45.41053" lon="3.40345">
        <ele>650</ele>
        <time>2020-09-17T13:14:13Z</time>
      </trkpt>
      <trkpt lat="45.41052" lon="3.40346">
        <ele>650</ele>
        <time>2020-09-17T13:14:14Z</time>
      </trkpt>
      <trkpt lat="45.41051" lon="3.40347">
        <ele>650.1</ele>
        <time>2020-09-17T13:14:15Z</time>
      </trkpt>
      <trkpt lat="45.41051" lon="3.40348">
        <ele>650.2</ele>
        <time>2020-09-17T13:14:16Z</time>
      </trkpt>
      <trkpt lat="45.4105" lon="3.40348">
        <ele>650.3</ele>
        <time>2020-09-17T13:14:17Z</time>
      </trkpt>
      <trkpt lat="45.41049" lon="3.40349">
        <ele>650.4</ele>
        <time>2020-09-17T13:14:18Z</time>
      </trkpt>
      <trkpt lat="45.41048" lon="3.40349">
        <ele>650.4</ele>
        <time>2020-09-17T13:14:19Z</time>
      </trkpt>
      <trkpt lat="45.41048" lon="3.4035">
        <ele>650.5</ele>
        <time>2020-09-17T13:14:20Z</time>
      </trkpt>
      <trkpt lat="45.41047" lon="3.40351">
        <ele>650.6</ele>
        <time>2020-09-17T13:14:21Z</time>
      </trkpt>
      <trkpt lat="45.41046" lon="3.40351">
        <ele>650.7</ele>
        <time>2020-09-17T13:14:22Z</time>
      </trkpt>
      <trkpt lat="45.41045" lon="3.40352">
        <ele>650.8</ele>
        <time>2020-09-17T13:14:23Z</time>
      </trkpt>
      <trkpt lat="45.41045" lon="3.40353">
        <ele>650.9</ele>
        <time>2020-09-17T13:14:24Z</time>
      </trkpt>
      <trkpt lat="45.41044" lon="3.40354">
        <ele>651.1</ele>
        <time>2020-09-17T13:14:25Z</time>
      </trkpt>
      <trkpt lat="45.41043" lon="3.40354">
        <ele>651.2</ele>
        <time>2020-09-17T13:14:26Z</time>
      </trkpt>
      <trkpt lat="45.41042" lon="3.40355">
        <ele>651.3</ele>
        <time>2020-09-17T13:14:27Z</time>
      </trkpt>
      <trkpt lat="45.41042" lon="3.40356">
        <ele>651.5</ele>
        <time>2020-09-17T13:14:28Z</time>
      </trkpt>
      <trkpt lat="45.41041" lon="3.40357">
        <ele>651.6</ele>
        <time>2020-09-17T13:14:29Z</time>
      </trkpt>
      <trkpt lat="45.4104" lon="3.40358">
        <ele>651.7</ele>
        <time>2020-09-17T13:14:30Z</time>
      </trkpt>
      <trkpt lat="45.41039" lon="3.40359">
        <ele>651.9</ele>
        <time>2020-09-17T13:14:31Z</time>
      </trkpt>
      <trkpt lat="45.41038" lon="3.40359">
        <ele>652</ele>
        <time>2020-09-17T13:14:32Z</time>
      </trkpt>
      <trkpt lat="45.41037" lon="3.4036">
        <ele>652.2</ele>
        <time>2020-09-17T13:14:33Z</time>
      </trkpt>
      <trkpt lat="45.41037" lon="3.40361">
        <ele>652.3</ele>
        <time>2020-09-17T13:14:34Z</time>
      </trkpt>
      <trkpt lat="45.41036" lon="3.40362">
        <ele>652.5</ele>
        <time>2020-09-17T13:14:35Z</time>
      </trkpt>
      <trkpt lat="45.41035" lon="3.40363">
        <ele>652.6</ele>
        <time>2020-09-17T13:14:36Z</time>
      </trkpt>
      <trkpt lat="45.41034" lon="3.40364">
        <ele>652.7</ele>
        <time>2020-09-17T13:14:37Z</time>
      </trkpt>
      <trkpt lat="45.41033" lon="3.40364">
        <ele>652.8</ele>
        <time>2020-09-17T13:14:38Z</time>
      </trkpt>
      <trkpt lat="45.41032" lon="3.40365">
        <ele>652.9</ele>
        <time>2020-09-17T13:14:39Z</time>
      </trkpt>
      <trkpt lat="45.41031" lon="3.40366">
        <ele>653.1</ele>
        <time>2020-09-17T13:14:40Z</time>
      </trkpt>
      <trkpt lat="45.4103" lon="3.40367">
        <ele>653.2</ele>
        <time>2020-09-17T13:14:41Z</time>
      </trkpt>
      <trkpt lat="45.41029" lon="3.40367">
        <ele>653.4</ele>
        <time>2020-09-17T13:14:42Z</time>
      </trkpt>
      <trkpt lat="45.41028" lon="3.40368">
        <ele>653.5</ele>
        <time>2020-09-17T13:14:43Z</time>
      </trkpt>
      <trkpt lat="45.41027" lon="3.40369">
        <ele>653.5</ele>
        <time>2020-09-17T13:14:44Z</time>
      </trkpt>
      <trkpt lat="45.41026" lon="3.40369">
        <ele>653.6</ele>
        <time>2020-09-17T13:14:45Z</time>
      </trkpt>
      <trkpt lat="45.41025" lon="3.4037">
        <ele>653.6</ele>
        <time>2020-09-17T13:14:46Z</time>
      </trkpt>
      <trkpt lat="45.41024" lon="3.40371">
        <ele>653.7</ele>
        <time>2020-09-17T13:14:47Z</time>
      </trkpt>
      <trkpt lat="45.41023" lon="3.40372">
        <ele>653.8</ele>
        <time>2020-09-17T13:14:48Z</time>
      </trkpt>
      <trkpt lat="45.41022" lon="3.40372">
        <ele>653.9</ele>
        <time>2020-09-17T13:14:49Z</time>
      </trkpt>
      <trkpt lat="45.41021" lon="3.40373">
        <ele>653.9</ele>
        <time>2020-09-17T13:14:50Z</time>
      </trkpt>
      <trkpt lat="45.4102" lon="3.40374">
        <ele>654</ele>
        <time>2020-09-17T13:14:51Z</time>
      </trkpt>
      <trkpt lat="45.41019" lon="3.40374">
        <ele>654.1</ele>
        <time>2020-09-17T13:14:52Z</time>
      </trkpt>
      <trkpt lat="45.41018" lon="3.40375">
        <ele>654.2</ele>
        <time>2020-09-17T13:14:53Z</time>
      </trkpt>
      <trkpt lat="45.41017" lon="3.40376">
        <ele>654.3</ele>
        <time>2020-09-17T13:14:54Z</time>
      </trkpt>
      <trkpt lat="45.41016" lon="3.40377">
        <ele>654.4</ele>
        <time>2020-09-17T13:14:55Z</time>
      </trkpt>
      <trkpt lat="45.41015" lon="3.40377">
        <ele>654.5</ele>
        <time>2020-09-17T13:14:56Z</time>
      </trkpt>
      <trkpt lat="45.41014" lon="3.40378">
        <ele>654.6</ele>
        <time>2020-09-17T13:14:57Z</time>
      </trkpt>
      <trkpt lat="45.41013" lon="3.40379">
        <ele>654.7</ele>
        <time>2020-09-17T13:14:58Z</time>
      </trkpt>
      <trkpt lat="45.41012" lon="3.40379">
        <ele>654.9</ele>
        <time>2020-09-17T13:14:59Z</time>
      </trkpt>
      <trkpt lat="45.41012" lon="3.4038">
        <ele>655</ele>
        <time>2020-09-17T13:15:00Z</time>
      </trkpt>
      <trkpt lat="45.41011" lon="3.40381">
        <ele>655.1</ele>
        <time>2020-09-17T13:15:01Z</time>
      </trkpt>
      <trkpt lat="45.4101" lon="3.40381">
        <ele>655.2</ele>
        <time>2020-09-17T13:15:02Z</time>
      </trkpt>
      <trkpt lat="45.41009" lon="3.40382">
        <ele>655.4</ele>
        <time>2020-09-17T13:15:03Z</time>
      </trkpt>
      <trkpt lat="45.41008" lon="3.40383">
        <ele>655.5</ele>
        <time>2020-09-17T13:15:04Z</time>
      </trkpt>
      <trkpt lat="45.41007" lon="3.40383">
        <ele>655.6</ele>
        <time>2020-09-17T13:15:05Z</time>
      </trkpt>
      <trkpt lat="45.41006" lon="3.40383">
        <ele>655.7</ele>
        <time>2020-09-17T13:15:06Z</time>
      </trkpt>
      <trkpt lat="45.41005" lon="3.40384">
        <ele>655.8</ele>
        <time>2020-09-17T13:15:07Z</time>
      </trkpt>
      <trkpt lat="45.41004" lon="3.40384">
        <ele>656</ele>
        <time>2020-09-17T13:15:08Z</time>
      </trkpt>
      <trkpt lat="45.41003" lon="3.40385">
        <ele>656.1</ele>
        <time>2020-09-17T13:15:09Z</time>
      </trkpt>
      <trkpt lat="45.41002" lon="3.40386">
        <ele>656.3</ele>
        <time>2020-09-17T13:15:10Z</time>
      </trkpt>
      <trkpt lat="45.41001" lon="3.40386">
        <ele>656.5</ele>
        <time>2020-09-17T13:15:11Z</time>
      </trkpt>
      <trkpt lat="45.41" lon="3.40387">
        <ele>656.6</ele>
        <time>2020-09-17T13:15:12Z</time>
      </trkpt>
      <trkpt lat="45.40999" lon="3.40388">
        <ele>656.8</ele>
        <time>2020-09-17T13:15:13Z</time>
      </trkpt>
      <trkpt lat="45.40998" lon="3.40388">
        <ele>657</ele>
        <time>2020-09-17T13:15:14Z</time>
      </trkpt>
      <trkpt lat="45.40997" lon="3.40389">
        <ele>657.1</ele>
        <time>2020-09-17T13:15:15Z</time>
      </trkpt>
      <trkpt lat="45.40996" lon="3.40389">
        <ele>657.2</ele>
        <time>2020-09-17T13:15:16Z</time>
      </trkpt>
      <trkpt lat="45.40996" lon="3.4039">
        <ele>657.2</ele>
        <time>2020-09-17T13:15:17Z</time>
      </trkpt>
      <trkpt lat="45.40995" lon="3.4039">
        <ele>657.3</ele>
        <time>2020-09-17T13:15:18Z</time>
      </trkpt>
      <trkpt lat="45.40994" lon="3.40391">
        <ele>657.4</ele>
        <time>2020-09-17T13:15:19Z</time>
      </trkpt>
      <trkpt lat="45.40993" lon="3.40391">
        <ele>657.4</ele>
        <time>2020-09-17T13:15:20Z</time>
      </trkpt>
      <trkpt lat="45.40992" lon="3.40392">
        <ele>657.5</ele>
        <time>2020-09-17T13:15:21Z</time>
      </trkpt>
      <trkpt lat="45.40991" lon="3.40392">
        <ele>657.6</ele>
        <time>2020-09-17T13:15:22Z</time>
      </trkpt>
      <trkpt lat="45.4099" lon="3.40393">
        <ele>657.7</ele>
        <time>2020-09-17T13:15:23Z</time>
      </trkpt>
      <trkpt lat="45.40989" lon="3.40393">
        <ele>657.8</ele>
        <time>2020-09-17T13:15:24Z</time>
      </trkpt>
      <trkpt lat="45.40988" lon="3.40394">
        <ele>657.9</ele>
        <time>2020-09-17T13:15:25Z</time>
      </trkpt>
      <trkpt lat="45.40987" lon="3.40395">
        <ele>658</ele>
        <time>2020-09-17T13:15:26Z</time>
      </trkpt>
      <trkpt lat="45.40986" lon="3.40395">
        <ele>658.1</ele>
        <time>2020-09-17T13:15:27Z</time>
      </trkpt>
      <trkpt lat="45.40986" lon="3.40396">
        <ele>658.1</ele>
        <time>2020-09-17T13:15:28Z</time>
      </trkpt>
      <trkpt lat="45.40985" lon="3.40396">
        <ele>658.2</ele>
        <time>2020-09-17T13:15:29Z</time>
      </trkpt>
      <trkpt lat="45.40984" lon="3.40397">
        <ele>658.3</ele>
        <time>2020-09-17T13:15:30Z</time>
      </trkpt>
      <trkpt lat="45.40983" lon="3.40397">
        <ele>658.4</ele>
        <time>2020-09-17T13:15:31Z</time>
      </trkpt>
      <trkpt lat="45.40982" lon="3.40397">
        <ele>658.5</ele>
        <time>2020-09-17T13:15:32Z</time>
      </trkpt>
      <trkpt lat="45.40981" lon="3.40398">
        <ele>658.6</ele>
        <time>2020-09-17T13:15:33Z</time>
      </trkpt>
      <trkpt lat="45.4098" lon="3.40398">
        <ele>658.7</ele>
        <time>2020-09-17T13:15:34Z</time>
      </trkpt>
      <trkpt lat="45.40979" lon="3.40399">
        <ele>658.7</ele>
        <time>2020-09-17T13:15:35Z</time>
      </trkpt>
      <trkpt lat="45.40978" lon="3.40399">
        <ele>658.8</ele>
        <time>2020-09-17T13:15:36Z</time>
      </trkpt>
      <trkpt lat="45.40977" lon="3.404">
        <ele>658.9</ele>
        <time>2020-09-17T13:15:37Z</time>
      </trkpt>
      <trkpt lat="45.40976" lon="3.404">
        <ele>659</ele>
        <time>2020-09-17T13:15:38Z</time>
      </trkpt>
      <trkpt lat="45.40975" lon="3.40401">
        <ele>659.1</ele>
        <time>2020-09-17T13:15:39Z</time>
      </trkpt>
      <trkpt lat="45.40975" lon="3.40401">
        <ele>659.2</ele>
        <time>2020-09-17T13:15:40Z</time>
      </trkpt>
      <trkpt lat="45.40974" lon="3.40402">
        <ele>659.3</ele>
        <time>2020-09-17T13:15:41Z</time>
      </trkpt>
      <trkpt lat="45.40973" lon="3.40402">
        <ele>659.4</ele>
        <time>2020-09-17T13:15:42Z</time>
      </trkpt>
      <trkpt lat="45.40972" lon="3.40403">
        <ele>659.5</ele>
        <time>2020-09-17T13:15:43Z</time>
      </trkpt>
      <trkpt lat="45.40971" lon="3.40403">
        <ele>659.6</ele>
        <time>2020-09-17T13:15:44Z</time>
      </trkpt>
      <trkpt lat="45.4097" lon="3.40404">
        <ele>659.7</ele>
        <time>2020-09-17T13:15:45Z</time>
      </trkpt>
      <trkpt lat="45.40969" lon="3.40404">
        <ele>659.8</ele>
        <time>2020-09-17T13:15:46Z</time>
      </trkpt>
      <trkpt lat="45.40968" lon="3.40405">
        <ele>660</ele>
        <time>2020-09-17T13:15:47Z</time>
      </trkpt>
      <trkpt lat="45.40968" lon="3.40406">
        <ele>660.1</ele>
        <time>2020-09-17T13:15:48Z</time>
      </trkpt>
      <trkpt lat="45.40967" lon="3.40406">
        <ele>660.2</ele>
        <time>2020-09-17T13:15:49Z</time>
      </trkpt>
      <trkpt lat="45.40966" lon="3.40407">
        <ele>660.3</ele>
        <time>2020-09-17T13:15:50Z</time>
      </trkpt>
      <trkpt lat="45.40965" lon="3.40408">
        <ele>660.5</ele>
        <time>2020-09-17T13:15:51Z</time>
      </trkpt>
      <trkpt lat="45.40964" lon="3.40409">
        <ele>660.6</ele>
        <time>2020-09-17T13:15:52Z</time>
      </trkpt>
      <trkpt lat="45.40963" lon="3.4041">
        <ele>660.8</ele>
        <time>2020-09-17T13:15:53Z</time>
      </trkpt>
      <trkpt lat="45.40963" lon="3.4041">
        <ele>660.9</ele>
        <time>2020-09-17T13:15:54Z</time>
      </trkpt>
      <trkpt lat="45.40962" lon="3.40411">
        <ele>661</ele>
        <time>2020-09-17T13:15:55Z</time>
      </trkpt>
      <trkpt lat="45.40961" lon="3.40411">
        <ele>661.1</ele>
        <time>2020-09-17T13:15:56Z</time>
      </trkpt>
      <trkpt lat="45.4096" lon="3.40411">
        <ele>661.2</ele>
        <time>2020-09-17T13:15:57Z</time>
      </trkpt>
      <trkpt lat="45.40959" lon="3.40412">
        <ele>661.3</ele>
        <time>2020-09-17T13:15:58Z</time>
      </trkpt>
      <trkpt lat="45.40958" lon="3.40411">
        <ele>661.3</ele>
        <time>2020-09-17T13:15:59Z</time>
      </trkpt>
      <trkpt lat="45.40957" lon="3.40411">
        <ele>661.4</ele>
        <time>2020-09-17T13:16:00Z</time>
      </trkpt>
      <trkpt lat="45.40957" lon="3.40411">
        <ele>661.3</ele>
        <time>2020-09-17T13:16:01Z</time>
      </trkpt>
      <trkpt lat="45.40956" lon="3.4041">
        <ele>661.3</ele>
        <time>2020-09-17T13:16:02Z</time>
      </trkpt>
      <trkpt lat="45.40955" lon="3.4041">
        <ele>661.3</ele>
        <time>2020-09-17T13:16:03Z</time>
      </trkpt>
      <trkpt lat="45.40954" lon="3.40409">
        <ele>661.3</ele>
        <time>2020-09-17T13:16:04Z</time>
      </trkpt>
      <trkpt lat="45.40953" lon="3.40409">
        <ele>661.4</ele>
        <time>2020-09-17T13:16:05Z</time>
      </trkpt>
      <trkpt lat="45.40952" lon="3.40409">
        <ele>661.4</ele>
        <time>2020-09-17T13:16:06Z</time>
      </trkpt>
      <trkpt lat="45.40951" lon="3.40409">
        <ele>661.5</ele>
        <time>2020-09-17T13:16:07Z</time>
      </trkpt>
      <trkpt lat="45.4095" lon="3.40409">
        <ele>661.5</ele>
        <time>2020-09-17T13:16:08Z</time>
      </trkpt>
      <trkpt lat="45.40949" lon="3.40409">
        <ele>661.5</ele>
        <time>2020-09-17T13:16:09Z</time>
      </trkpt>
      <trkpt lat="45.40948" lon="3.40408">
        <ele>661.5</ele>
        <time>2020-09-17T13:16:10Z</time>
      </trkpt>
      <trkpt lat="45.40947" lon="3.40407">
        <ele>661.5</ele>
        <time>2020-09-17T13:16:11Z</time>
      </trkpt>
      <trkpt lat="45.40947" lon="3.40406">
        <ele>661.4</ele>
        <time>2020-09-17T13:16:12Z</time>
      </trkpt>
      <trkpt lat="45.40946" lon="3.40405">
        <ele>661.3</ele>
        <time>2020-09-17T13:16:13Z</time>
      </trkpt>
      <trkpt lat="45.40945" lon="3.40405">
        <ele>661.3</ele>
        <time>2020-09-17T13:16:14Z</time>
      </trkpt>
      <trkpt lat="45.40944" lon="3.40404">
        <ele>661.2</ele>
        <time>2020-09-17T13:16:15Z</time>
      </trkpt>
      <trkpt lat="45.40943" lon="3.40403">
        <ele>661.1</ele>
        <time>2020-09-17T13:16:16Z</time>
      </trkpt>
      <trkpt lat="45.40942" lon="3.40402">
        <ele>661.1</ele>
        <time>2020-09-17T13:16:17Z</time>
      </trkpt>
      <trkpt lat="45.40941" lon="3.40401">
        <ele>661</ele>
        <time>2020-09-17T13:16:18Z</time>
      </trkpt>
      <trkpt lat="45.4094" lon="3.40401">
        <ele>661</ele>
        <time>2020-09-17T13:16:19Z</time>
      </trkpt>
      <trkpt lat="45.40939" lon="3.404">
        <ele>660.9</ele>
        <time>2020-09-17T13:16:20Z</time>
      </trkpt>
      <trkpt lat="45.40938" lon="3.40399">
        <ele>660.9</ele>
        <time>2020-09-17T13:16:21Z</time>
      </trkpt>
      <trkpt lat="45.40938" lon="3.40399">
        <ele>660.9</ele>
        <time>2020-09-17T13:16:22Z</time>
      </trkpt>
      <trkpt lat="45.40937" lon="3.40398">
        <ele>660.8</ele>
        <time>2020-09-17T13:16:23Z</time>
      </trkpt>
      <trkpt lat="45.40936" lon="3.40397">
        <ele>660.8</ele>
        <time>2020-09-17T13:16:24Z</time>
      </trkpt>
      <trkpt lat="45.40935" lon="3.40397">
        <ele>660.8</ele>
        <time>2020-09-17T13:16:25Z</time>
      </trkpt>
      <trkpt lat="45.40934" lon="3.40396">
        <ele>660.8</ele>
        <time>2020-09-17T13:16:26Z</time>
      </trkpt>
      <trkpt lat="45.40933" lon="3.40395">
        <ele>660.7</ele>
        <time>2020-09-17T13:16:27Z</time>
      </trkpt>
      <trkpt lat="45.40932" lon="3.40395">
        <ele>660.7</ele>
        <time>2020-09-17T13:16:28Z</time>
      </trkpt>
      <trkpt lat="45.40931" lon="3.40394">
        <ele>660.7</ele>
        <time>2020-09-17T13:16:29Z</time>
      </trkpt>
      <trkpt lat="45.4093" lon="3.40393">
        <ele>660.7</ele>
        <time>2020-09-17T13:16:30Z</time>
      </trkpt>
      <trkpt lat="45.40929" lon="3.40393">
        <ele>660.7</ele>
        <time>2020-09-17T13:16:31Z</time>
      </trkpt>
      <trkpt lat="45.40928" lon="3.40393">
        <ele>660.7</ele>
        <time>2020-09-17T13:16:32Z</time>
      </trkpt>
      <trkpt lat="45.40927" lon="3.40392">
        <ele>660.8</ele>
        <time>2020-09-17T13:16:33Z</time>
      </trkpt>
      <trkpt lat="45.40926" lon="3.40392">
        <ele>660.8</ele>
        <time>2020-09-17T13:16:34Z</time>
      </trkpt>
      <trkpt lat="45.40925" lon="3.40391">
        <ele>660.8</ele>
        <time>2020-09-17T13:16:35Z</time>
      </trkpt>
      <trkpt lat="45.40923" lon="3.40391">
        <ele>660.8</ele>
        <time>2020-09-17T13:16:36Z</time>
      </trkpt>
      <trkpt lat="45.40922" lon="3.40391">
        <ele>660.8</ele>
        <time>2020-09-17T13:16:37Z</time>
      </trkpt>
      <trkpt lat="45.40921" lon="3.4039">
        <ele>660.8</ele>
        <time>2020-09-17T13:16:38Z</time>
      </trkpt>
      <trkpt lat="45.4092" lon="3.4039">
        <ele>660.9</ele>
        <time>2020-09-17T13:16:39Z</time>
      </trkpt>
      <trkpt lat="45.40919" lon="3.40389">
        <ele>660.9</ele>
        <time>2020-09-17T13:16:40Z</time>
      </trkpt>
      <trkpt lat="45.40917" lon="3.40389">
        <ele>660.9</ele>
        <time>2020-09-17T13:16:41Z</time>
      </trkpt>
      <trkpt lat="45.40916" lon="3.40388">
        <ele>660.9</ele>
        <time>2020-09-17T13:16:42Z</time>
      </trkpt>
      <trkpt lat="45.40915" lon="3.40388">
        <ele>660.9</ele>
        <time>2020-09-17T13:16:43Z</time>
      </trkpt>
      <trkpt lat="45.40914" lon="3.40388">
        <ele>660.9</ele>
        <time>2020-09-17T13:16:44Z</time>
      </trkpt>
      <trkpt lat="45.40912" lon="3.40387">
        <ele>660.9</ele>
        <time>2020-09-17T13:16:45Z</time>
      </trkpt>
      <trkpt lat="45.40911" lon="3.40387">
        <ele>660.9</ele>
        <time>2020-09-17T13:16:46Z</time>
      </trkpt>
      <trkpt lat="45.4091" lon="3.40387">
        <ele>660.9</ele>
        <time>2020-09-17T13:16:47Z</time>
      </trkpt>
      <trkpt lat="45.40908" lon="3.40386">
        <ele>660.9</ele>
        <time>2020-09-17T13:16:48Z</time>
      </trkpt>
      <trkpt lat="45.40907" lon="3.40386">
        <ele>660.8</ele>
        <time>2020-09-17T13:16:49Z</time>
      </trkpt>
      <trkpt lat="45.40906" lon="3.40385">
        <ele>660.8</ele>
        <time>2020-09-17T13:16:50Z</time>
      </trkpt>
      <trkpt lat="45.40905" lon="3.40384">
        <ele>660.7</ele>
        <time>2020-09-17T13:16:51Z</time>
      </trkpt>
      <trkpt lat="45.40904" lon="3.40384">
        <ele>660.7</ele>
        <time>2020-09-17T13:16:52Z</time>
      </trkpt>
      <trkpt lat="45.40902" lon="3.40383">
        <ele>660.7</ele>
        <time>2020-09-17T13:16:53Z</time>
      </trkpt>
      <trkpt lat="45.40901" lon="3.40383">
        <ele>660.8</ele>
        <time>2020-09-17T13:16:54Z</time>
      </trkpt>
      <trkpt lat="45.409" lon="3.40383">
        <ele>660.8</ele>
        <time>2020-09-17T13:16:55Z</time>
      </trkpt>
      <trkpt lat="45.40899" lon="3.40383">
        <ele>660.8</ele>
        <time>2020-09-17T13:16:56Z</time>
      </trkpt>
      <trkpt lat="45.40898" lon="3.40383">
        <ele>660.8</ele>
        <time>2020-09-17T13:16:57Z</time>
      </trkpt>
      <trkpt lat="45.40897" lon="3.40382">
        <ele>660.9</ele>
        <time>2020-09-17T13:16:58Z</time>
      </trkpt>
      <trkpt lat="45.40895" lon="3.40382">
        <ele>660.9</ele>
        <time>2020-09-17T13:16:59Z</time>
      </trkpt>
      <trkpt lat="45.40894" lon="3.40381">
        <ele>660.9</ele>
        <time>2020-09-17T13:17:00Z</time>
      </trkpt>
      <trkpt lat="45.40893" lon="3.40381">
        <ele>660.9</ele>
        <time>2020-09-17T13:17:01Z</time>
      </trkpt>
      <trkpt lat="45.40892" lon="3.4038">
        <ele>660.9</ele>
        <time>2020-09-17T13:17:02Z</time>
      </trkpt>
      <trkpt lat="45.40891" lon="3.4038">
        <ele>660.9</ele>
        <time>2020-09-17T13:17:03Z</time>
      </trkpt>
      <trkpt lat="45.4089" lon="3.40379">
        <ele>660.9</ele>
        <time>2020-09-17T13:17:04Z</time>
      </trkpt>
      <trkpt lat="45.40889" lon="3.40379">
        <ele>660.9</ele>
        <time>2020-09-17T13:17:05Z</time>
      </trkpt>
      <trkpt lat="45.40888" lon="3.40379">
        <ele>661</ele>
        <time>2020-09-17T13:17:06Z</time>
      </trkpt>
      <trkpt lat="45.40886" lon="3.40378">
        <ele>661</ele>
        <time>2020-09-17T13:17:07Z</time>
      </trkpt>
      <trkpt lat="45.40885" lon="3.40378">
        <ele>661</ele>
        <time>2020-09-17T13:17:08Z</time>
      </trkpt>
      <trkpt lat="45.40884" lon="3.40378">
        <ele>661.1</ele>
        <time>2020-09-17T13:17:09Z</time>
      </trkpt>
      <trkpt lat="45.40883" lon="3.40377">
        <ele>661.1</ele>
        <time>2020-09-17T13:17:10Z</time>
      </trkpt>
      <trkpt lat="45.40882" lon="3.40377">
        <ele>661.1</ele>
        <time>2020-09-17T13:17:11Z</time>
      </trkpt>
      <trkpt lat="45.4088" lon="3.40377">
        <ele>661.1</ele>
        <time>2020-09-17T13:17:12Z</time>
      </trkpt>
      <trkpt lat="45.40879" lon="3.40376">
        <ele>661.1</ele>
        <time>2020-09-17T13:17:13Z</time>
      </trkpt>
      <trkpt lat="45.40878" lon="3.40376">
        <ele>661.1</ele>
        <time>2020-09-17T13:17:14Z</time>
      </trkpt>
      <trkpt lat="45.40877" lon="3.40375">
        <ele>661.1</ele>
        <time>2020-09-17T13:17:15Z</time>
      </trkpt>
      <trkpt lat="45.40876" lon="3.40375">
        <ele>661.1</ele>
        <time>2020-09-17T13:17:16Z</time>
      </trkpt>
      <trkpt lat="45.40875" lon="3.40374">
        <ele>661.2</ele>
        <time>2020-09-17T13:17:17Z</time>
      </trkpt>
      <trkpt lat="45.40873" lon="3.40374">
        <ele>661.2</ele>
        <time>2020-09-17T13:17:18Z</time>
      </trkpt>
      <trkpt lat="45.40872" lon="3.40374">
        <ele>661.2</ele>
        <time>2020-09-17T13:17:19Z</time>
      </trkpt>
      <trkpt lat="45.40871" lon="3.40373">
        <ele>661.2</ele>
        <time>2020-09-17T13:17:20Z</time>
      </trkpt>
      <trkpt lat="45.4087" lon="3.40372">
        <ele>661.2</ele>
        <time>2020-09-17T13:17:21Z</time>
      </trkpt>
      <trkpt lat="45.40869" lon="3.40372">
        <ele>661.1</ele>
        <time>2020-09-17T13:17:22Z</time>
      </trkpt>
      <trkpt lat="45.40867" lon="3.40371">
        <ele>661.1</ele>
        <time>2020-09-17T13:17:23Z</time>
      </trkpt>
      <trkpt lat="45.40866" lon="3.40371">
        <ele>661.1</ele>
        <time>2020-09-17T13:17:24Z</time>
      </trkpt>
      <trkpt lat="45.40865" lon="3.4037">
        <ele>661.1</ele>
        <time>2020-09-17T13:17:25Z</time>
      </trkpt>
      <trkpt lat="45.40864" lon="3.40369">
        <ele>661</ele>
        <time>2020-09-17T13:17:26Z</time>
      </trkpt>
      <trkpt lat="45.40863" lon="3.40368">
        <ele>661</ele>
        <time>2020-09-17T13:17:27Z</time>
      </trkpt>
      <trkpt lat="45.40862" lon="3.40367">
        <ele>660.9</ele>
        <time>2020-09-17T13:17:28Z</time>
      </trkpt>
      <trkpt lat="45.40861" lon="3.40367">
        <ele>660.8</ele>
        <time>2020-09-17T13:17:29Z</time>
      </trkpt>
      <trkpt lat="45.4086" lon="3.40366">
        <ele>660.8</ele>
        <time>2020-09-17T13:17:30Z</time>
      </trkpt>
      <trkpt lat="45.40858" lon="3.40365">
        <ele>660.9</ele>
        <time>2020-09-17T13:17:31Z</time>
      </trkpt>
      <trkpt lat="45.40857" lon="3.40365">
        <ele>660.9</ele>
        <time>2020-09-17T13:17:32Z</time>
      </trkpt>
      <trkpt lat="45.40856" lon="3.40364">
        <ele>660.9</ele>
        <time>2020-09-17T13:17:33Z</time>
      </trkpt>
      <trkpt lat="45.40855" lon="3.40363">
        <ele>660.9</ele>
        <time>2020-09-17T13:17:34Z</time>
      </trkpt>
      <trkpt lat="45.40854" lon="3.40362">
        <ele>660.9</ele>
        <time>2020-09-17T13:17:35Z</time>
      </trkpt>
      <trkpt lat="45.40853" lon="3.40362">
        <ele>660.9</ele>
        <time>2020-09-17T13:17:36Z</time>
      </trkpt>
      <trkpt lat="45.40852" lon="3.40361">
        <ele>661</ele>
        <time>2020-09-17T13:17:37Z</time>
      </trkpt>
      <trkpt lat="45.40851" lon="3.4036">
        <ele>661.1</ele>
        <time>2020-09-17T13:17:38Z</time>
      </trkpt>
      <trkpt lat="45.4085" lon="3.4036">
        <ele>661.1</ele>
        <time>2020-09-17T13:17:39Z</time>
      </trkpt>
      <trkpt lat="45.40849" lon="3.40359">
        <ele>661.2</ele>
        <time>2020-09-17T13:17:40Z</time>
      </trkpt>
      <trkpt lat="45.40847" lon="3.40359">
        <ele>661.3</ele>
        <time>2020-09-17T13:17:41Z</time>
      </trkpt>
      <trkpt lat="45.40846" lon="3.40358">
        <ele>661.4</ele>
        <time>2020-09-17T13:17:42Z</time>
      </trkpt>
      <trkpt lat="45.40845" lon="3.40358">
        <ele>661.5</ele>
        <time>2020-09-17T13:17:43Z</time>
      </trkpt>
      <trkpt lat="45.40844" lon="3.40357">
        <ele>661.6</ele>
        <time>2020-09-17T13:17:44Z</time>
      </trkpt>
      <trkpt lat="45.40843" lon="3.40356">
        <ele>661.6</ele>
        <time>2020-09-17T13:17:45Z</time>
      </trkpt>
      <trkpt lat="45.40842" lon="3.40355">
        <ele>661.7</ele>
        <time>2020-09-17T13:17:46Z</time>
      </trkpt>
      <trkpt lat="45.40841" lon="3.40355">
        <ele>661.7</ele>
        <time>2020-09-17T13:17:47Z</time>
      </trkpt>
      <trkpt lat="45.4084" lon="3.40353">
        <ele>661.8</ele>
        <time>2020-09-17T13:17:48Z</time>
      </trkpt>
      <trkpt lat="45.40839" lon="3.40353">
        <ele>661.8</ele>
        <time>2020-09-17T13:17:49Z</time>
      </trkpt>
      <trkpt lat="45.40838" lon="3.40352">
        <ele>661.9</ele>
        <time>2020-09-17T13:17:50Z</time>
      </trkpt>
      <trkpt lat="45.40837" lon="3.40351">
        <ele>661.9</ele>
        <time>2020-09-17T13:17:51Z</time>
      </trkpt>
      <trkpt lat="45.40836" lon="3.4035">
        <ele>661.9</ele>
        <time>2020-09-17T13:17:52Z</time>
      </trkpt>
      <trkpt lat="45.40835" lon="3.40349">
        <ele>662</ele>
        <time>2020-09-17T13:17:53Z</time>
      </trkpt>
      <trkpt lat="45.40834" lon="3.40348">
        <ele>662</ele>
        <time>2020-09-17T13:17:54Z</time>
      </trkpt>
      <trkpt lat="45.40833" lon="3.40347">
        <ele>662</ele>
        <time>2020-09-17T13:17:55Z</time>
      </trkpt>
      <trkpt lat="45.40832" lon="3.40347">
        <ele>662.1</ele>
        <time>2020-09-17T13:17:56Z</time>
      </trkpt>
      <trkpt lat="45.40831" lon="3.40346">
        <ele>662.1</ele>
        <time>2020-09-17T13:17:57Z</time>
      </trkpt>
      <trkpt lat="45.4083" lon="3.40345">
        <ele>662.1</ele>
        <time>2020-09-17T13:17:58Z</time>
      </trkpt>
      <trkpt lat="45.40829" lon="3.40344">
        <ele>662.1</ele>
        <time>2020-09-17T13:17:59Z</time>
      </trkpt>
      <trkpt lat="45.40828" lon="3.40343">
        <ele>662.1</ele>
        <time>2020-09-17T13:18:00Z</time>
      </trkpt>
      <trkpt lat="45.40827" lon="3.40342">
        <ele>662.2</ele>
        <time>2020-09-17T13:18:01Z</time>
      </trkpt>
      <trkpt lat="45.40826" lon="3.40341">
        <ele>662.2</ele>
        <time>2020-09-17T13:18:02Z</time>
      </trkpt>
      <trkpt lat="45.40825" lon="3.4034">
        <ele>662.2</ele>
        <time>2020-09-17T13:18:03Z</time>
      </trkpt>
      <trkpt lat="45.40824" lon="3.40339">
        <ele>662.3</ele>
        <time>2020-09-17T13:18:04Z</time>
      </trkpt>
      <trkpt lat="45.40823" lon="3.40338">
        <ele>662.3</ele>
        <time>2020-09-17T13:18:05Z</time>
      </trkpt>
      <trkpt lat="45.40822" lon="3.40337">
        <ele>662.4</ele>
        <time>2020-09-17T13:18:06Z</time>
      </trkpt>
      <trkpt lat="45.40821" lon="3.40336">
        <ele>662.4</ele>
        <time>2020-09-17T13:18:07Z</time>
      </trkpt>
      <trkpt lat="45.4082" lon="3.40335">
        <ele>662.5</ele>
        <time>2020-09-17T13:18:08Z</time>
      </trkpt>
      <trkpt lat="45.40819" lon="3.40334">
        <ele>662.6</ele>
        <time>2020-09-17T13:18:09Z</time>
      </trkpt>
      <trkpt lat="45.40818" lon="3.40333">
        <ele>662.6</ele>
        <time>2020-09-17T13:18:10Z</time>
      </trkpt>
      <trkpt lat="45.40817" lon="3.40332">
        <ele>662.7</ele>
        <time>2020-09-17T13:18:11Z</time>
      </trkpt>
      <trkpt lat="45.40816" lon="3.40331">
        <ele>662.8</ele>
        <time>2020-09-17T13:18:12Z</time>
      </trkpt>
      <trkpt lat="45.40815" lon="3.40331">
        <ele>662.9</ele>
        <time>2020-09-17T13:18:13Z</time>
      </trkpt>
      <trkpt lat="45.40814" lon="3.4033">
        <ele>663</ele>
        <time>2020-09-17T13:18:14Z</time>
      </trkpt>
      <trkpt lat="45.40813" lon="3.40329">
        <ele>663.1</ele>
        <time>2020-09-17T13:18:15Z</time>
      </trkpt>
      <trkpt lat="45.40812" lon="3.40328">
        <ele>663.1</ele>
        <time>2020-09-17T13:18:16Z</time>
      </trkpt>
      <trkpt lat="45.40811" lon="3.40327">
        <ele>663.2</ele>
        <time>2020-09-17T13:18:17Z</time>
      </trkpt>
      <trkpt lat="45.4081" lon="3.40326">
        <ele>663.3</ele>
        <time>2020-09-17T13:18:18Z</time>
      </trkpt>
      <trkpt lat="45.40809" lon="3.40325">
        <ele>663.4</ele>
        <time>2020-09-17T13:18:19Z</time>
      </trkpt>
      <trkpt lat="45.40808" lon="3.40324">
        <ele>663.4</ele>
        <time>2020-09-17T13:18:20Z</time>
      </trkpt>
      <trkpt lat="45.40807" lon="3.40323">
        <ele>663.5</ele>
        <time>2020-09-17T13:18:21Z</time>
      </trkpt>
      <trkpt lat="45.40806" lon="3.40322">
        <ele>663.6</ele>
        <time>2020-09-17T13:18:22Z</time>
      </trkpt>
      <trkpt lat="45.40805" lon="3.40321">
        <ele>663.6</ele>
        <time>2020-09-17T13:18:23Z</time>
      </trkpt>
      <trkpt lat="45.40804" lon="3.40321">
        <ele>663.6</ele>
        <time>2020-09-17T13:18:24Z</time>
      </trkpt>
      <trkpt lat="45.40803" lon="3.4032">
        <ele>663.7</ele>
        <time>2020-09-17T13:18:25Z</time>
      </trkpt>
      <trkpt lat="45.40802" lon="3.40319">
        <ele>663.7</ele>
        <time>2020-09-17T13:18:26Z</time>
      </trkpt>
      <trkpt lat="45.40801" lon="3.40318">
        <ele>663.7</ele>
        <time>2020-09-17T13:18:27Z</time>
      </trkpt>
      <trkpt lat="45.408" lon="3.40317">
        <ele>663.8</ele>
        <time>2020-09-17T13:18:28Z</time>
      </trkpt>
      <trkpt lat="45.40799" lon="3.40316">
        <ele>663.8</ele>
        <time>2020-09-17T13:18:29Z</time>
      </trkpt>
      <trkpt lat="45.40798" lon="3.40315">
        <ele>663.8</ele>
        <time>2020-09-17T13:18:30Z</time>
      </trkpt>
      <trkpt lat="45.40797" lon="3.40315">
        <ele>663.8</ele>
        <time>2020-09-17T13:18:31Z</time>
      </trkpt>
      <trkpt lat="45.40796" lon="3.40314">
        <ele>663.8</ele>
        <time>2020-09-17T13:18:32Z</time>
      </trkpt>
      <trkpt lat="45.40795" lon="3.40313">
        <ele>663.8</ele>
        <time>2020-09-17T13:18:33Z</time>
      </trkpt>
      <trkpt lat="45.40794" lon="3.40312">
        <ele>663.8</ele>
        <time>2020-09-17T13:18:34Z</time>
      </trkpt>
      <trkpt lat="45.40793" lon="3.40311">
        <ele>663.8</ele>
        <time>2020-09-17T13:18:35Z</time>
      </trkpt>
      <trkpt lat="45.40792" lon="3.40311">
        <ele>663.8</ele>
        <time>2020-09-17T13:18:36Z</time>
      </trkpt>
      <trkpt lat="45.40791" lon="3.4031">
        <ele>663.8</ele>
        <time>2020-09-17T13:18:37Z</time>
      </trkpt>
      <trkpt lat="45.4079" lon="3.40309">
        <ele>663.8</ele>
        <time>2020-09-17T13:18:38Z</time>
      </trkpt>
      <trkpt lat="45.40789" lon="3.40309">
        <ele>663.8</ele>
        <time>2020-09-17T13:18:39Z</time>
      </trkpt>
      <trkpt lat="45.40788" lon="3.40308">
        <ele>663.8</ele>
        <time>2020-09-17T13:18:40Z</time>
      </trkpt>
      <trkpt lat="45.40787" lon="3.40307">
        <ele>663.8</ele>
        <time>2020-09-17T13:18:41Z</time>
      </trkpt>
      <trkpt lat="45.40786" lon="3.40307">
        <ele>663.8</ele>
        <time>2020-09-17T13:18:42Z</time>
      </trkpt>
      <trkpt lat="45.40785" lon="3.40306">
        <ele>663.8</ele>
        <time>2020-09-17T13:18:43Z</time>
      </trkpt>
      <trkpt lat="45.40784" lon="3.40305">
        <ele>663.8</ele>
        <time>2020-09-17T13:18:44Z</time>
      </trkpt>
      <trkpt lat="45.40783" lon="3.40305">
        <ele>663.9</ele>
        <time>2020-09-17T13:18:45Z</time>
      </trkpt>
      <trkpt lat="45.40782" lon="3.40304">
        <ele>664</ele>
        <time>2020-09-17T13:18:46Z</time>
      </trkpt>
      <trkpt lat="45.40781" lon="3.40304">
        <ele>664.1</ele>
        <time>2020-09-17T13:18:47Z</time>
      </trkpt>
      <trkpt lat="45.40779" lon="3.40303">
        <ele>664.2</ele>
        <time>2020-09-17T13:18:48Z</time>
      </trkpt>
      <trkpt lat="45.40778" lon="3.40303">
        <ele>664.3</ele>
        <time>2020-09-17T13:18:49Z</time>
      </trkpt>
      <trkpt lat="45.40777" lon="3.40302">
        <ele>664.3</ele>
        <time>2020-09-17T13:18:50Z</time>
      </trkpt>
      <trkpt lat="45.40776" lon="3.40302">
        <ele>664.2</ele>
        <time>2020-09-17T13:18:51Z</time>
      </trkpt>
      <trkpt lat="45.40775" lon="3.40302">
        <ele>664.1</ele>
        <time>2020-09-17T13:18:52Z</time>
      </trkpt>
      <trkpt lat="45.40774" lon="3.40302">
        <ele>664</ele>
        <time>2020-09-17T13:18:53Z</time>
      </trkpt>
      <trkpt lat="45.40773" lon="3.40302">
        <ele>663.8</ele>
        <time>2020-09-17T13:18:54Z</time>
      </trkpt>
      <trkpt lat="45.40771" lon="3.40301">
        <ele>663.7</ele>
        <time>2020-09-17T13:18:55Z</time>
      </trkpt>
      <trkpt lat="45.4077" lon="3.40301">
        <ele>663.6</ele>
        <time>2020-09-17T13:18:56Z</time>
      </trkpt>
      <trkpt lat="45.40769" lon="3.40301">
        <ele>663.4</ele>
        <time>2020-09-17T13:18:57Z</time>
      </trkpt>
      <trkpt lat="45.40768" lon="3.40301">
        <ele>663.3</ele>
        <time>2020-09-17T13:18:58Z</time>
      </trkpt>
      <trkpt lat="45.40767" lon="3.40301">
        <ele>663.2</ele>
        <time>2020-09-17T13:18:59Z</time>
      </trkpt>
      <trkpt lat="45.40766" lon="3.403">
        <ele>663.1</ele>
        <time>2020-09-17T13:19:00Z</time>
      </trkpt>
      <trkpt lat="45.40765" lon="3.403">
        <ele>663</ele>
        <time>2020-09-17T13:19:01Z</time>
      </trkpt>
      <trkpt lat="45.40763" lon="3.403">
        <ele>662.8</ele>
        <time>2020-09-17T13:19:02Z</time>
      </trkpt>
      <trkpt lat="45.40762" lon="3.40299">
        <ele>662.7</ele>
        <time>2020-09-17T13:19:03Z</time>
      </trkpt>
      <trkpt lat="45.40761" lon="3.40299">
        <ele>662.6</ele>
        <time>2020-09-17T13:19:04Z</time>
      </trkpt>
      <trkpt lat="45.4076" lon="3.40298">
        <ele>662.5</ele>
        <time>2020-09-17T13:19:05Z</time>
      </trkpt>
      <trkpt lat="45.40759" lon="3.40298">
        <ele>662.4</ele>
        <time>2020-09-17T13:19:06Z</time>
      </trkpt>
      <trkpt lat="45.40758" lon="3.40298">
        <ele>662.2</ele>
        <time>2020-09-17T13:19:07Z</time>
      </trkpt>
      <trkpt lat="45.40756" lon="3.40298">
        <ele>662.1</ele>
        <time>2020-09-17T13:19:08Z</time>
      </trkpt>
      <trkpt lat="45.40755" lon="3.40297">
        <ele>662</ele>
        <time>2020-09-17T13:19:09Z</time>
      </trkpt>
      <trkpt lat="45.40754" lon="3.40297">
        <ele>661.8</ele>
        <time>2020-09-17T13:19:10Z</time>
      </trkpt>
      <trkpt lat="45.40753" lon="3.40296">
        <ele>661.7</ele>
        <time>2020-09-17T13:19:11Z</time>
      </trkpt>
      <trkpt lat="45.40752" lon="3.40296">
        <ele>661.6</ele>
        <time>2020-09-17T13:19:12Z</time>
      </trkpt>
      <trkpt lat="45.40751" lon="3.40295">
        <ele>661.4</ele>
        <time>2020-09-17T13:19:13Z</time>
      </trkpt>
      <trkpt lat="45.4075" lon="3.40294">
        <ele>661.3</ele>
        <time>2020-09-17T13:19:14Z</time>
      </trkpt>
      <trkpt lat="45.40749" lon="3.40294">
        <ele>661</ele>
        <time>2020-09-17T13:19:15Z</time>
      </trkpt>
      <trkpt lat="45.40748" lon="3.40293">
        <ele>660.7</ele>
        <time>2020-09-17T13:19:16Z</time>
      </trkpt>
      <trkpt lat="45.40747" lon="3.40292">
        <ele>660.5</ele>
        <time>2020-09-17T13:19:17Z</time>
      </trkpt>
      <trkpt lat="45.40746" lon="3.40291">
        <ele>660.3</ele>
        <time>2020-09-17T13:19:18Z</time>
      </trkpt>
      <trkpt lat="45.40745" lon="3.40289">
        <ele>660.1</ele>
        <time>2020-09-17T13:19:19Z</time>
      </trkpt>
      <trkpt lat="45.40744" lon="3.40288">
        <ele>660</ele>
        <time>2020-09-17T13:19:20Z</time>
      </trkpt>
      <trkpt lat="45.40743" lon="3.40287">
        <ele>659.7</ele>
        <time>2020-09-17T13:19:21Z</time>
      </trkpt>
      <trkpt lat="45.40742" lon="3.40286">
        <ele>659.6</ele>
        <time>2020-09-17T13:19:22Z</time>
      </trkpt>
      <trkpt lat="45.40742" lon="3.40284">
        <ele>659.5</ele>
        <time>2020-09-17T13:19:23Z</time>
      </trkpt>
      <trkpt lat="45.40741" lon="3.40283">
        <ele>659.3</ele>
        <time>2020-09-17T13:19:24Z</time>
      </trkpt>
      <trkpt lat="45.4074" lon="3.40282">
        <ele>659.2</ele>
        <time>2020-09-17T13:19:25Z</time>
      </trkpt>
      <trkpt lat="45.40739" lon="3.4028">
        <ele>659.1</ele>
        <time>2020-09-17T13:19:26Z</time>
      </trkpt>
      <trkpt lat="45.40738" lon="3.40279">
        <ele>659</ele>
        <time>2020-09-17T13:19:27Z</time>
      </trkpt>
      <trkpt lat="45.40738" lon="3.40278">
        <ele>658.9</ele>
        <time>2020-09-17T13:19:28Z</time>
      </trkpt>
      <trkpt lat="45.40737" lon="3.40276">
        <ele>658.9</ele>
        <time>2020-09-17T13:19:29Z</time>
      </trkpt>
      <trkpt lat="45.40736" lon="3.40275">
        <ele>659</ele>
        <time>2020-09-17T13:19:30Z</time>
      </trkpt>
      <trkpt lat="45.40736" lon="3.40273">
        <ele>659</ele>
        <time>2020-09-17T13:19:31Z</time>
      </trkpt>
      <trkpt lat="45.40735" lon="3.40272">
        <ele>659</ele>
        <time>2020-09-17T13:19:32Z</time>
      </trkpt>
      <trkpt lat="45.40734" lon="3.40271">
        <ele>659</ele>
        <time>2020-09-17T13:19:33Z</time>
      </trkpt>
      <trkpt lat="45.40734" lon="3.40269">
        <ele>659.1</ele>
        <time>2020-09-17T13:19:34Z</time>
      </trkpt>
      <trkpt lat="45.40733" lon="3.40268">
        <ele>659.1</ele>
        <time>2020-09-17T13:19:35Z</time>
      </trkpt>
      <trkpt lat="45.40732" lon="3.40266">
        <ele>659.1</ele>
        <time>2020-09-17T13:19:36Z</time>
      </trkpt>
      <trkpt lat="45.40732" lon="3.40265">
        <ele>659</ele>
        <time>2020-09-17T13:19:37Z</time>
      </trkpt>
      <trkpt lat="45.40731" lon="3.40264">
        <ele>659</ele>
        <time>2020-09-17T13:19:38Z</time>
      </trkpt>
      <trkpt lat="45.4073" lon="3.40262">
        <ele>659</ele>
        <time>2020-09-17T13:19:39Z</time>
      </trkpt>
      <trkpt lat="45.4073" lon="3.40261">
        <ele>659.1</ele>
        <time>2020-09-17T13:19:40Z</time>
      </trkpt>
      <trkpt lat="45.40729" lon="3.40259">
        <ele>659</ele>
        <time>2020-09-17T13:19:41Z</time>
      </trkpt>
      <trkpt lat="45.40728" lon="3.40258">
        <ele>659</ele>
        <time>2020-09-17T13:19:42Z</time>
      </trkpt>
      <trkpt lat="45.40728" lon="3.40256">
        <ele>659</ele>
        <time>2020-09-17T13:19:43Z</time>
      </trkpt>
      <trkpt lat="45.40727" lon="3.40255">
        <ele>659</ele>
        <time>2020-09-17T13:19:44Z</time>
      </trkpt>
      <trkpt lat="45.40726" lon="3.40253">
        <ele>658.9</ele>
        <time>2020-09-17T13:19:45Z</time>
      </trkpt>
      <trkpt lat="45.40726" lon="3.40252">
        <ele>658.9</ele>
        <time>2020-09-17T13:19:46Z</time>
      </trkpt>
      <trkpt lat="45.40725" lon="3.40251">
        <ele>658.8</ele>
        <time>2020-09-17T13:19:47Z</time>
      </trkpt>
      <trkpt lat="45.40724" lon="3.40249">
        <ele>658.8</ele>
        <time>2020-09-17T13:19:48Z</time>
      </trkpt>
      <trkpt lat="45.40724" lon="3.40248">
        <ele>658.7</ele>
        <time>2020-09-17T13:19:49Z</time>
      </trkpt>
      <trkpt lat="45.40723" lon="3.40246">
        <ele>658.6</ele>
        <time>2020-09-17T13:19:50Z</time>
      </trkpt>
      <trkpt lat="45.40722" lon="3.40245">
        <ele>658.5</ele>
        <time>2020-09-17T13:19:51Z</time>
      </trkpt>
      <trkpt lat="45.40722" lon="3.40244">
        <ele>658.5</ele>
        <time>2020-09-17T13:19:52Z</time>
      </trkpt>
      <trkpt lat="45.40721" lon="3.40243">
        <ele>658.4</ele>
        <time>2020-09-17T13:19:53Z</time>
      </trkpt>
      <trkpt lat="45.4072" lon="3.40241">
        <ele>658.4</ele>
        <time>2020-09-17T13:19:54Z</time>
      </trkpt>
      <trkpt lat="45.40719" lon="3.4024">
        <ele>658.4</ele>
        <time>2020-09-17T13:19:55Z</time>
      </trkpt>
      <trkpt lat="45.40719" lon="3.40239">
        <ele>658.4</ele>
        <time>2020-09-17T13:19:56Z</time>
      </trkpt>
      <trkpt lat="45.40718" lon="3.40237">
        <ele>658.4</ele>
        <time>2020-09-17T13:19:57Z</time>
      </trkpt>
      <trkpt lat="45.40717" lon="3.40236">
        <ele>658.3</ele>
        <time>2020-09-17T13:19:58Z</time>
      </trkpt>
      <trkpt lat="45.40717" lon="3.40236">
        <ele>658.2</ele>
        <time>2020-09-17T13:19:59Z</time>
      </trkpt>
      <trkpt lat="45.40716" lon="3.40235">
        <ele>658.3</ele>
        <time>2020-09-17T13:20:00Z</time>
      </trkpt>
      <trkpt lat="45.40716" lon="3.40235">
        <ele>658.3</ele>
        <time>2020-09-17T13:20:01Z</time>
      </trkpt>
      <trkpt lat="45.40716" lon="3.40235">
        <ele>658.2</ele>
        <time>2020-09-17T13:20:02Z</time>
      </trkpt>
      <trkpt lat="45.40715" lon="3.40235">
        <ele>658</ele>
        <time>2020-09-17T13:20:03Z</time>
      </trkpt>
      <trkpt lat="45.40714" lon="3.40234">
        <ele>657.8</ele>
        <time>2020-09-17T13:20:04Z</time>
      </trkpt>
      <trkpt lat="45.40714" lon="3.40234">
        <ele>657.8</ele>
        <time>2020-09-17T13:20:05Z</time>
      </trkpt>
      <trkpt lat="45.40714" lon="3.40234">
        <ele>657.7</ele>
        <time>2020-09-17T13:20:06Z</time>
      </trkpt>
      <trkpt lat="45.40713" lon="3.40234">
        <ele>657.7</ele>
        <time>2020-09-17T13:20:07Z</time>
      </trkpt>
      <trkpt lat="45.40713" lon="3.40233">
        <ele>657.6</ele>
        <time>2020-09-17T13:20:08Z</time>
      </trkpt>
      <trkpt lat="45.40712" lon="3.40233">
        <ele>657.6</ele>
        <time>2020-09-17T13:20:09Z</time>
      </trkpt>
      <trkpt lat="45.40712" lon="3.40232">
        <ele>657.5</ele>
        <time>2020-09-17T13:20:10Z</time>
      </trkpt>
      <trkpt lat="45.40711" lon="3.40232">
        <ele>657.4</ele>
        <time>2020-09-17T13:20:11Z</time>
      </trkpt>
      <trkpt lat="45.4071" lon="3.40231">
        <ele>657.3</ele>
        <time>2020-09-17T13:20:12Z</time>
      </trkpt>
      <trkpt lat="45.4071" lon="3.40231">
        <ele>657.2</ele>
        <time>2020-09-17T13:20:13Z</time>
      </trkpt>
      <trkpt lat="45.40709" lon="3.40231">
        <ele>657</ele>
        <time>2020-09-17T13:20:14Z</time>
      </trkpt>
      <trkpt lat="45.40708" lon="3.4023">
        <ele>657</ele>
        <time>2020-09-17T13:20:15Z</time>
      </trkpt>
      <trkpt lat="45.40708" lon="3.4023">
        <ele>656.9</ele>
        <time>2020-09-17T13:20:16Z</time>
      </trkpt>
      <trkpt lat="45.40707" lon="3.40229">
        <ele>656.8</ele>
        <time>2020-09-17T13:20:17Z</time>
      </trkpt>
      <trkpt lat="45.40706" lon="3.40229">
        <ele>656.7</ele>
        <time>2020-09-17T13:20:18Z</time>
      </trkpt>
      <trkpt lat="45.40705" lon="3.40228">
        <ele>656.6</ele>
        <time>2020-09-17T13:20:19Z</time>
      </trkpt>
      <trkpt lat="45.40705" lon="3.40228">
        <ele>656.6</ele>
        <time>2020-09-17T13:20:20Z</time>
      </trkpt>
      <trkpt lat="45.40704" lon="3.40227">
        <ele>656.4</ele>
        <time>2020-09-17T13:20:21Z</time>
      </trkpt>
      <trkpt lat="45.40703" lon="3.40227">
        <ele>656.3</ele>
        <time>2020-09-17T13:20:22Z</time>
      </trkpt>
      <trkpt lat="45.40703" lon="3.40226">
        <ele>656.2</ele>
        <time>2020-09-17T13:20:23Z</time>
      </trkpt>
      <trkpt lat="45.40702" lon="3.40226">
        <ele>656.1</ele>
        <time>2020-09-17T13:20:24Z</time>
      </trkpt>
      <trkpt lat="45.40701" lon="3.40226">
        <ele>655.9</ele>
        <time>2020-09-17T13:20:25Z</time>
      </trkpt>
      <trkpt lat="45.40701" lon="3.40226">
        <ele>655.8</ele>
        <time>2020-09-17T13:20:26Z</time>
      </trkpt>
      <trkpt lat="45.407" lon="3.40226">
        <ele>655.7</ele>
        <time>2020-09-17T13:20:27Z</time>
      </trkpt>
      <trkpt lat="45.407" lon="3.40226">
        <ele>655.6</ele>
        <time>2020-09-17T13:20:28Z</time>
      </trkpt>
      <trkpt lat="45.40699" lon="3.40226">
        <ele>655.3</ele>
        <time>2020-09-17T13:20:29Z</time>
      </trkpt>
      <trkpt lat="45.40698" lon="3.40227">
        <ele>655.2</ele>
        <time>2020-09-17T13:20:30Z</time>
      </trkpt>
      <trkpt lat="45.40697" lon="3.40227">
        <ele>655</ele>
        <time>2020-09-17T13:20:31Z</time>
      </trkpt>
      <trkpt lat="45.40697" lon="3.40228">
        <ele>654.8</ele>
        <time>2020-09-17T13:20:32Z</time>
      </trkpt>
      <trkpt lat="45.40696" lon="3.40228">
        <ele>654.6</ele>
        <time>2020-09-17T13:20:33Z</time>
      </trkpt>
      <trkpt lat="45.40696" lon="3.40229">
        <ele>654.4</ele>
        <time>2020-09-17T13:20:34Z</time>
      </trkpt>
      <trkpt lat="45.40695" lon="3.40229">
        <ele>654.2</ele>
        <time>2020-09-17T13:20:35Z</time>
      </trkpt>
      <trkpt lat="45.40695" lon="3.4023">
        <ele>654</ele>
        <time>2020-09-17T13:20:36Z</time>
      </trkpt>
      <trkpt lat="45.40694" lon="3.4023">
        <ele>653.8</ele>
        <time>2020-09-17T13:20:37Z</time>
      </trkpt>
      <trkpt lat="45.40694" lon="3.40231">
        <ele>653.7</ele>
        <time>2020-09-17T13:20:38Z</time>
      </trkpt>
      <trkpt lat="45.40693" lon="3.40231">
        <ele>653.5</ele>
        <time>2020-09-17T13:20:39Z</time>
      </trkpt>
      <trkpt lat="45.40693" lon="3.40232">
        <ele>653.3</ele>
        <time>2020-09-17T13:20:40Z</time>
      </trkpt>
      <trkpt lat="45.40692" lon="3.40232">
        <ele>653.2</ele>
        <time>2020-09-17T13:20:41Z</time>
      </trkpt>
      <trkpt lat="45.40692" lon="3.40233">
        <ele>653</ele>
        <time>2020-09-17T13:20:42Z</time>
      </trkpt>
      <trkpt lat="45.40691" lon="3.40233">
        <ele>652.8</ele>
        <time>2020-09-17T13:20:43Z</time>
      </trkpt>
      <trkpt lat="45.40691" lon="3.40234">
        <ele>652.6</ele>
        <time>2020-09-17T13:20:44Z</time>
      </trkpt>
      <trkpt lat="45.4069" lon="3.40234">
        <ele>652.4</ele>
        <time>2020-09-17T13:20:45Z</time>
      </trkpt>
      <trkpt lat="45.40689" lon="3.40235">
        <ele>652.2</ele>
        <time>2020-09-17T13:20:46Z</time>
      </trkpt>
      <trkpt lat="45.40689" lon="3.40236">
        <ele>652</ele>
        <time>2020-09-17T13:20:47Z</time>
      </trkpt>
      <trkpt lat="45.40688" lon="3.40236">
        <ele>651.9</ele>
        <time>2020-09-17T13:20:48Z</time>
      </trkpt>
      <trkpt lat="45.40687" lon="3.40236">
        <ele>651.7</ele>
        <time>2020-09-17T13:20:49Z</time>
      </trkpt>
      <trkpt lat="45.40687" lon="3.40237">
        <ele>651.5</ele>
        <time>2020-09-17T13:20:50Z</time>
      </trkpt>
      <trkpt lat="45.40686" lon="3.40237">
        <ele>651.3</ele>
        <time>2020-09-17T13:20:51Z</time>
      </trkpt>
      <trkpt lat="45.40685" lon="3.40237">
        <ele>651.1</ele>
        <time>2020-09-17T13:20:52Z</time>
      </trkpt>
      <trkpt lat="45.40684" lon="3.40238">
        <ele>651</ele>
        <time>2020-09-17T13:20:53Z</time>
      </trkpt>
      <trkpt lat="45.40683" lon="3.40238">
        <ele>650.7</ele>
        <time>2020-09-17T13:20:54Z</time>
      </trkpt>
      <trkpt lat="45.40683" lon="3.40238">
        <ele>650.6</ele>
        <time>2020-09-17T13:20:55Z</time>
      </trkpt>
      <trkpt lat="45.40682" lon="3.40238">
        <ele>650.4</ele>
        <time>2020-09-17T13:20:56Z</time>
      </trkpt>
      <trkpt lat="45.40681" lon="3.40239">
        <ele>650.2</ele>
        <time>2020-09-17T13:20:57Z</time>
      </trkpt>
      <trkpt lat="45.4068" lon="3.40239">
        <ele>650</ele>
        <time>2020-09-17T13:20:58Z</time>
      </trkpt>
      <trkpt lat="45.40679" lon="3.40239">
        <ele>649.8</ele>
        <time>2020-09-17T13:20:59Z</time>
      </trkpt>
      <trkpt lat="45.40678" lon="3.40239">
        <ele>649.6</ele>
        <time>2020-09-17T13:21:00Z</time>
      </trkpt>
      <trkpt lat="45.40677" lon="3.40239">
        <ele>649.5</ele>
        <time>2020-09-17T13:21:01Z</time>
      </trkpt>
      <trkpt lat="45.40677" lon="3.40239">
        <ele>649.4</ele>
        <time>2020-09-17T13:21:02Z</time>
      </trkpt>
      <trkpt lat="45.40676" lon="3.40239">
        <ele>649.2</ele>
        <time>2020-09-17T13:21:03Z</time>
      </trkpt>
      <trkpt lat="45.40675" lon="3.40239">
        <ele>649.1</ele>
        <time>2020-09-17T13:21:04Z</time>
      </trkpt>
      <trkpt lat="45.40674" lon="3.40239">
        <ele>648.9</ele>
        <time>2020-09-17T13:21:05Z</time>
      </trkpt>
      <trkpt lat="45.40673" lon="3.40239">
        <ele>648.7</ele>
        <time>2020-09-17T13:21:06Z</time>
      </trkpt>
      <trkpt lat="45.40673" lon="3.40239">
        <ele>648.6</ele>
        <time>2020-09-17T13:21:07Z</time>
      </trkpt>
      <trkpt lat="45.40672" lon="3.40239">
        <ele>648.5</ele>
        <time>2020-09-17T13:21:08Z</time>
      </trkpt>
      <trkpt lat="45.40671" lon="3.40239">
        <ele>648.4</ele>
        <time>2020-09-17T13:21:09Z</time>
      </trkpt>
      <trkpt lat="45.40671" lon="3.40239">
        <ele>648.2</ele>
        <time>2020-09-17T13:21:10Z</time>
      </trkpt>
      <trkpt lat="45.4067" lon="3.40239">
        <ele>648.1</ele>
        <time>2020-09-17T13:21:11Z</time>
      </trkpt>
      <trkpt lat="45.40669" lon="3.40239">
        <ele>648</ele>
        <time>2020-09-17T13:21:12Z</time>
      </trkpt>
      <trkpt lat="45.40668" lon="3.40239">
        <ele>647.9</ele>
        <time>2020-09-17T13:21:13Z</time>
      </trkpt>
      <trkpt lat="45.40667" lon="3.40239">
        <ele>647.8</ele>
        <time>2020-09-17T13:21:14Z</time>
      </trkpt>
      <trkpt lat="45.40667" lon="3.40238">
        <ele>647.7</ele>
        <time>2020-09-17T13:21:15Z</time>
      </trkpt>
      <trkpt lat="45.40666" lon="3.40238">
        <ele>647.6</ele>
        <time>2020-09-17T13:21:16Z</time>
      </trkpt>
      <trkpt lat="45.40665" lon="3.40238">
        <ele>647.5</ele>
        <time>2020-09-17T13:21:17Z</time>
      </trkpt>
      <trkpt lat="45.40664" lon="3.40238">
        <ele>647.4</ele>
        <time>2020-09-17T13:21:18Z</time>
      </trkpt>
      <trkpt lat="45.40664" lon="3.40238">
        <ele>647.3</ele>
        <time>2020-09-17T13:21:19Z</time>
      </trkpt>
      <trkpt lat="45.40663" lon="3.40238">
        <ele>647.2</ele>
        <time>2020-09-17T13:21:20Z</time>
      </trkpt>
      <trkpt lat="45.40662" lon="3.40238">
        <ele>647.1</ele>
        <time>2020-09-17T13:21:21Z</time>
      </trkpt>
      <trkpt lat="45.40661" lon="3.40238">
        <ele>647</ele>
        <time>2020-09-17T13:21:22Z</time>
      </trkpt>
      <trkpt lat="45.4066" lon="3.40238">
        <ele>646.9</ele>
        <time>2020-09-17T13:21:23Z</time>
      </trkpt>
      <trkpt lat="45.40659" lon="3.40238">
        <ele>646.8</ele>
        <time>2020-09-17T13:21:24Z</time>
      </trkpt>
      <trkpt lat="45.40658" lon="3.40238">
        <ele>646.7</ele>
        <time>2020-09-17T13:21:25Z</time>
      </trkpt>
      <trkpt lat="45.40657" lon="3.40238">
        <ele>646.6</ele>
        <time>2020-09-17T13:21:26Z</time>
      </trkpt>
      <trkpt lat="45.40657" lon="3.40238">
        <ele>646.4</ele>
        <time>2020-09-17T13:21:27Z</time>
      </trkpt>
      <trkpt lat="45.40656" lon="3.40238">
        <ele>646.4</ele>
        <time>2020-09-17T13:21:28Z</time>
      </trkpt>
      <trkpt lat="45.40655" lon="3.40238">
        <ele>646.3</ele>
        <time>2020-09-17T13:21:29Z</time>
      </trkpt>
      <trkpt lat="45.40654" lon="3.40238">
        <ele>646.2</ele>
        <time>2020-09-17T13:21:30Z</time>
      </trkpt>
      <trkpt lat="45.40653" lon="3.40238">
        <ele>646.1</ele>
        <time>2020-09-17T13:21:31Z</time>
      </trkpt>
      <trkpt lat="45.40652" lon="3.40238">
        <ele>645.9</ele>
        <time>2020-09-17T13:21:32Z</time>
      </trkpt>
      <trkpt lat="45.40651" lon="3.40237">
        <ele>645.8</ele>
        <time>2020-09-17T13:21:33Z</time>
      </trkpt>
      <trkpt lat="45.4065" lon="3.40237">
        <ele>645.7</ele>
        <time>2020-09-17T13:21:34Z</time>
      </trkpt>
      <trkpt lat="45.40649" lon="3.40237">
        <ele>645.6</ele>
        <time>2020-09-17T13:21:35Z</time>
      </trkpt>
      <trkpt lat="45.40648" lon="3.40238">
        <ele>645.4</ele>
        <time>2020-09-17T13:21:36Z</time>
      </trkpt>
      <trkpt lat="45.40647" lon="3.40237">
        <ele>645.3</ele>
        <time>2020-09-17T13:21:37Z</time>
      </trkpt>
      <trkpt lat="45.40646" lon="3.40237">
        <ele>645.2</ele>
        <time>2020-09-17T13:21:38Z</time>
      </trkpt>
      <trkpt lat="45.40645" lon="3.40237">
        <ele>645.1</ele>
        <time>2020-09-17T13:21:39Z</time>
      </trkpt>
      <trkpt lat="45.40644" lon="3.40237">
        <ele>645</ele>
        <time>2020-09-17T13:21:40Z</time>
      </trkpt>
      <trkpt lat="45.40643" lon="3.40237">
        <ele>644.9</ele>
        <time>2020-09-17T13:21:41Z</time>
      </trkpt>
      <trkpt lat="45.40642" lon="3.40237">
        <ele>644.8</ele>
        <time>2020-09-17T13:21:42Z</time>
      </trkpt>
      <trkpt lat="45.40641" lon="3.40236">
        <ele>644.7</ele>
        <time>2020-09-17T13:21:43Z</time>
      </trkpt>
      <trkpt lat="45.4064" lon="3.40236">
        <ele>644.6</ele>
        <time>2020-09-17T13:21:44Z</time>
      </trkpt>
      <trkpt lat="45.40639" lon="3.40236">
        <ele>644.5</ele>
        <time>2020-09-17T13:21:45Z</time>
      </trkpt>
      <trkpt lat="45.40638" lon="3.40236">
        <ele>644.4</ele>
        <time>2020-09-17T13:21:46Z</time>
      </trkpt>
      <trkpt lat="45.40637" lon="3.40236">
        <ele>644.3</ele>
        <time>2020-09-17T13:21:47Z</time>
      </trkpt>
      <trkpt lat="45.40636" lon="3.40236">
        <ele>644.3</ele>
        <time>2020-09-17T13:21:48Z</time>
      </trkpt>
      <trkpt lat="45.40635" lon="3.40236">
        <ele>644.2</ele>
        <time>2020-09-17T13:21:49Z</time>
      </trkpt>
      <trkpt lat="45.40634" lon="3.40236">
        <ele>644.2</ele>
        <time>2020-09-17T13:21:50Z</time>
      </trkpt>
      <trkpt lat="45.40633" lon="3.40236">
        <ele>644.1</ele>
        <time>2020-09-17T13:21:51Z</time>
      </trkpt>
      <trkpt lat="45.40632" lon="3.40236">
        <ele>644</ele>
        <time>2020-09-17T13:21:52Z</time>
      </trkpt>
      <trkpt lat="45.40631" lon="3.40236">
        <ele>643.9</ele>
        <time>2020-09-17T13:21:53Z</time>
      </trkpt>
      <trkpt lat="45.40629" lon="3.40236">
        <ele>643.8</ele>
        <time>2020-09-17T13:21:54Z</time>
      </trkpt>
      <trkpt lat="45.40628" lon="3.40236">
        <ele>643.7</ele>
        <time>2020-09-17T13:21:55Z</time>
      </trkpt>
      <trkpt lat="45.40627" lon="3.40237">
        <ele>643.6</ele>
        <time>2020-09-17T13:21:56Z</time>
      </trkpt>
      <trkpt lat="45.40626" lon="3.40237">
        <ele>643.4</ele>
        <time>2020-09-17T13:21:57Z</time>
      </trkpt>
      <trkpt lat="45.40625" lon="3.40237">
        <ele>643.3</ele>
        <time>2020-09-17T13:21:58Z</time>
      </trkpt>
      <trkpt lat="45.40624" lon="3.40237">
        <ele>643.3</ele>
        <time>2020-09-17T13:21:59Z</time>
      </trkpt>
      <trkpt lat="45.40623" lon="3.40237">
        <ele>643.2</ele>
        <time>2020-09-17T13:22:00Z</time>
      </trkpt>
      <trkpt lat="45.40622" lon="3.40237">
        <ele>643.1</ele>
        <time>2020-09-17T13:22:01Z</time>
      </trkpt>
      <trkpt lat="45.40621" lon="3.40237">
        <ele>643</ele>
        <time>2020-09-17T13:22:02Z</time>
      </trkpt>
      <trkpt lat="45.40619" lon="3.40237">
        <ele>642.9</ele>
        <time>2020-09-17T13:22:03Z</time>
      </trkpt>
      <trkpt lat="45.40618" lon="3.40237">
        <ele>642.8</ele>
        <time>2020-09-17T13:22:04Z</time>
      </trkpt>
      <trkpt lat="45.40617" lon="3.40237">
        <ele>642.7</ele>
        <time>2020-09-17T13:22:05Z</time>
      </trkpt>
      <trkpt lat="45.40616" lon="3.40238">
        <ele>642.6</ele>
        <time>2020-09-17T13:22:06Z</time>
      </trkpt>
      <trkpt lat="45.40615" lon="3.40238">
        <ele>642.5</ele>
        <time>2020-09-17T13:22:07Z</time>
      </trkpt>
      <trkpt lat="45.40614" lon="3.40238">
        <ele>642.4</ele>
        <time>2020-09-17T13:22:08Z</time>
      </trkpt>
      <trkpt lat="45.40613" lon="3.40238">
        <ele>642.3</ele>
        <time>2020-09-17T13:22:09Z</time>
      </trkpt>
      <trkpt lat="45.40612" lon="3.40238">
        <ele>642.2</ele>
        <time>2020-09-17T13:22:10Z</time>
      </trkpt>
      <trkpt lat="45.40611" lon="3.40238">
        <ele>642.2</ele>
        <time>2020-09-17T13:22:11Z</time>
      </trkpt>
      <trkpt lat="45.4061" lon="3.40238">
        <ele>642.1</ele>
        <time>2020-09-17T13:22:12Z</time>
      </trkpt>
      <trkpt lat="45.40609" lon="3.40238">
        <ele>642</ele>
        <time>2020-09-17T13:22:13Z</time>
      </trkpt>
      <trkpt lat="45.40608" lon="3.40238">
        <ele>642</ele>
        <time>2020-09-17T13:22:14Z</time>
      </trkpt>
      <trkpt lat="45.40607" lon="3.40239">
        <ele>641.9</ele>
        <time>2020-09-17T13:22:15Z</time>
      </trkpt>
      <trkpt lat="45.40606" lon="3.40239">
        <ele>641.9</ele>
        <time>2020-09-17T13:22:16Z</time>
      </trkpt>
      <trkpt lat="45.40605" lon="3.40239">
        <ele>641.8</ele>
        <time>2020-09-17T13:22:17Z</time>
      </trkpt>
      <trkpt lat="45.40603" lon="3.40239">
        <ele>641.8</ele>
        <time>2020-09-17T13:22:18Z</time>
      </trkpt>
      <trkpt lat="45.40602" lon="3.40239">
        <ele>641.7</ele>
        <time>2020-09-17T13:22:19Z</time>
      </trkpt>
      <trkpt lat="45.40601" lon="3.40239">
        <ele>641.7</ele>
        <time>2020-09-17T13:22:20Z</time>
      </trkpt>
      <trkpt lat="45.406" lon="3.40239">
        <ele>641.6</ele>
        <time>2020-09-17T13:22:21Z</time>
      </trkpt>
      <trkpt lat="45.40599" lon="3.40239">
        <ele>641.5</ele>
        <time>2020-09-17T13:22:22Z</time>
      </trkpt>
      <trkpt lat="45.40598" lon="3.4024">
        <ele>641.4</ele>
        <time>2020-09-17T13:22:23Z</time>
      </trkpt>
      <trkpt lat="45.40597" lon="3.4024">
        <ele>641.3</ele>
        <time>2020-09-17T13:22:24Z</time>
      </trkpt>
      <trkpt lat="45.40596" lon="3.4024">
        <ele>641.3</ele>
        <time>2020-09-17T13:22:25Z</time>
      </trkpt>
      <trkpt lat="45.40595" lon="3.4024">
        <ele>641.3</ele>
        <time>2020-09-17T13:22:26Z</time>
      </trkpt>
      <trkpt lat="45.40594" lon="3.4024">
        <ele>641.2</ele>
        <time>2020-09-17T13:22:27Z</time>
      </trkpt>
      <trkpt lat="45.40593" lon="3.4024">
        <ele>641.2</ele>
        <time>2020-09-17T13:22:28Z</time>
      </trkpt>
      <trkpt lat="45.40592" lon="3.4024">
        <ele>641.2</ele>
        <time>2020-09-17T13:22:29Z</time>
      </trkpt>
      <trkpt lat="45.40591" lon="3.4024">
        <ele>641</ele>
        <time>2020-09-17T13:22:30Z</time>
      </trkpt>
      <trkpt lat="45.4059" lon="3.40241">
        <ele>640.9</ele>
        <time>2020-09-17T13:22:31Z</time>
      </trkpt>
      <trkpt lat="45.40588" lon="3.40241">
        <ele>640.8</ele>
        <time>2020-09-17T13:22:32Z</time>
      </trkpt>
      <trkpt lat="45.40587" lon="3.40242">
        <ele>640.7</ele>
        <time>2020-09-17T13:22:33Z</time>
      </trkpt>
      <trkpt lat="45.40586" lon="3.40242">
        <ele>640.6</ele>
        <time>2020-09-17T13:22:34Z</time>
      </trkpt>
      <trkpt lat="45.40584" lon="3.40242">
        <ele>640.4</ele>
        <time>2020-09-17T13:22:35Z</time>
      </trkpt>
      <trkpt lat="45.40583" lon="3.40243">
        <ele>640.3</ele>
        <time>2020-09-17T13:22:36Z</time>
      </trkpt>
      <trkpt lat="45.40582" lon="3.40243">
        <ele>640.3</ele>
        <time>2020-09-17T13:22:37Z</time>
      </trkpt>
      <trkpt lat="45.40581" lon="3.40243">
        <ele>640.1</ele>
        <time>2020-09-17T13:22:38Z</time>
      </trkpt>
      <trkpt lat="45.4058" lon="3.40243">
        <ele>640.1</ele>
        <time>2020-09-17T13:22:39Z</time>
      </trkpt>
      <trkpt lat="45.40579" lon="3.40243">
        <ele>640</ele>
        <time>2020-09-17T13:22:40Z</time>
      </trkpt>
      <trkpt lat="45.40577" lon="3.40243">
        <ele>640</ele>
        <time>2020-09-17T13:22:41Z</time>
      </trkpt>
      <trkpt lat="45.40576" lon="3.40243">
        <ele>639.9</ele>
        <time>2020-09-17T13:22:42Z</time>
      </trkpt>
      <trkpt lat="45.40575" lon="3.40244">
        <ele>639.8</ele>
        <time>2020-09-17T13:22:43Z</time>
      </trkpt>
      <trkpt lat="45.40574" lon="3.40244">
        <ele>639.7</ele>
        <time>2020-09-17T13:22:44Z</time>
      </trkpt>
      <trkpt lat="45.40573" lon="3.40244">
        <ele>639.6</ele>
        <time>2020-09-17T13:22:45Z</time>
      </trkpt>
      <trkpt lat="45.40572" lon="3.40244">
        <ele>639.6</ele>
        <time>2020-09-17T13:22:46Z</time>
      </trkpt>
      <trkpt lat="45.40571" lon="3.40244">
        <ele>639.5</ele>
        <time>2020-09-17T13:22:47Z</time>
      </trkpt>
      <trkpt lat="45.40569" lon="3.40244">
        <ele>639.4</ele>
        <time>2020-09-17T13:22:48Z</time>
      </trkpt>
      <trkpt lat="45.40568" lon="3.40244">
        <ele>639.4</ele>
        <time>2020-09-17T13:22:49Z</time>
      </trkpt>
      <trkpt lat="45.40567" lon="3.40245">
        <ele>639.3</ele>
        <time>2020-09-17T13:22:50Z</time>
      </trkpt>
      <trkpt lat="45.40566" lon="3.40245">
        <ele>639.2</ele>
        <time>2020-09-17T13:22:51Z</time>
      </trkpt>
      <trkpt lat="45.40565" lon="3.40245">
        <ele>639.1</ele>
        <time>2020-09-17T13:22:52Z</time>
      </trkpt>
      <trkpt lat="45.40563" lon="3.40246">
        <ele>639</ele>
        <time>2020-09-17T13:22:53Z</time>
      </trkpt>
      <trkpt lat="45.40562" lon="3.40246">
        <ele>638.9</ele>
        <time>2020-09-17T13:22:54Z</time>
      </trkpt>
      <trkpt lat="45.40561" lon="3.40246">
        <ele>638.8</ele>
        <time>2020-09-17T13:22:55Z</time>
      </trkpt>
      <trkpt lat="45.4056" lon="3.40246">
        <ele>638.8</ele>
        <time>2020-09-17T13:22:56Z</time>
      </trkpt>
      <trkpt lat="45.40559" lon="3.40246">
        <ele>638.7</ele>
        <time>2020-09-17T13:22:57Z</time>
      </trkpt>
      <trkpt lat="45.40558" lon="3.40246">
        <ele>638.7</ele>
        <time>2020-09-17T13:22:58Z</time>
      </trkpt>
      <trkpt lat="45.40557" lon="3.40246">
        <ele>638.7</ele>
        <time>2020-09-17T13:22:59Z</time>
      </trkpt>
      <trkpt lat="45.40556" lon="3.40246">
        <ele>638.6</ele>
        <time>2020-09-17T13:23:00Z</time>
      </trkpt>
      <trkpt lat="45.40554" lon="3.40246">
        <ele>638.5</ele>
        <time>2020-09-17T13:23:01Z</time>
      </trkpt>
      <trkpt lat="45.40553" lon="3.40246">
        <ele>638.3</ele>
        <time>2020-09-17T13:23:02Z</time>
      </trkpt>
      <trkpt lat="45.40552" lon="3.40246">
        <ele>638.2</ele>
        <time>2020-09-17T13:23:03Z</time>
      </trkpt>
      <trkpt lat="45.40551" lon="3.40246">
        <ele>638.1</ele>
        <time>2020-09-17T13:23:04Z</time>
      </trkpt>
      <trkpt lat="45.4055" lon="3.40246">
        <ele>638</ele>
        <time>2020-09-17T13:23:05Z</time>
      </trkpt>
      <trkpt lat="45.40549" lon="3.40246">
        <ele>637.9</ele>
        <time>2020-09-17T13:23:06Z</time>
      </trkpt>
      <trkpt lat="45.40548" lon="3.40246">
        <ele>637.8</ele>
        <time>2020-09-17T13:23:07Z</time>
      </trkpt>
      <trkpt lat="45.40547" lon="3.40246">
        <ele>637.7</ele>
        <time>2020-09-17T13:23:08Z</time>
      </trkpt>
      <trkpt lat="45.40546" lon="3.40245">
        <ele>637.7</ele>
        <time>2020-09-17T13:23:09Z</time>
      </trkpt>
      <trkpt lat="45.40545" lon="3.40245">
        <ele>637.6</ele>
        <time>2020-09-17T13:23:10Z</time>
      </trkpt>
      <trkpt lat="45.40543" lon="3.40245">
        <ele>637.5</ele>
        <time>2020-09-17T13:23:11Z</time>
      </trkpt>
      <trkpt lat="45.40542" lon="3.40245">
        <ele>637.4</ele>
        <time>2020-09-17T13:23:12Z</time>
      </trkpt>
      <trkpt lat="45.40541" lon="3.40245">
        <ele>637.3</ele>
        <time>2020-09-17T13:23:13Z</time>
      </trkpt>
      <trkpt lat="45.4054" lon="3.40245">
        <ele>637.2</ele>
        <time>2020-09-17T13:23:14Z</time>
      </trkpt>
      <trkpt lat="45.40539" lon="3.40244">
        <ele>637.1</ele>
        <time>2020-09-17T13:23:15Z</time>
      </trkpt>
      <trkpt lat="45.40538" lon="3.40244">
        <ele>637</ele>
        <time>2020-09-17T13:23:16Z</time>
      </trkpt>
      <trkpt lat="45.40537" lon="3.40244">
        <ele>637</ele>
        <time>2020-09-17T13:23:17Z</time>
      </trkpt>
      <trkpt lat="45.40535" lon="3.40244">
        <ele>636.9</ele>
        <time>2020-09-17T13:23:18Z</time>
      </trkpt>
      <trkpt lat="45.40534" lon="3.40244">
        <ele>636.8</ele>
        <time>2020-09-17T13:23:19Z</time>
      </trkpt>
      <trkpt lat="45.40533" lon="3.40243">
        <ele>636.7</ele>
        <time>2020-09-17T13:23:20Z</time>
      </trkpt>
      <trkpt lat="45.40532" lon="3.40243">
        <ele>636.7</ele>
        <time>2020-09-17T13:23:21Z</time>
      </trkpt>
      <trkpt lat="45.40531" lon="3.40242">
        <ele>636.6</ele>
        <time>2020-09-17T13:23:22Z</time>
      </trkpt>
      <trkpt lat="45.40529" lon="3.40242">
        <ele>636.6</ele>
        <time>2020-09-17T13:23:23Z</time>
      </trkpt>
      <trkpt lat="45.40528" lon="3.40242">
        <ele>636.6</ele>
        <time>2020-09-17T13:23:24Z</time>
      </trkpt>
      <trkpt lat="45.40527" lon="3.40241">
        <ele>636.5</ele>
        <time>2020-09-17T13:23:25Z</time>
      </trkpt>
      <trkpt lat="45.40526" lon="3.40241">
        <ele>636.3</ele>
        <time>2020-09-17T13:23:26Z</time>
      </trkpt>
      <trkpt lat="45.40524" lon="3.4024">
        <ele>636.2</ele>
        <time>2020-09-17T13:23:27Z</time>
      </trkpt>
      <trkpt lat="45.40523" lon="3.40239">
        <ele>636.1</ele>
        <time>2020-09-17T13:23:28Z</time>
      </trkpt>
      <trkpt lat="45.40522" lon="3.40239">
        <ele>636</ele>
        <time>2020-09-17T13:23:29Z</time>
      </trkpt>
      <trkpt lat="45.40521" lon="3.40238">
        <ele>635.9</ele>
        <time>2020-09-17T13:23:30Z</time>
      </trkpt>
      <trkpt lat="45.4052" lon="3.40238">
        <ele>635.8</ele>
        <time>2020-09-17T13:23:31Z</time>
      </trkpt>
      <trkpt lat="45.40519" lon="3.40237">
        <ele>635.7</ele>
        <time>2020-09-17T13:23:32Z</time>
      </trkpt>
      <trkpt lat="45.40517" lon="3.40237">
        <ele>635.5</ele>
        <time>2020-09-17T13:23:33Z</time>
      </trkpt>
      <trkpt lat="45.40516" lon="3.40236">
        <ele>635.4</ele>
        <time>2020-09-17T13:23:34Z</time>
      </trkpt>
      <trkpt lat="45.40515" lon="3.40236">
        <ele>635.3</ele>
        <time>2020-09-17T13:23:35Z</time>
      </trkpt>
      <trkpt lat="45.40514" lon="3.40235">
        <ele>635.2</ele>
        <time>2020-09-17T13:23:36Z</time>
      </trkpt>
      <trkpt lat="45.40513" lon="3.40234">
        <ele>635.1</ele>
        <time>2020-09-17T13:23:37Z</time>
      </trkpt>
      <trkpt lat="45.40512" lon="3.40234">
        <ele>635</ele>
        <time>2020-09-17T13:23:38Z</time>
      </trkpt>
      <trkpt lat="45.40511" lon="3.40233">
        <ele>634.9</ele>
        <time>2020-09-17T13:23:39Z</time>
      </trkpt>
      <trkpt lat="45.4051" lon="3.40233">
        <ele>634.8</ele>
        <time>2020-09-17T13:23:40Z</time>
      </trkpt>
      <trkpt lat="45.40508" lon="3.40232">
        <ele>634.7</ele>
        <time>2020-09-17T13:23:41Z</time>
      </trkpt>
      <trkpt lat="45.40507" lon="3.40232">
        <ele>634.6</ele>
        <time>2020-09-17T13:23:42Z</time>
      </trkpt>
      <trkpt lat="45.40506" lon="3.40231">
        <ele>634.6</ele>
        <time>2020-09-17T13:23:43Z</time>
      </trkpt>
      <trkpt lat="45.40506" lon="3.4023">
        <ele>634.5</ele>
        <time>2020-09-17T13:23:44Z</time>
      </trkpt>
      <trkpt lat="45.40505" lon="3.4023">
        <ele>634.5</ele>
        <time>2020-09-17T13:23:45Z</time>
      </trkpt>
      <trkpt lat="45.40504" lon="3.40229">
        <ele>634.5</ele>
        <time>2020-09-17T13:23:46Z</time>
      </trkpt>
      <trkpt lat="45.40503" lon="3.40228">
        <ele>634.5</ele>
        <time>2020-09-17T13:23:47Z</time>
      </trkpt>
      <trkpt lat="45.40502" lon="3.40228">
        <ele>634.4</ele>
        <time>2020-09-17T13:23:48Z</time>
      </trkpt>
      <trkpt lat="45.40501" lon="3.40227">
        <ele>634.3</ele>
        <time>2020-09-17T13:23:49Z</time>
      </trkpt>
      <trkpt lat="45.405" lon="3.40227">
        <ele>634.2</ele>
        <time>2020-09-17T13:23:50Z</time>
      </trkpt>
      <trkpt lat="45.40499" lon="3.40227">
        <ele>634</ele>
        <time>2020-09-17T13:23:51Z</time>
      </trkpt>
      <trkpt lat="45.40499" lon="3.40227">
        <ele>633.8</ele>
        <time>2020-09-17T13:23:52Z</time>
      </trkpt>
      <trkpt lat="45.40498" lon="3.40226">
        <ele>633.7</ele>
        <time>2020-09-17T13:23:53Z</time>
      </trkpt>
      <trkpt lat="45.40497" lon="3.40225">
        <ele>633.6</ele>
        <time>2020-09-17T13:23:54Z</time>
      </trkpt>
      <trkpt lat="45.40496" lon="3.40225">
        <ele>633.4</ele>
        <time>2020-09-17T13:23:55Z</time>
      </trkpt>
      <trkpt lat="45.40496" lon="3.40224">
        <ele>633.4</ele>
        <time>2020-09-17T13:23:56Z</time>
      </trkpt>
      <trkpt lat="45.40495" lon="3.40224">
        <ele>633.3</ele>
        <time>2020-09-17T13:23:57Z</time>
      </trkpt>
      <trkpt lat="45.40495" lon="3.40223">
        <ele>633.2</ele>
        <time>2020-09-17T13:23:58Z</time>
      </trkpt>
      <trkpt lat="45.40494" lon="3.40223">
        <ele>633.1</ele>
        <time>2020-09-17T13:23:59Z</time>
      </trkpt>
      <trkpt lat="45.40493" lon="3.40222">
        <ele>632.9</ele>
        <time>2020-09-17T13:24:00Z</time>
      </trkpt>
      <trkpt lat="45.40492" lon="3.40222">
        <ele>632.8</ele>
        <time>2020-09-17T13:24:01Z</time>
      </trkpt>
      <trkpt lat="45.40491" lon="3.40221">
        <ele>632.6</ele>
        <time>2020-09-17T13:24:02Z</time>
      </trkpt>
      <trkpt lat="45.4049" lon="3.40221">
        <ele>632.4</ele>
        <time>2020-09-17T13:24:03Z</time>
      </trkpt>
      <trkpt lat="45.40489" lon="3.4022">
        <ele>632.2</ele>
        <time>2020-09-17T13:24:04Z</time>
      </trkpt>
      <trkpt lat="45.40488" lon="3.40219">
        <ele>632</ele>
        <time>2020-09-17T13:24:05Z</time>
      </trkpt>
      <trkpt lat="45.40487" lon="3.40219">
        <ele>631.9</ele>
        <time>2020-09-17T13:24:06Z</time>
      </trkpt>
      <trkpt lat="45.40486" lon="3.40218">
        <ele>631.7</ele>
        <time>2020-09-17T13:24:07Z</time>
      </trkpt>
      <trkpt lat="45.40485" lon="3.40218">
        <ele>631.5</ele>
        <time>2020-09-17T13:24:08Z</time>
      </trkpt>
      <trkpt lat="45.40484" lon="3.40217">
        <ele>631.4</ele>
        <time>2020-09-17T13:24:09Z</time>
      </trkpt>
      <trkpt lat="45.40483" lon="3.40216">
        <ele>631.3</ele>
        <time>2020-09-17T13:24:10Z</time>
      </trkpt>
      <trkpt lat="45.40482" lon="3.40216">
        <ele>631.1</ele>
        <time>2020-09-17T13:24:11Z</time>
      </trkpt>
      <trkpt lat="45.40481" lon="3.40215">
        <ele>631</ele>
        <time>2020-09-17T13:24:12Z</time>
      </trkpt>
      <trkpt lat="45.4048" lon="3.40214">
        <ele>630.8</ele>
        <time>2020-09-17T13:24:13Z</time>
      </trkpt>
      <trkpt lat="45.40479" lon="3.40214">
        <ele>630.7</ele>
        <time>2020-09-17T13:24:14Z</time>
      </trkpt>
      <trkpt lat="45.40478" lon="3.40213">
        <ele>630.6</ele>
        <time>2020-09-17T13:24:15Z</time>
      </trkpt>
      <trkpt lat="45.40477" lon="3.40213">
        <ele>630.4</ele>
        <time>2020-09-17T13:24:16Z</time>
      </trkpt>
      <trkpt lat="45.40476" lon="3.40212">
        <ele>630.3</ele>
        <time>2020-09-17T13:24:17Z</time>
      </trkpt>
      <trkpt lat="45.40475" lon="3.40211">
        <ele>630.2</ele>
        <time>2020-09-17T13:24:18Z</time>
      </trkpt>
      <trkpt lat="45.40474" lon="3.40211">
        <ele>630</ele>
        <time>2020-09-17T13:24:19Z</time>
      </trkpt>
      <trkpt lat="45.40473" lon="3.4021">
        <ele>629.8</ele>
        <time>2020-09-17T13:24:20Z</time>
      </trkpt>
      <trkpt lat="45.40472" lon="3.4021">
        <ele>629.7</ele>
        <time>2020-09-17T13:24:21Z</time>
      </trkpt>
      <trkpt lat="45.40471" lon="3.40209">
        <ele>629.7</ele>
        <time>2020-09-17T13:24:22Z</time>
      </trkpt>
      <trkpt lat="45.4047" lon="3.40209">
        <ele>629.6</ele>
        <time>2020-09-17T13:24:23Z</time>
      </trkpt>
      <trkpt lat="45.40469" lon="3.40209">
        <ele>629.6</ele>
        <time>2020-09-17T13:24:24Z</time>
      </trkpt>
      <trkpt lat="45.40468" lon="3.40209">
        <ele>629.6</ele>
        <time>2020-09-17T13:24:25Z</time>
      </trkpt>
      <trkpt lat="45.40467" lon="3.40208">
        <ele>629.5</ele>
        <time>2020-09-17T13:24:26Z</time>
      </trkpt>
      <trkpt lat="45.40466" lon="3.40208">
        <ele>629.4</ele>
        <time>2020-09-17T13:24:27Z</time>
      </trkpt>
      <trkpt lat="45.40465" lon="3.40208">
        <ele>629.3</ele>
        <time>2020-09-17T13:24:28Z</time>
      </trkpt>
      <trkpt lat="45.40463" lon="3.40208">
        <ele>629.2</ele>
        <time>2020-09-17T13:24:29Z</time>
      </trkpt>
      <trkpt lat="45.40462" lon="3.40208">
        <ele>629.2</ele>
        <time>2020-09-17T13:24:30Z</time>
      </trkpt>
      <trkpt lat="45.40461" lon="3.40208">
        <ele>629.1</ele>
        <time>2020-09-17T13:24:31Z</time>
      </trkpt>
      <trkpt lat="45.4046" lon="3.40208">
        <ele>629</ele>
        <time>2020-09-17T13:24:32Z</time>
      </trkpt>
      <trkpt lat="45.40459" lon="3.40208">
        <ele>628.9</ele>
        <time>2020-09-17T13:24:33Z</time>
      </trkpt>
      <trkpt lat="45.40458" lon="3.40208">
        <ele>628.8</ele>
        <time>2020-09-17T13:24:34Z</time>
      </trkpt>
      <trkpt lat="45.40457" lon="3.40208">
        <ele>628.8</ele>
        <time>2020-09-17T13:24:35Z</time>
      </trkpt>
      <trkpt lat="45.40456" lon="3.40207">
        <ele>628.7</ele>
        <time>2020-09-17T13:24:36Z</time>
      </trkpt>
      <trkpt lat="45.40455" lon="3.40207">
        <ele>628.7</ele>
        <time>2020-09-17T13:24:37Z</time>
      </trkpt>
      <trkpt lat="45.40454" lon="3.40207">
        <ele>628.7</ele>
        <time>2020-09-17T13:24:38Z</time>
      </trkpt>
      <trkpt lat="45.40453" lon="3.40207">
        <ele>628.6</ele>
        <time>2020-09-17T13:24:39Z</time>
      </trkpt>
      <trkpt lat="45.40452" lon="3.40207">
        <ele>628.6</ele>
        <time>2020-09-17T13:24:40Z</time>
      </trkpt>
      <trkpt lat="45.40451" lon="3.40206">
        <ele>628.6</ele>
        <time>2020-09-17T13:24:41Z</time>
      </trkpt>
      <trkpt lat="45.4045" lon="3.40206">
        <ele>628.5</ele>
        <time>2020-09-17T13:24:42Z</time>
      </trkpt>
      <trkpt lat="45.40449" lon="3.40206">
        <ele>628.5</ele>
        <time>2020-09-17T13:24:43Z</time>
      </trkpt>
      <trkpt lat="45.40448" lon="3.40206">
        <ele>628.4</ele>
        <time>2020-09-17T13:24:44Z</time>
      </trkpt>
      <trkpt lat="45.40446" lon="3.40206">
        <ele>628.4</ele>
        <time>2020-09-17T13:24:45Z</time>
      </trkpt>
      <trkpt lat="45.40445" lon="3.40205">
        <ele>628.3</ele>
        <time>2020-09-17T13:24:46Z</time>
      </trkpt>
      <trkpt lat="45.40444" lon="3.40205">
        <ele>628.3</ele>
        <time>2020-09-17T13:24:47Z</time>
      </trkpt>
      <trkpt lat="45.40443" lon="3.40205">
        <ele>628.2</ele>
        <time>2020-09-17T13:24:48Z</time>
      </trkpt>
      <trkpt lat="45.40442" lon="3.40205">
        <ele>628.1</ele>
        <time>2020-09-17T13:24:49Z</time>
      </trkpt>
      <trkpt lat="45.40441" lon="3.40205">
        <ele>628.1</ele>
        <time>2020-09-17T13:24:50Z</time>
      </trkpt>
      <trkpt lat="45.40439" lon="3.40204">
        <ele>628</ele>
        <time>2020-09-17T13:24:51Z</time>
      </trkpt>
      <trkpt lat="45.40438" lon="3.40204">
        <ele>628</ele>
        <time>2020-09-17T13:24:52Z</time>
      </trkpt>
      <trkpt lat="45.40437" lon="3.40204">
        <ele>627.9</ele>
        <time>2020-09-17T13:24:53Z</time>
      </trkpt>
      <trkpt lat="45.40436" lon="3.40204">
        <ele>627.8</ele>
        <time>2020-09-17T13:24:54Z</time>
      </trkpt>
      <trkpt lat="45.40434" lon="3.40204">
        <ele>627.7</ele>
        <time>2020-09-17T13:24:55Z</time>
      </trkpt>
      <trkpt lat="45.40433" lon="3.40203">
        <ele>627.7</ele>
        <time>2020-09-17T13:24:56Z</time>
      </trkpt>
      <trkpt lat="45.40432" lon="3.40203">
        <ele>627.6</ele>
        <time>2020-09-17T13:24:57Z</time>
      </trkpt>
      <trkpt lat="45.40431" lon="3.40203">
        <ele>627.5</ele>
        <time>2020-09-17T13:24:58Z</time>
      </trkpt>
      <trkpt lat="45.40429" lon="3.40203">
        <ele>627.4</ele>
        <time>2020-09-17T13:24:59Z</time>
      </trkpt>
      <trkpt lat="45.40428" lon="3.40202">
        <ele>627.4</ele>
        <time>2020-09-17T13:25:00Z</time>
      </trkpt>
      <trkpt lat="45.40427" lon="3.40202">
        <ele>627.3</ele>
        <time>2020-09-17T13:25:01Z</time>
      </trkpt>
      <trkpt lat="45.40426" lon="3.40202">
        <ele>627.3</ele>
        <time>2020-09-17T13:25:02Z</time>
      </trkpt>
      <trkpt lat="45.40424" lon="3.40202">
        <ele>627.2</ele>
        <time>2020-09-17T13:25:03Z</time>
      </trkpt>
      <trkpt lat="45.40423" lon="3.40201">
        <ele>627.2</ele>
        <time>2020-09-17T13:25:04Z</time>
      </trkpt>
      <trkpt lat="45.40422" lon="3.40201">
        <ele>627.2</ele>
        <time>2020-09-17T13:25:05Z</time>
      </trkpt>
      <trkpt lat="45.40421" lon="3.402">
        <ele>627.2</ele>
        <time>2020-09-17T13:25:06Z</time>
      </trkpt>
      <trkpt lat="45.40419" lon="3.40199">
        <ele>627.2</ele>
        <time>2020-09-17T13:25:07Z</time>
      </trkpt>
      <trkpt lat="45.40418" lon="3.40199">
        <ele>627.3</ele>
        <time>2020-09-17T13:25:08Z</time>
      </trkpt>
      <trkpt lat="45.40417" lon="3.40198">
        <ele>627.3</ele>
        <time>2020-09-17T13:25:09Z</time>
      </trkpt>
      <trkpt lat="45.40416" lon="3.40197">
        <ele>627.2</ele>
        <time>2020-09-17T13:25:10Z</time>
      </trkpt>
      <trkpt lat="45.40415" lon="3.40197">
        <ele>627.1</ele>
        <time>2020-09-17T13:25:11Z</time>
      </trkpt>
      <trkpt lat="45.40414" lon="3.40196">
        <ele>627</ele>
        <time>2020-09-17T13:25:12Z</time>
      </trkpt>
      <trkpt lat="45.40413" lon="3.40196">
        <ele>626.9</ele>
        <time>2020-09-17T13:25:13Z</time>
      </trkpt>
      <trkpt lat="45.40412" lon="3.40195">
        <ele>626.7</ele>
        <time>2020-09-17T13:25:14Z</time>
      </trkpt>
      <trkpt lat="45.40411" lon="3.40194">
        <ele>626.7</ele>
        <time>2020-09-17T13:25:15Z</time>
      </trkpt>
      <trkpt lat="45.4041" lon="3.40193">
        <ele>626.6</ele>
        <time>2020-09-17T13:25:16Z</time>
      </trkpt>
      <trkpt lat="45.40409" lon="3.40192">
        <ele>626.5</ele>
        <time>2020-09-17T13:25:17Z</time>
      </trkpt>
      <trkpt lat="45.40408" lon="3.40191">
        <ele>626.4</ele>
        <time>2020-09-17T13:25:18Z</time>
      </trkpt>
      <trkpt lat="45.40407" lon="3.4019">
        <ele>626.4</ele>
        <time>2020-09-17T13:25:19Z</time>
      </trkpt>
      <trkpt lat="45.40406" lon="3.40189">
        <ele>626.3</ele>
        <time>2020-09-17T13:25:20Z</time>
      </trkpt>
      <trkpt lat="45.40405" lon="3.40188">
        <ele>626.2</ele>
        <time>2020-09-17T13:25:21Z</time>
      </trkpt>
      <trkpt lat="45.40404" lon="3.40186">
        <ele>626.1</ele>
        <time>2020-09-17T13:25:22Z</time>
      </trkpt>
      <trkpt lat="45.40403" lon="3.40185">
        <ele>626</ele>
        <time>2020-09-17T13:25:23Z</time>
      </trkpt>
      <trkpt lat="45.40402" lon="3.40184">
        <ele>625.9</ele>
        <time>2020-09-17T13:25:24Z</time>
      </trkpt>
      <trkpt lat="45.40401" lon="3.40183">
        <ele>625.7</ele>
        <time>2020-09-17T13:25:25Z</time>
      </trkpt>
      <trkpt lat="45.404" lon="3.40182">
        <ele>625.7</ele>
        <time>2020-09-17T13:25:26Z</time>
      </trkpt>
      <trkpt lat="45.404" lon="3.4018">
        <ele>625.6</ele>
        <time>2020-09-17T13:25:27Z</time>
      </trkpt>
      <trkpt lat="45.40399" lon="3.40179">
        <ele>625.5</ele>
        <time>2020-09-17T13:25:28Z</time>
      </trkpt>
      <trkpt lat="45.40397" lon="3.40177">
        <ele>625.4</ele>
        <time>2020-09-17T13:25:29Z</time>
      </trkpt>
      <trkpt lat="45.40397" lon="3.40176">
        <ele>625.3</ele>
        <time>2020-09-17T13:25:30Z</time>
      </trkpt>
      <trkpt lat="45.40395" lon="3.40175">
        <ele>625.1</ele>
        <time>2020-09-17T13:25:31Z</time>
      </trkpt>
      <trkpt lat="45.40394" lon="3.40173">
        <ele>624.9</ele>
        <time>2020-09-17T13:25:32Z</time>
      </trkpt>
      <trkpt lat="45.40393" lon="3.40172">
        <ele>624.8</ele>
        <time>2020-09-17T13:25:33Z</time>
      </trkpt>
      <trkpt lat="45.40393" lon="3.40171">
        <ele>624.7</ele>
        <time>2020-09-17T13:25:34Z</time>
      </trkpt>
      <trkpt lat="45.40392" lon="3.40169">
        <ele>624.6</ele>
        <time>2020-09-17T13:25:35Z</time>
      </trkpt>
      <trkpt lat="45.40391" lon="3.40168">
        <ele>624.6</ele>
        <time>2020-09-17T13:25:36Z</time>
      </trkpt>
      <trkpt lat="45.40391" lon="3.40167">
        <ele>624.5</ele>
        <time>2020-09-17T13:25:37Z</time>
      </trkpt>
      <trkpt lat="45.4039" lon="3.40166">
        <ele>624.4</ele>
        <time>2020-09-17T13:25:38Z</time>
      </trkpt>
      <trkpt lat="45.40389" lon="3.40165">
        <ele>624.2</ele>
        <time>2020-09-17T13:25:39Z</time>
      </trkpt>
      <trkpt lat="45.40389" lon="3.40164">
        <ele>624</ele>
        <time>2020-09-17T13:25:40Z</time>
      </trkpt>
      <trkpt lat="45.40388" lon="3.40163">
        <ele>623.9</ele>
        <time>2020-09-17T13:25:41Z</time>
      </trkpt>
      <trkpt lat="45.40388" lon="3.40161">
        <ele>623.7</ele>
        <time>2020-09-17T13:25:42Z</time>
      </trkpt>
      <trkpt lat="45.40388" lon="3.4016">
        <ele>623.6</ele>
        <time>2020-09-17T13:25:43Z</time>
      </trkpt>
      <trkpt lat="45.40387" lon="3.40159">
        <ele>623.5</ele>
        <time>2020-09-17T13:25:44Z</time>
      </trkpt>
      <trkpt lat="45.40387" lon="3.40157">
        <ele>623.4</ele>
        <time>2020-09-17T13:25:45Z</time>
      </trkpt>
      <trkpt lat="45.40387" lon="3.40156">
        <ele>623.4</ele>
        <time>2020-09-17T13:25:46Z</time>
      </trkpt>
      <trkpt lat="45.40387" lon="3.40155">
        <ele>623.3</ele>
        <time>2020-09-17T13:25:47Z</time>
      </trkpt>
      <trkpt lat="45.40387" lon="3.40153">
        <ele>623.4</ele>
        <time>2020-09-17T13:25:48Z</time>
      </trkpt>
      <trkpt lat="45.40386" lon="3.40152">
        <ele>623.3</ele>
        <time>2020-09-17T13:25:49Z</time>
      </trkpt>
      <trkpt lat="45.40386" lon="3.40151">
        <ele>623.1</ele>
        <time>2020-09-17T13:25:50Z</time>
      </trkpt>
      <trkpt lat="45.40385" lon="3.4015">
        <ele>622.9</ele>
        <time>2020-09-17T13:25:51Z</time>
      </trkpt>
      <trkpt lat="45.40385" lon="3.40148">
        <ele>622.7</ele>
        <time>2020-09-17T13:25:52Z</time>
      </trkpt>
      <trkpt lat="45.40384" lon="3.40147">
        <ele>622.4</ele>
        <time>2020-09-17T13:25:53Z</time>
      </trkpt>
      <trkpt lat="45.40384" lon="3.40146">
        <ele>622.3</ele>
        <time>2020-09-17T13:25:54Z</time>
      </trkpt>
      <trkpt lat="45.40383" lon="3.40145">
        <ele>622.1</ele>
        <time>2020-09-17T13:25:55Z</time>
      </trkpt>
      <trkpt lat="45.40383" lon="3.40143">
        <ele>622</ele>
        <time>2020-09-17T13:25:56Z</time>
      </trkpt>
      <trkpt lat="45.40383" lon="3.40142">
        <ele>621.9</ele>
        <time>2020-09-17T13:25:57Z</time>
      </trkpt>
      <trkpt lat="45.40382" lon="3.40141">
        <ele>621.7</ele>
        <time>2020-09-17T13:25:58Z</time>
      </trkpt>
      <trkpt lat="45.40382" lon="3.40139">
        <ele>621.5</ele>
        <time>2020-09-17T13:25:59Z</time>
      </trkpt>
      <trkpt lat="45.40381" lon="3.40137">
        <ele>621.3</ele>
        <time>2020-09-17T13:26:00Z</time>
      </trkpt>
      <trkpt lat="45.40381" lon="3.40136">
        <ele>621.1</ele>
        <time>2020-09-17T13:26:01Z</time>
      </trkpt>
      <trkpt lat="45.4038" lon="3.40135">
        <ele>620.9</ele>
        <time>2020-09-17T13:26:02Z</time>
      </trkpt>
      <trkpt lat="45.4038" lon="3.40133">
        <ele>620.8</ele>
        <time>2020-09-17T13:26:03Z</time>
      </trkpt>
      <trkpt lat="45.4038" lon="3.40132">
        <ele>620.6</ele>
        <time>2020-09-17T13:26:04Z</time>
      </trkpt>
      <trkpt lat="45.40379" lon="3.40131">
        <ele>620.4</ele>
        <time>2020-09-17T13:26:05Z</time>
      </trkpt>
      <trkpt lat="45.40379" lon="3.4013">
        <ele>620.3</ele>
        <time>2020-09-17T13:26:06Z</time>
      </trkpt>
      <trkpt lat="45.40379" lon="3.40128">
        <ele>620.2</ele>
        <time>2020-09-17T13:26:07Z</time>
      </trkpt>
      <trkpt lat="45.40379" lon="3.40127">
        <ele>620</ele>
        <time>2020-09-17T13:26:08Z</time>
      </trkpt>
      <trkpt lat="45.40378" lon="3.40126">
        <ele>619.8</ele>
        <time>2020-09-17T13:26:09Z</time>
      </trkpt>
      <trkpt lat="45.40378" lon="3.40124">
        <ele>619.7</ele>
        <time>2020-09-17T13:26:10Z</time>
      </trkpt>
      <trkpt lat="45.40378" lon="3.40123">
        <ele>619.6</ele>
        <time>2020-09-17T13:26:11Z</time>
      </trkpt>
      <trkpt lat="45.40378" lon="3.40121">
        <ele>619.6</ele>
        <time>2020-09-17T13:26:12Z</time>
      </trkpt>
      <trkpt lat="45.40378" lon="3.40119">
        <ele>619.5</ele>
        <time>2020-09-17T13:26:13Z</time>
      </trkpt>
      <trkpt lat="45.40378" lon="3.40118">
        <ele>619.4</ele>
        <time>2020-09-17T13:26:14Z</time>
      </trkpt>
      <trkpt lat="45.40377" lon="3.40117">
        <ele>619.2</ele>
        <time>2020-09-17T13:26:15Z</time>
      </trkpt>
      <trkpt lat="45.40377" lon="3.40115">
        <ele>619</ele>
        <time>2020-09-17T13:26:16Z</time>
      </trkpt>
      <trkpt lat="45.40377" lon="3.40114">
        <ele>618.9</ele>
        <time>2020-09-17T13:26:17Z</time>
      </trkpt>
      <trkpt lat="45.40377" lon="3.40113">
        <ele>618.8</ele>
        <time>2020-09-17T13:26:18Z</time>
      </trkpt>
      <trkpt lat="45.40377" lon="3.40111">
        <ele>618.8</ele>
        <time>2020-09-17T13:26:19Z</time>
      </trkpt>
      <trkpt lat="45.40377" lon="3.4011">
        <ele>618.7</ele>
        <time>2020-09-17T13:26:20Z</time>
      </trkpt>
      <trkpt lat="45.40377" lon="3.40109">
        <ele>618.7</ele>
        <time>2020-09-17T13:26:21Z</time>
      </trkpt>
      <trkpt lat="45.40376" lon="3.40107">
        <ele>618.6</ele>
        <time>2020-09-17T13:26:22Z</time>
      </trkpt>
      <trkpt lat="45.40376" lon="3.40106">
        <ele>618.6</ele>
        <time>2020-09-17T13:26:23Z</time>
      </trkpt>
      <trkpt lat="45.40376" lon="3.40105">
        <ele>618.5</ele>
        <time>2020-09-17T13:26:24Z</time>
      </trkpt>
      <trkpt lat="45.40376" lon="3.40103">
        <ele>618.5</ele>
        <time>2020-09-17T13:26:25Z</time>
      </trkpt>
      <trkpt lat="45.40376" lon="3.40102">
        <ele>618.4</ele>
        <time>2020-09-17T13:26:26Z</time>
      </trkpt>
      <trkpt lat="45.40376" lon="3.40101">
        <ele>618.2</ele>
        <time>2020-09-17T13:26:27Z</time>
      </trkpt>
      <trkpt lat="45.40376" lon="3.40099">
        <ele>618.2</ele>
        <time>2020-09-17T13:26:28Z</time>
      </trkpt>
      <trkpt lat="45.40376" lon="3.40098">
        <ele>618.2</ele>
        <time>2020-09-17T13:26:29Z</time>
      </trkpt>
      <trkpt lat="45.40375" lon="3.40097">
        <ele>618.1</ele>
        <time>2020-09-17T13:26:30Z</time>
      </trkpt>
      <trkpt lat="45.40375" lon="3.40096">
        <ele>618</ele>
        <time>2020-09-17T13:26:31Z</time>
      </trkpt>
      <trkpt lat="45.40375" lon="3.40095">
        <ele>617.9</ele>
        <time>2020-09-17T13:26:32Z</time>
      </trkpt>
      <trkpt lat="45.40375" lon="3.40093">
        <ele>617.8</ele>
        <time>2020-09-17T13:26:33Z</time>
      </trkpt>
      <trkpt lat="45.40374" lon="3.40092">
        <ele>617.7</ele>
        <time>2020-09-17T13:26:34Z</time>
      </trkpt>
      <trkpt lat="45.40374" lon="3.40091">
        <ele>617.6</ele>
        <time>2020-09-17T13:26:35Z</time>
      </trkpt>
      <trkpt lat="45.40374" lon="3.40089">
        <ele>617.5</ele>
        <time>2020-09-17T13:26:36Z</time>
      </trkpt>
      <trkpt lat="45.40373" lon="3.40088">
        <ele>617.3</ele>
        <time>2020-09-17T13:26:37Z</time>
      </trkpt>
      <trkpt lat="45.40373" lon="3.40087">
        <ele>617.1</ele>
        <time>2020-09-17T13:26:38Z</time>
      </trkpt>
      <trkpt lat="45.40372" lon="3.40086">
        <ele>616.8</ele>
        <time>2020-09-17T13:26:39Z</time>
      </trkpt>
      <trkpt lat="45.40371" lon="3.40084">
        <ele>616.5</ele>
        <time>2020-09-17T13:26:40Z</time>
      </trkpt>
      <trkpt lat="45.4037" lon="3.40083">
        <ele>616.2</ele>
        <time>2020-09-17T13:26:41Z</time>
      </trkpt>
      <trkpt lat="45.40369" lon="3.40083">
        <ele>616</ele>
        <time>2020-09-17T13:26:42Z</time>
      </trkpt>
      <trkpt lat="45.40368" lon="3.40082">
        <ele>615.7</ele>
        <time>2020-09-17T13:26:43Z</time>
      </trkpt>
      <trkpt lat="45.40366" lon="3.40081">
        <ele>615.4</ele>
        <time>2020-09-17T13:26:44Z</time>
      </trkpt>
      <trkpt lat="45.40365" lon="3.40081">
        <ele>615</ele>
        <time>2020-09-17T13:26:45Z</time>
      </trkpt>
      <trkpt lat="45.40364" lon="3.40081">
        <ele>614.6</ele>
        <time>2020-09-17T13:26:46Z</time>
      </trkpt>
      <trkpt lat="45.40362" lon="3.4008">
        <ele>614.2</ele>
        <time>2020-09-17T13:26:47Z</time>
      </trkpt>
      <trkpt lat="45.40361" lon="3.4008">
        <ele>613.9</ele>
        <time>2020-09-17T13:26:48Z</time>
      </trkpt>
      <trkpt lat="45.4036" lon="3.4008">
        <ele>613.9</ele>
        <time>2020-09-17T13:26:49Z</time>
      </trkpt>
      <trkpt lat="45.40359" lon="3.40079">
        <ele>613.8</ele>
        <time>2020-09-17T13:26:50Z</time>
      </trkpt>
      <trkpt lat="45.40358" lon="3.40079">
        <ele>613.8</ele>
        <time>2020-09-17T13:26:51Z</time>
      </trkpt>
      <trkpt lat="45.40357" lon="3.40078">
        <ele>613.9</ele>
        <time>2020-09-17T13:26:52Z</time>
      </trkpt>
      <trkpt lat="45.40356" lon="3.40078">
        <ele>613.9</ele>
        <time>2020-09-17T13:26:53Z</time>
      </trkpt>
      <trkpt lat="45.40355" lon="3.40078">
        <ele>613.8</ele>
        <time>2020-09-17T13:26:54Z</time>
      </trkpt>
      <trkpt lat="45.40354" lon="3.40078">
        <ele>613.7</ele>
        <time>2020-09-17T13:26:55Z</time>
      </trkpt>
      <trkpt lat="45.40353" lon="3.40078">
        <ele>613.6</ele>
        <time>2020-09-17T13:26:56Z</time>
      </trkpt>
      <trkpt lat="45.40353" lon="3.40078">
        <ele>613.5</ele>
        <time>2020-09-17T13:26:57Z</time>
      </trkpt>
      <trkpt lat="45.40352" lon="3.40078">
        <ele>613.4</ele>
        <time>2020-09-17T13:26:58Z</time>
      </trkpt>
      <trkpt lat="45.40351" lon="3.40078">
        <ele>613.3</ele>
        <time>2020-09-17T13:26:59Z</time>
      </trkpt>
      <trkpt lat="45.4035" lon="3.40078">
        <ele>613.2</ele>
        <time>2020-09-17T13:27:00Z</time>
      </trkpt>
      <trkpt lat="45.40349" lon="3.40078">
        <ele>613</ele>
        <time>2020-09-17T13:27:01Z</time>
      </trkpt>
      <trkpt lat="45.40348" lon="3.40078">
        <ele>612.9</ele>
        <time>2020-09-17T13:27:02Z</time>
      </trkpt>
      <trkpt lat="45.40346" lon="3.40078">
        <ele>612.7</ele>
        <time>2020-09-17T13:27:03Z</time>
      </trkpt>
      <trkpt lat="45.40345" lon="3.40078">
        <ele>612.5</ele>
        <time>2020-09-17T13:27:04Z</time>
      </trkpt>
      <trkpt lat="45.40344" lon="3.40078">
        <ele>612.3</ele>
        <time>2020-09-17T13:27:05Z</time>
      </trkpt>
      <trkpt lat="45.40343" lon="3.40079">
        <ele>612</ele>
        <time>2020-09-17T13:27:06Z</time>
      </trkpt>
      <trkpt lat="45.40342" lon="3.40079">
        <ele>611.8</ele>
        <time>2020-09-17T13:27:07Z</time>
      </trkpt>
      <trkpt lat="45.40341" lon="3.40079">
        <ele>611.5</ele>
        <time>2020-09-17T13:27:08Z</time>
      </trkpt>
      <trkpt lat="45.40339" lon="3.40079">
        <ele>611.3</ele>
        <time>2020-09-17T13:27:09Z</time>
      </trkpt>
      <trkpt lat="45.40338" lon="3.40079">
        <ele>611.1</ele>
        <time>2020-09-17T13:27:10Z</time>
      </trkpt>
      <trkpt lat="45.40337" lon="3.4008">
        <ele>610.8</ele>
        <time>2020-09-17T13:27:11Z</time>
      </trkpt>
      <trkpt lat="45.40336" lon="3.4008">
        <ele>610.5</ele>
        <time>2020-09-17T13:27:12Z</time>
      </trkpt>
      <trkpt lat="45.40335" lon="3.4008">
        <ele>610.3</ele>
        <time>2020-09-17T13:27:13Z</time>
      </trkpt>
      <trkpt lat="45.40334" lon="3.40081">
        <ele>610.1</ele>
        <time>2020-09-17T13:27:14Z</time>
      </trkpt>
      <trkpt lat="45.40333" lon="3.40081">
        <ele>609.8</ele>
        <time>2020-09-17T13:27:15Z</time>
      </trkpt>
      <trkpt lat="45.40332" lon="3.40082">
        <ele>609.6</ele>
        <time>2020-09-17T13:27:16Z</time>
      </trkpt>
      <trkpt lat="45.40331" lon="3.40082">
        <ele>609.3</ele>
        <time>2020-09-17T13:27:17Z</time>
      </trkpt>
      <trkpt lat="45.4033" lon="3.40083">
        <ele>609.2</ele>
        <time>2020-09-17T13:27:18Z</time>
      </trkpt>
      <trkpt lat="45.40329" lon="3.40083">
        <ele>609</ele>
        <time>2020-09-17T13:27:19Z</time>
      </trkpt>
      <trkpt lat="45.40328" lon="3.40083">
        <ele>608.9</ele>
        <time>2020-09-17T13:27:20Z</time>
      </trkpt>
      <trkpt lat="45.40327" lon="3.40084">
        <ele>608.7</ele>
        <time>2020-09-17T13:27:21Z</time>
      </trkpt>
      <trkpt lat="45.40326" lon="3.40084">
        <ele>608.4</ele>
        <time>2020-09-17T13:27:22Z</time>
      </trkpt>
      <trkpt lat="45.40325" lon="3.40085">
        <ele>608.2</ele>
        <time>2020-09-17T13:27:23Z</time>
      </trkpt>
      <trkpt lat="45.40324" lon="3.40085">
        <ele>607.9</ele>
        <time>2020-09-17T13:27:24Z</time>
      </trkpt>
      <trkpt lat="45.40323" lon="3.40086">
        <ele>607.7</ele>
        <time>2020-09-17T13:27:25Z</time>
      </trkpt>
      <trkpt lat="45.40322" lon="3.40086">
        <ele>607.5</ele>
        <time>2020-09-17T13:27:26Z</time>
      </trkpt>
      <trkpt lat="45.40321" lon="3.40087">
        <ele>607.3</ele>
        <time>2020-09-17T13:27:27Z</time>
      </trkpt>
      <trkpt lat="45.4032" lon="3.40087">
        <ele>607.1</ele>
        <time>2020-09-17T13:27:28Z</time>
      </trkpt>
      <trkpt lat="45.40319" lon="3.40087">
        <ele>607</ele>
        <time>2020-09-17T13:27:29Z</time>
      </trkpt>
      <trkpt lat="45.40318" lon="3.40087">
        <ele>606.9</ele>
        <time>2020-09-17T13:27:30Z</time>
      </trkpt>
      <trkpt lat="45.40317" lon="3.40088">
        <ele>606.7</ele>
        <time>2020-09-17T13:27:31Z</time>
      </trkpt>
      <trkpt lat="45.40316" lon="3.40088">
        <ele>606.6</ele>
        <time>2020-09-17T13:27:32Z</time>
      </trkpt>
      <trkpt lat="45.40314" lon="3.40088">
        <ele>606.3</ele>
        <time>2020-09-17T13:27:33Z</time>
      </trkpt>
      <trkpt lat="45.40313" lon="3.40089">
        <ele>606</ele>
        <time>2020-09-17T13:27:34Z</time>
      </trkpt>
      <trkpt lat="45.40312" lon="3.4009">
        <ele>605.7</ele>
        <time>2020-09-17T13:27:35Z</time>
      </trkpt>
      <trkpt lat="45.40311" lon="3.4009">
        <ele>605.5</ele>
        <time>2020-09-17T13:27:36Z</time>
      </trkpt>
      <trkpt lat="45.4031" lon="3.4009">
        <ele>605.4</ele>
        <time>2020-09-17T13:27:37Z</time>
      </trkpt>
      <trkpt lat="45.40308" lon="3.40091">
        <ele>605.2</ele>
        <time>2020-09-17T13:27:38Z</time>
      </trkpt>
      <trkpt lat="45.40308" lon="3.40091">
        <ele>604.9</ele>
        <time>2020-09-17T13:27:39Z</time>
      </trkpt>
      <trkpt lat="45.40306" lon="3.40092">
        <ele>604.8</ele>
        <time>2020-09-17T13:27:40Z</time>
      </trkpt>
      <trkpt lat="45.40305" lon="3.40092">
        <ele>604.6</ele>
        <time>2020-09-17T13:27:41Z</time>
      </trkpt>
      <trkpt lat="45.40304" lon="3.40092">
        <ele>604.5</ele>
        <time>2020-09-17T13:27:42Z</time>
      </trkpt>
      <trkpt lat="45.40302" lon="3.40093">
        <ele>604.4</ele>
        <time>2020-09-17T13:27:43Z</time>
      </trkpt>
      <trkpt lat="45.40301" lon="3.40093">
        <ele>604.2</ele>
        <time>2020-09-17T13:27:44Z</time>
      </trkpt>
      <trkpt lat="45.40299" lon="3.40094">
        <ele>604</ele>
        <time>2020-09-17T13:27:45Z</time>
      </trkpt>
      <trkpt lat="45.40298" lon="3.40094">
        <ele>603.8</ele>
        <time>2020-09-17T13:27:46Z</time>
      </trkpt>
      <trkpt lat="45.40297" lon="3.40095">
        <ele>603.6</ele>
        <time>2020-09-17T13:27:47Z</time>
      </trkpt>
      <trkpt lat="45.40295" lon="3.40096">
        <ele>603.3</ele>
        <time>2020-09-17T13:27:48Z</time>
      </trkpt>
      <trkpt lat="45.40294" lon="3.40096">
        <ele>603.1</ele>
        <time>2020-09-17T13:27:49Z</time>
      </trkpt>
      <trkpt lat="45.40292" lon="3.40097">
        <ele>603</ele>
        <time>2020-09-17T13:27:50Z</time>
      </trkpt>
      <trkpt lat="45.40291" lon="3.40097">
        <ele>602.8</ele>
        <time>2020-09-17T13:27:51Z</time>
      </trkpt>
      <trkpt lat="45.40289" lon="3.40098">
        <ele>602.5</ele>
        <time>2020-09-17T13:27:52Z</time>
      </trkpt>
      <trkpt lat="45.40288" lon="3.40099">
        <ele>602.1</ele>
        <time>2020-09-17T13:27:53Z</time>
      </trkpt>
      <trkpt lat="45.40287" lon="3.401">
        <ele>601.6</ele>
        <time>2020-09-17T13:27:54Z</time>
      </trkpt>
      <trkpt lat="45.40285" lon="3.40101">
        <ele>601.2</ele>
        <time>2020-09-17T13:27:55Z</time>
      </trkpt>
      <trkpt lat="45.40284" lon="3.40102">
        <ele>600.8</ele>
        <time>2020-09-17T13:27:56Z</time>
      </trkpt>
      <trkpt lat="45.40283" lon="3.40103">
        <ele>600.6</ele>
        <time>2020-09-17T13:27:57Z</time>
      </trkpt>
      <trkpt lat="45.40281" lon="3.40103">
        <ele>600.4</ele>
        <time>2020-09-17T13:27:58Z</time>
      </trkpt>
      <trkpt lat="45.4028" lon="3.40104">
        <ele>600.3</ele>
        <time>2020-09-17T13:27:59Z</time>
      </trkpt>
      <trkpt lat="45.40279" lon="3.40104">
        <ele>600.2</ele>
        <time>2020-09-17T13:28:00Z</time>
      </trkpt>
      <trkpt lat="45.40277" lon="3.40104">
        <ele>600.1</ele>
        <time>2020-09-17T13:28:01Z</time>
      </trkpt>
      <trkpt lat="45.40276" lon="3.40104">
        <ele>600.1</ele>
        <time>2020-09-17T13:28:02Z</time>
      </trkpt>
      <trkpt lat="45.40275" lon="3.40104">
        <ele>600.1</ele>
        <time>2020-09-17T13:28:03Z</time>
      </trkpt>
      <trkpt lat="45.40273" lon="3.40105">
        <ele>599.9</ele>
        <time>2020-09-17T13:28:04Z</time>
      </trkpt>
      <trkpt lat="45.40272" lon="3.40105">
        <ele>599.6</ele>
        <time>2020-09-17T13:28:05Z</time>
      </trkpt>
      <trkpt lat="45.40271" lon="3.40105">
        <ele>599.5</ele>
        <time>2020-09-17T13:28:06Z</time>
      </trkpt>
      <trkpt lat="45.40269" lon="3.40106">
        <ele>599.4</ele>
        <time>2020-09-17T13:28:07Z</time>
      </trkpt>
      <trkpt lat="45.40268" lon="3.40106">
        <ele>599.2</ele>
        <time>2020-09-17T13:28:08Z</time>
      </trkpt>
      <trkpt lat="45.40266" lon="3.40106">
        <ele>599.1</ele>
        <time>2020-09-17T13:28:09Z</time>
      </trkpt>
      <trkpt lat="45.40265" lon="3.40107">
        <ele>598.9</ele>
        <time>2020-09-17T13:28:10Z</time>
      </trkpt>
      <trkpt lat="45.40263" lon="3.40107">
        <ele>598.8</ele>
        <time>2020-09-17T13:28:11Z</time>
      </trkpt>
      <trkpt lat="45.40262" lon="3.40107">
        <ele>598.8</ele>
        <time>2020-09-17T13:28:12Z</time>
      </trkpt>
      <trkpt lat="45.40261" lon="3.40107">
        <ele>598.7</ele>
        <time>2020-09-17T13:28:13Z</time>
      </trkpt>
      <trkpt lat="45.40259" lon="3.40107">
        <ele>598.7</ele>
        <time>2020-09-17T13:28:14Z</time>
      </trkpt>
      <trkpt lat="45.40258" lon="3.40107">
        <ele>598.7</ele>
        <time>2020-09-17T13:28:15Z</time>
      </trkpt>
      <trkpt lat="45.40256" lon="3.40107">
        <ele>598.7</ele>
        <time>2020-09-17T13:28:16Z</time>
      </trkpt>
      <trkpt lat="45.40254" lon="3.40107">
        <ele>598.8</ele>
        <time>2020-09-17T13:28:17Z</time>
      </trkpt>
      <trkpt lat="45.40253" lon="3.40107">
        <ele>598.8</ele>
        <time>2020-09-17T13:28:18Z</time>
      </trkpt>
      <trkpt lat="45.40252" lon="3.40107">
        <ele>598.8</ele>
        <time>2020-09-17T13:28:19Z</time>
      </trkpt>
      <trkpt lat="45.40251" lon="3.40107">
        <ele>598.9</ele>
        <time>2020-09-17T13:28:20Z</time>
      </trkpt>
      <trkpt lat="45.4025" lon="3.40107">
        <ele>599</ele>
        <time>2020-09-17T13:28:21Z</time>
      </trkpt>
      <trkpt lat="45.40248" lon="3.40106">
        <ele>599.1</ele>
        <time>2020-09-17T13:28:22Z</time>
      </trkpt>
      <trkpt lat="45.40247" lon="3.40106">
        <ele>599.1</ele>
        <time>2020-09-17T13:28:23Z</time>
      </trkpt>
      <trkpt lat="45.40246" lon="3.40106">
        <ele>599.2</ele>
        <time>2020-09-17T13:28:24Z</time>
      </trkpt>
      <trkpt lat="45.40245" lon="3.40105">
        <ele>599.2</ele>
        <time>2020-09-17T13:28:25Z</time>
      </trkpt>
      <trkpt lat="45.40244" lon="3.40105">
        <ele>599.3</ele>
        <time>2020-09-17T13:28:26Z</time>
      </trkpt>
      <trkpt lat="45.40242" lon="3.40105">
        <ele>599.3</ele>
        <time>2020-09-17T13:28:27Z</time>
      </trkpt>
      <trkpt lat="45.40241" lon="3.40105">
        <ele>599.3</ele>
        <time>2020-09-17T13:28:28Z</time>
      </trkpt>
      <trkpt lat="45.4024" lon="3.40104">
        <ele>599.3</ele>
        <time>2020-09-17T13:28:29Z</time>
      </trkpt>
      <trkpt lat="45.40239" lon="3.40105">
        <ele>599.2</ele>
        <time>2020-09-17T13:28:30Z</time>
      </trkpt>
      <trkpt lat="45.40238" lon="3.40105">
        <ele>599.1</ele>
        <time>2020-09-17T13:28:31Z</time>
      </trkpt>
      <trkpt lat="45.40236" lon="3.40104">
        <ele>599.1</ele>
        <time>2020-09-17T13:28:32Z</time>
      </trkpt>
      <trkpt lat="45.40235" lon="3.40104">
        <ele>599</ele>
        <time>2020-09-17T13:28:33Z</time>
      </trkpt>
      <trkpt lat="45.40234" lon="3.40104">
        <ele>599</ele>
        <time>2020-09-17T13:28:34Z</time>
      </trkpt>
      <trkpt lat="45.40233" lon="3.40104">
        <ele>598.9</ele>
        <time>2020-09-17T13:28:35Z</time>
      </trkpt>
      <trkpt lat="45.40232" lon="3.40105">
        <ele>598.8</ele>
        <time>2020-09-17T13:28:36Z</time>
      </trkpt>
      <trkpt lat="45.40231" lon="3.40105">
        <ele>598.7</ele>
        <time>2020-09-17T13:28:37Z</time>
      </trkpt>
      <trkpt lat="45.4023" lon="3.40105">
        <ele>598.6</ele>
        <time>2020-09-17T13:28:38Z</time>
      </trkpt>
      <trkpt lat="45.40229" lon="3.40105">
        <ele>598.5</ele>
        <time>2020-09-17T13:28:39Z</time>
      </trkpt>
      <trkpt lat="45.40228" lon="3.40105">
        <ele>598.4</ele>
        <time>2020-09-17T13:28:40Z</time>
      </trkpt>
      <trkpt lat="45.40227" lon="3.40105">
        <ele>598.3</ele>
        <time>2020-09-17T13:28:41Z</time>
      </trkpt>
      <trkpt lat="45.40225" lon="3.40106">
        <ele>598.2</ele>
        <time>2020-09-17T13:28:42Z</time>
      </trkpt>
      <trkpt lat="45.40224" lon="3.40106">
        <ele>598</ele>
        <time>2020-09-17T13:28:43Z</time>
      </trkpt>
      <trkpt lat="45.40223" lon="3.40107">
        <ele>597.9</ele>
        <time>2020-09-17T13:28:44Z</time>
      </trkpt>
      <trkpt lat="45.40222" lon="3.40107">
        <ele>597.7</ele>
        <time>2020-09-17T13:28:45Z</time>
      </trkpt>
      <trkpt lat="45.40221" lon="3.40107">
        <ele>597.6</ele>
        <time>2020-09-17T13:28:46Z</time>
      </trkpt>
      <trkpt lat="45.4022" lon="3.40107">
        <ele>597.4</ele>
        <time>2020-09-17T13:28:47Z</time>
      </trkpt>
      <trkpt lat="45.40219" lon="3.40108">
        <ele>597.2</ele>
        <time>2020-09-17T13:28:48Z</time>
      </trkpt>
      <trkpt lat="45.40218" lon="3.40108">
        <ele>597</ele>
        <time>2020-09-17T13:28:49Z</time>
      </trkpt>
      <trkpt lat="45.40217" lon="3.40108">
        <ele>596.9</ele>
        <time>2020-09-17T13:28:50Z</time>
      </trkpt>
      <trkpt lat="45.40216" lon="3.40109">
        <ele>596.7</ele>
        <time>2020-09-17T13:28:51Z</time>
      </trkpt>
      <trkpt lat="45.40215" lon="3.40108">
        <ele>596.6</ele>
        <time>2020-09-17T13:28:52Z</time>
      </trkpt>
      <trkpt lat="45.40214" lon="3.40108">
        <ele>596.5</ele>
        <time>2020-09-17T13:28:53Z</time>
      </trkpt>
      <trkpt lat="45.40213" lon="3.40109">
        <ele>596.4</ele>
        <time>2020-09-17T13:28:54Z</time>
      </trkpt>
      <trkpt lat="45.40212" lon="3.40108">
        <ele>596.3</ele>
        <time>2020-09-17T13:28:55Z</time>
      </trkpt>
      <trkpt lat="45.40211" lon="3.40109">
        <ele>596.2</ele>
        <time>2020-09-17T13:28:56Z</time>
      </trkpt>
      <trkpt lat="45.4021" lon="3.40109">
        <ele>596</ele>
        <time>2020-09-17T13:28:57Z</time>
      </trkpt>
      <trkpt lat="45.40209" lon="3.40109">
        <ele>595.9</ele>
        <time>2020-09-17T13:28:58Z</time>
      </trkpt>
      <trkpt lat="45.40208" lon="3.40109">
        <ele>595.8</ele>
        <time>2020-09-17T13:28:59Z</time>
      </trkpt>
      <trkpt lat="45.40207" lon="3.40109">
        <ele>595.7</ele>
        <time>2020-09-17T13:29:00Z</time>
      </trkpt>
      <trkpt lat="45.40206" lon="3.40108">
        <ele>595.5</ele>
        <time>2020-09-17T13:29:01Z</time>
      </trkpt>
      <trkpt lat="45.40205" lon="3.40108">
        <ele>595.4</ele>
        <time>2020-09-17T13:29:02Z</time>
      </trkpt>
      <trkpt lat="45.40204" lon="3.40108">
        <ele>595.3</ele>
        <time>2020-09-17T13:29:03Z</time>
      </trkpt>
      <trkpt lat="45.40203" lon="3.40108">
        <ele>595.2</ele>
        <time>2020-09-17T13:29:04Z</time>
      </trkpt>
      <trkpt lat="45.40202" lon="3.40108">
        <ele>595.2</ele>
        <time>2020-09-17T13:29:05Z</time>
      </trkpt>
      <trkpt lat="45.40201" lon="3.40108">
        <ele>595</ele>
        <time>2020-09-17T13:29:06Z</time>
      </trkpt>
      <trkpt lat="45.402" lon="3.40107">
        <ele>594.9</ele>
        <time>2020-09-17T13:29:07Z</time>
      </trkpt>
      <trkpt lat="45.40199" lon="3.40107">
        <ele>594.9</ele>
        <time>2020-09-17T13:29:08Z</time>
      </trkpt>
      <trkpt lat="45.40198" lon="3.40106">
        <ele>594.8</ele>
        <time>2020-09-17T13:29:09Z</time>
      </trkpt>
      <trkpt lat="45.40198" lon="3.40106">
        <ele>594.8</ele>
        <time>2020-09-17T13:29:10Z</time>
      </trkpt>
      <trkpt lat="45.40197" lon="3.40105">
        <ele>594.8</ele>
        <time>2020-09-17T13:29:11Z</time>
      </trkpt>
      <trkpt lat="45.40196" lon="3.40105">
        <ele>594.7</ele>
        <time>2020-09-17T13:29:12Z</time>
      </trkpt>
      <trkpt lat="45.40195" lon="3.40104">
        <ele>594.6</ele>
        <time>2020-09-17T13:29:13Z</time>
      </trkpt>
      <trkpt lat="45.40194" lon="3.40103">
        <ele>594.6</ele>
        <time>2020-09-17T13:29:14Z</time>
      </trkpt>
      <trkpt lat="45.40194" lon="3.40102">
        <ele>594.5</ele>
        <time>2020-09-17T13:29:15Z</time>
      </trkpt>
      <trkpt lat="45.40193" lon="3.40102">
        <ele>594.3</ele>
        <time>2020-09-17T13:29:16Z</time>
      </trkpt>
      <trkpt lat="45.40192" lon="3.40101">
        <ele>594.1</ele>
        <time>2020-09-17T13:29:17Z</time>
      </trkpt>
      <trkpt lat="45.40191" lon="3.401">
        <ele>593.9</ele>
        <time>2020-09-17T13:29:18Z</time>
      </trkpt>
      <trkpt lat="45.4019" lon="3.401">
        <ele>593.8</ele>
        <time>2020-09-17T13:29:19Z</time>
      </trkpt>
      <trkpt lat="45.40189" lon="3.40099">
        <ele>593.7</ele>
        <time>2020-09-17T13:29:20Z</time>
      </trkpt>
      <trkpt lat="45.40188" lon="3.40098">
        <ele>593.5</ele>
        <time>2020-09-17T13:29:21Z</time>
      </trkpt>
      <trkpt lat="45.40188" lon="3.40097">
        <ele>593.4</ele>
        <time>2020-09-17T13:29:22Z</time>
      </trkpt>
      <trkpt lat="45.40187" lon="3.40096">
        <ele>593.4</ele>
        <time>2020-09-17T13:29:23Z</time>
      </trkpt>
      <trkpt lat="45.40187" lon="3.40096">
        <ele>593.2</ele>
        <time>2020-09-17T13:29:24Z</time>
      </trkpt>
      <trkpt lat="45.40186" lon="3.40095">
        <ele>593.1</ele>
        <time>2020-09-17T13:29:25Z</time>
      </trkpt>
      <trkpt lat="45.40185" lon="3.40094">
        <ele>592.9</ele>
        <time>2020-09-17T13:29:26Z</time>
      </trkpt>
      <trkpt lat="45.40184" lon="3.40094">
        <ele>592.8</ele>
        <time>2020-09-17T13:29:27Z</time>
      </trkpt>
      <trkpt lat="45.40183" lon="3.40094">
        <ele>592.6</ele>
        <time>2020-09-17T13:29:28Z</time>
      </trkpt>
      <trkpt lat="45.40182" lon="3.40093">
        <ele>592.4</ele>
        <time>2020-09-17T13:29:29Z</time>
      </trkpt>
      <trkpt lat="45.40182" lon="3.40093">
        <ele>592.2</ele>
        <time>2020-09-17T13:29:30Z</time>
      </trkpt>
      <trkpt lat="45.40181" lon="3.40093">
        <ele>592</ele>
        <time>2020-09-17T13:29:31Z</time>
      </trkpt>
      <trkpt lat="45.4018" lon="3.40093">
        <ele>591.9</ele>
        <time>2020-09-17T13:29:32Z</time>
      </trkpt>
      <trkpt lat="45.40179" lon="3.40092">
        <ele>591.7</ele>
        <time>2020-09-17T13:29:33Z</time>
      </trkpt>
      <trkpt lat="45.40179" lon="3.40092">
        <ele>591.6</ele>
        <time>2020-09-17T13:29:34Z</time>
      </trkpt>
      <trkpt lat="45.40178" lon="3.40092">
        <ele>591.4</ele>
        <time>2020-09-17T13:29:35Z</time>
      </trkpt>
      <trkpt lat="45.40177" lon="3.40092">
        <ele>591.2</ele>
        <time>2020-09-17T13:29:36Z</time>
      </trkpt>
      <trkpt lat="45.40176" lon="3.40092">
        <ele>591</ele>
        <time>2020-09-17T13:29:37Z</time>
      </trkpt>
      <trkpt lat="45.40175" lon="3.40092">
        <ele>590.8</ele>
        <time>2020-09-17T13:29:38Z</time>
      </trkpt>
      <trkpt lat="45.40175" lon="3.40092">
        <ele>590.6</ele>
        <time>2020-09-17T13:29:39Z</time>
      </trkpt>
      <trkpt lat="45.40174" lon="3.40093">
        <ele>590.4</ele>
        <time>2020-09-17T13:29:40Z</time>
      </trkpt>
      <trkpt lat="45.40173" lon="3.40093">
        <ele>590</ele>
        <time>2020-09-17T13:29:41Z</time>
      </trkpt>
      <trkpt lat="45.40172" lon="3.40093">
        <ele>589.8</ele>
        <time>2020-09-17T13:29:42Z</time>
      </trkpt>
      <trkpt lat="45.4017" lon="3.40094">
        <ele>589.5</ele>
        <time>2020-09-17T13:29:43Z</time>
      </trkpt>
      <trkpt lat="45.40169" lon="3.40094">
        <ele>589.2</ele>
        <time>2020-09-17T13:29:44Z</time>
      </trkpt>
      <trkpt lat="45.40168" lon="3.40094">
        <ele>588.8</ele>
        <time>2020-09-17T13:29:45Z</time>
      </trkpt>
      <trkpt lat="45.40167" lon="3.40095">
        <ele>588.6</ele>
        <time>2020-09-17T13:29:46Z</time>
      </trkpt>
      <trkpt lat="45.40165" lon="3.40095">
        <ele>588.3</ele>
        <time>2020-09-17T13:29:47Z</time>
      </trkpt>
      <trkpt lat="45.40164" lon="3.40095">
        <ele>588</ele>
        <time>2020-09-17T13:29:48Z</time>
      </trkpt>
      <trkpt lat="45.40163" lon="3.40095">
        <ele>587.7</ele>
        <time>2020-09-17T13:29:49Z</time>
      </trkpt>
      <trkpt lat="45.40162" lon="3.40096">
        <ele>587.5</ele>
        <time>2020-09-17T13:29:50Z</time>
      </trkpt>
      <trkpt lat="45.40161" lon="3.40096">
        <ele>587.2</ele>
        <time>2020-09-17T13:29:51Z</time>
      </trkpt>
      <trkpt lat="45.4016" lon="3.40097">
        <ele>587.1</ele>
        <time>2020-09-17T13:29:52Z</time>
      </trkpt>
      <trkpt lat="45.40159" lon="3.40098">
        <ele>586.9</ele>
        <time>2020-09-17T13:29:53Z</time>
      </trkpt>
      <trkpt lat="45.40159" lon="3.40099">
        <ele>586.8</ele>
        <time>2020-09-17T13:29:54Z</time>
      </trkpt>
      <trkpt lat="45.40158" lon="3.40101">
        <ele>586.7</ele>
        <time>2020-09-17T13:29:55Z</time>
      </trkpt>
      <trkpt lat="45.40157" lon="3.40102">
        <ele>586.6</ele>
        <time>2020-09-17T13:29:56Z</time>
      </trkpt>
      <trkpt lat="45.40157" lon="3.40103">
        <ele>586.7</ele>
        <time>2020-09-17T13:29:57Z</time>
      </trkpt>
      <trkpt lat="45.40157" lon="3.40104">
        <ele>586.7</ele>
        <time>2020-09-17T13:29:58Z</time>
      </trkpt>
      <trkpt lat="45.40157" lon="3.40105">
        <ele>586.8</ele>
        <time>2020-09-17T13:29:59Z</time>
      </trkpt>
      <trkpt lat="45.40157" lon="3.40107">
        <ele>586.8</ele>
        <time>2020-09-17T13:30:00Z</time>
      </trkpt>
      <trkpt lat="45.40158" lon="3.40107">
        <ele>586.9</ele>
        <time>2020-09-17T13:30:01Z</time>
      </trkpt>
      <trkpt lat="45.40158" lon="3.40108">
        <ele>587</ele>
        <time>2020-09-17T13:30:02Z</time>
      </trkpt>
      <trkpt lat="45.40159" lon="3.40109">
        <ele>587.1</ele>
        <time>2020-09-17T13:30:03Z</time>
      </trkpt>
      <trkpt lat="45.4016" lon="3.4011">
        <ele>587.2</ele>
        <time>2020-09-17T13:30:04Z</time>
      </trkpt>
      <trkpt lat="45.4016" lon="3.40111">
        <ele>587.3</ele>
        <time>2020-09-17T13:30:05Z</time>
      </trkpt>
      <trkpt lat="45.40161" lon="3.40112">
        <ele>587.2</ele>
        <time>2020-09-17T13:30:06Z</time>
      </trkpt>
      <trkpt lat="45.40162" lon="3.40112">
        <ele>587.1</ele>
        <time>2020-09-17T13:30:07Z</time>
      </trkpt>
      <trkpt lat="45.40163" lon="3.40113">
        <ele>586.9</ele>
        <time>2020-09-17T13:30:08Z</time>
      </trkpt>
      <trkpt lat="45.40163" lon="3.40114">
        <ele>586.8</ele>
        <time>2020-09-17T13:30:09Z</time>
      </trkpt>
      <trkpt lat="45.40164" lon="3.40114">
        <ele>586.7</ele>
        <time>2020-09-17T13:30:10Z</time>
      </trkpt>
      <trkpt lat="45.40165" lon="3.40115">
        <ele>586.5</ele>
        <time>2020-09-17T13:30:11Z</time>
      </trkpt>
      <trkpt lat="45.40166" lon="3.40116">
        <ele>586.3</ele>
        <time>2020-09-17T13:30:12Z</time>
      </trkpt>
      <trkpt lat="45.40167" lon="3.40117">
        <ele>586.1</ele>
        <time>2020-09-17T13:30:13Z</time>
      </trkpt>
      <trkpt lat="45.40168" lon="3.40117">
        <ele>586</ele>
        <time>2020-09-17T13:30:14Z</time>
      </trkpt>
      <trkpt lat="45.40169" lon="3.40118">
        <ele>585.9</ele>
        <time>2020-09-17T13:30:15Z</time>
      </trkpt>
      <trkpt lat="45.4017" lon="3.40118">
        <ele>586</ele>
        <time>2020-09-17T13:30:16Z</time>
      </trkpt>
      <trkpt lat="45.4017" lon="3.40119">
        <ele>586</ele>
        <time>2020-09-17T13:30:17Z</time>
      </trkpt>
      <trkpt lat="45.40171" lon="3.40119">
        <ele>585.9</ele>
        <time>2020-09-17T13:30:18Z</time>
      </trkpt>
      <trkpt lat="45.40172" lon="3.4012">
        <ele>585.8</ele>
        <time>2020-09-17T13:30:19Z</time>
      </trkpt>
      <trkpt lat="45.40173" lon="3.40121">
        <ele>585.7</ele>
        <time>2020-09-17T13:30:20Z</time>
      </trkpt>
      <trkpt lat="45.40174" lon="3.40122">
        <ele>585.6</ele>
        <time>2020-09-17T13:30:21Z</time>
      </trkpt>
      <trkpt lat="45.40174" lon="3.40122">
        <ele>585.4</ele>
        <time>2020-09-17T13:30:22Z</time>
      </trkpt>
      <trkpt lat="45.40175" lon="3.40123">
        <ele>585.2</ele>
        <time>2020-09-17T13:30:23Z</time>
      </trkpt>
      <trkpt lat="45.40175" lon="3.40124">
        <ele>585</ele>
        <time>2020-09-17T13:30:24Z</time>
      </trkpt>
      <trkpt lat="45.40176" lon="3.40124">
        <ele>584.9</ele>
        <time>2020-09-17T13:30:25Z</time>
      </trkpt>
      <trkpt lat="45.40177" lon="3.40125">
        <ele>584.9</ele>
        <time>2020-09-17T13:30:26Z</time>
      </trkpt>
      <trkpt lat="45.40177" lon="3.40125">
        <ele>585</ele>
        <time>2020-09-17T13:30:27Z</time>
      </trkpt>
      <trkpt lat="45.40178" lon="3.40125">
        <ele>585.2</ele>
        <time>2020-09-17T13:30:28Z</time>
      </trkpt>
      <trkpt lat="45.40179" lon="3.40125">
        <ele>585.2</ele>
        <time>2020-09-17T13:30:29Z</time>
      </trkpt>
      <trkpt lat="45.4018" lon="3.40126">
        <ele>585.1</ele>
        <time>2020-09-17T13:30:30Z</time>
      </trkpt>
      <trkpt lat="45.4018" lon="3.40126">
        <ele>584.9</ele>
        <time>2020-09-17T13:30:31Z</time>
      </trkpt>
      <trkpt lat="45.40181" lon="3.40127">
        <ele>584.7</ele>
        <time>2020-09-17T13:30:32Z</time>
      </trkpt>
      <trkpt lat="45.40182" lon="3.40128">
        <ele>584.6</ele>
        <time>2020-09-17T13:30:33Z</time>
      </trkpt>
      <trkpt lat="45.40183" lon="3.40129">
        <ele>584.4</ele>
        <time>2020-09-17T13:30:34Z</time>
      </trkpt>
      <trkpt lat="45.40184" lon="3.40129">
        <ele>584.3</ele>
        <time>2020-09-17T13:30:35Z</time>
      </trkpt>
      <trkpt lat="45.40185" lon="3.4013">
        <ele>584</ele>
        <time>2020-09-17T13:30:36Z</time>
      </trkpt>
      <trkpt lat="45.40185" lon="3.40131">
        <ele>583.8</ele>
        <time>2020-09-17T13:30:37Z</time>
      </trkpt>
      <trkpt lat="45.40186" lon="3.40132">
        <ele>583.7</ele>
        <time>2020-09-17T13:30:38Z</time>
      </trkpt>
      <trkpt lat="45.40187" lon="3.40132">
        <ele>583.6</ele>
        <time>2020-09-17T13:30:39Z</time>
      </trkpt>
      <trkpt lat="45.40188" lon="3.40133">
        <ele>583.6</ele>
        <time>2020-09-17T13:30:40Z</time>
      </trkpt>
      <trkpt lat="45.40189" lon="3.40133">
        <ele>583.5</ele>
        <time>2020-09-17T13:30:41Z</time>
      </trkpt>
      <trkpt lat="45.4019" lon="3.40134">
        <ele>583.4</ele>
        <time>2020-09-17T13:30:42Z</time>
      </trkpt>
      <trkpt lat="45.4019" lon="3.40135">
        <ele>583.2</ele>
        <time>2020-09-17T13:30:43Z</time>
      </trkpt>
      <trkpt lat="45.40191" lon="3.40135">
        <ele>583.1</ele>
        <time>2020-09-17T13:30:44Z</time>
      </trkpt>
      <trkpt lat="45.40192" lon="3.40136">
        <ele>583</ele>
        <time>2020-09-17T13:30:45Z</time>
      </trkpt>
      <trkpt lat="45.40192" lon="3.40136">
        <ele>582.9</ele>
        <time>2020-09-17T13:30:46Z</time>
      </trkpt>
      <trkpt lat="45.40193" lon="3.40137">
        <ele>582.8</ele>
        <time>2020-09-17T13:30:47Z</time>
      </trkpt>
      <trkpt lat="45.40194" lon="3.40137">
        <ele>582.7</ele>
        <time>2020-09-17T13:30:48Z</time>
      </trkpt>
      <trkpt lat="45.40195" lon="3.40137">
        <ele>582.8</ele>
        <time>2020-09-17T13:30:49Z</time>
      </trkpt>
      <trkpt lat="45.40196" lon="3.40138">
        <ele>582.7</ele>
        <time>2020-09-17T13:30:50Z</time>
      </trkpt>
      <trkpt lat="45.40197" lon="3.40138">
        <ele>582.6</ele>
        <time>2020-09-17T13:30:51Z</time>
      </trkpt>
      <trkpt lat="45.40197" lon="3.40138">
        <ele>582.5</ele>
        <time>2020-09-17T13:30:52Z</time>
      </trkpt>
      <trkpt lat="45.40198" lon="3.40139">
        <ele>582.4</ele>
        <time>2020-09-17T13:30:53Z</time>
      </trkpt>
      <trkpt lat="45.40199" lon="3.40139">
        <ele>582.3</ele>
        <time>2020-09-17T13:30:54Z</time>
      </trkpt>
      <trkpt lat="45.402" lon="3.4014">
        <ele>582.3</ele>
        <time>2020-09-17T13:30:55Z</time>
      </trkpt>
      <trkpt lat="45.40201" lon="3.4014">
        <ele>582.2</ele>
        <time>2020-09-17T13:30:56Z</time>
      </trkpt>
      <trkpt lat="45.40201" lon="3.40141">
        <ele>582</ele>
        <time>2020-09-17T13:30:57Z</time>
      </trkpt>
      <trkpt lat="45.40202" lon="3.40141">
        <ele>581.8</ele>
        <time>2020-09-17T13:30:58Z</time>
      </trkpt>
      <trkpt lat="45.40203" lon="3.40142">
        <ele>581.5</ele>
        <time>2020-09-17T13:30:59Z</time>
      </trkpt>
      <trkpt lat="45.40203" lon="3.40143">
        <ele>581.4</ele>
        <time>2020-09-17T13:31:00Z</time>
      </trkpt>
      <trkpt lat="45.40204" lon="3.40143">
        <ele>581.3</ele>
        <time>2020-09-17T13:31:01Z</time>
      </trkpt>
      <trkpt lat="45.40205" lon="3.40143">
        <ele>581.4</ele>
        <time>2020-09-17T13:31:02Z</time>
      </trkpt>
      <trkpt lat="45.40205" lon="3.40143">
        <ele>581.3</ele>
        <time>2020-09-17T13:31:03Z</time>
      </trkpt>
      <trkpt lat="45.40206" lon="3.40144">
        <ele>581.2</ele>
        <time>2020-09-17T13:31:04Z</time>
      </trkpt>
      <trkpt lat="45.40207" lon="3.40144">
        <ele>581.1</ele>
        <time>2020-09-17T13:31:05Z</time>
      </trkpt>
      <trkpt lat="45.40208" lon="3.40145">
        <ele>581</ele>
        <time>2020-09-17T13:31:06Z</time>
      </trkpt>
      <trkpt lat="45.40209" lon="3.40145">
        <ele>580.8</ele>
        <time>2020-09-17T13:31:07Z</time>
      </trkpt>
      <trkpt lat="45.4021" lon="3.40146">
        <ele>580.9</ele>
        <time>2020-09-17T13:31:08Z</time>
      </trkpt>
      <trkpt lat="45.40212" lon="3.40146">
        <ele>580.7</ele>
        <time>2020-09-17T13:31:09Z</time>
      </trkpt>
      <trkpt lat="45.40213" lon="3.40147">
        <ele>580.6</ele>
        <time>2020-09-17T13:31:10Z</time>
      </trkpt>
      <trkpt lat="45.40214" lon="3.40147">
        <ele>580.6</ele>
        <time>2020-09-17T13:31:11Z</time>
      </trkpt>
      <trkpt lat="45.40215" lon="3.40148">
        <ele>580.5</ele>
        <time>2020-09-17T13:31:12Z</time>
      </trkpt>
      <trkpt lat="45.40216" lon="3.40148">
        <ele>580.4</ele>
        <time>2020-09-17T13:31:13Z</time>
      </trkpt>
      <trkpt lat="45.40217" lon="3.40149">
        <ele>580.3</ele>
        <time>2020-09-17T13:31:14Z</time>
      </trkpt>
      <trkpt lat="45.40218" lon="3.40149">
        <ele>580.2</ele>
        <time>2020-09-17T13:31:15Z</time>
      </trkpt>
      <trkpt lat="45.40218" lon="3.40149">
        <ele>580.1</ele>
        <time>2020-09-17T13:31:16Z</time>
      </trkpt>
      <trkpt lat="45.40219" lon="3.4015">
        <ele>579.9</ele>
        <time>2020-09-17T13:31:17Z</time>
      </trkpt>
      <trkpt lat="45.4022" lon="3.40151">
        <ele>579.7</ele>
        <time>2020-09-17T13:31:18Z</time>
      </trkpt>
      <trkpt lat="45.4022" lon="3.40151">
        <ele>579.6</ele>
        <time>2020-09-17T13:31:19Z</time>
      </trkpt>
      <trkpt lat="45.40221" lon="3.40151">
        <ele>579.5</ele>
        <time>2020-09-17T13:31:20Z</time>
      </trkpt>
      <trkpt lat="45.40222" lon="3.40152">
        <ele>579.4</ele>
        <time>2020-09-17T13:31:21Z</time>
      </trkpt>
      <trkpt lat="45.40223" lon="3.40152">
        <ele>579.3</ele>
        <time>2020-09-17T13:31:22Z</time>
      </trkpt>
      <trkpt lat="45.40223" lon="3.40152">
        <ele>579.2</ele>
        <time>2020-09-17T13:31:23Z</time>
      </trkpt>
      <trkpt lat="45.40224" lon="3.40153">
        <ele>579.1</ele>
        <time>2020-09-17T13:31:24Z</time>
      </trkpt>
      <trkpt lat="45.40225" lon="3.40153">
        <ele>579.1</ele>
        <time>2020-09-17T13:31:25Z</time>
      </trkpt>
      <trkpt lat="45.40226" lon="3.40153">
        <ele>579.1</ele>
        <time>2020-09-17T13:31:26Z</time>
      </trkpt>
      <trkpt lat="45.40227" lon="3.40153">
        <ele>579</ele>
        <time>2020-09-17T13:31:27Z</time>
      </trkpt>
      <trkpt lat="45.40227" lon="3.40153">
        <ele>578.9</ele>
        <time>2020-09-17T13:31:28Z</time>
      </trkpt>
      <trkpt lat="45.40228" lon="3.40153">
        <ele>578.7</ele>
        <time>2020-09-17T13:31:29Z</time>
      </trkpt>
      <trkpt lat="45.40229" lon="3.40154">
        <ele>578.4</ele>
        <time>2020-09-17T13:31:30Z</time>
      </trkpt>
      <trkpt lat="45.4023" lon="3.40154">
        <ele>578.2</ele>
        <time>2020-09-17T13:31:31Z</time>
      </trkpt>
      <trkpt lat="45.40231" lon="3.40155">
        <ele>578.1</ele>
        <time>2020-09-17T13:31:32Z</time>
      </trkpt>
      <trkpt lat="45.40232" lon="3.40155">
        <ele>577.9</ele>
        <time>2020-09-17T13:31:33Z</time>
      </trkpt>
      <trkpt lat="45.40232" lon="3.40155">
        <ele>577.8</ele>
        <time>2020-09-17T13:31:34Z</time>
      </trkpt>
      <trkpt lat="45.40233" lon="3.40155">
        <ele>577.8</ele>
        <time>2020-09-17T13:31:35Z</time>
      </trkpt>
      <trkpt lat="45.40234" lon="3.40155">
        <ele>577.7</ele>
        <time>2020-09-17T13:31:36Z</time>
      </trkpt>
      <trkpt lat="45.40235" lon="3.40155">
        <ele>577.7</ele>
        <time>2020-09-17T13:31:37Z</time>
      </trkpt>
      <trkpt lat="45.40235" lon="3.40156">
        <ele>577.6</ele>
        <time>2020-09-17T13:31:38Z</time>
      </trkpt>
      <trkpt lat="45.40236" lon="3.40156">
        <ele>577.5</ele>
        <time>2020-09-17T13:31:39Z</time>
      </trkpt>
      <trkpt lat="45.40237" lon="3.40156">
        <ele>577.3</ele>
        <time>2020-09-17T13:31:40Z</time>
      </trkpt>
      <trkpt lat="45.40238" lon="3.40156">
        <ele>577.4</ele>
        <time>2020-09-17T13:31:41Z</time>
      </trkpt>
      <trkpt lat="45.40239" lon="3.40156">
        <ele>577.4</ele>
        <time>2020-09-17T13:31:42Z</time>
      </trkpt>
      <trkpt lat="45.4024" lon="3.40156">
        <ele>577.2</ele>
        <time>2020-09-17T13:31:43Z</time>
      </trkpt>
      <trkpt lat="45.40241" lon="3.40156">
        <ele>577.2</ele>
        <time>2020-09-17T13:31:44Z</time>
      </trkpt>
      <trkpt lat="45.40242" lon="3.40157">
        <ele>577.1</ele>
        <time>2020-09-17T13:31:45Z</time>
      </trkpt>
      <trkpt lat="45.40243" lon="3.40157">
        <ele>577.1</ele>
        <time>2020-09-17T13:31:46Z</time>
      </trkpt>
      <trkpt lat="45.40244" lon="3.40157">
        <ele>577.1</ele>
        <time>2020-09-17T13:31:47Z</time>
      </trkpt>
      <trkpt lat="45.40245" lon="3.40157">
        <ele>577</ele>
        <time>2020-09-17T13:31:48Z</time>
      </trkpt>
      <trkpt lat="45.40245" lon="3.40157">
        <ele>576.8</ele>
        <time>2020-09-17T13:31:49Z</time>
      </trkpt>
      <trkpt lat="45.40246" lon="3.40158">
        <ele>576.6</ele>
        <time>2020-09-17T13:31:50Z</time>
      </trkpt>
      <trkpt lat="45.40247" lon="3.40158">
        <ele>576.5</ele>
        <time>2020-09-17T13:31:51Z</time>
      </trkpt>
      <trkpt lat="45.40248" lon="3.40158">
        <ele>576.4</ele>
        <time>2020-09-17T13:31:52Z</time>
      </trkpt>
      <trkpt lat="45.40248" lon="3.40159">
        <ele>576.3</ele>
        <time>2020-09-17T13:31:53Z</time>
      </trkpt>
      <trkpt lat="45.40249" lon="3.40159">
        <ele>576.1</ele>
        <time>2020-09-17T13:31:54Z</time>
      </trkpt>
      <trkpt lat="45.4025" lon="3.40159">
        <ele>575.9</ele>
        <time>2020-09-17T13:31:55Z</time>
      </trkpt>
      <trkpt lat="45.40251" lon="3.4016">
        <ele>575.8</ele>
        <time>2020-09-17T13:31:56Z</time>
      </trkpt>
      <trkpt lat="45.40252" lon="3.4016">
        <ele>575.6</ele>
        <time>2020-09-17T13:31:57Z</time>
      </trkpt>
      <trkpt lat="45.40253" lon="3.40161">
        <ele>575.4</ele>
        <time>2020-09-17T13:31:58Z</time>
      </trkpt>
      <trkpt lat="45.40253" lon="3.40162">
        <ele>575.2</ele>
        <time>2020-09-17T13:31:59Z</time>
      </trkpt>
      <trkpt lat="45.40253" lon="3.40163">
        <ele>574.7</ele>
        <time>2020-09-17T13:32:00Z</time>
      </trkpt>
      <trkpt lat="45.40253" lon="3.40164">
        <ele>574.3</ele>
        <time>2020-09-17T13:32:01Z</time>
      </trkpt>
      <trkpt lat="45.40253" lon="3.40165">
        <ele>573.9</ele>
        <time>2020-09-17T13:32:02Z</time>
      </trkpt>
      <trkpt lat="45.40253" lon="3.40166">
        <ele>573.4</ele>
        <time>2020-09-17T13:32:03Z</time>
      </trkpt>
      <trkpt lat="45.40252" lon="3.40167">
        <ele>573</ele>
        <time>2020-09-17T13:32:04Z</time>
      </trkpt>
      <trkpt lat="45.40252" lon="3.40168">
        <ele>572.7</ele>
        <time>2020-09-17T13:32:05Z</time>
      </trkpt>
      <trkpt lat="45.40251" lon="3.40169">
        <ele>572.4</ele>
        <time>2020-09-17T13:32:06Z</time>
      </trkpt>
      <trkpt lat="45.4025" lon="3.4017">
        <ele>572</ele>
        <time>2020-09-17T13:32:07Z</time>
      </trkpt>
      <trkpt lat="45.40249" lon="3.40171">
        <ele>571.6</ele>
        <time>2020-09-17T13:32:08Z</time>
      </trkpt>
      <trkpt lat="45.40249" lon="3.40171">
        <ele>571.3</ele>
        <time>2020-09-17T13:32:09Z</time>
      </trkpt>
      <trkpt lat="45.40248" lon="3.40172">
        <ele>571</ele>
        <time>2020-09-17T13:32:10Z</time>
      </trkpt>
      <trkpt lat="45.40247" lon="3.40173">
        <ele>570.8</ele>
        <time>2020-09-17T13:32:11Z</time>
      </trkpt>
      <trkpt lat="45.40246" lon="3.40173">
        <ele>570.5</ele>
        <time>2020-09-17T13:32:12Z</time>
      </trkpt>
      <trkpt lat="45.40246" lon="3.40174">
        <ele>570.3</ele>
        <time>2020-09-17T13:32:13Z</time>
      </trkpt>
      <trkpt lat="45.40245" lon="3.40175">
        <ele>570</ele>
        <time>2020-09-17T13:32:14Z</time>
      </trkpt>
      <trkpt lat="45.40244" lon="3.40175">
        <ele>569.8</ele>
        <time>2020-09-17T13:32:15Z</time>
      </trkpt>
      <trkpt lat="45.40243" lon="3.40176">
        <ele>569.5</ele>
        <time>2020-09-17T13:32:16Z</time>
      </trkpt>
      <trkpt lat="45.40242" lon="3.40177">
        <ele>569.3</ele>
        <time>2020-09-17T13:32:17Z</time>
      </trkpt>
      <trkpt lat="45.40241" lon="3.40177">
        <ele>569</ele>
        <time>2020-09-17T13:32:18Z</time>
      </trkpt>
      <trkpt lat="45.4024" lon="3.40178">
        <ele>568.8</ele>
        <time>2020-09-17T13:32:19Z</time>
      </trkpt>
      <trkpt lat="45.40239" lon="3.40178">
        <ele>568.6</ele>
        <time>2020-09-17T13:32:20Z</time>
      </trkpt>
      <trkpt lat="45.40238" lon="3.40178">
        <ele>568.6</ele>
        <time>2020-09-17T13:32:21Z</time>
      </trkpt>
      <trkpt lat="45.40238" lon="3.40178">
        <ele>568.4</ele>
        <time>2020-09-17T13:32:22Z</time>
      </trkpt>
      <trkpt lat="45.40237" lon="3.40179">
        <ele>568.2</ele>
        <time>2020-09-17T13:32:23Z</time>
      </trkpt>
      <trkpt lat="45.40236" lon="3.4018">
        <ele>567.9</ele>
        <time>2020-09-17T13:32:24Z</time>
      </trkpt>
      <trkpt lat="45.40235" lon="3.4018">
        <ele>567.5</ele>
        <time>2020-09-17T13:32:25Z</time>
      </trkpt>
      <trkpt lat="45.40234" lon="3.40181">
        <ele>567.2</ele>
        <time>2020-09-17T13:32:26Z</time>
      </trkpt>
      <trkpt lat="45.40233" lon="3.40182">
        <ele>566.8</ele>
        <time>2020-09-17T13:32:27Z</time>
      </trkpt>
      <trkpt lat="45.40232" lon="3.40183">
        <ele>566.4</ele>
        <time>2020-09-17T13:32:28Z</time>
      </trkpt>
      <trkpt lat="45.40231" lon="3.40184">
        <ele>566</ele>
        <time>2020-09-17T13:32:29Z</time>
      </trkpt>
      <trkpt lat="45.4023" lon="3.40185">
        <ele>565.7</ele>
        <time>2020-09-17T13:32:30Z</time>
      </trkpt>
      <trkpt lat="45.40229" lon="3.40185">
        <ele>565.3</ele>
        <time>2020-09-17T13:32:31Z</time>
      </trkpt>
      <trkpt lat="45.40228" lon="3.40186">
        <ele>565</ele>
        <time>2020-09-17T13:32:32Z</time>
      </trkpt>
      <trkpt lat="45.40227" lon="3.40187">
        <ele>564.5</ele>
        <time>2020-09-17T13:32:33Z</time>
      </trkpt>
      <trkpt lat="45.40227" lon="3.40188">
        <ele>564.2</ele>
        <time>2020-09-17T13:32:34Z</time>
      </trkpt>
      <trkpt lat="45.40226" lon="3.40189">
        <ele>563.7</ele>
        <time>2020-09-17T13:32:35Z</time>
      </trkpt>
      <trkpt lat="45.40225" lon="3.40189">
        <ele>563.4</ele>
        <time>2020-09-17T13:32:36Z</time>
      </trkpt>
      <trkpt lat="45.40224" lon="3.4019">
        <ele>562.9</ele>
        <time>2020-09-17T13:32:37Z</time>
      </trkpt>
      <trkpt lat="45.40223" lon="3.40191">
        <ele>562.6</ele>
        <time>2020-09-17T13:32:38Z</time>
      </trkpt>
      <trkpt lat="45.40222" lon="3.40192">
        <ele>562.2</ele>
        <time>2020-09-17T13:32:39Z</time>
      </trkpt>
      <trkpt lat="45.40221" lon="3.40192">
        <ele>561.9</ele>
        <time>2020-09-17T13:32:40Z</time>
      </trkpt>
      <trkpt lat="45.4022" lon="3.40193">
        <ele>561.4</ele>
        <time>2020-09-17T13:32:41Z</time>
      </trkpt>
      <trkpt lat="45.40219" lon="3.40194">
        <ele>561</ele>
        <time>2020-09-17T13:32:42Z</time>
      </trkpt>
      <trkpt lat="45.40218" lon="3.40195">
        <ele>560.6</ele>
        <time>2020-09-17T13:32:43Z</time>
      </trkpt>
      <trkpt lat="45.40217" lon="3.40196">
        <ele>560.2</ele>
        <time>2020-09-17T13:32:44Z</time>
      </trkpt>
      <trkpt lat="45.40216" lon="3.40196">
        <ele>559.8</ele>
        <time>2020-09-17T13:32:45Z</time>
      </trkpt>
      <trkpt lat="45.40216" lon="3.40198">
        <ele>559.3</ele>
        <time>2020-09-17T13:32:46Z</time>
      </trkpt>
      <trkpt lat="45.40215" lon="3.40198">
        <ele>559</ele>
        <time>2020-09-17T13:32:47Z</time>
      </trkpt>
      <trkpt lat="45.40214" lon="3.40199">
        <ele>558.7</ele>
        <time>2020-09-17T13:32:48Z</time>
      </trkpt>
      <trkpt lat="45.40213" lon="3.402">
        <ele>558.4</ele>
        <time>2020-09-17T13:32:49Z</time>
      </trkpt>
      <trkpt lat="45.40213" lon="3.402">
        <ele>558.2</ele>
        <time>2020-09-17T13:32:50Z</time>
      </trkpt>
      <trkpt lat="45.40212" lon="3.402">
        <ele>558</ele>
        <time>2020-09-17T13:32:51Z</time>
      </trkpt>
      <trkpt lat="45.40212" lon="3.40201">
        <ele>557.9</ele>
        <time>2020-09-17T13:32:52Z</time>
      </trkpt>
      <trkpt lat="45.40211" lon="3.40201">
        <ele>557.7</ele>
        <time>2020-09-17T13:32:53Z</time>
      </trkpt>
      <trkpt lat="45.40211" lon="3.40202">
        <ele>557.5</ele>
        <time>2020-09-17T13:32:54Z</time>
      </trkpt>
      <trkpt lat="45.4021" lon="3.40202">
        <ele>557.4</ele>
        <time>2020-09-17T13:32:55Z</time>
      </trkpt>
      <trkpt lat="45.40209" lon="3.40202">
        <ele>557.1</ele>
        <time>2020-09-17T13:32:56Z</time>
      </trkpt>
      <trkpt lat="45.40208" lon="3.40203">
        <ele>556.8</ele>
        <time>2020-09-17T13:32:57Z</time>
      </trkpt>
      <trkpt lat="45.40208" lon="3.40204">
        <ele>556.5</ele>
        <time>2020-09-17T13:32:58Z</time>
      </trkpt>
      <trkpt lat="45.40207" lon="3.40204">
        <ele>556.2</ele>
        <time>2020-09-17T13:32:59Z</time>
      </trkpt>
      <trkpt lat="45.40206" lon="3.40205">
        <ele>555.9</ele>
        <time>2020-09-17T13:33:00Z</time>
      </trkpt>
      <trkpt lat="45.40206" lon="3.40205">
        <ele>555.7</ele>
        <time>2020-09-17T13:33:01Z</time>
      </trkpt>
      <trkpt lat="45.40205" lon="3.40206">
        <ele>555.6</ele>
        <time>2020-09-17T13:33:02Z</time>
      </trkpt>
      <trkpt lat="45.40204" lon="3.40206">
        <ele>555.4</ele>
        <time>2020-09-17T13:33:03Z</time>
      </trkpt>
      <trkpt lat="45.40204" lon="3.40206">
        <ele>555.2</ele>
        <time>2020-09-17T13:33:04Z</time>
      </trkpt>
      <trkpt lat="45.40203" lon="3.40207">
        <ele>555</ele>
        <time>2020-09-17T13:33:05Z</time>
      </trkpt>
      <trkpt lat="45.40202" lon="3.40207">
        <ele>554.9</ele>
        <time>2020-09-17T13:33:06Z</time>
      </trkpt>
      <trkpt lat="45.40201" lon="3.40207">
        <ele>554.7</ele>
        <time>2020-09-17T13:33:07Z</time>
      </trkpt>
      <trkpt lat="45.402" lon="3.40208">
        <ele>554.6</ele>
        <time>2020-09-17T13:33:08Z</time>
      </trkpt>
      <trkpt lat="45.402" lon="3.40207">
        <ele>554.6</ele>
        <time>2020-09-17T13:33:09Z</time>
      </trkpt>
      <trkpt lat="45.40199" lon="3.40207">
        <ele>554.7</ele>
        <time>2020-09-17T13:33:10Z</time>
      </trkpt>
      <trkpt lat="45.40198" lon="3.40207">
        <ele>554.5</ele>
        <time>2020-09-17T13:33:11Z</time>
      </trkpt>
      <trkpt lat="45.40197" lon="3.40207">
        <ele>554.5</ele>
        <time>2020-09-17T13:33:12Z</time>
      </trkpt>
      <trkpt lat="45.40197" lon="3.40207">
        <ele>554.5</ele>
        <time>2020-09-17T13:33:13Z</time>
      </trkpt>
      <trkpt lat="45.40196" lon="3.40207">
        <ele>554.5</ele>
        <time>2020-09-17T13:33:14Z</time>
      </trkpt>
      <trkpt lat="45.40195" lon="3.40207">
        <ele>554.4</ele>
        <time>2020-09-17T13:33:15Z</time>
      </trkpt>
      <trkpt lat="45.40194" lon="3.40207">
        <ele>554.3</ele>
        <time>2020-09-17T13:33:16Z</time>
      </trkpt>
      <trkpt lat="45.40194" lon="3.40207">
        <ele>554.2</ele>
        <time>2020-09-17T13:33:17Z</time>
      </trkpt>
      <trkpt lat="45.40193" lon="3.40207">
        <ele>554</ele>
        <time>2020-09-17T13:33:18Z</time>
      </trkpt>
      <trkpt lat="45.40192" lon="3.40207">
        <ele>553.9</ele>
        <time>2020-09-17T13:33:19Z</time>
      </trkpt>
      <trkpt lat="45.40191" lon="3.40206">
        <ele>553.8</ele>
        <time>2020-09-17T13:33:20Z</time>
      </trkpt>
      <trkpt lat="45.40191" lon="3.40206">
        <ele>553.9</ele>
        <time>2020-09-17T13:33:21Z</time>
      </trkpt>
      <trkpt lat="45.4019" lon="3.40205">
        <ele>553.9</ele>
        <time>2020-09-17T13:33:22Z</time>
      </trkpt>
      <trkpt lat="45.4019" lon="3.40205">
        <ele>553.9</ele>
        <time>2020-09-17T13:33:23Z</time>
      </trkpt>
      <trkpt lat="45.40189" lon="3.40204">
        <ele>553.9</ele>
        <time>2020-09-17T13:33:24Z</time>
      </trkpt>
      <trkpt lat="45.40188" lon="3.40204">
        <ele>553.9</ele>
        <time>2020-09-17T13:33:25Z</time>
      </trkpt>
      <trkpt lat="45.40187" lon="3.40203">
        <ele>553.8</ele>
        <time>2020-09-17T13:33:26Z</time>
      </trkpt>
      <trkpt lat="45.40187" lon="3.40203">
        <ele>553.6</ele>
        <time>2020-09-17T13:33:27Z</time>
      </trkpt>
      <trkpt lat="45.40186" lon="3.40202">
        <ele>553.5</ele>
        <time>2020-09-17T13:33:28Z</time>
      </trkpt>
      <trkpt lat="45.40185" lon="3.40202">
        <ele>553.4</ele>
        <time>2020-09-17T13:33:29Z</time>
      </trkpt>
      <trkpt lat="45.40184" lon="3.40202">
        <ele>553.2</ele>
        <time>2020-09-17T13:33:30Z</time>
      </trkpt>
      <trkpt lat="45.40183" lon="3.40201">
        <ele>553</ele>
        <time>2020-09-17T13:33:31Z</time>
      </trkpt>
      <trkpt lat="45.40182" lon="3.40201">
        <ele>552.8</ele>
        <time>2020-09-17T13:33:32Z</time>
      </trkpt>
      <trkpt lat="45.40181" lon="3.40201">
        <ele>552.6</ele>
        <time>2020-09-17T13:33:33Z</time>
      </trkpt>
      <trkpt lat="45.4018" lon="3.40201">
        <ele>552.3</ele>
        <time>2020-09-17T13:33:34Z</time>
      </trkpt>
      <trkpt lat="45.40179" lon="3.402">
        <ele>552.1</ele>
        <time>2020-09-17T13:33:35Z</time>
      </trkpt>
      <trkpt lat="45.40178" lon="3.402">
        <ele>551.9</ele>
        <time>2020-09-17T13:33:36Z</time>
      </trkpt>
      <trkpt lat="45.40177" lon="3.402">
        <ele>551.5</ele>
        <time>2020-09-17T13:33:37Z</time>
      </trkpt>
      <trkpt lat="45.40176" lon="3.402">
        <ele>551.3</ele>
        <time>2020-09-17T13:33:38Z</time>
      </trkpt>
      <trkpt lat="45.40175" lon="3.40199">
        <ele>551.1</ele>
        <time>2020-09-17T13:33:39Z</time>
      </trkpt>
      <trkpt lat="45.40174" lon="3.40199">
        <ele>551.1</ele>
        <time>2020-09-17T13:33:40Z</time>
      </trkpt>
      <trkpt lat="45.40173" lon="3.40198">
        <ele>550.9</ele>
        <time>2020-09-17T13:33:41Z</time>
      </trkpt>
      <trkpt lat="45.40172" lon="3.40198">
        <ele>550.8</ele>
        <time>2020-09-17T13:33:42Z</time>
      </trkpt>
      <trkpt lat="45.40172" lon="3.40197">
        <ele>550.8</ele>
        <time>2020-09-17T13:33:43Z</time>
      </trkpt>
      <trkpt lat="45.40171" lon="3.40196">
        <ele>550.7</ele>
        <time>2020-09-17T13:33:44Z</time>
      </trkpt>
      <trkpt lat="45.4017" lon="3.40196">
        <ele>550.7</ele>
        <time>2020-09-17T13:33:45Z</time>
      </trkpt>
      <trkpt lat="45.40169" lon="3.40195">
        <ele>550.6</ele>
        <time>2020-09-17T13:33:46Z</time>
      </trkpt>
      <trkpt lat="45.40168" lon="3.40195">
        <ele>550.4</ele>
        <time>2020-09-17T13:33:47Z</time>
      </trkpt>
      <trkpt lat="45.40168" lon="3.40195">
        <ele>550.3</ele>
        <time>2020-09-17T13:33:48Z</time>
      </trkpt>
      <trkpt lat="45.40167" lon="3.40194">
        <ele>550.1</ele>
        <time>2020-09-17T13:33:49Z</time>
      </trkpt>
      <trkpt lat="45.40166" lon="3.40194">
        <ele>550.1</ele>
        <time>2020-09-17T13:33:50Z</time>
      </trkpt>
      <trkpt lat="45.40165" lon="3.40194">
        <ele>550</ele>
        <time>2020-09-17T13:33:51Z</time>
      </trkpt>
      <trkpt lat="45.40164" lon="3.40193">
        <ele>550.1</ele>
        <time>2020-09-17T13:33:52Z</time>
      </trkpt>
      <trkpt lat="45.40163" lon="3.40193">
        <ele>550</ele>
        <time>2020-09-17T13:33:53Z</time>
      </trkpt>
      <trkpt lat="45.40163" lon="3.40193">
        <ele>550</ele>
        <time>2020-09-17T13:33:54Z</time>
      </trkpt>
      <trkpt lat="45.40162" lon="3.40193">
        <ele>550</ele>
        <time>2020-09-17T13:33:55Z</time>
      </trkpt>
      <trkpt lat="45.40161" lon="3.40193">
        <ele>549.9</ele>
        <time>2020-09-17T13:33:56Z</time>
      </trkpt>
      <trkpt lat="45.4016" lon="3.40193">
        <ele>549.8</ele>
        <time>2020-09-17T13:33:57Z</time>
      </trkpt>
      <trkpt lat="45.40159" lon="3.40192">
        <ele>549.7</ele>
        <time>2020-09-17T13:33:58Z</time>
      </trkpt>
      <trkpt lat="45.40158" lon="3.40192">
        <ele>549.7</ele>
        <time>2020-09-17T13:33:59Z</time>
      </trkpt>
      <trkpt lat="45.40157" lon="3.40192">
        <ele>549.6</ele>
        <time>2020-09-17T13:34:00Z</time>
      </trkpt>
      <trkpt lat="45.40156" lon="3.40192">
        <ele>549.6</ele>
        <time>2020-09-17T13:34:01Z</time>
      </trkpt>
      <trkpt lat="45.40155" lon="3.40192">
        <ele>549.4</ele>
        <time>2020-09-17T13:34:02Z</time>
      </trkpt>
      <trkpt lat="45.40154" lon="3.40192">
        <ele>549.3</ele>
        <time>2020-09-17T13:34:03Z</time>
      </trkpt>
      <trkpt lat="45.40153" lon="3.40192">
        <ele>549.1</ele>
        <time>2020-09-17T13:34:04Z</time>
      </trkpt>
      <trkpt lat="45.40152" lon="3.40191">
        <ele>549</ele>
        <time>2020-09-17T13:34:05Z</time>
      </trkpt>
      <trkpt lat="45.40151" lon="3.40191">
        <ele>548.8</ele>
        <time>2020-09-17T13:34:06Z</time>
      </trkpt>
      <trkpt lat="45.4015" lon="3.40191">
        <ele>548.7</ele>
        <time>2020-09-17T13:34:07Z</time>
      </trkpt>
      <trkpt lat="45.40149" lon="3.40191">
        <ele>548.5</ele>
        <time>2020-09-17T13:34:08Z</time>
      </trkpt>
      <trkpt lat="45.40148" lon="3.40191">
        <ele>548.3</ele>
        <time>2020-09-17T13:34:09Z</time>
      </trkpt>
      <trkpt lat="45.40147" lon="3.40192">
        <ele>548.1</ele>
        <time>2020-09-17T13:34:10Z</time>
      </trkpt>
      <trkpt lat="45.40146" lon="3.40192">
        <ele>547.7</ele>
        <time>2020-09-17T13:34:11Z</time>
      </trkpt>
      <trkpt lat="45.40145" lon="3.40193">
        <ele>547.2</ele>
        <time>2020-09-17T13:34:12Z</time>
      </trkpt>
      <trkpt lat="45.40144" lon="3.40193">
        <ele>546.7</ele>
        <time>2020-09-17T13:34:13Z</time>
      </trkpt>
      <trkpt lat="45.40143" lon="3.40194">
        <ele>546.2</ele>
        <time>2020-09-17T13:34:14Z</time>
      </trkpt>
      <trkpt lat="45.40141" lon="3.40194">
        <ele>545.7</ele>
        <time>2020-09-17T13:34:15Z</time>
      </trkpt>
      <trkpt lat="45.4014" lon="3.40194">
        <ele>545.3</ele>
        <time>2020-09-17T13:34:16Z</time>
      </trkpt>
      <trkpt lat="45.40139" lon="3.40195">
        <ele>544.9</ele>
        <time>2020-09-17T13:34:17Z</time>
      </trkpt>
      <trkpt lat="45.40137" lon="3.40195">
        <ele>544.7</ele>
        <time>2020-09-17T13:34:18Z</time>
      </trkpt>
      <trkpt lat="45.40136" lon="3.40195">
        <ele>544.7</ele>
        <time>2020-09-17T13:34:19Z</time>
      </trkpt>
      <trkpt lat="45.40135" lon="3.40195">
        <ele>544.7</ele>
        <time>2020-09-17T13:34:20Z</time>
      </trkpt>
      <trkpt lat="45.40133" lon="3.40195">
        <ele>544.8</ele>
        <time>2020-09-17T13:34:21Z</time>
      </trkpt>
      <trkpt lat="45.40132" lon="3.40195">
        <ele>545.1</ele>
        <time>2020-09-17T13:34:22Z</time>
      </trkpt>
      <trkpt lat="45.4013" lon="3.40195">
        <ele>545.2</ele>
        <time>2020-09-17T13:34:23Z</time>
      </trkpt>
      <trkpt lat="45.40129" lon="3.40195">
        <ele>545.3</ele>
        <time>2020-09-17T13:34:24Z</time>
      </trkpt>
      <trkpt lat="45.40127" lon="3.40194">
        <ele>545.5</ele>
        <time>2020-09-17T13:34:25Z</time>
      </trkpt>
      <trkpt lat="45.40126" lon="3.40194">
        <ele>545.5</ele>
        <time>2020-09-17T13:34:26Z</time>
      </trkpt>
      <trkpt lat="45.40124" lon="3.40194">
        <ele>545.6</ele>
        <time>2020-09-17T13:34:27Z</time>
      </trkpt>
      <trkpt lat="45.40123" lon="3.40194">
        <ele>545.6</ele>
        <time>2020-09-17T13:34:28Z</time>
      </trkpt>
      <trkpt lat="45.40121" lon="3.40195">
        <ele>545.6</ele>
        <time>2020-09-17T13:34:29Z</time>
      </trkpt>
      <trkpt lat="45.4012" lon="3.40195">
        <ele>545.6</ele>
        <time>2020-09-17T13:34:30Z</time>
      </trkpt>
      <trkpt lat="45.40119" lon="3.40195">
        <ele>545.6</ele>
        <time>2020-09-17T13:34:31Z</time>
      </trkpt>
      <trkpt lat="45.40117" lon="3.40194">
        <ele>545.9</ele>
        <time>2020-09-17T13:34:32Z</time>
      </trkpt>
      <trkpt lat="45.40116" lon="3.40194">
        <ele>546.1</ele>
        <time>2020-09-17T13:34:33Z</time>
      </trkpt>
      <trkpt lat="45.40114" lon="3.40194">
        <ele>546.2</ele>
        <time>2020-09-17T13:34:34Z</time>
      </trkpt>
      <trkpt lat="45.40113" lon="3.40194">
        <ele>546.4</ele>
        <time>2020-09-17T13:34:35Z</time>
      </trkpt>
      <trkpt lat="45.40112" lon="3.40193">
        <ele>546.6</ele>
        <time>2020-09-17T13:34:36Z</time>
      </trkpt>
      <trkpt lat="45.40111" lon="3.40193">
        <ele>546.6</ele>
        <time>2020-09-17T13:34:37Z</time>
      </trkpt>
      <trkpt lat="45.4011" lon="3.40193">
        <ele>546.4</ele>
        <time>2020-09-17T13:34:38Z</time>
      </trkpt>
      <trkpt lat="45.40109" lon="3.40193">
        <ele>546.4</ele>
        <time>2020-09-17T13:34:39Z</time>
      </trkpt>
      <trkpt lat="45.40108" lon="3.40194">
        <ele>546.1</ele>
        <time>2020-09-17T13:34:40Z</time>
      </trkpt>
      <trkpt lat="45.40107" lon="3.40194">
        <ele>545.8</ele>
        <time>2020-09-17T13:34:41Z</time>
      </trkpt>
      <trkpt lat="45.40106" lon="3.40195">
        <ele>545.4</ele>
        <time>2020-09-17T13:34:42Z</time>
      </trkpt>
      <trkpt lat="45.40106" lon="3.40196">
        <ele>545</ele>
        <time>2020-09-17T13:34:43Z</time>
      </trkpt>
      <trkpt lat="45.40105" lon="3.40197">
        <ele>544.7</ele>
        <time>2020-09-17T13:34:44Z</time>
      </trkpt>
      <trkpt lat="45.40104" lon="3.40197">
        <ele>544.4</ele>
        <time>2020-09-17T13:34:45Z</time>
      </trkpt>
      <trkpt lat="45.40103" lon="3.40198">
        <ele>544.1</ele>
        <time>2020-09-17T13:34:46Z</time>
      </trkpt>
      <trkpt lat="45.40103" lon="3.40199">
        <ele>543.8</ele>
        <time>2020-09-17T13:34:47Z</time>
      </trkpt>
      <trkpt lat="45.40102" lon="3.402">
        <ele>543.6</ele>
        <time>2020-09-17T13:34:48Z</time>
      </trkpt>
      <trkpt lat="45.40101" lon="3.402">
        <ele>543.4</ele>
        <time>2020-09-17T13:34:49Z</time>
      </trkpt>
      <trkpt lat="45.40101" lon="3.40201">
        <ele>543.1</ele>
        <time>2020-09-17T13:34:50Z</time>
      </trkpt>
      <trkpt lat="45.40101" lon="3.40202">
        <ele>542.8</ele>
        <time>2020-09-17T13:34:51Z</time>
      </trkpt>
      <trkpt lat="45.401" lon="3.40203">
        <ele>542.5</ele>
        <time>2020-09-17T13:34:52Z</time>
      </trkpt>
      <trkpt lat="45.401" lon="3.40204">
        <ele>542.3</ele>
        <time>2020-09-17T13:34:53Z</time>
      </trkpt>
      <trkpt lat="45.401" lon="3.40205">
        <ele>542</ele>
        <time>2020-09-17T13:34:54Z</time>
      </trkpt>
      <trkpt lat="45.401" lon="3.40206">
        <ele>541.7</ele>
        <time>2020-09-17T13:34:55Z</time>
      </trkpt>
      <trkpt lat="45.401" lon="3.40207">
        <ele>541.5</ele>
        <time>2020-09-17T13:34:56Z</time>
      </trkpt>
      <trkpt lat="45.40099" lon="3.40208">
        <ele>541.3</ele>
        <time>2020-09-17T13:34:57Z</time>
      </trkpt>
      <trkpt lat="45.40099" lon="3.40209">
        <ele>541.2</ele>
        <time>2020-09-17T13:34:58Z</time>
      </trkpt>
      <trkpt lat="45.40098" lon="3.40209">
        <ele>541.2</ele>
        <time>2020-09-17T13:34:59Z</time>
      </trkpt>
      <trkpt lat="45.40097" lon="3.40209">
        <ele>541.2</ele>
        <time>2020-09-17T13:35:00Z</time>
      </trkpt>
      <trkpt lat="45.40097" lon="3.40208">
        <ele>541.3</ele>
        <time>2020-09-17T13:35:01Z</time>
      </trkpt>
      <trkpt lat="45.40096" lon="3.40208">
        <ele>541.4</ele>
        <time>2020-09-17T13:35:02Z</time>
      </trkpt>
      <trkpt lat="45.40096" lon="3.40208">
        <ele>541.4</ele>
        <time>2020-09-17T13:35:03Z</time>
      </trkpt>
      <trkpt lat="45.40095" lon="3.40208">
        <ele>541.4</ele>
        <time>2020-09-17T13:35:04Z</time>
      </trkpt>
      <trkpt lat="45.40095" lon="3.40208">
        <ele>541.4</ele>
        <time>2020-09-17T13:35:05Z</time>
      </trkpt>
      <trkpt lat="45.40094" lon="3.40208">
        <ele>541.5</ele>
        <time>2020-09-17T13:35:06Z</time>
      </trkpt>
      <trkpt lat="45.40094" lon="3.40207">
        <ele>541.5</ele>
        <time>2020-09-17T13:35:07Z</time>
      </trkpt>
      <trkpt lat="45.40093" lon="3.40207">
        <ele>541.5</ele>
        <time>2020-09-17T13:35:08Z</time>
      </trkpt>
      <trkpt lat="45.40093" lon="3.40208">
        <ele>541.5</ele>
        <time>2020-09-17T13:35:09Z</time>
      </trkpt>
      <trkpt lat="45.40092" lon="3.40208">
        <ele>541.4</ele>
        <time>2020-09-17T13:35:10Z</time>
      </trkpt>
      <trkpt lat="45.40091" lon="3.40208">
        <ele>541.4</ele>
        <time>2020-09-17T13:35:11Z</time>
      </trkpt>
      <trkpt lat="45.40091" lon="3.40208">
        <ele>541.4</ele>
        <time>2020-09-17T13:35:12Z</time>
      </trkpt>
      <trkpt lat="45.4009" lon="3.40208">
        <ele>541.5</ele>
        <time>2020-09-17T13:35:13Z</time>
      </trkpt>
      <trkpt lat="45.4009" lon="3.40207">
        <ele>541.6</ele>
        <time>2020-09-17T13:35:14Z</time>
      </trkpt>
      <trkpt lat="45.40089" lon="3.40207">
        <ele>541.7</ele>
        <time>2020-09-17T13:35:15Z</time>
      </trkpt>
      <trkpt lat="45.40089" lon="3.40206">
        <ele>541.8</ele>
        <time>2020-09-17T13:35:16Z</time>
      </trkpt>
      <trkpt lat="45.40088" lon="3.40205">
        <ele>542</ele>
        <time>2020-09-17T13:35:17Z</time>
      </trkpt>
      <trkpt lat="45.40088" lon="3.40204">
        <ele>542.1</ele>
        <time>2020-09-17T13:35:18Z</time>
      </trkpt>
      <trkpt lat="45.40088" lon="3.40203">
        <ele>542.2</ele>
        <time>2020-09-17T13:35:19Z</time>
      </trkpt>
      <trkpt lat="45.40088" lon="3.40202">
        <ele>542.4</ele>
        <time>2020-09-17T13:35:20Z</time>
      </trkpt>
      <trkpt lat="45.40087" lon="3.40201">
        <ele>542.5</ele>
        <time>2020-09-17T13:35:21Z</time>
      </trkpt>
      <trkpt lat="45.40087" lon="3.402">
        <ele>542.6</ele>
        <time>2020-09-17T13:35:22Z</time>
      </trkpt>
      <trkpt lat="45.40086" lon="3.40199">
        <ele>542.7</ele>
        <time>2020-09-17T13:35:23Z</time>
      </trkpt>
      <trkpt lat="45.40086" lon="3.40199">
        <ele>542.7</ele>
        <time>2020-09-17T13:35:24Z</time>
      </trkpt>
      <trkpt lat="45.40085" lon="3.40198">
        <ele>542.7</ele>
        <time>2020-09-17T13:35:25Z</time>
      </trkpt>
      <trkpt lat="45.40085" lon="3.40198">
        <ele>542.8</ele>
        <time>2020-09-17T13:35:26Z</time>
      </trkpt>
      <trkpt lat="45.40084" lon="3.40198">
        <ele>542.7</ele>
        <time>2020-09-17T13:35:27Z</time>
      </trkpt>
      <trkpt lat="45.40083" lon="3.40197">
        <ele>542.7</ele>
        <time>2020-09-17T13:35:28Z</time>
      </trkpt>
      <trkpt lat="45.40083" lon="3.40197">
        <ele>542.3</ele>
        <time>2020-09-17T13:35:29Z</time>
      </trkpt>
      <trkpt lat="45.40082" lon="3.40197">
        <ele>542.1</ele>
        <time>2020-09-17T13:35:30Z</time>
      </trkpt>
      <trkpt lat="45.40081" lon="3.40196">
        <ele>541.7</ele>
        <time>2020-09-17T13:35:31Z</time>
      </trkpt>
      <trkpt lat="45.40081" lon="3.40196">
        <ele>541.6</ele>
        <time>2020-09-17T13:35:32Z</time>
      </trkpt>
      <trkpt lat="45.40081" lon="3.40195">
        <ele>541.5</ele>
        <time>2020-09-17T13:35:33Z</time>
      </trkpt>
      <trkpt lat="45.4008" lon="3.40195">
        <ele>541.4</ele>
        <time>2020-09-17T13:35:34Z</time>
      </trkpt>
      <trkpt lat="45.4008" lon="3.40194">
        <ele>541.3</ele>
        <time>2020-09-17T13:35:35Z</time>
      </trkpt>
      <trkpt lat="45.40079" lon="3.40193">
        <ele>541.2</ele>
        <time>2020-09-17T13:35:36Z</time>
      </trkpt>
      <trkpt lat="45.40079" lon="3.40193">
        <ele>541</ele>
        <time>2020-09-17T13:35:37Z</time>
      </trkpt>
      <trkpt lat="45.40078" lon="3.40193">
        <ele>540.8</ele>
        <time>2020-09-17T13:35:38Z</time>
      </trkpt>
      <trkpt lat="45.40077" lon="3.40192">
        <ele>540.4</ele>
        <time>2020-09-17T13:35:39Z</time>
      </trkpt>
      <trkpt lat="45.40077" lon="3.40192">
        <ele>540.2</ele>
        <time>2020-09-17T13:35:40Z</time>
      </trkpt>
      <trkpt lat="45.40077" lon="3.40192">
        <ele>540</ele>
        <time>2020-09-17T13:35:41Z</time>
      </trkpt>
      <trkpt lat="45.40076" lon="3.40193">
        <ele>539.6</ele>
        <time>2020-09-17T13:35:42Z</time>
      </trkpt>
      <trkpt lat="45.40076" lon="3.40193">
        <ele>539.4</ele>
        <time>2020-09-17T13:35:43Z</time>
      </trkpt>
      <trkpt lat="45.40075" lon="3.40194">
        <ele>539</ele>
        <time>2020-09-17T13:35:44Z</time>
      </trkpt>
      <trkpt lat="45.40075" lon="3.40195">
        <ele>538.7</ele>
        <time>2020-09-17T13:35:45Z</time>
      </trkpt>
      <trkpt lat="45.40075" lon="3.40195">
        <ele>538.5</ele>
        <time>2020-09-17T13:35:46Z</time>
      </trkpt>
      <trkpt lat="45.40074" lon="3.40196">
        <ele>538.3</ele>
        <time>2020-09-17T13:35:47Z</time>
      </trkpt>
      <trkpt lat="45.40074" lon="3.40197">
        <ele>538.1</ele>
        <time>2020-09-17T13:35:48Z</time>
      </trkpt>
      <trkpt lat="45.40074" lon="3.40198">
        <ele>537.8</ele>
        <time>2020-09-17T13:35:49Z</time>
      </trkpt>
      <trkpt lat="45.40073" lon="3.40198">
        <ele>537.6</ele>
        <time>2020-09-17T13:35:50Z</time>
      </trkpt>
      <trkpt lat="45.40073" lon="3.40199">
        <ele>537.3</ele>
        <time>2020-09-17T13:35:51Z</time>
      </trkpt>
      <trkpt lat="45.40073" lon="3.402">
        <ele>537.1</ele>
        <time>2020-09-17T13:35:52Z</time>
      </trkpt>
      <trkpt lat="45.40072" lon="3.402">
        <ele>536.8</ele>
        <time>2020-09-17T13:35:53Z</time>
      </trkpt>
      <trkpt lat="45.40072" lon="3.402">
        <ele>536.8</ele>
        <time>2020-09-17T13:35:54Z</time>
      </trkpt>
      <trkpt lat="45.40072" lon="3.402">
        <ele>536.7</ele>
        <time>2020-09-17T13:35:55Z</time>
      </trkpt>
      <trkpt lat="45.40072" lon="3.40201">
        <ele>536.5</ele>
        <time>2020-09-17T13:35:56Z</time>
      </trkpt>
      <trkpt lat="45.40071" lon="3.40201">
        <ele>536.2</ele>
        <time>2020-09-17T13:35:57Z</time>
      </trkpt>
      <trkpt lat="45.40071" lon="3.40202">
        <ele>536.1</ele>
        <time>2020-09-17T13:35:58Z</time>
      </trkpt>
      <trkpt lat="45.40071" lon="3.40202">
        <ele>536</ele>
        <time>2020-09-17T13:35:59Z</time>
      </trkpt>
      <trkpt lat="45.40071" lon="3.40203">
        <ele>535.8</ele>
        <time>2020-09-17T13:36:00Z</time>
      </trkpt>
      <trkpt lat="45.40071" lon="3.40204">
        <ele>535.9</ele>
        <time>2020-09-17T13:36:01Z</time>
      </trkpt>
      <trkpt lat="45.40071" lon="3.40204">
        <ele>536</ele>
        <time>2020-09-17T13:36:02Z</time>
      </trkpt>
      <trkpt lat="45.40071" lon="3.40204">
        <ele>536.1</ele>
        <time>2020-09-17T13:36:03Z</time>
      </trkpt>
      <trkpt lat="45.40072" lon="3.40205">
        <ele>536.2</ele>
        <time>2020-09-17T13:36:04Z</time>
      </trkpt>
      <trkpt lat="45.40072" lon="3.40205">
        <ele>536.2</ele>
        <time>2020-09-17T13:36:05Z</time>
      </trkpt>
      <trkpt lat="45.40072" lon="3.40206">
        <ele>536.1</ele>
        <time>2020-09-17T13:36:06Z</time>
      </trkpt>
      <trkpt lat="45.40072" lon="3.40207">
        <ele>536</ele>
        <time>2020-09-17T13:36:07Z</time>
      </trkpt>
      <trkpt lat="45.40072" lon="3.40207">
        <ele>535.8</ele>
        <time>2020-09-17T13:36:08Z</time>
      </trkpt>
      <trkpt lat="45.40072" lon="3.40208">
        <ele>535.8</ele>
        <time>2020-09-17T13:36:09Z</time>
      </trkpt>
      <trkpt lat="45.40071" lon="3.40208">
        <ele>535.6</ele>
        <time>2020-09-17T13:36:10Z</time>
      </trkpt>
      <trkpt lat="45.40071" lon="3.40209">
        <ele>535.4</ele>
        <time>2020-09-17T13:36:11Z</time>
      </trkpt>
      <trkpt lat="45.40071" lon="3.40209">
        <ele>535.3</ele>
        <time>2020-09-17T13:36:12Z</time>
      </trkpt>
      <trkpt lat="45.40071" lon="3.4021">
        <ele>535.1</ele>
        <time>2020-09-17T13:36:13Z</time>
      </trkpt>
      <trkpt lat="45.4007" lon="3.4021">
        <ele>534.9</ele>
        <time>2020-09-17T13:36:14Z</time>
      </trkpt>
      <trkpt lat="45.4007" lon="3.40211">
        <ele>534.8</ele>
        <time>2020-09-17T13:36:15Z</time>
      </trkpt>
      <trkpt lat="45.4007" lon="3.40211">
        <ele>534.7</ele>
        <time>2020-09-17T13:36:16Z</time>
      </trkpt>
      <trkpt lat="45.4007" lon="3.40212">
        <ele>534.6</ele>
        <time>2020-09-17T13:36:17Z</time>
      </trkpt>
      <trkpt lat="45.4007" lon="3.40212">
        <ele>534.4</ele>
        <time>2020-09-17T13:36:18Z</time>
      </trkpt>
      <trkpt lat="45.40069" lon="3.40213">
        <ele>534.3</ele>
        <time>2020-09-17T13:36:19Z</time>
      </trkpt>
      <trkpt lat="45.40069" lon="3.40213">
        <ele>534.2</ele>
        <time>2020-09-17T13:36:20Z</time>
      </trkpt>
      <trkpt lat="45.40069" lon="3.40214">
        <ele>534.1</ele>
        <time>2020-09-17T13:36:21Z</time>
      </trkpt>
      <trkpt lat="45.40069" lon="3.40214">
        <ele>534.1</ele>
        <time>2020-09-17T13:36:22Z</time>
      </trkpt>
      <trkpt lat="45.40069" lon="3.40215">
        <ele>534</ele>
        <time>2020-09-17T13:36:23Z</time>
      </trkpt>
      <trkpt lat="45.40069" lon="3.40216">
        <ele>534</ele>
        <time>2020-09-17T13:36:24Z</time>
      </trkpt>
      <trkpt lat="45.40069" lon="3.40217">
        <ele>533.8</ele>
        <time>2020-09-17T13:36:25Z</time>
      </trkpt>
      <trkpt lat="45.40069" lon="3.40217">
        <ele>533.7</ele>
        <time>2020-09-17T13:36:26Z</time>
      </trkpt>
      <trkpt lat="45.40069" lon="3.40218">
        <ele>533.6</ele>
        <time>2020-09-17T13:36:27Z</time>
      </trkpt>
      <trkpt lat="45.40069" lon="3.40219">
        <ele>533.3</ele>
        <time>2020-09-17T13:36:28Z</time>
      </trkpt>
      <trkpt lat="45.40068" lon="3.4022">
        <ele>533</ele>
        <time>2020-09-17T13:36:29Z</time>
      </trkpt>
      <trkpt lat="45.40068" lon="3.4022">
        <ele>532.8</ele>
        <time>2020-09-17T13:36:30Z</time>
      </trkpt>
      <trkpt lat="45.40067" lon="3.40221">
        <ele>532.6</ele>
        <time>2020-09-17T13:36:31Z</time>
      </trkpt>
      <trkpt lat="45.40067" lon="3.40221">
        <ele>532.5</ele>
        <time>2020-09-17T13:36:32Z</time>
      </trkpt>
      <trkpt lat="45.40067" lon="3.40222">
        <ele>532.4</ele>
        <time>2020-09-17T13:36:33Z</time>
      </trkpt>
      <trkpt lat="45.40067" lon="3.40223">
        <ele>532.1</ele>
        <time>2020-09-17T13:36:34Z</time>
      </trkpt>
      <trkpt lat="45.40067" lon="3.40224">
        <ele>531.7</ele>
        <time>2020-09-17T13:36:35Z</time>
      </trkpt>
      <trkpt lat="45.40066" lon="3.40225">
        <ele>531.4</ele>
        <time>2020-09-17T13:36:36Z</time>
      </trkpt>
      <trkpt lat="45.40066" lon="3.40225">
        <ele>531.1</ele>
        <time>2020-09-17T13:36:37Z</time>
      </trkpt>
      <trkpt lat="45.40066" lon="3.40226">
        <ele>530.8</ele>
        <time>2020-09-17T13:36:38Z</time>
      </trkpt>
      <trkpt lat="45.40066" lon="3.40227">
        <ele>530.7</ele>
        <time>2020-09-17T13:36:39Z</time>
      </trkpt>
      <trkpt lat="45.40066" lon="3.40227">
        <ele>530.5</ele>
        <time>2020-09-17T13:36:40Z</time>
      </trkpt>
      <trkpt lat="45.40066" lon="3.40228">
        <ele>530.3</ele>
        <time>2020-09-17T13:36:41Z</time>
      </trkpt>
      <trkpt lat="45.40066" lon="3.40228">
        <ele>530.2</ele>
        <time>2020-09-17T13:36:42Z</time>
      </trkpt>
      <trkpt lat="45.40066" lon="3.40229">
        <ele>530</ele>
        <time>2020-09-17T13:36:43Z</time>
      </trkpt>
      <trkpt lat="45.40066" lon="3.4023">
        <ele>529.7</ele>
        <time>2020-09-17T13:36:44Z</time>
      </trkpt>
      <trkpt lat="45.40066" lon="3.40231">
        <ele>529.4</ele>
        <time>2020-09-17T13:36:45Z</time>
      </trkpt>
      <trkpt lat="45.40066" lon="3.40231">
        <ele>529.2</ele>
        <time>2020-09-17T13:36:46Z</time>
      </trkpt>
      <trkpt lat="45.40065" lon="3.40231">
        <ele>528.9</ele>
        <time>2020-09-17T13:36:47Z</time>
      </trkpt>
      <trkpt lat="45.40064" lon="3.40231">
        <ele>528.6</ele>
        <time>2020-09-17T13:36:48Z</time>
      </trkpt>
      <trkpt lat="45.40063" lon="3.40231">
        <ele>528.3</ele>
        <time>2020-09-17T13:36:49Z</time>
      </trkpt>
      <trkpt lat="45.40062" lon="3.40231">
        <ele>528.2</ele>
        <time>2020-09-17T13:36:50Z</time>
      </trkpt>
      <trkpt lat="45.40061" lon="3.40231">
        <ele>527.9</ele>
        <time>2020-09-17T13:36:51Z</time>
      </trkpt>
      <trkpt lat="45.40061" lon="3.4023">
        <ele>527.8</ele>
        <time>2020-09-17T13:36:52Z</time>
      </trkpt>
      <trkpt lat="45.4006" lon="3.4023">
        <ele>527.6</ele>
        <time>2020-09-17T13:36:53Z</time>
      </trkpt>
      <trkpt lat="45.40059" lon="3.4023">
        <ele>527.5</ele>
        <time>2020-09-17T13:36:54Z</time>
      </trkpt>
      <trkpt lat="45.40059" lon="3.40229">
        <ele>527.4</ele>
        <time>2020-09-17T13:36:55Z</time>
      </trkpt>
      <trkpt lat="45.40059" lon="3.40229">
        <ele>527.3</ele>
        <time>2020-09-17T13:36:56Z</time>
      </trkpt>
      <trkpt lat="45.40058" lon="3.40229">
        <ele>527.2</ele>
        <time>2020-09-17T13:36:57Z</time>
      </trkpt>
      <trkpt lat="45.40058" lon="3.40229">
        <ele>527.1</ele>
        <time>2020-09-17T13:36:58Z</time>
      </trkpt>
      <trkpt lat="45.40057" lon="3.40228">
        <ele>527</ele>
        <time>2020-09-17T13:36:59Z</time>
      </trkpt>
      <trkpt lat="45.40057" lon="3.40227">
        <ele>526.8</ele>
        <time>2020-09-17T13:37:00Z</time>
      </trkpt>
      <trkpt lat="45.40056" lon="3.40227">
        <ele>526.6</ele>
        <time>2020-09-17T13:37:01Z</time>
      </trkpt>
      <trkpt lat="45.40055" lon="3.40226">
        <ele>526.5</ele>
        <time>2020-09-17T13:37:02Z</time>
      </trkpt>
      <trkpt lat="45.40055" lon="3.40226">
        <ele>526.3</ele>
        <time>2020-09-17T13:37:03Z</time>
      </trkpt>
      <trkpt lat="45.40054" lon="3.40226">
        <ele>526.1</ele>
        <time>2020-09-17T13:37:04Z</time>
      </trkpt>
      <trkpt lat="45.40053" lon="3.40226">
        <ele>526</ele>
        <time>2020-09-17T13:37:05Z</time>
      </trkpt>
      <trkpt lat="45.40053" lon="3.40225">
        <ele>525.8</ele>
        <time>2020-09-17T13:37:06Z</time>
      </trkpt>
      <trkpt lat="45.40052" lon="3.40225">
        <ele>525.7</ele>
        <time>2020-09-17T13:37:07Z</time>
      </trkpt>
      <trkpt lat="45.40052" lon="3.40224">
        <ele>525.7</ele>
        <time>2020-09-17T13:37:08Z</time>
      </trkpt>
      <trkpt lat="45.40051" lon="3.40224">
        <ele>525.6</ele>
        <time>2020-09-17T13:37:09Z</time>
      </trkpt>
      <trkpt lat="45.40051" lon="3.40223">
        <ele>525.5</ele>
        <time>2020-09-17T13:37:10Z</time>
      </trkpt>
      <trkpt lat="45.4005" lon="3.40222">
        <ele>525.4</ele>
        <time>2020-09-17T13:37:11Z</time>
      </trkpt>
      <trkpt lat="45.40049" lon="3.40221">
        <ele>525.3</ele>
        <time>2020-09-17T13:37:12Z</time>
      </trkpt>
      <trkpt lat="45.40049" lon="3.40221">
        <ele>525.1</ele>
        <time>2020-09-17T13:37:13Z</time>
      </trkpt>
      <trkpt lat="45.40048" lon="3.4022">
        <ele>524.9</ele>
        <time>2020-09-17T13:37:14Z</time>
      </trkpt>
      <trkpt lat="45.40048" lon="3.4022">
        <ele>524.8</ele>
        <time>2020-09-17T13:37:15Z</time>
      </trkpt>
      <trkpt lat="45.40047" lon="3.40219">
        <ele>524.7</ele>
        <time>2020-09-17T13:37:16Z</time>
      </trkpt>
      <trkpt lat="45.40046" lon="3.40218">
        <ele>524.5</ele>
        <time>2020-09-17T13:37:17Z</time>
      </trkpt>
      <trkpt lat="45.40046" lon="3.40217">
        <ele>524.4</ele>
        <time>2020-09-17T13:37:18Z</time>
      </trkpt>
      <trkpt lat="45.40046" lon="3.40216">
        <ele>524.3</ele>
        <time>2020-09-17T13:37:19Z</time>
      </trkpt>
      <trkpt lat="45.40045" lon="3.40214">
        <ele>524.3</ele>
        <time>2020-09-17T13:37:20Z</time>
      </trkpt>
      <trkpt lat="45.40045" lon="3.40213">
        <ele>524.3</ele>
        <time>2020-09-17T13:37:21Z</time>
      </trkpt>
      <trkpt lat="45.40045" lon="3.40211">
        <ele>524.2</ele>
        <time>2020-09-17T13:37:22Z</time>
      </trkpt>
      <trkpt lat="45.40045" lon="3.4021">
        <ele>524.2</ele>
        <time>2020-09-17T13:37:23Z</time>
      </trkpt>
      <trkpt lat="45.40045" lon="3.40209">
        <ele>524.3</ele>
        <time>2020-09-17T13:37:24Z</time>
      </trkpt>
      <trkpt lat="45.40045" lon="3.40208">
        <ele>524.2</ele>
        <time>2020-09-17T13:37:25Z</time>
      </trkpt>
      <trkpt lat="45.40044" lon="3.40206">
        <ele>524.2</ele>
        <time>2020-09-17T13:37:26Z</time>
      </trkpt>
      <trkpt lat="45.40044" lon="3.40205">
        <ele>524.2</ele>
        <time>2020-09-17T13:37:27Z</time>
      </trkpt>
      <trkpt lat="45.40044" lon="3.40204">
        <ele>524.1</ele>
        <time>2020-09-17T13:37:28Z</time>
      </trkpt>
      <trkpt lat="45.40044" lon="3.40202">
        <ele>524.1</ele>
        <time>2020-09-17T13:37:29Z</time>
      </trkpt>
      <trkpt lat="45.40044" lon="3.402">
        <ele>524.1</ele>
        <time>2020-09-17T13:37:30Z</time>
      </trkpt>
      <trkpt lat="45.40043" lon="3.40199">
        <ele>524</ele>
        <time>2020-09-17T13:37:31Z</time>
      </trkpt>
      <trkpt lat="45.40043" lon="3.40197">
        <ele>524</ele>
        <time>2020-09-17T13:37:32Z</time>
      </trkpt>
      <trkpt lat="45.40043" lon="3.40196">
        <ele>524.1</ele>
        <time>2020-09-17T13:37:33Z</time>
      </trkpt>
      <trkpt lat="45.40043" lon="3.40194">
        <ele>524.1</ele>
        <time>2020-09-17T13:37:34Z</time>
      </trkpt>
      <trkpt lat="45.40043" lon="3.40193">
        <ele>524.1</ele>
        <time>2020-09-17T13:37:35Z</time>
      </trkpt>
      <trkpt lat="45.40044" lon="3.40192">
        <ele>524.1</ele>
        <time>2020-09-17T13:37:36Z</time>
      </trkpt>
      <trkpt lat="45.40044" lon="3.40191">
        <ele>524.1</ele>
        <time>2020-09-17T13:37:37Z</time>
      </trkpt>
      <trkpt lat="45.40044" lon="3.40189">
        <ele>524</ele>
        <time>2020-09-17T13:37:38Z</time>
      </trkpt>
      <trkpt lat="45.40043" lon="3.40188">
        <ele>523.8</ele>
        <time>2020-09-17T13:37:39Z</time>
      </trkpt>
      <trkpt lat="45.40043" lon="3.40186">
        <ele>523.7</ele>
        <time>2020-09-17T13:37:40Z</time>
      </trkpt>
      <trkpt lat="45.40043" lon="3.40185">
        <ele>523.5</ele>
        <time>2020-09-17T13:37:41Z</time>
      </trkpt>
      <trkpt lat="45.40043" lon="3.40183">
        <ele>523.4</ele>
        <time>2020-09-17T13:37:42Z</time>
      </trkpt>
      <trkpt lat="45.40043" lon="3.40181">
        <ele>523.4</ele>
        <time>2020-09-17T13:37:43Z</time>
      </trkpt>
      <trkpt lat="45.40043" lon="3.40179">
        <ele>523.2</ele>
        <time>2020-09-17T13:37:44Z</time>
      </trkpt>
      <trkpt lat="45.40043" lon="3.40177">
        <ele>523.3</ele>
        <time>2020-09-17T13:37:45Z</time>
      </trkpt>
      <trkpt lat="45.40044" lon="3.40175">
        <ele>523.4</ele>
        <time>2020-09-17T13:37:46Z</time>
      </trkpt>
      <trkpt lat="45.40045" lon="3.40173">
        <ele>523.6</ele>
        <time>2020-09-17T13:37:47Z</time>
      </trkpt>
      <trkpt lat="45.40045" lon="3.40172">
        <ele>523.8</ele>
        <time>2020-09-17T13:37:48Z</time>
      </trkpt>
      <trkpt lat="45.40046" lon="3.4017">
        <ele>523.9</ele>
        <time>2020-09-17T13:37:49Z</time>
      </trkpt>
      <trkpt lat="45.40046" lon="3.40168">
        <ele>524</ele>
        <time>2020-09-17T13:37:50Z</time>
      </trkpt>
      <trkpt lat="45.40047" lon="3.40166">
        <ele>524.1</ele>
        <time>2020-09-17T13:37:51Z</time>
      </trkpt>
      <trkpt lat="45.40047" lon="3.40164">
        <ele>524.1</ele>
        <time>2020-09-17T13:37:52Z</time>
      </trkpt>
      <trkpt lat="45.40048" lon="3.40162">
        <ele>524</ele>
        <time>2020-09-17T13:37:53Z</time>
      </trkpt>
      <trkpt lat="45.40049" lon="3.4016">
        <ele>524</ele>
        <time>2020-09-17T13:37:54Z</time>
      </trkpt>
      <trkpt lat="45.40049" lon="3.40158">
        <ele>524.1</ele>
        <time>2020-09-17T13:37:55Z</time>
      </trkpt>
      <trkpt lat="45.4005" lon="3.40156">
        <ele>524.1</ele>
        <time>2020-09-17T13:37:56Z</time>
      </trkpt>
      <trkpt lat="45.4005" lon="3.40155">
        <ele>524</ele>
        <time>2020-09-17T13:37:57Z</time>
      </trkpt>
      <trkpt lat="45.4005" lon="3.40154">
        <ele>523.8</ele>
        <time>2020-09-17T13:37:58Z</time>
      </trkpt>
      <trkpt lat="45.4005" lon="3.40153">
        <ele>523.6</ele>
        <time>2020-09-17T13:37:59Z</time>
      </trkpt>
      <trkpt lat="45.4005" lon="3.40151">
        <ele>523.3</ele>
        <time>2020-09-17T13:38:00Z</time>
      </trkpt>
      <trkpt lat="45.4005" lon="3.40149">
        <ele>522.9</ele>
        <time>2020-09-17T13:38:01Z</time>
      </trkpt>
      <trkpt lat="45.40049" lon="3.40148">
        <ele>522.6</ele>
        <time>2020-09-17T13:38:02Z</time>
      </trkpt>
      <trkpt lat="45.40049" lon="3.40146">
        <ele>522.2</ele>
        <time>2020-09-17T13:38:03Z</time>
      </trkpt>
      <trkpt lat="45.40049" lon="3.40145">
        <ele>522</ele>
        <time>2020-09-17T13:38:04Z</time>
      </trkpt>
      <trkpt lat="45.40049" lon="3.40143">
        <ele>521.8</ele>
        <time>2020-09-17T13:38:05Z</time>
      </trkpt>
      <trkpt lat="45.40049" lon="3.40141">
        <ele>521.6</ele>
        <time>2020-09-17T13:38:06Z</time>
      </trkpt>
      <trkpt lat="45.40049" lon="3.40139">
        <ele>521.4</ele>
        <time>2020-09-17T13:38:07Z</time>
      </trkpt>
      <trkpt lat="45.40049" lon="3.40138">
        <ele>521.4</ele>
        <time>2020-09-17T13:38:08Z</time>
      </trkpt>
      <trkpt lat="45.40049" lon="3.40136">
        <ele>521.6</ele>
        <time>2020-09-17T13:38:09Z</time>
      </trkpt>
      <trkpt lat="45.4005" lon="3.40134">
        <ele>521.7</ele>
        <time>2020-09-17T13:38:10Z</time>
      </trkpt>
      <trkpt lat="45.4005" lon="3.40133">
        <ele>521.9</ele>
        <time>2020-09-17T13:38:11Z</time>
      </trkpt>
      <trkpt lat="45.4005" lon="3.40131">
        <ele>522</ele>
        <time>2020-09-17T13:38:12Z</time>
      </trkpt>
      <trkpt lat="45.4005" lon="3.40129">
        <ele>522</ele>
        <time>2020-09-17T13:38:13Z</time>
      </trkpt>
      <trkpt lat="45.4005" lon="3.40128">
        <ele>522.1</ele>
        <time>2020-09-17T13:38:14Z</time>
      </trkpt>
      <trkpt lat="45.40049" lon="3.40126">
        <ele>522.1</ele>
        <time>2020-09-17T13:38:15Z</time>
      </trkpt>
      <trkpt lat="45.40049" lon="3.40124">
        <ele>522.1</ele>
        <time>2020-09-17T13:38:16Z</time>
      </trkpt>
      <trkpt lat="45.40048" lon="3.40123">
        <ele>522</ele>
        <time>2020-09-17T13:38:17Z</time>
      </trkpt>
      <trkpt lat="45.40048" lon="3.40121">
        <ele>522</ele>
        <time>2020-09-17T13:38:18Z</time>
      </trkpt>
      <trkpt lat="45.40047" lon="3.4012">
        <ele>521.9</ele>
        <time>2020-09-17T13:38:19Z</time>
      </trkpt>
      <trkpt lat="45.40047" lon="3.40118">
        <ele>521.9</ele>
        <time>2020-09-17T13:38:20Z</time>
      </trkpt>
      <trkpt lat="45.40047" lon="3.40116">
        <ele>521.8</ele>
        <time>2020-09-17T13:38:21Z</time>
      </trkpt>
      <trkpt lat="45.40046" lon="3.40115">
        <ele>521.8</ele>
        <time>2020-09-17T13:38:22Z</time>
      </trkpt>
      <trkpt lat="45.40046" lon="3.40114">
        <ele>521.8</ele>
        <time>2020-09-17T13:38:23Z</time>
      </trkpt>
      <trkpt lat="45.40046" lon="3.40113">
        <ele>521.7</ele>
        <time>2020-09-17T13:38:24Z</time>
      </trkpt>
      <trkpt lat="45.40045" lon="3.40111">
        <ele>521.5</ele>
        <time>2020-09-17T13:38:25Z</time>
      </trkpt>
      <trkpt lat="45.40044" lon="3.4011">
        <ele>521.5</ele>
        <time>2020-09-17T13:38:26Z</time>
      </trkpt>
      <trkpt lat="45.40044" lon="3.40109">
        <ele>521.4</ele>
        <time>2020-09-17T13:38:27Z</time>
      </trkpt>
      <trkpt lat="45.40043" lon="3.40108">
        <ele>521.4</ele>
        <time>2020-09-17T13:38:28Z</time>
      </trkpt>
      <trkpt lat="45.40043" lon="3.40106">
        <ele>521.4</ele>
        <time>2020-09-17T13:38:29Z</time>
      </trkpt>
      <trkpt lat="45.40043" lon="3.40105">
        <ele>521.5</ele>
        <time>2020-09-17T13:38:30Z</time>
      </trkpt>
      <trkpt lat="45.40043" lon="3.40103">
        <ele>521.5</ele>
        <time>2020-09-17T13:38:31Z</time>
      </trkpt>
      <trkpt lat="45.40042" lon="3.40101">
        <ele>521.5</ele>
        <time>2020-09-17T13:38:32Z</time>
      </trkpt>
      <trkpt lat="45.40042" lon="3.401">
        <ele>521.5</ele>
        <time>2020-09-17T13:38:33Z</time>
      </trkpt>
      <trkpt lat="45.40042" lon="3.40099">
        <ele>521.5</ele>
        <time>2020-09-17T13:38:34Z</time>
      </trkpt>
      <trkpt lat="45.40042" lon="3.40097">
        <ele>521.6</ele>
        <time>2020-09-17T13:38:35Z</time>
      </trkpt>
      <trkpt lat="45.40042" lon="3.40095">
        <ele>521.6</ele>
        <time>2020-09-17T13:38:36Z</time>
      </trkpt>
      <trkpt lat="45.40042" lon="3.40094">
        <ele>521.8</ele>
        <time>2020-09-17T13:38:37Z</time>
      </trkpt>
      <trkpt lat="45.40042" lon="3.40092">
        <ele>522</ele>
        <time>2020-09-17T13:38:38Z</time>
      </trkpt>
      <trkpt lat="45.40042" lon="3.40091">
        <ele>522.2</ele>
        <time>2020-09-17T13:38:39Z</time>
      </trkpt>
      <trkpt lat="45.40042" lon="3.40089">
        <ele>522.3</ele>
        <time>2020-09-17T13:38:40Z</time>
      </trkpt>
      <trkpt lat="45.40042" lon="3.40088">
        <ele>522.4</ele>
        <time>2020-09-17T13:38:41Z</time>
      </trkpt>
      <trkpt lat="45.40042" lon="3.40086">
        <ele>522.5</ele>
        <time>2020-09-17T13:38:42Z</time>
      </trkpt>
      <trkpt lat="45.40042" lon="3.40084">
        <ele>522.4</ele>
        <time>2020-09-17T13:38:43Z</time>
      </trkpt>
      <trkpt lat="45.40042" lon="3.40083">
        <ele>522.5</ele>
        <time>2020-09-17T13:38:44Z</time>
      </trkpt>
      <trkpt lat="45.40042" lon="3.40081">
        <ele>522.3</ele>
        <time>2020-09-17T13:38:45Z</time>
      </trkpt>
      <trkpt lat="45.40041" lon="3.4008">
        <ele>521.9</ele>
        <time>2020-09-17T13:38:46Z</time>
      </trkpt>
      <trkpt lat="45.4004" lon="3.40078">
        <ele>521.4</ele>
        <time>2020-09-17T13:38:47Z</time>
      </trkpt>
      <trkpt lat="45.40039" lon="3.40077">
        <ele>520.8</ele>
        <time>2020-09-17T13:38:48Z</time>
      </trkpt>
      <trkpt lat="45.40038" lon="3.40075">
        <ele>520</ele>
        <time>2020-09-17T13:38:49Z</time>
      </trkpt>
      <trkpt lat="45.40037" lon="3.40074">
        <ele>519.3</ele>
        <time>2020-09-17T13:38:50Z</time>
      </trkpt>
      <trkpt lat="45.40036" lon="3.40073">
        <ele>518.8</ele>
        <time>2020-09-17T13:38:51Z</time>
      </trkpt>
      <trkpt lat="45.40035" lon="3.40072">
        <ele>518.2</ele>
        <time>2020-09-17T13:38:52Z</time>
      </trkpt>
      <trkpt lat="45.40034" lon="3.40071">
        <ele>517.7</ele>
        <time>2020-09-17T13:38:53Z</time>
      </trkpt>
      <trkpt lat="45.40033" lon="3.4007">
        <ele>517.1</ele>
        <time>2020-09-17T13:38:54Z</time>
      </trkpt>
      <trkpt lat="45.40032" lon="3.4007">
        <ele>516.5</ele>
        <time>2020-09-17T13:38:55Z</time>
      </trkpt>
      <trkpt lat="45.40031" lon="3.40069">
        <ele>515.9</ele>
        <time>2020-09-17T13:38:56Z</time>
      </trkpt>
      <trkpt lat="45.4003" lon="3.40068">
        <ele>515.5</ele>
        <time>2020-09-17T13:38:57Z</time>
      </trkpt>
      <trkpt lat="45.40029" lon="3.40068">
        <ele>515</ele>
        <time>2020-09-17T13:38:58Z</time>
      </trkpt>
      <trkpt lat="45.40028" lon="3.40067">
        <ele>514.6</ele>
        <time>2020-09-17T13:38:59Z</time>
      </trkpt>
      <trkpt lat="45.40027" lon="3.40066">
        <ele>514.8</ele>
        <time>2020-09-17T13:39:00Z</time>
      </trkpt>
      <trkpt lat="45.40027" lon="3.40065">
        <ele>514.9</ele>
        <time>2020-09-17T13:39:01Z</time>
      </trkpt>
      <trkpt lat="45.40027" lon="3.40063">
        <ele>515</ele>
        <time>2020-09-17T13:39:02Z</time>
      </trkpt>
      <trkpt lat="45.40027" lon="3.40061">
        <ele>514.9</ele>
        <time>2020-09-17T13:39:03Z</time>
      </trkpt>
      <trkpt lat="45.40028" lon="3.4006">
        <ele>514.9</ele>
        <time>2020-09-17T13:39:04Z</time>
      </trkpt>
      <trkpt lat="45.40028" lon="3.40058">
        <ele>515.1</ele>
        <time>2020-09-17T13:39:05Z</time>
      </trkpt>
      <trkpt lat="45.40029" lon="3.40057">
        <ele>515.3</ele>
        <time>2020-09-17T13:39:06Z</time>
      </trkpt>
      <trkpt lat="45.40029" lon="3.40056">
        <ele>515.7</ele>
        <time>2020-09-17T13:39:07Z</time>
      </trkpt>
      <trkpt lat="45.4003" lon="3.40055">
        <ele>516</ele>
        <time>2020-09-17T13:39:08Z</time>
      </trkpt>
      <trkpt lat="45.40031" lon="3.40054">
        <ele>516.2</ele>
        <time>2020-09-17T13:39:09Z</time>
      </trkpt>
      <trkpt lat="45.40032" lon="3.40053">
        <ele>516.6</ele>
        <time>2020-09-17T13:39:10Z</time>
      </trkpt>
      <trkpt lat="45.40032" lon="3.40052">
        <ele>516.7</ele>
        <time>2020-09-17T13:39:11Z</time>
      </trkpt>
      <trkpt lat="45.40033" lon="3.4005">
        <ele>516.9</ele>
        <time>2020-09-17T13:39:12Z</time>
      </trkpt>
      <trkpt lat="45.40033" lon="3.40049">
        <ele>517.1</ele>
        <time>2020-09-17T13:39:13Z</time>
      </trkpt>
      <trkpt lat="45.40034" lon="3.40048">
        <ele>517.2</ele>
        <time>2020-09-17T13:39:14Z</time>
      </trkpt>
      <trkpt lat="45.40034" lon="3.40047">
        <ele>517.3</ele>
        <time>2020-09-17T13:39:15Z</time>
      </trkpt>
      <trkpt lat="45.40034" lon="3.40046">
        <ele>517.4</ele>
        <time>2020-09-17T13:39:16Z</time>
      </trkpt>
      <trkpt lat="45.40034" lon="3.40045">
        <ele>517.3</ele>
        <time>2020-09-17T13:39:17Z</time>
      </trkpt>
      <trkpt lat="45.40034" lon="3.40043">
        <ele>517.3</ele>
        <time>2020-09-17T13:39:18Z</time>
      </trkpt>
      <trkpt lat="45.40034" lon="3.40042">
        <ele>517.3</ele>
        <time>2020-09-17T13:39:19Z</time>
      </trkpt>
      <trkpt lat="45.40034" lon="3.4004">
        <ele>517.2</ele>
        <time>2020-09-17T13:39:20Z</time>
      </trkpt>
      <trkpt lat="45.40034" lon="3.40039">
        <ele>517.2</ele>
        <time>2020-09-17T13:39:21Z</time>
      </trkpt>
      <trkpt lat="45.40034" lon="3.40037">
        <ele>517.1</ele>
        <time>2020-09-17T13:39:22Z</time>
      </trkpt>
      <trkpt lat="45.40034" lon="3.40035">
        <ele>517.1</ele>
        <time>2020-09-17T13:39:23Z</time>
      </trkpt>
      <trkpt lat="45.40034" lon="3.40034">
        <ele>517.1</ele>
        <time>2020-09-17T13:39:24Z</time>
      </trkpt>
      <trkpt lat="45.40034" lon="3.40033">
        <ele>517.1</ele>
        <time>2020-09-17T13:39:25Z</time>
      </trkpt>
      <trkpt lat="45.40034" lon="3.40031">
        <ele>517</ele>
        <time>2020-09-17T13:39:26Z</time>
      </trkpt>
      <trkpt lat="45.40034" lon="3.4003">
        <ele>517</ele>
        <time>2020-09-17T13:39:27Z</time>
      </trkpt>
      <trkpt lat="45.40034" lon="3.40028">
        <ele>516.9</ele>
        <time>2020-09-17T13:39:28Z</time>
      </trkpt>
      <trkpt lat="45.40034" lon="3.40027">
        <ele>516.7</ele>
        <time>2020-09-17T13:39:29Z</time>
      </trkpt>
      <trkpt lat="45.40034" lon="3.40025">
        <ele>516.5</ele>
        <time>2020-09-17T13:39:30Z</time>
      </trkpt>
      <trkpt lat="45.40033" lon="3.40024">
        <ele>516.3</ele>
        <time>2020-09-17T13:39:31Z</time>
      </trkpt>
      <trkpt lat="45.40033" lon="3.40023">
        <ele>516.2</ele>
        <time>2020-09-17T13:39:32Z</time>
      </trkpt>
      <trkpt lat="45.40033" lon="3.40022">
        <ele>516.1</ele>
        <time>2020-09-17T13:39:33Z</time>
      </trkpt>
      <trkpt lat="45.40033" lon="3.4002">
        <ele>516</ele>
        <time>2020-09-17T13:39:34Z</time>
      </trkpt>
      <trkpt lat="45.40033" lon="3.40019">
        <ele>516</ele>
        <time>2020-09-17T13:39:35Z</time>
      </trkpt>
      <trkpt lat="45.40033" lon="3.40018">
        <ele>515.9</ele>
        <time>2020-09-17T13:39:36Z</time>
      </trkpt>
      <trkpt lat="45.40033" lon="3.40017">
        <ele>515.9</ele>
        <time>2020-09-17T13:39:37Z</time>
      </trkpt>
      <trkpt lat="45.40033" lon="3.40016">
        <ele>515.9</ele>
        <time>2020-09-17T13:39:38Z</time>
      </trkpt>
      <trkpt lat="45.40033" lon="3.40015">
        <ele>515.8</ele>
        <time>2020-09-17T13:39:39Z</time>
      </trkpt>
      <trkpt lat="45.40034" lon="3.40014">
        <ele>515.9</ele>
        <time>2020-09-17T13:39:40Z</time>
      </trkpt>
      <trkpt lat="45.40034" lon="3.40013">
        <ele>515.9</ele>
        <time>2020-09-17T13:39:41Z</time>
      </trkpt>
      <trkpt lat="45.40035" lon="3.40012">
        <ele>516</ele>
        <time>2020-09-17T13:39:42Z</time>
      </trkpt>
      <trkpt lat="45.40035" lon="3.40011">
        <ele>516</ele>
        <time>2020-09-17T13:39:43Z</time>
      </trkpt>
      <trkpt lat="45.40036" lon="3.4001">
        <ele>516.1</ele>
        <time>2020-09-17T13:39:44Z</time>
      </trkpt>
      <trkpt lat="45.40036" lon="3.40009">
        <ele>516.1</ele>
        <time>2020-09-17T13:39:45Z</time>
      </trkpt>
      <trkpt lat="45.40037" lon="3.40008">
        <ele>516.2</ele>
        <time>2020-09-17T13:39:46Z</time>
      </trkpt>
      <trkpt lat="45.40038" lon="3.40008">
        <ele>516.4</ele>
        <time>2020-09-17T13:39:47Z</time>
      </trkpt>
      <trkpt lat="45.40039" lon="3.40008">
        <ele>516.5</ele>
        <time>2020-09-17T13:39:48Z</time>
      </trkpt>
      <trkpt lat="45.40039" lon="3.40007">
        <ele>516.5</ele>
        <time>2020-09-17T13:39:49Z</time>
      </trkpt>
      <trkpt lat="45.40039" lon="3.40007">
        <ele>516.6</ele>
        <time>2020-09-17T13:39:50Z</time>
      </trkpt>
      <trkpt lat="45.4004" lon="3.40006">
        <ele>516.6</ele>
        <time>2020-09-17T13:39:51Z</time>
      </trkpt>
      <trkpt lat="45.4004" lon="3.40006">
        <ele>516.7</ele>
        <time>2020-09-17T13:39:52Z</time>
      </trkpt>
      <trkpt lat="45.40041" lon="3.40005">
        <ele>516.8</ele>
        <time>2020-09-17T13:39:53Z</time>
      </trkpt>
      <trkpt lat="45.40042" lon="3.40005">
        <ele>516.9</ele>
        <time>2020-09-17T13:39:54Z</time>
      </trkpt>
      <trkpt lat="45.40042" lon="3.40005">
        <ele>517</ele>
        <time>2020-09-17T13:39:55Z</time>
      </trkpt>
      <trkpt lat="45.40043" lon="3.40004">
        <ele>517.1</ele>
        <time>2020-09-17T13:39:56Z</time>
      </trkpt>
      <trkpt lat="45.40043" lon="3.40004">
        <ele>517.1</ele>
        <time>2020-09-17T13:39:57Z</time>
      </trkpt>
      <trkpt lat="45.40044" lon="3.40003">
        <ele>517.1</ele>
        <time>2020-09-17T13:39:58Z</time>
      </trkpt>
      <trkpt lat="45.40044" lon="3.40003">
        <ele>517.2</ele>
        <time>2020-09-17T13:39:59Z</time>
      </trkpt>
      <trkpt lat="45.40045" lon="3.40002">
        <ele>517.2</ele>
        <time>2020-09-17T13:40:00Z</time>
      </trkpt>
      <trkpt lat="45.40045" lon="3.40001">
        <ele>517.2</ele>
        <time>2020-09-17T13:40:01Z</time>
      </trkpt>
      <trkpt lat="45.40046" lon="3.39999">
        <ele>517.1</ele>
        <time>2020-09-17T13:40:02Z</time>
      </trkpt>
      <trkpt lat="45.40046" lon="3.39998">
        <ele>517</ele>
        <time>2020-09-17T13:40:03Z</time>
      </trkpt>
      <trkpt lat="45.40046" lon="3.39998">
        <ele>517</ele>
        <time>2020-09-17T13:40:04Z</time>
      </trkpt>
      <trkpt lat="45.40046" lon="3.39997">
        <ele>516.9</ele>
        <time>2020-09-17T13:40:05Z</time>
      </trkpt>
      <trkpt lat="45.40046" lon="3.39997">
        <ele>516.8</ele>
        <time>2020-09-17T13:40:06Z</time>
      </trkpt>
      <trkpt lat="45.40046" lon="3.39995">
        <ele>516.6</ele>
        <time>2020-09-17T13:40:07Z</time>
      </trkpt>
      <trkpt lat="45.40046" lon="3.39994">
        <ele>516.4</ele>
        <time>2020-09-17T13:40:08Z</time>
      </trkpt>
      <trkpt lat="45.40046" lon="3.39993">
        <ele>516.3</ele>
        <time>2020-09-17T13:40:09Z</time>
      </trkpt>
      <trkpt lat="45.40046" lon="3.39991">
        <ele>516.1</ele>
        <time>2020-09-17T13:40:10Z</time>
      </trkpt>
      <trkpt lat="45.40046" lon="3.3999">
        <ele>516</ele>
        <time>2020-09-17T13:40:11Z</time>
      </trkpt>
      <trkpt lat="45.40046" lon="3.39989">
        <ele>515.8</ele>
        <time>2020-09-17T13:40:12Z</time>
      </trkpt>
      <trkpt lat="45.40046" lon="3.39988">
        <ele>515.6</ele>
        <time>2020-09-17T13:40:13Z</time>
      </trkpt>
      <trkpt lat="45.40045" lon="3.39986">
        <ele>515.4</ele>
        <time>2020-09-17T13:40:14Z</time>
      </trkpt>
      <trkpt lat="45.40045" lon="3.39985">
        <ele>515.2</ele>
        <time>2020-09-17T13:40:15Z</time>
      </trkpt>
      <trkpt lat="45.40044" lon="3.39984">
        <ele>514.9</ele>
        <time>2020-09-17T13:40:16Z</time>
      </trkpt>
      <trkpt lat="45.40044" lon="3.39982">
        <ele>514.8</ele>
        <time>2020-09-17T13:40:17Z</time>
      </trkpt>
      <trkpt lat="45.40043" lon="3.39981">
        <ele>514.6</ele>
        <time>2020-09-17T13:40:18Z</time>
      </trkpt>
      <trkpt lat="45.40043" lon="3.3998">
        <ele>514.4</ele>
        <time>2020-09-17T13:40:19Z</time>
      </trkpt>
      <trkpt lat="45.40042" lon="3.39979">
        <ele>514.2</ele>
        <time>2020-09-17T13:40:20Z</time>
      </trkpt>
      <trkpt lat="45.40042" lon="3.39977">
        <ele>514</ele>
        <time>2020-09-17T13:40:21Z</time>
      </trkpt>
      <trkpt lat="45.40042" lon="3.39976">
        <ele>513.9</ele>
        <time>2020-09-17T13:40:22Z</time>
      </trkpt>
      <trkpt lat="45.40042" lon="3.39974">
        <ele>513.7</ele>
        <time>2020-09-17T13:40:23Z</time>
      </trkpt>
      <trkpt lat="45.40042" lon="3.39974">
        <ele>513.7</ele>
        <time>2020-09-17T13:40:24Z</time>
      </trkpt>
      <trkpt lat="45.40042" lon="3.39973">
        <ele>513.6</ele>
        <time>2020-09-17T13:40:25Z</time>
      </trkpt>
      <trkpt lat="45.40043" lon="3.39972">
        <ele>513.6</ele>
        <time>2020-09-17T13:40:26Z</time>
      </trkpt>
      <trkpt lat="45.40043" lon="3.39971">
        <ele>513.7</ele>
        <time>2020-09-17T13:40:27Z</time>
      </trkpt>
      <trkpt lat="45.40043" lon="3.3997">
        <ele>513.8</ele>
        <time>2020-09-17T13:40:28Z</time>
      </trkpt>
      <trkpt lat="45.40043" lon="3.39969">
        <ele>513.9</ele>
        <time>2020-09-17T13:40:29Z</time>
      </trkpt>
      <trkpt lat="45.40043" lon="3.39969">
        <ele>514</ele>
        <time>2020-09-17T13:40:30Z</time>
      </trkpt>
      <trkpt lat="45.40044" lon="3.39968">
        <ele>514</ele>
        <time>2020-09-17T13:40:31Z</time>
      </trkpt>
      <trkpt lat="45.40044" lon="3.39968">
        <ele>514.1</ele>
        <time>2020-09-17T13:40:32Z</time>
      </trkpt>
      <trkpt lat="45.40044" lon="3.39967">
        <ele>514.1</ele>
        <time>2020-09-17T13:40:33Z</time>
      </trkpt>
      <trkpt lat="45.40044" lon="3.39967">
        <ele>514.1</ele>
        <time>2020-09-17T13:40:34Z</time>
      </trkpt>
      <trkpt lat="45.40044" lon="3.39967">
        <ele>514.1</ele>
        <time>2020-09-17T13:40:35Z</time>
      </trkpt>
      <trkpt lat="45.40044" lon="3.39967">
        <ele>514.1</ele>
        <time>2020-09-17T13:40:36Z</time>
      </trkpt>
      <trkpt lat="45.40044" lon="3.39966">
        <ele>514.2</ele>
        <time>2020-09-17T13:40:37Z</time>
      </trkpt>
      <trkpt lat="45.40045" lon="3.39965">
        <ele>514.3</ele>
        <time>2020-09-17T13:40:38Z</time>
      </trkpt>
      <trkpt lat="45.40045" lon="3.39964">
        <ele>514.3</ele>
        <time>2020-09-17T13:40:39Z</time>
      </trkpt>
      <trkpt lat="45.40045" lon="3.39963">
        <ele>514.4</ele>
        <time>2020-09-17T13:40:40Z</time>
      </trkpt>
      <trkpt lat="45.40046" lon="3.39963">
        <ele>514.3</ele>
        <time>2020-09-17T13:40:41Z</time>
      </trkpt>
      <trkpt lat="45.40046" lon="3.39962">
        <ele>514.3</ele>
        <time>2020-09-17T13:40:42Z</time>
      </trkpt>
      <trkpt lat="45.40047" lon="3.39961">
        <ele>514.3</ele>
        <time>2020-09-17T13:40:43Z</time>
      </trkpt>
      <trkpt lat="45.40047" lon="3.3996">
        <ele>514.2</ele>
        <time>2020-09-17T13:40:44Z</time>
      </trkpt>
      <trkpt lat="45.40048" lon="3.39959">
        <ele>514.2</ele>
        <time>2020-09-17T13:40:45Z</time>
      </trkpt>
      <trkpt lat="45.40048" lon="3.39958">
        <ele>514.1</ele>
        <time>2020-09-17T13:40:46Z</time>
      </trkpt>
      <trkpt lat="45.40048" lon="3.39958">
        <ele>514.1</ele>
        <time>2020-09-17T13:40:47Z</time>
      </trkpt>
      <trkpt lat="45.40049" lon="3.39958">
        <ele>514</ele>
        <time>2020-09-17T13:40:48Z</time>
      </trkpt>
      <trkpt lat="45.40049" lon="3.39957">
        <ele>514</ele>
        <time>2020-09-17T13:40:49Z</time>
      </trkpt>
      <trkpt lat="45.40049" lon="3.39957">
        <ele>514</ele>
        <time>2020-09-17T13:40:50Z</time>
      </trkpt>
      <trkpt lat="45.40049" lon="3.39956">
        <ele>513.9</ele>
        <time>2020-09-17T13:40:51Z</time>
      </trkpt>
      <trkpt lat="45.40049" lon="3.39956">
        <ele>513.9</ele>
        <time>2020-09-17T13:40:52Z</time>
      </trkpt>
      <trkpt lat="45.40049" lon="3.39956">
        <ele>513.9</ele>
        <time>2020-09-17T13:40:53Z</time>
      </trkpt>
      <trkpt lat="45.4005" lon="3.39955">
        <ele>513.8</ele>
        <time>2020-09-17T13:40:54Z</time>
      </trkpt>
      <trkpt lat="45.4005" lon="3.39955">
        <ele>513.7</ele>
        <time>2020-09-17T13:40:55Z</time>
      </trkpt>
      <trkpt lat="45.4005" lon="3.39954">
        <ele>513.6</ele>
        <time>2020-09-17T13:40:56Z</time>
      </trkpt>
      <trkpt lat="45.40051" lon="3.39954">
        <ele>513.5</ele>
        <time>2020-09-17T13:40:57Z</time>
      </trkpt>
      <trkpt lat="45.40051" lon="3.39953">
        <ele>513.4</ele>
        <time>2020-09-17T13:40:58Z</time>
      </trkpt>
      <trkpt lat="45.40051" lon="3.39952">
        <ele>513.4</ele>
        <time>2020-09-17T13:40:59Z</time>
      </trkpt>
      <trkpt lat="45.40051" lon="3.39952">
        <ele>513.3</ele>
        <time>2020-09-17T13:41:00Z</time>
      </trkpt>
      <trkpt lat="45.40051" lon="3.39952">
        <ele>513.3</ele>
        <time>2020-09-17T13:41:01Z</time>
      </trkpt>
      <trkpt lat="45.40051" lon="3.39951">
        <ele>513.2</ele>
        <time>2020-09-17T13:41:02Z</time>
      </trkpt>
      <trkpt lat="45.40052" lon="3.39951">
        <ele>513.1</ele>
        <time>2020-09-17T13:41:03Z</time>
      </trkpt>
      <trkpt lat="45.40052" lon="3.39951">
        <ele>513.1</ele>
        <time>2020-09-17T13:41:04Z</time>
      </trkpt>
      <trkpt lat="45.40052" lon="3.3995">
        <ele>513</ele>
        <time>2020-09-17T13:41:05Z</time>
      </trkpt>
      <trkpt lat="45.40052" lon="3.3995">
        <ele>512.8</ele>
        <time>2020-09-17T13:41:06Z</time>
      </trkpt>
      <trkpt lat="45.40052" lon="3.39949">
        <ele>512.8</ele>
        <time>2020-09-17T13:41:07Z</time>
      </trkpt>
      <trkpt lat="45.40053" lon="3.39949">
        <ele>512.6</ele>
        <time>2020-09-17T13:41:08Z</time>
      </trkpt>
      <trkpt lat="45.40053" lon="3.39949">
        <ele>512.5</ele>
        <time>2020-09-17T13:41:09Z</time>
      </trkpt>
      <trkpt lat="45.40053" lon="3.39948">
        <ele>512.4</ele>
        <time>2020-09-17T13:41:10Z</time>
      </trkpt>
      <trkpt lat="45.40054" lon="3.39948">
        <ele>512.2</ele>
        <time>2020-09-17T13:41:11Z</time>
      </trkpt>
      <trkpt lat="45.40054" lon="3.39948">
        <ele>512.1</ele>
        <time>2020-09-17T13:41:12Z</time>
      </trkpt>
      <trkpt lat="45.40054" lon="3.39947">
        <ele>512.2</ele>
        <time>2020-09-17T13:41:13Z</time>
      </trkpt>
      <trkpt lat="45.40053" lon="3.39947">
        <ele>512.2</ele>
        <time>2020-09-17T13:41:14Z</time>
      </trkpt>
      <trkpt lat="45.40053" lon="3.39947">
        <ele>512.2</ele>
        <time>2020-09-17T13:41:15Z</time>
      </trkpt>
      <trkpt lat="45.40053" lon="3.39946">
        <ele>512.2</ele>
        <time>2020-09-17T13:41:16Z</time>
      </trkpt>
      <trkpt lat="45.40053" lon="3.39946">
        <ele>512.2</ele>
        <time>2020-09-17T13:41:17Z</time>
      </trkpt>
      <trkpt lat="45.40053" lon="3.39946">
        <ele>512.1</ele>
        <time>2020-09-17T13:41:18Z</time>
      </trkpt>
      <trkpt lat="45.40054" lon="3.39946">
        <ele>512.1</ele>
        <time>2020-09-17T13:41:19Z</time>
      </trkpt>
      <trkpt lat="45.40054" lon="3.39946">
        <ele>512</ele>
        <time>2020-09-17T13:41:20Z</time>
      </trkpt>
      <trkpt lat="45.40054" lon="3.39946">
        <ele>512</ele>
        <time>2020-09-17T13:41:21Z</time>
      </trkpt>
      <trkpt lat="45.40059" lon="3.39935">
        <ele>512.8</ele>
        <time>2020-09-17T13:41:22Z</time>
      </trkpt>
      <trkpt lat="45.4006" lon="3.39935">
        <ele>512.9</ele>
        <time>2020-09-17T13:41:23Z</time>
      </trkpt>
      <trkpt lat="45.4006" lon="3.39935">
        <ele>513</ele>
        <time>2020-09-17T13:41:24Z</time>
      </trkpt>
      <trkpt lat="45.4006" lon="3.39935">
        <ele>513</ele>
        <time>2020-09-17T13:41:25Z</time>
      </trkpt>
      <trkpt lat="45.40061" lon="3.39934">
        <ele>513.1</ele>
        <time>2020-09-17T13:41:26Z</time>
      </trkpt>
      <trkpt lat="45.40061" lon="3.39934">
        <ele>513.2</ele>
        <time>2020-09-17T13:41:27Z</time>
      </trkpt>
      <trkpt lat="45.40061" lon="3.39934">
        <ele>513.2</ele>
        <time>2020-09-17T13:41:28Z</time>
      </trkpt>
      <trkpt lat="45.40062" lon="3.39934">
        <ele>513.3</ele>
        <time>2020-09-17T13:41:29Z</time>
      </trkpt>
      <trkpt lat="45.40062" lon="3.39934">
        <ele>513.3</ele>
        <time>2020-09-17T13:41:30Z</time>
      </trkpt>
      <trkpt lat="45.40063" lon="3.39933">
        <ele>513.4</ele>
        <time>2020-09-17T13:41:31Z</time>
      </trkpt>
      <trkpt lat="45.40063" lon="3.39932">
        <ele>513.5</ele>
        <time>2020-09-17T13:41:32Z</time>
      </trkpt>
      <trkpt lat="45.40064" lon="3.39932">
        <ele>513.5</ele>
        <time>2020-09-17T13:41:33Z</time>
      </trkpt>
      <trkpt lat="45.40064" lon="3.39932">
        <ele>513.6</ele>
        <time>2020-09-17T13:41:34Z</time>
      </trkpt>
      <trkpt lat="45.40065" lon="3.39931">
        <ele>513.6</ele>
        <time>2020-09-17T13:41:35Z</time>
      </trkpt>
      <trkpt lat="45.40065" lon="3.3993">
        <ele>513.7</ele>
        <time>2020-09-17T13:41:36Z</time>
      </trkpt>
      <trkpt lat="45.40065" lon="3.39929">
        <ele>513.7</ele>
        <time>2020-09-17T13:41:37Z</time>
      </trkpt>
      <trkpt lat="45.40065" lon="3.39929">
        <ele>513.7</ele>
        <time>2020-09-17T13:41:38Z</time>
      </trkpt>
      <trkpt lat="45.40066" lon="3.39928">
        <ele>513.7</ele>
        <time>2020-09-17T13:41:39Z</time>
      </trkpt>
      <trkpt lat="45.40066" lon="3.39927">
        <ele>513.7</ele>
        <time>2020-09-17T13:41:40Z</time>
      </trkpt>
      <trkpt lat="45.40066" lon="3.39926">
        <ele>513.7</ele>
        <time>2020-09-17T13:41:41Z</time>
      </trkpt>
      <trkpt lat="45.40066" lon="3.39925">
        <ele>513.7</ele>
        <time>2020-09-17T13:41:42Z</time>
      </trkpt>
      <trkpt lat="45.40067" lon="3.39924">
        <ele>513.6</ele>
        <time>2020-09-17T13:41:43Z</time>
      </trkpt>
      <trkpt lat="45.40067" lon="3.39923">
        <ele>513.6</ele>
        <time>2020-09-17T13:41:44Z</time>
      </trkpt>
      <trkpt lat="45.40067" lon="3.39922">
        <ele>513.6</ele>
        <time>2020-09-17T13:41:45Z</time>
      </trkpt>
      <trkpt lat="45.40067" lon="3.39921">
        <ele>513.5</ele>
        <time>2020-09-17T13:41:46Z</time>
      </trkpt>
      <trkpt lat="45.40067" lon="3.3992">
        <ele>513.4</ele>
        <time>2020-09-17T13:41:47Z</time>
      </trkpt>
      <trkpt lat="45.40068" lon="3.39919">
        <ele>513.4</ele>
        <time>2020-09-17T13:41:48Z</time>
      </trkpt>
      <trkpt lat="45.40068" lon="3.39918">
        <ele>513.3</ele>
        <time>2020-09-17T13:41:49Z</time>
      </trkpt>
      <trkpt lat="45.40068" lon="3.39917">
        <ele>513.3</ele>
        <time>2020-09-17T13:41:50Z</time>
      </trkpt>
      <trkpt lat="45.40068" lon="3.39916">
        <ele>513.4</ele>
        <time>2020-09-17T13:41:51Z</time>
      </trkpt>
      <trkpt lat="45.40067" lon="3.39915">
        <ele>513.7</ele>
        <time>2020-09-17T13:41:52Z</time>
      </trkpt>
      <trkpt lat="45.40067" lon="3.39914">
        <ele>514</ele>
        <time>2020-09-17T13:41:53Z</time>
      </trkpt>
      <trkpt lat="45.40067" lon="3.39912">
        <ele>514.3</ele>
        <time>2020-09-17T13:41:54Z</time>
      </trkpt>
      <trkpt lat="45.40067" lon="3.39911">
        <ele>514.6</ele>
        <time>2020-09-17T13:41:55Z</time>
      </trkpt>
      <trkpt lat="45.40067" lon="3.3991">
        <ele>514.9</ele>
        <time>2020-09-17T13:41:56Z</time>
      </trkpt>
      <trkpt lat="45.40067" lon="3.39908">
        <ele>515.1</ele>
        <time>2020-09-17T13:41:57Z</time>
      </trkpt>
      <trkpt lat="45.40068" lon="3.39907">
        <ele>515.1</ele>
        <time>2020-09-17T13:41:58Z</time>
      </trkpt>
      <trkpt lat="45.40069" lon="3.39906">
        <ele>515.1</ele>
        <time>2020-09-17T13:41:59Z</time>
      </trkpt>
      <trkpt lat="45.4007" lon="3.39906">
        <ele>515</ele>
        <time>2020-09-17T13:42:00Z</time>
      </trkpt>
      <trkpt lat="45.40071" lon="3.39905">
        <ele>514.9</ele>
        <time>2020-09-17T13:42:01Z</time>
      </trkpt>
      <trkpt lat="45.40071" lon="3.39904">
        <ele>514.8</ele>
        <time>2020-09-17T13:42:02Z</time>
      </trkpt>
      <trkpt lat="45.40072" lon="3.39903">
        <ele>514.6</ele>
        <time>2020-09-17T13:42:03Z</time>
      </trkpt>
      <trkpt lat="45.40073" lon="3.39903">
        <ele>514.4</ele>
        <time>2020-09-17T13:42:04Z</time>
      </trkpt>
      <trkpt lat="45.40074" lon="3.39903">
        <ele>514.2</ele>
        <time>2020-09-17T13:42:05Z</time>
      </trkpt>
      <trkpt lat="45.40075" lon="3.39902">
        <ele>514.1</ele>
        <time>2020-09-17T13:42:06Z</time>
      </trkpt>
      <trkpt lat="45.40076" lon="3.39901">
        <ele>513.9</ele>
        <time>2020-09-17T13:42:07Z</time>
      </trkpt>
      <trkpt lat="45.40077" lon="3.39901">
        <ele>513.5</ele>
        <time>2020-09-17T13:42:08Z</time>
      </trkpt>
      <trkpt lat="45.40078" lon="3.39901">
        <ele>513.2</ele>
        <time>2020-09-17T13:42:09Z</time>
      </trkpt>
      <trkpt lat="45.40079" lon="3.399">
        <ele>512.9</ele>
        <time>2020-09-17T13:42:10Z</time>
      </trkpt>
      <trkpt lat="45.4008" lon="3.39899">
        <ele>512.6</ele>
        <time>2020-09-17T13:42:11Z</time>
      </trkpt>
      <trkpt lat="45.40081" lon="3.39898">
        <ele>512.3</ele>
        <time>2020-09-17T13:42:12Z</time>
      </trkpt>
      <trkpt lat="45.40082" lon="3.39897">
        <ele>512.2</ele>
        <time>2020-09-17T13:42:13Z</time>
      </trkpt>
      <trkpt lat="45.40083" lon="3.39896">
        <ele>511.9</ele>
        <time>2020-09-17T13:42:14Z</time>
      </trkpt>
      <trkpt lat="45.40084" lon="3.39895">
        <ele>511.8</ele>
        <time>2020-09-17T13:42:15Z</time>
      </trkpt>
      <trkpt lat="45.40084" lon="3.39894">
        <ele>512</ele>
        <time>2020-09-17T13:42:16Z</time>
      </trkpt>
      <trkpt lat="45.40084" lon="3.39893">
        <ele>512.2</ele>
        <time>2020-09-17T13:42:17Z</time>
      </trkpt>
      <trkpt lat="45.40085" lon="3.39891">
        <ele>512.4</ele>
        <time>2020-09-17T13:42:18Z</time>
      </trkpt>
      <trkpt lat="45.40085" lon="3.39889">
        <ele>512.5</ele>
        <time>2020-09-17T13:42:19Z</time>
      </trkpt>
      <trkpt lat="45.40085" lon="3.39888">
        <ele>512.5</ele>
        <time>2020-09-17T13:42:20Z</time>
      </trkpt>
      <trkpt lat="45.40085" lon="3.39886">
        <ele>512.5</ele>
        <time>2020-09-17T13:42:21Z</time>
      </trkpt>
      <trkpt lat="45.40085" lon="3.39885">
        <ele>512.4</ele>
        <time>2020-09-17T13:42:22Z</time>
      </trkpt>
      <trkpt lat="45.40085" lon="3.39883">
        <ele>512.4</ele>
        <time>2020-09-17T13:42:23Z</time>
      </trkpt>
      <trkpt lat="45.40085" lon="3.39882">
        <ele>512.4</ele>
        <time>2020-09-17T13:42:24Z</time>
      </trkpt>
      <trkpt lat="45.40085" lon="3.3988">
        <ele>512.3</ele>
        <time>2020-09-17T13:42:25Z</time>
      </trkpt>
      <trkpt lat="45.40085" lon="3.39879">
        <ele>512.3</ele>
        <time>2020-09-17T13:42:26Z</time>
      </trkpt>
      <trkpt lat="45.40084" lon="3.39877">
        <ele>512.2</ele>
        <time>2020-09-17T13:42:27Z</time>
      </trkpt>
      <trkpt lat="45.40084" lon="3.39876">
        <ele>512.2</ele>
        <time>2020-09-17T13:42:28Z</time>
      </trkpt>
      <trkpt lat="45.40084" lon="3.39874">
        <ele>512.2</ele>
        <time>2020-09-17T13:42:29Z</time>
      </trkpt>
      <trkpt lat="45.40084" lon="3.39872">
        <ele>512.1</ele>
        <time>2020-09-17T13:42:30Z</time>
      </trkpt>
      <trkpt lat="45.40084" lon="3.39871">
        <ele>512.1</ele>
        <time>2020-09-17T13:42:31Z</time>
      </trkpt>
      <trkpt lat="45.40084" lon="3.39869">
        <ele>512.1</ele>
        <time>2020-09-17T13:42:32Z</time>
      </trkpt>
      <trkpt lat="45.40084" lon="3.39868">
        <ele>512</ele>
        <time>2020-09-17T13:42:33Z</time>
      </trkpt>
      <trkpt lat="45.40083" lon="3.39866">
        <ele>512</ele>
        <time>2020-09-17T13:42:34Z</time>
      </trkpt>
      <trkpt lat="45.40083" lon="3.39864">
        <ele>512.1</ele>
        <time>2020-09-17T13:42:35Z</time>
      </trkpt>
      <trkpt lat="45.40083" lon="3.39863">
        <ele>512.3</ele>
        <time>2020-09-17T13:42:36Z</time>
      </trkpt>
      <trkpt lat="45.40082" lon="3.39861">
        <ele>512.5</ele>
        <time>2020-09-17T13:42:37Z</time>
      </trkpt>
      <trkpt lat="45.40081" lon="3.3986">
        <ele>512.6</ele>
        <time>2020-09-17T13:42:38Z</time>
      </trkpt>
      <trkpt lat="45.40081" lon="3.39859">
        <ele>512.7</ele>
        <time>2020-09-17T13:42:39Z</time>
      </trkpt>
      <trkpt lat="45.4008" lon="3.39857">
        <ele>512.8</ele>
        <time>2020-09-17T13:42:40Z</time>
      </trkpt>
      <trkpt lat="45.4008" lon="3.39856">
        <ele>512.9</ele>
        <time>2020-09-17T13:42:41Z</time>
      </trkpt>
      <trkpt lat="45.40079" lon="3.39855">
        <ele>513</ele>
        <time>2020-09-17T13:42:42Z</time>
      </trkpt>
      <trkpt lat="45.40078" lon="3.39854">
        <ele>513.1</ele>
        <time>2020-09-17T13:42:43Z</time>
      </trkpt>
      <trkpt lat="45.40078" lon="3.39854">
        <ele>513.1</ele>
        <time>2020-09-17T13:42:44Z</time>
      </trkpt>
      <trkpt lat="45.40078" lon="3.39853">
        <ele>513.1</ele>
        <time>2020-09-17T13:42:45Z</time>
      </trkpt>
      <trkpt lat="45.40078" lon="3.39852">
        <ele>513</ele>
        <time>2020-09-17T13:42:46Z</time>
      </trkpt>
      <trkpt lat="45.40078" lon="3.39851">
        <ele>513</ele>
        <time>2020-09-17T13:42:47Z</time>
      </trkpt>
      <trkpt lat="45.40078" lon="3.3985">
        <ele>512.9</ele>
        <time>2020-09-17T13:42:48Z</time>
      </trkpt>
      <trkpt lat="45.40077" lon="3.39849">
        <ele>512.9</ele>
        <time>2020-09-17T13:42:49Z</time>
      </trkpt>
      <trkpt lat="45.40077" lon="3.39849">
        <ele>512.8</ele>
        <time>2020-09-17T13:42:50Z</time>
      </trkpt>
      <trkpt lat="45.40077" lon="3.39848">
        <ele>512.8</ele>
        <time>2020-09-17T13:42:51Z</time>
      </trkpt>
      <trkpt lat="45.40077" lon="3.39848">
        <ele>512.7</ele>
        <time>2020-09-17T13:42:52Z</time>
      </trkpt>
      <trkpt lat="45.40077" lon="3.39848">
        <ele>512.7</ele>
        <time>2020-09-17T13:42:53Z</time>
      </trkpt>
      <trkpt lat="45.40077" lon="3.39848">
        <ele>512.7</ele>
        <time>2020-09-17T13:42:54Z</time>
      </trkpt>
      <trkpt lat="45.40077" lon="3.39848">
        <ele>512.7</ele>
        <time>2020-09-17T13:42:55Z</time>
      </trkpt>
      <trkpt lat="45.40077" lon="3.39848">
        <ele>512.7</ele>
        <time>2020-09-17T13:42:56Z</time>
      </trkpt>
      <trkpt lat="45.40077" lon="3.39848">
        <ele>512.7</ele>
        <time>2020-09-17T13:42:57Z</time>
      </trkpt>
      <trkpt lat="45.40077" lon="3.39847">
        <ele>512.7</ele>
        <time>2020-09-17T13:42:58Z</time>
      </trkpt>
      <trkpt lat="45.40078" lon="3.39847">
        <ele>512.7</ele>
        <time>2020-09-17T13:42:59Z</time>
      </trkpt>
      <trkpt lat="45.40078" lon="3.39847">
        <ele>512.7</ele>
        <time>2020-09-17T13:43:00Z</time>
      </trkpt>
      <trkpt lat="45.40078" lon="3.39847">
        <ele>512.7</ele>
        <time>2020-09-17T13:43:01Z</time>
      </trkpt>
      <trkpt lat="45.40078" lon="3.39847">
        <ele>512.7</ele>
        <time>2020-09-17T13:43:02Z</time>
      </trkpt>
      <trkpt lat="45.40078" lon="3.39847">
        <ele>512.7</ele>
        <time>2020-09-17T13:43:03Z</time>
      </trkpt>
      <trkpt lat="45.40078" lon="3.39847">
        <ele>512.7</ele>
        <time>2020-09-17T13:43:04Z</time>
      </trkpt>
      <trkpt lat="45.40078" lon="3.39847">
        <ele>512.7</ele>
        <time>2020-09-17T13:43:05Z</time>
      </trkpt>
      <trkpt lat="45.40078" lon="3.39847">
        <ele>512.7</ele>
        <time>2020-09-17T13:43:06Z</time>
      </trkpt>
      <trkpt lat="45.40078" lon="3.39847">
        <ele>512.7</ele>
        <time>2020-09-17T13:43:07Z</time>
      </trkpt>
      <trkpt lat="45.40078" lon="3.39847">
        <ele>512.7</ele>
        <time>2020-09-17T13:43:08Z</time>
      </trkpt>
      <trkpt lat="45.40078" lon="3.39847">
        <ele>512.7</ele>
        <time>2020-09-17T13:43:09Z</time>
      </trkpt>
      <trkpt lat="45.40078" lon="3.39847">
        <ele>512.7</ele>
        <time>2020-09-17T13:43:10Z</time>
      </trkpt>
      <trkpt lat="45.40078" lon="3.39847">
        <ele>512.7</ele>
        <time>2020-09-17T13:43:11Z</time>
      </trkpt>
      <trkpt lat="45.40078" lon="3.39847">
        <ele>512.7</ele>
        <time>2020-09-17T13:43:12Z</time>
      </trkpt>
      <trkpt lat="45.40078" lon="3.39847">
        <ele>512.7</ele>
        <time>2020-09-17T13:43:13Z</time>
      </trkpt>
      <trkpt lat="45.40078" lon="3.39847">
        <ele>512.7</ele>
        <time>2020-09-17T13:43:14Z</time>
      </trkpt>
      <trkpt lat="45.40078" lon="3.39847">
        <ele>512.7</ele>
        <time>2020-09-17T13:43:15Z</time>
      </trkpt>
      <trkpt lat="45.40078" lon="3.39847">
        <ele>512.7</ele>
        <time>2020-09-17T13:43:16Z</time>
      </trkpt>
      <trkpt lat="45.40078" lon="3.39847">
        <ele>512.7</ele>
        <time>2020-09-17T13:43:17Z</time>
      </trkpt>
      <trkpt lat="45.40078" lon="3.39847">
        <ele>512.7</ele>
        <time>2020-09-17T13:43:18Z</time>
      </trkpt>
      <trkpt lat="45.40078" lon="3.39847">
        <ele>512.6</ele>
        <time>2020-09-17T13:43:19Z</time>
      </trkpt>
      <trkpt lat="45.40078" lon="3.39847">
        <ele>512.6</ele>
        <time>2020-09-17T13:43:20Z</time>
      </trkpt>
      <trkpt lat="45.40077" lon="3.39847">
        <ele>512.7</ele>
        <time>2020-09-17T13:43:21Z</time>
      </trkpt>
      <trkpt lat="45.40077" lon="3.39847">
        <ele>512.7</ele>
        <time>2020-09-17T13:43:22Z</time>
      </trkpt>
      <trkpt lat="45.40077" lon="3.39847">
        <ele>512.7</ele>
        <time>2020-09-17T13:43:23Z</time>
      </trkpt>
      <trkpt lat="45.40077" lon="3.39846">
        <ele>512.7</ele>
        <time>2020-09-17T13:43:24Z</time>
      </trkpt>
      <trkpt lat="45.40076" lon="3.39846">
        <ele>512.8</ele>
        <time>2020-09-17T13:43:25Z</time>
      </trkpt>
      <trkpt lat="45.40076" lon="3.39846">
        <ele>512.8</ele>
        <time>2020-09-17T13:43:26Z</time>
      </trkpt>
      <trkpt lat="45.40075" lon="3.39846">
        <ele>512.9</ele>
        <time>2020-09-17T13:43:27Z</time>
      </trkpt>
      <trkpt lat="45.40075" lon="3.39846">
        <ele>513</ele>
        <time>2020-09-17T13:43:28Z</time>
      </trkpt>
      <trkpt lat="45.40075" lon="3.39846">
        <ele>513</ele>
        <time>2020-09-17T13:43:29Z</time>
      </trkpt>
      <trkpt lat="45.40075" lon="3.39846">
        <ele>513.1</ele>
        <time>2020-09-17T13:43:30Z</time>
      </trkpt>
      <trkpt lat="45.40074" lon="3.39846">
        <ele>513.2</ele>
        <time>2020-09-17T13:43:31Z</time>
      </trkpt>
      <trkpt lat="45.40074" lon="3.39846">
        <ele>513.2</ele>
        <time>2020-09-17T13:43:32Z</time>
      </trkpt>
      <trkpt lat="45.40074" lon="3.39846">
        <ele>513.2</ele>
        <time>2020-09-17T13:43:33Z</time>
      </trkpt>
      <trkpt lat="45.40074" lon="3.39846">
        <ele>513.2</ele>
        <time>2020-09-17T13:43:34Z</time>
      </trkpt>
      <trkpt lat="45.40074" lon="3.39846">
        <ele>513.2</ele>
        <time>2020-09-17T13:43:35Z</time>
      </trkpt>
      <trkpt lat="45.40074" lon="3.39846">
        <ele>513.3</ele>
        <time>2020-09-17T13:43:36Z</time>
      </trkpt>
      <trkpt lat="45.40074" lon="3.39846">
        <ele>513.3</ele>
        <time>2020-09-17T13:43:37Z</time>
      </trkpt>
      <trkpt lat="45.40073" lon="3.39847">
        <ele>513.5</ele>
        <time>2020-09-17T13:43:38Z</time>
      </trkpt>
      <trkpt lat="45.40073" lon="3.39847">
        <ele>513.6</ele>
        <time>2020-09-17T13:43:39Z</time>
      </trkpt>
      <trkpt lat="45.40072" lon="3.39847">
        <ele>513.6</ele>
        <time>2020-09-17T13:43:40Z</time>
      </trkpt>
      <trkpt lat="45.40072" lon="3.39847">
        <ele>513.8</ele>
        <time>2020-09-17T13:43:41Z</time>
      </trkpt>
      <trkpt lat="45.40071" lon="3.39848">
        <ele>514</ele>
        <time>2020-09-17T13:43:42Z</time>
      </trkpt>
      <trkpt lat="45.40071" lon="3.39848">
        <ele>514.2</ele>
        <time>2020-09-17T13:43:43Z</time>
      </trkpt>
      <trkpt lat="45.4007" lon="3.39848">
        <ele>514.3</ele>
        <time>2020-09-17T13:43:44Z</time>
      </trkpt>
      <trkpt lat="45.4007" lon="3.39848">
        <ele>514.4</ele>
        <time>2020-09-17T13:43:45Z</time>
      </trkpt>
      <trkpt lat="45.40069" lon="3.39849">
        <ele>514.5</ele>
        <time>2020-09-17T13:43:46Z</time>
      </trkpt>
      <trkpt lat="45.40069" lon="3.3985">
        <ele>514.8</ele>
        <time>2020-09-17T13:43:47Z</time>
      </trkpt>
      <trkpt lat="45.40069" lon="3.3985">
        <ele>514.9</ele>
        <time>2020-09-17T13:43:48Z</time>
      </trkpt>
      <trkpt lat="45.40068" lon="3.3985">
        <ele>514.9</ele>
        <time>2020-09-17T13:43:49Z</time>
      </trkpt>
      <trkpt lat="45.40068" lon="3.3985">
        <ele>515</ele>
        <time>2020-09-17T13:43:50Z</time>
      </trkpt>
      <trkpt lat="45.40068" lon="3.3985">
        <ele>515</ele>
        <time>2020-09-17T13:43:51Z</time>
      </trkpt>
      <trkpt lat="45.40068" lon="3.3985">
        <ele>515</ele>
        <time>2020-09-17T13:43:52Z</time>
      </trkpt>
      <trkpt lat="45.40068" lon="3.3985">
        <ele>515.1</ele>
        <time>2020-09-17T13:43:53Z</time>
      </trkpt>
      <trkpt lat="45.40067" lon="3.3985">
        <ele>515.3</ele>
        <time>2020-09-17T13:43:54Z</time>
      </trkpt>
      <trkpt lat="45.40066" lon="3.3985">
        <ele>515.4</ele>
        <time>2020-09-17T13:43:55Z</time>
      </trkpt>
      <trkpt lat="45.40066" lon="3.3985">
        <ele>515.5</ele>
        <time>2020-09-17T13:43:56Z</time>
      </trkpt>
      <trkpt lat="45.40065" lon="3.3985">
        <ele>515.7</ele>
        <time>2020-09-17T13:43:57Z</time>
      </trkpt>
      <trkpt lat="45.40065" lon="3.39851">
        <ele>515.9</ele>
        <time>2020-09-17T13:43:58Z</time>
      </trkpt>
      <trkpt lat="45.40064" lon="3.39851">
        <ele>516.1</ele>
        <time>2020-09-17T13:43:59Z</time>
      </trkpt>
      <trkpt lat="45.40064" lon="3.39851">
        <ele>516.2</ele>
        <time>2020-09-17T13:44:00Z</time>
      </trkpt>
      <trkpt lat="45.40063" lon="3.39851">
        <ele>516.2</ele>
        <time>2020-09-17T13:44:01Z</time>
      </trkpt>
      <trkpt lat="45.40063" lon="3.39851">
        <ele>516.4</ele>
        <time>2020-09-17T13:44:02Z</time>
      </trkpt>
      <trkpt lat="45.40062" lon="3.39851">
        <ele>516.5</ele>
        <time>2020-09-17T13:44:03Z</time>
      </trkpt>
      <trkpt lat="45.40062" lon="3.39851">
        <ele>516.7</ele>
        <time>2020-09-17T13:44:04Z</time>
      </trkpt>
      <trkpt lat="45.40061" lon="3.39851">
        <ele>516.8</ele>
        <time>2020-09-17T13:44:05Z</time>
      </trkpt>
      <trkpt lat="45.4006" lon="3.39851">
        <ele>517</ele>
        <time>2020-09-17T13:44:06Z</time>
      </trkpt>
      <trkpt lat="45.4006" lon="3.39851">
        <ele>517.2</ele>
        <time>2020-09-17T13:44:07Z</time>
      </trkpt>
      <trkpt lat="45.40059" lon="3.39851">
        <ele>517.3</ele>
        <time>2020-09-17T13:44:08Z</time>
      </trkpt>
      <trkpt lat="45.40059" lon="3.39851">
        <ele>517.4</ele>
        <time>2020-09-17T13:44:09Z</time>
      </trkpt>
      <trkpt lat="45.40058" lon="3.39851">
        <ele>517.5</ele>
        <time>2020-09-17T13:44:10Z</time>
      </trkpt>
      <trkpt lat="45.40058" lon="3.39852">
        <ele>517.7</ele>
        <time>2020-09-17T13:44:11Z</time>
      </trkpt>
      <trkpt lat="45.40057" lon="3.39852">
        <ele>517.9</ele>
        <time>2020-09-17T13:44:12Z</time>
      </trkpt>
      <trkpt lat="45.40057" lon="3.39852">
        <ele>518.1</ele>
        <time>2020-09-17T13:44:13Z</time>
      </trkpt>
      <trkpt lat="45.40056" lon="3.39852">
        <ele>518.3</ele>
        <time>2020-09-17T13:44:14Z</time>
      </trkpt>
      <trkpt lat="45.40055" lon="3.39852">
        <ele>518.4</ele>
        <time>2020-09-17T13:44:15Z</time>
      </trkpt>
      <trkpt lat="45.40055" lon="3.39852">
        <ele>518.6</ele>
        <time>2020-09-17T13:44:16Z</time>
      </trkpt>
      <trkpt lat="45.40054" lon="3.39853">
        <ele>518.8</ele>
        <time>2020-09-17T13:44:17Z</time>
      </trkpt>
      <trkpt lat="45.40053" lon="3.39853">
        <ele>519</ele>
        <time>2020-09-17T13:44:18Z</time>
      </trkpt>
      <trkpt lat="45.40053" lon="3.39853">
        <ele>519.2</ele>
        <time>2020-09-17T13:44:19Z</time>
      </trkpt>
      <trkpt lat="45.40052" lon="3.39853">
        <ele>519.2</ele>
        <time>2020-09-17T13:44:20Z</time>
      </trkpt>
      <trkpt lat="45.40051" lon="3.39853">
        <ele>519.3</ele>
        <time>2020-09-17T13:44:21Z</time>
      </trkpt>
      <trkpt lat="45.40051" lon="3.39854">
        <ele>519.4</ele>
        <time>2020-09-17T13:44:22Z</time>
      </trkpt>
      <trkpt lat="45.4005" lon="3.39854">
        <ele>519.6</ele>
        <time>2020-09-17T13:44:23Z</time>
      </trkpt>
      <trkpt lat="45.40049" lon="3.39854">
        <ele>519.7</ele>
        <time>2020-09-17T13:44:24Z</time>
      </trkpt>
      <trkpt lat="45.40049" lon="3.39854">
        <ele>519.9</ele>
        <time>2020-09-17T13:44:25Z</time>
      </trkpt>
      <trkpt lat="45.40048" lon="3.39854">
        <ele>520</ele>
        <time>2020-09-17T13:44:26Z</time>
      </trkpt>
      <trkpt lat="45.40048" lon="3.39855">
        <ele>520.2</ele>
        <time>2020-09-17T13:44:27Z</time>
      </trkpt>
      <trkpt lat="45.40047" lon="3.39855">
        <ele>520.2</ele>
        <time>2020-09-17T13:44:28Z</time>
      </trkpt>
      <trkpt lat="45.40047" lon="3.39855">
        <ele>520.2</ele>
        <time>2020-09-17T13:44:29Z</time>
      </trkpt>
      <trkpt lat="45.40047" lon="3.39855">
        <ele>520.3</ele>
        <time>2020-09-17T13:44:30Z</time>
      </trkpt>
      <trkpt lat="45.40047" lon="3.39855">
        <ele>520.5</ele>
        <time>2020-09-17T13:44:31Z</time>
      </trkpt>
      <trkpt lat="45.40046" lon="3.39855">
        <ele>520.6</ele>
        <time>2020-09-17T13:44:32Z</time>
      </trkpt>
      <trkpt lat="45.40046" lon="3.39855">
        <ele>520.7</ele>
        <time>2020-09-17T13:44:33Z</time>
      </trkpt>
      <trkpt lat="45.40045" lon="3.39856">
        <ele>520.9</ele>
        <time>2020-09-17T13:44:34Z</time>
      </trkpt>
      <trkpt lat="45.40045" lon="3.39856">
        <ele>521.1</ele>
        <time>2020-09-17T13:44:35Z</time>
      </trkpt>
      <trkpt lat="45.40044" lon="3.39856">
        <ele>521.3</ele>
        <time>2020-09-17T13:44:36Z</time>
      </trkpt>
      <trkpt lat="45.40044" lon="3.39857">
        <ele>521.5</ele>
        <time>2020-09-17T13:44:37Z</time>
      </trkpt>
      <trkpt lat="45.40043" lon="3.39857">
        <ele>521.7</ele>
        <time>2020-09-17T13:44:38Z</time>
      </trkpt>
      <trkpt lat="45.40043" lon="3.39857">
        <ele>521.8</ele>
        <time>2020-09-17T13:44:39Z</time>
      </trkpt>
      <trkpt lat="45.40042" lon="3.39857">
        <ele>522</ele>
        <time>2020-09-17T13:44:40Z</time>
      </trkpt>
      <trkpt lat="45.40041" lon="3.39858">
        <ele>522.2</ele>
        <time>2020-09-17T13:44:41Z</time>
      </trkpt>
      <trkpt lat="45.40041" lon="3.39858">
        <ele>522.3</ele>
        <time>2020-09-17T13:44:42Z</time>
      </trkpt>
      <trkpt lat="45.4004" lon="3.39858">
        <ele>522.4</ele>
        <time>2020-09-17T13:44:43Z</time>
      </trkpt>
      <trkpt lat="45.4004" lon="3.39858">
        <ele>522.5</ele>
        <time>2020-09-17T13:44:44Z</time>
      </trkpt>
      <trkpt lat="45.40039" lon="3.39858">
        <ele>522.6</ele>
        <time>2020-09-17T13:44:45Z</time>
      </trkpt>
      <trkpt lat="45.40038" lon="3.39858">
        <ele>522.7</ele>
        <time>2020-09-17T13:44:46Z</time>
      </trkpt>
      <trkpt lat="45.40038" lon="3.39858">
        <ele>522.8</ele>
        <time>2020-09-17T13:44:47Z</time>
      </trkpt>
      <trkpt lat="45.40037" lon="3.39858">
        <ele>522.9</ele>
        <time>2020-09-17T13:44:48Z</time>
      </trkpt>
      <trkpt lat="45.40037" lon="3.39858">
        <ele>523</ele>
        <time>2020-09-17T13:44:49Z</time>
      </trkpt>
      <trkpt lat="45.40036" lon="3.39858">
        <ele>523.2</ele>
        <time>2020-09-17T13:44:50Z</time>
      </trkpt>
      <trkpt lat="45.40036" lon="3.39858">
        <ele>523.3</ele>
        <time>2020-09-17T13:44:51Z</time>
      </trkpt>
      <trkpt lat="45.40035" lon="3.39858">
        <ele>523.4</ele>
        <time>2020-09-17T13:44:52Z</time>
      </trkpt>
      <trkpt lat="45.40035" lon="3.39858">
        <ele>523.5</ele>
        <time>2020-09-17T13:44:53Z</time>
      </trkpt>
      <trkpt lat="45.40035" lon="3.39859">
        <ele>523.7</ele>
        <time>2020-09-17T13:44:54Z</time>
      </trkpt>
      <trkpt lat="45.40034" lon="3.39859">
        <ele>523.9</ele>
        <time>2020-09-17T13:44:55Z</time>
      </trkpt>
      <trkpt lat="45.40033" lon="3.39859">
        <ele>524.1</ele>
        <time>2020-09-17T13:44:56Z</time>
      </trkpt>
      <trkpt lat="45.40033" lon="3.3986">
        <ele>524.4</ele>
        <time>2020-09-17T13:44:57Z</time>
      </trkpt>
      <trkpt lat="45.40032" lon="3.3986">
        <ele>524.7</ele>
        <time>2020-09-17T13:44:58Z</time>
      </trkpt>
      <trkpt lat="45.40031" lon="3.3986">
        <ele>524.9</ele>
        <time>2020-09-17T13:44:59Z</time>
      </trkpt>
      <trkpt lat="45.40031" lon="3.3986">
        <ele>525.1</ele>
        <time>2020-09-17T13:45:00Z</time>
      </trkpt>
      <trkpt lat="45.40031" lon="3.39861">
        <ele>525.2</ele>
        <time>2020-09-17T13:45:01Z</time>
      </trkpt>
      <trkpt lat="45.4003" lon="3.39861">
        <ele>525.4</ele>
        <time>2020-09-17T13:45:02Z</time>
      </trkpt>
      <trkpt lat="45.4003" lon="3.39861">
        <ele>525.6</ele>
        <time>2020-09-17T13:45:03Z</time>
      </trkpt>
      <trkpt lat="45.40029" lon="3.39861">
        <ele>525.8</ele>
        <time>2020-09-17T13:45:04Z</time>
      </trkpt>
      <trkpt lat="45.40028" lon="3.39862">
        <ele>526</ele>
        <time>2020-09-17T13:45:05Z</time>
      </trkpt>
      <trkpt lat="45.40028" lon="3.39862">
        <ele>526.1</ele>
        <time>2020-09-17T13:45:06Z</time>
      </trkpt>
      <trkpt lat="45.40028" lon="3.39862">
        <ele>526.2</ele>
        <time>2020-09-17T13:45:07Z</time>
      </trkpt>
      <trkpt lat="45.40027" lon="3.39862">
        <ele>526.3</ele>
        <time>2020-09-17T13:45:08Z</time>
      </trkpt>
      <trkpt lat="45.40027" lon="3.39862">
        <ele>526.5</ele>
        <time>2020-09-17T13:45:09Z</time>
      </trkpt>
      <trkpt lat="45.40026" lon="3.39862">
        <ele>526.7</ele>
        <time>2020-09-17T13:45:10Z</time>
      </trkpt>
      <trkpt lat="45.40026" lon="3.39863">
        <ele>527</ele>
        <time>2020-09-17T13:45:11Z</time>
      </trkpt>
      <trkpt lat="45.40025" lon="3.39863">
        <ele>527.2</ele>
        <time>2020-09-17T13:45:12Z</time>
      </trkpt>
      <trkpt lat="45.40025" lon="3.39863">
        <ele>527.5</ele>
        <time>2020-09-17T13:45:13Z</time>
      </trkpt>
      <trkpt lat="45.40024" lon="3.39863">
        <ele>527.6</ele>
        <time>2020-09-17T13:45:14Z</time>
      </trkpt>
      <trkpt lat="45.40024" lon="3.39864">
        <ele>527.8</ele>
        <time>2020-09-17T13:45:15Z</time>
      </trkpt>
      <trkpt lat="45.40023" lon="3.39864">
        <ele>528</ele>
        <time>2020-09-17T13:45:16Z</time>
      </trkpt>
      <trkpt lat="45.40022" lon="3.39864">
        <ele>528.2</ele>
        <time>2020-09-17T13:45:17Z</time>
      </trkpt>
      <trkpt lat="45.40022" lon="3.39864">
        <ele>528.4</ele>
        <time>2020-09-17T13:45:18Z</time>
      </trkpt>
      <trkpt lat="45.40021" lon="3.39864">
        <ele>528.5</ele>
        <time>2020-09-17T13:45:19Z</time>
      </trkpt>
      <trkpt lat="45.40021" lon="3.39864">
        <ele>528.7</ele>
        <time>2020-09-17T13:45:20Z</time>
      </trkpt>
      <trkpt lat="45.4002" lon="3.39864">
        <ele>528.8</ele>
        <time>2020-09-17T13:45:21Z</time>
      </trkpt>
      <trkpt lat="45.40019" lon="3.39864">
        <ele>529</ele>
        <time>2020-09-17T13:45:22Z</time>
      </trkpt>
      <trkpt lat="45.40019" lon="3.39864">
        <ele>529</ele>
        <time>2020-09-17T13:45:23Z</time>
      </trkpt>
      <trkpt lat="45.40018" lon="3.39864">
        <ele>529.3</ele>
        <time>2020-09-17T13:45:24Z</time>
      </trkpt>
      <trkpt lat="45.40018" lon="3.39864">
        <ele>529.4</ele>
        <time>2020-09-17T13:45:25Z</time>
      </trkpt>
      <trkpt lat="45.40017" lon="3.39864">
        <ele>529.6</ele>
        <time>2020-09-17T13:45:26Z</time>
      </trkpt>
      <trkpt lat="45.40016" lon="3.39865">
        <ele>529.8</ele>
        <time>2020-09-17T13:45:27Z</time>
      </trkpt>
      <trkpt lat="45.40016" lon="3.39864">
        <ele>529.9</ele>
        <time>2020-09-17T13:45:28Z</time>
      </trkpt>
      <trkpt lat="45.40015" lon="3.39864">
        <ele>530.1</ele>
        <time>2020-09-17T13:45:29Z</time>
      </trkpt>
      <trkpt lat="45.40014" lon="3.39864">
        <ele>530.2</ele>
        <time>2020-09-17T13:45:30Z</time>
      </trkpt>
      <trkpt lat="45.40014" lon="3.39864">
        <ele>530.4</ele>
        <time>2020-09-17T13:45:31Z</time>
      </trkpt>
      <trkpt lat="45.40013" lon="3.39864">
        <ele>530.5</ele>
        <time>2020-09-17T13:45:32Z</time>
      </trkpt>
      <trkpt lat="45.40013" lon="3.39864">
        <ele>530.6</ele>
        <time>2020-09-17T13:45:33Z</time>
      </trkpt>
      <trkpt lat="45.40012" lon="3.39864">
        <ele>530.7</ele>
        <time>2020-09-17T13:45:34Z</time>
      </trkpt>
      <trkpt lat="45.40012" lon="3.39865">
        <ele>530.9</ele>
        <time>2020-09-17T13:45:35Z</time>
      </trkpt>
      <trkpt lat="45.40011" lon="3.39865">
        <ele>531.2</ele>
        <time>2020-09-17T13:45:36Z</time>
      </trkpt>
      <trkpt lat="45.4001" lon="3.39865">
        <ele>531.5</ele>
        <time>2020-09-17T13:45:37Z</time>
      </trkpt>
      <trkpt lat="45.4001" lon="3.39866">
        <ele>531.7</ele>
        <time>2020-09-17T13:45:38Z</time>
      </trkpt>
      <trkpt lat="45.40009" lon="3.39866">
        <ele>532</ele>
        <time>2020-09-17T13:45:39Z</time>
      </trkpt>
      <trkpt lat="45.40009" lon="3.39867">
        <ele>532.5</ele>
        <time>2020-09-17T13:45:40Z</time>
      </trkpt>
      <trkpt lat="45.40009" lon="3.39868">
        <ele>532.7</ele>
        <time>2020-09-17T13:45:41Z</time>
      </trkpt>
      <trkpt lat="45.40009" lon="3.39869">
        <ele>533</ele>
        <time>2020-09-17T13:45:42Z</time>
      </trkpt>
      <trkpt lat="45.4001" lon="3.39869">
        <ele>533.2</ele>
        <time>2020-09-17T13:45:43Z</time>
      </trkpt>
      <trkpt lat="45.4001" lon="3.39869">
        <ele>533.2</ele>
        <time>2020-09-17T13:45:44Z</time>
      </trkpt>
      <trkpt lat="45.4001" lon="3.39869">
        <ele>533.3</ele>
        <time>2020-09-17T13:45:45Z</time>
      </trkpt>
      <trkpt lat="45.4001" lon="3.3987">
        <ele>533.3</ele>
        <time>2020-09-17T13:45:46Z</time>
      </trkpt>
      <trkpt lat="45.40011" lon="3.3987">
        <ele>533.3</ele>
        <time>2020-09-17T13:45:47Z</time>
      </trkpt>
      <trkpt lat="45.40011" lon="3.3987">
        <ele>533.2</ele>
        <time>2020-09-17T13:45:48Z</time>
      </trkpt>
      <trkpt lat="45.40012" lon="3.39871">
        <ele>533.2</ele>
        <time>2020-09-17T13:45:49Z</time>
      </trkpt>
      <trkpt lat="45.40013" lon="3.39871">
        <ele>533.1</ele>
        <time>2020-09-17T13:45:50Z</time>
      </trkpt>
      <trkpt lat="45.40014" lon="3.39871">
        <ele>532.9</ele>
        <time>2020-09-17T13:45:51Z</time>
      </trkpt>
      <trkpt lat="45.40014" lon="3.39871">
        <ele>532.8</ele>
        <time>2020-09-17T13:45:52Z</time>
      </trkpt>
      <trkpt lat="45.40015" lon="3.39871">
        <ele>532.8</ele>
        <time>2020-09-17T13:45:53Z</time>
      </trkpt>
      <trkpt lat="45.40016" lon="3.39872">
        <ele>532.8</ele>
        <time>2020-09-17T13:45:54Z</time>
      </trkpt>
      <trkpt lat="45.40016" lon="3.39872">
        <ele>532.8</ele>
        <time>2020-09-17T13:45:55Z</time>
      </trkpt>
      <trkpt lat="45.40017" lon="3.39872">
        <ele>532.6</ele>
        <time>2020-09-17T13:45:56Z</time>
      </trkpt>
      <trkpt lat="45.40018" lon="3.39872">
        <ele>532.6</ele>
        <time>2020-09-17T13:45:57Z</time>
      </trkpt>
      <trkpt lat="45.40018" lon="3.39873">
        <ele>532.6</ele>
        <time>2020-09-17T13:45:58Z</time>
      </trkpt>
      <trkpt lat="45.40019" lon="3.39873">
        <ele>532.6</ele>
        <time>2020-09-17T13:45:59Z</time>
      </trkpt>
      <trkpt lat="45.4002" lon="3.39874">
        <ele>532.7</ele>
        <time>2020-09-17T13:46:00Z</time>
      </trkpt>
      <trkpt lat="45.4002" lon="3.39874">
        <ele>532.7</ele>
        <time>2020-09-17T13:46:01Z</time>
      </trkpt>
      <trkpt lat="45.40021" lon="3.39875">
        <ele>532.8</ele>
        <time>2020-09-17T13:46:02Z</time>
      </trkpt>
      <trkpt lat="45.40021" lon="3.39876">
        <ele>532.9</ele>
        <time>2020-09-17T13:46:03Z</time>
      </trkpt>
      <trkpt lat="45.40022" lon="3.39876">
        <ele>532.9</ele>
        <time>2020-09-17T13:46:04Z</time>
      </trkpt>
      <trkpt lat="45.40022" lon="3.39877">
        <ele>533</ele>
        <time>2020-09-17T13:46:05Z</time>
      </trkpt>
      <trkpt lat="45.40023" lon="3.39877">
        <ele>533.2</ele>
        <time>2020-09-17T13:46:06Z</time>
      </trkpt>
      <trkpt lat="45.40023" lon="3.39878">
        <ele>533.4</ele>
        <time>2020-09-17T13:46:07Z</time>
      </trkpt>
      <trkpt lat="45.40023" lon="3.39879">
        <ele>533.5</ele>
        <time>2020-09-17T13:46:08Z</time>
      </trkpt>
      <trkpt lat="45.40024" lon="3.3988">
        <ele>533.7</ele>
        <time>2020-09-17T13:46:09Z</time>
      </trkpt>
      <trkpt lat="45.40024" lon="3.3988">
        <ele>533.8</ele>
        <time>2020-09-17T13:46:10Z</time>
      </trkpt>
      <trkpt lat="45.40025" lon="3.39881">
        <ele>533.9</ele>
        <time>2020-09-17T13:46:11Z</time>
      </trkpt>
      <trkpt lat="45.40025" lon="3.39882">
        <ele>534.2</ele>
        <time>2020-09-17T13:46:12Z</time>
      </trkpt>
      <trkpt lat="45.40025" lon="3.39883">
        <ele>534.4</ele>
        <time>2020-09-17T13:46:13Z</time>
      </trkpt>
      <trkpt lat="45.40026" lon="3.39883">
        <ele>534.5</ele>
        <time>2020-09-17T13:46:14Z</time>
      </trkpt>
      <trkpt lat="45.40026" lon="3.39883">
        <ele>534.6</ele>
        <time>2020-09-17T13:46:15Z</time>
      </trkpt>
      <trkpt lat="45.40026" lon="3.39884">
        <ele>534.9</ele>
        <time>2020-09-17T13:46:16Z</time>
      </trkpt>
      <trkpt lat="45.40026" lon="3.39885">
        <ele>535.1</ele>
        <time>2020-09-17T13:46:17Z</time>
      </trkpt>
      <trkpt lat="45.40026" lon="3.39885">
        <ele>535.3</ele>
        <time>2020-09-17T13:46:18Z</time>
      </trkpt>
      <trkpt lat="45.40026" lon="3.39886">
        <ele>535.6</ele>
        <time>2020-09-17T13:46:19Z</time>
      </trkpt>
      <trkpt lat="45.40026" lon="3.39887">
        <ele>535.9</ele>
        <time>2020-09-17T13:46:20Z</time>
      </trkpt>
      <trkpt lat="45.40026" lon="3.39888">
        <ele>536.1</ele>
        <time>2020-09-17T13:46:21Z</time>
      </trkpt>
      <trkpt lat="45.40025" lon="3.39888">
        <ele>536.4</ele>
        <time>2020-09-17T13:46:22Z</time>
      </trkpt>
      <trkpt lat="45.40025" lon="3.39888">
        <ele>536.5</ele>
        <time>2020-09-17T13:46:23Z</time>
      </trkpt>
      <trkpt lat="45.40025" lon="3.39888">
        <ele>536.6</ele>
        <time>2020-09-17T13:46:24Z</time>
      </trkpt>
      <trkpt lat="45.40024" lon="3.39888">
        <ele>536.7</ele>
        <time>2020-09-17T13:46:25Z</time>
      </trkpt>
      <trkpt lat="45.40024" lon="3.39889">
        <ele>536.9</ele>
        <time>2020-09-17T13:46:26Z</time>
      </trkpt>
      <trkpt lat="45.40024" lon="3.39889">
        <ele>537</ele>
        <time>2020-09-17T13:46:27Z</time>
      </trkpt>
      <trkpt lat="45.40023" lon="3.39889">
        <ele>537.1</ele>
        <time>2020-09-17T13:46:28Z</time>
      </trkpt>
      <trkpt lat="45.40023" lon="3.39889">
        <ele>537.3</ele>
        <time>2020-09-17T13:46:29Z</time>
      </trkpt>
      <trkpt lat="45.40023" lon="3.39889">
        <ele>537.4</ele>
        <time>2020-09-17T13:46:30Z</time>
      </trkpt>
      <trkpt lat="45.40023" lon="3.39889">
        <ele>537.5</ele>
        <time>2020-09-17T13:46:31Z</time>
      </trkpt>
      <trkpt lat="45.40022" lon="3.3989">
        <ele>537.6</ele>
        <time>2020-09-17T13:46:32Z</time>
      </trkpt>
      <trkpt lat="45.40022" lon="3.3989">
        <ele>537.7</ele>
        <time>2020-09-17T13:46:33Z</time>
      </trkpt>
      <trkpt lat="45.40022" lon="3.3989">
        <ele>537.7</ele>
        <time>2020-09-17T13:46:34Z</time>
      </trkpt>
      <trkpt lat="45.40022" lon="3.39891">
        <ele>537.8</ele>
        <time>2020-09-17T13:46:35Z</time>
      </trkpt>
      <trkpt lat="45.40021" lon="3.39891">
        <ele>537.8</ele>
        <time>2020-09-17T13:46:36Z</time>
      </trkpt>
      <trkpt lat="45.40021" lon="3.39891">
        <ele>537.9</ele>
        <time>2020-09-17T13:46:37Z</time>
      </trkpt>
      <trkpt lat="45.40021" lon="3.39891">
        <ele>538</ele>
        <time>2020-09-17T13:46:38Z</time>
      </trkpt>
      <trkpt lat="45.40021" lon="3.39891">
        <ele>538.1</ele>
        <time>2020-09-17T13:46:39Z</time>
      </trkpt>
      <trkpt lat="45.4002" lon="3.39891">
        <ele>538.2</ele>
        <time>2020-09-17T13:46:40Z</time>
      </trkpt>
      <trkpt lat="45.4002" lon="3.39891">
        <ele>538.3</ele>
        <time>2020-09-17T13:46:41Z</time>
      </trkpt>
      <trkpt lat="45.4002" lon="3.39891">
        <ele>538.4</ele>
        <time>2020-09-17T13:46:42Z</time>
      </trkpt>
      <trkpt lat="45.40019" lon="3.39891">
        <ele>538.5</ele>
        <time>2020-09-17T13:46:43Z</time>
      </trkpt>
      <trkpt lat="45.40019" lon="3.39891">
        <ele>538.7</ele>
        <time>2020-09-17T13:46:44Z</time>
      </trkpt>
      <trkpt lat="45.40018" lon="3.39892">
        <ele>538.8</ele>
        <time>2020-09-17T13:46:45Z</time>
      </trkpt>
      <trkpt lat="45.40018" lon="3.39892">
        <ele>538.9</ele>
        <time>2020-09-17T13:46:46Z</time>
      </trkpt>
      <trkpt lat="45.40018" lon="3.39892">
        <ele>538.9</ele>
        <time>2020-09-17T13:46:47Z</time>
      </trkpt>
      <trkpt lat="45.40017" lon="3.39892">
        <ele>539</ele>
        <time>2020-09-17T13:46:48Z</time>
      </trkpt>
      <trkpt lat="45.40017" lon="3.39892">
        <ele>539.2</ele>
        <time>2020-09-17T13:46:49Z</time>
      </trkpt>
      <trkpt lat="45.40016" lon="3.39892">
        <ele>539.4</ele>
        <time>2020-09-17T13:46:50Z</time>
      </trkpt>
      <trkpt lat="45.40016" lon="3.39892">
        <ele>539.5</ele>
        <time>2020-09-17T13:46:51Z</time>
      </trkpt>
      <trkpt lat="45.40015" lon="3.39892">
        <ele>539.7</ele>
        <time>2020-09-17T13:46:52Z</time>
      </trkpt>
      <trkpt lat="45.40015" lon="3.39893">
        <ele>539.8</ele>
        <time>2020-09-17T13:46:53Z</time>
      </trkpt>
      <trkpt lat="45.40015" lon="3.39893">
        <ele>539.9</ele>
        <time>2020-09-17T13:46:54Z</time>
      </trkpt>
      <trkpt lat="45.40014" lon="3.39893">
        <ele>540.1</ele>
        <time>2020-09-17T13:46:55Z</time>
      </trkpt>
      <trkpt lat="45.40013" lon="3.39893">
        <ele>540.3</ele>
        <time>2020-09-17T13:46:56Z</time>
      </trkpt>
      <trkpt lat="45.40013" lon="3.39893">
        <ele>540.5</ele>
        <time>2020-09-17T13:46:57Z</time>
      </trkpt>
      <trkpt lat="45.40012" lon="3.39893">
        <ele>540.7</ele>
        <time>2020-09-17T13:46:58Z</time>
      </trkpt>
      <trkpt lat="45.40012" lon="3.39893">
        <ele>540.8</ele>
        <time>2020-09-17T13:46:59Z</time>
      </trkpt>
      <trkpt lat="45.40011" lon="3.39893">
        <ele>541</ele>
        <time>2020-09-17T13:47:00Z</time>
      </trkpt>
      <trkpt lat="45.40011" lon="3.39893">
        <ele>541.3</ele>
        <time>2020-09-17T13:47:01Z</time>
      </trkpt>
      <trkpt lat="45.4001" lon="3.39894">
        <ele>541.5</ele>
        <time>2020-09-17T13:47:02Z</time>
      </trkpt>
      <trkpt lat="45.40009" lon="3.39894">
        <ele>541.7</ele>
        <time>2020-09-17T13:47:03Z</time>
      </trkpt>
      <trkpt lat="45.40009" lon="3.39894">
        <ele>541.9</ele>
        <time>2020-09-17T13:47:04Z</time>
      </trkpt>
      <trkpt lat="45.40008" lon="3.39894">
        <ele>542.1</ele>
        <time>2020-09-17T13:47:05Z</time>
      </trkpt>
      <trkpt lat="45.40007" lon="3.39894">
        <ele>542.3</ele>
        <time>2020-09-17T13:47:06Z</time>
      </trkpt>
      <trkpt lat="45.40007" lon="3.39894">
        <ele>542.5</ele>
        <time>2020-09-17T13:47:07Z</time>
      </trkpt>
      <trkpt lat="45.40007" lon="3.39894">
        <ele>542.5</ele>
        <time>2020-09-17T13:47:08Z</time>
      </trkpt>
      <trkpt lat="45.40006" lon="3.39894">
        <ele>542.6</ele>
        <time>2020-09-17T13:47:09Z</time>
      </trkpt>
      <trkpt lat="45.40006" lon="3.39894">
        <ele>542.8</ele>
        <time>2020-09-17T13:47:10Z</time>
      </trkpt>
      <trkpt lat="45.40005" lon="3.39894">
        <ele>543</ele>
        <time>2020-09-17T13:47:11Z</time>
      </trkpt>
      <trkpt lat="45.40005" lon="3.39893">
        <ele>543.1</ele>
        <time>2020-09-17T13:47:12Z</time>
      </trkpt>
      <trkpt lat="45.40004" lon="3.39893">
        <ele>543.2</ele>
        <time>2020-09-17T13:47:13Z</time>
      </trkpt>
      <trkpt lat="45.40004" lon="3.39893">
        <ele>543.5</ele>
        <time>2020-09-17T13:47:14Z</time>
      </trkpt>
      <trkpt lat="45.40003" lon="3.39893">
        <ele>543.7</ele>
        <time>2020-09-17T13:47:15Z</time>
      </trkpt>
      <trkpt lat="45.40002" lon="3.39893">
        <ele>544</ele>
        <time>2020-09-17T13:47:16Z</time>
      </trkpt>
      <trkpt lat="45.40001" lon="3.39892">
        <ele>544.1</ele>
        <time>2020-09-17T13:47:17Z</time>
      </trkpt>
      <trkpt lat="45.4" lon="3.39892">
        <ele>544.3</ele>
        <time>2020-09-17T13:47:18Z</time>
      </trkpt>
      <trkpt lat="45.4" lon="3.39892">
        <ele>544.5</ele>
        <time>2020-09-17T13:47:19Z</time>
      </trkpt>
      <trkpt lat="45.39999" lon="3.39892">
        <ele>544.9</ele>
        <time>2020-09-17T13:47:20Z</time>
      </trkpt>
      <trkpt lat="45.39999" lon="3.39892">
        <ele>545.2</ele>
        <time>2020-09-17T13:47:21Z</time>
      </trkpt>
      <trkpt lat="45.39998" lon="3.39892">
        <ele>545.8</ele>
        <time>2020-09-17T13:47:22Z</time>
      </trkpt>
      <trkpt lat="45.39997" lon="3.39892">
        <ele>546.2</ele>
        <time>2020-09-17T13:47:23Z</time>
      </trkpt>
      <trkpt lat="45.39997" lon="3.39893">
        <ele>546.5</ele>
        <time>2020-09-17T13:47:24Z</time>
      </trkpt>
      <trkpt lat="45.39996" lon="3.39893">
        <ele>546.7</ele>
        <time>2020-09-17T13:47:25Z</time>
      </trkpt>
      <trkpt lat="45.39996" lon="3.39893">
        <ele>547.1</ele>
        <time>2020-09-17T13:47:26Z</time>
      </trkpt>
      <trkpt lat="45.39995" lon="3.39894">
        <ele>547.4</ele>
        <time>2020-09-17T13:47:27Z</time>
      </trkpt>
      <trkpt lat="45.39995" lon="3.39895">
        <ele>547.4</ele>
        <time>2020-09-17T13:47:28Z</time>
      </trkpt>
      <trkpt lat="45.39995" lon="3.39895">
        <ele>547.6</ele>
        <time>2020-09-17T13:47:29Z</time>
      </trkpt>
      <trkpt lat="45.39996" lon="3.39896">
        <ele>547.5</ele>
        <time>2020-09-17T13:47:30Z</time>
      </trkpt>
      <trkpt lat="45.39996" lon="3.39897">
        <ele>547.4</ele>
        <time>2020-09-17T13:47:31Z</time>
      </trkpt>
      <trkpt lat="45.39997" lon="3.39897">
        <ele>547.1</ele>
        <time>2020-09-17T13:47:32Z</time>
      </trkpt>
      <trkpt lat="45.39997" lon="3.39897">
        <ele>546.8</ele>
        <time>2020-09-17T13:47:33Z</time>
      </trkpt>
      <trkpt lat="45.39998" lon="3.39898">
        <ele>546.7</ele>
        <time>2020-09-17T13:47:34Z</time>
      </trkpt>
      <trkpt lat="45.39998" lon="3.39899">
        <ele>546.4</ele>
        <time>2020-09-17T13:47:35Z</time>
      </trkpt>
      <trkpt lat="45.39999" lon="3.39899">
        <ele>546.2</ele>
        <time>2020-09-17T13:47:36Z</time>
      </trkpt>
      <trkpt lat="45.39999" lon="3.399">
        <ele>546.1</ele>
        <time>2020-09-17T13:47:37Z</time>
      </trkpt>
      <trkpt lat="45.39999" lon="3.399">
        <ele>546</ele>
        <time>2020-09-17T13:47:38Z</time>
      </trkpt>
      <trkpt lat="45.4" lon="3.39901">
        <ele>545.8</ele>
        <time>2020-09-17T13:47:39Z</time>
      </trkpt>
      <trkpt lat="45.4" lon="3.39902">
        <ele>545.8</ele>
        <time>2020-09-17T13:47:40Z</time>
      </trkpt>
      <trkpt lat="45.40001" lon="3.39903">
        <ele>545.8</ele>
        <time>2020-09-17T13:47:41Z</time>
      </trkpt>
      <trkpt lat="45.40001" lon="3.39904">
        <ele>545.8</ele>
        <time>2020-09-17T13:47:42Z</time>
      </trkpt>
      <trkpt lat="45.40001" lon="3.39905">
        <ele>545.8</ele>
        <time>2020-09-17T13:47:43Z</time>
      </trkpt>
      <trkpt lat="45.40001" lon="3.39905">
        <ele>545.9</ele>
        <time>2020-09-17T13:47:44Z</time>
      </trkpt>
      <trkpt lat="45.40001" lon="3.39906">
        <ele>545.9</ele>
        <time>2020-09-17T13:47:45Z</time>
      </trkpt>
      <trkpt lat="45.40001" lon="3.39907">
        <ele>546</ele>
        <time>2020-09-17T13:47:46Z</time>
      </trkpt>
      <trkpt lat="45.40001" lon="3.39908">
        <ele>546.2</ele>
        <time>2020-09-17T13:47:47Z</time>
      </trkpt>
      <trkpt lat="45.40001" lon="3.39908">
        <ele>546.4</ele>
        <time>2020-09-17T13:47:48Z</time>
      </trkpt>
      <trkpt lat="45.40001" lon="3.39909">
        <ele>546.7</ele>
        <time>2020-09-17T13:47:49Z</time>
      </trkpt>
      <trkpt lat="45.4" lon="3.39909">
        <ele>547</ele>
        <time>2020-09-17T13:47:50Z</time>
      </trkpt>
      <trkpt lat="45.39999" lon="3.3991">
        <ele>547.3</ele>
        <time>2020-09-17T13:47:51Z</time>
      </trkpt>
      <trkpt lat="45.39999" lon="3.3991">
        <ele>547.6</ele>
        <time>2020-09-17T13:47:52Z</time>
      </trkpt>
      <trkpt lat="45.39998" lon="3.39909">
        <ele>547.9</ele>
        <time>2020-09-17T13:47:53Z</time>
      </trkpt>
      <trkpt lat="45.39998" lon="3.39908">
        <ele>548</ele>
        <time>2020-09-17T13:47:54Z</time>
      </trkpt>
      <trkpt lat="45.39997" lon="3.39908">
        <ele>548.2</ele>
        <time>2020-09-17T13:47:55Z</time>
      </trkpt>
      <trkpt lat="45.39997" lon="3.39907">
        <ele>548.3</ele>
        <time>2020-09-17T13:47:56Z</time>
      </trkpt>
      <trkpt lat="45.39996" lon="3.39906">
        <ele>548.5</ele>
        <time>2020-09-17T13:47:57Z</time>
      </trkpt>
      <trkpt lat="45.39996" lon="3.39906">
        <ele>548.7</ele>
        <time>2020-09-17T13:47:58Z</time>
      </trkpt>
      <trkpt lat="45.39995" lon="3.39905">
        <ele>548.8</ele>
        <time>2020-09-17T13:47:59Z</time>
      </trkpt>
      <trkpt lat="45.39995" lon="3.39905">
        <ele>549</ele>
        <time>2020-09-17T13:48:00Z</time>
      </trkpt>
      <trkpt lat="45.39994" lon="3.39905">
        <ele>549.4</ele>
        <time>2020-09-17T13:48:01Z</time>
      </trkpt>
      <trkpt lat="45.39993" lon="3.39904">
        <ele>549.8</ele>
        <time>2020-09-17T13:48:02Z</time>
      </trkpt>
      <trkpt lat="45.39993" lon="3.39904">
        <ele>550</ele>
        <time>2020-09-17T13:48:03Z</time>
      </trkpt>
      <trkpt lat="45.39992" lon="3.39903">
        <ele>550.2</ele>
        <time>2020-09-17T13:48:04Z</time>
      </trkpt>
      <trkpt lat="45.39991" lon="3.39903">
        <ele>550.5</ele>
        <time>2020-09-17T13:48:05Z</time>
      </trkpt>
      <trkpt lat="45.39991" lon="3.39903">
        <ele>550.8</ele>
        <time>2020-09-17T13:48:06Z</time>
      </trkpt>
      <trkpt lat="45.3999" lon="3.39902">
        <ele>551</ele>
        <time>2020-09-17T13:48:07Z</time>
      </trkpt>
      <trkpt lat="45.3999" lon="3.39902">
        <ele>551.2</ele>
        <time>2020-09-17T13:48:08Z</time>
      </trkpt>
      <trkpt lat="45.39989" lon="3.39902">
        <ele>551.5</ele>
        <time>2020-09-17T13:48:09Z</time>
      </trkpt>
      <trkpt lat="45.39989" lon="3.39902">
        <ele>551.7</ele>
        <time>2020-09-17T13:48:10Z</time>
      </trkpt>
      <trkpt lat="45.39988" lon="3.39902">
        <ele>552</ele>
        <time>2020-09-17T13:48:11Z</time>
      </trkpt>
      <trkpt lat="45.39988" lon="3.39901">
        <ele>552.4</ele>
        <time>2020-09-17T13:48:12Z</time>
      </trkpt>
      <trkpt lat="45.39987" lon="3.39901">
        <ele>552.6</ele>
        <time>2020-09-17T13:48:13Z</time>
      </trkpt>
      <trkpt lat="45.39986" lon="3.399">
        <ele>552.9</ele>
        <time>2020-09-17T13:48:14Z</time>
      </trkpt>
      <trkpt lat="45.39986" lon="3.399">
        <ele>553.3</ele>
        <time>2020-09-17T13:48:15Z</time>
      </trkpt>
      <trkpt lat="45.39985" lon="3.399">
        <ele>553.7</ele>
        <time>2020-09-17T13:48:16Z</time>
      </trkpt>
      <trkpt lat="45.39984" lon="3.399">
        <ele>553.9</ele>
        <time>2020-09-17T13:48:17Z</time>
      </trkpt>
      <trkpt lat="45.39984" lon="3.399">
        <ele>554.3</ele>
        <time>2020-09-17T13:48:18Z</time>
      </trkpt>
      <trkpt lat="45.39983" lon="3.39899">
        <ele>554.7</ele>
        <time>2020-09-17T13:48:19Z</time>
      </trkpt>
      <trkpt lat="45.39982" lon="3.39899">
        <ele>555</ele>
        <time>2020-09-17T13:48:20Z</time>
      </trkpt>
      <trkpt lat="45.39981" lon="3.39898">
        <ele>555.4</ele>
        <time>2020-09-17T13:48:21Z</time>
      </trkpt>
      <trkpt lat="45.39981" lon="3.39897">
        <ele>555.7</ele>
        <time>2020-09-17T13:48:22Z</time>
      </trkpt>
      <trkpt lat="45.3998" lon="3.39897">
        <ele>555.9</ele>
        <time>2020-09-17T13:48:23Z</time>
      </trkpt>
      <trkpt lat="45.3998" lon="3.39896">
        <ele>556.2</ele>
        <time>2020-09-17T13:48:24Z</time>
      </trkpt>
      <trkpt lat="45.39979" lon="3.39896">
        <ele>556.4</ele>
        <time>2020-09-17T13:48:25Z</time>
      </trkpt>
      <trkpt lat="45.39979" lon="3.39895">
        <ele>556.7</ele>
        <time>2020-09-17T13:48:26Z</time>
      </trkpt>
      <trkpt lat="45.39978" lon="3.39895">
        <ele>556.9</ele>
        <time>2020-09-17T13:48:27Z</time>
      </trkpt>
      <trkpt lat="45.39978" lon="3.39894">
        <ele>557.2</ele>
        <time>2020-09-17T13:48:28Z</time>
      </trkpt>
      <trkpt lat="45.39977" lon="3.39894">
        <ele>557.4</ele>
        <time>2020-09-17T13:48:29Z</time>
      </trkpt>
      <trkpt lat="45.39977" lon="3.39893">
        <ele>557.7</ele>
        <time>2020-09-17T13:48:30Z</time>
      </trkpt>
      <trkpt lat="45.39976" lon="3.39893">
        <ele>557.9</ele>
        <time>2020-09-17T13:48:31Z</time>
      </trkpt>
      <trkpt lat="45.39976" lon="3.39892">
        <ele>558.1</ele>
        <time>2020-09-17T13:48:32Z</time>
      </trkpt>
      <trkpt lat="45.39976" lon="3.39891">
        <ele>558.2</ele>
        <time>2020-09-17T13:48:33Z</time>
      </trkpt>
      <trkpt lat="45.39975" lon="3.39891">
        <ele>558.5</ele>
        <time>2020-09-17T13:48:34Z</time>
      </trkpt>
      <trkpt lat="45.39975" lon="3.3989">
        <ele>558.7</ele>
        <time>2020-09-17T13:48:35Z</time>
      </trkpt>
      <trkpt lat="45.39974" lon="3.39889">
        <ele>558.9</ele>
        <time>2020-09-17T13:48:36Z</time>
      </trkpt>
      <trkpt lat="45.39974" lon="3.39889">
        <ele>559.1</ele>
        <time>2020-09-17T13:48:37Z</time>
      </trkpt>
      <trkpt lat="45.39973" lon="3.39888">
        <ele>559.1</ele>
        <time>2020-09-17T13:48:38Z</time>
      </trkpt>
      <trkpt lat="45.39973" lon="3.39887">
        <ele>559.3</ele>
        <time>2020-09-17T13:48:39Z</time>
      </trkpt>
      <trkpt lat="45.39972" lon="3.39887">
        <ele>559.5</ele>
        <time>2020-09-17T13:48:40Z</time>
      </trkpt>
      <trkpt lat="45.39972" lon="3.39886">
        <ele>559.7</ele>
        <time>2020-09-17T13:48:41Z</time>
      </trkpt>
      <trkpt lat="45.39971" lon="3.39886">
        <ele>559.8</ele>
        <time>2020-09-17T13:48:42Z</time>
      </trkpt>
      <trkpt lat="45.39971" lon="3.39885">
        <ele>559.8</ele>
        <time>2020-09-17T13:48:43Z</time>
      </trkpt>
      <trkpt lat="45.3997" lon="3.39884">
        <ele>559.9</ele>
        <time>2020-09-17T13:48:44Z</time>
      </trkpt>
      <trkpt lat="45.3997" lon="3.39884">
        <ele>560.1</ele>
        <time>2020-09-17T13:48:45Z</time>
      </trkpt>
      <trkpt lat="45.39969" lon="3.39883">
        <ele>560.1</ele>
        <time>2020-09-17T13:48:46Z</time>
      </trkpt>
      <trkpt lat="45.39969" lon="3.39882">
        <ele>560.1</ele>
        <time>2020-09-17T13:48:47Z</time>
      </trkpt>
      <trkpt lat="45.39969" lon="3.39882">
        <ele>560.2</ele>
        <time>2020-09-17T13:48:48Z</time>
      </trkpt>
      <trkpt lat="45.39968" lon="3.39881">
        <ele>560.1</ele>
        <time>2020-09-17T13:48:49Z</time>
      </trkpt>
      <trkpt lat="45.39968" lon="3.3988">
        <ele>560.1</ele>
        <time>2020-09-17T13:48:50Z</time>
      </trkpt>
      <trkpt lat="45.39968" lon="3.39879">
        <ele>560</ele>
        <time>2020-09-17T13:48:51Z</time>
      </trkpt>
      <trkpt lat="45.39967" lon="3.39878">
        <ele>560.1</ele>
        <time>2020-09-17T13:48:52Z</time>
      </trkpt>
      <trkpt lat="45.39967" lon="3.39877">
        <ele>560.1</ele>
        <time>2020-09-17T13:48:53Z</time>
      </trkpt>
      <trkpt lat="45.39966" lon="3.39876">
        <ele>560.4</ele>
        <time>2020-09-17T13:48:54Z</time>
      </trkpt>
      <trkpt lat="45.39966" lon="3.39876">
        <ele>560.4</ele>
        <time>2020-09-17T13:48:55Z</time>
      </trkpt>
      <trkpt lat="45.39966" lon="3.39875">
        <ele>560.4</ele>
        <time>2020-09-17T13:48:56Z</time>
      </trkpt>
      <trkpt lat="45.39966" lon="3.39875">
        <ele>560.5</ele>
        <time>2020-09-17T13:48:57Z</time>
      </trkpt>
      <trkpt lat="45.39965" lon="3.39874">
        <ele>560.8</ele>
        <time>2020-09-17T13:48:58Z</time>
      </trkpt>
      <trkpt lat="45.39964" lon="3.39873">
        <ele>561</ele>
        <time>2020-09-17T13:48:59Z</time>
      </trkpt>
      <trkpt lat="45.39964" lon="3.39872">
        <ele>561.1</ele>
        <time>2020-09-17T13:49:00Z</time>
      </trkpt>
      <trkpt lat="45.39963" lon="3.39872">
        <ele>561.4</ele>
        <time>2020-09-17T13:49:01Z</time>
      </trkpt>
      <trkpt lat="45.39963" lon="3.39871">
        <ele>561.3</ele>
        <time>2020-09-17T13:49:02Z</time>
      </trkpt>
      <trkpt lat="45.39963" lon="3.39871">
        <ele>561.5</ele>
        <time>2020-09-17T13:49:03Z</time>
      </trkpt>
      <trkpt lat="45.39962" lon="3.3987">
        <ele>561.5</ele>
        <time>2020-09-17T13:49:04Z</time>
      </trkpt>
      <trkpt lat="45.39962" lon="3.39869">
        <ele>561.5</ele>
        <time>2020-09-17T13:49:05Z</time>
      </trkpt>
      <trkpt lat="45.39962" lon="3.39868">
        <ele>561.7</ele>
        <time>2020-09-17T13:49:06Z</time>
      </trkpt>
      <trkpt lat="45.39961" lon="3.39868">
        <ele>562</ele>
        <time>2020-09-17T13:49:07Z</time>
      </trkpt>
      <trkpt lat="45.39961" lon="3.39867">
        <ele>562.2</ele>
        <time>2020-09-17T13:49:08Z</time>
      </trkpt>
      <trkpt lat="45.3996" lon="3.39866">
        <ele>562.4</ele>
        <time>2020-09-17T13:49:09Z</time>
      </trkpt>
      <trkpt lat="45.3996" lon="3.39866">
        <ele>562.7</ele>
        <time>2020-09-17T13:49:10Z</time>
      </trkpt>
      <trkpt lat="45.39959" lon="3.39865">
        <ele>563</ele>
        <time>2020-09-17T13:49:11Z</time>
      </trkpt>
      <trkpt lat="45.39958" lon="3.39865">
        <ele>563.4</ele>
        <time>2020-09-17T13:49:12Z</time>
      </trkpt>
      <trkpt lat="45.39958" lon="3.39864">
        <ele>563.6</ele>
        <time>2020-09-17T13:49:13Z</time>
      </trkpt>
      <trkpt lat="45.39957" lon="3.39863">
        <ele>564.1</ele>
        <time>2020-09-17T13:49:14Z</time>
      </trkpt>
      <trkpt lat="45.39956" lon="3.39862">
        <ele>564.4</ele>
        <time>2020-09-17T13:49:15Z</time>
      </trkpt>
      <trkpt lat="45.39955" lon="3.39861">
        <ele>564.9</ele>
        <time>2020-09-17T13:49:16Z</time>
      </trkpt>
      <trkpt lat="45.39955" lon="3.3986">
        <ele>564.9</ele>
        <time>2020-09-17T13:49:17Z</time>
      </trkpt>
      <trkpt lat="45.39954" lon="3.39859">
        <ele>565.1</ele>
        <time>2020-09-17T13:49:18Z</time>
      </trkpt>
      <trkpt lat="45.39953" lon="3.39858">
        <ele>565.2</ele>
        <time>2020-09-17T13:49:19Z</time>
      </trkpt>
      <trkpt lat="45.39953" lon="3.39857">
        <ele>565.2</ele>
        <time>2020-09-17T13:49:20Z</time>
      </trkpt>
      <trkpt lat="45.39952" lon="3.39856">
        <ele>565.2</ele>
        <time>2020-09-17T13:49:21Z</time>
      </trkpt>
      <trkpt lat="45.39952" lon="3.39855">
        <ele>565.3</ele>
        <time>2020-09-17T13:49:22Z</time>
      </trkpt>
      <trkpt lat="45.39951" lon="3.39854">
        <ele>565.4</ele>
        <time>2020-09-17T13:49:23Z</time>
      </trkpt>
      <trkpt lat="45.39951" lon="3.39853">
        <ele>565.3</ele>
        <time>2020-09-17T13:49:24Z</time>
      </trkpt>
      <trkpt lat="45.3995" lon="3.39852">
        <ele>565.3</ele>
        <time>2020-09-17T13:49:25Z</time>
      </trkpt>
      <trkpt lat="45.3995" lon="3.39851">
        <ele>565.3</ele>
        <time>2020-09-17T13:49:26Z</time>
      </trkpt>
      <trkpt lat="45.39949" lon="3.3985">
        <ele>565.5</ele>
        <time>2020-09-17T13:49:27Z</time>
      </trkpt>
      <trkpt lat="45.39949" lon="3.39849">
        <ele>565.7</ele>
        <time>2020-09-17T13:49:28Z</time>
      </trkpt>
      <trkpt lat="45.39948" lon="3.39848">
        <ele>565.8</ele>
        <time>2020-09-17T13:49:29Z</time>
      </trkpt>
      <trkpt lat="45.39947" lon="3.39847">
        <ele>566</ele>
        <time>2020-09-17T13:49:30Z</time>
      </trkpt>
      <trkpt lat="45.39947" lon="3.39846">
        <ele>566</ele>
        <time>2020-09-17T13:49:31Z</time>
      </trkpt>
      <trkpt lat="45.39946" lon="3.39845">
        <ele>566.1</ele>
        <time>2020-09-17T13:49:32Z</time>
      </trkpt>
      <trkpt lat="45.39946" lon="3.39844">
        <ele>566.5</ele>
        <time>2020-09-17T13:49:33Z</time>
      </trkpt>
      <trkpt lat="45.39945" lon="3.39843">
        <ele>566.6</ele>
        <time>2020-09-17T13:49:34Z</time>
      </trkpt>
      <trkpt lat="45.39945" lon="3.39843">
        <ele>566.8</ele>
        <time>2020-09-17T13:49:35Z</time>
      </trkpt>
      <trkpt lat="45.39944" lon="3.39842">
        <ele>566.9</ele>
        <time>2020-09-17T13:49:36Z</time>
      </trkpt>
      <trkpt lat="45.39944" lon="3.39841">
        <ele>567</ele>
        <time>2020-09-17T13:49:37Z</time>
      </trkpt>
      <trkpt lat="45.39943" lon="3.39841">
        <ele>566.9</ele>
        <time>2020-09-17T13:49:38Z</time>
      </trkpt>
      <trkpt lat="45.39943" lon="3.3984">
        <ele>566.9</ele>
        <time>2020-09-17T13:49:39Z</time>
      </trkpt>
      <trkpt lat="45.39942" lon="3.3984">
        <ele>567.2</ele>
        <time>2020-09-17T13:49:40Z</time>
      </trkpt>
      <trkpt lat="45.39941" lon="3.39839">
        <ele>567.3</ele>
        <time>2020-09-17T13:49:41Z</time>
      </trkpt>
      <trkpt lat="45.39941" lon="3.39839">
        <ele>567.4</ele>
        <time>2020-09-17T13:49:42Z</time>
      </trkpt>
      <trkpt lat="45.3994" lon="3.39838">
        <ele>567.5</ele>
        <time>2020-09-17T13:49:43Z</time>
      </trkpt>
      <trkpt lat="45.39939" lon="3.39838">
        <ele>567.6</ele>
        <time>2020-09-17T13:49:44Z</time>
      </trkpt>
      <trkpt lat="45.39939" lon="3.39838">
        <ele>567.7</ele>
        <time>2020-09-17T13:49:45Z</time>
      </trkpt>
      <trkpt lat="45.39938" lon="3.39837">
        <ele>567.8</ele>
        <time>2020-09-17T13:49:46Z</time>
      </trkpt>
      <trkpt lat="45.39937" lon="3.39837">
        <ele>567.9</ele>
        <time>2020-09-17T13:49:47Z</time>
      </trkpt>
      <trkpt lat="45.39937" lon="3.39836">
        <ele>567.9</ele>
        <time>2020-09-17T13:49:48Z</time>
      </trkpt>
      <trkpt lat="45.39936" lon="3.39835">
        <ele>568.1</ele>
        <time>2020-09-17T13:49:49Z</time>
      </trkpt>
      <trkpt lat="45.39935" lon="3.39835">
        <ele>568.3</ele>
        <time>2020-09-17T13:49:50Z</time>
      </trkpt>
      <trkpt lat="45.39934" lon="3.39835">
        <ele>568.6</ele>
        <time>2020-09-17T13:49:51Z</time>
      </trkpt>
      <trkpt lat="45.39933" lon="3.39834">
        <ele>568.8</ele>
        <time>2020-09-17T13:49:52Z</time>
      </trkpt>
      <trkpt lat="45.39932" lon="3.39834">
        <ele>569.1</ele>
        <time>2020-09-17T13:49:53Z</time>
      </trkpt>
      <trkpt lat="45.39931" lon="3.39833">
        <ele>569.2</ele>
        <time>2020-09-17T13:49:54Z</time>
      </trkpt>
      <trkpt lat="45.39931" lon="3.39833">
        <ele>569.3</ele>
        <time>2020-09-17T13:49:55Z</time>
      </trkpt>
      <trkpt lat="45.3993" lon="3.39832">
        <ele>569.4</ele>
        <time>2020-09-17T13:49:56Z</time>
      </trkpt>
      <trkpt lat="45.39929" lon="3.39832">
        <ele>569.5</ele>
        <time>2020-09-17T13:49:57Z</time>
      </trkpt>
      <trkpt lat="45.39928" lon="3.39831">
        <ele>569.7</ele>
        <time>2020-09-17T13:49:58Z</time>
      </trkpt>
      <trkpt lat="45.39927" lon="3.39831">
        <ele>569.9</ele>
        <time>2020-09-17T13:49:59Z</time>
      </trkpt>
      <trkpt lat="45.39926" lon="3.39831">
        <ele>570.3</ele>
        <time>2020-09-17T13:50:00Z</time>
      </trkpt>
      <trkpt lat="45.39926" lon="3.39831">
        <ele>570.5</ele>
        <time>2020-09-17T13:50:01Z</time>
      </trkpt>
      <trkpt lat="45.39925" lon="3.39831">
        <ele>570.7</ele>
        <time>2020-09-17T13:50:02Z</time>
      </trkpt>
      <trkpt lat="45.39924" lon="3.3983">
        <ele>570.9</ele>
        <time>2020-09-17T13:50:03Z</time>
      </trkpt>
      <trkpt lat="45.39923" lon="3.3983">
        <ele>571.3</ele>
        <time>2020-09-17T13:50:04Z</time>
      </trkpt>
      <trkpt lat="45.39922" lon="3.3983">
        <ele>571.6</ele>
        <time>2020-09-17T13:50:05Z</time>
      </trkpt>
      <trkpt lat="45.39921" lon="3.3983">
        <ele>571.9</ele>
        <time>2020-09-17T13:50:06Z</time>
      </trkpt>
      <trkpt lat="45.3992" lon="3.3983">
        <ele>572.2</ele>
        <time>2020-09-17T13:50:07Z</time>
      </trkpt>
      <trkpt lat="45.39919" lon="3.3983">
        <ele>572.5</ele>
        <time>2020-09-17T13:50:08Z</time>
      </trkpt>
      <trkpt lat="45.39918" lon="3.39829">
        <ele>572.7</ele>
        <time>2020-09-17T13:50:09Z</time>
      </trkpt>
      <trkpt lat="45.39918" lon="3.39829">
        <ele>572.9</ele>
        <time>2020-09-17T13:50:10Z</time>
      </trkpt>
      <trkpt lat="45.39917" lon="3.39829">
        <ele>573.1</ele>
        <time>2020-09-17T13:50:11Z</time>
      </trkpt>
      <trkpt lat="45.39916" lon="3.39829">
        <ele>573.2</ele>
        <time>2020-09-17T13:50:12Z</time>
      </trkpt>
      <trkpt lat="45.39916" lon="3.39829">
        <ele>573.4</ele>
        <time>2020-09-17T13:50:13Z</time>
      </trkpt>
      <trkpt lat="45.39915" lon="3.39829">
        <ele>573.6</ele>
        <time>2020-09-17T13:50:14Z</time>
      </trkpt>
      <trkpt lat="45.39914" lon="3.39829">
        <ele>573.8</ele>
        <time>2020-09-17T13:50:15Z</time>
      </trkpt>
      <trkpt lat="45.39914" lon="3.39829">
        <ele>573.9</ele>
        <time>2020-09-17T13:50:16Z</time>
      </trkpt>
      <trkpt lat="45.39913" lon="3.39828">
        <ele>574.1</ele>
        <time>2020-09-17T13:50:17Z</time>
      </trkpt>
      <trkpt lat="45.39912" lon="3.39828">
        <ele>574.3</ele>
        <time>2020-09-17T13:50:18Z</time>
      </trkpt>
      <trkpt lat="45.39912" lon="3.39828">
        <ele>574.4</ele>
        <time>2020-09-17T13:50:19Z</time>
      </trkpt>
      <trkpt lat="45.39911" lon="3.39828">
        <ele>574.6</ele>
        <time>2020-09-17T13:50:20Z</time>
      </trkpt>
      <trkpt lat="45.3991" lon="3.39828">
        <ele>574.6</ele>
        <time>2020-09-17T13:50:21Z</time>
      </trkpt>
      <trkpt lat="45.3991" lon="3.39828">
        <ele>574.7</ele>
        <time>2020-09-17T13:50:22Z</time>
      </trkpt>
      <trkpt lat="45.39909" lon="3.39828">
        <ele>574.9</ele>
        <time>2020-09-17T13:50:23Z</time>
      </trkpt>
      <trkpt lat="45.39908" lon="3.39827">
        <ele>575.2</ele>
        <time>2020-09-17T13:50:24Z</time>
      </trkpt>
      <trkpt lat="45.39907" lon="3.39827">
        <ele>575.4</ele>
        <time>2020-09-17T13:50:25Z</time>
      </trkpt>
      <trkpt lat="45.39906" lon="3.39827">
        <ele>575.6</ele>
        <time>2020-09-17T13:50:26Z</time>
      </trkpt>
      <trkpt lat="45.39905" lon="3.39827">
        <ele>575.7</ele>
        <time>2020-09-17T13:50:27Z</time>
      </trkpt>
      <trkpt lat="45.39904" lon="3.39827">
        <ele>575.9</ele>
        <time>2020-09-17T13:50:28Z</time>
      </trkpt>
      <trkpt lat="45.39903" lon="3.39826">
        <ele>576.1</ele>
        <time>2020-09-17T13:50:29Z</time>
      </trkpt>
      <trkpt lat="45.39902" lon="3.39826">
        <ele>576.2</ele>
        <time>2020-09-17T13:50:30Z</time>
      </trkpt>
      <trkpt lat="45.39901" lon="3.39826">
        <ele>576.4</ele>
        <time>2020-09-17T13:50:31Z</time>
      </trkpt>
      <trkpt lat="45.39901" lon="3.39825">
        <ele>576.4</ele>
        <time>2020-09-17T13:50:32Z</time>
      </trkpt>
      <trkpt lat="45.39899" lon="3.39825">
        <ele>576.6</ele>
        <time>2020-09-17T13:50:33Z</time>
      </trkpt>
      <trkpt lat="45.39898" lon="3.39825">
        <ele>576.8</ele>
        <time>2020-09-17T13:50:34Z</time>
      </trkpt>
      <trkpt lat="45.39898" lon="3.39825">
        <ele>577</ele>
        <time>2020-09-17T13:50:35Z</time>
      </trkpt>
      <trkpt lat="45.39897" lon="3.39824">
        <ele>577.2</ele>
        <time>2020-09-17T13:50:36Z</time>
      </trkpt>
      <trkpt lat="45.39896" lon="3.39824">
        <ele>577.5</ele>
        <time>2020-09-17T13:50:37Z</time>
      </trkpt>
      <trkpt lat="45.39895" lon="3.39824">
        <ele>577.7</ele>
        <time>2020-09-17T13:50:38Z</time>
      </trkpt>
      <trkpt lat="45.39894" lon="3.39824">
        <ele>577.8</ele>
        <time>2020-09-17T13:50:39Z</time>
      </trkpt>
      <trkpt lat="45.39892" lon="3.39824">
        <ele>578.1</ele>
        <time>2020-09-17T13:50:40Z</time>
      </trkpt>
      <trkpt lat="45.39892" lon="3.39823">
        <ele>578.2</ele>
        <time>2020-09-17T13:50:41Z</time>
      </trkpt>
      <trkpt lat="45.39891" lon="3.39823">
        <ele>578.5</ele>
        <time>2020-09-17T13:50:42Z</time>
      </trkpt>
      <trkpt lat="45.3989" lon="3.39823">
        <ele>578.7</ele>
        <time>2020-09-17T13:50:43Z</time>
      </trkpt>
      <trkpt lat="45.39889" lon="3.39823">
        <ele>578.9</ele>
        <time>2020-09-17T13:50:44Z</time>
      </trkpt>
      <trkpt lat="45.39888" lon="3.39823">
        <ele>579.4</ele>
        <time>2020-09-17T13:50:45Z</time>
      </trkpt>
      <trkpt lat="45.39887" lon="3.39823">
        <ele>579.4</ele>
        <time>2020-09-17T13:50:46Z</time>
      </trkpt>
      <trkpt lat="45.39887" lon="3.39823">
        <ele>579.7</ele>
        <time>2020-09-17T13:50:47Z</time>
      </trkpt>
      <trkpt lat="45.39886" lon="3.39822">
        <ele>580</ele>
        <time>2020-09-17T13:50:48Z</time>
      </trkpt>
      <trkpt lat="45.39885" lon="3.39822">
        <ele>580.1</ele>
        <time>2020-09-17T13:50:49Z</time>
      </trkpt>
      <trkpt lat="45.39884" lon="3.39822">
        <ele>580.4</ele>
        <time>2020-09-17T13:50:50Z</time>
      </trkpt>
      <trkpt lat="45.39883" lon="3.39821">
        <ele>580.5</ele>
        <time>2020-09-17T13:50:51Z</time>
      </trkpt>
      <trkpt lat="45.39882" lon="3.3982">
        <ele>580.7</ele>
        <time>2020-09-17T13:50:52Z</time>
      </trkpt>
      <trkpt lat="45.39882" lon="3.3982">
        <ele>580.8</ele>
        <time>2020-09-17T13:50:53Z</time>
      </trkpt>
      <trkpt lat="45.39881" lon="3.39819">
        <ele>580.9</ele>
        <time>2020-09-17T13:50:54Z</time>
      </trkpt>
      <trkpt lat="45.3988" lon="3.39818">
        <ele>581</ele>
        <time>2020-09-17T13:50:55Z</time>
      </trkpt>
      <trkpt lat="45.39879" lon="3.39818">
        <ele>581.1</ele>
        <time>2020-09-17T13:50:56Z</time>
      </trkpt>
      <trkpt lat="45.39878" lon="3.39817">
        <ele>581.2</ele>
        <time>2020-09-17T13:50:57Z</time>
      </trkpt>
      <trkpt lat="45.39877" lon="3.39816">
        <ele>581.2</ele>
        <time>2020-09-17T13:50:58Z</time>
      </trkpt>
      <trkpt lat="45.39876" lon="3.39815">
        <ele>581.1</ele>
        <time>2020-09-17T13:50:59Z</time>
      </trkpt>
      <trkpt lat="45.39875" lon="3.39814">
        <ele>581.1</ele>
        <time>2020-09-17T13:51:00Z</time>
      </trkpt>
      <trkpt lat="45.39874" lon="3.39813">
        <ele>581.2</ele>
        <time>2020-09-17T13:51:01Z</time>
      </trkpt>
      <trkpt lat="45.39874" lon="3.39812">
        <ele>581.2</ele>
        <time>2020-09-17T13:51:02Z</time>
      </trkpt>
      <trkpt lat="45.39873" lon="3.39811">
        <ele>581.2</ele>
        <time>2020-09-17T13:51:03Z</time>
      </trkpt>
      <trkpt lat="45.39872" lon="3.3981">
        <ele>581.3</ele>
        <time>2020-09-17T13:51:04Z</time>
      </trkpt>
      <trkpt lat="45.39871" lon="3.39809">
        <ele>581.4</ele>
        <time>2020-09-17T13:51:05Z</time>
      </trkpt>
      <trkpt lat="45.3987" lon="3.39808">
        <ele>581.4</ele>
        <time>2020-09-17T13:51:06Z</time>
      </trkpt>
      <trkpt lat="45.39869" lon="3.39807">
        <ele>581.4</ele>
        <time>2020-09-17T13:51:07Z</time>
      </trkpt>
      <trkpt lat="45.39868" lon="3.39807">
        <ele>581.5</ele>
        <time>2020-09-17T13:51:08Z</time>
      </trkpt>
      <trkpt lat="45.39867" lon="3.39805">
        <ele>581.3</ele>
        <time>2020-09-17T13:51:09Z</time>
      </trkpt>
      <trkpt lat="45.39866" lon="3.39804">
        <ele>581.4</ele>
        <time>2020-09-17T13:51:10Z</time>
      </trkpt>
      <trkpt lat="45.39865" lon="3.39803">
        <ele>581.3</ele>
        <time>2020-09-17T13:51:11Z</time>
      </trkpt>
      <trkpt lat="45.39865" lon="3.39802">
        <ele>581.2</ele>
        <time>2020-09-17T13:51:12Z</time>
      </trkpt>
      <trkpt lat="45.39864" lon="3.39801">
        <ele>581.2</ele>
        <time>2020-09-17T13:51:13Z</time>
      </trkpt>
      <trkpt lat="45.39863" lon="3.39799">
        <ele>581.2</ele>
        <time>2020-09-17T13:51:14Z</time>
      </trkpt>
      <trkpt lat="45.39862" lon="3.39798">
        <ele>581.2</ele>
        <time>2020-09-17T13:51:15Z</time>
      </trkpt>
      <trkpt lat="45.39861" lon="3.39797">
        <ele>581.2</ele>
        <time>2020-09-17T13:51:16Z</time>
      </trkpt>
      <trkpt lat="45.3986" lon="3.39796">
        <ele>581.3</ele>
        <time>2020-09-17T13:51:17Z</time>
      </trkpt>
      <trkpt lat="45.3986" lon="3.39795">
        <ele>581.4</ele>
        <time>2020-09-17T13:51:18Z</time>
      </trkpt>
      <trkpt lat="45.39859" lon="3.39794">
        <ele>581.6</ele>
        <time>2020-09-17T13:51:19Z</time>
      </trkpt>
      <trkpt lat="45.39858" lon="3.39794">
        <ele>581.9</ele>
        <time>2020-09-17T13:51:20Z</time>
      </trkpt>
      <trkpt lat="45.39856" lon="3.39793">
        <ele>582.2</ele>
        <time>2020-09-17T13:51:21Z</time>
      </trkpt>
      <trkpt lat="45.39856" lon="3.39792">
        <ele>582.2</ele>
        <time>2020-09-17T13:51:22Z</time>
      </trkpt>
      <trkpt lat="45.39855" lon="3.39791">
        <ele>582.3</ele>
        <time>2020-09-17T13:51:23Z</time>
      </trkpt>
      <trkpt lat="45.39854" lon="3.3979">
        <ele>582.4</ele>
        <time>2020-09-17T13:51:24Z</time>
      </trkpt>
      <trkpt lat="45.39853" lon="3.39789">
        <ele>582.5</ele>
        <time>2020-09-17T13:51:25Z</time>
      </trkpt>
      <trkpt lat="45.39852" lon="3.39788">
        <ele>582.6</ele>
        <time>2020-09-17T13:51:26Z</time>
      </trkpt>
      <trkpt lat="45.39851" lon="3.39787">
        <ele>582.8</ele>
        <time>2020-09-17T13:51:27Z</time>
      </trkpt>
      <trkpt lat="45.3985" lon="3.39786">
        <ele>583</ele>
        <time>2020-09-17T13:51:28Z</time>
      </trkpt>
      <trkpt lat="45.39849" lon="3.39785">
        <ele>583.2</ele>
        <time>2020-09-17T13:51:29Z</time>
      </trkpt>
      <trkpt lat="45.39848" lon="3.39784">
        <ele>583.4</ele>
        <time>2020-09-17T13:51:30Z</time>
      </trkpt>
      <trkpt lat="45.39847" lon="3.39783">
        <ele>583.6</ele>
        <time>2020-09-17T13:51:31Z</time>
      </trkpt>
      <trkpt lat="45.39846" lon="3.39782">
        <ele>583.7</ele>
        <time>2020-09-17T13:51:32Z</time>
      </trkpt>
      <trkpt lat="45.39845" lon="3.39781">
        <ele>583.7</ele>
        <time>2020-09-17T13:51:33Z</time>
      </trkpt>
      <trkpt lat="45.39844" lon="3.3978">
        <ele>583.8</ele>
        <time>2020-09-17T13:51:34Z</time>
      </trkpt>
      <trkpt lat="45.39843" lon="3.39779">
        <ele>583.9</ele>
        <time>2020-09-17T13:51:35Z</time>
      </trkpt>
      <trkpt lat="45.39842" lon="3.39778">
        <ele>584</ele>
        <time>2020-09-17T13:51:36Z</time>
      </trkpt>
      <trkpt lat="45.39841" lon="3.39777">
        <ele>584.2</ele>
        <time>2020-09-17T13:51:37Z</time>
      </trkpt>
      <trkpt lat="45.3984" lon="3.39776">
        <ele>584.5</ele>
        <time>2020-09-17T13:51:38Z</time>
      </trkpt>
      <trkpt lat="45.39839" lon="3.39775">
        <ele>584.7</ele>
        <time>2020-09-17T13:51:39Z</time>
      </trkpt>
      <trkpt lat="45.39838" lon="3.39774">
        <ele>584.6</ele>
        <time>2020-09-17T13:51:40Z</time>
      </trkpt>
      <trkpt lat="45.39838" lon="3.39772">
        <ele>584.6</ele>
        <time>2020-09-17T13:51:41Z</time>
      </trkpt>
      <trkpt lat="45.39837" lon="3.39771">
        <ele>584.7</ele>
        <time>2020-09-17T13:51:42Z</time>
      </trkpt>
      <trkpt lat="45.39836" lon="3.3977">
        <ele>584.6</ele>
        <time>2020-09-17T13:51:43Z</time>
      </trkpt>
      <trkpt lat="45.39836" lon="3.39768">
        <ele>584.5</ele>
        <time>2020-09-17T13:51:44Z</time>
      </trkpt>
      <trkpt lat="45.39835" lon="3.39767">
        <ele>584.2</ele>
        <time>2020-09-17T13:51:45Z</time>
      </trkpt>
      <trkpt lat="45.39835" lon="3.39765">
        <ele>584</ele>
        <time>2020-09-17T13:51:46Z</time>
      </trkpt>
      <trkpt lat="45.39835" lon="3.39763">
        <ele>583.7</ele>
        <time>2020-09-17T13:51:47Z</time>
      </trkpt>
      <trkpt lat="45.39835" lon="3.39762">
        <ele>583.4</ele>
        <time>2020-09-17T13:51:48Z</time>
      </trkpt>
      <trkpt lat="45.39834" lon="3.3976">
        <ele>583</ele>
        <time>2020-09-17T13:51:49Z</time>
      </trkpt>
      <trkpt lat="45.39834" lon="3.39759">
        <ele>582.8</ele>
        <time>2020-09-17T13:51:50Z</time>
      </trkpt>
      <trkpt lat="45.39834" lon="3.39757">
        <ele>582.5</ele>
        <time>2020-09-17T13:51:51Z</time>
      </trkpt>
      <trkpt lat="45.39834" lon="3.39755">
        <ele>582.1</ele>
        <time>2020-09-17T13:51:52Z</time>
      </trkpt>
      <trkpt lat="45.39834" lon="3.39754">
        <ele>581.7</ele>
        <time>2020-09-17T13:51:53Z</time>
      </trkpt>
      <trkpt lat="45.39833" lon="3.39752">
        <ele>581.5</ele>
        <time>2020-09-17T13:51:54Z</time>
      </trkpt>
      <trkpt lat="45.39833" lon="3.3975">
        <ele>581.2</ele>
        <time>2020-09-17T13:51:55Z</time>
      </trkpt>
      <trkpt lat="45.39833" lon="3.39749">
        <ele>581.2</ele>
        <time>2020-09-17T13:51:56Z</time>
      </trkpt>
      <trkpt lat="45.39833" lon="3.39747">
        <ele>581.2</ele>
        <time>2020-09-17T13:51:57Z</time>
      </trkpt>
      <trkpt lat="45.39832" lon="3.39746">
        <ele>581.4</ele>
        <time>2020-09-17T13:51:58Z</time>
      </trkpt>
      <trkpt lat="45.39832" lon="3.39745">
        <ele>581.5</ele>
        <time>2020-09-17T13:51:59Z</time>
      </trkpt>
      <trkpt lat="45.39831" lon="3.39743">
        <ele>581.6</ele>
        <time>2020-09-17T13:52:00Z</time>
      </trkpt>
      <trkpt lat="45.39831" lon="3.39742">
        <ele>581.7</ele>
        <time>2020-09-17T13:52:01Z</time>
      </trkpt>
      <trkpt lat="45.39831" lon="3.39741">
        <ele>581.8</ele>
        <time>2020-09-17T13:52:02Z</time>
      </trkpt>
      <trkpt lat="45.3983" lon="3.39739">
        <ele>581.8</ele>
        <time>2020-09-17T13:52:03Z</time>
      </trkpt>
      <trkpt lat="45.3983" lon="3.39738">
        <ele>581.9</ele>
        <time>2020-09-17T13:52:04Z</time>
      </trkpt>
      <trkpt lat="45.3983" lon="3.39737">
        <ele>582</ele>
        <time>2020-09-17T13:52:05Z</time>
      </trkpt>
      <trkpt lat="45.39829" lon="3.39736">
        <ele>582</ele>
        <time>2020-09-17T13:52:06Z</time>
      </trkpt>
      <trkpt lat="45.39829" lon="3.39735">
        <ele>582.1</ele>
        <time>2020-09-17T13:52:07Z</time>
      </trkpt>
      <trkpt lat="45.39829" lon="3.39733">
        <ele>582.3</ele>
        <time>2020-09-17T13:52:08Z</time>
      </trkpt>
      <trkpt lat="45.39828" lon="3.39732">
        <ele>582.3</ele>
        <time>2020-09-17T13:52:09Z</time>
      </trkpt>
      <trkpt lat="45.39828" lon="3.39731">
        <ele>582.5</ele>
        <time>2020-09-17T13:52:10Z</time>
      </trkpt>
      <trkpt lat="45.39828" lon="3.3973">
        <ele>582.5</ele>
        <time>2020-09-17T13:52:11Z</time>
      </trkpt>
      <trkpt lat="45.39828" lon="3.39729">
        <ele>582.4</ele>
        <time>2020-09-17T13:52:12Z</time>
      </trkpt>
      <trkpt lat="45.39828" lon="3.39728">
        <ele>582.4</ele>
        <time>2020-09-17T13:52:13Z</time>
      </trkpt>
      <trkpt lat="45.39827" lon="3.39727">
        <ele>582.4</ele>
        <time>2020-09-17T13:52:14Z</time>
      </trkpt>
      <trkpt lat="45.39827" lon="3.39726">
        <ele>582.3</ele>
        <time>2020-09-17T13:52:15Z</time>
      </trkpt>
      <trkpt lat="45.39827" lon="3.39724">
        <ele>582.3</ele>
        <time>2020-09-17T13:52:16Z</time>
      </trkpt>
      <trkpt lat="45.39827" lon="3.39723">
        <ele>582.2</ele>
        <time>2020-09-17T13:52:17Z</time>
      </trkpt>
      <trkpt lat="45.39827" lon="3.39721">
        <ele>582.3</ele>
        <time>2020-09-17T13:52:18Z</time>
      </trkpt>
      <trkpt lat="45.39827" lon="3.3972">
        <ele>582.4</ele>
        <time>2020-09-17T13:52:19Z</time>
      </trkpt>
      <trkpt lat="45.39826" lon="3.39719">
        <ele>582.6</ele>
        <time>2020-09-17T13:52:20Z</time>
      </trkpt>
      <trkpt lat="45.39826" lon="3.39718">
        <ele>582.6</ele>
        <time>2020-09-17T13:52:21Z</time>
      </trkpt>
      <trkpt lat="45.39826" lon="3.39717">
        <ele>582.6</ele>
        <time>2020-09-17T13:52:22Z</time>
      </trkpt>
      <trkpt lat="45.39826" lon="3.39716">
        <ele>582.7</ele>
        <time>2020-09-17T13:52:23Z</time>
      </trkpt>
      <trkpt lat="45.39826" lon="3.39715">
        <ele>582.8</ele>
        <time>2020-09-17T13:52:24Z</time>
      </trkpt>
      <trkpt lat="45.39826" lon="3.39714">
        <ele>582.8</ele>
        <time>2020-09-17T13:52:25Z</time>
      </trkpt>
      <trkpt lat="45.39826" lon="3.39712">
        <ele>583</ele>
        <time>2020-09-17T13:52:26Z</time>
      </trkpt>
      <trkpt lat="45.39826" lon="3.39711">
        <ele>583.1</ele>
        <time>2020-09-17T13:52:27Z</time>
      </trkpt>
      <trkpt lat="45.39826" lon="3.39709">
        <ele>583.2</ele>
        <time>2020-09-17T13:52:28Z</time>
      </trkpt>
      <trkpt lat="45.39826" lon="3.39708">
        <ele>583.1</ele>
        <time>2020-09-17T13:52:29Z</time>
      </trkpt>
      <trkpt lat="45.39826" lon="3.39706">
        <ele>583.1</ele>
        <time>2020-09-17T13:52:30Z</time>
      </trkpt>
      <trkpt lat="45.39826" lon="3.39705">
        <ele>583</ele>
        <time>2020-09-17T13:52:31Z</time>
      </trkpt>
      <trkpt lat="45.39826" lon="3.39704">
        <ele>582.9</ele>
        <time>2020-09-17T13:52:32Z</time>
      </trkpt>
      <trkpt lat="45.39826" lon="3.39702">
        <ele>582.8</ele>
        <time>2020-09-17T13:52:33Z</time>
      </trkpt>
      <trkpt lat="45.39827" lon="3.39701">
        <ele>582.6</ele>
        <time>2020-09-17T13:52:34Z</time>
      </trkpt>
      <trkpt lat="45.39827" lon="3.397">
        <ele>582.5</ele>
        <time>2020-09-17T13:52:35Z</time>
      </trkpt>
      <trkpt lat="45.39827" lon="3.39698">
        <ele>582.4</ele>
        <time>2020-09-17T13:52:36Z</time>
      </trkpt>
      <trkpt lat="45.39827" lon="3.39697">
        <ele>582.2</ele>
        <time>2020-09-17T13:52:37Z</time>
      </trkpt>
      <trkpt lat="45.39828" lon="3.39695">
        <ele>582</ele>
        <time>2020-09-17T13:52:38Z</time>
      </trkpt>
      <trkpt lat="45.39828" lon="3.39694">
        <ele>581.8</ele>
        <time>2020-09-17T13:52:39Z</time>
      </trkpt>
      <trkpt lat="45.39828" lon="3.39692">
        <ele>581.9</ele>
        <time>2020-09-17T13:52:40Z</time>
      </trkpt>
      <trkpt lat="45.39828" lon="3.39691">
        <ele>581.9</ele>
        <time>2020-09-17T13:52:41Z</time>
      </trkpt>
      <trkpt lat="45.39828" lon="3.3969">
        <ele>582.2</ele>
        <time>2020-09-17T13:52:42Z</time>
      </trkpt>
      <trkpt lat="45.39828" lon="3.39688">
        <ele>582.1</ele>
        <time>2020-09-17T13:52:43Z</time>
      </trkpt>
      <trkpt lat="45.39829" lon="3.39687">
        <ele>582</ele>
        <time>2020-09-17T13:52:44Z</time>
      </trkpt>
      <trkpt lat="45.39829" lon="3.39686">
        <ele>582</ele>
        <time>2020-09-17T13:52:45Z</time>
      </trkpt>
      <trkpt lat="45.39829" lon="3.39685">
        <ele>581.9</ele>
        <time>2020-09-17T13:52:46Z</time>
      </trkpt>
      <trkpt lat="45.3983" lon="3.39683">
        <ele>581.8</ele>
        <time>2020-09-17T13:52:47Z</time>
      </trkpt>
      <trkpt lat="45.3983" lon="3.39682">
        <ele>581.9</ele>
        <time>2020-09-17T13:52:48Z</time>
      </trkpt>
      <trkpt lat="45.3983" lon="3.39681">
        <ele>581.9</ele>
        <time>2020-09-17T13:52:49Z</time>
      </trkpt>
      <trkpt lat="45.3983" lon="3.3968">
        <ele>582.2</ele>
        <time>2020-09-17T13:52:50Z</time>
      </trkpt>
      <trkpt lat="45.39829" lon="3.39678">
        <ele>582.5</ele>
        <time>2020-09-17T13:52:51Z</time>
      </trkpt>
      <trkpt lat="45.39829" lon="3.39677">
        <ele>582.8</ele>
        <time>2020-09-17T13:52:52Z</time>
      </trkpt>
      <trkpt lat="45.39829" lon="3.39676">
        <ele>583</ele>
        <time>2020-09-17T13:52:53Z</time>
      </trkpt>
      <trkpt lat="45.39829" lon="3.39675">
        <ele>583</ele>
        <time>2020-09-17T13:52:54Z</time>
      </trkpt>
      <trkpt lat="45.39829" lon="3.39673">
        <ele>583.3</ele>
        <time>2020-09-17T13:52:55Z</time>
      </trkpt>
      <trkpt lat="45.39829" lon="3.39672">
        <ele>583.5</ele>
        <time>2020-09-17T13:52:56Z</time>
      </trkpt>
      <trkpt lat="45.39829" lon="3.3967">
        <ele>583.7</ele>
        <time>2020-09-17T13:52:57Z</time>
      </trkpt>
      <trkpt lat="45.39829" lon="3.39669">
        <ele>583.8</ele>
        <time>2020-09-17T13:52:58Z</time>
      </trkpt>
      <trkpt lat="45.39829" lon="3.39667">
        <ele>584</ele>
        <time>2020-09-17T13:52:59Z</time>
      </trkpt>
      <trkpt lat="45.39829" lon="3.39665">
        <ele>584.2</ele>
        <time>2020-09-17T13:53:00Z</time>
      </trkpt>
      <trkpt lat="45.39829" lon="3.39664">
        <ele>584.5</ele>
        <time>2020-09-17T13:53:01Z</time>
      </trkpt>
      <trkpt lat="45.39829" lon="3.39662">
        <ele>584.7</ele>
        <time>2020-09-17T13:53:02Z</time>
      </trkpt>
      <trkpt lat="45.39829" lon="3.39661">
        <ele>584.8</ele>
        <time>2020-09-17T13:53:03Z</time>
      </trkpt>
      <trkpt lat="45.39829" lon="3.3966">
        <ele>584.9</ele>
        <time>2020-09-17T13:53:04Z</time>
      </trkpt>
      <trkpt lat="45.3983" lon="3.39659">
        <ele>584.8</ele>
        <time>2020-09-17T13:53:05Z</time>
      </trkpt>
      <trkpt lat="45.3983" lon="3.39657">
        <ele>585</ele>
        <time>2020-09-17T13:53:06Z</time>
      </trkpt>
      <trkpt lat="45.3983" lon="3.39656">
        <ele>585.2</ele>
        <time>2020-09-17T13:53:07Z</time>
      </trkpt>
      <trkpt lat="45.3983" lon="3.39654">
        <ele>585.3</ele>
        <time>2020-09-17T13:53:08Z</time>
      </trkpt>
      <trkpt lat="45.3983" lon="3.39653">
        <ele>585.2</ele>
        <time>2020-09-17T13:53:09Z</time>
      </trkpt>
      <trkpt lat="45.3983" lon="3.39652">
        <ele>585.3</ele>
        <time>2020-09-17T13:53:10Z</time>
      </trkpt>
      <trkpt lat="45.3983" lon="3.39651">
        <ele>585.3</ele>
        <time>2020-09-17T13:53:11Z</time>
      </trkpt>
      <trkpt lat="45.39831" lon="3.3965">
        <ele>585.4</ele>
        <time>2020-09-17T13:53:12Z</time>
      </trkpt>
      <trkpt lat="45.3983" lon="3.39649">
        <ele>585.7</ele>
        <time>2020-09-17T13:53:13Z</time>
      </trkpt>
      <trkpt lat="45.3983" lon="3.39648">
        <ele>585.8</ele>
        <time>2020-09-17T13:53:14Z</time>
      </trkpt>
      <trkpt lat="45.39831" lon="3.39647">
        <ele>585.8</ele>
        <time>2020-09-17T13:53:15Z</time>
      </trkpt>
      <trkpt lat="45.39831" lon="3.39646">
        <ele>586</ele>
        <time>2020-09-17T13:53:16Z</time>
      </trkpt>
      <trkpt lat="45.39831" lon="3.39645">
        <ele>586.1</ele>
        <time>2020-09-17T13:53:17Z</time>
      </trkpt>
      <trkpt lat="45.39831" lon="3.39644">
        <ele>586.2</ele>
        <time>2020-09-17T13:53:18Z</time>
      </trkpt>
      <trkpt lat="45.39831" lon="3.39643">
        <ele>586.3</ele>
        <time>2020-09-17T13:53:19Z</time>
      </trkpt>
      <trkpt lat="45.39831" lon="3.39643">
        <ele>586.2</ele>
        <time>2020-09-17T13:53:20Z</time>
      </trkpt>
      <trkpt lat="45.39831" lon="3.39642">
        <ele>586.1</ele>
        <time>2020-09-17T13:53:21Z</time>
      </trkpt>
      <trkpt lat="45.39831" lon="3.3964">
        <ele>586.3</ele>
        <time>2020-09-17T13:53:22Z</time>
      </trkpt>
      <trkpt lat="45.39831" lon="3.39639">
        <ele>586.5</ele>
        <time>2020-09-17T13:53:23Z</time>
      </trkpt>
      <trkpt lat="45.39831" lon="3.39639">
        <ele>586.7</ele>
        <time>2020-09-17T13:53:24Z</time>
      </trkpt>
      <trkpt lat="45.39831" lon="3.39637">
        <ele>586.9</ele>
        <time>2020-09-17T13:53:25Z</time>
      </trkpt>
      <trkpt lat="45.39831" lon="3.39637">
        <ele>587</ele>
        <time>2020-09-17T13:53:26Z</time>
      </trkpt>
      <trkpt lat="45.39831" lon="3.39635">
        <ele>587.2</ele>
        <time>2020-09-17T13:53:27Z</time>
      </trkpt>
      <trkpt lat="45.39831" lon="3.39634">
        <ele>587.4</ele>
        <time>2020-09-17T13:53:28Z</time>
      </trkpt>
      <trkpt lat="45.39831" lon="3.39633">
        <ele>587.6</ele>
        <time>2020-09-17T13:53:29Z</time>
      </trkpt>
      <trkpt lat="45.39832" lon="3.39632">
        <ele>587.7</ele>
        <time>2020-09-17T13:53:30Z</time>
      </trkpt>
      <trkpt lat="45.39832" lon="3.39631">
        <ele>587.8</ele>
        <time>2020-09-17T13:53:31Z</time>
      </trkpt>
      <trkpt lat="45.39832" lon="3.3963">
        <ele>588</ele>
        <time>2020-09-17T13:53:32Z</time>
      </trkpt>
      <trkpt lat="45.39832" lon="3.39629">
        <ele>588.2</ele>
        <time>2020-09-17T13:53:33Z</time>
      </trkpt>
      <trkpt lat="45.39832" lon="3.39628">
        <ele>588.4</ele>
        <time>2020-09-17T13:53:34Z</time>
      </trkpt>
      <trkpt lat="45.39832" lon="3.39628">
        <ele>588.5</ele>
        <time>2020-09-17T13:53:35Z</time>
      </trkpt>
      <trkpt lat="45.39832" lon="3.39627">
        <ele>588.5</ele>
        <time>2020-09-17T13:53:36Z</time>
      </trkpt>
      <trkpt lat="45.39832" lon="3.39626">
        <ele>588.4</ele>
        <time>2020-09-17T13:53:37Z</time>
      </trkpt>
      <trkpt lat="45.39833" lon="3.39626">
        <ele>588.2</ele>
        <time>2020-09-17T13:53:38Z</time>
      </trkpt>
      <trkpt lat="45.39833" lon="3.39625">
        <ele>588.1</ele>
        <time>2020-09-17T13:53:39Z</time>
      </trkpt>
      <trkpt lat="45.39834" lon="3.39624">
        <ele>588</ele>
        <time>2020-09-17T13:53:40Z</time>
      </trkpt>
      <trkpt lat="45.39835" lon="3.39623">
        <ele>587.7</ele>
        <time>2020-09-17T13:53:41Z</time>
      </trkpt>
      <trkpt lat="45.39835" lon="3.39622">
        <ele>587.4</ele>
        <time>2020-09-17T13:53:42Z</time>
      </trkpt>
      <trkpt lat="45.39836" lon="3.39622">
        <ele>587.3</ele>
        <time>2020-09-17T13:53:43Z</time>
      </trkpt>
      <trkpt lat="45.39836" lon="3.3962">
        <ele>587.2</ele>
        <time>2020-09-17T13:53:44Z</time>
      </trkpt>
      <trkpt lat="45.39836" lon="3.39619">
        <ele>587.4</ele>
        <time>2020-09-17T13:53:45Z</time>
      </trkpt>
      <trkpt lat="45.39837" lon="3.39618">
        <ele>587.4</ele>
        <time>2020-09-17T13:53:46Z</time>
      </trkpt>
      <trkpt lat="45.39837" lon="3.39617">
        <ele>587.5</ele>
        <time>2020-09-17T13:53:47Z</time>
      </trkpt>
      <trkpt lat="45.39837" lon="3.39617">
        <ele>587.5</ele>
        <time>2020-09-17T13:53:48Z</time>
      </trkpt>
      <trkpt lat="45.39837" lon="3.39615">
        <ele>587.6</ele>
        <time>2020-09-17T13:53:49Z</time>
      </trkpt>
      <trkpt lat="45.39837" lon="3.39614">
        <ele>587.8</ele>
        <time>2020-09-17T13:53:50Z</time>
      </trkpt>
      <trkpt lat="45.39837" lon="3.39613">
        <ele>588.1</ele>
        <time>2020-09-17T13:53:51Z</time>
      </trkpt>
      <trkpt lat="45.39837" lon="3.39612">
        <ele>588.4</ele>
        <time>2020-09-17T13:53:52Z</time>
      </trkpt>
      <trkpt lat="45.39837" lon="3.39611">
        <ele>588.6</ele>
        <time>2020-09-17T13:53:53Z</time>
      </trkpt>
      <trkpt lat="45.39837" lon="3.3961">
        <ele>589.1</ele>
        <time>2020-09-17T13:53:54Z</time>
      </trkpt>
      <trkpt lat="45.39837" lon="3.39608">
        <ele>589.4</ele>
        <time>2020-09-17T13:53:55Z</time>
      </trkpt>
      <trkpt lat="45.39837" lon="3.39607">
        <ele>589.6</ele>
        <time>2020-09-17T13:53:56Z</time>
      </trkpt>
      <trkpt lat="45.39837" lon="3.39606">
        <ele>590</ele>
        <time>2020-09-17T13:53:57Z</time>
      </trkpt>
      <trkpt lat="45.39837" lon="3.39605">
        <ele>590.5</ele>
        <time>2020-09-17T13:53:58Z</time>
      </trkpt>
      <trkpt lat="45.39837" lon="3.39604">
        <ele>590.8</ele>
        <time>2020-09-17T13:53:59Z</time>
      </trkpt>
      <trkpt lat="45.39837" lon="3.39603">
        <ele>591.1</ele>
        <time>2020-09-17T13:54:00Z</time>
      </trkpt>
      <trkpt lat="45.39837" lon="3.39602">
        <ele>591.4</ele>
        <time>2020-09-17T13:54:01Z</time>
      </trkpt>
      <trkpt lat="45.39837" lon="3.396">
        <ele>591.8</ele>
        <time>2020-09-17T13:54:02Z</time>
      </trkpt>
      <trkpt lat="45.39837" lon="3.39599">
        <ele>591.9</ele>
        <time>2020-09-17T13:54:03Z</time>
      </trkpt>
      <trkpt lat="45.39837" lon="3.39598">
        <ele>592.3</ele>
        <time>2020-09-17T13:54:04Z</time>
      </trkpt>
      <trkpt lat="45.39837" lon="3.39597">
        <ele>592.6</ele>
        <time>2020-09-17T13:54:05Z</time>
      </trkpt>
      <trkpt lat="45.39838" lon="3.39596">
        <ele>592.7</ele>
        <time>2020-09-17T13:54:06Z</time>
      </trkpt>
      <trkpt lat="45.39838" lon="3.39595">
        <ele>592.9</ele>
        <time>2020-09-17T13:54:07Z</time>
      </trkpt>
      <trkpt lat="45.39838" lon="3.39594">
        <ele>593.1</ele>
        <time>2020-09-17T13:54:08Z</time>
      </trkpt>
      <trkpt lat="45.39838" lon="3.39593">
        <ele>593.2</ele>
        <time>2020-09-17T13:54:09Z</time>
      </trkpt>
      <trkpt lat="45.39839" lon="3.39592">
        <ele>593.3</ele>
        <time>2020-09-17T13:54:10Z</time>
      </trkpt>
      <trkpt lat="45.39839" lon="3.39591">
        <ele>593.6</ele>
        <time>2020-09-17T13:54:11Z</time>
      </trkpt>
      <trkpt lat="45.39839" lon="3.3959">
        <ele>593.9</ele>
        <time>2020-09-17T13:54:12Z</time>
      </trkpt>
      <trkpt lat="45.39839" lon="3.39589">
        <ele>594.1</ele>
        <time>2020-09-17T13:54:13Z</time>
      </trkpt>
      <trkpt lat="45.39839" lon="3.39588">
        <ele>594.2</ele>
        <time>2020-09-17T13:54:14Z</time>
      </trkpt>
      <trkpt lat="45.39839" lon="3.39586">
        <ele>594.5</ele>
        <time>2020-09-17T13:54:15Z</time>
      </trkpt>
      <trkpt lat="45.3984" lon="3.39585">
        <ele>594.6</ele>
        <time>2020-09-17T13:54:16Z</time>
      </trkpt>
      <trkpt lat="45.3984" lon="3.39584">
        <ele>594.8</ele>
        <time>2020-09-17T13:54:17Z</time>
      </trkpt>
      <trkpt lat="45.3984" lon="3.39583">
        <ele>595</ele>
        <time>2020-09-17T13:54:18Z</time>
      </trkpt>
      <trkpt lat="45.3984" lon="3.39582">
        <ele>595.1</ele>
        <time>2020-09-17T13:54:19Z</time>
      </trkpt>
      <trkpt lat="45.3984" lon="3.3958">
        <ele>595.3</ele>
        <time>2020-09-17T13:54:20Z</time>
      </trkpt>
      <trkpt lat="45.39841" lon="3.39579">
        <ele>595.3</ele>
        <time>2020-09-17T13:54:21Z</time>
      </trkpt>
      <trkpt lat="45.39841" lon="3.39578">
        <ele>595.3</ele>
        <time>2020-09-17T13:54:22Z</time>
      </trkpt>
      <trkpt lat="45.39841" lon="3.39577">
        <ele>595.3</ele>
        <time>2020-09-17T13:54:23Z</time>
      </trkpt>
      <trkpt lat="45.39841" lon="3.39576">
        <ele>595.3</ele>
        <time>2020-09-17T13:54:24Z</time>
      </trkpt>
      <trkpt lat="45.39841" lon="3.39575">
        <ele>595.5</ele>
        <time>2020-09-17T13:54:25Z</time>
      </trkpt>
      <trkpt lat="45.39842" lon="3.39573">
        <ele>595.4</ele>
        <time>2020-09-17T13:54:26Z</time>
      </trkpt>
      <trkpt lat="45.39842" lon="3.39572">
        <ele>595.4</ele>
        <time>2020-09-17T13:54:27Z</time>
      </trkpt>
      <trkpt lat="45.39842" lon="3.39571">
        <ele>595.5</ele>
        <time>2020-09-17T13:54:28Z</time>
      </trkpt>
      <trkpt lat="45.39843" lon="3.3957">
        <ele>595.5</ele>
        <time>2020-09-17T13:54:29Z</time>
      </trkpt>
      <trkpt lat="45.39843" lon="3.39569">
        <ele>595.7</ele>
        <time>2020-09-17T13:54:30Z</time>
      </trkpt>
      <trkpt lat="45.39843" lon="3.39567">
        <ele>595.8</ele>
        <time>2020-09-17T13:54:31Z</time>
      </trkpt>
      <trkpt lat="45.39843" lon="3.39566">
        <ele>596</ele>
        <time>2020-09-17T13:54:32Z</time>
      </trkpt>
      <trkpt lat="45.39843" lon="3.39565">
        <ele>596.2</ele>
        <time>2020-09-17T13:54:33Z</time>
      </trkpt>
      <trkpt lat="45.39843" lon="3.39563">
        <ele>596.4</ele>
        <time>2020-09-17T13:54:34Z</time>
      </trkpt>
      <trkpt lat="45.39843" lon="3.39562">
        <ele>596.7</ele>
        <time>2020-09-17T13:54:35Z</time>
      </trkpt>
      <trkpt lat="45.39842" lon="3.39561">
        <ele>596.9</ele>
        <time>2020-09-17T13:54:36Z</time>
      </trkpt>
      <trkpt lat="45.39842" lon="3.3956">
        <ele>597.2</ele>
        <time>2020-09-17T13:54:37Z</time>
      </trkpt>
      <trkpt lat="45.39842" lon="3.39559">
        <ele>597.5</ele>
        <time>2020-09-17T13:54:38Z</time>
      </trkpt>
      <trkpt lat="45.39842" lon="3.39557">
        <ele>597.8</ele>
        <time>2020-09-17T13:54:39Z</time>
      </trkpt>
      <trkpt lat="45.39842" lon="3.39556">
        <ele>598</ele>
        <time>2020-09-17T13:54:40Z</time>
      </trkpt>
      <trkpt lat="45.39842" lon="3.39555">
        <ele>598.1</ele>
        <time>2020-09-17T13:54:41Z</time>
      </trkpt>
      <trkpt lat="45.39842" lon="3.39553">
        <ele>598.2</ele>
        <time>2020-09-17T13:54:42Z</time>
      </trkpt>
      <trkpt lat="45.39841" lon="3.39552">
        <ele>598.2</ele>
        <time>2020-09-17T13:54:43Z</time>
      </trkpt>
      <trkpt lat="45.39841" lon="3.39551">
        <ele>598.3</ele>
        <time>2020-09-17T13:54:44Z</time>
      </trkpt>
      <trkpt lat="45.39841" lon="3.3955">
        <ele>598.5</ele>
        <time>2020-09-17T13:54:45Z</time>
      </trkpt>
      <trkpt lat="45.3984" lon="3.39549">
        <ele>598.5</ele>
        <time>2020-09-17T13:54:46Z</time>
      </trkpt>
      <trkpt lat="45.3984" lon="3.39548">
        <ele>598.7</ele>
        <time>2020-09-17T13:54:47Z</time>
      </trkpt>
      <trkpt lat="45.39839" lon="3.39547">
        <ele>599</ele>
        <time>2020-09-17T13:54:48Z</time>
      </trkpt>
      <trkpt lat="45.39839" lon="3.39546">
        <ele>599.4</ele>
        <time>2020-09-17T13:54:49Z</time>
      </trkpt>
      <trkpt lat="45.39838" lon="3.39545">
        <ele>599.7</ele>
        <time>2020-09-17T13:54:50Z</time>
      </trkpt>
      <trkpt lat="45.39837" lon="3.39544">
        <ele>600.1</ele>
        <time>2020-09-17T13:54:51Z</time>
      </trkpt>
      <trkpt lat="45.39836" lon="3.39543">
        <ele>600.4</ele>
        <time>2020-09-17T13:54:52Z</time>
      </trkpt>
      <trkpt lat="45.39836" lon="3.39542">
        <ele>600.7</ele>
        <time>2020-09-17T13:54:53Z</time>
      </trkpt>
      <trkpt lat="45.39835" lon="3.39541">
        <ele>601</ele>
        <time>2020-09-17T13:54:54Z</time>
      </trkpt>
      <trkpt lat="45.39834" lon="3.3954">
        <ele>601.3</ele>
        <time>2020-09-17T13:54:55Z</time>
      </trkpt>
      <trkpt lat="45.39834" lon="3.39539">
        <ele>601.7</ele>
        <time>2020-09-17T13:54:56Z</time>
      </trkpt>
      <trkpt lat="45.39833" lon="3.39539">
        <ele>601.9</ele>
        <time>2020-09-17T13:54:57Z</time>
      </trkpt>
      <trkpt lat="45.39832" lon="3.39538">
        <ele>602</ele>
        <time>2020-09-17T13:54:58Z</time>
      </trkpt>
      <trkpt lat="45.39832" lon="3.39537">
        <ele>602.2</ele>
        <time>2020-09-17T13:54:59Z</time>
      </trkpt>
      <trkpt lat="45.39831" lon="3.39536">
        <ele>602.2</ele>
        <time>2020-09-17T13:55:00Z</time>
      </trkpt>
      <trkpt lat="45.39831" lon="3.39535">
        <ele>602.3</ele>
        <time>2020-09-17T13:55:01Z</time>
      </trkpt>
      <trkpt lat="45.3983" lon="3.39535">
        <ele>602.4</ele>
        <time>2020-09-17T13:55:02Z</time>
      </trkpt>
      <trkpt lat="45.3983" lon="3.39534">
        <ele>602.4</ele>
        <time>2020-09-17T13:55:03Z</time>
      </trkpt>
      <trkpt lat="45.39829" lon="3.39533">
        <ele>602.5</ele>
        <time>2020-09-17T13:55:04Z</time>
      </trkpt>
      <trkpt lat="45.39828" lon="3.39532">
        <ele>602.6</ele>
        <time>2020-09-17T13:55:05Z</time>
      </trkpt>
      <trkpt lat="45.39827" lon="3.39531">
        <ele>602.8</ele>
        <time>2020-09-17T13:55:06Z</time>
      </trkpt>
      <trkpt lat="45.39827" lon="3.39531">
        <ele>603</ele>
        <time>2020-09-17T13:55:07Z</time>
      </trkpt>
      <trkpt lat="45.39826" lon="3.3953">
        <ele>603.1</ele>
        <time>2020-09-17T13:55:08Z</time>
      </trkpt>
      <trkpt lat="45.39825" lon="3.39529">
        <ele>603.2</ele>
        <time>2020-09-17T13:55:09Z</time>
      </trkpt>
      <trkpt lat="45.39824" lon="3.39529">
        <ele>603.3</ele>
        <time>2020-09-17T13:55:10Z</time>
      </trkpt>
      <trkpt lat="45.39824" lon="3.39528">
        <ele>603.5</ele>
        <time>2020-09-17T13:55:11Z</time>
      </trkpt>
      <trkpt lat="45.39823" lon="3.39528">
        <ele>603.6</ele>
        <time>2020-09-17T13:55:12Z</time>
      </trkpt>
      <trkpt lat="45.39822" lon="3.39527">
        <ele>603.8</ele>
        <time>2020-09-17T13:55:13Z</time>
      </trkpt>
      <trkpt lat="45.39821" lon="3.39527">
        <ele>603.9</ele>
        <time>2020-09-17T13:55:14Z</time>
      </trkpt>
      <trkpt lat="45.3982" lon="3.39527">
        <ele>604.1</ele>
        <time>2020-09-17T13:55:15Z</time>
      </trkpt>
      <trkpt lat="45.39819" lon="3.39527">
        <ele>604.3</ele>
        <time>2020-09-17T13:55:16Z</time>
      </trkpt>
      <trkpt lat="45.39819" lon="3.39526">
        <ele>604.4</ele>
        <time>2020-09-17T13:55:17Z</time>
      </trkpt>
      <trkpt lat="45.39818" lon="3.39526">
        <ele>604.6</ele>
        <time>2020-09-17T13:55:18Z</time>
      </trkpt>
      <trkpt lat="45.39818" lon="3.39526">
        <ele>604.7</ele>
        <time>2020-09-17T13:55:19Z</time>
      </trkpt>
      <trkpt lat="45.39817" lon="3.39526">
        <ele>604.9</ele>
        <time>2020-09-17T13:55:20Z</time>
      </trkpt>
      <trkpt lat="45.39816" lon="3.39526">
        <ele>605</ele>
        <time>2020-09-17T13:55:21Z</time>
      </trkpt>
      <trkpt lat="45.39816" lon="3.39526">
        <ele>605.1</ele>
        <time>2020-09-17T13:55:22Z</time>
      </trkpt>
      <trkpt lat="45.39815" lon="3.39526">
        <ele>605.3</ele>
        <time>2020-09-17T13:55:23Z</time>
      </trkpt>
      <trkpt lat="45.39814" lon="3.39526">
        <ele>605.5</ele>
        <time>2020-09-17T13:55:24Z</time>
      </trkpt>
      <trkpt lat="45.39814" lon="3.39527">
        <ele>605.7</ele>
        <time>2020-09-17T13:55:25Z</time>
      </trkpt>
      <trkpt lat="45.39813" lon="3.39527">
        <ele>605.9</ele>
        <time>2020-09-17T13:55:26Z</time>
      </trkpt>
      <trkpt lat="45.39812" lon="3.39527">
        <ele>606.2</ele>
        <time>2020-09-17T13:55:27Z</time>
      </trkpt>
      <trkpt lat="45.39811" lon="3.39527">
        <ele>606.4</ele>
        <time>2020-09-17T13:55:28Z</time>
      </trkpt>
      <trkpt lat="45.39811" lon="3.39527">
        <ele>606.5</ele>
        <time>2020-09-17T13:55:29Z</time>
      </trkpt>
      <trkpt lat="45.3981" lon="3.39527">
        <ele>606.8</ele>
        <time>2020-09-17T13:55:30Z</time>
      </trkpt>
      <trkpt lat="45.39809" lon="3.39527">
        <ele>607</ele>
        <time>2020-09-17T13:55:31Z</time>
      </trkpt>
      <trkpt lat="45.39809" lon="3.39528">
        <ele>607.2</ele>
        <time>2020-09-17T13:55:32Z</time>
      </trkpt>
      <trkpt lat="45.39808" lon="3.39528">
        <ele>607.5</ele>
        <time>2020-09-17T13:55:33Z</time>
      </trkpt>
      <trkpt lat="45.39807" lon="3.39528">
        <ele>607.7</ele>
        <time>2020-09-17T13:55:34Z</time>
      </trkpt>
      <trkpt lat="45.39807" lon="3.39529">
        <ele>607.9</ele>
        <time>2020-09-17T13:55:35Z</time>
      </trkpt>
      <trkpt lat="45.39806" lon="3.39529">
        <ele>608.1</ele>
        <time>2020-09-17T13:55:36Z</time>
      </trkpt>
      <trkpt lat="45.39805" lon="3.39529">
        <ele>608.3</ele>
        <time>2020-09-17T13:55:37Z</time>
      </trkpt>
      <trkpt lat="45.39804" lon="3.39529">
        <ele>608.4</ele>
        <time>2020-09-17T13:55:38Z</time>
      </trkpt>
      <trkpt lat="45.39804" lon="3.39529">
        <ele>608.6</ele>
        <time>2020-09-17T13:55:39Z</time>
      </trkpt>
      <trkpt lat="45.39803" lon="3.39529">
        <ele>608.7</ele>
        <time>2020-09-17T13:55:40Z</time>
      </trkpt>
      <trkpt lat="45.39803" lon="3.3953">
        <ele>608.9</ele>
        <time>2020-09-17T13:55:41Z</time>
      </trkpt>
      <trkpt lat="45.39802" lon="3.3953">
        <ele>609.1</ele>
        <time>2020-09-17T13:55:42Z</time>
      </trkpt>
      <trkpt lat="45.39802" lon="3.3953">
        <ele>609.2</ele>
        <time>2020-09-17T13:55:43Z</time>
      </trkpt>
      <trkpt lat="45.39801" lon="3.39531">
        <ele>609.3</ele>
        <time>2020-09-17T13:55:44Z</time>
      </trkpt>
      <trkpt lat="45.39801" lon="3.39531">
        <ele>609.4</ele>
        <time>2020-09-17T13:55:45Z</time>
      </trkpt>
      <trkpt lat="45.398" lon="3.39531">
        <ele>609.6</ele>
        <time>2020-09-17T13:55:46Z</time>
      </trkpt>
      <trkpt lat="45.398" lon="3.3953">
        <ele>609.7</ele>
        <time>2020-09-17T13:55:47Z</time>
      </trkpt>
      <trkpt lat="45.39799" lon="3.3953">
        <ele>609.8</ele>
        <time>2020-09-17T13:55:48Z</time>
      </trkpt>
      <trkpt lat="45.39798" lon="3.3953">
        <ele>610</ele>
        <time>2020-09-17T13:55:49Z</time>
      </trkpt>
      <trkpt lat="45.39797" lon="3.3953">
        <ele>610.1</ele>
        <time>2020-09-17T13:55:50Z</time>
      </trkpt>
      <trkpt lat="45.39796" lon="3.3953">
        <ele>610.3</ele>
        <time>2020-09-17T13:55:51Z</time>
      </trkpt>
      <trkpt lat="45.39795" lon="3.3953">
        <ele>610.5</ele>
        <time>2020-09-17T13:55:52Z</time>
      </trkpt>
      <trkpt lat="45.39794" lon="3.3953">
        <ele>610.7</ele>
        <time>2020-09-17T13:55:53Z</time>
      </trkpt>
      <trkpt lat="45.39793" lon="3.3953">
        <ele>611</ele>
        <time>2020-09-17T13:55:54Z</time>
      </trkpt>
      <trkpt lat="45.39792" lon="3.3953">
        <ele>611.3</ele>
        <time>2020-09-17T13:55:55Z</time>
      </trkpt>
      <trkpt lat="45.39791" lon="3.3953">
        <ele>611.5</ele>
        <time>2020-09-17T13:55:56Z</time>
      </trkpt>
      <trkpt lat="45.3979" lon="3.3953">
        <ele>611.6</ele>
        <time>2020-09-17T13:55:57Z</time>
      </trkpt>
      <trkpt lat="45.3979" lon="3.3953">
        <ele>611.8</ele>
        <time>2020-09-17T13:55:58Z</time>
      </trkpt>
      <trkpt lat="45.39789" lon="3.39529">
        <ele>611.8</ele>
        <time>2020-09-17T13:55:59Z</time>
      </trkpt>
      <trkpt lat="45.39788" lon="3.39529">
        <ele>612</ele>
        <time>2020-09-17T13:56:00Z</time>
      </trkpt>
      <trkpt lat="45.39787" lon="3.39529">
        <ele>612.1</ele>
        <time>2020-09-17T13:56:01Z</time>
      </trkpt>
      <trkpt lat="45.39786" lon="3.39529">
        <ele>612.3</ele>
        <time>2020-09-17T13:56:02Z</time>
      </trkpt>
      <trkpt lat="45.39786" lon="3.39528">
        <ele>612.4</ele>
        <time>2020-09-17T13:56:03Z</time>
      </trkpt>
      <trkpt lat="45.39785" lon="3.39528">
        <ele>612.5</ele>
        <time>2020-09-17T13:56:04Z</time>
      </trkpt>
      <trkpt lat="45.39784" lon="3.39529">
        <ele>612.7</ele>
        <time>2020-09-17T13:56:05Z</time>
      </trkpt>
      <trkpt lat="45.39784" lon="3.39529">
        <ele>612.9</ele>
        <time>2020-09-17T13:56:06Z</time>
      </trkpt>
      <trkpt lat="45.39783" lon="3.39528">
        <ele>613</ele>
        <time>2020-09-17T13:56:07Z</time>
      </trkpt>
      <trkpt lat="45.39782" lon="3.39528">
        <ele>613.2</ele>
        <time>2020-09-17T13:56:08Z</time>
      </trkpt>
      <trkpt lat="45.39781" lon="3.39528">
        <ele>613.3</ele>
        <time>2020-09-17T13:56:09Z</time>
      </trkpt>
      <trkpt lat="45.3978" lon="3.39528">
        <ele>613.5</ele>
        <time>2020-09-17T13:56:10Z</time>
      </trkpt>
      <trkpt lat="45.39779" lon="3.39528">
        <ele>613.7</ele>
        <time>2020-09-17T13:56:11Z</time>
      </trkpt>
      <trkpt lat="45.39779" lon="3.39528">
        <ele>613.9</ele>
        <time>2020-09-17T13:56:12Z</time>
      </trkpt>
      <trkpt lat="45.39778" lon="3.39528">
        <ele>614</ele>
        <time>2020-09-17T13:56:13Z</time>
      </trkpt>
      <trkpt lat="45.39777" lon="3.39527">
        <ele>614.1</ele>
        <time>2020-09-17T13:56:14Z</time>
      </trkpt>
      <trkpt lat="45.39776" lon="3.39527">
        <ele>614.2</ele>
        <time>2020-09-17T13:56:15Z</time>
      </trkpt>
      <trkpt lat="45.39775" lon="3.39527">
        <ele>614.4</ele>
        <time>2020-09-17T13:56:16Z</time>
      </trkpt>
      <trkpt lat="45.39774" lon="3.39527">
        <ele>614.5</ele>
        <time>2020-09-17T13:56:17Z</time>
      </trkpt>
      <trkpt lat="45.39773" lon="3.39527">
        <ele>614.7</ele>
        <time>2020-09-17T13:56:18Z</time>
      </trkpt>
      <trkpt lat="45.39772" lon="3.39526">
        <ele>614.8</ele>
        <time>2020-09-17T13:56:19Z</time>
      </trkpt>
      <trkpt lat="45.39771" lon="3.39526">
        <ele>614.9</ele>
        <time>2020-09-17T13:56:20Z</time>
      </trkpt>
      <trkpt lat="45.3977" lon="3.39526">
        <ele>615.1</ele>
        <time>2020-09-17T13:56:21Z</time>
      </trkpt>
      <trkpt lat="45.39769" lon="3.39526">
        <ele>615.2</ele>
        <time>2020-09-17T13:56:22Z</time>
      </trkpt>
      <trkpt lat="45.39768" lon="3.39525">
        <ele>615.3</ele>
        <time>2020-09-17T13:56:23Z</time>
      </trkpt>
      <trkpt lat="45.39767" lon="3.39525">
        <ele>615.4</ele>
        <time>2020-09-17T13:56:24Z</time>
      </trkpt>
      <trkpt lat="45.39766" lon="3.39525">
        <ele>615.6</ele>
        <time>2020-09-17T13:56:25Z</time>
      </trkpt>
      <trkpt lat="45.39765" lon="3.39524">
        <ele>615.7</ele>
        <time>2020-09-17T13:56:26Z</time>
      </trkpt>
      <trkpt lat="45.39764" lon="3.39524">
        <ele>615.8</ele>
        <time>2020-09-17T13:56:27Z</time>
      </trkpt>
      <trkpt lat="45.39762" lon="3.39523">
        <ele>615.9</ele>
        <time>2020-09-17T13:56:28Z</time>
      </trkpt>
      <trkpt lat="45.39761" lon="3.39523">
        <ele>616</ele>
        <time>2020-09-17T13:56:29Z</time>
      </trkpt>
      <trkpt lat="45.3976" lon="3.39522">
        <ele>616.1</ele>
        <time>2020-09-17T13:56:30Z</time>
      </trkpt>
      <trkpt lat="45.39759" lon="3.39522">
        <ele>616.2</ele>
        <time>2020-09-17T13:56:31Z</time>
      </trkpt>
      <trkpt lat="45.39758" lon="3.39521">
        <ele>616.3</ele>
        <time>2020-09-17T13:56:32Z</time>
      </trkpt>
      <trkpt lat="45.39757" lon="3.39521">
        <ele>616.4</ele>
        <time>2020-09-17T13:56:33Z</time>
      </trkpt>
      <trkpt lat="45.39756" lon="3.3952">
        <ele>616.6</ele>
        <time>2020-09-17T13:56:34Z</time>
      </trkpt>
      <trkpt lat="45.39754" lon="3.3952">
        <ele>616.7</ele>
        <time>2020-09-17T13:56:35Z</time>
      </trkpt>
      <trkpt lat="45.39753" lon="3.39519">
        <ele>616.8</ele>
        <time>2020-09-17T13:56:36Z</time>
      </trkpt>
      <trkpt lat="45.39752" lon="3.39519">
        <ele>616.9</ele>
        <time>2020-09-17T13:56:37Z</time>
      </trkpt>
      <trkpt lat="45.39751" lon="3.39518">
        <ele>617.1</ele>
        <time>2020-09-17T13:56:38Z</time>
      </trkpt>
      <trkpt lat="45.3975" lon="3.39517">
        <ele>617.2</ele>
        <time>2020-09-17T13:56:39Z</time>
      </trkpt>
      <trkpt lat="45.39749" lon="3.39517">
        <ele>617.3</ele>
        <time>2020-09-17T13:56:40Z</time>
      </trkpt>
      <trkpt lat="45.39747" lon="3.39516">
        <ele>617.3</ele>
        <time>2020-09-17T13:56:41Z</time>
      </trkpt>
      <trkpt lat="45.39746" lon="3.39516">
        <ele>617.5</ele>
        <time>2020-09-17T13:56:42Z</time>
      </trkpt>
      <trkpt lat="45.39745" lon="3.39515">
        <ele>617.5</ele>
        <time>2020-09-17T13:56:43Z</time>
      </trkpt>
      <trkpt lat="45.39744" lon="3.39514">
        <ele>617.6</ele>
        <time>2020-09-17T13:56:44Z</time>
      </trkpt>
      <trkpt lat="45.39743" lon="3.39514">
        <ele>617.7</ele>
        <time>2020-09-17T13:56:45Z</time>
      </trkpt>
      <trkpt lat="45.39742" lon="3.39513">
        <ele>617.8</ele>
        <time>2020-09-17T13:56:46Z</time>
      </trkpt>
      <trkpt lat="45.39741" lon="3.39512">
        <ele>617.8</ele>
        <time>2020-09-17T13:56:47Z</time>
      </trkpt>
      <trkpt lat="45.3974" lon="3.39512">
        <ele>617.9</ele>
        <time>2020-09-17T13:56:48Z</time>
      </trkpt>
      <trkpt lat="45.39739" lon="3.39511">
        <ele>617.9</ele>
        <time>2020-09-17T13:56:49Z</time>
      </trkpt>
      <trkpt lat="45.39739" lon="3.3951">
        <ele>618</ele>
        <time>2020-09-17T13:56:50Z</time>
      </trkpt>
      <trkpt lat="45.39738" lon="3.39509">
        <ele>618.1</ele>
        <time>2020-09-17T13:56:51Z</time>
      </trkpt>
      <trkpt lat="45.39737" lon="3.39509">
        <ele>618.1</ele>
        <time>2020-09-17T13:56:52Z</time>
      </trkpt>
      <trkpt lat="45.39736" lon="3.39508">
        <ele>618.2</ele>
        <time>2020-09-17T13:56:53Z</time>
      </trkpt>
      <trkpt lat="45.39735" lon="3.39507">
        <ele>618.3</ele>
        <time>2020-09-17T13:56:54Z</time>
      </trkpt>
      <trkpt lat="45.39734" lon="3.39507">
        <ele>618.4</ele>
        <time>2020-09-17T13:56:55Z</time>
      </trkpt>
      <trkpt lat="45.39733" lon="3.39506">
        <ele>618.5</ele>
        <time>2020-09-17T13:56:56Z</time>
      </trkpt>
      <trkpt lat="45.39732" lon="3.39506">
        <ele>618.6</ele>
        <time>2020-09-17T13:56:57Z</time>
      </trkpt>
      <trkpt lat="45.39731" lon="3.39505">
        <ele>618.7</ele>
        <time>2020-09-17T13:56:58Z</time>
      </trkpt>
      <trkpt lat="45.3973" lon="3.39504">
        <ele>618.8</ele>
        <time>2020-09-17T13:56:59Z</time>
      </trkpt>
      <trkpt lat="45.39729" lon="3.39504">
        <ele>618.9</ele>
        <time>2020-09-17T13:57:00Z</time>
      </trkpt>
      <trkpt lat="45.39728" lon="3.39503">
        <ele>619.1</ele>
        <time>2020-09-17T13:57:01Z</time>
      </trkpt>
      <trkpt lat="45.39727" lon="3.39502">
        <ele>619.2</ele>
        <time>2020-09-17T13:57:02Z</time>
      </trkpt>
      <trkpt lat="45.39726" lon="3.39502">
        <ele>619.3</ele>
        <time>2020-09-17T13:57:03Z</time>
      </trkpt>
      <trkpt lat="45.39726" lon="3.39501">
        <ele>619.4</ele>
        <time>2020-09-17T13:57:04Z</time>
      </trkpt>
      <trkpt lat="45.39725" lon="3.395">
        <ele>619.5</ele>
        <time>2020-09-17T13:57:05Z</time>
      </trkpt>
      <trkpt lat="45.39724" lon="3.39499">
        <ele>619.6</ele>
        <time>2020-09-17T13:57:06Z</time>
      </trkpt>
      <trkpt lat="45.39723" lon="3.39498">
        <ele>619.8</ele>
        <time>2020-09-17T13:57:07Z</time>
      </trkpt>
      <trkpt lat="45.39722" lon="3.39498">
        <ele>620</ele>
        <time>2020-09-17T13:57:08Z</time>
      </trkpt>
      <trkpt lat="45.39721" lon="3.39497">
        <ele>620</ele>
        <time>2020-09-17T13:57:09Z</time>
      </trkpt>
      <trkpt lat="45.3972" lon="3.39496">
        <ele>620.1</ele>
        <time>2020-09-17T13:57:10Z</time>
      </trkpt>
      <trkpt lat="45.39719" lon="3.39496">
        <ele>620.2</ele>
        <time>2020-09-17T13:57:11Z</time>
      </trkpt>
      <trkpt lat="45.39719" lon="3.39495">
        <ele>620.2</ele>
        <time>2020-09-17T13:57:12Z</time>
      </trkpt>
      <trkpt lat="45.39718" lon="3.39494">
        <ele>620.3</ele>
        <time>2020-09-17T13:57:13Z</time>
      </trkpt>
      <trkpt lat="45.39717" lon="3.39494">
        <ele>620.3</ele>
        <time>2020-09-17T13:57:14Z</time>
      </trkpt>
      <trkpt lat="45.39717" lon="3.39493">
        <ele>620.4</ele>
        <time>2020-09-17T13:57:15Z</time>
      </trkpt>
      <trkpt lat="45.39716" lon="3.39493">
        <ele>620.4</ele>
        <time>2020-09-17T13:57:16Z</time>
      </trkpt>
      <trkpt lat="45.39715" lon="3.39492">
        <ele>620.5</ele>
        <time>2020-09-17T13:57:17Z</time>
      </trkpt>
      <trkpt lat="45.39714" lon="3.39491">
        <ele>620.5</ele>
        <time>2020-09-17T13:57:18Z</time>
      </trkpt>
      <trkpt lat="45.39714" lon="3.39491">
        <ele>620.6</ele>
        <time>2020-09-17T13:57:19Z</time>
      </trkpt>
      <trkpt lat="45.39713" lon="3.39491">
        <ele>620.7</ele>
        <time>2020-09-17T13:57:20Z</time>
      </trkpt>
      <trkpt lat="45.39712" lon="3.3949">
        <ele>620.8</ele>
        <time>2020-09-17T13:57:21Z</time>
      </trkpt>
      <trkpt lat="45.39711" lon="3.39489">
        <ele>620.9</ele>
        <time>2020-09-17T13:57:22Z</time>
      </trkpt>
      <trkpt lat="45.3971" lon="3.39489">
        <ele>621</ele>
        <time>2020-09-17T13:57:23Z</time>
      </trkpt>
      <trkpt lat="45.39709" lon="3.39488">
        <ele>621</ele>
        <time>2020-09-17T13:57:24Z</time>
      </trkpt>
      <trkpt lat="45.39708" lon="3.39488">
        <ele>621.1</ele>
        <time>2020-09-17T13:57:25Z</time>
      </trkpt>
      <trkpt lat="45.39707" lon="3.39487">
        <ele>621.2</ele>
        <time>2020-09-17T13:57:26Z</time>
      </trkpt>
      <trkpt lat="45.39706" lon="3.39486">
        <ele>621.3</ele>
        <time>2020-09-17T13:57:27Z</time>
      </trkpt>
      <trkpt lat="45.39705" lon="3.39485">
        <ele>621.4</ele>
        <time>2020-09-17T13:57:28Z</time>
      </trkpt>
      <trkpt lat="45.39704" lon="3.39484">
        <ele>621.4</ele>
        <time>2020-09-17T13:57:29Z</time>
      </trkpt>
      <trkpt lat="45.39703" lon="3.39483">
        <ele>621.5</ele>
        <time>2020-09-17T13:57:30Z</time>
      </trkpt>
      <trkpt lat="45.39702" lon="3.39482">
        <ele>621.5</ele>
        <time>2020-09-17T13:57:31Z</time>
      </trkpt>
      <trkpt lat="45.39702" lon="3.39481">
        <ele>621.6</ele>
        <time>2020-09-17T13:57:32Z</time>
      </trkpt>
      <trkpt lat="45.39701" lon="3.3948">
        <ele>621.6</ele>
        <time>2020-09-17T13:57:33Z</time>
      </trkpt>
      <trkpt lat="45.39701" lon="3.39479">
        <ele>621.6</ele>
        <time>2020-09-17T13:57:34Z</time>
      </trkpt>
      <trkpt lat="45.397" lon="3.39477">
        <ele>621.6</ele>
        <time>2020-09-17T13:57:35Z</time>
      </trkpt>
      <trkpt lat="45.397" lon="3.39475">
        <ele>621.5</ele>
        <time>2020-09-17T13:57:36Z</time>
      </trkpt>
      <trkpt lat="45.397" lon="3.39474">
        <ele>621.5</ele>
        <time>2020-09-17T13:57:37Z</time>
      </trkpt>
      <trkpt lat="45.397" lon="3.39472">
        <ele>621.4</ele>
        <time>2020-09-17T13:57:38Z</time>
      </trkpt>
      <trkpt lat="45.397" lon="3.3947">
        <ele>621.5</ele>
        <time>2020-09-17T13:57:39Z</time>
      </trkpt>
      <trkpt lat="45.397" lon="3.39468">
        <ele>621.5</ele>
        <time>2020-09-17T13:57:40Z</time>
      </trkpt>
      <trkpt lat="45.397" lon="3.39467">
        <ele>621.5</ele>
        <time>2020-09-17T13:57:41Z</time>
      </trkpt>
      <trkpt lat="45.397" lon="3.39465">
        <ele>621.5</ele>
        <time>2020-09-17T13:57:42Z</time>
      </trkpt>
      <trkpt lat="45.39699" lon="3.39463">
        <ele>621.5</ele>
        <time>2020-09-17T13:57:43Z</time>
      </trkpt>
      <trkpt lat="45.39699" lon="3.39461">
        <ele>621.5</ele>
        <time>2020-09-17T13:57:44Z</time>
      </trkpt>
      <trkpt lat="45.39699" lon="3.3946">
        <ele>621.6</ele>
        <time>2020-09-17T13:57:45Z</time>
      </trkpt>
      <trkpt lat="45.39699" lon="3.39458">
        <ele>621.6</ele>
        <time>2020-09-17T13:57:46Z</time>
      </trkpt>
      <trkpt lat="45.39699" lon="3.39457">
        <ele>621.6</ele>
        <time>2020-09-17T13:57:47Z</time>
      </trkpt>
      <trkpt lat="45.39698" lon="3.39455">
        <ele>621.7</ele>
        <time>2020-09-17T13:57:48Z</time>
      </trkpt>
      <trkpt lat="45.39698" lon="3.39454">
        <ele>621.7</ele>
        <time>2020-09-17T13:57:49Z</time>
      </trkpt>
      <trkpt lat="45.39698" lon="3.39452">
        <ele>621.7</ele>
        <time>2020-09-17T13:57:50Z</time>
      </trkpt>
      <trkpt lat="45.39698" lon="3.39451">
        <ele>621.7</ele>
        <time>2020-09-17T13:57:51Z</time>
      </trkpt>
      <trkpt lat="45.39698" lon="3.39449">
        <ele>621.8</ele>
        <time>2020-09-17T13:57:52Z</time>
      </trkpt>
      <trkpt lat="45.39697" lon="3.39447">
        <ele>621.8</ele>
        <time>2020-09-17T13:57:53Z</time>
      </trkpt>
      <trkpt lat="45.39697" lon="3.39446">
        <ele>621.8</ele>
        <time>2020-09-17T13:57:54Z</time>
      </trkpt>
      <trkpt lat="45.39697" lon="3.39444">
        <ele>621.8</ele>
        <time>2020-09-17T13:57:55Z</time>
      </trkpt>
      <trkpt lat="45.39697" lon="3.39443">
        <ele>621.9</ele>
        <time>2020-09-17T13:57:56Z</time>
      </trkpt>
      <trkpt lat="45.39696" lon="3.39441">
        <ele>622</ele>
        <time>2020-09-17T13:57:57Z</time>
      </trkpt>
      <trkpt lat="45.39696" lon="3.3944">
        <ele>622.1</ele>
        <time>2020-09-17T13:57:58Z</time>
      </trkpt>
      <trkpt lat="45.39696" lon="3.39438">
        <ele>622.1</ele>
        <time>2020-09-17T13:57:59Z</time>
      </trkpt>
      <trkpt lat="45.39696" lon="3.39437">
        <ele>622.2</ele>
        <time>2020-09-17T13:58:00Z</time>
      </trkpt>
      <trkpt lat="45.39696" lon="3.39436">
        <ele>622.2</ele>
        <time>2020-09-17T13:58:01Z</time>
      </trkpt>
      <trkpt lat="45.39696" lon="3.39434">
        <ele>622.3</ele>
        <time>2020-09-17T13:58:02Z</time>
      </trkpt>
      <trkpt lat="45.39695" lon="3.39433">
        <ele>622.4</ele>
        <time>2020-09-17T13:58:03Z</time>
      </trkpt>
      <trkpt lat="45.39695" lon="3.39432">
        <ele>622.4</ele>
        <time>2020-09-17T13:58:04Z</time>
      </trkpt>
      <trkpt lat="45.39695" lon="3.3943">
        <ele>622.5</ele>
        <time>2020-09-17T13:58:05Z</time>
      </trkpt>
      <trkpt lat="45.39694" lon="3.39429">
        <ele>622.5</ele>
        <time>2020-09-17T13:58:06Z</time>
      </trkpt>
      <trkpt lat="45.39694" lon="3.39428">
        <ele>622.5</ele>
        <time>2020-09-17T13:58:07Z</time>
      </trkpt>
      <trkpt lat="45.39693" lon="3.39427">
        <ele>622.5</ele>
        <time>2020-09-17T13:58:08Z</time>
      </trkpt>
      <trkpt lat="45.39692" lon="3.39426">
        <ele>622.6</ele>
        <time>2020-09-17T13:58:09Z</time>
      </trkpt>
      <trkpt lat="45.39692" lon="3.39426">
        <ele>622.6</ele>
        <time>2020-09-17T13:58:10Z</time>
      </trkpt>
      <trkpt lat="45.39692" lon="3.39425">
        <ele>622.6</ele>
        <time>2020-09-17T13:58:11Z</time>
      </trkpt>
      <trkpt lat="45.39692" lon="3.39425">
        <ele>622.6</ele>
        <time>2020-09-17T13:58:12Z</time>
      </trkpt>
      <trkpt lat="45.39689" lon="3.39416">
        <ele>622.8</ele>
        <time>2020-09-17T13:58:13Z</time>
      </trkpt>
      <trkpt lat="45.39689" lon="3.39417">
        <ele>622.8</ele>
        <time>2020-09-17T13:58:14Z</time>
      </trkpt>
      <trkpt lat="45.39688" lon="3.39417">
        <ele>622.8</ele>
        <time>2020-09-17T13:58:15Z</time>
      </trkpt>
      <trkpt lat="45.39688" lon="3.39417">
        <ele>622.7</ele>
        <time>2020-09-17T13:58:16Z</time>
      </trkpt>
      <trkpt lat="45.39687" lon="3.39417">
        <ele>622.7</ele>
        <time>2020-09-17T13:58:17Z</time>
      </trkpt>
      <trkpt lat="45.39686" lon="3.39417">
        <ele>622.7</ele>
        <time>2020-09-17T13:58:18Z</time>
      </trkpt>
      <trkpt lat="45.39685" lon="3.39417">
        <ele>622.7</ele>
        <time>2020-09-17T13:58:19Z</time>
      </trkpt>
      <trkpt lat="45.39684" lon="3.39416">
        <ele>622.7</ele>
        <time>2020-09-17T13:58:20Z</time>
      </trkpt>
      <trkpt lat="45.39683" lon="3.39416">
        <ele>622.7</ele>
        <time>2020-09-17T13:58:21Z</time>
      </trkpt>
      <trkpt lat="45.39682" lon="3.39415">
        <ele>622.7</ele>
        <time>2020-09-17T13:58:22Z</time>
      </trkpt>
      <trkpt lat="45.39681" lon="3.39414">
        <ele>622.7</ele>
        <time>2020-09-17T13:58:23Z</time>
      </trkpt>
      <trkpt lat="45.3968" lon="3.39413">
        <ele>622.7</ele>
        <time>2020-09-17T13:58:24Z</time>
      </trkpt>
      <trkpt lat="45.39678" lon="3.39413">
        <ele>622.6</ele>
        <time>2020-09-17T13:58:25Z</time>
      </trkpt>
      <trkpt lat="45.39677" lon="3.39412">
        <ele>622.6</ele>
        <time>2020-09-17T13:58:26Z</time>
      </trkpt>
      <trkpt lat="45.39676" lon="3.39411">
        <ele>622.6</ele>
        <time>2020-09-17T13:58:27Z</time>
      </trkpt>
      <trkpt lat="45.39674" lon="3.3941">
        <ele>622.6</ele>
        <time>2020-09-17T13:58:28Z</time>
      </trkpt>
      <trkpt lat="45.39673" lon="3.3941">
        <ele>622.6</ele>
        <time>2020-09-17T13:58:29Z</time>
      </trkpt>
      <trkpt lat="45.39672" lon="3.39409">
        <ele>622.5</ele>
        <time>2020-09-17T13:58:30Z</time>
      </trkpt>
      <trkpt lat="45.39671" lon="3.39408">
        <ele>622.5</ele>
        <time>2020-09-17T13:58:31Z</time>
      </trkpt>
      <trkpt lat="45.3967" lon="3.39408">
        <ele>622.5</ele>
        <time>2020-09-17T13:58:32Z</time>
      </trkpt>
      <trkpt lat="45.39669" lon="3.39407">
        <ele>622.5</ele>
        <time>2020-09-17T13:58:33Z</time>
      </trkpt>
      <trkpt lat="45.39668" lon="3.39406">
        <ele>622.4</ele>
        <time>2020-09-17T13:58:34Z</time>
      </trkpt>
      <trkpt lat="45.39667" lon="3.39405">
        <ele>622.4</ele>
        <time>2020-09-17T13:58:35Z</time>
      </trkpt>
      <trkpt lat="45.39665" lon="3.39404">
        <ele>622.2</ele>
        <time>2020-09-17T13:58:36Z</time>
      </trkpt>
      <trkpt lat="45.39664" lon="3.39403">
        <ele>622</ele>
        <time>2020-09-17T13:58:37Z</time>
      </trkpt>
      <trkpt lat="45.39663" lon="3.39403">
        <ele>621.7</ele>
        <time>2020-09-17T13:58:38Z</time>
      </trkpt>
      <trkpt lat="45.39662" lon="3.39402">
        <ele>621.5</ele>
        <time>2020-09-17T13:58:39Z</time>
      </trkpt>
      <trkpt lat="45.39661" lon="3.39402">
        <ele>621.3</ele>
        <time>2020-09-17T13:58:40Z</time>
      </trkpt>
      <trkpt lat="45.39659" lon="3.39401">
        <ele>621.1</ele>
        <time>2020-09-17T13:58:41Z</time>
      </trkpt>
      <trkpt lat="45.39658" lon="3.39401">
        <ele>620.9</ele>
        <time>2020-09-17T13:58:42Z</time>
      </trkpt>
      <trkpt lat="45.39657" lon="3.39401">
        <ele>620.7</ele>
        <time>2020-09-17T13:58:43Z</time>
      </trkpt>
      <trkpt lat="45.39656" lon="3.39401">
        <ele>620.4</ele>
        <time>2020-09-17T13:58:44Z</time>
      </trkpt>
      <trkpt lat="45.39655" lon="3.394">
        <ele>620.3</ele>
        <time>2020-09-17T13:58:45Z</time>
      </trkpt>
      <trkpt lat="45.39654" lon="3.394">
        <ele>620</ele>
        <time>2020-09-17T13:58:46Z</time>
      </trkpt>
      <trkpt lat="45.39652" lon="3.394">
        <ele>619.8</ele>
        <time>2020-09-17T13:58:47Z</time>
      </trkpt>
      <trkpt lat="45.39651" lon="3.394">
        <ele>619.6</ele>
        <time>2020-09-17T13:58:48Z</time>
      </trkpt>
      <trkpt lat="45.3965" lon="3.394">
        <ele>619.4</ele>
        <time>2020-09-17T13:58:49Z</time>
      </trkpt>
      <trkpt lat="45.39649" lon="3.39399">
        <ele>619.2</ele>
        <time>2020-09-17T13:58:50Z</time>
      </trkpt>
      <trkpt lat="45.39648" lon="3.39399">
        <ele>619</ele>
        <time>2020-09-17T13:58:51Z</time>
      </trkpt>
      <trkpt lat="45.39647" lon="3.39399">
        <ele>618.9</ele>
        <time>2020-09-17T13:58:52Z</time>
      </trkpt>
      <trkpt lat="45.39646" lon="3.39399">
        <ele>618.6</ele>
        <time>2020-09-17T13:58:53Z</time>
      </trkpt>
      <trkpt lat="45.39645" lon="3.39398">
        <ele>618.5</ele>
        <time>2020-09-17T13:58:54Z</time>
      </trkpt>
      <trkpt lat="45.39644" lon="3.39398">
        <ele>618.3</ele>
        <time>2020-09-17T13:58:55Z</time>
      </trkpt>
      <trkpt lat="45.39643" lon="3.39398">
        <ele>618.1</ele>
        <time>2020-09-17T13:58:56Z</time>
      </trkpt>
      <trkpt lat="45.39642" lon="3.39398">
        <ele>617.9</ele>
        <time>2020-09-17T13:58:57Z</time>
      </trkpt>
      <trkpt lat="45.39641" lon="3.39398">
        <ele>617.7</ele>
        <time>2020-09-17T13:58:58Z</time>
      </trkpt>
      <trkpt lat="45.3964" lon="3.39398">
        <ele>617.5</ele>
        <time>2020-09-17T13:58:59Z</time>
      </trkpt>
      <trkpt lat="45.39638" lon="3.39398">
        <ele>617.3</ele>
        <time>2020-09-17T13:59:00Z</time>
      </trkpt>
      <trkpt lat="45.39637" lon="3.39398">
        <ele>617.1</ele>
        <time>2020-09-17T13:59:01Z</time>
      </trkpt>
      <trkpt lat="45.39636" lon="3.39398">
        <ele>616.8</ele>
        <time>2020-09-17T13:59:02Z</time>
      </trkpt>
      <trkpt lat="45.39635" lon="3.39399">
        <ele>616.6</ele>
        <time>2020-09-17T13:59:03Z</time>
      </trkpt>
      <trkpt lat="45.39634" lon="3.39399">
        <ele>616.4</ele>
        <time>2020-09-17T13:59:04Z</time>
      </trkpt>
      <trkpt lat="45.39633" lon="3.39399">
        <ele>616.2</ele>
        <time>2020-09-17T13:59:05Z</time>
      </trkpt>
      <trkpt lat="45.39631" lon="3.39399">
        <ele>615.9</ele>
        <time>2020-09-17T13:59:06Z</time>
      </trkpt>
      <trkpt lat="45.3963" lon="3.39399">
        <ele>615.7</ele>
        <time>2020-09-17T13:59:07Z</time>
      </trkpt>
      <trkpt lat="45.39629" lon="3.39399">
        <ele>615.5</ele>
        <time>2020-09-17T13:59:08Z</time>
      </trkpt>
      <trkpt lat="45.39627" lon="3.39399">
        <ele>615.3</ele>
        <time>2020-09-17T13:59:09Z</time>
      </trkpt>
      <trkpt lat="45.39626" lon="3.39399">
        <ele>615.1</ele>
        <time>2020-09-17T13:59:10Z</time>
      </trkpt>
      <trkpt lat="45.39625" lon="3.39399">
        <ele>614.9</ele>
        <time>2020-09-17T13:59:11Z</time>
      </trkpt>
      <trkpt lat="45.39624" lon="3.39399">
        <ele>614.7</ele>
        <time>2020-09-17T13:59:12Z</time>
      </trkpt>
      <trkpt lat="45.39623" lon="3.39399">
        <ele>614.5</ele>
        <time>2020-09-17T13:59:13Z</time>
      </trkpt>
      <trkpt lat="45.39621" lon="3.39399">
        <ele>614.2</ele>
        <time>2020-09-17T13:59:14Z</time>
      </trkpt>
      <trkpt lat="45.3962" lon="3.394">
        <ele>614</ele>
        <time>2020-09-17T13:59:15Z</time>
      </trkpt>
      <trkpt lat="45.39619" lon="3.394">
        <ele>613.8</ele>
        <time>2020-09-17T13:59:16Z</time>
      </trkpt>
      <trkpt lat="45.39618" lon="3.394">
        <ele>613.5</ele>
        <time>2020-09-17T13:59:17Z</time>
      </trkpt>
      <trkpt lat="45.39616" lon="3.394">
        <ele>613.3</ele>
        <time>2020-09-17T13:59:18Z</time>
      </trkpt>
      <trkpt lat="45.39615" lon="3.394">
        <ele>613.1</ele>
        <time>2020-09-17T13:59:19Z</time>
      </trkpt>
      <trkpt lat="45.39614" lon="3.394">
        <ele>612.8</ele>
        <time>2020-09-17T13:59:20Z</time>
      </trkpt>
      <trkpt lat="45.39612" lon="3.394">
        <ele>612.6</ele>
        <time>2020-09-17T13:59:21Z</time>
      </trkpt>
      <trkpt lat="45.39611" lon="3.394">
        <ele>612.4</ele>
        <time>2020-09-17T13:59:22Z</time>
      </trkpt>
      <trkpt lat="45.3961" lon="3.394">
        <ele>612.2</ele>
        <time>2020-09-17T13:59:23Z</time>
      </trkpt>
      <trkpt lat="45.39608" lon="3.394">
        <ele>612</ele>
        <time>2020-09-17T13:59:24Z</time>
      </trkpt>
      <trkpt lat="45.39607" lon="3.394">
        <ele>611.8</ele>
        <time>2020-09-17T13:59:25Z</time>
      </trkpt>
      <trkpt lat="45.39605" lon="3.394">
        <ele>611.6</ele>
        <time>2020-09-17T13:59:26Z</time>
      </trkpt>
      <trkpt lat="45.39604" lon="3.39401">
        <ele>611.4</ele>
        <time>2020-09-17T13:59:27Z</time>
      </trkpt>
      <trkpt lat="45.39603" lon="3.39401">
        <ele>611.2</ele>
        <time>2020-09-17T13:59:28Z</time>
      </trkpt>
      <trkpt lat="45.39602" lon="3.39401">
        <ele>611</ele>
        <time>2020-09-17T13:59:29Z</time>
      </trkpt>
      <trkpt lat="45.396" lon="3.39401">
        <ele>610.8</ele>
        <time>2020-09-17T13:59:30Z</time>
      </trkpt>
      <trkpt lat="45.39599" lon="3.39402">
        <ele>610.7</ele>
        <time>2020-09-17T13:59:31Z</time>
      </trkpt>
      <trkpt lat="45.39598" lon="3.39402">
        <ele>610.5</ele>
        <time>2020-09-17T13:59:32Z</time>
      </trkpt>
      <trkpt lat="45.39597" lon="3.39402">
        <ele>610.3</ele>
        <time>2020-09-17T13:59:33Z</time>
      </trkpt>
      <trkpt lat="45.39595" lon="3.39402">
        <ele>610</ele>
        <time>2020-09-17T13:59:34Z</time>
      </trkpt>
      <trkpt lat="45.39594" lon="3.39403">
        <ele>609.8</ele>
        <time>2020-09-17T13:59:35Z</time>
      </trkpt>
      <trkpt lat="45.39592" lon="3.39403">
        <ele>609.6</ele>
        <time>2020-09-17T13:59:36Z</time>
      </trkpt>
      <trkpt lat="45.39591" lon="3.39403">
        <ele>609.4</ele>
        <time>2020-09-17T13:59:37Z</time>
      </trkpt>
      <trkpt lat="45.39589" lon="3.39403">
        <ele>609.2</ele>
        <time>2020-09-17T13:59:38Z</time>
      </trkpt>
      <trkpt lat="45.39588" lon="3.39403">
        <ele>609</ele>
        <time>2020-09-17T13:59:39Z</time>
      </trkpt>
      <trkpt lat="45.39586" lon="3.39404">
        <ele>608.8</ele>
        <time>2020-09-17T13:59:40Z</time>
      </trkpt>
      <trkpt lat="45.39585" lon="3.39404">
        <ele>608.6</ele>
        <time>2020-09-17T13:59:41Z</time>
      </trkpt>
      <trkpt lat="45.39584" lon="3.39404">
        <ele>608.4</ele>
        <time>2020-09-17T13:59:42Z</time>
      </trkpt>
      <trkpt lat="45.39582" lon="3.39404">
        <ele>608.2</ele>
        <time>2020-09-17T13:59:43Z</time>
      </trkpt>
      <trkpt lat="45.39581" lon="3.39404">
        <ele>608</ele>
        <time>2020-09-17T13:59:44Z</time>
      </trkpt>
      <trkpt lat="45.39579" lon="3.39405">
        <ele>607.9</ele>
        <time>2020-09-17T13:59:45Z</time>
      </trkpt>
      <trkpt lat="45.39578" lon="3.39405">
        <ele>607.7</ele>
        <time>2020-09-17T13:59:46Z</time>
      </trkpt>
      <trkpt lat="45.39577" lon="3.39405">
        <ele>607.6</ele>
        <time>2020-09-17T13:59:47Z</time>
      </trkpt>
      <trkpt lat="45.39575" lon="3.39405">
        <ele>607.4</ele>
        <time>2020-09-17T13:59:48Z</time>
      </trkpt>
      <trkpt lat="45.39574" lon="3.39405">
        <ele>607.2</ele>
        <time>2020-09-17T13:59:49Z</time>
      </trkpt>
      <trkpt lat="45.39573" lon="3.39405">
        <ele>607.1</ele>
        <time>2020-09-17T13:59:50Z</time>
      </trkpt>
      <trkpt lat="45.39571" lon="3.39405">
        <ele>606.9</ele>
        <time>2020-09-17T13:59:51Z</time>
      </trkpt>
      <trkpt lat="45.3957" lon="3.39405">
        <ele>606.8</ele>
        <time>2020-09-17T13:59:52Z</time>
      </trkpt>
      <trkpt lat="45.39569" lon="3.39405">
        <ele>606.6</ele>
        <time>2020-09-17T13:59:53Z</time>
      </trkpt>
      <trkpt lat="45.39567" lon="3.39405">
        <ele>606.5</ele>
        <time>2020-09-17T13:59:54Z</time>
      </trkpt>
      <trkpt lat="45.39566" lon="3.39405">
        <ele>606.4</ele>
        <time>2020-09-17T13:59:55Z</time>
      </trkpt>
      <trkpt lat="45.39565" lon="3.39405">
        <ele>606.2</ele>
        <time>2020-09-17T13:59:56Z</time>
      </trkpt>
      <trkpt lat="45.39563" lon="3.39406">
        <ele>606</ele>
        <time>2020-09-17T13:59:57Z</time>
      </trkpt>
      <trkpt lat="45.39562" lon="3.39406">
        <ele>605.9</ele>
        <time>2020-09-17T13:59:58Z</time>
      </trkpt>
      <trkpt lat="45.39561" lon="3.39406">
        <ele>605.7</ele>
        <time>2020-09-17T13:59:59Z</time>
      </trkpt>
      <trkpt lat="45.39559" lon="3.39406">
        <ele>605.5</ele>
        <time>2020-09-17T14:00:00Z</time>
      </trkpt>
      <trkpt lat="45.39558" lon="3.39406">
        <ele>605.4</ele>
        <time>2020-09-17T14:00:01Z</time>
      </trkpt>
      <trkpt lat="45.39557" lon="3.39406">
        <ele>605.3</ele>
        <time>2020-09-17T14:00:02Z</time>
      </trkpt>
      <trkpt lat="45.39555" lon="3.39406">
        <ele>605.2</ele>
        <time>2020-09-17T14:00:03Z</time>
      </trkpt>
      <trkpt lat="45.39554" lon="3.39406">
        <ele>605</ele>
        <time>2020-09-17T14:00:04Z</time>
      </trkpt>
      <trkpt lat="45.39553" lon="3.39406">
        <ele>605</ele>
        <time>2020-09-17T14:00:05Z</time>
      </trkpt>
      <trkpt lat="45.39552" lon="3.39406">
        <ele>604.9</ele>
        <time>2020-09-17T14:00:06Z</time>
      </trkpt>
      <trkpt lat="45.39551" lon="3.39406">
        <ele>604.7</ele>
        <time>2020-09-17T14:00:07Z</time>
      </trkpt>
      <trkpt lat="45.3955" lon="3.39406">
        <ele>604.6</ele>
        <time>2020-09-17T14:00:08Z</time>
      </trkpt>
      <trkpt lat="45.39548" lon="3.39406">
        <ele>604.5</ele>
        <time>2020-09-17T14:00:09Z</time>
      </trkpt>
      <trkpt lat="45.39547" lon="3.39406">
        <ele>604.4</ele>
        <time>2020-09-17T14:00:10Z</time>
      </trkpt>
      <trkpt lat="45.39546" lon="3.39406">
        <ele>604.4</ele>
        <time>2020-09-17T14:00:11Z</time>
      </trkpt>
      <trkpt lat="45.39545" lon="3.39406">
        <ele>604.3</ele>
        <time>2020-09-17T14:00:12Z</time>
      </trkpt>
      <trkpt lat="45.39544" lon="3.39406">
        <ele>604.2</ele>
        <time>2020-09-17T14:00:13Z</time>
      </trkpt>
      <trkpt lat="45.39543" lon="3.39405">
        <ele>604.1</ele>
        <time>2020-09-17T14:00:14Z</time>
      </trkpt>
      <trkpt lat="45.39541" lon="3.39405">
        <ele>604</ele>
        <time>2020-09-17T14:00:15Z</time>
      </trkpt>
      <trkpt lat="45.3954" lon="3.39406">
        <ele>603.9</ele>
        <time>2020-09-17T14:00:16Z</time>
      </trkpt>
      <trkpt lat="45.39539" lon="3.39406">
        <ele>603.7</ele>
        <time>2020-09-17T14:00:17Z</time>
      </trkpt>
      <trkpt lat="45.39538" lon="3.39406">
        <ele>603.6</ele>
        <time>2020-09-17T14:00:18Z</time>
      </trkpt>
      <trkpt lat="45.39536" lon="3.39406">
        <ele>603.5</ele>
        <time>2020-09-17T14:00:19Z</time>
      </trkpt>
      <trkpt lat="45.39535" lon="3.39406">
        <ele>603.4</ele>
        <time>2020-09-17T14:00:20Z</time>
      </trkpt>
      <trkpt lat="45.39534" lon="3.39406">
        <ele>603.3</ele>
        <time>2020-09-17T14:00:21Z</time>
      </trkpt>
      <trkpt lat="45.39532" lon="3.39406">
        <ele>603.2</ele>
        <time>2020-09-17T14:00:22Z</time>
      </trkpt>
      <trkpt lat="45.39531" lon="3.39406">
        <ele>603.1</ele>
        <time>2020-09-17T14:00:23Z</time>
      </trkpt>
      <trkpt lat="45.3953" lon="3.39406">
        <ele>602.9</ele>
        <time>2020-09-17T14:00:24Z</time>
      </trkpt>
      <trkpt lat="45.39529" lon="3.39406">
        <ele>602.8</ele>
        <time>2020-09-17T14:00:25Z</time>
      </trkpt>
      <trkpt lat="45.39527" lon="3.39406">
        <ele>602.7</ele>
        <time>2020-09-17T14:00:26Z</time>
      </trkpt>
      <trkpt lat="45.39526" lon="3.39406">
        <ele>602.7</ele>
        <time>2020-09-17T14:00:27Z</time>
      </trkpt>
      <trkpt lat="45.39525" lon="3.39406">
        <ele>602.6</ele>
        <time>2020-09-17T14:00:28Z</time>
      </trkpt>
      <trkpt lat="45.39524" lon="3.39406">
        <ele>602.5</ele>
        <time>2020-09-17T14:00:29Z</time>
      </trkpt>
      <trkpt lat="45.39522" lon="3.39406">
        <ele>602.4</ele>
        <time>2020-09-17T14:00:30Z</time>
      </trkpt>
      <trkpt lat="45.39521" lon="3.39407">
        <ele>602.3</ele>
        <time>2020-09-17T14:00:31Z</time>
      </trkpt>
      <trkpt lat="45.3952" lon="3.39407">
        <ele>602.2</ele>
        <time>2020-09-17T14:00:32Z</time>
      </trkpt>
      <trkpt lat="45.39519" lon="3.39407">
        <ele>602.1</ele>
        <time>2020-09-17T14:00:33Z</time>
      </trkpt>
      <trkpt lat="45.39517" lon="3.39407">
        <ele>602.1</ele>
        <time>2020-09-17T14:00:34Z</time>
      </trkpt>
      <trkpt lat="45.39516" lon="3.39407">
        <ele>602</ele>
        <time>2020-09-17T14:00:35Z</time>
      </trkpt>
      <trkpt lat="45.39515" lon="3.39407">
        <ele>601.9</ele>
        <time>2020-09-17T14:00:36Z</time>
      </trkpt>
      <trkpt lat="45.39514" lon="3.39407">
        <ele>601.8</ele>
        <time>2020-09-17T14:00:37Z</time>
      </trkpt>
      <trkpt lat="45.39513" lon="3.39407">
        <ele>601.8</ele>
        <time>2020-09-17T14:00:38Z</time>
      </trkpt>
      <trkpt lat="45.39511" lon="3.39406">
        <ele>601.7</ele>
        <time>2020-09-17T14:00:39Z</time>
      </trkpt>
      <trkpt lat="45.3951" lon="3.39406">
        <ele>601.7</ele>
        <time>2020-09-17T14:00:40Z</time>
      </trkpt>
      <trkpt lat="45.39509" lon="3.39406">
        <ele>601.6</ele>
        <time>2020-09-17T14:00:41Z</time>
      </trkpt>
      <trkpt lat="45.39508" lon="3.39405">
        <ele>601.5</ele>
        <time>2020-09-17T14:00:42Z</time>
      </trkpt>
      <trkpt lat="45.39507" lon="3.39405">
        <ele>601.5</ele>
        <time>2020-09-17T14:00:43Z</time>
      </trkpt>
      <trkpt lat="45.39506" lon="3.39405">
        <ele>601.4</ele>
        <time>2020-09-17T14:00:44Z</time>
      </trkpt>
      <trkpt lat="45.39505" lon="3.39405">
        <ele>601.3</ele>
        <time>2020-09-17T14:00:45Z</time>
      </trkpt>
      <trkpt lat="45.39504" lon="3.39404">
        <ele>601.2</ele>
        <time>2020-09-17T14:00:46Z</time>
      </trkpt>
      <trkpt lat="45.39502" lon="3.39404">
        <ele>601.2</ele>
        <time>2020-09-17T14:00:47Z</time>
      </trkpt>
      <trkpt lat="45.39501" lon="3.39404">
        <ele>601.1</ele>
        <time>2020-09-17T14:00:48Z</time>
      </trkpt>
      <trkpt lat="45.395" lon="3.39405">
        <ele>600.9</ele>
        <time>2020-09-17T14:00:49Z</time>
      </trkpt>
      <trkpt lat="45.39499" lon="3.39404">
        <ele>600.7</ele>
        <time>2020-09-17T14:00:50Z</time>
      </trkpt>
      <trkpt lat="45.39497" lon="3.39404">
        <ele>600.6</ele>
        <time>2020-09-17T14:00:51Z</time>
      </trkpt>
      <trkpt lat="45.39496" lon="3.39404">
        <ele>600.4</ele>
        <time>2020-09-17T14:00:52Z</time>
      </trkpt>
      <trkpt lat="45.39496" lon="3.39404">
        <ele>600.2</ele>
        <time>2020-09-17T14:00:53Z</time>
      </trkpt>
      <trkpt lat="45.39495" lon="3.39404">
        <ele>600.1</ele>
        <time>2020-09-17T14:00:54Z</time>
      </trkpt>
      <trkpt lat="45.39494" lon="3.39404">
        <ele>599.9</ele>
        <time>2020-09-17T14:00:55Z</time>
      </trkpt>
      <trkpt lat="45.39492" lon="3.39404">
        <ele>599.7</ele>
        <time>2020-09-17T14:00:56Z</time>
      </trkpt>
      <trkpt lat="45.39491" lon="3.39403">
        <ele>599.6</ele>
        <time>2020-09-17T14:00:57Z</time>
      </trkpt>
      <trkpt lat="45.3949" lon="3.39403">
        <ele>599.4</ele>
        <time>2020-09-17T14:00:58Z</time>
      </trkpt>
      <trkpt lat="45.39489" lon="3.39403">
        <ele>599.2</ele>
        <time>2020-09-17T14:00:59Z</time>
      </trkpt>
      <trkpt lat="45.39488" lon="3.39403">
        <ele>599</ele>
        <time>2020-09-17T14:01:00Z</time>
      </trkpt>
      <trkpt lat="45.39487" lon="3.39403">
        <ele>598.8</ele>
        <time>2020-09-17T14:01:01Z</time>
      </trkpt>
      <trkpt lat="45.39486" lon="3.39403">
        <ele>598.7</ele>
        <time>2020-09-17T14:01:02Z</time>
      </trkpt>
      <trkpt lat="45.39484" lon="3.39403">
        <ele>598.5</ele>
        <time>2020-09-17T14:01:03Z</time>
      </trkpt>
      <trkpt lat="45.39483" lon="3.39403">
        <ele>598.3</ele>
        <time>2020-09-17T14:01:04Z</time>
      </trkpt>
      <trkpt lat="45.39482" lon="3.39402">
        <ele>598.1</ele>
        <time>2020-09-17T14:01:05Z</time>
      </trkpt>
      <trkpt lat="45.39481" lon="3.39402">
        <ele>598</ele>
        <time>2020-09-17T14:01:06Z</time>
      </trkpt>
      <trkpt lat="45.3948" lon="3.39402">
        <ele>597.8</ele>
        <time>2020-09-17T14:01:07Z</time>
      </trkpt>
      <trkpt lat="45.39479" lon="3.39401">
        <ele>597.7</ele>
        <time>2020-09-17T14:01:08Z</time>
      </trkpt>
      <trkpt lat="45.39478" lon="3.39401">
        <ele>597.6</ele>
        <time>2020-09-17T14:01:09Z</time>
      </trkpt>
      <trkpt lat="45.39477" lon="3.39401">
        <ele>597.4</ele>
        <time>2020-09-17T14:01:10Z</time>
      </trkpt>
      <trkpt lat="45.39476" lon="3.394">
        <ele>597.3</ele>
        <time>2020-09-17T14:01:11Z</time>
      </trkpt>
      <trkpt lat="45.39475" lon="3.394">
        <ele>597.2</ele>
        <time>2020-09-17T14:01:12Z</time>
      </trkpt>
      <trkpt lat="45.39474" lon="3.39399">
        <ele>597.1</ele>
        <time>2020-09-17T14:01:13Z</time>
      </trkpt>
      <trkpt lat="45.39473" lon="3.39399">
        <ele>597</ele>
        <time>2020-09-17T14:01:14Z</time>
      </trkpt>
      <trkpt lat="45.39472" lon="3.39398">
        <ele>596.9</ele>
        <time>2020-09-17T14:01:15Z</time>
      </trkpt>
      <trkpt lat="45.39471" lon="3.39397">
        <ele>596.9</ele>
        <time>2020-09-17T14:01:16Z</time>
      </trkpt>
      <trkpt lat="45.3947" lon="3.39397">
        <ele>596.8</ele>
        <time>2020-09-17T14:01:17Z</time>
      </trkpt>
      <trkpt lat="45.39469" lon="3.39396">
        <ele>596.7</ele>
        <time>2020-09-17T14:01:18Z</time>
      </trkpt>
      <trkpt lat="45.39468" lon="3.39396">
        <ele>596.5</ele>
        <time>2020-09-17T14:01:19Z</time>
      </trkpt>
      <trkpt lat="45.39467" lon="3.39395">
        <ele>596.4</ele>
        <time>2020-09-17T14:01:20Z</time>
      </trkpt>
      <trkpt lat="45.39465" lon="3.39395">
        <ele>596.2</ele>
        <time>2020-09-17T14:01:21Z</time>
      </trkpt>
      <trkpt lat="45.39464" lon="3.39395">
        <ele>596</ele>
        <time>2020-09-17T14:01:22Z</time>
      </trkpt>
      <trkpt lat="45.39463" lon="3.39395">
        <ele>595.8</ele>
        <time>2020-09-17T14:01:23Z</time>
      </trkpt>
      <trkpt lat="45.39462" lon="3.39395">
        <ele>595.5</ele>
        <time>2020-09-17T14:01:24Z</time>
      </trkpt>
      <trkpt lat="45.3946" lon="3.39394">
        <ele>595.4</ele>
        <time>2020-09-17T14:01:25Z</time>
      </trkpt>
      <trkpt lat="45.39459" lon="3.39394">
        <ele>595.2</ele>
        <time>2020-09-17T14:01:26Z</time>
      </trkpt>
      <trkpt lat="45.39458" lon="3.39394">
        <ele>595</ele>
        <time>2020-09-17T14:01:27Z</time>
      </trkpt>
      <trkpt lat="45.39457" lon="3.39393">
        <ele>594.9</ele>
        <time>2020-09-17T14:01:28Z</time>
      </trkpt>
      <trkpt lat="45.39456" lon="3.39393">
        <ele>594.7</ele>
        <time>2020-09-17T14:01:29Z</time>
      </trkpt>
      <trkpt lat="45.39455" lon="3.39392">
        <ele>594.6</ele>
        <time>2020-09-17T14:01:30Z</time>
      </trkpt>
      <trkpt lat="45.39454" lon="3.39392">
        <ele>594.4</ele>
        <time>2020-09-17T14:01:31Z</time>
      </trkpt>
      <trkpt lat="45.39452" lon="3.39391">
        <ele>594.2</ele>
        <time>2020-09-17T14:01:32Z</time>
      </trkpt>
      <trkpt lat="45.39451" lon="3.39391">
        <ele>594</ele>
        <time>2020-09-17T14:01:33Z</time>
      </trkpt>
      <trkpt lat="45.3945" lon="3.39391">
        <ele>593.8</ele>
        <time>2020-09-17T14:01:34Z</time>
      </trkpt>
      <trkpt lat="45.39449" lon="3.39391">
        <ele>593.6</ele>
        <time>2020-09-17T14:01:35Z</time>
      </trkpt>
      <trkpt lat="45.39448" lon="3.39391">
        <ele>593.4</ele>
        <time>2020-09-17T14:01:36Z</time>
      </trkpt>
      <trkpt lat="45.39446" lon="3.3939">
        <ele>593.2</ele>
        <time>2020-09-17T14:01:37Z</time>
      </trkpt>
      <trkpt lat="45.39445" lon="3.3939">
        <ele>593.1</ele>
        <time>2020-09-17T14:01:38Z</time>
      </trkpt>
      <trkpt lat="45.39444" lon="3.3939">
        <ele>592.9</ele>
        <time>2020-09-17T14:01:39Z</time>
      </trkpt>
      <trkpt lat="45.39443" lon="3.39389">
        <ele>592.9</ele>
        <time>2020-09-17T14:01:40Z</time>
      </trkpt>
      <trkpt lat="45.39442" lon="3.39389">
        <ele>592.9</ele>
        <time>2020-09-17T14:01:41Z</time>
      </trkpt>
      <trkpt lat="45.39441" lon="3.39388">
        <ele>593</ele>
        <time>2020-09-17T14:01:42Z</time>
      </trkpt>
      <trkpt lat="45.3944" lon="3.39388">
        <ele>593</ele>
        <time>2020-09-17T14:01:43Z</time>
      </trkpt>
      <trkpt lat="45.39439" lon="3.39388">
        <ele>593.1</ele>
        <time>2020-09-17T14:01:44Z</time>
      </trkpt>
      <trkpt lat="45.39438" lon="3.39387">
        <ele>593.1</ele>
        <time>2020-09-17T14:01:45Z</time>
      </trkpt>
      <trkpt lat="45.39437" lon="3.39387">
        <ele>593.1</ele>
        <time>2020-09-17T14:01:46Z</time>
      </trkpt>
      <trkpt lat="45.39436" lon="3.39387">
        <ele>593.1</ele>
        <time>2020-09-17T14:01:47Z</time>
      </trkpt>
      <trkpt lat="45.39435" lon="3.39387">
        <ele>593.1</ele>
        <time>2020-09-17T14:01:48Z</time>
      </trkpt>
      <trkpt lat="45.39434" lon="3.39386">
        <ele>593</ele>
        <time>2020-09-17T14:01:49Z</time>
      </trkpt>
      <trkpt lat="45.39433" lon="3.39386">
        <ele>593</ele>
        <time>2020-09-17T14:01:50Z</time>
      </trkpt>
      <trkpt lat="45.39432" lon="3.39386">
        <ele>593</ele>
        <time>2020-09-17T14:01:51Z</time>
      </trkpt>
      <trkpt lat="45.39431" lon="3.39387">
        <ele>592.9</ele>
        <time>2020-09-17T14:01:52Z</time>
      </trkpt>
      <trkpt lat="45.39429" lon="3.39387">
        <ele>592.8</ele>
        <time>2020-09-17T14:01:53Z</time>
      </trkpt>
      <trkpt lat="45.39428" lon="3.39386">
        <ele>592.8</ele>
        <time>2020-09-17T14:01:54Z</time>
      </trkpt>
      <trkpt lat="45.39427" lon="3.39386">
        <ele>592.8</ele>
        <time>2020-09-17T14:01:55Z</time>
      </trkpt>
      <trkpt lat="45.39426" lon="3.39386">
        <ele>592.7</ele>
        <time>2020-09-17T14:01:56Z</time>
      </trkpt>
      <trkpt lat="45.39425" lon="3.39386">
        <ele>592.7</ele>
        <time>2020-09-17T14:01:57Z</time>
      </trkpt>
      <trkpt lat="45.39424" lon="3.39386">
        <ele>592.7</ele>
        <time>2020-09-17T14:01:58Z</time>
      </trkpt>
      <trkpt lat="45.39423" lon="3.39386">
        <ele>592.7</ele>
        <time>2020-09-17T14:01:59Z</time>
      </trkpt>
      <trkpt lat="45.39422" lon="3.39386">
        <ele>592.6</ele>
        <time>2020-09-17T14:02:00Z</time>
      </trkpt>
      <trkpt lat="45.39421" lon="3.39385">
        <ele>592.6</ele>
        <time>2020-09-17T14:02:01Z</time>
      </trkpt>
      <trkpt lat="45.3942" lon="3.39386">
        <ele>592.5</ele>
        <time>2020-09-17T14:02:02Z</time>
      </trkpt>
      <trkpt lat="45.39419" lon="3.39386">
        <ele>592.5</ele>
        <time>2020-09-17T14:02:03Z</time>
      </trkpt>
      <trkpt lat="45.39418" lon="3.39386">
        <ele>592.4</ele>
        <time>2020-09-17T14:02:04Z</time>
      </trkpt>
      <trkpt lat="45.39417" lon="3.39386">
        <ele>592.3</ele>
        <time>2020-09-17T14:02:05Z</time>
      </trkpt>
      <trkpt lat="45.39416" lon="3.39386">
        <ele>592.2</ele>
        <time>2020-09-17T14:02:06Z</time>
      </trkpt>
      <trkpt lat="45.39415" lon="3.39385">
        <ele>592.2</ele>
        <time>2020-09-17T14:02:07Z</time>
      </trkpt>
      <trkpt lat="45.39414" lon="3.39385">
        <ele>592.1</ele>
        <time>2020-09-17T14:02:08Z</time>
      </trkpt>
      <trkpt lat="45.39413" lon="3.39385">
        <ele>592</ele>
        <time>2020-09-17T14:02:09Z</time>
      </trkpt>
      <trkpt lat="45.39412" lon="3.39384">
        <ele>592</ele>
        <time>2020-09-17T14:02:10Z</time>
      </trkpt>
      <trkpt lat="45.39411" lon="3.39384">
        <ele>591.8</ele>
        <time>2020-09-17T14:02:11Z</time>
      </trkpt>
      <trkpt lat="45.3941" lon="3.39384">
        <ele>591.7</ele>
        <time>2020-09-17T14:02:12Z</time>
      </trkpt>
      <trkpt lat="45.39409" lon="3.39384">
        <ele>591.6</ele>
        <time>2020-09-17T14:02:13Z</time>
      </trkpt>
      <trkpt lat="45.39408" lon="3.39384">
        <ele>591.5</ele>
        <time>2020-09-17T14:02:14Z</time>
      </trkpt>
      <trkpt lat="45.39407" lon="3.39384">
        <ele>591.4</ele>
        <time>2020-09-17T14:02:15Z</time>
      </trkpt>
      <trkpt lat="45.39407" lon="3.39384">
        <ele>591.3</ele>
        <time>2020-09-17T14:02:16Z</time>
      </trkpt>
      <trkpt lat="45.39406" lon="3.39384">
        <ele>591.3</ele>
        <time>2020-09-17T14:02:17Z</time>
      </trkpt>
      <trkpt lat="45.39405" lon="3.39383">
        <ele>591.2</ele>
        <time>2020-09-17T14:02:18Z</time>
      </trkpt>
      <trkpt lat="45.39405" lon="3.39384">
        <ele>591.1</ele>
        <time>2020-09-17T14:02:19Z</time>
      </trkpt>
      <trkpt lat="45.39404" lon="3.39384">
        <ele>591</ele>
        <time>2020-09-17T14:02:20Z</time>
      </trkpt>
      <trkpt lat="45.39403" lon="3.39384">
        <ele>590.9</ele>
        <time>2020-09-17T14:02:21Z</time>
      </trkpt>
      <trkpt lat="45.39403" lon="3.39384">
        <ele>590.9</ele>
        <time>2020-09-17T14:02:22Z</time>
      </trkpt>
      <trkpt lat="45.39403" lon="3.39384">
        <ele>590.8</ele>
        <time>2020-09-17T14:02:23Z</time>
      </trkpt>
      <trkpt lat="45.39403" lon="3.39385">
        <ele>590.8</ele>
        <time>2020-09-17T14:02:24Z</time>
      </trkpt>
      <trkpt lat="45.39403" lon="3.39385">
        <ele>590.8</ele>
        <time>2020-09-17T14:02:25Z</time>
      </trkpt>
      <trkpt lat="45.39403" lon="3.39385">
        <ele>590.7</ele>
        <time>2020-09-17T14:02:26Z</time>
      </trkpt>
      <trkpt lat="45.39402" lon="3.39386">
        <ele>590.7</ele>
        <time>2020-09-17T14:02:27Z</time>
      </trkpt>
      <trkpt lat="45.39402" lon="3.39386">
        <ele>590.6</ele>
        <time>2020-09-17T14:02:28Z</time>
      </trkpt>
      <trkpt lat="45.39402" lon="3.39386">
        <ele>590.6</ele>
        <time>2020-09-17T14:02:29Z</time>
      </trkpt>
      <trkpt lat="45.39402" lon="3.39386">
        <ele>590.6</ele>
        <time>2020-09-17T14:02:30Z</time>
      </trkpt>
      <trkpt lat="45.39402" lon="3.39386">
        <ele>590.6</ele>
        <time>2020-09-17T14:02:31Z</time>
      </trkpt>
      <trkpt lat="45.39402" lon="3.39386">
        <ele>590.6</ele>
        <time>2020-09-17T14:02:32Z</time>
      </trkpt>
      <trkpt lat="45.39402" lon="3.39386">
        <ele>590.6</ele>
        <time>2020-09-17T14:02:33Z</time>
      </trkpt>
      <trkpt lat="45.39402" lon="3.39386">
        <ele>590.6</ele>
        <time>2020-09-17T14:02:34Z</time>
      </trkpt>
      <trkpt lat="45.39402" lon="3.39386">
        <ele>590.6</ele>
        <time>2020-09-17T14:02:35Z</time>
      </trkpt>
      <trkpt lat="45.39401" lon="3.39385">
        <ele>590.6</ele>
        <time>2020-09-17T14:02:36Z</time>
      </trkpt>
      <trkpt lat="45.39401" lon="3.39385">
        <ele>590.6</ele>
        <time>2020-09-17T14:02:37Z</time>
      </trkpt>
      <trkpt lat="45.39401" lon="3.39385">
        <ele>590.5</ele>
        <time>2020-09-17T14:02:38Z</time>
      </trkpt>
      <trkpt lat="45.394" lon="3.39385">
        <ele>590.5</ele>
        <time>2020-09-17T14:02:39Z</time>
      </trkpt>
      <trkpt lat="45.394" lon="3.39385">
        <ele>590.4</ele>
        <time>2020-09-17T14:02:40Z</time>
      </trkpt>
      <trkpt lat="45.39399" lon="3.39386">
        <ele>590.3</ele>
        <time>2020-09-17T14:02:41Z</time>
      </trkpt>
      <trkpt lat="45.39399" lon="3.39386">
        <ele>590.2</ele>
        <time>2020-09-17T14:02:42Z</time>
      </trkpt>
      <trkpt lat="45.39399" lon="3.39386">
        <ele>590.2</ele>
        <time>2020-09-17T14:02:43Z</time>
      </trkpt>
      <trkpt lat="45.39399" lon="3.39387">
        <ele>590.2</ele>
        <time>2020-09-17T14:02:44Z</time>
      </trkpt>
      <trkpt lat="45.39398" lon="3.39387">
        <ele>590.2</ele>
        <time>2020-09-17T14:02:45Z</time>
      </trkpt>
      <trkpt lat="45.39398" lon="3.39386">
        <ele>590.2</ele>
        <time>2020-09-17T14:02:46Z</time>
      </trkpt>
      <trkpt lat="45.39399" lon="3.39386">
        <ele>590.2</ele>
        <time>2020-09-17T14:02:47Z</time>
      </trkpt>
      <trkpt lat="45.39399" lon="3.39386">
        <ele>590.2</ele>
        <time>2020-09-17T14:02:48Z</time>
      </trkpt>
      <trkpt lat="45.39399" lon="3.39386">
        <ele>590.2</ele>
        <time>2020-09-17T14:02:49Z</time>
      </trkpt>
      <trkpt lat="45.39398" lon="3.39385">
        <ele>590.2</ele>
        <time>2020-09-17T14:02:50Z</time>
      </trkpt>
      <trkpt lat="45.39398" lon="3.39385">
        <ele>590.2</ele>
        <time>2020-09-17T14:02:51Z</time>
      </trkpt>
      <trkpt lat="45.39399" lon="3.39385">
        <ele>590.3</ele>
        <time>2020-09-17T14:02:52Z</time>
      </trkpt>
      <trkpt lat="45.39402" lon="3.39378">
        <ele>591.2</ele>
        <time>2020-09-17T14:02:53Z</time>
      </trkpt>
      <trkpt lat="45.39402" lon="3.39377">
        <ele>591.3</ele>
        <time>2020-09-17T14:02:54Z</time>
      </trkpt>
      <trkpt lat="45.39403" lon="3.39376">
        <ele>591.4</ele>
        <time>2020-09-17T14:02:55Z</time>
      </trkpt>
      <trkpt lat="45.39403" lon="3.39375">
        <ele>591.6</ele>
        <time>2020-09-17T14:02:56Z</time>
      </trkpt>
      <trkpt lat="45.39404" lon="3.39374">
        <ele>591.7</ele>
        <time>2020-09-17T14:02:57Z</time>
      </trkpt>
      <trkpt lat="45.39404" lon="3.39373">
        <ele>591.8</ele>
        <time>2020-09-17T14:02:58Z</time>
      </trkpt>
      <trkpt lat="45.39404" lon="3.39372">
        <ele>592</ele>
        <time>2020-09-17T14:02:59Z</time>
      </trkpt>
      <trkpt lat="45.39404" lon="3.39371">
        <ele>592.1</ele>
        <time>2020-09-17T14:03:00Z</time>
      </trkpt>
      <trkpt lat="45.39405" lon="3.39369">
        <ele>592.2</ele>
        <time>2020-09-17T14:03:01Z</time>
      </trkpt>
      <trkpt lat="45.39405" lon="3.39368">
        <ele>592.3</ele>
        <time>2020-09-17T14:03:02Z</time>
      </trkpt>
      <trkpt lat="45.39405" lon="3.39367">
        <ele>592.5</ele>
        <time>2020-09-17T14:03:03Z</time>
      </trkpt>
      <trkpt lat="45.39405" lon="3.39366">
        <ele>592.6</ele>
        <time>2020-09-17T14:03:04Z</time>
      </trkpt>
      <trkpt lat="45.39405" lon="3.39365">
        <ele>592.7</ele>
        <time>2020-09-17T14:03:05Z</time>
      </trkpt>
      <trkpt lat="45.39406" lon="3.39363">
        <ele>592.8</ele>
        <time>2020-09-17T14:03:06Z</time>
      </trkpt>
      <trkpt lat="45.39406" lon="3.39362">
        <ele>592.9</ele>
        <time>2020-09-17T14:03:07Z</time>
      </trkpt>
      <trkpt lat="45.39406" lon="3.39361">
        <ele>593.1</ele>
        <time>2020-09-17T14:03:08Z</time>
      </trkpt>
      <trkpt lat="45.39406" lon="3.3936">
        <ele>593.1</ele>
        <time>2020-09-17T14:03:09Z</time>
      </trkpt>
      <trkpt lat="45.39407" lon="3.39359">
        <ele>593.1</ele>
        <time>2020-09-17T14:03:10Z</time>
      </trkpt>
      <trkpt lat="45.39407" lon="3.39358">
        <ele>593.1</ele>
        <time>2020-09-17T14:03:11Z</time>
      </trkpt>
      <trkpt lat="45.39407" lon="3.39357">
        <ele>593.1</ele>
        <time>2020-09-17T14:03:12Z</time>
      </trkpt>
      <trkpt lat="45.39407" lon="3.39356">
        <ele>593.1</ele>
        <time>2020-09-17T14:03:13Z</time>
      </trkpt>
      <trkpt lat="45.39408" lon="3.39355">
        <ele>593.1</ele>
        <time>2020-09-17T14:03:14Z</time>
      </trkpt>
      <trkpt lat="45.39408" lon="3.39354">
        <ele>593.1</ele>
        <time>2020-09-17T14:03:15Z</time>
      </trkpt>
      <trkpt lat="45.39408" lon="3.39352">
        <ele>593.1</ele>
        <time>2020-09-17T14:03:16Z</time>
      </trkpt>
      <trkpt lat="45.39408" lon="3.39351">
        <ele>593.1</ele>
        <time>2020-09-17T14:03:17Z</time>
      </trkpt>
      <trkpt lat="45.39409" lon="3.3935">
        <ele>593.2</ele>
        <time>2020-09-17T14:03:18Z</time>
      </trkpt>
      <trkpt lat="45.39409" lon="3.39349">
        <ele>593.2</ele>
        <time>2020-09-17T14:03:19Z</time>
      </trkpt>
      <trkpt lat="45.3941" lon="3.39348">
        <ele>593.3</ele>
        <time>2020-09-17T14:03:20Z</time>
      </trkpt>
      <trkpt lat="45.3941" lon="3.39347">
        <ele>593.3</ele>
        <time>2020-09-17T14:03:21Z</time>
      </trkpt>
      <trkpt lat="45.3941" lon="3.39345">
        <ele>593.3</ele>
        <time>2020-09-17T14:03:22Z</time>
      </trkpt>
      <trkpt lat="45.39411" lon="3.39344">
        <ele>593.3</ele>
        <time>2020-09-17T14:03:23Z</time>
      </trkpt>
      <trkpt lat="45.39411" lon="3.39343">
        <ele>593.3</ele>
        <time>2020-09-17T14:03:24Z</time>
      </trkpt>
      <trkpt lat="45.39411" lon="3.39342">
        <ele>593.3</ele>
        <time>2020-09-17T14:03:25Z</time>
      </trkpt>
      <trkpt lat="45.39411" lon="3.39342">
        <ele>593.2</ele>
        <time>2020-09-17T14:03:26Z</time>
      </trkpt>
      <trkpt lat="45.3941" lon="3.39341">
        <ele>593.1</ele>
        <time>2020-09-17T14:03:27Z</time>
      </trkpt>
      <trkpt lat="45.39409" lon="3.3934">
        <ele>592.9</ele>
        <time>2020-09-17T14:03:28Z</time>
      </trkpt>
      <trkpt lat="45.39409" lon="3.39339">
        <ele>592.8</ele>
        <time>2020-09-17T14:03:29Z</time>
      </trkpt>
      <trkpt lat="45.39408" lon="3.39338">
        <ele>592.6</ele>
        <time>2020-09-17T14:03:30Z</time>
      </trkpt>
      <trkpt lat="45.39407" lon="3.39338">
        <ele>592.4</ele>
        <time>2020-09-17T14:03:31Z</time>
      </trkpt>
      <trkpt lat="45.39406" lon="3.39337">
        <ele>592.3</ele>
        <time>2020-09-17T14:03:32Z</time>
      </trkpt>
      <trkpt lat="45.39406" lon="3.39337">
        <ele>592.1</ele>
        <time>2020-09-17T14:03:33Z</time>
      </trkpt>
      <trkpt lat="45.39405" lon="3.39336">
        <ele>592</ele>
        <time>2020-09-17T14:03:34Z</time>
      </trkpt>
      <trkpt lat="45.39404" lon="3.39335">
        <ele>591.8</ele>
        <time>2020-09-17T14:03:35Z</time>
      </trkpt>
      <trkpt lat="45.39404" lon="3.39334">
        <ele>591.7</ele>
        <time>2020-09-17T14:03:36Z</time>
      </trkpt>
      <trkpt lat="45.39403" lon="3.39334">
        <ele>591.5</ele>
        <time>2020-09-17T14:03:37Z</time>
      </trkpt>
      <trkpt lat="45.39402" lon="3.39333">
        <ele>591.4</ele>
        <time>2020-09-17T14:03:38Z</time>
      </trkpt>
      <trkpt lat="45.39402" lon="3.39333">
        <ele>591.2</ele>
        <time>2020-09-17T14:03:39Z</time>
      </trkpt>
      <trkpt lat="45.39401" lon="3.39333">
        <ele>591.1</ele>
        <time>2020-09-17T14:03:40Z</time>
      </trkpt>
      <trkpt lat="45.394" lon="3.39332">
        <ele>590.9</ele>
        <time>2020-09-17T14:03:41Z</time>
      </trkpt>
      <trkpt lat="45.39399" lon="3.39332">
        <ele>590.8</ele>
        <time>2020-09-17T14:03:42Z</time>
      </trkpt>
      <trkpt lat="45.39399" lon="3.39331">
        <ele>590.6</ele>
        <time>2020-09-17T14:03:43Z</time>
      </trkpt>
      <trkpt lat="45.39398" lon="3.39331">
        <ele>590.5</ele>
        <time>2020-09-17T14:03:44Z</time>
      </trkpt>
      <trkpt lat="45.39397" lon="3.39331">
        <ele>590.3</ele>
        <time>2020-09-17T14:03:45Z</time>
      </trkpt>
      <trkpt lat="45.39397" lon="3.3933">
        <ele>590.2</ele>
        <time>2020-09-17T14:03:46Z</time>
      </trkpt>
      <trkpt lat="45.39396" lon="3.3933">
        <ele>590.1</ele>
        <time>2020-09-17T14:03:47Z</time>
      </trkpt>
      <trkpt lat="45.39395" lon="3.3933">
        <ele>589.9</ele>
        <time>2020-09-17T14:03:48Z</time>
      </trkpt>
      <trkpt lat="45.39395" lon="3.3933">
        <ele>589.8</ele>
        <time>2020-09-17T14:03:49Z</time>
      </trkpt>
      <trkpt lat="45.39394" lon="3.39329">
        <ele>589.7</ele>
        <time>2020-09-17T14:03:50Z</time>
      </trkpt>
      <trkpt lat="45.39394" lon="3.39329">
        <ele>589.5</ele>
        <time>2020-09-17T14:03:51Z</time>
      </trkpt>
      <trkpt lat="45.39393" lon="3.39329">
        <ele>589.4</ele>
        <time>2020-09-17T14:03:52Z</time>
      </trkpt>
      <trkpt lat="45.39392" lon="3.39328">
        <ele>589.2</ele>
        <time>2020-09-17T14:03:53Z</time>
      </trkpt>
      <trkpt lat="45.39391" lon="3.39328">
        <ele>589</ele>
        <time>2020-09-17T14:03:54Z</time>
      </trkpt>
      <trkpt lat="45.39391" lon="3.39327">
        <ele>588.9</ele>
        <time>2020-09-17T14:03:55Z</time>
      </trkpt>
      <trkpt lat="45.3939" lon="3.39327">
        <ele>588.7</ele>
        <time>2020-09-17T14:03:56Z</time>
      </trkpt>
      <trkpt lat="45.39389" lon="3.39326">
        <ele>588.5</ele>
        <time>2020-09-17T14:03:57Z</time>
      </trkpt>
      <trkpt lat="45.39388" lon="3.39325">
        <ele>588.3</ele>
        <time>2020-09-17T14:03:58Z</time>
      </trkpt>
      <trkpt lat="45.39388" lon="3.39325">
        <ele>588.2</ele>
        <time>2020-09-17T14:03:59Z</time>
      </trkpt>
      <trkpt lat="45.39387" lon="3.39324">
        <ele>588</ele>
        <time>2020-09-17T14:04:00Z</time>
      </trkpt>
      <trkpt lat="45.39387" lon="3.39323">
        <ele>587.8</ele>
        <time>2020-09-17T14:04:01Z</time>
      </trkpt>
      <trkpt lat="45.39386" lon="3.39323">
        <ele>587.6</ele>
        <time>2020-09-17T14:04:02Z</time>
      </trkpt>
      <trkpt lat="45.39385" lon="3.39322">
        <ele>587.5</ele>
        <time>2020-09-17T14:04:03Z</time>
      </trkpt>
      <trkpt lat="45.39384" lon="3.39322">
        <ele>587.3</ele>
        <time>2020-09-17T14:04:04Z</time>
      </trkpt>
      <trkpt lat="45.39384" lon="3.39321">
        <ele>587.1</ele>
        <time>2020-09-17T14:04:05Z</time>
      </trkpt>
      <trkpt lat="45.39383" lon="3.3932">
        <ele>586.9</ele>
        <time>2020-09-17T14:04:06Z</time>
      </trkpt>
      <trkpt lat="45.39382" lon="3.3932">
        <ele>586.7</ele>
        <time>2020-09-17T14:04:07Z</time>
      </trkpt>
      <trkpt lat="45.39381" lon="3.39319">
        <ele>586.5</ele>
        <time>2020-09-17T14:04:08Z</time>
      </trkpt>
      <trkpt lat="45.3938" lon="3.39318">
        <ele>586.4</ele>
        <time>2020-09-17T14:04:09Z</time>
      </trkpt>
      <trkpt lat="45.39379" lon="3.39317">
        <ele>586.2</ele>
        <time>2020-09-17T14:04:10Z</time>
      </trkpt>
      <trkpt lat="45.39378" lon="3.39317">
        <ele>586</ele>
        <time>2020-09-17T14:04:11Z</time>
      </trkpt>
      <trkpt lat="45.39377" lon="3.39316">
        <ele>585.8</ele>
        <time>2020-09-17T14:04:12Z</time>
      </trkpt>
      <trkpt lat="45.39376" lon="3.39315">
        <ele>585.6</ele>
        <time>2020-09-17T14:04:13Z</time>
      </trkpt>
      <trkpt lat="45.39376" lon="3.39315">
        <ele>585.4</ele>
        <time>2020-09-17T14:04:14Z</time>
      </trkpt>
      <trkpt lat="45.39375" lon="3.39314">
        <ele>585.3</ele>
        <time>2020-09-17T14:04:15Z</time>
      </trkpt>
      <trkpt lat="45.39374" lon="3.39314">
        <ele>585.1</ele>
        <time>2020-09-17T14:04:16Z</time>
      </trkpt>
      <trkpt lat="45.39373" lon="3.39313">
        <ele>585</ele>
        <time>2020-09-17T14:04:17Z</time>
      </trkpt>
      <trkpt lat="45.39372" lon="3.39314">
        <ele>584.8</ele>
        <time>2020-09-17T14:04:18Z</time>
      </trkpt>
      <trkpt lat="45.39371" lon="3.39314">
        <ele>584.7</ele>
        <time>2020-09-17T14:04:19Z</time>
      </trkpt>
      <trkpt lat="45.39371" lon="3.39313">
        <ele>584.6</ele>
        <time>2020-09-17T14:04:20Z</time>
      </trkpt>
      <trkpt lat="45.3937" lon="3.39314">
        <ele>584.5</ele>
        <time>2020-09-17T14:04:21Z</time>
      </trkpt>
      <trkpt lat="45.3937" lon="3.39314">
        <ele>584.4</ele>
        <time>2020-09-17T14:04:22Z</time>
      </trkpt>
      <trkpt lat="45.39369" lon="3.39314">
        <ele>584.4</ele>
        <time>2020-09-17T14:04:23Z</time>
      </trkpt>
      <trkpt lat="45.39369" lon="3.39314">
        <ele>584.3</ele>
        <time>2020-09-17T14:04:24Z</time>
      </trkpt>
      <trkpt lat="45.39369" lon="3.39314">
        <ele>584.3</ele>
        <time>2020-09-17T14:04:25Z</time>
      </trkpt>
      <trkpt lat="45.39368" lon="3.39314">
        <ele>584.2</ele>
        <time>2020-09-17T14:04:26Z</time>
      </trkpt>
      <trkpt lat="45.39368" lon="3.39315">
        <ele>584.1</ele>
        <time>2020-09-17T14:04:27Z</time>
      </trkpt>
      <trkpt lat="45.39367" lon="3.39315">
        <ele>583.9</ele>
        <time>2020-09-17T14:04:28Z</time>
      </trkpt>
      <trkpt lat="45.39366" lon="3.39314">
        <ele>583.8</ele>
        <time>2020-09-17T14:04:29Z</time>
      </trkpt>
      <trkpt lat="45.39365" lon="3.39312">
        <ele>583.7</ele>
        <time>2020-09-17T14:04:30Z</time>
      </trkpt>
      <trkpt lat="45.39364" lon="3.39311">
        <ele>583.5</ele>
        <time>2020-09-17T14:04:31Z</time>
      </trkpt>
      <trkpt lat="45.39364" lon="3.3931">
        <ele>583.4</ele>
        <time>2020-09-17T14:04:32Z</time>
      </trkpt>
      <trkpt lat="45.39363" lon="3.39309">
        <ele>583.3</ele>
        <time>2020-09-17T14:04:33Z</time>
      </trkpt>
      <trkpt lat="45.39362" lon="3.39308">
        <ele>583.1</ele>
        <time>2020-09-17T14:04:34Z</time>
      </trkpt>
      <trkpt lat="45.39362" lon="3.39306">
        <ele>583.1</ele>
        <time>2020-09-17T14:04:35Z</time>
      </trkpt>
      <trkpt lat="45.39361" lon="3.39305">
        <ele>583</ele>
        <time>2020-09-17T14:04:36Z</time>
      </trkpt>
      <trkpt lat="45.39361" lon="3.39303">
        <ele>583</ele>
        <time>2020-09-17T14:04:37Z</time>
      </trkpt>
      <trkpt lat="45.3936" lon="3.39302">
        <ele>582.9</ele>
        <time>2020-09-17T14:04:38Z</time>
      </trkpt>
      <trkpt lat="45.3936" lon="3.393">
        <ele>582.9</ele>
        <time>2020-09-17T14:04:39Z</time>
      </trkpt>
      <trkpt lat="45.39359" lon="3.39299">
        <ele>582.9</ele>
        <time>2020-09-17T14:04:40Z</time>
      </trkpt>
      <trkpt lat="45.39359" lon="3.39297">
        <ele>582.9</ele>
        <time>2020-09-17T14:04:41Z</time>
      </trkpt>
      <trkpt lat="45.39358" lon="3.39296">
        <ele>582.9</ele>
        <time>2020-09-17T14:04:42Z</time>
      </trkpt>
      <trkpt lat="45.39358" lon="3.39294">
        <ele>582.8</ele>
        <time>2020-09-17T14:04:43Z</time>
      </trkpt>
      <trkpt lat="45.39357" lon="3.39293">
        <ele>582.8</ele>
        <time>2020-09-17T14:04:44Z</time>
      </trkpt>
      <trkpt lat="45.39357" lon="3.39292">
        <ele>582.8</ele>
        <time>2020-09-17T14:04:45Z</time>
      </trkpt>
      <trkpt lat="45.39356" lon="3.3929">
        <ele>582.8</ele>
        <time>2020-09-17T14:04:46Z</time>
      </trkpt>
      <trkpt lat="45.39356" lon="3.39289">
        <ele>582.8</ele>
        <time>2020-09-17T14:04:47Z</time>
      </trkpt>
      <trkpt lat="45.39355" lon="3.39287">
        <ele>582.8</ele>
        <time>2020-09-17T14:04:48Z</time>
      </trkpt>
      <trkpt lat="45.39355" lon="3.39286">
        <ele>582.9</ele>
        <time>2020-09-17T14:04:49Z</time>
      </trkpt>
      <trkpt lat="45.39354" lon="3.39284">
        <ele>582.9</ele>
        <time>2020-09-17T14:04:50Z</time>
      </trkpt>
      <trkpt lat="45.39354" lon="3.39283">
        <ele>582.9</ele>
        <time>2020-09-17T14:04:51Z</time>
      </trkpt>
      <trkpt lat="45.39353" lon="3.39281">
        <ele>583</ele>
        <time>2020-09-17T14:04:52Z</time>
      </trkpt>
      <trkpt lat="45.39353" lon="3.3928">
        <ele>583.1</ele>
        <time>2020-09-17T14:04:53Z</time>
      </trkpt>
      <trkpt lat="45.39353" lon="3.39278">
        <ele>583.2</ele>
        <time>2020-09-17T14:04:54Z</time>
      </trkpt>
      <trkpt lat="45.39352" lon="3.39277">
        <ele>583.3</ele>
        <time>2020-09-17T14:04:55Z</time>
      </trkpt>
      <trkpt lat="45.39352" lon="3.39275">
        <ele>583.3</ele>
        <time>2020-09-17T14:04:56Z</time>
      </trkpt>
      <trkpt lat="45.39352" lon="3.39273">
        <ele>583.5</ele>
        <time>2020-09-17T14:04:57Z</time>
      </trkpt>
      <trkpt lat="45.39351" lon="3.39272">
        <ele>583.5</ele>
        <time>2020-09-17T14:04:58Z</time>
      </trkpt>
      <trkpt lat="45.39351" lon="3.39271">
        <ele>583.6</ele>
        <time>2020-09-17T14:04:59Z</time>
      </trkpt>
      <trkpt lat="45.39351" lon="3.39269">
        <ele>583.7</ele>
        <time>2020-09-17T14:05:00Z</time>
      </trkpt>
      <trkpt lat="45.3935" lon="3.39268">
        <ele>583.8</ele>
        <time>2020-09-17T14:05:01Z</time>
      </trkpt>
      <trkpt lat="45.3935" lon="3.39266">
        <ele>583.9</ele>
        <time>2020-09-17T14:05:02Z</time>
      </trkpt>
      <trkpt lat="45.3935" lon="3.39264">
        <ele>584.1</ele>
        <time>2020-09-17T14:05:03Z</time>
      </trkpt>
      <trkpt lat="45.39349" lon="3.39263">
        <ele>584.1</ele>
        <time>2020-09-17T14:05:04Z</time>
      </trkpt>
      <trkpt lat="45.39349" lon="3.39262">
        <ele>584.2</ele>
        <time>2020-09-17T14:05:05Z</time>
      </trkpt>
      <trkpt lat="45.39349" lon="3.39262">
        <ele>584.2</ele>
        <time>2020-09-17T14:05:06Z</time>
      </trkpt>
      <trkpt lat="45.39349" lon="3.39262">
        <ele>584.2</ele>
        <time>2020-09-17T14:05:07Z</time>
      </trkpt>
      <trkpt lat="45.39349" lon="3.39262">
        <ele>584</ele>
        <time>2020-09-17T14:05:08Z</time>
      </trkpt>
      <trkpt lat="45.39348" lon="3.39262">
        <ele>583.8</ele>
        <time>2020-09-17T14:05:09Z</time>
      </trkpt>
      <trkpt lat="45.39347" lon="3.39263">
        <ele>583.6</ele>
        <time>2020-09-17T14:05:10Z</time>
      </trkpt>
      <trkpt lat="45.39346" lon="3.39263">
        <ele>583.3</ele>
        <time>2020-09-17T14:05:11Z</time>
      </trkpt>
      <trkpt lat="45.39345" lon="3.39264">
        <ele>583</ele>
        <time>2020-09-17T14:05:12Z</time>
      </trkpt>
      <trkpt lat="45.39344" lon="3.39265">
        <ele>582.7</ele>
        <time>2020-09-17T14:05:13Z</time>
      </trkpt>
      <trkpt lat="45.39344" lon="3.39265">
        <ele>582.5</ele>
        <time>2020-09-17T14:05:14Z</time>
      </trkpt>
      <trkpt lat="45.39343" lon="3.39265">
        <ele>582.4</ele>
        <time>2020-09-17T14:05:15Z</time>
      </trkpt>
      <trkpt lat="45.39343" lon="3.39265">
        <ele>582.3</ele>
        <time>2020-09-17T14:05:16Z</time>
      </trkpt>
      <trkpt lat="45.39343" lon="3.39266">
        <ele>582.2</ele>
        <time>2020-09-17T14:05:17Z</time>
      </trkpt>
      <trkpt lat="45.39343" lon="3.39266">
        <ele>582.2</ele>
        <time>2020-09-17T14:05:18Z</time>
      </trkpt>
      <trkpt lat="45.39343" lon="3.39266">
        <ele>582.2</ele>
        <time>2020-09-17T14:05:19Z</time>
      </trkpt>
      <trkpt lat="45.39343" lon="3.39266">
        <ele>582.2</ele>
        <time>2020-09-17T14:05:20Z</time>
      </trkpt>
      <trkpt lat="45.39342" lon="3.39265">
        <ele>582.1</ele>
        <time>2020-09-17T14:05:21Z</time>
      </trkpt>
      <trkpt lat="45.39342" lon="3.39265">
        <ele>582</ele>
        <time>2020-09-17T14:05:22Z</time>
      </trkpt>
      <trkpt lat="45.39341" lon="3.39265">
        <ele>581.9</ele>
        <time>2020-09-17T14:05:23Z</time>
      </trkpt>
      <trkpt lat="45.3934" lon="3.39265">
        <ele>581.7</ele>
        <time>2020-09-17T14:05:24Z</time>
      </trkpt>
      <trkpt lat="45.3934" lon="3.39265">
        <ele>581.5</ele>
        <time>2020-09-17T14:05:25Z</time>
      </trkpt>
      <trkpt lat="45.39339" lon="3.39264">
        <ele>581.3</ele>
        <time>2020-09-17T14:05:26Z</time>
      </trkpt>
      <trkpt lat="45.39338" lon="3.39264">
        <ele>581.2</ele>
        <time>2020-09-17T14:05:27Z</time>
      </trkpt>
      <trkpt lat="45.39337" lon="3.39263">
        <ele>581</ele>
        <time>2020-09-17T14:05:28Z</time>
      </trkpt>
      <trkpt lat="45.39336" lon="3.39263">
        <ele>580.8</ele>
        <time>2020-09-17T14:05:29Z</time>
      </trkpt>
      <trkpt lat="45.39336" lon="3.39262">
        <ele>580.7</ele>
        <time>2020-09-17T14:05:30Z</time>
      </trkpt>
      <trkpt lat="45.39335" lon="3.39261">
        <ele>580.5</ele>
        <time>2020-09-17T14:05:31Z</time>
      </trkpt>
      <trkpt lat="45.39334" lon="3.39261">
        <ele>580.4</ele>
        <time>2020-09-17T14:05:32Z</time>
      </trkpt>
      <trkpt lat="45.39333" lon="3.3926">
        <ele>580.3</ele>
        <time>2020-09-17T14:05:33Z</time>
      </trkpt>
      <trkpt lat="45.39333" lon="3.39259">
        <ele>580.1</ele>
        <time>2020-09-17T14:05:34Z</time>
      </trkpt>
      <trkpt lat="45.39332" lon="3.39259">
        <ele>579.9</ele>
        <time>2020-09-17T14:05:35Z</time>
      </trkpt>
      <trkpt lat="45.39332" lon="3.39258">
        <ele>579.7</ele>
        <time>2020-09-17T14:05:36Z</time>
      </trkpt>
      <trkpt lat="45.39331" lon="3.39257">
        <ele>579.6</ele>
        <time>2020-09-17T14:05:37Z</time>
      </trkpt>
      <trkpt lat="45.39331" lon="3.39256">
        <ele>579.5</ele>
        <time>2020-09-17T14:05:38Z</time>
      </trkpt>
      <trkpt lat="45.3933" lon="3.39255">
        <ele>579.4</ele>
        <time>2020-09-17T14:05:39Z</time>
      </trkpt>
      <trkpt lat="45.3933" lon="3.39254">
        <ele>579.3</ele>
        <time>2020-09-17T14:05:40Z</time>
      </trkpt>
      <trkpt lat="45.39329" lon="3.39253">
        <ele>579.2</ele>
        <time>2020-09-17T14:05:41Z</time>
      </trkpt>
      <trkpt lat="45.39329" lon="3.39252">
        <ele>579</ele>
        <time>2020-09-17T14:05:42Z</time>
      </trkpt>
      <trkpt lat="45.39328" lon="3.39251">
        <ele>578.9</ele>
        <time>2020-09-17T14:05:43Z</time>
      </trkpt>
      <trkpt lat="45.39328" lon="3.3925">
        <ele>578.7</ele>
        <time>2020-09-17T14:05:44Z</time>
      </trkpt>
      <trkpt lat="45.39327" lon="3.39249">
        <ele>578.7</ele>
        <time>2020-09-17T14:05:45Z</time>
      </trkpt>
      <trkpt lat="45.39327" lon="3.39248">
        <ele>578.5</ele>
        <time>2020-09-17T14:05:46Z</time>
      </trkpt>
      <trkpt lat="45.39326" lon="3.39247">
        <ele>578.3</ele>
        <time>2020-09-17T14:05:47Z</time>
      </trkpt>
      <trkpt lat="45.39326" lon="3.39246">
        <ele>578.2</ele>
        <time>2020-09-17T14:05:48Z</time>
      </trkpt>
      <trkpt lat="45.39326" lon="3.39245">
        <ele>578.2</ele>
        <time>2020-09-17T14:05:49Z</time>
      </trkpt>
      <trkpt lat="45.39325" lon="3.39244">
        <ele>578</ele>
        <time>2020-09-17T14:05:50Z</time>
      </trkpt>
      <trkpt lat="45.39325" lon="3.39242">
        <ele>577.8</ele>
        <time>2020-09-17T14:05:51Z</time>
      </trkpt>
      <trkpt lat="45.39324" lon="3.39241">
        <ele>577.6</ele>
        <time>2020-09-17T14:05:52Z</time>
      </trkpt>
      <trkpt lat="45.39324" lon="3.3924">
        <ele>577.5</ele>
        <time>2020-09-17T14:05:53Z</time>
      </trkpt>
      <trkpt lat="45.39323" lon="3.39239">
        <ele>577.2</ele>
        <time>2020-09-17T14:05:54Z</time>
      </trkpt>
      <trkpt lat="45.39322" lon="3.39238">
        <ele>577.1</ele>
        <time>2020-09-17T14:05:55Z</time>
      </trkpt>
      <trkpt lat="45.39322" lon="3.39237">
        <ele>576.9</ele>
        <time>2020-09-17T14:05:56Z</time>
      </trkpt>
      <trkpt lat="45.39321" lon="3.39236">
        <ele>576.7</ele>
        <time>2020-09-17T14:05:57Z</time>
      </trkpt>
      <trkpt lat="45.39321" lon="3.39235">
        <ele>576.5</ele>
        <time>2020-09-17T14:05:58Z</time>
      </trkpt>
      <trkpt lat="45.3932" lon="3.39233">
        <ele>576.3</ele>
        <time>2020-09-17T14:05:59Z</time>
      </trkpt>
      <trkpt lat="45.39319" lon="3.39232">
        <ele>576</ele>
        <time>2020-09-17T14:06:00Z</time>
      </trkpt>
      <trkpt lat="45.39319" lon="3.39231">
        <ele>575.8</ele>
        <time>2020-09-17T14:06:01Z</time>
      </trkpt>
      <trkpt lat="45.39318" lon="3.3923">
        <ele>575.7</ele>
        <time>2020-09-17T14:06:02Z</time>
      </trkpt>
      <trkpt lat="45.39318" lon="3.39229">
        <ele>575.6</ele>
        <time>2020-09-17T14:06:03Z</time>
      </trkpt>
      <trkpt lat="45.39317" lon="3.39228">
        <ele>575.4</ele>
        <time>2020-09-17T14:06:04Z</time>
      </trkpt>
      <trkpt lat="45.39317" lon="3.39227">
        <ele>575.2</ele>
        <time>2020-09-17T14:06:05Z</time>
      </trkpt>
      <trkpt lat="45.39316" lon="3.39226">
        <ele>575.1</ele>
        <time>2020-09-17T14:06:06Z</time>
      </trkpt>
      <trkpt lat="45.39316" lon="3.39225">
        <ele>574.9</ele>
        <time>2020-09-17T14:06:07Z</time>
      </trkpt>
      <trkpt lat="45.39315" lon="3.39224">
        <ele>574.7</ele>
        <time>2020-09-17T14:06:08Z</time>
      </trkpt>
      <trkpt lat="45.39314" lon="3.39222">
        <ele>574.5</ele>
        <time>2020-09-17T14:06:09Z</time>
      </trkpt>
      <trkpt lat="45.39314" lon="3.39221">
        <ele>574.3</ele>
        <time>2020-09-17T14:06:10Z</time>
      </trkpt>
      <trkpt lat="45.39313" lon="3.3922">
        <ele>574.2</ele>
        <time>2020-09-17T14:06:11Z</time>
      </trkpt>
      <trkpt lat="45.39313" lon="3.39219">
        <ele>574</ele>
        <time>2020-09-17T14:06:12Z</time>
      </trkpt>
      <trkpt lat="45.39312" lon="3.39218">
        <ele>573.8</ele>
        <time>2020-09-17T14:06:13Z</time>
      </trkpt>
      <trkpt lat="45.39312" lon="3.39217">
        <ele>573.6</ele>
        <time>2020-09-17T14:06:14Z</time>
      </trkpt>
      <trkpt lat="45.39311" lon="3.39216">
        <ele>573.5</ele>
        <time>2020-09-17T14:06:15Z</time>
      </trkpt>
      <trkpt lat="45.39311" lon="3.39214">
        <ele>573.4</ele>
        <time>2020-09-17T14:06:16Z</time>
      </trkpt>
      <trkpt lat="45.39311" lon="3.39213">
        <ele>573.3</ele>
        <time>2020-09-17T14:06:17Z</time>
      </trkpt>
      <trkpt lat="45.3931" lon="3.39212">
        <ele>573.1</ele>
        <time>2020-09-17T14:06:18Z</time>
      </trkpt>
      <trkpt lat="45.39309" lon="3.39211">
        <ele>572.9</ele>
        <time>2020-09-17T14:06:19Z</time>
      </trkpt>
      <trkpt lat="45.39309" lon="3.3921">
        <ele>572.7</ele>
        <time>2020-09-17T14:06:20Z</time>
      </trkpt>
      <trkpt lat="45.39308" lon="3.39209">
        <ele>572.5</ele>
        <time>2020-09-17T14:06:21Z</time>
      </trkpt>
      <trkpt lat="45.39308" lon="3.39208">
        <ele>572.3</ele>
        <time>2020-09-17T14:06:22Z</time>
      </trkpt>
      <trkpt lat="45.39307" lon="3.39207">
        <ele>572.1</ele>
        <time>2020-09-17T14:06:23Z</time>
      </trkpt>
      <trkpt lat="45.39306" lon="3.39205">
        <ele>571.8</ele>
        <time>2020-09-17T14:06:24Z</time>
      </trkpt>
      <trkpt lat="45.39305" lon="3.39204">
        <ele>571.6</ele>
        <time>2020-09-17T14:06:25Z</time>
      </trkpt>
      <trkpt lat="45.39305" lon="3.39203">
        <ele>571.4</ele>
        <time>2020-09-17T14:06:26Z</time>
      </trkpt>
      <trkpt lat="45.39304" lon="3.39202">
        <ele>571.3</ele>
        <time>2020-09-17T14:06:27Z</time>
      </trkpt>
      <trkpt lat="45.39304" lon="3.39201">
        <ele>571.1</ele>
        <time>2020-09-17T14:06:28Z</time>
      </trkpt>
      <trkpt lat="45.39303" lon="3.392">
        <ele>570.9</ele>
        <time>2020-09-17T14:06:29Z</time>
      </trkpt>
      <trkpt lat="45.39302" lon="3.39199">
        <ele>570.6</ele>
        <time>2020-09-17T14:06:30Z</time>
      </trkpt>
      <trkpt lat="45.39301" lon="3.39198">
        <ele>570.5</ele>
        <time>2020-09-17T14:06:31Z</time>
      </trkpt>
      <trkpt lat="45.39301" lon="3.39197">
        <ele>570.3</ele>
        <time>2020-09-17T14:06:32Z</time>
      </trkpt>
      <trkpt lat="45.393" lon="3.39196">
        <ele>570.1</ele>
        <time>2020-09-17T14:06:33Z</time>
      </trkpt>
      <trkpt lat="45.39299" lon="3.39195">
        <ele>569.9</ele>
        <time>2020-09-17T14:06:34Z</time>
      </trkpt>
      <trkpt lat="45.39299" lon="3.39194">
        <ele>569.7</ele>
        <time>2020-09-17T14:06:35Z</time>
      </trkpt>
      <trkpt lat="45.39298" lon="3.39193">
        <ele>569.6</ele>
        <time>2020-09-17T14:06:36Z</time>
      </trkpt>
      <trkpt lat="45.39297" lon="3.39192">
        <ele>569.4</ele>
        <time>2020-09-17T14:06:37Z</time>
      </trkpt>
      <trkpt lat="45.39297" lon="3.39191">
        <ele>569.3</ele>
        <time>2020-09-17T14:06:38Z</time>
      </trkpt>
      <trkpt lat="45.39296" lon="3.3919">
        <ele>569</ele>
        <time>2020-09-17T14:06:39Z</time>
      </trkpt>
      <trkpt lat="45.39295" lon="3.39189">
        <ele>568.9</ele>
        <time>2020-09-17T14:06:40Z</time>
      </trkpt>
      <trkpt lat="45.39294" lon="3.39189">
        <ele>568.7</ele>
        <time>2020-09-17T14:06:41Z</time>
      </trkpt>
      <trkpt lat="45.39294" lon="3.39188">
        <ele>568.5</ele>
        <time>2020-09-17T14:06:42Z</time>
      </trkpt>
      <trkpt lat="45.39293" lon="3.39187">
        <ele>568.3</ele>
        <time>2020-09-17T14:06:43Z</time>
      </trkpt>
      <trkpt lat="45.39292" lon="3.39186">
        <ele>568.2</ele>
        <time>2020-09-17T14:06:44Z</time>
      </trkpt>
      <trkpt lat="45.39292" lon="3.39185">
        <ele>568</ele>
        <time>2020-09-17T14:06:45Z</time>
      </trkpt>
      <trkpt lat="45.39291" lon="3.39184">
        <ele>567.8</ele>
        <time>2020-09-17T14:06:46Z</time>
      </trkpt>
      <trkpt lat="45.3929" lon="3.39183">
        <ele>567.6</ele>
        <time>2020-09-17T14:06:47Z</time>
      </trkpt>
      <trkpt lat="45.39289" lon="3.39182">
        <ele>567.4</ele>
        <time>2020-09-17T14:06:48Z</time>
      </trkpt>
      <trkpt lat="45.39289" lon="3.3918">
        <ele>567.2</ele>
        <time>2020-09-17T14:06:49Z</time>
      </trkpt>
      <trkpt lat="45.39288" lon="3.39179">
        <ele>567</ele>
        <time>2020-09-17T14:06:50Z</time>
      </trkpt>
      <trkpt lat="45.39287" lon="3.39178">
        <ele>566.8</ele>
        <time>2020-09-17T14:06:51Z</time>
      </trkpt>
      <trkpt lat="45.39286" lon="3.39177">
        <ele>566.6</ele>
        <time>2020-09-17T14:06:52Z</time>
      </trkpt>
      <trkpt lat="45.39286" lon="3.39176">
        <ele>566.3</ele>
        <time>2020-09-17T14:06:53Z</time>
      </trkpt>
      <trkpt lat="45.39285" lon="3.39176">
        <ele>566.1</ele>
        <time>2020-09-17T14:06:54Z</time>
      </trkpt>
      <trkpt lat="45.39284" lon="3.39175">
        <ele>565.8</ele>
        <time>2020-09-17T14:06:55Z</time>
      </trkpt>
      <trkpt lat="45.39283" lon="3.39174">
        <ele>565.6</ele>
        <time>2020-09-17T14:06:56Z</time>
      </trkpt>
      <trkpt lat="45.39282" lon="3.39173">
        <ele>565.4</ele>
        <time>2020-09-17T14:06:57Z</time>
      </trkpt>
      <trkpt lat="45.39282" lon="3.39172">
        <ele>565.1</ele>
        <time>2020-09-17T14:06:58Z</time>
      </trkpt>
      <trkpt lat="45.39281" lon="3.39171">
        <ele>564.9</ele>
        <time>2020-09-17T14:06:59Z</time>
      </trkpt>
      <trkpt lat="45.3928" lon="3.3917">
        <ele>564.6</ele>
        <time>2020-09-17T14:07:00Z</time>
      </trkpt>
      <trkpt lat="45.39279" lon="3.39169">
        <ele>564.3</ele>
        <time>2020-09-17T14:07:01Z</time>
      </trkpt>
      <trkpt lat="45.39278" lon="3.39168">
        <ele>564.1</ele>
        <time>2020-09-17T14:07:02Z</time>
      </trkpt>
      <trkpt lat="45.39277" lon="3.39168">
        <ele>563.8</ele>
        <time>2020-09-17T14:07:03Z</time>
      </trkpt>
      <trkpt lat="45.39276" lon="3.39167">
        <ele>563.5</ele>
        <time>2020-09-17T14:07:04Z</time>
      </trkpt>
      <trkpt lat="45.39276" lon="3.39166">
        <ele>563.4</ele>
        <time>2020-09-17T14:07:05Z</time>
      </trkpt>
      <trkpt lat="45.39275" lon="3.39165">
        <ele>563.4</ele>
        <time>2020-09-17T14:07:06Z</time>
      </trkpt>
      <trkpt lat="45.39275" lon="3.39164">
        <ele>563.2</ele>
        <time>2020-09-17T14:07:07Z</time>
      </trkpt>
      <trkpt lat="45.39274" lon="3.39163">
        <ele>563</ele>
        <time>2020-09-17T14:07:08Z</time>
      </trkpt>
      <trkpt lat="45.39273" lon="3.39162">
        <ele>562.9</ele>
        <time>2020-09-17T14:07:09Z</time>
      </trkpt>
      <trkpt lat="45.39272" lon="3.39161">
        <ele>562.7</ele>
        <time>2020-09-17T14:07:10Z</time>
      </trkpt>
      <trkpt lat="45.39272" lon="3.3916">
        <ele>562.6</ele>
        <time>2020-09-17T14:07:11Z</time>
      </trkpt>
      <trkpt lat="45.39271" lon="3.39159">
        <ele>562.5</ele>
        <time>2020-09-17T14:07:12Z</time>
      </trkpt>
      <trkpt lat="45.39271" lon="3.39158">
        <ele>562.4</ele>
        <time>2020-09-17T14:07:13Z</time>
      </trkpt>
      <trkpt lat="45.3927" lon="3.39157">
        <ele>562.2</ele>
        <time>2020-09-17T14:07:14Z</time>
      </trkpt>
      <trkpt lat="45.39269" lon="3.39156">
        <ele>562.1</ele>
        <time>2020-09-17T14:07:15Z</time>
      </trkpt>
      <trkpt lat="45.39268" lon="3.39155">
        <ele>562</ele>
        <time>2020-09-17T14:07:16Z</time>
      </trkpt>
      <trkpt lat="45.39268" lon="3.39154">
        <ele>561.8</ele>
        <time>2020-09-17T14:07:17Z</time>
      </trkpt>
      <trkpt lat="45.39267" lon="3.39153">
        <ele>561.7</ele>
        <time>2020-09-17T14:07:18Z</time>
      </trkpt>
      <trkpt lat="45.39266" lon="3.39152">
        <ele>561.5</ele>
        <time>2020-09-17T14:07:19Z</time>
      </trkpt>
      <trkpt lat="45.39265" lon="3.39151">
        <ele>561.4</ele>
        <time>2020-09-17T14:07:20Z</time>
      </trkpt>
      <trkpt lat="45.39264" lon="3.3915">
        <ele>561.1</ele>
        <time>2020-09-17T14:07:21Z</time>
      </trkpt>
      <trkpt lat="45.39263" lon="3.39149">
        <ele>560.9</ele>
        <time>2020-09-17T14:07:22Z</time>
      </trkpt>
      <trkpt lat="45.39262" lon="3.39148">
        <ele>560.7</ele>
        <time>2020-09-17T14:07:23Z</time>
      </trkpt>
      <trkpt lat="45.39261" lon="3.39147">
        <ele>560.5</ele>
        <time>2020-09-17T14:07:24Z</time>
      </trkpt>
      <trkpt lat="45.39261" lon="3.39147">
        <ele>560.3</ele>
        <time>2020-09-17T14:07:25Z</time>
      </trkpt>
      <trkpt lat="45.3926" lon="3.39145">
        <ele>560.2</ele>
        <time>2020-09-17T14:07:26Z</time>
      </trkpt>
      <trkpt lat="45.39259" lon="3.39145">
        <ele>560.1</ele>
        <time>2020-09-17T14:07:27Z</time>
      </trkpt>
      <trkpt lat="45.39258" lon="3.39144">
        <ele>560</ele>
        <time>2020-09-17T14:07:28Z</time>
      </trkpt>
      <trkpt lat="45.39258" lon="3.39143">
        <ele>559.9</ele>
        <time>2020-09-17T14:07:29Z</time>
      </trkpt>
      <trkpt lat="45.39257" lon="3.39142">
        <ele>559.9</ele>
        <time>2020-09-17T14:07:30Z</time>
      </trkpt>
      <trkpt lat="45.39257" lon="3.39141">
        <ele>559.8</ele>
        <time>2020-09-17T14:07:31Z</time>
      </trkpt>
      <trkpt lat="45.39256" lon="3.3914">
        <ele>559.6</ele>
        <time>2020-09-17T14:07:32Z</time>
      </trkpt>
      <trkpt lat="45.39255" lon="3.39139">
        <ele>559.5</ele>
        <time>2020-09-17T14:07:33Z</time>
      </trkpt>
      <trkpt lat="45.39254" lon="3.39138">
        <ele>559.3</ele>
        <time>2020-09-17T14:07:34Z</time>
      </trkpt>
      <trkpt lat="45.39254" lon="3.39137">
        <ele>559.2</ele>
        <time>2020-09-17T14:07:35Z</time>
      </trkpt>
      <trkpt lat="45.39253" lon="3.39136">
        <ele>559</ele>
        <time>2020-09-17T14:07:36Z</time>
      </trkpt>
      <trkpt lat="45.39252" lon="3.39135">
        <ele>558.8</ele>
        <time>2020-09-17T14:07:37Z</time>
      </trkpt>
      <trkpt lat="45.39251" lon="3.39134">
        <ele>558.6</ele>
        <time>2020-09-17T14:07:38Z</time>
      </trkpt>
      <trkpt lat="45.3925" lon="3.39133">
        <ele>558.4</ele>
        <time>2020-09-17T14:07:39Z</time>
      </trkpt>
      <trkpt lat="45.39249" lon="3.39133">
        <ele>558.2</ele>
        <time>2020-09-17T14:07:40Z</time>
      </trkpt>
      <trkpt lat="45.39249" lon="3.39132">
        <ele>557.9</ele>
        <time>2020-09-17T14:07:41Z</time>
      </trkpt>
      <trkpt lat="45.39248" lon="3.39131">
        <ele>557.8</ele>
        <time>2020-09-17T14:07:42Z</time>
      </trkpt>
      <trkpt lat="45.39247" lon="3.3913">
        <ele>557.5</ele>
        <time>2020-09-17T14:07:43Z</time>
      </trkpt>
      <trkpt lat="45.39247" lon="3.39129">
        <ele>557.3</ele>
        <time>2020-09-17T14:07:44Z</time>
      </trkpt>
      <trkpt lat="45.39246" lon="3.39128">
        <ele>557.1</ele>
        <time>2020-09-17T14:07:45Z</time>
      </trkpt>
      <trkpt lat="45.39245" lon="3.39127">
        <ele>557</ele>
        <time>2020-09-17T14:07:46Z</time>
      </trkpt>
      <trkpt lat="45.39245" lon="3.39125">
        <ele>556.8</ele>
        <time>2020-09-17T14:07:47Z</time>
      </trkpt>
      <trkpt lat="45.39244" lon="3.39124">
        <ele>556.6</ele>
        <time>2020-09-17T14:07:48Z</time>
      </trkpt>
      <trkpt lat="45.39243" lon="3.39123">
        <ele>556.5</ele>
        <time>2020-09-17T14:07:49Z</time>
      </trkpt>
      <trkpt lat="45.39243" lon="3.39122">
        <ele>556.3</ele>
        <time>2020-09-17T14:07:50Z</time>
      </trkpt>
      <trkpt lat="45.39242" lon="3.3912">
        <ele>556.2</ele>
        <time>2020-09-17T14:07:51Z</time>
      </trkpt>
      <trkpt lat="45.39242" lon="3.39119">
        <ele>556.2</ele>
        <time>2020-09-17T14:07:52Z</time>
      </trkpt>
      <trkpt lat="45.39241" lon="3.39117">
        <ele>556.2</ele>
        <time>2020-09-17T14:07:53Z</time>
      </trkpt>
      <trkpt lat="45.39241" lon="3.39115">
        <ele>556.3</ele>
        <time>2020-09-17T14:07:54Z</time>
      </trkpt>
      <trkpt lat="45.39241" lon="3.39114">
        <ele>556.4</ele>
        <time>2020-09-17T14:07:55Z</time>
      </trkpt>
      <trkpt lat="45.39242" lon="3.39112">
        <ele>556.6</ele>
        <time>2020-09-17T14:07:56Z</time>
      </trkpt>
      <trkpt lat="45.39242" lon="3.39111">
        <ele>556.8</ele>
        <time>2020-09-17T14:07:57Z</time>
      </trkpt>
      <trkpt lat="45.39243" lon="3.39109">
        <ele>557</ele>
        <time>2020-09-17T14:07:58Z</time>
      </trkpt>
      <trkpt lat="45.39243" lon="3.39108">
        <ele>557</ele>
        <time>2020-09-17T14:07:59Z</time>
      </trkpt>
      <trkpt lat="45.39243" lon="3.39107">
        <ele>557.2</ele>
        <time>2020-09-17T14:08:00Z</time>
      </trkpt>
      <trkpt lat="45.39244" lon="3.39106">
        <ele>557.3</ele>
        <time>2020-09-17T14:08:01Z</time>
      </trkpt>
      <trkpt lat="45.39244" lon="3.39105">
        <ele>557.4</ele>
        <time>2020-09-17T14:08:02Z</time>
      </trkpt>
      <trkpt lat="45.39244" lon="3.39104">
        <ele>557.5</ele>
        <time>2020-09-17T14:08:03Z</time>
      </trkpt>
      <trkpt lat="45.39245" lon="3.39103">
        <ele>557.7</ele>
        <time>2020-09-17T14:08:04Z</time>
      </trkpt>
      <trkpt lat="45.39245" lon="3.39102">
        <ele>557.8</ele>
        <time>2020-09-17T14:08:05Z</time>
      </trkpt>
      <trkpt lat="45.39245" lon="3.39101">
        <ele>557.9</ele>
        <time>2020-09-17T14:08:06Z</time>
      </trkpt>
      <trkpt lat="45.39246" lon="3.39099">
        <ele>558</ele>
        <time>2020-09-17T14:08:07Z</time>
      </trkpt>
      <trkpt lat="45.39246" lon="3.39098">
        <ele>558.2</ele>
        <time>2020-09-17T14:08:08Z</time>
      </trkpt>
      <trkpt lat="45.39247" lon="3.39097">
        <ele>558.4</ele>
        <time>2020-09-17T14:08:09Z</time>
      </trkpt>
      <trkpt lat="45.39248" lon="3.39096">
        <ele>558.6</ele>
        <time>2020-09-17T14:08:10Z</time>
      </trkpt>
      <trkpt lat="45.39249" lon="3.39095">
        <ele>558.9</ele>
        <time>2020-09-17T14:08:11Z</time>
      </trkpt>
      <trkpt lat="45.39249" lon="3.39094">
        <ele>559</ele>
        <time>2020-09-17T14:08:12Z</time>
      </trkpt>
      <trkpt lat="45.3925" lon="3.39093">
        <ele>559.2</ele>
        <time>2020-09-17T14:08:13Z</time>
      </trkpt>
      <trkpt lat="45.3925" lon="3.39092">
        <ele>559.4</ele>
        <time>2020-09-17T14:08:14Z</time>
      </trkpt>
      <trkpt lat="45.39251" lon="3.39091">
        <ele>559.6</ele>
        <time>2020-09-17T14:08:15Z</time>
      </trkpt>
      <trkpt lat="45.39252" lon="3.3909">
        <ele>559.8</ele>
        <time>2020-09-17T14:08:16Z</time>
      </trkpt>
      <trkpt lat="45.39253" lon="3.39089">
        <ele>559.9</ele>
        <time>2020-09-17T14:08:17Z</time>
      </trkpt>
      <trkpt lat="45.39254" lon="3.39088">
        <ele>560.2</ele>
        <time>2020-09-17T14:08:18Z</time>
      </trkpt>
      <trkpt lat="45.39254" lon="3.39088">
        <ele>560.4</ele>
        <time>2020-09-17T14:08:19Z</time>
      </trkpt>
      <trkpt lat="45.39255" lon="3.39087">
        <ele>560.5</ele>
        <time>2020-09-17T14:08:20Z</time>
      </trkpt>
      <trkpt lat="45.39256" lon="3.39086">
        <ele>560.7</ele>
        <time>2020-09-17T14:08:21Z</time>
      </trkpt>
      <trkpt lat="45.39256" lon="3.39085">
        <ele>560.8</ele>
        <time>2020-09-17T14:08:22Z</time>
      </trkpt>
      <trkpt lat="45.39257" lon="3.39084">
        <ele>560.9</ele>
        <time>2020-09-17T14:08:23Z</time>
      </trkpt>
      <trkpt lat="45.39257" lon="3.39083">
        <ele>561.1</ele>
        <time>2020-09-17T14:08:24Z</time>
      </trkpt>
      <trkpt lat="45.39258" lon="3.39082">
        <ele>561.2</ele>
        <time>2020-09-17T14:08:25Z</time>
      </trkpt>
      <trkpt lat="45.39259" lon="3.39081">
        <ele>561.3</ele>
        <time>2020-09-17T14:08:26Z</time>
      </trkpt>
      <trkpt lat="45.39259" lon="3.3908">
        <ele>561.5</ele>
        <time>2020-09-17T14:08:27Z</time>
      </trkpt>
      <trkpt lat="45.3926" lon="3.39079">
        <ele>561.7</ele>
        <time>2020-09-17T14:08:28Z</time>
      </trkpt>
      <trkpt lat="45.39261" lon="3.39079">
        <ele>561.8</ele>
        <time>2020-09-17T14:08:29Z</time>
      </trkpt>
      <trkpt lat="45.39261" lon="3.39078">
        <ele>562</ele>
        <time>2020-09-17T14:08:30Z</time>
      </trkpt>
      <trkpt lat="45.39262" lon="3.39077">
        <ele>562.2</ele>
        <time>2020-09-17T14:08:31Z</time>
      </trkpt>
      <trkpt lat="45.39263" lon="3.39077">
        <ele>562.3</ele>
        <time>2020-09-17T14:08:32Z</time>
      </trkpt>
      <trkpt lat="45.39264" lon="3.39076">
        <ele>562.5</ele>
        <time>2020-09-17T14:08:33Z</time>
      </trkpt>
      <trkpt lat="45.39264" lon="3.39075">
        <ele>562.6</ele>
        <time>2020-09-17T14:08:34Z</time>
      </trkpt>
      <trkpt lat="45.39265" lon="3.39074">
        <ele>562.7</ele>
        <time>2020-09-17T14:08:35Z</time>
      </trkpt>
      <trkpt lat="45.39265" lon="3.39073">
        <ele>562.8</ele>
        <time>2020-09-17T14:08:36Z</time>
      </trkpt>
      <trkpt lat="45.39266" lon="3.39073">
        <ele>563</ele>
        <time>2020-09-17T14:08:37Z</time>
      </trkpt>
      <trkpt lat="45.39267" lon="3.39072">
        <ele>563.2</ele>
        <time>2020-09-17T14:08:38Z</time>
      </trkpt>
      <trkpt lat="45.39267" lon="3.39072">
        <ele>563.3</ele>
        <time>2020-09-17T14:08:39Z</time>
      </trkpt>
      <trkpt lat="45.39268" lon="3.39071">
        <ele>563.5</ele>
        <time>2020-09-17T14:08:40Z</time>
      </trkpt>
      <trkpt lat="45.39269" lon="3.39071">
        <ele>563.7</ele>
        <time>2020-09-17T14:08:41Z</time>
      </trkpt>
      <trkpt lat="45.3927" lon="3.39071">
        <ele>563.8</ele>
        <time>2020-09-17T14:08:42Z</time>
      </trkpt>
      <trkpt lat="45.3927" lon="3.3907">
        <ele>564</ele>
        <time>2020-09-17T14:08:43Z</time>
      </trkpt>
      <trkpt lat="45.39271" lon="3.3907">
        <ele>564.3</ele>
        <time>2020-09-17T14:08:44Z</time>
      </trkpt>
      <trkpt lat="45.39272" lon="3.3907">
        <ele>564.5</ele>
        <time>2020-09-17T14:08:45Z</time>
      </trkpt>
      <trkpt lat="45.39273" lon="3.39069">
        <ele>564.7</ele>
        <time>2020-09-17T14:08:46Z</time>
      </trkpt>
      <trkpt lat="45.39274" lon="3.39069">
        <ele>564.9</ele>
        <time>2020-09-17T14:08:47Z</time>
      </trkpt>
      <trkpt lat="45.39274" lon="3.39069">
        <ele>565</ele>
        <time>2020-09-17T14:08:48Z</time>
      </trkpt>
      <trkpt lat="45.39275" lon="3.39068">
        <ele>565.2</ele>
        <time>2020-09-17T14:08:49Z</time>
      </trkpt>
      <trkpt lat="45.39276" lon="3.39068">
        <ele>565.4</ele>
        <time>2020-09-17T14:08:50Z</time>
      </trkpt>
      <trkpt lat="45.39277" lon="3.39068">
        <ele>565.5</ele>
        <time>2020-09-17T14:08:51Z</time>
      </trkpt>
      <trkpt lat="45.39277" lon="3.39068">
        <ele>565.8</ele>
        <time>2020-09-17T14:08:52Z</time>
      </trkpt>
      <trkpt lat="45.39278" lon="3.39068">
        <ele>565.9</ele>
        <time>2020-09-17T14:08:53Z</time>
      </trkpt>
      <trkpt lat="45.39279" lon="3.39067">
        <ele>566</ele>
        <time>2020-09-17T14:08:54Z</time>
      </trkpt>
      <trkpt lat="45.3928" lon="3.39067">
        <ele>566.1</ele>
        <time>2020-09-17T14:08:55Z</time>
      </trkpt>
      <trkpt lat="45.3928" lon="3.39067">
        <ele>566.2</ele>
        <time>2020-09-17T14:08:56Z</time>
      </trkpt>
      <trkpt lat="45.39281" lon="3.39066">
        <ele>566.4</ele>
        <time>2020-09-17T14:08:57Z</time>
      </trkpt>
      <trkpt lat="45.39282" lon="3.39066">
        <ele>566.5</ele>
        <time>2020-09-17T14:08:58Z</time>
      </trkpt>
      <trkpt lat="45.39283" lon="3.39066">
        <ele>566.6</ele>
        <time>2020-09-17T14:08:59Z</time>
      </trkpt>
      <trkpt lat="45.39284" lon="3.39066">
        <ele>566.7</ele>
        <time>2020-09-17T14:09:00Z</time>
      </trkpt>
      <trkpt lat="45.39285" lon="3.39066">
        <ele>566.9</ele>
        <time>2020-09-17T14:09:01Z</time>
      </trkpt>
      <trkpt lat="45.39285" lon="3.39065">
        <ele>567</ele>
        <time>2020-09-17T14:09:02Z</time>
      </trkpt>
      <trkpt lat="45.39286" lon="3.39065">
        <ele>567.1</ele>
        <time>2020-09-17T14:09:03Z</time>
      </trkpt>
      <trkpt lat="45.39287" lon="3.39065">
        <ele>567.2</ele>
        <time>2020-09-17T14:09:04Z</time>
      </trkpt>
      <trkpt lat="45.39288" lon="3.39065">
        <ele>567.4</ele>
        <time>2020-09-17T14:09:05Z</time>
      </trkpt>
      <trkpt lat="45.39288" lon="3.39065">
        <ele>567.5</ele>
        <time>2020-09-17T14:09:06Z</time>
      </trkpt>
      <trkpt lat="45.39289" lon="3.39065">
        <ele>567.6</ele>
        <time>2020-09-17T14:09:07Z</time>
      </trkpt>
      <trkpt lat="45.3929" lon="3.39065">
        <ele>567.7</ele>
        <time>2020-09-17T14:09:08Z</time>
      </trkpt>
      <trkpt lat="45.39291" lon="3.39065">
        <ele>567.9</ele>
        <time>2020-09-17T14:09:09Z</time>
      </trkpt>
      <trkpt lat="45.39292" lon="3.39065">
        <ele>568</ele>
        <time>2020-09-17T14:09:10Z</time>
      </trkpt>
      <trkpt lat="45.39292" lon="3.39065">
        <ele>568</ele>
        <time>2020-09-17T14:09:11Z</time>
      </trkpt>
      <trkpt lat="45.39293" lon="3.39064">
        <ele>568.2</ele>
        <time>2020-09-17T14:09:12Z</time>
      </trkpt>
      <trkpt lat="45.39294" lon="3.39064">
        <ele>568.3</ele>
        <time>2020-09-17T14:09:13Z</time>
      </trkpt>
      <trkpt lat="45.39294" lon="3.39064">
        <ele>568.4</ele>
        <time>2020-09-17T14:09:14Z</time>
      </trkpt>
      <trkpt lat="45.39295" lon="3.39064">
        <ele>568.4</ele>
        <time>2020-09-17T14:09:15Z</time>
      </trkpt>
      <trkpt lat="45.39296" lon="3.39064">
        <ele>568.5</ele>
        <time>2020-09-17T14:09:16Z</time>
      </trkpt>
      <trkpt lat="45.39296" lon="3.39064">
        <ele>568.6</ele>
        <time>2020-09-17T14:09:17Z</time>
      </trkpt>
      <trkpt lat="45.39297" lon="3.39063">
        <ele>568.7</ele>
        <time>2020-09-17T14:09:18Z</time>
      </trkpt>
      <trkpt lat="45.39298" lon="3.39063">
        <ele>568.8</ele>
        <time>2020-09-17T14:09:19Z</time>
      </trkpt>
      <trkpt lat="45.39299" lon="3.39063">
        <ele>568.9</ele>
        <time>2020-09-17T14:09:20Z</time>
      </trkpt>
      <trkpt lat="45.39299" lon="3.39063">
        <ele>569</ele>
        <time>2020-09-17T14:09:21Z</time>
      </trkpt>
      <trkpt lat="45.393" lon="3.39063">
        <ele>569.1</ele>
        <time>2020-09-17T14:09:22Z</time>
      </trkpt>
      <trkpt lat="45.39301" lon="3.39062">
        <ele>569.2</ele>
        <time>2020-09-17T14:09:23Z</time>
      </trkpt>
      <trkpt lat="45.39302" lon="3.39062">
        <ele>569.3</ele>
        <time>2020-09-17T14:09:24Z</time>
      </trkpt>
      <trkpt lat="45.39303" lon="3.39062">
        <ele>569.4</ele>
        <time>2020-09-17T14:09:25Z</time>
      </trkpt>
      <trkpt lat="45.39303" lon="3.39062">
        <ele>569.5</ele>
        <time>2020-09-17T14:09:26Z</time>
      </trkpt>
      <trkpt lat="45.39304" lon="3.39061">
        <ele>569.6</ele>
        <time>2020-09-17T14:09:27Z</time>
      </trkpt>
      <trkpt lat="45.39305" lon="3.39061">
        <ele>569.6</ele>
        <time>2020-09-17T14:09:28Z</time>
      </trkpt>
      <trkpt lat="45.39306" lon="3.39061">
        <ele>569.8</ele>
        <time>2020-09-17T14:09:29Z</time>
      </trkpt>
      <trkpt lat="45.39306" lon="3.39061">
        <ele>569.9</ele>
        <time>2020-09-17T14:09:30Z</time>
      </trkpt>
      <trkpt lat="45.39307" lon="3.3906">
        <ele>569.9</ele>
        <time>2020-09-17T14:09:31Z</time>
      </trkpt>
      <trkpt lat="45.39308" lon="3.3906">
        <ele>570</ele>
        <time>2020-09-17T14:09:32Z</time>
      </trkpt>
      <trkpt lat="45.39308" lon="3.3906">
        <ele>570.1</ele>
        <time>2020-09-17T14:09:33Z</time>
      </trkpt>
      <trkpt lat="45.39309" lon="3.3906">
        <ele>570.1</ele>
        <time>2020-09-17T14:09:34Z</time>
      </trkpt>
      <trkpt lat="45.39309" lon="3.39059">
        <ele>570.2</ele>
        <time>2020-09-17T14:09:35Z</time>
      </trkpt>
      <trkpt lat="45.39309" lon="3.39059">
        <ele>570.1</ele>
        <time>2020-09-17T14:09:36Z</time>
      </trkpt>
      <trkpt lat="45.3931" lon="3.39059">
        <ele>570.2</ele>
        <time>2020-09-17T14:09:37Z</time>
      </trkpt>
      <trkpt lat="45.3931" lon="3.39058">
        <ele>570.1</ele>
        <time>2020-09-17T14:09:38Z</time>
      </trkpt>
      <trkpt lat="45.3931" lon="3.39057">
        <ele>570.1</ele>
        <time>2020-09-17T14:09:39Z</time>
      </trkpt>
      <trkpt lat="45.39311" lon="3.39056">
        <ele>570</ele>
        <time>2020-09-17T14:09:40Z</time>
      </trkpt>
      <trkpt lat="45.39311" lon="3.39055">
        <ele>569.9</ele>
        <time>2020-09-17T14:09:41Z</time>
      </trkpt>
      <trkpt lat="45.39311" lon="3.39054">
        <ele>569.7</ele>
        <time>2020-09-17T14:09:42Z</time>
      </trkpt>
      <trkpt lat="45.39311" lon="3.39053">
        <ele>569.5</ele>
        <time>2020-09-17T14:09:43Z</time>
      </trkpt>
      <trkpt lat="45.39312" lon="3.39052">
        <ele>569.4</ele>
        <time>2020-09-17T14:09:44Z</time>
      </trkpt>
      <trkpt lat="45.39312" lon="3.3905">
        <ele>569.2</ele>
        <time>2020-09-17T14:09:45Z</time>
      </trkpt>
      <trkpt lat="45.39312" lon="3.39049">
        <ele>569.1</ele>
        <time>2020-09-17T14:09:46Z</time>
      </trkpt>
      <trkpt lat="45.39313" lon="3.39049">
        <ele>569</ele>
        <time>2020-09-17T14:09:47Z</time>
      </trkpt>
      <trkpt lat="45.39313" lon="3.39048">
        <ele>568.9</ele>
        <time>2020-09-17T14:09:48Z</time>
      </trkpt>
      <trkpt lat="45.39314" lon="3.39047">
        <ele>568.8</ele>
        <time>2020-09-17T14:09:49Z</time>
      </trkpt>
      <trkpt lat="45.39314" lon="3.39045">
        <ele>568.7</ele>
        <time>2020-09-17T14:09:50Z</time>
      </trkpt>
      <trkpt lat="45.39315" lon="3.39044">
        <ele>568.6</ele>
        <time>2020-09-17T14:09:51Z</time>
      </trkpt>
      <trkpt lat="45.39315" lon="3.39043">
        <ele>568.5</ele>
        <time>2020-09-17T14:09:52Z</time>
      </trkpt>
      <trkpt lat="45.39315" lon="3.39042">
        <ele>568.4</ele>
        <time>2020-09-17T14:09:53Z</time>
      </trkpt>
      <trkpt lat="45.39316" lon="3.39041">
        <ele>568.2</ele>
        <time>2020-09-17T14:09:54Z</time>
      </trkpt>
      <trkpt lat="45.39316" lon="3.3904">
        <ele>568.1</ele>
        <time>2020-09-17T14:09:55Z</time>
      </trkpt>
      <trkpt lat="45.39317" lon="3.39039">
        <ele>568.1</ele>
        <time>2020-09-17T14:09:56Z</time>
      </trkpt>
      <trkpt lat="45.39317" lon="3.39039">
        <ele>568</ele>
        <time>2020-09-17T14:09:57Z</time>
      </trkpt>
      <trkpt lat="45.39317" lon="3.39038">
        <ele>568</ele>
        <time>2020-09-17T14:09:58Z</time>
      </trkpt>
      <trkpt lat="45.39318" lon="3.39037">
        <ele>567.8</ele>
        <time>2020-09-17T14:09:59Z</time>
      </trkpt>
      <trkpt lat="45.39318" lon="3.39036">
        <ele>567.7</ele>
        <time>2020-09-17T14:10:00Z</time>
      </trkpt>
      <trkpt lat="45.39318" lon="3.39034">
        <ele>567.5</ele>
        <time>2020-09-17T14:10:01Z</time>
      </trkpt>
      <trkpt lat="45.39319" lon="3.39033">
        <ele>567.3</ele>
        <time>2020-09-17T14:10:02Z</time>
      </trkpt>
      <trkpt lat="45.39319" lon="3.39032">
        <ele>567.1</ele>
        <time>2020-09-17T14:10:03Z</time>
      </trkpt>
      <trkpt lat="45.3932" lon="3.39031">
        <ele>567</ele>
        <time>2020-09-17T14:10:04Z</time>
      </trkpt>
      <trkpt lat="45.3932" lon="3.3903">
        <ele>567</ele>
        <time>2020-09-17T14:10:05Z</time>
      </trkpt>
      <trkpt lat="45.39321" lon="3.39029">
        <ele>566.9</ele>
        <time>2020-09-17T14:10:06Z</time>
      </trkpt>
      <trkpt lat="45.39321" lon="3.39027">
        <ele>566.7</ele>
        <time>2020-09-17T14:10:07Z</time>
      </trkpt>
      <trkpt lat="45.39322" lon="3.39026">
        <ele>566.5</ele>
        <time>2020-09-17T14:10:08Z</time>
      </trkpt>
      <trkpt lat="45.39322" lon="3.39025">
        <ele>566.3</ele>
        <time>2020-09-17T14:10:09Z</time>
      </trkpt>
      <trkpt lat="45.39323" lon="3.39023">
        <ele>566.1</ele>
        <time>2020-09-17T14:10:10Z</time>
      </trkpt>
      <trkpt lat="45.39323" lon="3.39022">
        <ele>565.8</ele>
        <time>2020-09-17T14:10:11Z</time>
      </trkpt>
      <trkpt lat="45.39323" lon="3.39021">
        <ele>565.6</ele>
        <time>2020-09-17T14:10:12Z</time>
      </trkpt>
      <trkpt lat="45.39324" lon="3.39019">
        <ele>565.3</ele>
        <time>2020-09-17T14:10:13Z</time>
      </trkpt>
      <trkpt lat="45.39324" lon="3.39018">
        <ele>565.1</ele>
        <time>2020-09-17T14:10:14Z</time>
      </trkpt>
      <trkpt lat="45.39325" lon="3.39017">
        <ele>564.9</ele>
        <time>2020-09-17T14:10:15Z</time>
      </trkpt>
      <trkpt lat="45.39325" lon="3.39016">
        <ele>564.7</ele>
        <time>2020-09-17T14:10:16Z</time>
      </trkpt>
      <trkpt lat="45.39326" lon="3.39014">
        <ele>564.5</ele>
        <time>2020-09-17T14:10:17Z</time>
      </trkpt>
      <trkpt lat="45.39326" lon="3.39013">
        <ele>564.3</ele>
        <time>2020-09-17T14:10:18Z</time>
      </trkpt>
      <trkpt lat="45.39327" lon="3.39012">
        <ele>564.1</ele>
        <time>2020-09-17T14:10:19Z</time>
      </trkpt>
      <trkpt lat="45.39328" lon="3.39011">
        <ele>563.9</ele>
        <time>2020-09-17T14:10:20Z</time>
      </trkpt>
      <trkpt lat="45.39328" lon="3.39009">
        <ele>563.7</ele>
        <time>2020-09-17T14:10:21Z</time>
      </trkpt>
      <trkpt lat="45.39329" lon="3.39008">
        <ele>563.5</ele>
        <time>2020-09-17T14:10:22Z</time>
      </trkpt>
      <trkpt lat="45.3933" lon="3.39007">
        <ele>563.3</ele>
        <time>2020-09-17T14:10:23Z</time>
      </trkpt>
      <trkpt lat="45.39331" lon="3.39006">
        <ele>563.1</ele>
        <time>2020-09-17T14:10:24Z</time>
      </trkpt>
      <trkpt lat="45.39332" lon="3.39005">
        <ele>563</ele>
        <time>2020-09-17T14:10:25Z</time>
      </trkpt>
      <trkpt lat="45.39332" lon="3.39004">
        <ele>562.7</ele>
        <time>2020-09-17T14:10:26Z</time>
      </trkpt>
      <trkpt lat="45.39333" lon="3.39002">
        <ele>562.5</ele>
        <time>2020-09-17T14:10:27Z</time>
      </trkpt>
      <trkpt lat="45.39333" lon="3.39001">
        <ele>562.3</ele>
        <time>2020-09-17T14:10:28Z</time>
      </trkpt>
      <trkpt lat="45.39334" lon="3.39">
        <ele>562.1</ele>
        <time>2020-09-17T14:10:29Z</time>
      </trkpt>
      <trkpt lat="45.39335" lon="3.38999">
        <ele>561.9</ele>
        <time>2020-09-17T14:10:30Z</time>
      </trkpt>
      <trkpt lat="45.39336" lon="3.38998">
        <ele>561.8</ele>
        <time>2020-09-17T14:10:31Z</time>
      </trkpt>
      <trkpt lat="45.39336" lon="3.38997">
        <ele>561.7</ele>
        <time>2020-09-17T14:10:32Z</time>
      </trkpt>
      <trkpt lat="45.39337" lon="3.38996">
        <ele>561.6</ele>
        <time>2020-09-17T14:10:33Z</time>
      </trkpt>
      <trkpt lat="45.39338" lon="3.38995">
        <ele>561.5</ele>
        <time>2020-09-17T14:10:34Z</time>
      </trkpt>
      <trkpt lat="45.39338" lon="3.38994">
        <ele>561.3</ele>
        <time>2020-09-17T14:10:35Z</time>
      </trkpt>
      <trkpt lat="45.39339" lon="3.38993">
        <ele>561.1</ele>
        <time>2020-09-17T14:10:36Z</time>
      </trkpt>
      <trkpt lat="45.39339" lon="3.38991">
        <ele>561</ele>
        <time>2020-09-17T14:10:37Z</time>
      </trkpt>
      <trkpt lat="45.3934" lon="3.3899">
        <ele>560.8</ele>
        <time>2020-09-17T14:10:38Z</time>
      </trkpt>
      <trkpt lat="45.3934" lon="3.38989">
        <ele>560.6</ele>
        <time>2020-09-17T14:10:39Z</time>
      </trkpt>
      <trkpt lat="45.39341" lon="3.38988">
        <ele>560.5</ele>
        <time>2020-09-17T14:10:40Z</time>
      </trkpt>
      <trkpt lat="45.39341" lon="3.38987">
        <ele>560.3</ele>
        <time>2020-09-17T14:10:41Z</time>
      </trkpt>
      <trkpt lat="45.39342" lon="3.38986">
        <ele>560.2</ele>
        <time>2020-09-17T14:10:42Z</time>
      </trkpt>
      <trkpt lat="45.39342" lon="3.38985">
        <ele>560</ele>
        <time>2020-09-17T14:10:43Z</time>
      </trkpt>
      <trkpt lat="45.39343" lon="3.38984">
        <ele>559.8</ele>
        <time>2020-09-17T14:10:44Z</time>
      </trkpt>
      <trkpt lat="45.39343" lon="3.38983">
        <ele>559.6</ele>
        <time>2020-09-17T14:10:45Z</time>
      </trkpt>
      <trkpt lat="45.39344" lon="3.38981">
        <ele>559.4</ele>
        <time>2020-09-17T14:10:46Z</time>
      </trkpt>
      <trkpt lat="45.39344" lon="3.3898">
        <ele>559.3</ele>
        <time>2020-09-17T14:10:47Z</time>
      </trkpt>
      <trkpt lat="45.39345" lon="3.38979">
        <ele>559.1</ele>
        <time>2020-09-17T14:10:48Z</time>
      </trkpt>
      <trkpt lat="45.39345" lon="3.38978">
        <ele>558.9</ele>
        <time>2020-09-17T14:10:49Z</time>
      </trkpt>
      <trkpt lat="45.39346" lon="3.38977">
        <ele>558.9</ele>
        <time>2020-09-17T14:10:50Z</time>
      </trkpt>
      <trkpt lat="45.39347" lon="3.38976">
        <ele>558.7</ele>
        <time>2020-09-17T14:10:51Z</time>
      </trkpt>
      <trkpt lat="45.39347" lon="3.38975">
        <ele>558.6</ele>
        <time>2020-09-17T14:10:52Z</time>
      </trkpt>
      <trkpt lat="45.39348" lon="3.38974">
        <ele>558.5</ele>
        <time>2020-09-17T14:10:53Z</time>
      </trkpt>
      <trkpt lat="45.39348" lon="3.38974">
        <ele>558.4</ele>
        <time>2020-09-17T14:10:54Z</time>
      </trkpt>
      <trkpt lat="45.39349" lon="3.38973">
        <ele>558.3</ele>
        <time>2020-09-17T14:10:55Z</time>
      </trkpt>
      <trkpt lat="45.39349" lon="3.38972">
        <ele>558.2</ele>
        <time>2020-09-17T14:10:56Z</time>
      </trkpt>
      <trkpt lat="45.39349" lon="3.38971">
        <ele>558</ele>
        <time>2020-09-17T14:10:57Z</time>
      </trkpt>
      <trkpt lat="45.3935" lon="3.3897">
        <ele>557.9</ele>
        <time>2020-09-17T14:10:58Z</time>
      </trkpt>
      <trkpt lat="45.3935" lon="3.38969">
        <ele>557.7</ele>
        <time>2020-09-17T14:10:59Z</time>
      </trkpt>
      <trkpt lat="45.39351" lon="3.38968">
        <ele>557.5</ele>
        <time>2020-09-17T14:11:00Z</time>
      </trkpt>
      <trkpt lat="45.39351" lon="3.38966">
        <ele>557.3</ele>
        <time>2020-09-17T14:11:01Z</time>
      </trkpt>
      <trkpt lat="45.39352" lon="3.38965">
        <ele>557.1</ele>
        <time>2020-09-17T14:11:02Z</time>
      </trkpt>
      <trkpt lat="45.39352" lon="3.38964">
        <ele>556.8</ele>
        <time>2020-09-17T14:11:03Z</time>
      </trkpt>
      <trkpt lat="45.39352" lon="3.38962">
        <ele>556.5</ele>
        <time>2020-09-17T14:11:04Z</time>
      </trkpt>
      <trkpt lat="45.39352" lon="3.38961">
        <ele>556.2</ele>
        <time>2020-09-17T14:11:05Z</time>
      </trkpt>
      <trkpt lat="45.39353" lon="3.38959">
        <ele>556</ele>
        <time>2020-09-17T14:11:06Z</time>
      </trkpt>
      <trkpt lat="45.39353" lon="3.38958">
        <ele>555.7</ele>
        <time>2020-09-17T14:11:07Z</time>
      </trkpt>
      <trkpt lat="45.39354" lon="3.38957">
        <ele>555.6</ele>
        <time>2020-09-17T14:11:08Z</time>
      </trkpt>
      <trkpt lat="45.39355" lon="3.38956">
        <ele>555.5</ele>
        <time>2020-09-17T14:11:09Z</time>
      </trkpt>
      <trkpt lat="45.39356" lon="3.38955">
        <ele>555.4</ele>
        <time>2020-09-17T14:11:10Z</time>
      </trkpt>
      <trkpt lat="45.39356" lon="3.38954">
        <ele>555.3</ele>
        <time>2020-09-17T14:11:11Z</time>
      </trkpt>
      <trkpt lat="45.39357" lon="3.38953">
        <ele>555.2</ele>
        <time>2020-09-17T14:11:12Z</time>
      </trkpt>
      <trkpt lat="45.39358" lon="3.38952">
        <ele>555</ele>
        <time>2020-09-17T14:11:13Z</time>
      </trkpt>
      <trkpt lat="45.39358" lon="3.3895">
        <ele>554.8</ele>
        <time>2020-09-17T14:11:14Z</time>
      </trkpt>
      <trkpt lat="45.39359" lon="3.38949">
        <ele>554.6</ele>
        <time>2020-09-17T14:11:15Z</time>
      </trkpt>
      <trkpt lat="45.3936" lon="3.38947">
        <ele>554.4</ele>
        <time>2020-09-17T14:11:16Z</time>
      </trkpt>
      <trkpt lat="45.3936" lon="3.38946">
        <ele>554.2</ele>
        <time>2020-09-17T14:11:17Z</time>
      </trkpt>
      <trkpt lat="45.39361" lon="3.38944">
        <ele>553.9</ele>
        <time>2020-09-17T14:11:18Z</time>
      </trkpt>
      <trkpt lat="45.39362" lon="3.38942">
        <ele>553.8</ele>
        <time>2020-09-17T14:11:19Z</time>
      </trkpt>
      <trkpt lat="45.39363" lon="3.3894">
        <ele>553.7</ele>
        <time>2020-09-17T14:11:20Z</time>
      </trkpt>
      <trkpt lat="45.39363" lon="3.38939">
        <ele>553.6</ele>
        <time>2020-09-17T14:11:21Z</time>
      </trkpt>
      <trkpt lat="45.39364" lon="3.38937">
        <ele>553.4</ele>
        <time>2020-09-17T14:11:22Z</time>
      </trkpt>
      <trkpt lat="45.39365" lon="3.38935">
        <ele>553.3</ele>
        <time>2020-09-17T14:11:23Z</time>
      </trkpt>
      <trkpt lat="45.39366" lon="3.38934">
        <ele>553.3</ele>
        <time>2020-09-17T14:11:24Z</time>
      </trkpt>
      <trkpt lat="45.39367" lon="3.38933">
        <ele>553.2</ele>
        <time>2020-09-17T14:11:25Z</time>
      </trkpt>
      <trkpt lat="45.39367" lon="3.38931">
        <ele>553</ele>
        <time>2020-09-17T14:11:26Z</time>
      </trkpt>
      <trkpt lat="45.39368" lon="3.38929">
        <ele>552.9</ele>
        <time>2020-09-17T14:11:27Z</time>
      </trkpt>
      <trkpt lat="45.39369" lon="3.38927">
        <ele>552.7</ele>
        <time>2020-09-17T14:11:28Z</time>
      </trkpt>
      <trkpt lat="45.39369" lon="3.38926">
        <ele>552.5</ele>
        <time>2020-09-17T14:11:29Z</time>
      </trkpt>
      <trkpt lat="45.3937" lon="3.38924">
        <ele>552.5</ele>
        <time>2020-09-17T14:11:30Z</time>
      </trkpt>
      <trkpt lat="45.39371" lon="3.38923">
        <ele>552.4</ele>
        <time>2020-09-17T14:11:31Z</time>
      </trkpt>
      <trkpt lat="45.39372" lon="3.38921">
        <ele>552.2</ele>
        <time>2020-09-17T14:11:32Z</time>
      </trkpt>
      <trkpt lat="45.39372" lon="3.3892">
        <ele>552.1</ele>
        <time>2020-09-17T14:11:33Z</time>
      </trkpt>
      <trkpt lat="45.39373" lon="3.38919">
        <ele>552</ele>
        <time>2020-09-17T14:11:34Z</time>
      </trkpt>
      <trkpt lat="45.39374" lon="3.38917">
        <ele>551.9</ele>
        <time>2020-09-17T14:11:35Z</time>
      </trkpt>
      <trkpt lat="45.39375" lon="3.38916">
        <ele>551.8</ele>
        <time>2020-09-17T14:11:36Z</time>
      </trkpt>
      <trkpt lat="45.39376" lon="3.38915">
        <ele>551.7</ele>
        <time>2020-09-17T14:11:37Z</time>
      </trkpt>
      <trkpt lat="45.39376" lon="3.38913">
        <ele>551.7</ele>
        <time>2020-09-17T14:11:38Z</time>
      </trkpt>
      <trkpt lat="45.39377" lon="3.38912">
        <ele>551.6</ele>
        <time>2020-09-17T14:11:39Z</time>
      </trkpt>
      <trkpt lat="45.39378" lon="3.38911">
        <ele>551.5</ele>
        <time>2020-09-17T14:11:40Z</time>
      </trkpt>
      <trkpt lat="45.39379" lon="3.3891">
        <ele>551.5</ele>
        <time>2020-09-17T14:11:41Z</time>
      </trkpt>
      <trkpt lat="45.3938" lon="3.38909">
        <ele>551.4</ele>
        <time>2020-09-17T14:11:42Z</time>
      </trkpt>
      <trkpt lat="45.39381" lon="3.38908">
        <ele>551.5</ele>
        <time>2020-09-17T14:11:43Z</time>
      </trkpt>
      <trkpt lat="45.39382" lon="3.38906">
        <ele>551.4</ele>
        <time>2020-09-17T14:11:44Z</time>
      </trkpt>
      <trkpt lat="45.39383" lon="3.38905">
        <ele>551.4</ele>
        <time>2020-09-17T14:11:45Z</time>
      </trkpt>
      <trkpt lat="45.39384" lon="3.38904">
        <ele>551.4</ele>
        <time>2020-09-17T14:11:46Z</time>
      </trkpt>
      <trkpt lat="45.39385" lon="3.38904">
        <ele>551.5</ele>
        <time>2020-09-17T14:11:47Z</time>
      </trkpt>
      <trkpt lat="45.39386" lon="3.38902">
        <ele>551.4</ele>
        <time>2020-09-17T14:11:48Z</time>
      </trkpt>
      <trkpt lat="45.39386" lon="3.38901">
        <ele>551.3</ele>
        <time>2020-09-17T14:11:49Z</time>
      </trkpt>
      <trkpt lat="45.39387" lon="3.389">
        <ele>551.3</ele>
        <time>2020-09-17T14:11:50Z</time>
      </trkpt>
      <trkpt lat="45.39388" lon="3.38899">
        <ele>551.2</ele>
        <time>2020-09-17T14:11:51Z</time>
      </trkpt>
      <trkpt lat="45.39388" lon="3.38897">
        <ele>551</ele>
        <time>2020-09-17T14:11:52Z</time>
      </trkpt>
      <trkpt lat="45.39388" lon="3.38896">
        <ele>550.8</ele>
        <time>2020-09-17T14:11:53Z</time>
      </trkpt>
      <trkpt lat="45.39388" lon="3.38894">
        <ele>550.6</ele>
        <time>2020-09-17T14:11:54Z</time>
      </trkpt>
      <trkpt lat="45.39388" lon="3.38893">
        <ele>550.3</ele>
        <time>2020-09-17T14:11:55Z</time>
      </trkpt>
      <trkpt lat="45.39387" lon="3.38891">
        <ele>550.1</ele>
        <time>2020-09-17T14:11:56Z</time>
      </trkpt>
      <trkpt lat="45.39387" lon="3.3889">
        <ele>549.8</ele>
        <time>2020-09-17T14:11:57Z</time>
      </trkpt>
      <trkpt lat="45.39387" lon="3.38888">
        <ele>549.7</ele>
        <time>2020-09-17T14:11:58Z</time>
      </trkpt>
      <trkpt lat="45.39386" lon="3.38887">
        <ele>550</ele>
        <time>2020-09-17T14:11:59Z</time>
      </trkpt>
      <trkpt lat="45.39385" lon="3.38886">
        <ele>550.1</ele>
        <time>2020-09-17T14:12:00Z</time>
      </trkpt>
      <trkpt lat="45.39385" lon="3.38885">
        <ele>550.3</ele>
        <time>2020-09-17T14:12:01Z</time>
      </trkpt>
      <trkpt lat="45.39384" lon="3.38883">
        <ele>550.5</ele>
        <time>2020-09-17T14:12:02Z</time>
      </trkpt>
      <trkpt lat="45.39383" lon="3.38883">
        <ele>550.6</ele>
        <time>2020-09-17T14:12:03Z</time>
      </trkpt>
      <trkpt lat="45.39383" lon="3.38882">
        <ele>550.7</ele>
        <time>2020-09-17T14:12:04Z</time>
      </trkpt>
      <trkpt lat="45.39382" lon="3.3888">
        <ele>550.9</ele>
        <time>2020-09-17T14:12:05Z</time>
      </trkpt>
      <trkpt lat="45.39381" lon="3.38879">
        <ele>551.1</ele>
        <time>2020-09-17T14:12:06Z</time>
      </trkpt>
      <trkpt lat="45.3938" lon="3.38878">
        <ele>551.2</ele>
        <time>2020-09-17T14:12:07Z</time>
      </trkpt>
      <trkpt lat="45.39379" lon="3.38877">
        <ele>551.2</ele>
        <time>2020-09-17T14:12:08Z</time>
      </trkpt>
      <trkpt lat="45.39378" lon="3.38876">
        <ele>551.3</ele>
        <time>2020-09-17T14:12:09Z</time>
      </trkpt>
      <trkpt lat="45.39377" lon="3.38875">
        <ele>551.3</ele>
        <time>2020-09-17T14:12:10Z</time>
      </trkpt>
      <trkpt lat="45.39376" lon="3.38874">
        <ele>551.4</ele>
        <time>2020-09-17T14:12:11Z</time>
      </trkpt>
      <trkpt lat="45.39375" lon="3.38873">
        <ele>551.4</ele>
        <time>2020-09-17T14:12:12Z</time>
      </trkpt>
      <trkpt lat="45.39374" lon="3.38872">
        <ele>551.4</ele>
        <time>2020-09-17T14:12:13Z</time>
      </trkpt>
      <trkpt lat="45.39373" lon="3.38871">
        <ele>551.5</ele>
        <time>2020-09-17T14:12:14Z</time>
      </trkpt>
      <trkpt lat="45.39371" lon="3.3887">
        <ele>551.6</ele>
        <time>2020-09-17T14:12:15Z</time>
      </trkpt>
      <trkpt lat="45.39371" lon="3.38869">
        <ele>551.7</ele>
        <time>2020-09-17T14:12:16Z</time>
      </trkpt>
      <trkpt lat="45.39369" lon="3.38868">
        <ele>551.8</ele>
        <time>2020-09-17T14:12:17Z</time>
      </trkpt>
      <trkpt lat="45.39368" lon="3.38867">
        <ele>551.9</ele>
        <time>2020-09-17T14:12:18Z</time>
      </trkpt>
      <trkpt lat="45.39367" lon="3.38865">
        <ele>552</ele>
        <time>2020-09-17T14:12:19Z</time>
      </trkpt>
      <trkpt lat="45.39366" lon="3.38864">
        <ele>552.1</ele>
        <time>2020-09-17T14:12:20Z</time>
      </trkpt>
      <trkpt lat="45.39365" lon="3.38863">
        <ele>552.3</ele>
        <time>2020-09-17T14:12:21Z</time>
      </trkpt>
      <trkpt lat="45.39364" lon="3.38862">
        <ele>552.3</ele>
        <time>2020-09-17T14:12:22Z</time>
      </trkpt>
      <trkpt lat="45.39363" lon="3.3886">
        <ele>552.5</ele>
        <time>2020-09-17T14:12:23Z</time>
      </trkpt>
      <trkpt lat="45.39362" lon="3.38859">
        <ele>552.6</ele>
        <time>2020-09-17T14:12:24Z</time>
      </trkpt>
      <trkpt lat="45.3936" lon="3.38858">
        <ele>552.7</ele>
        <time>2020-09-17T14:12:25Z</time>
      </trkpt>
      <trkpt lat="45.39359" lon="3.38856">
        <ele>552.8</ele>
        <time>2020-09-17T14:12:26Z</time>
      </trkpt>
      <trkpt lat="45.39358" lon="3.38855">
        <ele>552.9</ele>
        <time>2020-09-17T14:12:27Z</time>
      </trkpt>
      <trkpt lat="45.39356" lon="3.38854">
        <ele>553</ele>
        <time>2020-09-17T14:12:28Z</time>
      </trkpt>
      <trkpt lat="45.39355" lon="3.38853">
        <ele>553</ele>
        <time>2020-09-17T14:12:29Z</time>
      </trkpt>
      <trkpt lat="45.39354" lon="3.38852">
        <ele>553</ele>
        <time>2020-09-17T14:12:30Z</time>
      </trkpt>
      <trkpt lat="45.39353" lon="3.38851">
        <ele>553</ele>
        <time>2020-09-17T14:12:31Z</time>
      </trkpt>
      <trkpt lat="45.39352" lon="3.38851">
        <ele>553</ele>
        <time>2020-09-17T14:12:32Z</time>
      </trkpt>
      <trkpt lat="45.39351" lon="3.3885">
        <ele>553</ele>
        <time>2020-09-17T14:12:33Z</time>
      </trkpt>
      <trkpt lat="45.3935" lon="3.38849">
        <ele>553.1</ele>
        <time>2020-09-17T14:12:34Z</time>
      </trkpt>
      <trkpt lat="45.39349" lon="3.38849">
        <ele>553.1</ele>
        <time>2020-09-17T14:12:35Z</time>
      </trkpt>
      <trkpt lat="45.39348" lon="3.38848">
        <ele>553.1</ele>
        <time>2020-09-17T14:12:36Z</time>
      </trkpt>
      <trkpt lat="45.39347" lon="3.38848">
        <ele>553.1</ele>
        <time>2020-09-17T14:12:37Z</time>
      </trkpt>
      <trkpt lat="45.39346" lon="3.38847">
        <ele>553.1</ele>
        <time>2020-09-17T14:12:38Z</time>
      </trkpt>
      <trkpt lat="45.39345" lon="3.38846">
        <ele>553.2</ele>
        <time>2020-09-17T14:12:39Z</time>
      </trkpt>
      <trkpt lat="45.39344" lon="3.38846">
        <ele>553.2</ele>
        <time>2020-09-17T14:12:40Z</time>
      </trkpt>
      <trkpt lat="45.39343" lon="3.38845">
        <ele>553.3</ele>
        <time>2020-09-17T14:12:41Z</time>
      </trkpt>
      <trkpt lat="45.39342" lon="3.38844">
        <ele>553.3</ele>
        <time>2020-09-17T14:12:42Z</time>
      </trkpt>
      <trkpt lat="45.39341" lon="3.38843">
        <ele>553.3</ele>
        <time>2020-09-17T14:12:43Z</time>
      </trkpt>
      <trkpt lat="45.39339" lon="3.38843">
        <ele>553.4</ele>
        <time>2020-09-17T14:12:44Z</time>
      </trkpt>
      <trkpt lat="45.39338" lon="3.38842">
        <ele>553.4</ele>
        <time>2020-09-17T14:12:45Z</time>
      </trkpt>
      <trkpt lat="45.39337" lon="3.38841">
        <ele>553.5</ele>
        <time>2020-09-17T14:12:46Z</time>
      </trkpt>
      <trkpt lat="45.39336" lon="3.38841">
        <ele>553.5</ele>
        <time>2020-09-17T14:12:47Z</time>
      </trkpt>
      <trkpt lat="45.39335" lon="3.3884">
        <ele>553.6</ele>
        <time>2020-09-17T14:12:48Z</time>
      </trkpt>
      <trkpt lat="45.39334" lon="3.3884">
        <ele>553.6</ele>
        <time>2020-09-17T14:12:49Z</time>
      </trkpt>
      <trkpt lat="45.39333" lon="3.38839">
        <ele>553.6</ele>
        <time>2020-09-17T14:12:50Z</time>
      </trkpt>
      <trkpt lat="45.39332" lon="3.38839">
        <ele>553.7</ele>
        <time>2020-09-17T14:12:51Z</time>
      </trkpt>
      <trkpt lat="45.39331" lon="3.38838">
        <ele>553.9</ele>
        <time>2020-09-17T14:12:52Z</time>
      </trkpt>
      <trkpt lat="45.3933" lon="3.38838">
        <ele>553.9</ele>
        <time>2020-09-17T14:12:53Z</time>
      </trkpt>
      <trkpt lat="45.3933" lon="3.38837">
        <ele>554.1</ele>
        <time>2020-09-17T14:12:54Z</time>
      </trkpt>
      <trkpt lat="45.39329" lon="3.38836">
        <ele>554.3</ele>
        <time>2020-09-17T14:12:55Z</time>
      </trkpt>
      <trkpt lat="45.39328" lon="3.38835">
        <ele>554.5</ele>
        <time>2020-09-17T14:12:56Z</time>
      </trkpt>
      <trkpt lat="45.39327" lon="3.38835">
        <ele>554.6</ele>
        <time>2020-09-17T14:12:57Z</time>
      </trkpt>
      <trkpt lat="45.39326" lon="3.38834">
        <ele>554.9</ele>
        <time>2020-09-17T14:12:58Z</time>
      </trkpt>
      <trkpt lat="45.39325" lon="3.38833">
        <ele>555.1</ele>
        <time>2020-09-17T14:12:59Z</time>
      </trkpt>
      <trkpt lat="45.39324" lon="3.38832">
        <ele>555.2</ele>
        <time>2020-09-17T14:13:00Z</time>
      </trkpt>
      <trkpt lat="45.39324" lon="3.38832">
        <ele>555.3</ele>
        <time>2020-09-17T14:13:01Z</time>
      </trkpt>
      <trkpt lat="45.39323" lon="3.38831">
        <ele>555.4</ele>
        <time>2020-09-17T14:13:02Z</time>
      </trkpt>
      <trkpt lat="45.39322" lon="3.3883">
        <ele>555.5</ele>
        <time>2020-09-17T14:13:03Z</time>
      </trkpt>
      <trkpt lat="45.39321" lon="3.38829">
        <ele>555.6</ele>
        <time>2020-09-17T14:13:04Z</time>
      </trkpt>
      <trkpt lat="45.39321" lon="3.38828">
        <ele>555.7</ele>
        <time>2020-09-17T14:13:05Z</time>
      </trkpt>
      <trkpt lat="45.3932" lon="3.38828">
        <ele>555.9</ele>
        <time>2020-09-17T14:13:06Z</time>
      </trkpt>
      <trkpt lat="45.39319" lon="3.38827">
        <ele>556</ele>
        <time>2020-09-17T14:13:07Z</time>
      </trkpt>
      <trkpt lat="45.39318" lon="3.38825">
        <ele>556.1</ele>
        <time>2020-09-17T14:13:08Z</time>
      </trkpt>
      <trkpt lat="45.39318" lon="3.38824">
        <ele>556.2</ele>
        <time>2020-09-17T14:13:09Z</time>
      </trkpt>
      <trkpt lat="45.39317" lon="3.38823">
        <ele>556.4</ele>
        <time>2020-09-17T14:13:10Z</time>
      </trkpt>
      <trkpt lat="45.39317" lon="3.38822">
        <ele>556.5</ele>
        <time>2020-09-17T14:13:11Z</time>
      </trkpt>
      <trkpt lat="45.39316" lon="3.3882">
        <ele>556.7</ele>
        <time>2020-09-17T14:13:12Z</time>
      </trkpt>
      <trkpt lat="45.39316" lon="3.38818">
        <ele>556.9</ele>
        <time>2020-09-17T14:13:13Z</time>
      </trkpt>
      <trkpt lat="45.39316" lon="3.38817">
        <ele>557.1</ele>
        <time>2020-09-17T14:13:14Z</time>
      </trkpt>
      <trkpt lat="45.39316" lon="3.38815">
        <ele>557.3</ele>
        <time>2020-09-17T14:13:15Z</time>
      </trkpt>
      <trkpt lat="45.39315" lon="3.38813">
        <ele>557.5</ele>
        <time>2020-09-17T14:13:16Z</time>
      </trkpt>
      <trkpt lat="45.39315" lon="3.38811">
        <ele>557.7</ele>
        <time>2020-09-17T14:13:17Z</time>
      </trkpt>
      <trkpt lat="45.39315" lon="3.38809">
        <ele>557.9</ele>
        <time>2020-09-17T14:13:18Z</time>
      </trkpt>
      <trkpt lat="45.39315" lon="3.38808">
        <ele>558</ele>
        <time>2020-09-17T14:13:19Z</time>
      </trkpt>
      <trkpt lat="45.39314" lon="3.38806">
        <ele>558.2</ele>
        <time>2020-09-17T14:13:20Z</time>
      </trkpt>
      <trkpt lat="45.39314" lon="3.38805">
        <ele>558.2</ele>
        <time>2020-09-17T14:13:21Z</time>
      </trkpt>
      <trkpt lat="45.39314" lon="3.38803">
        <ele>558.2</ele>
        <time>2020-09-17T14:13:22Z</time>
      </trkpt>
      <trkpt lat="45.39314" lon="3.38801">
        <ele>558.2</ele>
        <time>2020-09-17T14:13:23Z</time>
      </trkpt>
      <trkpt lat="45.39314" lon="3.38799">
        <ele>558.1</ele>
        <time>2020-09-17T14:13:24Z</time>
      </trkpt>
      <trkpt lat="45.39314" lon="3.38797">
        <ele>558.1</ele>
        <time>2020-09-17T14:13:25Z</time>
      </trkpt>
      <trkpt lat="45.39314" lon="3.38795">
        <ele>558</ele>
        <time>2020-09-17T14:13:26Z</time>
      </trkpt>
      <trkpt lat="45.39314" lon="3.38794">
        <ele>558</ele>
        <time>2020-09-17T14:13:27Z</time>
      </trkpt>
      <trkpt lat="45.39314" lon="3.38792">
        <ele>558</ele>
        <time>2020-09-17T14:13:28Z</time>
      </trkpt>
      <trkpt lat="45.39314" lon="3.3879">
        <ele>558</ele>
        <time>2020-09-17T14:13:29Z</time>
      </trkpt>
      <trkpt lat="45.39314" lon="3.38789">
        <ele>557.9</ele>
        <time>2020-09-17T14:13:30Z</time>
      </trkpt>
      <trkpt lat="45.39314" lon="3.38787">
        <ele>557.9</ele>
        <time>2020-09-17T14:13:31Z</time>
      </trkpt>
      <trkpt lat="45.39314" lon="3.38785">
        <ele>557.9</ele>
        <time>2020-09-17T14:13:32Z</time>
      </trkpt>
      <trkpt lat="45.39314" lon="3.38784">
        <ele>557.8</ele>
        <time>2020-09-17T14:13:33Z</time>
      </trkpt>
      <trkpt lat="45.39314" lon="3.38782">
        <ele>557.8</ele>
        <time>2020-09-17T14:13:34Z</time>
      </trkpt>
      <trkpt lat="45.39314" lon="3.38781">
        <ele>557.8</ele>
        <time>2020-09-17T14:13:35Z</time>
      </trkpt>
      <trkpt lat="45.39314" lon="3.3878">
        <ele>557.8</ele>
        <time>2020-09-17T14:13:36Z</time>
      </trkpt>
      <trkpt lat="45.39314" lon="3.38778">
        <ele>557.8</ele>
        <time>2020-09-17T14:13:37Z</time>
      </trkpt>
      <trkpt lat="45.39314" lon="3.38777">
        <ele>557.7</ele>
        <time>2020-09-17T14:13:38Z</time>
      </trkpt>
      <trkpt lat="45.39314" lon="3.38775">
        <ele>557.7</ele>
        <time>2020-09-17T14:13:39Z</time>
      </trkpt>
      <trkpt lat="45.39314" lon="3.38774">
        <ele>557.6</ele>
        <time>2020-09-17T14:13:40Z</time>
      </trkpt>
      <trkpt lat="45.39315" lon="3.38772">
        <ele>557.6</ele>
        <time>2020-09-17T14:13:41Z</time>
      </trkpt>
      <trkpt lat="45.39315" lon="3.38771">
        <ele>557.6</ele>
        <time>2020-09-17T14:13:42Z</time>
      </trkpt>
      <trkpt lat="45.39315" lon="3.3877">
        <ele>557.5</ele>
        <time>2020-09-17T14:13:43Z</time>
      </trkpt>
      <trkpt lat="45.39315" lon="3.38768">
        <ele>557.4</ele>
        <time>2020-09-17T14:13:44Z</time>
      </trkpt>
      <trkpt lat="45.39315" lon="3.38767">
        <ele>557.4</ele>
        <time>2020-09-17T14:13:45Z</time>
      </trkpt>
      <trkpt lat="45.39315" lon="3.38765">
        <ele>557.3</ele>
        <time>2020-09-17T14:13:46Z</time>
      </trkpt>
      <trkpt lat="45.39315" lon="3.38763">
        <ele>557.2</ele>
        <time>2020-09-17T14:13:47Z</time>
      </trkpt>
      <trkpt lat="45.39315" lon="3.38762">
        <ele>557.2</ele>
        <time>2020-09-17T14:13:48Z</time>
      </trkpt>
      <trkpt lat="45.39316" lon="3.3876">
        <ele>557.1</ele>
        <time>2020-09-17T14:13:49Z</time>
      </trkpt>
      <trkpt lat="45.39316" lon="3.38759">
        <ele>557.1</ele>
        <time>2020-09-17T14:13:50Z</time>
      </trkpt>
      <trkpt lat="45.39316" lon="3.38757">
        <ele>557</ele>
        <time>2020-09-17T14:13:51Z</time>
      </trkpt>
      <trkpt lat="45.39316" lon="3.38756">
        <ele>557</ele>
        <time>2020-09-17T14:13:52Z</time>
      </trkpt>
      <trkpt lat="45.39316" lon="3.38754">
        <ele>556.9</ele>
        <time>2020-09-17T14:13:53Z</time>
      </trkpt>
      <trkpt lat="45.39317" lon="3.38752">
        <ele>556.9</ele>
        <time>2020-09-17T14:13:54Z</time>
      </trkpt>
      <trkpt lat="45.39317" lon="3.38751">
        <ele>556.9</ele>
        <time>2020-09-17T14:13:55Z</time>
      </trkpt>
      <trkpt lat="45.39317" lon="3.38749">
        <ele>556.9</ele>
        <time>2020-09-17T14:13:56Z</time>
      </trkpt>
      <trkpt lat="45.39318" lon="3.38748">
        <ele>556.8</ele>
        <time>2020-09-17T14:13:57Z</time>
      </trkpt>
      <trkpt lat="45.39318" lon="3.38747">
        <ele>556.7</ele>
        <time>2020-09-17T14:13:58Z</time>
      </trkpt>
      <trkpt lat="45.39318" lon="3.38745">
        <ele>556.7</ele>
        <time>2020-09-17T14:13:59Z</time>
      </trkpt>
      <trkpt lat="45.39319" lon="3.38744">
        <ele>556.6</ele>
        <time>2020-09-17T14:14:00Z</time>
      </trkpt>
      <trkpt lat="45.39319" lon="3.38742">
        <ele>556.5</ele>
        <time>2020-09-17T14:14:01Z</time>
      </trkpt>
      <trkpt lat="45.39319" lon="3.38741">
        <ele>556.4</ele>
        <time>2020-09-17T14:14:02Z</time>
      </trkpt>
      <trkpt lat="45.3932" lon="3.38739">
        <ele>556.3</ele>
        <time>2020-09-17T14:14:03Z</time>
      </trkpt>
      <trkpt lat="45.3932" lon="3.38737">
        <ele>556.3</ele>
        <time>2020-09-17T14:14:04Z</time>
      </trkpt>
      <trkpt lat="45.3932" lon="3.38736">
        <ele>556.2</ele>
        <time>2020-09-17T14:14:05Z</time>
      </trkpt>
      <trkpt lat="45.39321" lon="3.38734">
        <ele>556.1</ele>
        <time>2020-09-17T14:14:06Z</time>
      </trkpt>
      <trkpt lat="45.39321" lon="3.38733">
        <ele>556</ele>
        <time>2020-09-17T14:14:07Z</time>
      </trkpt>
      <trkpt lat="45.39322" lon="3.38731">
        <ele>556</ele>
        <time>2020-09-17T14:14:08Z</time>
      </trkpt>
      <trkpt lat="45.39322" lon="3.3873">
        <ele>555.9</ele>
        <time>2020-09-17T14:14:09Z</time>
      </trkpt>
      <trkpt lat="45.39322" lon="3.38728">
        <ele>555.9</ele>
        <time>2020-09-17T14:14:10Z</time>
      </trkpt>
      <trkpt lat="45.39323" lon="3.38726">
        <ele>555.8</ele>
        <time>2020-09-17T14:14:11Z</time>
      </trkpt>
      <trkpt lat="45.39323" lon="3.38725">
        <ele>555.7</ele>
        <time>2020-09-17T14:14:12Z</time>
      </trkpt>
      <trkpt lat="45.39323" lon="3.38723">
        <ele>555.6</ele>
        <time>2020-09-17T14:14:13Z</time>
      </trkpt>
      <trkpt lat="45.39323" lon="3.38721">
        <ele>555.4</ele>
        <time>2020-09-17T14:14:14Z</time>
      </trkpt>
      <trkpt lat="45.39324" lon="3.3872">
        <ele>555.2</ele>
        <time>2020-09-17T14:14:15Z</time>
      </trkpt>
      <trkpt lat="45.39324" lon="3.38718">
        <ele>555.1</ele>
        <time>2020-09-17T14:14:16Z</time>
      </trkpt>
      <trkpt lat="45.39324" lon="3.38717">
        <ele>555</ele>
        <time>2020-09-17T14:14:17Z</time>
      </trkpt>
      <trkpt lat="45.39324" lon="3.38715">
        <ele>554.9</ele>
        <time>2020-09-17T14:14:18Z</time>
      </trkpt>
      <trkpt lat="45.39325" lon="3.38714">
        <ele>554.8</ele>
        <time>2020-09-17T14:14:19Z</time>
      </trkpt>
      <trkpt lat="45.39325" lon="3.38713">
        <ele>554.7</ele>
        <time>2020-09-17T14:14:20Z</time>
      </trkpt>
      <trkpt lat="45.39325" lon="3.38711">
        <ele>554.4</ele>
        <time>2020-09-17T14:14:21Z</time>
      </trkpt>
      <trkpt lat="45.39325" lon="3.3871">
        <ele>554.3</ele>
        <time>2020-09-17T14:14:22Z</time>
      </trkpt>
      <trkpt lat="45.39324" lon="3.38708">
        <ele>554</ele>
        <time>2020-09-17T14:14:23Z</time>
      </trkpt>
      <trkpt lat="45.39324" lon="3.38707">
        <ele>553.8</ele>
        <time>2020-09-17T14:14:24Z</time>
      </trkpt>
      <trkpt lat="45.39324" lon="3.38705">
        <ele>553.5</ele>
        <time>2020-09-17T14:14:25Z</time>
      </trkpt>
      <trkpt lat="45.39324" lon="3.38703">
        <ele>553.3</ele>
        <time>2020-09-17T14:14:26Z</time>
      </trkpt>
      <trkpt lat="45.39324" lon="3.38702">
        <ele>553.2</ele>
        <time>2020-09-17T14:14:27Z</time>
      </trkpt>
      <trkpt lat="45.39325" lon="3.387">
        <ele>553.2</ele>
        <time>2020-09-17T14:14:28Z</time>
      </trkpt>
      <trkpt lat="45.39325" lon="3.38699">
        <ele>553</ele>
        <time>2020-09-17T14:14:29Z</time>
      </trkpt>
      <trkpt lat="45.39325" lon="3.38697">
        <ele>552.9</ele>
        <time>2020-09-17T14:14:30Z</time>
      </trkpt>
      <trkpt lat="45.39326" lon="3.38696">
        <ele>552.9</ele>
        <time>2020-09-17T14:14:31Z</time>
      </trkpt>
      <trkpt lat="45.39326" lon="3.38694">
        <ele>552.8</ele>
        <time>2020-09-17T14:14:32Z</time>
      </trkpt>
      <trkpt lat="45.39326" lon="3.38692">
        <ele>552.7</ele>
        <time>2020-09-17T14:14:33Z</time>
      </trkpt>
      <trkpt lat="45.39327" lon="3.38691">
        <ele>552.7</ele>
        <time>2020-09-17T14:14:34Z</time>
      </trkpt>
      <trkpt lat="45.39327" lon="3.38689">
        <ele>552.7</ele>
        <time>2020-09-17T14:14:35Z</time>
      </trkpt>
      <trkpt lat="45.39328" lon="3.38688">
        <ele>552.7</ele>
        <time>2020-09-17T14:14:36Z</time>
      </trkpt>
      <trkpt lat="45.39328" lon="3.38686">
        <ele>552.7</ele>
        <time>2020-09-17T14:14:37Z</time>
      </trkpt>
      <trkpt lat="45.39328" lon="3.38684">
        <ele>552.7</ele>
        <time>2020-09-17T14:14:38Z</time>
      </trkpt>
      <trkpt lat="45.39329" lon="3.38683">
        <ele>552.7</ele>
        <time>2020-09-17T14:14:39Z</time>
      </trkpt>
      <trkpt lat="45.39329" lon="3.38681">
        <ele>552.6</ele>
        <time>2020-09-17T14:14:40Z</time>
      </trkpt>
      <trkpt lat="45.3933" lon="3.38679">
        <ele>552.7</ele>
        <time>2020-09-17T14:14:41Z</time>
      </trkpt>
      <trkpt lat="45.3933" lon="3.38678">
        <ele>552.6</ele>
        <time>2020-09-17T14:14:42Z</time>
      </trkpt>
      <trkpt lat="45.3933" lon="3.38677">
        <ele>552.6</ele>
        <time>2020-09-17T14:14:43Z</time>
      </trkpt>
      <trkpt lat="45.39331" lon="3.38675">
        <ele>552.7</ele>
        <time>2020-09-17T14:14:44Z</time>
      </trkpt>
      <trkpt lat="45.39331" lon="3.38674">
        <ele>552.7</ele>
        <time>2020-09-17T14:14:45Z</time>
      </trkpt>
      <trkpt lat="45.39331" lon="3.38672">
        <ele>552.7</ele>
        <time>2020-09-17T14:14:46Z</time>
      </trkpt>
      <trkpt lat="45.39331" lon="3.38671">
        <ele>552.6</ele>
        <time>2020-09-17T14:14:47Z</time>
      </trkpt>
      <trkpt lat="45.39331" lon="3.3867">
        <ele>552.5</ele>
        <time>2020-09-17T14:14:48Z</time>
      </trkpt>
      <trkpt lat="45.39332" lon="3.38668">
        <ele>552.5</ele>
        <time>2020-09-17T14:14:49Z</time>
      </trkpt>
      <trkpt lat="45.39332" lon="3.38666">
        <ele>552.4</ele>
        <time>2020-09-17T14:14:50Z</time>
      </trkpt>
      <trkpt lat="45.39332" lon="3.38665">
        <ele>552.5</ele>
        <time>2020-09-17T14:14:51Z</time>
      </trkpt>
      <trkpt lat="45.39332" lon="3.38664">
        <ele>552.5</ele>
        <time>2020-09-17T14:14:52Z</time>
      </trkpt>
      <trkpt lat="45.39333" lon="3.38662">
        <ele>552.5</ele>
        <time>2020-09-17T14:14:53Z</time>
      </trkpt>
      <trkpt lat="45.39333" lon="3.38661">
        <ele>552.5</ele>
        <time>2020-09-17T14:14:54Z</time>
      </trkpt>
      <trkpt lat="45.39333" lon="3.38659">
        <ele>552.5</ele>
        <time>2020-09-17T14:14:55Z</time>
      </trkpt>
      <trkpt lat="45.39333" lon="3.38658">
        <ele>552.4</ele>
        <time>2020-09-17T14:14:56Z</time>
      </trkpt>
      <trkpt lat="45.39333" lon="3.38656">
        <ele>552.4</ele>
        <time>2020-09-17T14:14:57Z</time>
      </trkpt>
      <trkpt lat="45.39333" lon="3.38655">
        <ele>552.4</ele>
        <time>2020-09-17T14:14:58Z</time>
      </trkpt>
      <trkpt lat="45.39333" lon="3.38653">
        <ele>552.3</ele>
        <time>2020-09-17T14:14:59Z</time>
      </trkpt>
      <trkpt lat="45.39333" lon="3.38652">
        <ele>552.2</ele>
        <time>2020-09-17T14:15:00Z</time>
      </trkpt>
      <trkpt lat="45.39333" lon="3.3865">
        <ele>552.1</ele>
        <time>2020-09-17T14:15:01Z</time>
      </trkpt>
      <trkpt lat="45.39333" lon="3.38649">
        <ele>552</ele>
        <time>2020-09-17T14:15:02Z</time>
      </trkpt>
      <trkpt lat="45.39333" lon="3.38647">
        <ele>552</ele>
        <time>2020-09-17T14:15:03Z</time>
      </trkpt>
      <trkpt lat="45.39333" lon="3.38646">
        <ele>551.9</ele>
        <time>2020-09-17T14:15:04Z</time>
      </trkpt>
      <trkpt lat="45.39332" lon="3.38645">
        <ele>551.8</ele>
        <time>2020-09-17T14:15:05Z</time>
      </trkpt>
      <trkpt lat="45.39332" lon="3.38643">
        <ele>551.6</ele>
        <time>2020-09-17T14:15:06Z</time>
      </trkpt>
      <trkpt lat="45.39332" lon="3.38642">
        <ele>551.5</ele>
        <time>2020-09-17T14:15:07Z</time>
      </trkpt>
      <trkpt lat="45.39331" lon="3.38641">
        <ele>551.2</ele>
        <time>2020-09-17T14:15:08Z</time>
      </trkpt>
      <trkpt lat="45.39331" lon="3.38639">
        <ele>550.9</ele>
        <time>2020-09-17T14:15:09Z</time>
      </trkpt>
      <trkpt lat="45.3933" lon="3.38638">
        <ele>550.8</ele>
        <time>2020-09-17T14:15:10Z</time>
      </trkpt>
      <trkpt lat="45.3933" lon="3.38636">
        <ele>550.6</ele>
        <time>2020-09-17T14:15:11Z</time>
      </trkpt>
      <trkpt lat="45.39329" lon="3.38635">
        <ele>550.4</ele>
        <time>2020-09-17T14:15:12Z</time>
      </trkpt>
      <trkpt lat="45.39329" lon="3.38634">
        <ele>550.2</ele>
        <time>2020-09-17T14:15:13Z</time>
      </trkpt>
      <trkpt lat="45.39328" lon="3.38632">
        <ele>550.1</ele>
        <time>2020-09-17T14:15:14Z</time>
      </trkpt>
      <trkpt lat="45.39328" lon="3.38631">
        <ele>550</ele>
        <time>2020-09-17T14:15:15Z</time>
      </trkpt>
      <trkpt lat="45.39328" lon="3.38629">
        <ele>549.9</ele>
        <time>2020-09-17T14:15:16Z</time>
      </trkpt>
      <trkpt lat="45.39327" lon="3.38628">
        <ele>549.8</ele>
        <time>2020-09-17T14:15:17Z</time>
      </trkpt>
      <trkpt lat="45.39327" lon="3.38626">
        <ele>549.8</ele>
        <time>2020-09-17T14:15:18Z</time>
      </trkpt>
      <trkpt lat="45.39327" lon="3.38624">
        <ele>549.7</ele>
        <time>2020-09-17T14:15:19Z</time>
      </trkpt>
      <trkpt lat="45.39326" lon="3.38623">
        <ele>549.7</ele>
        <time>2020-09-17T14:15:20Z</time>
      </trkpt>
      <trkpt lat="45.39326" lon="3.38621">
        <ele>549.6</ele>
        <time>2020-09-17T14:15:21Z</time>
      </trkpt>
      <trkpt lat="45.39326" lon="3.38619">
        <ele>549.6</ele>
        <time>2020-09-17T14:15:22Z</time>
      </trkpt>
      <trkpt lat="45.39326" lon="3.38618">
        <ele>549.6</ele>
        <time>2020-09-17T14:15:23Z</time>
      </trkpt>
      <trkpt lat="45.39325" lon="3.38616">
        <ele>549.5</ele>
        <time>2020-09-17T14:15:24Z</time>
      </trkpt>
      <trkpt lat="45.39325" lon="3.38614">
        <ele>549.5</ele>
        <time>2020-09-17T14:15:25Z</time>
      </trkpt>
      <trkpt lat="45.39325" lon="3.38613">
        <ele>549.6</ele>
        <time>2020-09-17T14:15:26Z</time>
      </trkpt>
      <trkpt lat="45.39325" lon="3.38611">
        <ele>549.6</ele>
        <time>2020-09-17T14:15:27Z</time>
      </trkpt>
      <trkpt lat="45.39325" lon="3.3861">
        <ele>549.5</ele>
        <time>2020-09-17T14:15:28Z</time>
      </trkpt>
      <trkpt lat="45.39325" lon="3.38608">
        <ele>549.3</ele>
        <time>2020-09-17T14:15:29Z</time>
      </trkpt>
      <trkpt lat="45.39325" lon="3.38607">
        <ele>549.2</ele>
        <time>2020-09-17T14:15:30Z</time>
      </trkpt>
      <trkpt lat="45.39325" lon="3.38605">
        <ele>549</ele>
        <time>2020-09-17T14:15:31Z</time>
      </trkpt>
      <trkpt lat="45.39325" lon="3.38604">
        <ele>548.9</ele>
        <time>2020-09-17T14:15:32Z</time>
      </trkpt>
      <trkpt lat="45.39325" lon="3.38603">
        <ele>548.8</ele>
        <time>2020-09-17T14:15:33Z</time>
      </trkpt>
      <trkpt lat="45.39325" lon="3.38602">
        <ele>548.7</ele>
        <time>2020-09-17T14:15:34Z</time>
      </trkpt>
      <trkpt lat="45.39325" lon="3.386">
        <ele>548.6</ele>
        <time>2020-09-17T14:15:35Z</time>
      </trkpt>
      <trkpt lat="45.39325" lon="3.38599">
        <ele>548.5</ele>
        <time>2020-09-17T14:15:36Z</time>
      </trkpt>
      <trkpt lat="45.39325" lon="3.38597">
        <ele>548.4</ele>
        <time>2020-09-17T14:15:37Z</time>
      </trkpt>
      <trkpt lat="45.39325" lon="3.38596">
        <ele>548.3</ele>
        <time>2020-09-17T14:15:38Z</time>
      </trkpt>
      <trkpt lat="45.39325" lon="3.38595">
        <ele>548.1</ele>
        <time>2020-09-17T14:15:39Z</time>
      </trkpt>
      <trkpt lat="45.39325" lon="3.38593">
        <ele>548</ele>
        <time>2020-09-17T14:15:40Z</time>
      </trkpt>
      <trkpt lat="45.39325" lon="3.38592">
        <ele>547.8</ele>
        <time>2020-09-17T14:15:41Z</time>
      </trkpt>
      <trkpt lat="45.39324" lon="3.38591">
        <ele>547.7</ele>
        <time>2020-09-17T14:15:42Z</time>
      </trkpt>
      <trkpt lat="45.39324" lon="3.38589">
        <ele>547.6</ele>
        <time>2020-09-17T14:15:43Z</time>
      </trkpt>
      <trkpt lat="45.39324" lon="3.38588">
        <ele>547.4</ele>
        <time>2020-09-17T14:15:44Z</time>
      </trkpt>
      <trkpt lat="45.39324" lon="3.38586">
        <ele>547.3</ele>
        <time>2020-09-17T14:15:45Z</time>
      </trkpt>
      <trkpt lat="45.39324" lon="3.38585">
        <ele>547.1</ele>
        <time>2020-09-17T14:15:46Z</time>
      </trkpt>
      <trkpt lat="45.39324" lon="3.38583">
        <ele>547</ele>
        <time>2020-09-17T14:15:47Z</time>
      </trkpt>
      <trkpt lat="45.39324" lon="3.38582">
        <ele>546.9</ele>
        <time>2020-09-17T14:15:48Z</time>
      </trkpt>
      <trkpt lat="45.39324" lon="3.3858">
        <ele>546.7</ele>
        <time>2020-09-17T14:15:49Z</time>
      </trkpt>
      <trkpt lat="45.39324" lon="3.38579">
        <ele>546.6</ele>
        <time>2020-09-17T14:15:50Z</time>
      </trkpt>
      <trkpt lat="45.39324" lon="3.38577">
        <ele>546.5</ele>
        <time>2020-09-17T14:15:51Z</time>
      </trkpt>
      <trkpt lat="45.39324" lon="3.38576">
        <ele>546.3</ele>
        <time>2020-09-17T14:15:52Z</time>
      </trkpt>
      <trkpt lat="45.39324" lon="3.38574">
        <ele>546.2</ele>
        <time>2020-09-17T14:15:53Z</time>
      </trkpt>
      <trkpt lat="45.39324" lon="3.38572">
        <ele>546.1</ele>
        <time>2020-09-17T14:15:54Z</time>
      </trkpt>
      <trkpt lat="45.39324" lon="3.38571">
        <ele>546</ele>
        <time>2020-09-17T14:15:55Z</time>
      </trkpt>
      <trkpt lat="45.39323" lon="3.38569">
        <ele>545.8</ele>
        <time>2020-09-17T14:15:56Z</time>
      </trkpt>
      <trkpt lat="45.39323" lon="3.38567">
        <ele>545.6</ele>
        <time>2020-09-17T14:15:57Z</time>
      </trkpt>
      <trkpt lat="45.39323" lon="3.38566">
        <ele>545.5</ele>
        <time>2020-09-17T14:15:58Z</time>
      </trkpt>
      <trkpt lat="45.39323" lon="3.38564">
        <ele>545.4</ele>
        <time>2020-09-17T14:15:59Z</time>
      </trkpt>
      <trkpt lat="45.39323" lon="3.38563">
        <ele>545.3</ele>
        <time>2020-09-17T14:16:00Z</time>
      </trkpt>
      <trkpt lat="45.39323" lon="3.38561">
        <ele>545.2</ele>
        <time>2020-09-17T14:16:01Z</time>
      </trkpt>
      <trkpt lat="45.39323" lon="3.3856">
        <ele>545.1</ele>
        <time>2020-09-17T14:16:02Z</time>
      </trkpt>
      <trkpt lat="45.39323" lon="3.38558">
        <ele>544.9</ele>
        <time>2020-09-17T14:16:03Z</time>
      </trkpt>
      <trkpt lat="45.39323" lon="3.38557">
        <ele>544.8</ele>
        <time>2020-09-17T14:16:04Z</time>
      </trkpt>
      <trkpt lat="45.39323" lon="3.38555">
        <ele>544.7</ele>
        <time>2020-09-17T14:16:05Z</time>
      </trkpt>
      <trkpt lat="45.39323" lon="3.38554">
        <ele>544.5</ele>
        <time>2020-09-17T14:16:06Z</time>
      </trkpt>
      <trkpt lat="45.39323" lon="3.38553">
        <ele>544.3</ele>
        <time>2020-09-17T14:16:07Z</time>
      </trkpt>
      <trkpt lat="45.39322" lon="3.38551">
        <ele>544.1</ele>
        <time>2020-09-17T14:16:08Z</time>
      </trkpt>
      <trkpt lat="45.39322" lon="3.3855">
        <ele>544</ele>
        <time>2020-09-17T14:16:09Z</time>
      </trkpt>
      <trkpt lat="45.39322" lon="3.38548">
        <ele>543.8</ele>
        <time>2020-09-17T14:16:10Z</time>
      </trkpt>
      <trkpt lat="45.39322" lon="3.38546">
        <ele>543.6</ele>
        <time>2020-09-17T14:16:11Z</time>
      </trkpt>
      <trkpt lat="45.39322" lon="3.38545">
        <ele>543.4</ele>
        <time>2020-09-17T14:16:12Z</time>
      </trkpt>
      <trkpt lat="45.39322" lon="3.38543">
        <ele>543.2</ele>
        <time>2020-09-17T14:16:13Z</time>
      </trkpt>
      <trkpt lat="45.39322" lon="3.38542">
        <ele>543</ele>
        <time>2020-09-17T14:16:14Z</time>
      </trkpt>
      <trkpt lat="45.39322" lon="3.3854">
        <ele>542.8</ele>
        <time>2020-09-17T14:16:15Z</time>
      </trkpt>
      <trkpt lat="45.39321" lon="3.38539">
        <ele>542.6</ele>
        <time>2020-09-17T14:16:16Z</time>
      </trkpt>
      <trkpt lat="45.39321" lon="3.38537">
        <ele>542.4</ele>
        <time>2020-09-17T14:16:17Z</time>
      </trkpt>
      <trkpt lat="45.39321" lon="3.38536">
        <ele>542.3</ele>
        <time>2020-09-17T14:16:18Z</time>
      </trkpt>
      <trkpt lat="45.39321" lon="3.38535">
        <ele>542.2</ele>
        <time>2020-09-17T14:16:19Z</time>
      </trkpt>
      <trkpt lat="45.39322" lon="3.38533">
        <ele>542</ele>
        <time>2020-09-17T14:16:20Z</time>
      </trkpt>
      <trkpt lat="45.39322" lon="3.38532">
        <ele>541.9</ele>
        <time>2020-09-17T14:16:21Z</time>
      </trkpt>
      <trkpt lat="45.39322" lon="3.3853">
        <ele>541.8</ele>
        <time>2020-09-17T14:16:22Z</time>
      </trkpt>
      <trkpt lat="45.39322" lon="3.38529">
        <ele>541.6</ele>
        <time>2020-09-17T14:16:23Z</time>
      </trkpt>
      <trkpt lat="45.39322" lon="3.38527">
        <ele>541.4</ele>
        <time>2020-09-17T14:16:24Z</time>
      </trkpt>
      <trkpt lat="45.39321" lon="3.38526">
        <ele>541.3</ele>
        <time>2020-09-17T14:16:25Z</time>
      </trkpt>
      <trkpt lat="45.39321" lon="3.38525">
        <ele>541.2</ele>
        <time>2020-09-17T14:16:26Z</time>
      </trkpt>
      <trkpt lat="45.39321" lon="3.38523">
        <ele>541.1</ele>
        <time>2020-09-17T14:16:27Z</time>
      </trkpt>
      <trkpt lat="45.39321" lon="3.38522">
        <ele>541</ele>
        <time>2020-09-17T14:16:28Z</time>
      </trkpt>
      <trkpt lat="45.3932" lon="3.3852">
        <ele>540.9</ele>
        <time>2020-09-17T14:16:29Z</time>
      </trkpt>
      <trkpt lat="45.3932" lon="3.38519">
        <ele>540.8</ele>
        <time>2020-09-17T14:16:30Z</time>
      </trkpt>
      <trkpt lat="45.3932" lon="3.38517">
        <ele>540.8</ele>
        <time>2020-09-17T14:16:31Z</time>
      </trkpt>
      <trkpt lat="45.3932" lon="3.38516">
        <ele>540.7</ele>
        <time>2020-09-17T14:16:32Z</time>
      </trkpt>
      <trkpt lat="45.3932" lon="3.38514">
        <ele>540.7</ele>
        <time>2020-09-17T14:16:33Z</time>
      </trkpt>
      <trkpt lat="45.3932" lon="3.38513">
        <ele>540.6</ele>
        <time>2020-09-17T14:16:34Z</time>
      </trkpt>
      <trkpt lat="45.39321" lon="3.38512">
        <ele>540.6</ele>
        <time>2020-09-17T14:16:35Z</time>
      </trkpt>
      <trkpt lat="45.39321" lon="3.3851">
        <ele>540.5</ele>
        <time>2020-09-17T14:16:36Z</time>
      </trkpt>
      <trkpt lat="45.39321" lon="3.38508">
        <ele>540.5</ele>
        <time>2020-09-17T14:16:37Z</time>
      </trkpt>
      <trkpt lat="45.39321" lon="3.38507">
        <ele>540.4</ele>
        <time>2020-09-17T14:16:38Z</time>
      </trkpt>
      <trkpt lat="45.39321" lon="3.38505">
        <ele>540.4</ele>
        <time>2020-09-17T14:16:39Z</time>
      </trkpt>
      <trkpt lat="45.39321" lon="3.38504">
        <ele>540.3</ele>
        <time>2020-09-17T14:16:40Z</time>
      </trkpt>
      <trkpt lat="45.39321" lon="3.38502">
        <ele>540.3</ele>
        <time>2020-09-17T14:16:41Z</time>
      </trkpt>
      <trkpt lat="45.39321" lon="3.38501">
        <ele>540.2</ele>
        <time>2020-09-17T14:16:42Z</time>
      </trkpt>
      <trkpt lat="45.39321" lon="3.38499">
        <ele>540.2</ele>
        <time>2020-09-17T14:16:43Z</time>
      </trkpt>
      <trkpt lat="45.39321" lon="3.38498">
        <ele>540.1</ele>
        <time>2020-09-17T14:16:44Z</time>
      </trkpt>
      <trkpt lat="45.39321" lon="3.38497">
        <ele>539.9</ele>
        <time>2020-09-17T14:16:45Z</time>
      </trkpt>
      <trkpt lat="45.39322" lon="3.38495">
        <ele>539.9</ele>
        <time>2020-09-17T14:16:46Z</time>
      </trkpt>
      <trkpt lat="45.39322" lon="3.38494">
        <ele>539.7</ele>
        <time>2020-09-17T14:16:47Z</time>
      </trkpt>
      <trkpt lat="45.39322" lon="3.38493">
        <ele>539.7</ele>
        <time>2020-09-17T14:16:48Z</time>
      </trkpt>
      <trkpt lat="45.39322" lon="3.38492">
        <ele>539.5</ele>
        <time>2020-09-17T14:16:49Z</time>
      </trkpt>
      <trkpt lat="45.39322" lon="3.3849">
        <ele>539.4</ele>
        <time>2020-09-17T14:16:50Z</time>
      </trkpt>
      <trkpt lat="45.39323" lon="3.38489">
        <ele>539.3</ele>
        <time>2020-09-17T14:16:51Z</time>
      </trkpt>
      <trkpt lat="45.39323" lon="3.38488">
        <ele>539.2</ele>
        <time>2020-09-17T14:16:52Z</time>
      </trkpt>
      <trkpt lat="45.39324" lon="3.38486">
        <ele>539.1</ele>
        <time>2020-09-17T14:16:53Z</time>
      </trkpt>
      <trkpt lat="45.39324" lon="3.38485">
        <ele>539</ele>
        <time>2020-09-17T14:16:54Z</time>
      </trkpt>
      <trkpt lat="45.39324" lon="3.38483">
        <ele>538.9</ele>
        <time>2020-09-17T14:16:55Z</time>
      </trkpt>
      <trkpt lat="45.39325" lon="3.38482">
        <ele>538.8</ele>
        <time>2020-09-17T14:16:56Z</time>
      </trkpt>
      <trkpt lat="45.39325" lon="3.38481">
        <ele>538.6</ele>
        <time>2020-09-17T14:16:57Z</time>
      </trkpt>
      <trkpt lat="45.39325" lon="3.38479">
        <ele>538.5</ele>
        <time>2020-09-17T14:16:58Z</time>
      </trkpt>
      <trkpt lat="45.39326" lon="3.38478">
        <ele>538.4</ele>
        <time>2020-09-17T14:16:59Z</time>
      </trkpt>
      <trkpt lat="45.39326" lon="3.38477">
        <ele>538.3</ele>
        <time>2020-09-17T14:17:00Z</time>
      </trkpt>
      <trkpt lat="45.39327" lon="3.38476">
        <ele>538.1</ele>
        <time>2020-09-17T14:17:01Z</time>
      </trkpt>
      <trkpt lat="45.39327" lon="3.38474">
        <ele>538</ele>
        <time>2020-09-17T14:17:02Z</time>
      </trkpt>
      <trkpt lat="45.39328" lon="3.38473">
        <ele>537.9</ele>
        <time>2020-09-17T14:17:03Z</time>
      </trkpt>
      <trkpt lat="45.39328" lon="3.38472">
        <ele>537.7</ele>
        <time>2020-09-17T14:17:04Z</time>
      </trkpt>
      <trkpt lat="45.39328" lon="3.3847">
        <ele>537.6</ele>
        <time>2020-09-17T14:17:05Z</time>
      </trkpt>
      <trkpt lat="45.39329" lon="3.38469">
        <ele>537.4</ele>
        <time>2020-09-17T14:17:06Z</time>
      </trkpt>
      <trkpt lat="45.39329" lon="3.38468">
        <ele>537.3</ele>
        <time>2020-09-17T14:17:07Z</time>
      </trkpt>
      <trkpt lat="45.39329" lon="3.38467">
        <ele>537.2</ele>
        <time>2020-09-17T14:17:08Z</time>
      </trkpt>
      <trkpt lat="45.39329" lon="3.38466">
        <ele>537</ele>
        <time>2020-09-17T14:17:09Z</time>
      </trkpt>
      <trkpt lat="45.39329" lon="3.38465">
        <ele>536.9</ele>
        <time>2020-09-17T14:17:10Z</time>
      </trkpt>
      <trkpt lat="45.3933" lon="3.38464">
        <ele>536.7</ele>
        <time>2020-09-17T14:17:11Z</time>
      </trkpt>
      <trkpt lat="45.3933" lon="3.38463">
        <ele>536.6</ele>
        <time>2020-09-17T14:17:12Z</time>
      </trkpt>
      <trkpt lat="45.3933" lon="3.38462">
        <ele>536.4</ele>
        <time>2020-09-17T14:17:13Z</time>
      </trkpt>
      <trkpt lat="45.3933" lon="3.3846">
        <ele>536.3</ele>
        <time>2020-09-17T14:17:14Z</time>
      </trkpt>
      <trkpt lat="45.3933" lon="3.38459">
        <ele>536.1</ele>
        <time>2020-09-17T14:17:15Z</time>
      </trkpt>
      <trkpt lat="45.3933" lon="3.38458">
        <ele>536</ele>
        <time>2020-09-17T14:17:16Z</time>
      </trkpt>
      <trkpt lat="45.3933" lon="3.38457">
        <ele>535.8</ele>
        <time>2020-09-17T14:17:17Z</time>
      </trkpt>
      <trkpt lat="45.3933" lon="3.38456">
        <ele>535.6</ele>
        <time>2020-09-17T14:17:18Z</time>
      </trkpt>
      <trkpt lat="45.3933" lon="3.38454">
        <ele>535.4</ele>
        <time>2020-09-17T14:17:19Z</time>
      </trkpt>
      <trkpt lat="45.3933" lon="3.38453">
        <ele>535.2</ele>
        <time>2020-09-17T14:17:20Z</time>
      </trkpt>
      <trkpt lat="45.39331" lon="3.38451">
        <ele>535</ele>
        <time>2020-09-17T14:17:21Z</time>
      </trkpt>
      <trkpt lat="45.39331" lon="3.3845">
        <ele>534.8</ele>
        <time>2020-09-17T14:17:22Z</time>
      </trkpt>
      <trkpt lat="45.39331" lon="3.38449">
        <ele>534.7</ele>
        <time>2020-09-17T14:17:23Z</time>
      </trkpt>
      <trkpt lat="45.39331" lon="3.38448">
        <ele>534.5</ele>
        <time>2020-09-17T14:17:24Z</time>
      </trkpt>
      <trkpt lat="45.39331" lon="3.38447">
        <ele>534.4</ele>
        <time>2020-09-17T14:17:25Z</time>
      </trkpt>
      <trkpt lat="45.39331" lon="3.38445">
        <ele>534.2</ele>
        <time>2020-09-17T14:17:26Z</time>
      </trkpt>
      <trkpt lat="45.39331" lon="3.38444">
        <ele>534</ele>
        <time>2020-09-17T14:17:27Z</time>
      </trkpt>
      <trkpt lat="45.39331" lon="3.38443">
        <ele>533.8</ele>
        <time>2020-09-17T14:17:28Z</time>
      </trkpt>
      <trkpt lat="45.39331" lon="3.38442">
        <ele>533.6</ele>
        <time>2020-09-17T14:17:29Z</time>
      </trkpt>
      <trkpt lat="45.39331" lon="3.3844">
        <ele>533.5</ele>
        <time>2020-09-17T14:17:30Z</time>
      </trkpt>
      <trkpt lat="45.39331" lon="3.3844">
        <ele>533.3</ele>
        <time>2020-09-17T14:17:31Z</time>
      </trkpt>
      <trkpt lat="45.39331" lon="3.38439">
        <ele>533.2</ele>
        <time>2020-09-17T14:17:32Z</time>
      </trkpt>
      <trkpt lat="45.39331" lon="3.38438">
        <ele>533.1</ele>
        <time>2020-09-17T14:17:33Z</time>
      </trkpt>
      <trkpt lat="45.39331" lon="3.38437">
        <ele>532.9</ele>
        <time>2020-09-17T14:17:34Z</time>
      </trkpt>
      <trkpt lat="45.39331" lon="3.38435">
        <ele>532.7</ele>
        <time>2020-09-17T14:17:35Z</time>
      </trkpt>
      <trkpt lat="45.39331" lon="3.38434">
        <ele>532.5</ele>
        <time>2020-09-17T14:17:36Z</time>
      </trkpt>
      <trkpt lat="45.39331" lon="3.38433">
        <ele>532.3</ele>
        <time>2020-09-17T14:17:37Z</time>
      </trkpt>
      <trkpt lat="45.39331" lon="3.38432">
        <ele>532.2</ele>
        <time>2020-09-17T14:17:38Z</time>
      </trkpt>
      <trkpt lat="45.39331" lon="3.38431">
        <ele>532</ele>
        <time>2020-09-17T14:17:39Z</time>
      </trkpt>
      <trkpt lat="45.39331" lon="3.3843">
        <ele>531.9</ele>
        <time>2020-09-17T14:17:40Z</time>
      </trkpt>
      <trkpt lat="45.39331" lon="3.38429">
        <ele>531.7</ele>
        <time>2020-09-17T14:17:41Z</time>
      </trkpt>
      <trkpt lat="45.39331" lon="3.38428">
        <ele>531.6</ele>
        <time>2020-09-17T14:17:42Z</time>
      </trkpt>
      <trkpt lat="45.39332" lon="3.38427">
        <ele>531.5</ele>
        <time>2020-09-17T14:17:43Z</time>
      </trkpt>
      <trkpt lat="45.39332" lon="3.38426">
        <ele>531.3</ele>
        <time>2020-09-17T14:17:44Z</time>
      </trkpt>
      <trkpt lat="45.39332" lon="3.38425">
        <ele>531.2</ele>
        <time>2020-09-17T14:17:45Z</time>
      </trkpt>
      <trkpt lat="45.39332" lon="3.38424">
        <ele>531</ele>
        <time>2020-09-17T14:17:46Z</time>
      </trkpt>
      <trkpt lat="45.39333" lon="3.38423">
        <ele>530.9</ele>
        <time>2020-09-17T14:17:47Z</time>
      </trkpt>
      <trkpt lat="45.39333" lon="3.38422">
        <ele>530.8</ele>
        <time>2020-09-17T14:17:48Z</time>
      </trkpt>
      <trkpt lat="45.39333" lon="3.38421">
        <ele>530.6</ele>
        <time>2020-09-17T14:17:49Z</time>
      </trkpt>
      <trkpt lat="45.39333" lon="3.3842">
        <ele>530.5</ele>
        <time>2020-09-17T14:17:50Z</time>
      </trkpt>
      <trkpt lat="45.39333" lon="3.38419">
        <ele>530.4</ele>
        <time>2020-09-17T14:17:51Z</time>
      </trkpt>
      <trkpt lat="45.39333" lon="3.38418">
        <ele>530.2</ele>
        <time>2020-09-17T14:17:52Z</time>
      </trkpt>
      <trkpt lat="45.39334" lon="3.38418">
        <ele>530.1</ele>
        <time>2020-09-17T14:17:53Z</time>
      </trkpt>
      <trkpt lat="45.39334" lon="3.38417">
        <ele>530</ele>
        <time>2020-09-17T14:17:54Z</time>
      </trkpt>
      <trkpt lat="45.39334" lon="3.38416">
        <ele>529.8</ele>
        <time>2020-09-17T14:17:55Z</time>
      </trkpt>
      <trkpt lat="45.39334" lon="3.38415">
        <ele>529.6</ele>
        <time>2020-09-17T14:17:56Z</time>
      </trkpt>
      <trkpt lat="45.39334" lon="3.38414">
        <ele>529.5</ele>
        <time>2020-09-17T14:17:57Z</time>
      </trkpt>
      <trkpt lat="45.39334" lon="3.38414">
        <ele>529.3</ele>
        <time>2020-09-17T14:17:58Z</time>
      </trkpt>
      <trkpt lat="45.39334" lon="3.38413">
        <ele>529.1</ele>
        <time>2020-09-17T14:17:59Z</time>
      </trkpt>
      <trkpt lat="45.39335" lon="3.38412">
        <ele>528.8</ele>
        <time>2020-09-17T14:18:00Z</time>
      </trkpt>
      <trkpt lat="45.39335" lon="3.38411">
        <ele>528.6</ele>
        <time>2020-09-17T14:18:01Z</time>
      </trkpt>
      <trkpt lat="45.39335" lon="3.3841">
        <ele>528.5</ele>
        <time>2020-09-17T14:18:02Z</time>
      </trkpt>
      <trkpt lat="45.39335" lon="3.38409">
        <ele>528.3</ele>
        <time>2020-09-17T14:18:03Z</time>
      </trkpt>
      <trkpt lat="45.39336" lon="3.38408">
        <ele>528.1</ele>
        <time>2020-09-17T14:18:04Z</time>
      </trkpt>
      <trkpt lat="45.39336" lon="3.38407">
        <ele>527.9</ele>
        <time>2020-09-17T14:18:05Z</time>
      </trkpt>
      <trkpt lat="45.39336" lon="3.38406">
        <ele>527.7</ele>
        <time>2020-09-17T14:18:06Z</time>
      </trkpt>
      <trkpt lat="45.39336" lon="3.38405">
        <ele>527.5</ele>
        <time>2020-09-17T14:18:07Z</time>
      </trkpt>
      <trkpt lat="45.39337" lon="3.38405">
        <ele>527.3</ele>
        <time>2020-09-17T14:18:08Z</time>
      </trkpt>
      <trkpt lat="45.39337" lon="3.38404">
        <ele>527.1</ele>
        <time>2020-09-17T14:18:09Z</time>
      </trkpt>
      <trkpt lat="45.39337" lon="3.38403">
        <ele>527</ele>
        <time>2020-09-17T14:18:10Z</time>
      </trkpt>
      <trkpt lat="45.39337" lon="3.38402">
        <ele>526.8</ele>
        <time>2020-09-17T14:18:11Z</time>
      </trkpt>
      <trkpt lat="45.39337" lon="3.38401">
        <ele>526.5</ele>
        <time>2020-09-17T14:18:12Z</time>
      </trkpt>
      <trkpt lat="45.39338" lon="3.384">
        <ele>526.3</ele>
        <time>2020-09-17T14:18:13Z</time>
      </trkpt>
      <trkpt lat="45.39337" lon="3.38399">
        <ele>526</ele>
        <time>2020-09-17T14:18:14Z</time>
      </trkpt>
      <trkpt lat="45.39338" lon="3.38398">
        <ele>525.8</ele>
        <time>2020-09-17T14:18:15Z</time>
      </trkpt>
      <trkpt lat="45.39338" lon="3.38397">
        <ele>525.5</ele>
        <time>2020-09-17T14:18:16Z</time>
      </trkpt>
      <trkpt lat="45.39338" lon="3.38395">
        <ele>525.2</ele>
        <time>2020-09-17T14:18:17Z</time>
      </trkpt>
      <trkpt lat="45.39338" lon="3.38394">
        <ele>525</ele>
        <time>2020-09-17T14:18:18Z</time>
      </trkpt>
      <trkpt lat="45.39338" lon="3.38393">
        <ele>524.8</ele>
        <time>2020-09-17T14:18:19Z</time>
      </trkpt>
      <trkpt lat="45.39338" lon="3.38393">
        <ele>524.6</ele>
        <time>2020-09-17T14:18:20Z</time>
      </trkpt>
      <trkpt lat="45.39338" lon="3.38392">
        <ele>524.4</ele>
        <time>2020-09-17T14:18:21Z</time>
      </trkpt>
      <trkpt lat="45.39338" lon="3.38391">
        <ele>524.1</ele>
        <time>2020-09-17T14:18:22Z</time>
      </trkpt>
      <trkpt lat="45.39338" lon="3.38389">
        <ele>523.8</ele>
        <time>2020-09-17T14:18:23Z</time>
      </trkpt>
      <trkpt lat="45.39338" lon="3.38388">
        <ele>523.6</ele>
        <time>2020-09-17T14:18:24Z</time>
      </trkpt>
      <trkpt lat="45.39337" lon="3.38386">
        <ele>523.5</ele>
        <time>2020-09-17T14:18:25Z</time>
      </trkpt>
      <trkpt lat="45.39337" lon="3.38385">
        <ele>523.3</ele>
        <time>2020-09-17T14:18:26Z</time>
      </trkpt>
      <trkpt lat="45.39337" lon="3.38384">
        <ele>523.2</ele>
        <time>2020-09-17T14:18:27Z</time>
      </trkpt>
      <trkpt lat="45.39337" lon="3.38383">
        <ele>523.1</ele>
        <time>2020-09-17T14:18:28Z</time>
      </trkpt>
      <trkpt lat="45.39337" lon="3.38382">
        <ele>522.9</ele>
        <time>2020-09-17T14:18:29Z</time>
      </trkpt>
      <trkpt lat="45.39337" lon="3.3838">
        <ele>522.7</ele>
        <time>2020-09-17T14:18:30Z</time>
      </trkpt>
      <trkpt lat="45.39337" lon="3.38379">
        <ele>522.6</ele>
        <time>2020-09-17T14:18:31Z</time>
      </trkpt>
      <trkpt lat="45.39337" lon="3.38378">
        <ele>522.5</ele>
        <time>2020-09-17T14:18:32Z</time>
      </trkpt>
      <trkpt lat="45.39337" lon="3.38376">
        <ele>522.4</ele>
        <time>2020-09-17T14:18:33Z</time>
      </trkpt>
      <trkpt lat="45.39337" lon="3.38375">
        <ele>522.3</ele>
        <time>2020-09-17T14:18:34Z</time>
      </trkpt>
      <trkpt lat="45.39337" lon="3.38375">
        <ele>522.2</ele>
        <time>2020-09-17T14:18:35Z</time>
      </trkpt>
      <trkpt lat="45.39337" lon="3.38375">
        <ele>522.2</ele>
        <time>2020-09-17T14:18:36Z</time>
      </trkpt>
      <trkpt lat="45.39336" lon="3.38375">
        <ele>522.1</ele>
        <time>2020-09-17T14:18:37Z</time>
      </trkpt>
      <trkpt lat="45.39336" lon="3.38374">
        <ele>522.1</ele>
        <time>2020-09-17T14:18:38Z</time>
      </trkpt>
      <trkpt lat="45.39336" lon="3.38374">
        <ele>522</ele>
        <time>2020-09-17T14:18:39Z</time>
      </trkpt>
      <trkpt lat="45.39336" lon="3.38374">
        <ele>522</ele>
        <time>2020-09-17T14:18:40Z</time>
      </trkpt>
      <trkpt lat="45.39336" lon="3.38374">
        <ele>522</ele>
        <time>2020-09-17T14:18:41Z</time>
      </trkpt>
      <trkpt lat="45.39336" lon="3.38374">
        <ele>521.9</ele>
        <time>2020-09-17T14:18:42Z</time>
      </trkpt>
      <trkpt lat="45.39336" lon="3.38374">
        <ele>521.9</ele>
        <time>2020-09-17T14:18:43Z</time>
      </trkpt>
      <trkpt lat="45.39336" lon="3.38374">
        <ele>521.9</ele>
        <time>2020-09-17T14:18:44Z</time>
      </trkpt>
      <trkpt lat="45.39336" lon="3.38373">
        <ele>521.9</ele>
        <time>2020-09-17T14:18:45Z</time>
      </trkpt>
      <trkpt lat="45.39336" lon="3.38373">
        <ele>521.9</ele>
        <time>2020-09-17T14:18:46Z</time>
      </trkpt>
      <trkpt lat="45.39336" lon="3.38373">
        <ele>521.9</ele>
        <time>2020-09-17T14:18:47Z</time>
      </trkpt>
      <trkpt lat="45.39336" lon="3.38373">
        <ele>521.8</ele>
        <time>2020-09-17T14:18:48Z</time>
      </trkpt>
      <trkpt lat="45.39336" lon="3.38373">
        <ele>521.8</ele>
        <time>2020-09-17T14:18:49Z</time>
      </trkpt>
      <trkpt lat="45.39336" lon="3.38373">
        <ele>521.8</ele>
        <time>2020-09-17T14:18:50Z</time>
      </trkpt>
      <trkpt lat="45.39336" lon="3.38373">
        <ele>521.8</ele>
        <time>2020-09-17T14:18:51Z</time>
      </trkpt>
      <trkpt lat="45.39336" lon="3.38373">
        <ele>521.8</ele>
        <time>2020-09-17T14:18:52Z</time>
      </trkpt>
      <trkpt lat="45.39336" lon="3.38373">
        <ele>521.8</ele>
        <time>2020-09-17T14:18:53Z</time>
      </trkpt>
      <trkpt lat="45.39336" lon="3.38373">
        <ele>521.8</ele>
        <time>2020-09-17T14:18:54Z</time>
      </trkpt>
      <trkpt lat="45.39336" lon="3.38373">
        <ele>521.7</ele>
        <time>2020-09-17T14:18:55Z</time>
      </trkpt>
      <trkpt lat="45.39336" lon="3.38373">
        <ele>521.7</ele>
        <time>2020-09-17T14:18:56Z</time>
      </trkpt>
      <trkpt lat="45.39336" lon="3.38373">
        <ele>521.7</ele>
        <time>2020-09-17T14:18:57Z</time>
      </trkpt>
      <trkpt lat="45.39336" lon="3.38373">
        <ele>521.7</ele>
        <time>2020-09-17T14:18:58Z</time>
      </trkpt>
      <trkpt lat="45.39336" lon="3.38372">
        <ele>521.7</ele>
        <time>2020-09-17T14:18:59Z</time>
      </trkpt>
      <trkpt lat="45.39336" lon="3.38372">
        <ele>521.7</ele>
        <time>2020-09-17T14:19:00Z</time>
      </trkpt>
      <trkpt lat="45.39335" lon="3.38372">
        <ele>521.6</ele>
        <time>2020-09-17T14:19:01Z</time>
      </trkpt>
      <trkpt lat="45.39335" lon="3.38371">
        <ele>521.4</ele>
        <time>2020-09-17T14:19:02Z</time>
      </trkpt>
      <trkpt lat="45.39334" lon="3.38371">
        <ele>521.2</ele>
        <time>2020-09-17T14:19:03Z</time>
      </trkpt>
      <trkpt lat="45.39334" lon="3.3837">
        <ele>521.1</ele>
        <time>2020-09-17T14:19:04Z</time>
      </trkpt>
      <trkpt lat="45.39334" lon="3.38369">
        <ele>521</ele>
        <time>2020-09-17T14:19:05Z</time>
      </trkpt>
      <trkpt lat="45.39334" lon="3.38368">
        <ele>520.8</ele>
        <time>2020-09-17T14:19:06Z</time>
      </trkpt>
      <trkpt lat="45.39333" lon="3.38366">
        <ele>520.6</ele>
        <time>2020-09-17T14:19:07Z</time>
      </trkpt>
      <trkpt lat="45.39333" lon="3.38365">
        <ele>520.4</ele>
        <time>2020-09-17T14:19:08Z</time>
      </trkpt>
      <trkpt lat="45.39333" lon="3.38364">
        <ele>520.1</ele>
        <time>2020-09-17T14:19:09Z</time>
      </trkpt>
      <trkpt lat="45.39332" lon="3.38363">
        <ele>519.8</ele>
        <time>2020-09-17T14:19:10Z</time>
      </trkpt>
      <trkpt lat="45.39331" lon="3.38362">
        <ele>519.5</ele>
        <time>2020-09-17T14:19:11Z</time>
      </trkpt>
      <trkpt lat="45.39331" lon="3.38361">
        <ele>519.3</ele>
        <time>2020-09-17T14:19:12Z</time>
      </trkpt>
      <trkpt lat="45.3933" lon="3.3836">
        <ele>519.1</ele>
        <time>2020-09-17T14:19:13Z</time>
      </trkpt>
      <trkpt lat="45.39329" lon="3.38359">
        <ele>519</ele>
        <time>2020-09-17T14:19:14Z</time>
      </trkpt>
      <trkpt lat="45.39328" lon="3.38359">
        <ele>518.7</ele>
        <time>2020-09-17T14:19:15Z</time>
      </trkpt>
      <trkpt lat="45.39327" lon="3.38357">
        <ele>518.5</ele>
        <time>2020-09-17T14:19:16Z</time>
      </trkpt>
      <trkpt lat="45.39326" lon="3.38356">
        <ele>518.2</ele>
        <time>2020-09-17T14:19:17Z</time>
      </trkpt>
      <trkpt lat="45.39325" lon="3.38355">
        <ele>517.9</ele>
        <time>2020-09-17T14:19:18Z</time>
      </trkpt>
      <trkpt lat="45.39325" lon="3.38354">
        <ele>517.7</ele>
        <time>2020-09-17T14:19:19Z</time>
      </trkpt>
      <trkpt lat="45.39324" lon="3.38352">
        <ele>517.5</ele>
        <time>2020-09-17T14:19:20Z</time>
      </trkpt>
      <trkpt lat="45.39324" lon="3.38351">
        <ele>517.4</ele>
        <time>2020-09-17T14:19:21Z</time>
      </trkpt>
      <trkpt lat="45.39323" lon="3.38349">
        <ele>517.2</ele>
        <time>2020-09-17T14:19:22Z</time>
      </trkpt>
      <trkpt lat="45.39323" lon="3.38348">
        <ele>517.1</ele>
        <time>2020-09-17T14:19:23Z</time>
      </trkpt>
      <trkpt lat="45.39322" lon="3.38346">
        <ele>516.8</ele>
        <time>2020-09-17T14:19:24Z</time>
      </trkpt>
      <trkpt lat="45.39322" lon="3.38345">
        <ele>516.7</ele>
        <time>2020-09-17T14:19:25Z</time>
      </trkpt>
      <trkpt lat="45.39322" lon="3.38343">
        <ele>516.6</ele>
        <time>2020-09-17T14:19:26Z</time>
      </trkpt>
      <trkpt lat="45.39322" lon="3.38342">
        <ele>516.5</ele>
        <time>2020-09-17T14:19:27Z</time>
      </trkpt>
      <trkpt lat="45.39322" lon="3.3834">
        <ele>516.5</ele>
        <time>2020-09-17T14:19:28Z</time>
      </trkpt>
      <trkpt lat="45.39322" lon="3.38338">
        <ele>516.4</ele>
        <time>2020-09-17T14:19:29Z</time>
      </trkpt>
      <trkpt lat="45.39322" lon="3.38336">
        <ele>516.4</ele>
        <time>2020-09-17T14:19:30Z</time>
      </trkpt>
      <trkpt lat="45.39322" lon="3.38335">
        <ele>516.4</ele>
        <time>2020-09-17T14:19:31Z</time>
      </trkpt>
      <trkpt lat="45.39322" lon="3.38333">
        <ele>516.4</ele>
        <time>2020-09-17T14:19:32Z</time>
      </trkpt>
      <trkpt lat="45.39322" lon="3.3833">
        <ele>516.3</ele>
        <time>2020-09-17T14:19:33Z</time>
      </trkpt>
      <trkpt lat="45.39322" lon="3.38328">
        <ele>516.3</ele>
        <time>2020-09-17T14:19:34Z</time>
      </trkpt>
      <trkpt lat="45.39323" lon="3.38326">
        <ele>516.2</ele>
        <time>2020-09-17T14:19:35Z</time>
      </trkpt>
      <trkpt lat="45.39323" lon="3.38324">
        <ele>516.2</ele>
        <time>2020-09-17T14:19:36Z</time>
      </trkpt>
      <trkpt lat="45.39323" lon="3.38323">
        <ele>516.1</ele>
        <time>2020-09-17T14:19:37Z</time>
      </trkpt>
      <trkpt lat="45.39323" lon="3.38321">
        <ele>515.9</ele>
        <time>2020-09-17T14:19:38Z</time>
      </trkpt>
      <trkpt lat="45.39323" lon="3.38318">
        <ele>515.7</ele>
        <time>2020-09-17T14:19:39Z</time>
      </trkpt>
      <trkpt lat="45.39323" lon="3.38316">
        <ele>515.6</ele>
        <time>2020-09-17T14:19:40Z</time>
      </trkpt>
      <trkpt lat="45.39323" lon="3.38314">
        <ele>515.6</ele>
        <time>2020-09-17T14:19:41Z</time>
      </trkpt>
      <trkpt lat="45.39323" lon="3.38312">
        <ele>515.6</ele>
        <time>2020-09-17T14:19:42Z</time>
      </trkpt>
      <trkpt lat="45.39324" lon="3.3831">
        <ele>515.5</ele>
        <time>2020-09-17T14:19:43Z</time>
      </trkpt>
      <trkpt lat="45.39324" lon="3.38308">
        <ele>515.5</ele>
        <time>2020-09-17T14:19:44Z</time>
      </trkpt>
      <trkpt lat="45.39324" lon="3.38306">
        <ele>515.4</ele>
        <time>2020-09-17T14:19:45Z</time>
      </trkpt>
      <trkpt lat="45.39325" lon="3.38305">
        <ele>515.3</ele>
        <time>2020-09-17T14:19:46Z</time>
      </trkpt>
      <trkpt lat="45.39325" lon="3.38303">
        <ele>515</ele>
        <time>2020-09-17T14:19:47Z</time>
      </trkpt>
      <trkpt lat="45.39325" lon="3.38301">
        <ele>514.8</ele>
        <time>2020-09-17T14:19:48Z</time>
      </trkpt>
      <trkpt lat="45.39326" lon="3.38299">
        <ele>514.6</ele>
        <time>2020-09-17T14:19:49Z</time>
      </trkpt>
      <trkpt lat="45.39326" lon="3.38297">
        <ele>514.4</ele>
        <time>2020-09-17T14:19:50Z</time>
      </trkpt>
      <trkpt lat="45.39327" lon="3.38295">
        <ele>514.2</ele>
        <time>2020-09-17T14:19:51Z</time>
      </trkpt>
      <trkpt lat="45.39327" lon="3.38294">
        <ele>514</ele>
        <time>2020-09-17T14:19:52Z</time>
      </trkpt>
      <trkpt lat="45.39328" lon="3.38292">
        <ele>513.7</ele>
        <time>2020-09-17T14:19:53Z</time>
      </trkpt>
      <trkpt lat="45.39328" lon="3.3829">
        <ele>513.5</ele>
        <time>2020-09-17T14:19:54Z</time>
      </trkpt>
      <trkpt lat="45.39328" lon="3.38288">
        <ele>513.3</ele>
        <time>2020-09-17T14:19:55Z</time>
      </trkpt>
      <trkpt lat="45.39329" lon="3.38287">
        <ele>513</ele>
        <time>2020-09-17T14:19:56Z</time>
      </trkpt>
      <trkpt lat="45.39329" lon="3.38285">
        <ele>512.7</ele>
        <time>2020-09-17T14:19:57Z</time>
      </trkpt>
      <trkpt lat="45.39329" lon="3.38283">
        <ele>512.4</ele>
        <time>2020-09-17T14:19:58Z</time>
      </trkpt>
      <trkpt lat="45.3933" lon="3.38281">
        <ele>512.1</ele>
        <time>2020-09-17T14:19:59Z</time>
      </trkpt>
      <trkpt lat="45.3933" lon="3.3828">
        <ele>511.9</ele>
        <time>2020-09-17T14:20:00Z</time>
      </trkpt>
      <trkpt lat="45.3933" lon="3.38278">
        <ele>511.6</ele>
        <time>2020-09-17T14:20:01Z</time>
      </trkpt>
      <trkpt lat="45.39331" lon="3.38277">
        <ele>511.4</ele>
        <time>2020-09-17T14:20:02Z</time>
      </trkpt>
      <trkpt lat="45.39332" lon="3.38275">
        <ele>511.1</ele>
        <time>2020-09-17T14:20:03Z</time>
      </trkpt>
      <trkpt lat="45.39332" lon="3.38274">
        <ele>510.9</ele>
        <time>2020-09-17T14:20:04Z</time>
      </trkpt>
      <trkpt lat="45.39333" lon="3.38274">
        <ele>510.8</ele>
        <time>2020-09-17T14:20:05Z</time>
      </trkpt>
      <trkpt lat="45.39333" lon="3.38273">
        <ele>510.6</ele>
        <time>2020-09-17T14:20:06Z</time>
      </trkpt>
      <trkpt lat="45.39334" lon="3.38272">
        <ele>510.4</ele>
        <time>2020-09-17T14:20:07Z</time>
      </trkpt>
      <trkpt lat="45.39334" lon="3.3827">
        <ele>510.2</ele>
        <time>2020-09-17T14:20:08Z</time>
      </trkpt>
      <trkpt lat="45.39335" lon="3.38269">
        <ele>509.9</ele>
        <time>2020-09-17T14:20:09Z</time>
      </trkpt>
      <trkpt lat="45.39335" lon="3.38268">
        <ele>509.7</ele>
        <time>2020-09-17T14:20:10Z</time>
      </trkpt>
      <trkpt lat="45.39336" lon="3.38267">
        <ele>509.5</ele>
        <time>2020-09-17T14:20:11Z</time>
      </trkpt>
      <trkpt lat="45.39336" lon="3.38266">
        <ele>509.3</ele>
        <time>2020-09-17T14:20:12Z</time>
      </trkpt>
      <trkpt lat="45.39337" lon="3.38265">
        <ele>509.1</ele>
        <time>2020-09-17T14:20:13Z</time>
      </trkpt>
      <trkpt lat="45.39338" lon="3.38264">
        <ele>508.9</ele>
        <time>2020-09-17T14:20:14Z</time>
      </trkpt>
      <trkpt lat="45.39339" lon="3.38264">
        <ele>508.8</ele>
        <time>2020-09-17T14:20:15Z</time>
      </trkpt>
      <trkpt lat="45.3934" lon="3.38263">
        <ele>508.8</ele>
        <time>2020-09-17T14:20:16Z</time>
      </trkpt>
      <trkpt lat="45.3934" lon="3.38263">
        <ele>508.7</ele>
        <time>2020-09-17T14:20:17Z</time>
      </trkpt>
      <trkpt lat="45.39341" lon="3.38262">
        <ele>508.5</ele>
        <time>2020-09-17T14:20:18Z</time>
      </trkpt>
      <trkpt lat="45.39342" lon="3.38261">
        <ele>508.2</ele>
        <time>2020-09-17T14:20:19Z</time>
      </trkpt>
      <trkpt lat="45.39342" lon="3.3826">
        <ele>508</ele>
        <time>2020-09-17T14:20:20Z</time>
      </trkpt>
      <trkpt lat="45.39343" lon="3.38259">
        <ele>507.9</ele>
        <time>2020-09-17T14:20:21Z</time>
      </trkpt>
      <trkpt lat="45.39343" lon="3.38258">
        <ele>507.8</ele>
        <time>2020-09-17T14:20:22Z</time>
      </trkpt>
      <trkpt lat="45.39344" lon="3.38258">
        <ele>507.6</ele>
        <time>2020-09-17T14:20:23Z</time>
      </trkpt>
      <trkpt lat="45.39345" lon="3.38257">
        <ele>507.5</ele>
        <time>2020-09-17T14:20:24Z</time>
      </trkpt>
      <trkpt lat="45.39345" lon="3.38256">
        <ele>507.4</ele>
        <time>2020-09-17T14:20:25Z</time>
      </trkpt>
      <trkpt lat="45.39346" lon="3.38256">
        <ele>507.4</ele>
        <time>2020-09-17T14:20:26Z</time>
      </trkpt>
      <trkpt lat="45.39347" lon="3.38256">
        <ele>507.4</ele>
        <time>2020-09-17T14:20:27Z</time>
      </trkpt>
      <trkpt lat="45.39348" lon="3.38255">
        <ele>507.3</ele>
        <time>2020-09-17T14:20:28Z</time>
      </trkpt>
      <trkpt lat="45.39348" lon="3.38255">
        <ele>507.3</ele>
        <time>2020-09-17T14:20:29Z</time>
      </trkpt>
      <trkpt lat="45.39349" lon="3.38254">
        <ele>507.2</ele>
        <time>2020-09-17T14:20:30Z</time>
      </trkpt>
      <trkpt lat="45.3935" lon="3.38254">
        <ele>507.2</ele>
        <time>2020-09-17T14:20:31Z</time>
      </trkpt>
      <trkpt lat="45.39351" lon="3.38253">
        <ele>507.1</ele>
        <time>2020-09-17T14:20:32Z</time>
      </trkpt>
      <trkpt lat="45.39352" lon="3.38253">
        <ele>507</ele>
        <time>2020-09-17T14:20:33Z</time>
      </trkpt>
      <trkpt lat="45.39353" lon="3.38252">
        <ele>506.8</ele>
        <time>2020-09-17T14:20:34Z</time>
      </trkpt>
      <trkpt lat="45.39353" lon="3.38251">
        <ele>506.6</ele>
        <time>2020-09-17T14:20:35Z</time>
      </trkpt>
      <trkpt lat="45.39354" lon="3.3825">
        <ele>506.4</ele>
        <time>2020-09-17T14:20:36Z</time>
      </trkpt>
      <trkpt lat="45.39355" lon="3.38249">
        <ele>506.3</ele>
        <time>2020-09-17T14:20:37Z</time>
      </trkpt>
      <trkpt lat="45.39356" lon="3.38247">
        <ele>506.1</ele>
        <time>2020-09-17T14:20:38Z</time>
      </trkpt>
      <trkpt lat="45.39356" lon="3.38245">
        <ele>505.8</ele>
        <time>2020-09-17T14:20:39Z</time>
      </trkpt>
      <trkpt lat="45.39356" lon="3.38243">
        <ele>505.5</ele>
        <time>2020-09-17T14:20:40Z</time>
      </trkpt>
      <trkpt lat="45.39357" lon="3.38242">
        <ele>505.3</ele>
        <time>2020-09-17T14:20:41Z</time>
      </trkpt>
      <trkpt lat="45.39357" lon="3.3824">
        <ele>505.1</ele>
        <time>2020-09-17T14:20:42Z</time>
      </trkpt>
      <trkpt lat="45.39357" lon="3.38238">
        <ele>504.8</ele>
        <time>2020-09-17T14:20:43Z</time>
      </trkpt>
      <trkpt lat="45.39358" lon="3.38236">
        <ele>504.5</ele>
        <time>2020-09-17T14:20:44Z</time>
      </trkpt>
      <trkpt lat="45.39358" lon="3.38234">
        <ele>504.3</ele>
        <time>2020-09-17T14:20:45Z</time>
      </trkpt>
      <trkpt lat="45.39358" lon="3.38232">
        <ele>504</ele>
        <time>2020-09-17T14:20:46Z</time>
      </trkpt>
      <trkpt lat="45.39359" lon="3.3823">
        <ele>503.7</ele>
        <time>2020-09-17T14:20:47Z</time>
      </trkpt>
      <trkpt lat="45.39359" lon="3.38228">
        <ele>503.4</ele>
        <time>2020-09-17T14:20:48Z</time>
      </trkpt>
      <trkpt lat="45.39359" lon="3.38226">
        <ele>503.1</ele>
        <time>2020-09-17T14:20:49Z</time>
      </trkpt>
      <trkpt lat="45.39359" lon="3.38224">
        <ele>502.7</ele>
        <time>2020-09-17T14:20:50Z</time>
      </trkpt>
      <trkpt lat="45.39359" lon="3.38222">
        <ele>502.5</ele>
        <time>2020-09-17T14:20:51Z</time>
      </trkpt>
      <trkpt lat="45.39359" lon="3.38219">
        <ele>502.3</ele>
        <time>2020-09-17T14:20:52Z</time>
      </trkpt>
      <trkpt lat="45.39359" lon="3.38217">
        <ele>502.2</ele>
        <time>2020-09-17T14:20:53Z</time>
      </trkpt>
      <trkpt lat="45.3936" lon="3.38215">
        <ele>502</ele>
        <time>2020-09-17T14:20:54Z</time>
      </trkpt>
      <trkpt lat="45.39359" lon="3.38212">
        <ele>501.8</ele>
        <time>2020-09-17T14:20:55Z</time>
      </trkpt>
      <trkpt lat="45.39359" lon="3.3821">
        <ele>501.5</ele>
        <time>2020-09-17T14:20:56Z</time>
      </trkpt>
      <trkpt lat="45.39359" lon="3.38207">
        <ele>501.2</ele>
        <time>2020-09-17T14:20:57Z</time>
      </trkpt>
      <trkpt lat="45.39359" lon="3.38204">
        <ele>501</ele>
        <time>2020-09-17T14:20:58Z</time>
      </trkpt>
      <trkpt lat="45.3936" lon="3.38202">
        <ele>500.9</ele>
        <time>2020-09-17T14:20:59Z</time>
      </trkpt>
      <trkpt lat="45.3936" lon="3.38199">
        <ele>500.8</ele>
        <time>2020-09-17T14:21:00Z</time>
      </trkpt>
      <trkpt lat="45.3936" lon="3.38197">
        <ele>500.9</ele>
        <time>2020-09-17T14:21:01Z</time>
      </trkpt>
      <trkpt lat="45.39361" lon="3.38196">
        <ele>500.9</ele>
        <time>2020-09-17T14:21:02Z</time>
      </trkpt>
      <trkpt lat="45.39361" lon="3.38194">
        <ele>500.9</ele>
        <time>2020-09-17T14:21:03Z</time>
      </trkpt>
      <trkpt lat="45.39361" lon="3.38193">
        <ele>500.8</ele>
        <time>2020-09-17T14:21:04Z</time>
      </trkpt>
      <trkpt lat="45.39362" lon="3.38192">
        <ele>500.8</ele>
        <time>2020-09-17T14:21:05Z</time>
      </trkpt>
      <trkpt lat="45.39362" lon="3.3819">
        <ele>500.7</ele>
        <time>2020-09-17T14:21:06Z</time>
      </trkpt>
      <trkpt lat="45.39362" lon="3.38189">
        <ele>500.8</ele>
        <time>2020-09-17T14:21:07Z</time>
      </trkpt>
      <trkpt lat="45.39363" lon="3.38187">
        <ele>500.8</ele>
        <time>2020-09-17T14:21:08Z</time>
      </trkpt>
      <trkpt lat="45.39363" lon="3.38186">
        <ele>500.7</ele>
        <time>2020-09-17T14:21:09Z</time>
      </trkpt>
      <trkpt lat="45.39363" lon="3.38185">
        <ele>500.6</ele>
        <time>2020-09-17T14:21:10Z</time>
      </trkpt>
      <trkpt lat="45.39364" lon="3.38184">
        <ele>500.6</ele>
        <time>2020-09-17T14:21:11Z</time>
      </trkpt>
      <trkpt lat="45.39364" lon="3.38182">
        <ele>500.5</ele>
        <time>2020-09-17T14:21:12Z</time>
      </trkpt>
      <trkpt lat="45.39364" lon="3.38181">
        <ele>500.5</ele>
        <time>2020-09-17T14:21:13Z</time>
      </trkpt>
      <trkpt lat="45.39365" lon="3.3818">
        <ele>500.4</ele>
        <time>2020-09-17T14:21:14Z</time>
      </trkpt>
      <trkpt lat="45.39365" lon="3.38178">
        <ele>500.3</ele>
        <time>2020-09-17T14:21:15Z</time>
      </trkpt>
      <trkpt lat="45.39365" lon="3.38177">
        <ele>500.3</ele>
        <time>2020-09-17T14:21:16Z</time>
      </trkpt>
      <trkpt lat="45.39366" lon="3.38176">
        <ele>500.2</ele>
        <time>2020-09-17T14:21:17Z</time>
      </trkpt>
      <trkpt lat="45.39366" lon="3.38175">
        <ele>500.1</ele>
        <time>2020-09-17T14:21:18Z</time>
      </trkpt>
      <trkpt lat="45.39366" lon="3.38173">
        <ele>500</ele>
        <time>2020-09-17T14:21:19Z</time>
      </trkpt>
      <trkpt lat="45.39366" lon="3.38172">
        <ele>500</ele>
        <time>2020-09-17T14:21:20Z</time>
      </trkpt>
      <trkpt lat="45.39366" lon="3.38171">
        <ele>499.9</ele>
        <time>2020-09-17T14:21:21Z</time>
      </trkpt>
      <trkpt lat="45.39367" lon="3.3817">
        <ele>499.9</ele>
        <time>2020-09-17T14:21:22Z</time>
      </trkpt>
      <trkpt lat="45.39367" lon="3.38169">
        <ele>499.8</ele>
        <time>2020-09-17T14:21:23Z</time>
      </trkpt>
      <trkpt lat="45.39367" lon="3.38168">
        <ele>499.8</ele>
        <time>2020-09-17T14:21:24Z</time>
      </trkpt>
      <trkpt lat="45.39367" lon="3.38167">
        <ele>499.8</ele>
        <time>2020-09-17T14:21:25Z</time>
      </trkpt>
      <trkpt lat="45.39368" lon="3.38166">
        <ele>499.7</ele>
        <time>2020-09-17T14:21:26Z</time>
      </trkpt>
      <trkpt lat="45.39368" lon="3.38165">
        <ele>499.6</ele>
        <time>2020-09-17T14:21:27Z</time>
      </trkpt>
      <trkpt lat="45.39368" lon="3.38164">
        <ele>499.5</ele>
        <time>2020-09-17T14:21:28Z</time>
      </trkpt>
      <trkpt lat="45.39368" lon="3.38163">
        <ele>499.3</ele>
        <time>2020-09-17T14:21:29Z</time>
      </trkpt>
      <trkpt lat="45.39369" lon="3.38162">
        <ele>499.1</ele>
        <time>2020-09-17T14:21:30Z</time>
      </trkpt>
      <trkpt lat="45.39369" lon="3.38161">
        <ele>499</ele>
        <time>2020-09-17T14:21:31Z</time>
      </trkpt>
      <trkpt lat="45.39369" lon="3.3816">
        <ele>498.9</ele>
        <time>2020-09-17T14:21:32Z</time>
      </trkpt>
      <trkpt lat="45.3937" lon="3.38159">
        <ele>498.9</ele>
        <time>2020-09-17T14:21:33Z</time>
      </trkpt>
      <trkpt lat="45.3937" lon="3.38158">
        <ele>498.7</ele>
        <time>2020-09-17T14:21:34Z</time>
      </trkpt>
      <trkpt lat="45.39371" lon="3.38157">
        <ele>498.6</ele>
        <time>2020-09-17T14:21:35Z</time>
      </trkpt>
      <trkpt lat="45.39371" lon="3.38155">
        <ele>498.5</ele>
        <time>2020-09-17T14:21:36Z</time>
      </trkpt>
      <trkpt lat="45.39371" lon="3.38154">
        <ele>498.5</ele>
        <time>2020-09-17T14:21:37Z</time>
      </trkpt>
      <trkpt lat="45.39372" lon="3.38153">
        <ele>498.3</ele>
        <time>2020-09-17T14:21:38Z</time>
      </trkpt>
      <trkpt lat="45.39372" lon="3.38152">
        <ele>498.1</ele>
        <time>2020-09-17T14:21:39Z</time>
      </trkpt>
      <trkpt lat="45.39372" lon="3.38151">
        <ele>498</ele>
        <time>2020-09-17T14:21:40Z</time>
      </trkpt>
      <trkpt lat="45.39373" lon="3.3815">
        <ele>498</ele>
        <time>2020-09-17T14:21:41Z</time>
      </trkpt>
      <trkpt lat="45.39373" lon="3.38148">
        <ele>497.9</ele>
        <time>2020-09-17T14:21:42Z</time>
      </trkpt>
      <trkpt lat="45.39373" lon="3.38147">
        <ele>497.9</ele>
        <time>2020-09-17T14:21:43Z</time>
      </trkpt>
      <trkpt lat="45.39374" lon="3.38146">
        <ele>497.9</ele>
        <time>2020-09-17T14:21:44Z</time>
      </trkpt>
      <trkpt lat="45.39374" lon="3.38145">
        <ele>497.8</ele>
        <time>2020-09-17T14:21:45Z</time>
      </trkpt>
      <trkpt lat="45.39374" lon="3.38144">
        <ele>497.7</ele>
        <time>2020-09-17T14:21:46Z</time>
      </trkpt>
      <trkpt lat="45.39375" lon="3.38143">
        <ele>497.7</ele>
        <time>2020-09-17T14:21:47Z</time>
      </trkpt>
      <trkpt lat="45.39375" lon="3.38142">
        <ele>497.7</ele>
        <time>2020-09-17T14:21:48Z</time>
      </trkpt>
      <trkpt lat="45.39375" lon="3.38142">
        <ele>497.7</ele>
        <time>2020-09-17T14:21:49Z</time>
      </trkpt>
      <trkpt lat="45.39375" lon="3.38141">
        <ele>497.6</ele>
        <time>2020-09-17T14:21:50Z</time>
      </trkpt>
      <trkpt lat="45.39375" lon="3.38141">
        <ele>497.4</ele>
        <time>2020-09-17T14:21:51Z</time>
      </trkpt>
      <trkpt lat="45.39375" lon="3.3814">
        <ele>497.4</ele>
        <time>2020-09-17T14:21:52Z</time>
      </trkpt>
      <trkpt lat="45.39376" lon="3.38139">
        <ele>497.5</ele>
        <time>2020-09-17T14:21:53Z</time>
      </trkpt>
      <trkpt lat="45.39376" lon="3.38139">
        <ele>497.5</ele>
        <time>2020-09-17T14:21:54Z</time>
      </trkpt>
      <trkpt lat="45.39376" lon="3.38138">
        <ele>497.6</ele>
        <time>2020-09-17T14:21:55Z</time>
      </trkpt>
      <trkpt lat="45.39377" lon="3.38137">
        <ele>497.6</ele>
        <time>2020-09-17T14:21:56Z</time>
      </trkpt>
      <trkpt lat="45.39377" lon="3.38136">
        <ele>497.6</ele>
        <time>2020-09-17T14:21:57Z</time>
      </trkpt>
      <trkpt lat="45.39377" lon="3.38135">
        <ele>497.6</ele>
        <time>2020-09-17T14:21:58Z</time>
      </trkpt>
      <trkpt lat="45.39378" lon="3.38134">
        <ele>497.7</ele>
        <time>2020-09-17T14:21:59Z</time>
      </trkpt>
      <trkpt lat="45.39378" lon="3.38133">
        <ele>497.6</ele>
        <time>2020-09-17T14:22:00Z</time>
      </trkpt>
      <trkpt lat="45.39378" lon="3.38132">
        <ele>497.5</ele>
        <time>2020-09-17T14:22:01Z</time>
      </trkpt>
      <trkpt lat="45.39378" lon="3.3813">
        <ele>497.4</ele>
        <time>2020-09-17T14:22:02Z</time>
      </trkpt>
      <trkpt lat="45.39378" lon="3.38129">
        <ele>497.3</ele>
        <time>2020-09-17T14:22:03Z</time>
      </trkpt>
      <trkpt lat="45.39379" lon="3.38128">
        <ele>497.3</ele>
        <time>2020-09-17T14:22:04Z</time>
      </trkpt>
      <trkpt lat="45.39379" lon="3.38126">
        <ele>497.3</ele>
        <time>2020-09-17T14:22:05Z</time>
      </trkpt>
      <trkpt lat="45.39379" lon="3.38125">
        <ele>497.3</ele>
        <time>2020-09-17T14:22:06Z</time>
      </trkpt>
      <trkpt lat="45.3938" lon="3.38124">
        <ele>497.2</ele>
        <time>2020-09-17T14:22:07Z</time>
      </trkpt>
      <trkpt lat="45.3938" lon="3.38123">
        <ele>497.2</ele>
        <time>2020-09-17T14:22:08Z</time>
      </trkpt>
      <trkpt lat="45.3938" lon="3.38122">
        <ele>497</ele>
        <time>2020-09-17T14:22:09Z</time>
      </trkpt>
      <trkpt lat="45.3938" lon="3.38121">
        <ele>496.9</ele>
        <time>2020-09-17T14:22:10Z</time>
      </trkpt>
      <trkpt lat="45.3938" lon="3.3812">
        <ele>496.8</ele>
        <time>2020-09-17T14:22:11Z</time>
      </trkpt>
      <trkpt lat="45.3938" lon="3.38119">
        <ele>496.7</ele>
        <time>2020-09-17T14:22:12Z</time>
      </trkpt>
      <trkpt lat="45.3938" lon="3.38118">
        <ele>496.5</ele>
        <time>2020-09-17T14:22:13Z</time>
      </trkpt>
      <trkpt lat="45.3938" lon="3.38116">
        <ele>496.3</ele>
        <time>2020-09-17T14:22:14Z</time>
      </trkpt>
      <trkpt lat="45.3938" lon="3.38115">
        <ele>496.1</ele>
        <time>2020-09-17T14:22:15Z</time>
      </trkpt>
      <trkpt lat="45.3938" lon="3.38114">
        <ele>495.9</ele>
        <time>2020-09-17T14:22:16Z</time>
      </trkpt>
      <trkpt lat="45.3938" lon="3.38113">
        <ele>495.6</ele>
        <time>2020-09-17T14:22:17Z</time>
      </trkpt>
      <trkpt lat="45.3938" lon="3.38112">
        <ele>495.3</ele>
        <time>2020-09-17T14:22:18Z</time>
      </trkpt>
      <trkpt lat="45.39379" lon="3.3811">
        <ele>495</ele>
        <time>2020-09-17T14:22:19Z</time>
      </trkpt>
      <trkpt lat="45.39379" lon="3.38109">
        <ele>494.9</ele>
        <time>2020-09-17T14:22:20Z</time>
      </trkpt>
      <trkpt lat="45.39379" lon="3.38108">
        <ele>494.7</ele>
        <time>2020-09-17T14:22:21Z</time>
      </trkpt>
      <trkpt lat="45.3938" lon="3.38107">
        <ele>494.6</ele>
        <time>2020-09-17T14:22:22Z</time>
      </trkpt>
      <trkpt lat="45.3938" lon="3.38106">
        <ele>494.5</ele>
        <time>2020-09-17T14:22:23Z</time>
      </trkpt>
      <trkpt lat="45.3938" lon="3.38104">
        <ele>494.3</ele>
        <time>2020-09-17T14:22:24Z</time>
      </trkpt>
      <trkpt lat="45.3938" lon="3.38103">
        <ele>494.2</ele>
        <time>2020-09-17T14:22:25Z</time>
      </trkpt>
      <trkpt lat="45.39379" lon="3.38101">
        <ele>493.8</ele>
        <time>2020-09-17T14:22:26Z</time>
      </trkpt>
      <trkpt lat="45.39379" lon="3.381">
        <ele>493.5</ele>
        <time>2020-09-17T14:22:27Z</time>
      </trkpt>
      <trkpt lat="45.39379" lon="3.38098">
        <ele>493.2</ele>
        <time>2020-09-17T14:22:28Z</time>
      </trkpt>
      <trkpt lat="45.39379" lon="3.38097">
        <ele>493</ele>
        <time>2020-09-17T14:22:29Z</time>
      </trkpt>
      <trkpt lat="45.39379" lon="3.38095">
        <ele>492.5</ele>
        <time>2020-09-17T14:22:30Z</time>
      </trkpt>
      <trkpt lat="45.39379" lon="3.38094">
        <ele>492.2</ele>
        <time>2020-09-17T14:22:31Z</time>
      </trkpt>
      <trkpt lat="45.39378" lon="3.38092">
        <ele>491.9</ele>
        <time>2020-09-17T14:22:32Z</time>
      </trkpt>
      <trkpt lat="45.39378" lon="3.38091">
        <ele>491.4</ele>
        <time>2020-09-17T14:22:33Z</time>
      </trkpt>
      <trkpt lat="45.39378" lon="3.38089">
        <ele>491</ele>
        <time>2020-09-17T14:22:34Z</time>
      </trkpt>
      <trkpt lat="45.39378" lon="3.38088">
        <ele>490.7</ele>
        <time>2020-09-17T14:22:35Z</time>
      </trkpt>
      <trkpt lat="45.39378" lon="3.38086">
        <ele>490.5</ele>
        <time>2020-09-17T14:22:36Z</time>
      </trkpt>
      <trkpt lat="45.39378" lon="3.38084">
        <ele>490.1</ele>
        <time>2020-09-17T14:22:37Z</time>
      </trkpt>
      <trkpt lat="45.39377" lon="3.38083">
        <ele>489.8</ele>
        <time>2020-09-17T14:22:38Z</time>
      </trkpt>
      <trkpt lat="45.39377" lon="3.38081">
        <ele>489.5</ele>
        <time>2020-09-17T14:22:39Z</time>
      </trkpt>
      <trkpt lat="45.39377" lon="3.3808">
        <ele>489.2</ele>
        <time>2020-09-17T14:22:40Z</time>
      </trkpt>
      <trkpt lat="45.39376" lon="3.38078">
        <ele>488.7</ele>
        <time>2020-09-17T14:22:41Z</time>
      </trkpt>
      <trkpt lat="45.39376" lon="3.38077">
        <ele>488.7</ele>
        <time>2020-09-17T14:22:42Z</time>
      </trkpt>
      <trkpt lat="45.39376" lon="3.38075">
        <ele>488.5</ele>
        <time>2020-09-17T14:22:43Z</time>
      </trkpt>
      <trkpt lat="45.39376" lon="3.38074">
        <ele>488.4</ele>
        <time>2020-09-17T14:22:44Z</time>
      </trkpt>
      <trkpt lat="45.39376" lon="3.38072">
        <ele>488.4</ele>
        <time>2020-09-17T14:22:45Z</time>
      </trkpt>
      <trkpt lat="45.39376" lon="3.38071">
        <ele>488.2</ele>
        <time>2020-09-17T14:22:46Z</time>
      </trkpt>
      <trkpt lat="45.39376" lon="3.38069">
        <ele>488.2</ele>
        <time>2020-09-17T14:22:47Z</time>
      </trkpt>
      <trkpt lat="45.39376" lon="3.38068">
        <ele>488.2</ele>
        <time>2020-09-17T14:22:48Z</time>
      </trkpt>
      <trkpt lat="45.39376" lon="3.38066">
        <ele>488.1</ele>
        <time>2020-09-17T14:22:49Z</time>
      </trkpt>
      <trkpt lat="45.39376" lon="3.38064">
        <ele>488.2</ele>
        <time>2020-09-17T14:22:50Z</time>
      </trkpt>
      <trkpt lat="45.39376" lon="3.38063">
        <ele>488.3</ele>
        <time>2020-09-17T14:22:51Z</time>
      </trkpt>
      <trkpt lat="45.39376" lon="3.38062">
        <ele>488.2</ele>
        <time>2020-09-17T14:22:52Z</time>
      </trkpt>
      <trkpt lat="45.39376" lon="3.3806">
        <ele>487.9</ele>
        <time>2020-09-17T14:22:53Z</time>
      </trkpt>
      <trkpt lat="45.39376" lon="3.38059">
        <ele>487.6</ele>
        <time>2020-09-17T14:22:54Z</time>
      </trkpt>
      <trkpt lat="45.39376" lon="3.38057">
        <ele>487.4</ele>
        <time>2020-09-17T14:22:55Z</time>
      </trkpt>
      <trkpt lat="45.39376" lon="3.38056">
        <ele>487.4</ele>
        <time>2020-09-17T14:22:56Z</time>
      </trkpt>
      <trkpt lat="45.39375" lon="3.38054">
        <ele>487.1</ele>
        <time>2020-09-17T14:22:57Z</time>
      </trkpt>
      <trkpt lat="45.39376" lon="3.38052">
        <ele>487.1</ele>
        <time>2020-09-17T14:22:58Z</time>
      </trkpt>
      <trkpt lat="45.39375" lon="3.38051">
        <ele>486.8</ele>
        <time>2020-09-17T14:22:59Z</time>
      </trkpt>
      <trkpt lat="45.39375" lon="3.38049">
        <ele>486.6</ele>
        <time>2020-09-17T14:23:00Z</time>
      </trkpt>
      <trkpt lat="45.39375" lon="3.38047">
        <ele>486.4</ele>
        <time>2020-09-17T14:23:01Z</time>
      </trkpt>
      <trkpt lat="45.39375" lon="3.38046">
        <ele>486.2</ele>
        <time>2020-09-17T14:23:02Z</time>
      </trkpt>
      <trkpt lat="45.39375" lon="3.38044">
        <ele>485.9</ele>
        <time>2020-09-17T14:23:03Z</time>
      </trkpt>
      <trkpt lat="45.39375" lon="3.38042">
        <ele>485.8</ele>
        <time>2020-09-17T14:23:04Z</time>
      </trkpt>
      <trkpt lat="45.39375" lon="3.3804">
        <ele>485.7</ele>
        <time>2020-09-17T14:23:05Z</time>
      </trkpt>
      <trkpt lat="45.39375" lon="3.38038">
        <ele>485.6</ele>
        <time>2020-09-17T14:23:06Z</time>
      </trkpt>
      <trkpt lat="45.39375" lon="3.38037">
        <ele>485.5</ele>
        <time>2020-09-17T14:23:07Z</time>
      </trkpt>
      <trkpt lat="45.39376" lon="3.38035">
        <ele>485.6</ele>
        <time>2020-09-17T14:23:08Z</time>
      </trkpt>
      <trkpt lat="45.39376" lon="3.38033">
        <ele>485.5</ele>
        <time>2020-09-17T14:23:09Z</time>
      </trkpt>
      <trkpt lat="45.39376" lon="3.38031">
        <ele>485.4</ele>
        <time>2020-09-17T14:23:10Z</time>
      </trkpt>
      <trkpt lat="45.39376" lon="3.3803">
        <ele>485.5</ele>
        <time>2020-09-17T14:23:11Z</time>
      </trkpt>
      <trkpt lat="45.39377" lon="3.38028">
        <ele>485.5</ele>
        <time>2020-09-17T14:23:12Z</time>
      </trkpt>
      <trkpt lat="45.39377" lon="3.38026">
        <ele>485.4</ele>
        <time>2020-09-17T14:23:13Z</time>
      </trkpt>
      <trkpt lat="45.39378" lon="3.38024">
        <ele>485.4</ele>
        <time>2020-09-17T14:23:14Z</time>
      </trkpt>
      <trkpt lat="45.39378" lon="3.38023">
        <ele>485.3</ele>
        <time>2020-09-17T14:23:15Z</time>
      </trkpt>
      <trkpt lat="45.39378" lon="3.38021">
        <ele>485.2</ele>
        <time>2020-09-17T14:23:16Z</time>
      </trkpt>
      <trkpt lat="45.39378" lon="3.38019">
        <ele>484.9</ele>
        <time>2020-09-17T14:23:17Z</time>
      </trkpt>
      <trkpt lat="45.39379" lon="3.38017">
        <ele>484.8</ele>
        <time>2020-09-17T14:23:18Z</time>
      </trkpt>
      <trkpt lat="45.39379" lon="3.38016">
        <ele>484.6</ele>
        <time>2020-09-17T14:23:19Z</time>
      </trkpt>
      <trkpt lat="45.3938" lon="3.38014">
        <ele>484.6</ele>
        <time>2020-09-17T14:23:20Z</time>
      </trkpt>
      <trkpt lat="45.3938" lon="3.38012">
        <ele>484.4</ele>
        <time>2020-09-17T14:23:21Z</time>
      </trkpt>
      <trkpt lat="45.3938" lon="3.3801">
        <ele>484.2</ele>
        <time>2020-09-17T14:23:22Z</time>
      </trkpt>
      <trkpt lat="45.39381" lon="3.38008">
        <ele>484.1</ele>
        <time>2020-09-17T14:23:23Z</time>
      </trkpt>
      <trkpt lat="45.39381" lon="3.38007">
        <ele>484.1</ele>
        <time>2020-09-17T14:23:24Z</time>
      </trkpt>
      <trkpt lat="45.39382" lon="3.38005">
        <ele>484</ele>
        <time>2020-09-17T14:23:25Z</time>
      </trkpt>
      <trkpt lat="45.39383" lon="3.38004">
        <ele>484</ele>
        <time>2020-09-17T14:23:26Z</time>
      </trkpt>
      <trkpt lat="45.39383" lon="3.38002">
        <ele>484</ele>
        <time>2020-09-17T14:23:27Z</time>
      </trkpt>
      <trkpt lat="45.39384" lon="3.38001">
        <ele>484</ele>
        <time>2020-09-17T14:23:28Z</time>
      </trkpt>
      <trkpt lat="45.39385" lon="3.38">
        <ele>484.1</ele>
        <time>2020-09-17T14:23:29Z</time>
      </trkpt>
      <trkpt lat="45.39385" lon="3.37998">
        <ele>484.2</ele>
        <time>2020-09-17T14:23:30Z</time>
      </trkpt>
      <trkpt lat="45.39386" lon="3.37997">
        <ele>484.3</ele>
        <time>2020-09-17T14:23:31Z</time>
      </trkpt>
      <trkpt lat="45.39387" lon="3.37996">
        <ele>484.4</ele>
        <time>2020-09-17T14:23:32Z</time>
      </trkpt>
      <trkpt lat="45.39387" lon="3.37994">
        <ele>484.4</ele>
        <time>2020-09-17T14:23:33Z</time>
      </trkpt>
      <trkpt lat="45.39388" lon="3.37993">
        <ele>484.6</ele>
        <time>2020-09-17T14:23:34Z</time>
      </trkpt>
      <trkpt lat="45.39389" lon="3.37991">
        <ele>484.7</ele>
        <time>2020-09-17T14:23:35Z</time>
      </trkpt>
      <trkpt lat="45.3939" lon="3.3799">
        <ele>484.4</ele>
        <time>2020-09-17T14:23:36Z</time>
      </trkpt>
      <trkpt lat="45.39391" lon="3.37988">
        <ele>483.9</ele>
        <time>2020-09-17T14:23:37Z</time>
      </trkpt>
      <trkpt lat="45.39391" lon="3.37987">
        <ele>483.5</ele>
        <time>2020-09-17T14:23:38Z</time>
      </trkpt>
      <trkpt lat="45.39392" lon="3.37985">
        <ele>483</ele>
        <time>2020-09-17T14:23:39Z</time>
      </trkpt>
      <trkpt lat="45.39393" lon="3.37984">
        <ele>482.6</ele>
        <time>2020-09-17T14:23:40Z</time>
      </trkpt>
      <trkpt lat="45.39393" lon="3.37982">
        <ele>482.1</ele>
        <time>2020-09-17T14:23:41Z</time>
      </trkpt>
      <trkpt lat="45.39394" lon="3.37981">
        <ele>481.7</ele>
        <time>2020-09-17T14:23:42Z</time>
      </trkpt>
      <trkpt lat="45.39394" lon="3.37979">
        <ele>481.3</ele>
        <time>2020-09-17T14:23:43Z</time>
      </trkpt>
      <trkpt lat="45.39395" lon="3.37978">
        <ele>480.9</ele>
        <time>2020-09-17T14:23:44Z</time>
      </trkpt>
      <trkpt lat="45.39395" lon="3.37976">
        <ele>480.5</ele>
        <time>2020-09-17T14:23:45Z</time>
      </trkpt>
      <trkpt lat="45.39395" lon="3.37974">
        <ele>480.2</ele>
        <time>2020-09-17T14:23:46Z</time>
      </trkpt>
      <trkpt lat="45.39395" lon="3.37973">
        <ele>480</ele>
        <time>2020-09-17T14:23:47Z</time>
      </trkpt>
      <trkpt lat="45.39394" lon="3.37971">
        <ele>480</ele>
        <time>2020-09-17T14:23:48Z</time>
      </trkpt>
      <trkpt lat="45.39394" lon="3.37969">
        <ele>479.9</ele>
        <time>2020-09-17T14:23:49Z</time>
      </trkpt>
      <trkpt lat="45.39394" lon="3.37967">
        <ele>479.8</ele>
        <time>2020-09-17T14:23:50Z</time>
      </trkpt>
      <trkpt lat="45.39394" lon="3.37965">
        <ele>479.8</ele>
        <time>2020-09-17T14:23:51Z</time>
      </trkpt>
      <trkpt lat="45.39394" lon="3.37963">
        <ele>479.7</ele>
        <time>2020-09-17T14:23:52Z</time>
      </trkpt>
      <trkpt lat="45.39394" lon="3.37961">
        <ele>479.6</ele>
        <time>2020-09-17T14:23:53Z</time>
      </trkpt>
      <trkpt lat="45.39393" lon="3.37958">
        <ele>479.5</ele>
        <time>2020-09-17T14:23:54Z</time>
      </trkpt>
      <trkpt lat="45.39393" lon="3.37956">
        <ele>479.3</ele>
        <time>2020-09-17T14:23:55Z</time>
      </trkpt>
      <trkpt lat="45.39393" lon="3.37954">
        <ele>479.3</ele>
        <time>2020-09-17T14:23:56Z</time>
      </trkpt>
      <trkpt lat="45.39393" lon="3.37951">
        <ele>479.2</ele>
        <time>2020-09-17T14:23:57Z</time>
      </trkpt>
      <trkpt lat="45.39393" lon="3.37949">
        <ele>479.1</ele>
        <time>2020-09-17T14:23:58Z</time>
      </trkpt>
      <trkpt lat="45.39393" lon="3.37946">
        <ele>478.9</ele>
        <time>2020-09-17T14:23:59Z</time>
      </trkpt>
      <trkpt lat="45.39393" lon="3.37944">
        <ele>478.9</ele>
        <time>2020-09-17T14:24:00Z</time>
      </trkpt>
      <trkpt lat="45.39393" lon="3.37941">
        <ele>478.9</ele>
        <time>2020-09-17T14:24:01Z</time>
      </trkpt>
      <trkpt lat="45.39393" lon="3.37939">
        <ele>478.9</ele>
        <time>2020-09-17T14:24:02Z</time>
      </trkpt>
      <trkpt lat="45.39392" lon="3.37936">
        <ele>479</ele>
        <time>2020-09-17T14:24:03Z</time>
      </trkpt>
      <trkpt lat="45.39392" lon="3.37934">
        <ele>479</ele>
        <time>2020-09-17T14:24:04Z</time>
      </trkpt>
      <trkpt lat="45.39392" lon="3.37931">
        <ele>479</ele>
        <time>2020-09-17T14:24:05Z</time>
      </trkpt>
      <trkpt lat="45.39392" lon="3.37929">
        <ele>479.1</ele>
        <time>2020-09-17T14:24:06Z</time>
      </trkpt>
      <trkpt lat="45.39392" lon="3.37926">
        <ele>479.1</ele>
        <time>2020-09-17T14:24:07Z</time>
      </trkpt>
      <trkpt lat="45.39392" lon="3.37924">
        <ele>479.1</ele>
        <time>2020-09-17T14:24:08Z</time>
      </trkpt>
      <trkpt lat="45.39392" lon="3.37921">
        <ele>479.2</ele>
        <time>2020-09-17T14:24:09Z</time>
      </trkpt>
      <trkpt lat="45.39392" lon="3.37918">
        <ele>479.2</ele>
        <time>2020-09-17T14:24:10Z</time>
      </trkpt>
      <trkpt lat="45.39391" lon="3.37915">
        <ele>479.2</ele>
        <time>2020-09-17T14:24:11Z</time>
      </trkpt>
      <trkpt lat="45.39391" lon="3.37913">
        <ele>479.1</ele>
        <time>2020-09-17T14:24:12Z</time>
      </trkpt>
      <trkpt lat="45.39391" lon="3.3791">
        <ele>478.9</ele>
        <time>2020-09-17T14:24:13Z</time>
      </trkpt>
      <trkpt lat="45.39391" lon="3.37907">
        <ele>478.8</ele>
        <time>2020-09-17T14:24:14Z</time>
      </trkpt>
      <trkpt lat="45.39391" lon="3.37905">
        <ele>478.8</ele>
        <time>2020-09-17T14:24:15Z</time>
      </trkpt>
      <trkpt lat="45.39391" lon="3.37902">
        <ele>478.8</ele>
        <time>2020-09-17T14:24:16Z</time>
      </trkpt>
      <trkpt lat="45.3939" lon="3.37899">
        <ele>478.9</ele>
        <time>2020-09-17T14:24:17Z</time>
      </trkpt>
      <trkpt lat="45.39389" lon="3.37897">
        <ele>479.4</ele>
        <time>2020-09-17T14:24:18Z</time>
      </trkpt>
      <trkpt lat="45.39388" lon="3.37895">
        <ele>479.4</ele>
        <time>2020-09-17T14:24:19Z</time>
      </trkpt>
      <trkpt lat="45.39388" lon="3.37893">
        <ele>479.3</ele>
        <time>2020-09-17T14:24:20Z</time>
      </trkpt>
      <trkpt lat="45.39387" lon="3.37891">
        <ele>479.2</ele>
        <time>2020-09-17T14:24:21Z</time>
      </trkpt>
      <trkpt lat="45.39386" lon="3.3789">
        <ele>479.1</ele>
        <time>2020-09-17T14:24:22Z</time>
      </trkpt>
      <trkpt lat="45.39386" lon="3.37888">
        <ele>478.9</ele>
        <time>2020-09-17T14:24:23Z</time>
      </trkpt>
      <trkpt lat="45.39385" lon="3.37887">
        <ele>478.5</ele>
        <time>2020-09-17T14:24:24Z</time>
      </trkpt>
      <trkpt lat="45.39384" lon="3.37885">
        <ele>478.1</ele>
        <time>2020-09-17T14:24:25Z</time>
      </trkpt>
      <trkpt lat="45.39384" lon="3.37884">
        <ele>477.9</ele>
        <time>2020-09-17T14:24:26Z</time>
      </trkpt>
      <trkpt lat="45.39383" lon="3.37883">
        <ele>477.6</ele>
        <time>2020-09-17T14:24:27Z</time>
      </trkpt>
      <trkpt lat="45.39382" lon="3.37882">
        <ele>477.5</ele>
        <time>2020-09-17T14:24:28Z</time>
      </trkpt>
      <trkpt lat="45.39381" lon="3.37882">
        <ele>477.3</ele>
        <time>2020-09-17T14:24:29Z</time>
      </trkpt>
      <trkpt lat="45.3938" lon="3.37881">
        <ele>477.2</ele>
        <time>2020-09-17T14:24:30Z</time>
      </trkpt>
      <trkpt lat="45.3938" lon="3.3788">
        <ele>477.1</ele>
        <time>2020-09-17T14:24:31Z</time>
      </trkpt>
      <trkpt lat="45.39379" lon="3.37879">
        <ele>477</ele>
        <time>2020-09-17T14:24:32Z</time>
      </trkpt>
      <trkpt lat="45.39378" lon="3.37879">
        <ele>476.9</ele>
        <time>2020-09-17T14:24:33Z</time>
      </trkpt>
      <trkpt lat="45.39377" lon="3.37878">
        <ele>476.8</ele>
        <time>2020-09-17T14:24:34Z</time>
      </trkpt>
      <trkpt lat="45.39376" lon="3.37877">
        <ele>476.7</ele>
        <time>2020-09-17T14:24:35Z</time>
      </trkpt>
      <trkpt lat="45.39375" lon="3.37876">
        <ele>476.7</ele>
        <time>2020-09-17T14:24:36Z</time>
      </trkpt>
      <trkpt lat="45.39374" lon="3.37875">
        <ele>476.7</ele>
        <time>2020-09-17T14:24:37Z</time>
      </trkpt>
      <trkpt lat="45.39374" lon="3.37875">
        <ele>476.6</ele>
        <time>2020-09-17T14:24:38Z</time>
      </trkpt>
      <trkpt lat="45.39373" lon="3.37874">
        <ele>476.6</ele>
        <time>2020-09-17T14:24:39Z</time>
      </trkpt>
      <trkpt lat="45.39372" lon="3.37873">
        <ele>476.6</ele>
        <time>2020-09-17T14:24:40Z</time>
      </trkpt>
      <trkpt lat="45.39371" lon="3.37872">
        <ele>476.6</ele>
        <time>2020-09-17T14:24:41Z</time>
      </trkpt>
      <trkpt lat="45.3937" lon="3.37871">
        <ele>476.6</ele>
        <time>2020-09-17T14:24:42Z</time>
      </trkpt>
      <trkpt lat="45.39369" lon="3.3787">
        <ele>476.6</ele>
        <time>2020-09-17T14:24:43Z</time>
      </trkpt>
      <trkpt lat="45.39368" lon="3.3787">
        <ele>476.7</ele>
        <time>2020-09-17T14:24:44Z</time>
      </trkpt>
      <trkpt lat="45.39367" lon="3.37869">
        <ele>476.7</ele>
        <time>2020-09-17T14:24:45Z</time>
      </trkpt>
      <trkpt lat="45.39366" lon="3.37868">
        <ele>476.8</ele>
        <time>2020-09-17T14:24:46Z</time>
      </trkpt>
      <trkpt lat="45.39365" lon="3.37867">
        <ele>476.9</ele>
        <time>2020-09-17T14:24:47Z</time>
      </trkpt>
      <trkpt lat="45.39364" lon="3.37867">
        <ele>477.1</ele>
        <time>2020-09-17T14:24:48Z</time>
      </trkpt>
      <trkpt lat="45.39363" lon="3.37866">
        <ele>477.2</ele>
        <time>2020-09-17T14:24:49Z</time>
      </trkpt>
      <trkpt lat="45.39362" lon="3.37865">
        <ele>477.3</ele>
        <time>2020-09-17T14:24:50Z</time>
      </trkpt>
      <trkpt lat="45.39361" lon="3.37864">
        <ele>477.3</ele>
        <time>2020-09-17T14:24:51Z</time>
      </trkpt>
      <trkpt lat="45.3936" lon="3.37863">
        <ele>477.1</ele>
        <time>2020-09-17T14:24:52Z</time>
      </trkpt>
      <trkpt lat="45.39359" lon="3.37863">
        <ele>476.9</ele>
        <time>2020-09-17T14:24:53Z</time>
      </trkpt>
      <trkpt lat="45.39358" lon="3.37862">
        <ele>476.8</ele>
        <time>2020-09-17T14:24:54Z</time>
      </trkpt>
      <trkpt lat="45.39357" lon="3.37861">
        <ele>476.6</ele>
        <time>2020-09-17T14:24:55Z</time>
      </trkpt>
      <trkpt lat="45.39356" lon="3.3786">
        <ele>476.3</ele>
        <time>2020-09-17T14:24:56Z</time>
      </trkpt>
      <trkpt lat="45.39355" lon="3.37859">
        <ele>475.9</ele>
        <time>2020-09-17T14:24:57Z</time>
      </trkpt>
      <trkpt lat="45.39354" lon="3.37857">
        <ele>475.5</ele>
        <time>2020-09-17T14:24:58Z</time>
      </trkpt>
      <trkpt lat="45.39353" lon="3.37856">
        <ele>475.2</ele>
        <time>2020-09-17T14:24:59Z</time>
      </trkpt>
      <trkpt lat="45.39353" lon="3.37855">
        <ele>474.9</ele>
        <time>2020-09-17T14:25:00Z</time>
      </trkpt>
      <trkpt lat="45.39352" lon="3.37854">
        <ele>474.7</ele>
        <time>2020-09-17T14:25:01Z</time>
      </trkpt>
      <trkpt lat="45.39351" lon="3.37853">
        <ele>474.5</ele>
        <time>2020-09-17T14:25:02Z</time>
      </trkpt>
      <trkpt lat="45.3935" lon="3.37852">
        <ele>474.3</ele>
        <time>2020-09-17T14:25:03Z</time>
      </trkpt>
      <trkpt lat="45.39349" lon="3.37851">
        <ele>474</ele>
        <time>2020-09-17T14:25:04Z</time>
      </trkpt>
      <trkpt lat="45.39349" lon="3.3785">
        <ele>473.9</ele>
        <time>2020-09-17T14:25:05Z</time>
      </trkpt>
      <trkpt lat="45.39348" lon="3.37849">
        <ele>473.7</ele>
        <time>2020-09-17T14:25:06Z</time>
      </trkpt>
      <trkpt lat="45.39347" lon="3.37847">
        <ele>473.5</ele>
        <time>2020-09-17T14:25:07Z</time>
      </trkpt>
      <trkpt lat="45.39347" lon="3.37846">
        <ele>473.3</ele>
        <time>2020-09-17T14:25:08Z</time>
      </trkpt>
      <trkpt lat="45.39346" lon="3.37845">
        <ele>473.2</ele>
        <time>2020-09-17T14:25:09Z</time>
      </trkpt>
      <trkpt lat="45.39346" lon="3.37844">
        <ele>473</ele>
        <time>2020-09-17T14:25:10Z</time>
      </trkpt>
      <trkpt lat="45.39345" lon="3.37842">
        <ele>472.9</ele>
        <time>2020-09-17T14:25:11Z</time>
      </trkpt>
      <trkpt lat="45.39345" lon="3.37841">
        <ele>472.7</ele>
        <time>2020-09-17T14:25:12Z</time>
      </trkpt>
      <trkpt lat="45.39344" lon="3.3784">
        <ele>472.6</ele>
        <time>2020-09-17T14:25:13Z</time>
      </trkpt>
      <trkpt lat="45.39344" lon="3.37838">
        <ele>472.5</ele>
        <time>2020-09-17T14:25:14Z</time>
      </trkpt>
      <trkpt lat="45.39343" lon="3.37837">
        <ele>472.4</ele>
        <time>2020-09-17T14:25:15Z</time>
      </trkpt>
      <trkpt lat="45.39343" lon="3.37835">
        <ele>472.3</ele>
        <time>2020-09-17T14:25:16Z</time>
      </trkpt>
      <trkpt lat="45.39342" lon="3.37834">
        <ele>472.2</ele>
        <time>2020-09-17T14:25:17Z</time>
      </trkpt>
      <trkpt lat="45.39342" lon="3.37833">
        <ele>472</ele>
        <time>2020-09-17T14:25:18Z</time>
      </trkpt>
      <trkpt lat="45.39341" lon="3.37831">
        <ele>471.9</ele>
        <time>2020-09-17T14:25:19Z</time>
      </trkpt>
      <trkpt lat="45.39341" lon="3.3783">
        <ele>471.7</ele>
        <time>2020-09-17T14:25:20Z</time>
      </trkpt>
      <trkpt lat="45.3934" lon="3.37828">
        <ele>471.6</ele>
        <time>2020-09-17T14:25:21Z</time>
      </trkpt>
      <trkpt lat="45.3934" lon="3.37827">
        <ele>471.6</ele>
        <time>2020-09-17T14:25:22Z</time>
      </trkpt>
      <trkpt lat="45.39339" lon="3.37826">
        <ele>471.5</ele>
        <time>2020-09-17T14:25:23Z</time>
      </trkpt>
      <trkpt lat="45.39338" lon="3.37825">
        <ele>471.5</ele>
        <time>2020-09-17T14:25:24Z</time>
      </trkpt>
      <trkpt lat="45.39337" lon="3.37823">
        <ele>471.4</ele>
        <time>2020-09-17T14:25:25Z</time>
      </trkpt>
      <trkpt lat="45.39337" lon="3.37822">
        <ele>471.4</ele>
        <time>2020-09-17T14:25:26Z</time>
      </trkpt>
      <trkpt lat="45.39337" lon="3.3782">
        <ele>471.2</ele>
        <time>2020-09-17T14:25:27Z</time>
      </trkpt>
      <trkpt lat="45.39336" lon="3.37819">
        <ele>471.1</ele>
        <time>2020-09-17T14:25:28Z</time>
      </trkpt>
      <trkpt lat="45.39336" lon="3.37817">
        <ele>470.8</ele>
        <time>2020-09-17T14:25:29Z</time>
      </trkpt>
      <trkpt lat="45.39336" lon="3.37816">
        <ele>470.7</ele>
        <time>2020-09-17T14:25:30Z</time>
      </trkpt>
      <trkpt lat="45.39336" lon="3.37814">
        <ele>470.4</ele>
        <time>2020-09-17T14:25:31Z</time>
      </trkpt>
      <trkpt lat="45.39336" lon="3.37813">
        <ele>470.2</ele>
        <time>2020-09-17T14:25:32Z</time>
      </trkpt>
      <trkpt lat="45.39336" lon="3.37811">
        <ele>470</ele>
        <time>2020-09-17T14:25:33Z</time>
      </trkpt>
      <trkpt lat="45.39336" lon="3.3781">
        <ele>469.8</ele>
        <time>2020-09-17T14:25:34Z</time>
      </trkpt>
      <trkpt lat="45.39335" lon="3.37808">
        <ele>469.7</ele>
        <time>2020-09-17T14:25:35Z</time>
      </trkpt>
      <trkpt lat="45.39335" lon="3.37807">
        <ele>469.5</ele>
        <time>2020-09-17T14:25:36Z</time>
      </trkpt>
      <trkpt lat="45.39335" lon="3.37805">
        <ele>469.3</ele>
        <time>2020-09-17T14:25:37Z</time>
      </trkpt>
      <trkpt lat="45.39335" lon="3.37803">
        <ele>469.1</ele>
        <time>2020-09-17T14:25:38Z</time>
      </trkpt>
      <trkpt lat="45.39335" lon="3.37802">
        <ele>469</ele>
        <time>2020-09-17T14:25:39Z</time>
      </trkpt>
      <trkpt lat="45.39335" lon="3.378">
        <ele>468.8</ele>
        <time>2020-09-17T14:25:40Z</time>
      </trkpt>
      <trkpt lat="45.39334" lon="3.37799">
        <ele>468.7</ele>
        <time>2020-09-17T14:25:41Z</time>
      </trkpt>
      <trkpt lat="45.39334" lon="3.37797">
        <ele>468.5</ele>
        <time>2020-09-17T14:25:42Z</time>
      </trkpt>
      <trkpt lat="45.39334" lon="3.37796">
        <ele>468.5</ele>
        <time>2020-09-17T14:25:43Z</time>
      </trkpt>
      <trkpt lat="45.39334" lon="3.37794">
        <ele>468.3</ele>
        <time>2020-09-17T14:25:44Z</time>
      </trkpt>
      <trkpt lat="45.39333" lon="3.37793">
        <ele>468.1</ele>
        <time>2020-09-17T14:25:45Z</time>
      </trkpt>
      <trkpt lat="45.39333" lon="3.37791">
        <ele>467.9</ele>
        <time>2020-09-17T14:25:46Z</time>
      </trkpt>
      <trkpt lat="45.39333" lon="3.3779">
        <ele>467.6</ele>
        <time>2020-09-17T14:25:47Z</time>
      </trkpt>
      <trkpt lat="45.39333" lon="3.37788">
        <ele>467.4</ele>
        <time>2020-09-17T14:25:48Z</time>
      </trkpt>
      <trkpt lat="45.39333" lon="3.37787">
        <ele>467.1</ele>
        <time>2020-09-17T14:25:49Z</time>
      </trkpt>
      <trkpt lat="45.39332" lon="3.37785">
        <ele>466.9</ele>
        <time>2020-09-17T14:25:50Z</time>
      </trkpt>
      <trkpt lat="45.39332" lon="3.37784">
        <ele>466.6</ele>
        <time>2020-09-17T14:25:51Z</time>
      </trkpt>
      <trkpt lat="45.39332" lon="3.37783">
        <ele>466.4</ele>
        <time>2020-09-17T14:25:52Z</time>
      </trkpt>
      <trkpt lat="45.39332" lon="3.37781">
        <ele>466.1</ele>
        <time>2020-09-17T14:25:53Z</time>
      </trkpt>
      <trkpt lat="45.39332" lon="3.3778">
        <ele>465.9</ele>
        <time>2020-09-17T14:25:54Z</time>
      </trkpt>
      <trkpt lat="45.39332" lon="3.37778">
        <ele>465.7</ele>
        <time>2020-09-17T14:25:55Z</time>
      </trkpt>
      <trkpt lat="45.39332" lon="3.37777">
        <ele>465.6</ele>
        <time>2020-09-17T14:25:56Z</time>
      </trkpt>
      <trkpt lat="45.39332" lon="3.37776">
        <ele>465.5</ele>
        <time>2020-09-17T14:25:57Z</time>
      </trkpt>
      <trkpt lat="45.39332" lon="3.37775">
        <ele>465.5</ele>
        <time>2020-09-17T14:25:58Z</time>
      </trkpt>
      <trkpt lat="45.39333" lon="3.37773">
        <ele>465.6</ele>
        <time>2020-09-17T14:25:59Z</time>
      </trkpt>
      <trkpt lat="45.39333" lon="3.37772">
        <ele>465.7</ele>
        <time>2020-09-17T14:26:00Z</time>
      </trkpt>
      <trkpt lat="45.39334" lon="3.37771">
        <ele>465.6</ele>
        <time>2020-09-17T14:26:01Z</time>
      </trkpt>
      <trkpt lat="45.39335" lon="3.3777">
        <ele>465.1</ele>
        <time>2020-09-17T14:26:02Z</time>
      </trkpt>
      <trkpt lat="45.39335" lon="3.37769">
        <ele>464.7</ele>
        <time>2020-09-17T14:26:03Z</time>
      </trkpt>
      <trkpt lat="45.39336" lon="3.37768">
        <ele>464.4</ele>
        <time>2020-09-17T14:26:04Z</time>
      </trkpt>
      <trkpt lat="45.39336" lon="3.37767">
        <ele>464</ele>
        <time>2020-09-17T14:26:05Z</time>
      </trkpt>
      <trkpt lat="45.39337" lon="3.37766">
        <ele>463.5</ele>
        <time>2020-09-17T14:26:06Z</time>
      </trkpt>
      <trkpt lat="45.39338" lon="3.37765">
        <ele>463.2</ele>
        <time>2020-09-17T14:26:07Z</time>
      </trkpt>
      <trkpt lat="45.39338" lon="3.37764">
        <ele>462.9</ele>
        <time>2020-09-17T14:26:08Z</time>
      </trkpt>
      <trkpt lat="45.39339" lon="3.37763">
        <ele>462.6</ele>
        <time>2020-09-17T14:26:09Z</time>
      </trkpt>
      <trkpt lat="45.39339" lon="3.37763">
        <ele>462.3</ele>
        <time>2020-09-17T14:26:10Z</time>
      </trkpt>
      <trkpt lat="45.39339" lon="3.37762">
        <ele>462.1</ele>
        <time>2020-09-17T14:26:11Z</time>
      </trkpt>
      <trkpt lat="45.39339" lon="3.37762">
        <ele>462.1</ele>
        <time>2020-09-17T14:26:12Z</time>
      </trkpt>
      <trkpt lat="45.3934" lon="3.37761">
        <ele>461.9</ele>
        <time>2020-09-17T14:26:13Z</time>
      </trkpt>
      <trkpt lat="45.3934" lon="3.37761">
        <ele>461.8</ele>
        <time>2020-09-17T14:26:14Z</time>
      </trkpt>
      <trkpt lat="45.3934" lon="3.37761">
        <ele>461.8</ele>
        <time>2020-09-17T14:26:15Z</time>
      </trkpt>
      <trkpt lat="45.3934" lon="3.3776">
        <ele>461.7</ele>
        <time>2020-09-17T14:26:16Z</time>
      </trkpt>
      <trkpt lat="45.3934" lon="3.3776">
        <ele>461.7</ele>
        <time>2020-09-17T14:26:17Z</time>
      </trkpt>
      <trkpt lat="45.3934" lon="3.3776">
        <ele>461.7</ele>
        <time>2020-09-17T14:26:18Z</time>
      </trkpt>
      <trkpt lat="45.3934" lon="3.3776">
        <ele>461.7</ele>
        <time>2020-09-17T14:26:19Z</time>
      </trkpt>
      <trkpt lat="45.3934" lon="3.3776">
        <ele>461.7</ele>
        <time>2020-09-17T14:26:20Z</time>
      </trkpt>
      <trkpt lat="45.3934" lon="3.3776">
        <ele>461.7</ele>
        <time>2020-09-17T14:26:21Z</time>
      </trkpt>
      <trkpt lat="45.3934" lon="3.3776">
        <ele>461.6</ele>
        <time>2020-09-17T14:26:22Z</time>
      </trkpt>
      <trkpt lat="45.3934" lon="3.3776">
        <ele>461.6</ele>
        <time>2020-09-17T14:26:23Z</time>
      </trkpt>
      <trkpt lat="45.3934" lon="3.3776">
        <ele>461.5</ele>
        <time>2020-09-17T14:26:24Z</time>
      </trkpt>
      <trkpt lat="45.3934" lon="3.3776">
        <ele>461.5</ele>
        <time>2020-09-17T14:26:25Z</time>
      </trkpt>
      <trkpt lat="45.3934" lon="3.3776">
        <ele>461.5</ele>
        <time>2020-09-17T14:26:26Z</time>
      </trkpt>
      <trkpt lat="45.3934" lon="3.3776">
        <ele>461.6</ele>
        <time>2020-09-17T14:26:27Z</time>
      </trkpt>
      <trkpt lat="45.3934" lon="3.3776">
        <ele>461.6</ele>
        <time>2020-09-17T14:26:28Z</time>
      </trkpt>
      <trkpt lat="45.3934" lon="3.3776">
        <ele>461.6</ele>
        <time>2020-09-17T14:26:29Z</time>
      </trkpt>
      <trkpt lat="45.3934" lon="3.3776">
        <ele>461.6</ele>
        <time>2020-09-17T14:26:30Z</time>
      </trkpt>
      <trkpt lat="45.3934" lon="3.3776">
        <ele>461.6</ele>
        <time>2020-09-17T14:26:31Z</time>
      </trkpt>
      <trkpt lat="45.3934" lon="3.37759">
        <ele>461.6</ele>
        <time>2020-09-17T14:26:32Z</time>
      </trkpt>
      <trkpt lat="45.3934" lon="3.37759">
        <ele>461.6</ele>
        <time>2020-09-17T14:26:33Z</time>
      </trkpt>
      <trkpt lat="45.3934" lon="3.37759">
        <ele>461.6</ele>
        <time>2020-09-17T14:26:34Z</time>
      </trkpt>
      <trkpt lat="45.3934" lon="3.37759">
        <ele>461.5</ele>
        <time>2020-09-17T14:26:35Z</time>
      </trkpt>
      <trkpt lat="45.3934" lon="3.37759">
        <ele>461.5</ele>
        <time>2020-09-17T14:26:36Z</time>
      </trkpt>
      <trkpt lat="45.3934" lon="3.37759">
        <ele>461.5</ele>
        <time>2020-09-17T14:26:37Z</time>
      </trkpt>
      <trkpt lat="45.3934" lon="3.37759">
        <ele>461.5</ele>
        <time>2020-09-17T14:26:38Z</time>
      </trkpt>
      <trkpt lat="45.3934" lon="3.37759">
        <ele>461.6</ele>
        <time>2020-09-17T14:26:39Z</time>
      </trkpt>
      <trkpt lat="45.3934" lon="3.37759">
        <ele>461.5</ele>
        <time>2020-09-17T14:26:40Z</time>
      </trkpt>
      <trkpt lat="45.3934" lon="3.37758">
        <ele>461.6</ele>
        <time>2020-09-17T14:26:41Z</time>
      </trkpt>
      <trkpt lat="45.3934" lon="3.37758">
        <ele>461.6</ele>
        <time>2020-09-17T14:26:42Z</time>
      </trkpt>
      <trkpt lat="45.3934" lon="3.37758">
        <ele>461.6</ele>
        <time>2020-09-17T14:26:43Z</time>
      </trkpt>
      <trkpt lat="45.3934" lon="3.37758">
        <ele>461.6</ele>
        <time>2020-09-17T14:26:44Z</time>
      </trkpt>
      <trkpt lat="45.3934" lon="3.37758">
        <ele>461.6</ele>
        <time>2020-09-17T14:26:45Z</time>
      </trkpt>
      <trkpt lat="45.3934" lon="3.37758">
        <ele>461.6</ele>
        <time>2020-09-17T14:26:46Z</time>
      </trkpt>
      <trkpt lat="45.3934" lon="3.37758">
        <ele>461.5</ele>
        <time>2020-09-17T14:26:47Z</time>
      </trkpt>
      <trkpt lat="45.3934" lon="3.37758">
        <ele>461.5</ele>
        <time>2020-09-17T14:26:48Z</time>
      </trkpt>
      <trkpt lat="45.3934" lon="3.37758">
        <ele>461.4</ele>
        <time>2020-09-17T14:26:49Z</time>
      </trkpt>
      <trkpt lat="45.3934" lon="3.37758">
        <ele>461.4</ele>
        <time>2020-09-17T14:26:50Z</time>
      </trkpt>
      <trkpt lat="45.3934" lon="3.37758">
        <ele>461.4</ele>
        <time>2020-09-17T14:26:51Z</time>
      </trkpt>
      <trkpt lat="45.3934" lon="3.37758">
        <ele>461.4</ele>
        <time>2020-09-17T14:26:52Z</time>
      </trkpt>
      <trkpt lat="45.3934" lon="3.37758">
        <ele>461.3</ele>
        <time>2020-09-17T14:26:53Z</time>
      </trkpt>
      <trkpt lat="45.3934" lon="3.37758">
        <ele>461.3</ele>
        <time>2020-09-17T14:26:54Z</time>
      </trkpt>
      <trkpt lat="45.3934" lon="3.37758">
        <ele>461.3</ele>
        <time>2020-09-17T14:26:55Z</time>
      </trkpt>
      <trkpt lat="45.3934" lon="3.37758">
        <ele>461.2</ele>
        <time>2020-09-17T14:26:56Z</time>
      </trkpt>
      <trkpt lat="45.3934" lon="3.37758">
        <ele>461.2</ele>
        <time>2020-09-17T14:26:57Z</time>
      </trkpt>
      <trkpt lat="45.39341" lon="3.37758">
        <ele>461.1</ele>
        <time>2020-09-17T14:26:58Z</time>
      </trkpt>
      <trkpt lat="45.39341" lon="3.37758">
        <ele>461.1</ele>
        <time>2020-09-17T14:26:59Z</time>
      </trkpt>
      <trkpt lat="45.39341" lon="3.37758">
        <ele>461.1</ele>
        <time>2020-09-17T14:27:00Z</time>
      </trkpt>
      <trkpt lat="45.39341" lon="3.37758">
        <ele>461.1</ele>
        <time>2020-09-17T14:27:01Z</time>
      </trkpt>
      <trkpt lat="45.39341" lon="3.37758">
        <ele>461.1</ele>
        <time>2020-09-17T14:27:02Z</time>
      </trkpt>
      <trkpt lat="45.39341" lon="3.37758">
        <ele>461.1</ele>
        <time>2020-09-17T14:27:03Z</time>
      </trkpt>
      <trkpt lat="45.39341" lon="3.37758">
        <ele>461.1</ele>
        <time>2020-09-17T14:27:04Z</time>
      </trkpt>
      <trkpt lat="45.39341" lon="3.37758">
        <ele>461</ele>
        <time>2020-09-17T14:27:05Z</time>
      </trkpt>
      <trkpt lat="45.39341" lon="3.37757">
        <ele>461</ele>
        <time>2020-09-17T14:27:06Z</time>
      </trkpt>
      <trkpt lat="45.39341" lon="3.37757">
        <ele>460.9</ele>
        <time>2020-09-17T14:27:07Z</time>
      </trkpt>
      <trkpt lat="45.39341" lon="3.37757">
        <ele>460.9</ele>
        <time>2020-09-17T14:27:08Z</time>
      </trkpt>
      <trkpt lat="45.39341" lon="3.37757">
        <ele>460.9</ele>
        <time>2020-09-17T14:27:09Z</time>
      </trkpt>
      <trkpt lat="45.39341" lon="3.37757">
        <ele>461</ele>
        <time>2020-09-17T14:27:10Z</time>
      </trkpt>
      <trkpt lat="45.39341" lon="3.37757">
        <ele>461</ele>
        <time>2020-09-17T14:27:11Z</time>
      </trkpt>
      <trkpt lat="45.39341" lon="3.37757">
        <ele>461</ele>
        <time>2020-09-17T14:27:12Z</time>
      </trkpt>
      <trkpt lat="45.39341" lon="3.37757">
        <ele>461</ele>
        <time>2020-09-17T14:27:13Z</time>
      </trkpt>
      <trkpt lat="45.39341" lon="3.37757">
        <ele>461</ele>
        <time>2020-09-17T14:27:14Z</time>
      </trkpt>
      <trkpt lat="45.39341" lon="3.37757">
        <ele>461</ele>
        <time>2020-09-17T14:27:15Z</time>
      </trkpt>
      <trkpt lat="45.39341" lon="3.37756">
        <ele>460.8</ele>
        <time>2020-09-17T14:27:16Z</time>
      </trkpt>
      <trkpt lat="45.39341" lon="3.37756">
        <ele>460.7</ele>
        <time>2020-09-17T14:27:17Z</time>
      </trkpt>
      <trkpt lat="45.39341" lon="3.37755">
        <ele>460.5</ele>
        <time>2020-09-17T14:27:18Z</time>
      </trkpt>
      <trkpt lat="45.39341" lon="3.37755">
        <ele>460.4</ele>
        <time>2020-09-17T14:27:19Z</time>
      </trkpt>
      <trkpt lat="45.39341" lon="3.37755">
        <ele>460.4</ele>
        <time>2020-09-17T14:27:20Z</time>
      </trkpt>
      <trkpt lat="45.39341" lon="3.37755">
        <ele>460.4</ele>
        <time>2020-09-17T14:27:21Z</time>
      </trkpt>
      <trkpt lat="45.39341" lon="3.37755">
        <ele>460.4</ele>
        <time>2020-09-17T14:27:22Z</time>
      </trkpt>
      <trkpt lat="45.39341" lon="3.37755">
        <ele>460.4</ele>
        <time>2020-09-17T14:27:23Z</time>
      </trkpt>
      <trkpt lat="45.39341" lon="3.37755">
        <ele>460.4</ele>
        <time>2020-09-17T14:27:24Z</time>
      </trkpt>
      <trkpt lat="45.39341" lon="3.37755">
        <ele>460.5</ele>
        <time>2020-09-17T14:27:25Z</time>
      </trkpt>
      <trkpt lat="45.39341" lon="3.37755">
        <ele>460.5</ele>
        <time>2020-09-17T14:27:26Z</time>
      </trkpt>
      <trkpt lat="45.39341" lon="3.37755">
        <ele>460.5</ele>
        <time>2020-09-17T14:27:27Z</time>
      </trkpt>
      <trkpt lat="45.39341" lon="3.37755">
        <ele>460.5</ele>
        <time>2020-09-17T14:27:28Z</time>
      </trkpt>
      <trkpt lat="45.39341" lon="3.37755">
        <ele>460.5</ele>
        <time>2020-09-17T14:27:29Z</time>
      </trkpt>
      <trkpt lat="45.39341" lon="3.37755">
        <ele>460.5</ele>
        <time>2020-09-17T14:27:30Z</time>
      </trkpt>
      <trkpt lat="45.39341" lon="3.37755">
        <ele>460.5</ele>
        <time>2020-09-17T14:27:31Z</time>
      </trkpt>
      <trkpt lat="45.39341" lon="3.37755">
        <ele>460.6</ele>
        <time>2020-09-17T14:27:32Z</time>
      </trkpt>
      <trkpt lat="45.39341" lon="3.37755">
        <ele>460.6</ele>
        <time>2020-09-17T14:27:33Z</time>
      </trkpt>
      <trkpt lat="45.39341" lon="3.37755">
        <ele>460.6</ele>
        <time>2020-09-17T14:27:34Z</time>
      </trkpt>
      <trkpt lat="45.39341" lon="3.37755">
        <ele>460.6</ele>
        <time>2020-09-17T14:27:35Z</time>
      </trkpt>
      <trkpt lat="45.39341" lon="3.37755">
        <ele>460.6</ele>
        <time>2020-09-17T14:27:36Z</time>
      </trkpt>
      <trkpt lat="45.39341" lon="3.37755">
        <ele>460.7</ele>
        <time>2020-09-17T14:27:37Z</time>
      </trkpt>
      <trkpt lat="45.39341" lon="3.37754">
        <ele>460.7</ele>
        <time>2020-09-17T14:27:38Z</time>
      </trkpt>
      <trkpt lat="45.3934" lon="3.37753">
        <ele>460.9</ele>
        <time>2020-09-17T14:27:39Z</time>
      </trkpt>
      <trkpt lat="45.3934" lon="3.37752">
        <ele>460.9</ele>
        <time>2020-09-17T14:27:40Z</time>
      </trkpt>
      <trkpt lat="45.3934" lon="3.37751">
        <ele>460.8</ele>
        <time>2020-09-17T14:27:41Z</time>
      </trkpt>
      <trkpt lat="45.3934" lon="3.3775">
        <ele>460.7</ele>
        <time>2020-09-17T14:27:42Z</time>
      </trkpt>
      <trkpt lat="45.3934" lon="3.37749">
        <ele>460.6</ele>
        <time>2020-09-17T14:27:43Z</time>
      </trkpt>
      <trkpt lat="45.3934" lon="3.37748">
        <ele>460.6</ele>
        <time>2020-09-17T14:27:44Z</time>
      </trkpt>
      <trkpt lat="45.3934" lon="3.37747">
        <ele>460.7</ele>
        <time>2020-09-17T14:27:45Z</time>
      </trkpt>
      <trkpt lat="45.3934" lon="3.37746">
        <ele>460.7</ele>
        <time>2020-09-17T14:27:46Z</time>
      </trkpt>
      <trkpt lat="45.3934" lon="3.37744">
        <ele>460.6</ele>
        <time>2020-09-17T14:27:47Z</time>
      </trkpt>
      <trkpt lat="45.3934" lon="3.37743">
        <ele>460.6</ele>
        <time>2020-09-17T14:27:48Z</time>
      </trkpt>
      <trkpt lat="45.39339" lon="3.37742">
        <ele>460.6</ele>
        <time>2020-09-17T14:27:49Z</time>
      </trkpt>
      <trkpt lat="45.39339" lon="3.37741">
        <ele>460.7</ele>
        <time>2020-09-17T14:27:50Z</time>
      </trkpt>
      <trkpt lat="45.39339" lon="3.3774">
        <ele>460.7</ele>
        <time>2020-09-17T14:27:51Z</time>
      </trkpt>
      <trkpt lat="45.39339" lon="3.37739">
        <ele>460.7</ele>
        <time>2020-09-17T14:27:52Z</time>
      </trkpt>
      <trkpt lat="45.39339" lon="3.37738">
        <ele>460.7</ele>
        <time>2020-09-17T14:27:53Z</time>
      </trkpt>
      <trkpt lat="45.39339" lon="3.37736">
        <ele>460.8</ele>
        <time>2020-09-17T14:27:54Z</time>
      </trkpt>
      <trkpt lat="45.39339" lon="3.37735">
        <ele>460.7</ele>
        <time>2020-09-17T14:27:55Z</time>
      </trkpt>
      <trkpt lat="45.39339" lon="3.37734">
        <ele>460.5</ele>
        <time>2020-09-17T14:27:56Z</time>
      </trkpt>
      <trkpt lat="45.39339" lon="3.37732">
        <ele>460.5</ele>
        <time>2020-09-17T14:27:57Z</time>
      </trkpt>
      <trkpt lat="45.39339" lon="3.37731">
        <ele>460.6</ele>
        <time>2020-09-17T14:27:58Z</time>
      </trkpt>
      <trkpt lat="45.39338" lon="3.3773">
        <ele>460.6</ele>
        <time>2020-09-17T14:27:59Z</time>
      </trkpt>
      <trkpt lat="45.39338" lon="3.37728">
        <ele>460.5</ele>
        <time>2020-09-17T14:28:00Z</time>
      </trkpt>
      <trkpt lat="45.39338" lon="3.37727">
        <ele>460.6</ele>
        <time>2020-09-17T14:28:01Z</time>
      </trkpt>
      <trkpt lat="45.39338" lon="3.37726">
        <ele>460.8</ele>
        <time>2020-09-17T14:28:02Z</time>
      </trkpt>
      <trkpt lat="45.39338" lon="3.37724">
        <ele>460.8</ele>
        <time>2020-09-17T14:28:03Z</time>
      </trkpt>
      <trkpt lat="45.39338" lon="3.37723">
        <ele>460.8</ele>
        <time>2020-09-17T14:28:04Z</time>
      </trkpt>
      <trkpt lat="45.39338" lon="3.37722">
        <ele>460.7</ele>
        <time>2020-09-17T14:28:05Z</time>
      </trkpt>
      <trkpt lat="45.39338" lon="3.3772">
        <ele>460.8</ele>
        <time>2020-09-17T14:28:06Z</time>
      </trkpt>
      <trkpt lat="45.39338" lon="3.37719">
        <ele>460.7</ele>
        <time>2020-09-17T14:28:07Z</time>
      </trkpt>
      <trkpt lat="45.39338" lon="3.37717">
        <ele>460.6</ele>
        <time>2020-09-17T14:28:08Z</time>
      </trkpt>
      <trkpt lat="45.39338" lon="3.37716">
        <ele>460.4</ele>
        <time>2020-09-17T14:28:09Z</time>
      </trkpt>
      <trkpt lat="45.39339" lon="3.37714">
        <ele>460.3</ele>
        <time>2020-09-17T14:28:10Z</time>
      </trkpt>
      <trkpt lat="45.39339" lon="3.37713">
        <ele>460.1</ele>
        <time>2020-09-17T14:28:11Z</time>
      </trkpt>
      <trkpt lat="45.39339" lon="3.37712">
        <ele>459.9</ele>
        <time>2020-09-17T14:28:12Z</time>
      </trkpt>
      <trkpt lat="45.39339" lon="3.3771">
        <ele>459.8</ele>
        <time>2020-09-17T14:28:13Z</time>
      </trkpt>
      <trkpt lat="45.3934" lon="3.37709">
        <ele>459.7</ele>
        <time>2020-09-17T14:28:14Z</time>
      </trkpt>
      <trkpt lat="45.3934" lon="3.37708">
        <ele>459.5</ele>
        <time>2020-09-17T14:28:15Z</time>
      </trkpt>
      <trkpt lat="45.3934" lon="3.37706">
        <ele>459.4</ele>
        <time>2020-09-17T14:28:16Z</time>
      </trkpt>
      <trkpt lat="45.3934" lon="3.37705">
        <ele>459.3</ele>
        <time>2020-09-17T14:28:17Z</time>
      </trkpt>
      <trkpt lat="45.3934" lon="3.37703">
        <ele>459.2</ele>
        <time>2020-09-17T14:28:18Z</time>
      </trkpt>
      <trkpt lat="45.39341" lon="3.37702">
        <ele>459.1</ele>
        <time>2020-09-17T14:28:19Z</time>
      </trkpt>
      <trkpt lat="45.39341" lon="3.37701">
        <ele>459</ele>
        <time>2020-09-17T14:28:20Z</time>
      </trkpt>
      <trkpt lat="45.39341" lon="3.37699">
        <ele>458.9</ele>
        <time>2020-09-17T14:28:21Z</time>
      </trkpt>
      <trkpt lat="45.39341" lon="3.37698">
        <ele>458.8</ele>
        <time>2020-09-17T14:28:22Z</time>
      </trkpt>
      <trkpt lat="45.39341" lon="3.37696">
        <ele>458.8</ele>
        <time>2020-09-17T14:28:23Z</time>
      </trkpt>
      <trkpt lat="45.39341" lon="3.37695">
        <ele>458.7</ele>
        <time>2020-09-17T14:28:24Z</time>
      </trkpt>
      <trkpt lat="45.39342" lon="3.37693">
        <ele>458.7</ele>
        <time>2020-09-17T14:28:25Z</time>
      </trkpt>
      <trkpt lat="45.39342" lon="3.37692">
        <ele>458.8</ele>
        <time>2020-09-17T14:28:26Z</time>
      </trkpt>
      <trkpt lat="45.39342" lon="3.3769">
        <ele>458.8</ele>
        <time>2020-09-17T14:28:27Z</time>
      </trkpt>
      <trkpt lat="45.39342" lon="3.37689">
        <ele>458.9</ele>
        <time>2020-09-17T14:28:28Z</time>
      </trkpt>
      <trkpt lat="45.39343" lon="3.37688">
        <ele>458.9</ele>
        <time>2020-09-17T14:28:29Z</time>
      </trkpt>
      <trkpt lat="45.39343" lon="3.37686">
        <ele>459</ele>
        <time>2020-09-17T14:28:30Z</time>
      </trkpt>
      <trkpt lat="45.39343" lon="3.37685">
        <ele>459</ele>
        <time>2020-09-17T14:28:31Z</time>
      </trkpt>
      <trkpt lat="45.39343" lon="3.37684">
        <ele>458.9</ele>
        <time>2020-09-17T14:28:32Z</time>
      </trkpt>
      <trkpt lat="45.39344" lon="3.37682">
        <ele>458.9</ele>
        <time>2020-09-17T14:28:33Z</time>
      </trkpt>
      <trkpt lat="45.39344" lon="3.37681">
        <ele>459</ele>
        <time>2020-09-17T14:28:34Z</time>
      </trkpt>
      <trkpt lat="45.39344" lon="3.3768">
        <ele>459</ele>
        <time>2020-09-17T14:28:35Z</time>
      </trkpt>
      <trkpt lat="45.39345" lon="3.37678">
        <ele>459</ele>
        <time>2020-09-17T14:28:36Z</time>
      </trkpt>
      <trkpt lat="45.39345" lon="3.37677">
        <ele>459</ele>
        <time>2020-09-17T14:28:37Z</time>
      </trkpt>
      <trkpt lat="45.39345" lon="3.37675">
        <ele>459</ele>
        <time>2020-09-17T14:28:38Z</time>
      </trkpt>
      <trkpt lat="45.39346" lon="3.37674">
        <ele>459</ele>
        <time>2020-09-17T14:28:39Z</time>
      </trkpt>
      <trkpt lat="45.39346" lon="3.37673">
        <ele>459</ele>
        <time>2020-09-17T14:28:40Z</time>
      </trkpt>
      <trkpt lat="45.39346" lon="3.37671">
        <ele>459</ele>
        <time>2020-09-17T14:28:41Z</time>
      </trkpt>
      <trkpt lat="45.39347" lon="3.3767">
        <ele>459</ele>
        <time>2020-09-17T14:28:42Z</time>
      </trkpt>
      <trkpt lat="45.39347" lon="3.37668">
        <ele>459.1</ele>
        <time>2020-09-17T14:28:43Z</time>
      </trkpt>
      <trkpt lat="45.39347" lon="3.37667">
        <ele>459.3</ele>
        <time>2020-09-17T14:28:44Z</time>
      </trkpt>
      <trkpt lat="45.39347" lon="3.37665">
        <ele>459.2</ele>
        <time>2020-09-17T14:28:45Z</time>
      </trkpt>
      <trkpt lat="45.39348" lon="3.37664">
        <ele>459.1</ele>
        <time>2020-09-17T14:28:46Z</time>
      </trkpt>
      <trkpt lat="45.39348" lon="3.37662">
        <ele>459.1</ele>
        <time>2020-09-17T14:28:47Z</time>
      </trkpt>
      <trkpt lat="45.39348" lon="3.37661">
        <ele>459.1</ele>
        <time>2020-09-17T14:28:48Z</time>
      </trkpt>
      <trkpt lat="45.39348" lon="3.3766">
        <ele>459.2</ele>
        <time>2020-09-17T14:28:49Z</time>
      </trkpt>
      <trkpt lat="45.39348" lon="3.37658">
        <ele>459.4</ele>
        <time>2020-09-17T14:28:50Z</time>
      </trkpt>
      <trkpt lat="45.39348" lon="3.37657">
        <ele>459.4</ele>
        <time>2020-09-17T14:28:51Z</time>
      </trkpt>
      <trkpt lat="45.39348" lon="3.37655">
        <ele>459.5</ele>
        <time>2020-09-17T14:28:52Z</time>
      </trkpt>
      <trkpt lat="45.39348" lon="3.37654">
        <ele>459.6</ele>
        <time>2020-09-17T14:28:53Z</time>
      </trkpt>
      <trkpt lat="45.39349" lon="3.37652">
        <ele>459.6</ele>
        <time>2020-09-17T14:28:54Z</time>
      </trkpt>
      <trkpt lat="45.39349" lon="3.37651">
        <ele>459.7</ele>
        <time>2020-09-17T14:28:55Z</time>
      </trkpt>
      <trkpt lat="45.39349" lon="3.37649">
        <ele>459.8</ele>
        <time>2020-09-17T14:28:56Z</time>
      </trkpt>
      <trkpt lat="45.39348" lon="3.37648">
        <ele>460.1</ele>
        <time>2020-09-17T14:28:57Z</time>
      </trkpt>
      <trkpt lat="45.39348" lon="3.37647">
        <ele>460.3</ele>
        <time>2020-09-17T14:28:58Z</time>
      </trkpt>
      <trkpt lat="45.39348" lon="3.37646">
        <ele>460.4</ele>
        <time>2020-09-17T14:28:59Z</time>
      </trkpt>
      <trkpt lat="45.39348" lon="3.37646">
        <ele>460.6</ele>
        <time>2020-09-17T14:29:00Z</time>
      </trkpt>
      <trkpt lat="45.39348" lon="3.37645">
        <ele>460.7</ele>
        <time>2020-09-17T14:29:01Z</time>
      </trkpt>
      <trkpt lat="45.39348" lon="3.37644">
        <ele>460.9</ele>
        <time>2020-09-17T14:29:02Z</time>
      </trkpt>
      <trkpt lat="45.39348" lon="3.37643">
        <ele>461</ele>
        <time>2020-09-17T14:29:03Z</time>
      </trkpt>
      <trkpt lat="45.39347" lon="3.37643">
        <ele>461.1</ele>
        <time>2020-09-17T14:29:04Z</time>
      </trkpt>
      <trkpt lat="45.39347" lon="3.37643">
        <ele>461.1</ele>
        <time>2020-09-17T14:29:05Z</time>
      </trkpt>
      <trkpt lat="45.39347" lon="3.37643">
        <ele>461.2</ele>
        <time>2020-09-17T14:29:06Z</time>
      </trkpt>
      <trkpt lat="45.39347" lon="3.37643">
        <ele>461.2</ele>
        <time>2020-09-17T14:29:07Z</time>
      </trkpt>
      <trkpt lat="45.39347" lon="3.37643">
        <ele>461.2</ele>
        <time>2020-09-17T14:29:08Z</time>
      </trkpt>
      <trkpt lat="45.39347" lon="3.37643">
        <ele>461.3</ele>
        <time>2020-09-17T14:29:09Z</time>
      </trkpt>
      <trkpt lat="45.39347" lon="3.37642">
        <ele>461.5</ele>
        <time>2020-09-17T14:29:10Z</time>
      </trkpt>
      <trkpt lat="45.39346" lon="3.37642">
        <ele>461.7</ele>
        <time>2020-09-17T14:29:11Z</time>
      </trkpt>
      <trkpt lat="45.39346" lon="3.3764">
        <ele>461.9</ele>
        <time>2020-09-17T14:29:12Z</time>
      </trkpt>
      <trkpt lat="45.39346" lon="3.37639">
        <ele>462.1</ele>
        <time>2020-09-17T14:29:13Z</time>
      </trkpt>
      <trkpt lat="45.39346" lon="3.37638">
        <ele>462.3</ele>
        <time>2020-09-17T14:29:14Z</time>
      </trkpt>
      <trkpt lat="45.39345" lon="3.37636">
        <ele>462.5</ele>
        <time>2020-09-17T14:29:15Z</time>
      </trkpt>
      <trkpt lat="45.39345" lon="3.37635">
        <ele>462.7</ele>
        <time>2020-09-17T14:29:16Z</time>
      </trkpt>
      <trkpt lat="45.39344" lon="3.37634">
        <ele>462.9</ele>
        <time>2020-09-17T14:29:17Z</time>
      </trkpt>
      <trkpt lat="45.39344" lon="3.37632">
        <ele>463.1</ele>
        <time>2020-09-17T14:29:18Z</time>
      </trkpt>
      <trkpt lat="45.39344" lon="3.37631">
        <ele>463.3</ele>
        <time>2020-09-17T14:29:19Z</time>
      </trkpt>
      <trkpt lat="45.39343" lon="3.3763">
        <ele>463.5</ele>
        <time>2020-09-17T14:29:20Z</time>
      </trkpt>
      <trkpt lat="45.39343" lon="3.37629">
        <ele>463.8</ele>
        <time>2020-09-17T14:29:21Z</time>
      </trkpt>
      <trkpt lat="45.39342" lon="3.37627">
        <ele>463.9</ele>
        <time>2020-09-17T14:29:22Z</time>
      </trkpt>
      <trkpt lat="45.39342" lon="3.37626">
        <ele>464.1</ele>
        <time>2020-09-17T14:29:23Z</time>
      </trkpt>
      <trkpt lat="45.39341" lon="3.37625">
        <ele>464.5</ele>
        <time>2020-09-17T14:29:24Z</time>
      </trkpt>
      <trkpt lat="45.39341" lon="3.37624">
        <ele>464.8</ele>
        <time>2020-09-17T14:29:25Z</time>
      </trkpt>
      <trkpt lat="45.3934" lon="3.37623">
        <ele>465.2</ele>
        <time>2020-09-17T14:29:26Z</time>
      </trkpt>
      <trkpt lat="45.3934" lon="3.37622">
        <ele>465.5</ele>
        <time>2020-09-17T14:29:27Z</time>
      </trkpt>
      <trkpt lat="45.39339" lon="3.37621">
        <ele>465.7</ele>
        <time>2020-09-17T14:29:28Z</time>
      </trkpt>
      <trkpt lat="45.39339" lon="3.3762">
        <ele>466</ele>
        <time>2020-09-17T14:29:29Z</time>
      </trkpt>
      <trkpt lat="45.39338" lon="3.37619">
        <ele>466.4</ele>
        <time>2020-09-17T14:29:30Z</time>
      </trkpt>
      <trkpt lat="45.39337" lon="3.37618">
        <ele>466.8</ele>
        <time>2020-09-17T14:29:31Z</time>
      </trkpt>
      <trkpt lat="45.39336" lon="3.37617">
        <ele>467.2</ele>
        <time>2020-09-17T14:29:32Z</time>
      </trkpt>
      <trkpt lat="45.39336" lon="3.37616">
        <ele>467.6</ele>
        <time>2020-09-17T14:29:33Z</time>
      </trkpt>
      <trkpt lat="45.39335" lon="3.37614">
        <ele>468</ele>
        <time>2020-09-17T14:29:34Z</time>
      </trkpt>
      <trkpt lat="45.39334" lon="3.37613">
        <ele>468.4</ele>
        <time>2020-09-17T14:29:35Z</time>
      </trkpt>
      <trkpt lat="45.39334" lon="3.37612">
        <ele>468.7</ele>
        <time>2020-09-17T14:29:36Z</time>
      </trkpt>
      <trkpt lat="45.39333" lon="3.37611">
        <ele>468.9</ele>
        <time>2020-09-17T14:29:37Z</time>
      </trkpt>
      <trkpt lat="45.39333" lon="3.3761">
        <ele>468.6</ele>
        <time>2020-09-17T14:29:38Z</time>
      </trkpt>
      <trkpt lat="45.39332" lon="3.37609">
        <ele>468.3</ele>
        <time>2020-09-17T14:29:39Z</time>
      </trkpt>
      <trkpt lat="45.39331" lon="3.37608">
        <ele>468</ele>
        <time>2020-09-17T14:29:40Z</time>
      </trkpt>
      <trkpt lat="45.39331" lon="3.37607">
        <ele>467.8</ele>
        <time>2020-09-17T14:29:41Z</time>
      </trkpt>
      <trkpt lat="45.3933" lon="3.37606">
        <ele>467.6</ele>
        <time>2020-09-17T14:29:42Z</time>
      </trkpt>
      <trkpt lat="45.3933" lon="3.37605">
        <ele>467.4</ele>
        <time>2020-09-17T14:29:43Z</time>
      </trkpt>
      <trkpt lat="45.39329" lon="3.37604">
        <ele>467.2</ele>
        <time>2020-09-17T14:29:44Z</time>
      </trkpt>
      <trkpt lat="45.39329" lon="3.37603">
        <ele>467.1</ele>
        <time>2020-09-17T14:29:45Z</time>
      </trkpt>
      <trkpt lat="45.39328" lon="3.37603">
        <ele>467</ele>
        <time>2020-09-17T14:29:46Z</time>
      </trkpt>
      <trkpt lat="45.39328" lon="3.37602">
        <ele>467</ele>
        <time>2020-09-17T14:29:47Z</time>
      </trkpt>
      <trkpt lat="45.39327" lon="3.37602">
        <ele>467</ele>
        <time>2020-09-17T14:29:48Z</time>
      </trkpt>
      <trkpt lat="45.39327" lon="3.37602">
        <ele>467.1</ele>
        <time>2020-09-17T14:29:49Z</time>
      </trkpt>
      <trkpt lat="45.39326" lon="3.37603">
        <ele>467.3</ele>
        <time>2020-09-17T14:29:50Z</time>
      </trkpt>
      <trkpt lat="45.39325" lon="3.37603">
        <ele>467.4</ele>
        <time>2020-09-17T14:29:51Z</time>
      </trkpt>
      <trkpt lat="45.39325" lon="3.37604">
        <ele>467.6</ele>
        <time>2020-09-17T14:29:52Z</time>
      </trkpt>
      <trkpt lat="45.39324" lon="3.37605">
        <ele>467.8</ele>
        <time>2020-09-17T14:29:53Z</time>
      </trkpt>
      <trkpt lat="45.39323" lon="3.37606">
        <ele>467.9</ele>
        <time>2020-09-17T14:29:54Z</time>
      </trkpt>
      <trkpt lat="45.39323" lon="3.37606">
        <ele>468</ele>
        <time>2020-09-17T14:29:55Z</time>
      </trkpt>
      <trkpt lat="45.39322" lon="3.37607">
        <ele>468.1</ele>
        <time>2020-09-17T14:29:56Z</time>
      </trkpt>
      <trkpt lat="45.39322" lon="3.37608">
        <ele>468.2</ele>
        <time>2020-09-17T14:29:57Z</time>
      </trkpt>
      <trkpt lat="45.39321" lon="3.37609">
        <ele>468.3</ele>
        <time>2020-09-17T14:29:58Z</time>
      </trkpt>
      <trkpt lat="45.3932" lon="3.37609">
        <ele>468.4</ele>
        <time>2020-09-17T14:29:59Z</time>
      </trkpt>
      <trkpt lat="45.3932" lon="3.3761">
        <ele>468.4</ele>
        <time>2020-09-17T14:30:00Z</time>
      </trkpt>
      <trkpt lat="45.39319" lon="3.37611">
        <ele>468.4</ele>
        <time>2020-09-17T14:30:01Z</time>
      </trkpt>
      <trkpt lat="45.39318" lon="3.37611">
        <ele>468.5</ele>
        <time>2020-09-17T14:30:02Z</time>
      </trkpt>
      <trkpt lat="45.39318" lon="3.37611">
        <ele>468.4</ele>
        <time>2020-09-17T14:30:03Z</time>
      </trkpt>
      <trkpt lat="45.39317" lon="3.37611">
        <ele>468.4</ele>
        <time>2020-09-17T14:30:04Z</time>
      </trkpt>
      <trkpt lat="45.39316" lon="3.37611">
        <ele>468.3</ele>
        <time>2020-09-17T14:30:05Z</time>
      </trkpt>
      <trkpt lat="45.39315" lon="3.37612">
        <ele>468.2</ele>
        <time>2020-09-17T14:30:06Z</time>
      </trkpt>
      <trkpt lat="45.39314" lon="3.37613">
        <ele>468.1</ele>
        <time>2020-09-17T14:30:07Z</time>
      </trkpt>
      <trkpt lat="45.39314" lon="3.37613">
        <ele>468</ele>
        <time>2020-09-17T14:30:08Z</time>
      </trkpt>
      <trkpt lat="45.39313" lon="3.37614">
        <ele>467.9</ele>
        <time>2020-09-17T14:30:09Z</time>
      </trkpt>
      <trkpt lat="45.39313" lon="3.37614">
        <ele>467.9</ele>
        <time>2020-09-17T14:30:10Z</time>
      </trkpt>
      <trkpt lat="45.39312" lon="3.37614">
        <ele>467.9</ele>
        <time>2020-09-17T14:30:11Z</time>
      </trkpt>
      <trkpt lat="45.39312" lon="3.37613">
        <ele>467.9</ele>
        <time>2020-09-17T14:30:12Z</time>
      </trkpt>
      <trkpt lat="45.39312" lon="3.37612">
        <ele>468</ele>
        <time>2020-09-17T14:30:13Z</time>
      </trkpt>
      <trkpt lat="45.39311" lon="3.37612">
        <ele>468.1</ele>
        <time>2020-09-17T14:30:14Z</time>
      </trkpt>
      <trkpt lat="45.39311" lon="3.37611">
        <ele>468.2</ele>
        <time>2020-09-17T14:30:15Z</time>
      </trkpt>
      <trkpt lat="45.39311" lon="3.3761">
        <ele>468.2</ele>
        <time>2020-09-17T14:30:16Z</time>
      </trkpt>
      <trkpt lat="45.3931" lon="3.3761">
        <ele>468.3</ele>
        <time>2020-09-17T14:30:17Z</time>
      </trkpt>
      <trkpt lat="45.39309" lon="3.37609">
        <ele>468.3</ele>
        <time>2020-09-17T14:30:18Z</time>
      </trkpt>
      <trkpt lat="45.39309" lon="3.37609">
        <ele>468.4</ele>
        <time>2020-09-17T14:30:19Z</time>
      </trkpt>
      <trkpt lat="45.39308" lon="3.37608">
        <ele>468.4</ele>
        <time>2020-09-17T14:30:20Z</time>
      </trkpt>
      <trkpt lat="45.39308" lon="3.37607">
        <ele>468.5</ele>
        <time>2020-09-17T14:30:21Z</time>
      </trkpt>
      <trkpt lat="45.39307" lon="3.37607">
        <ele>468.6</ele>
        <time>2020-09-17T14:30:22Z</time>
      </trkpt>
      <trkpt lat="45.39307" lon="3.37606">
        <ele>468.7</ele>
        <time>2020-09-17T14:30:23Z</time>
      </trkpt>
      <trkpt lat="45.39306" lon="3.37605">
        <ele>468.9</ele>
        <time>2020-09-17T14:30:24Z</time>
      </trkpt>
      <trkpt lat="45.39305" lon="3.37604">
        <ele>468.9</ele>
        <time>2020-09-17T14:30:25Z</time>
      </trkpt>
      <trkpt lat="45.39305" lon="3.37604">
        <ele>468.7</ele>
        <time>2020-09-17T14:30:26Z</time>
      </trkpt>
      <trkpt lat="45.39304" lon="3.37603">
        <ele>468.6</ele>
        <time>2020-09-17T14:30:27Z</time>
      </trkpt>
      <trkpt lat="45.39303" lon="3.37602">
        <ele>468.5</ele>
        <time>2020-09-17T14:30:28Z</time>
      </trkpt>
      <trkpt lat="45.39303" lon="3.37602">
        <ele>468.4</ele>
        <time>2020-09-17T14:30:29Z</time>
      </trkpt>
      <trkpt lat="45.39302" lon="3.37601">
        <ele>468.2</ele>
        <time>2020-09-17T14:30:30Z</time>
      </trkpt>
      <trkpt lat="45.39301" lon="3.37601">
        <ele>468.1</ele>
        <time>2020-09-17T14:30:31Z</time>
      </trkpt>
      <trkpt lat="45.39301" lon="3.376">
        <ele>467.9</ele>
        <time>2020-09-17T14:30:32Z</time>
      </trkpt>
      <trkpt lat="45.393" lon="3.376">
        <ele>467.8</ele>
        <time>2020-09-17T14:30:33Z</time>
      </trkpt>
      <trkpt lat="45.39299" lon="3.37599">
        <ele>467.6</ele>
        <time>2020-09-17T14:30:34Z</time>
      </trkpt>
      <trkpt lat="45.39299" lon="3.37598">
        <ele>467.7</ele>
        <time>2020-09-17T14:30:35Z</time>
      </trkpt>
      <trkpt lat="45.39299" lon="3.37597">
        <ele>467.7</ele>
        <time>2020-09-17T14:30:36Z</time>
      </trkpt>
      <trkpt lat="45.39298" lon="3.37596">
        <ele>467.8</ele>
        <time>2020-09-17T14:30:37Z</time>
      </trkpt>
      <trkpt lat="45.39298" lon="3.37595">
        <ele>467.9</ele>
        <time>2020-09-17T14:30:38Z</time>
      </trkpt>
      <trkpt lat="45.39298" lon="3.37594">
        <ele>468</ele>
        <time>2020-09-17T14:30:39Z</time>
      </trkpt>
      <trkpt lat="45.39297" lon="3.37593">
        <ele>468.1</ele>
        <time>2020-09-17T14:30:40Z</time>
      </trkpt>
      <trkpt lat="45.39297" lon="3.37592">
        <ele>468.2</ele>
        <time>2020-09-17T14:30:41Z</time>
      </trkpt>
      <trkpt lat="45.39297" lon="3.37591">
        <ele>468.3</ele>
        <time>2020-09-17T14:30:42Z</time>
      </trkpt>
      <trkpt lat="45.39296" lon="3.3759">
        <ele>468.4</ele>
        <time>2020-09-17T14:30:43Z</time>
      </trkpt>
      <trkpt lat="45.39296" lon="3.37589">
        <ele>468.5</ele>
        <time>2020-09-17T14:30:44Z</time>
      </trkpt>
      <trkpt lat="45.39296" lon="3.37588">
        <ele>468.6</ele>
        <time>2020-09-17T14:30:45Z</time>
      </trkpt>
      <trkpt lat="45.39296" lon="3.37587">
        <ele>468.8</ele>
        <time>2020-09-17T14:30:46Z</time>
      </trkpt>
      <trkpt lat="45.39295" lon="3.37586">
        <ele>468.9</ele>
        <time>2020-09-17T14:30:47Z</time>
      </trkpt>
      <trkpt lat="45.39295" lon="3.37585">
        <ele>469</ele>
        <time>2020-09-17T14:30:48Z</time>
      </trkpt>
      <trkpt lat="45.39295" lon="3.37584">
        <ele>469</ele>
        <time>2020-09-17T14:30:49Z</time>
      </trkpt>
      <trkpt lat="45.39294" lon="3.37584">
        <ele>469.1</ele>
        <time>2020-09-17T14:30:50Z</time>
      </trkpt>
      <trkpt lat="45.39294" lon="3.37583">
        <ele>468.9</ele>
        <time>2020-09-17T14:30:51Z</time>
      </trkpt>
      <trkpt lat="45.39293" lon="3.37582">
        <ele>468.8</ele>
        <time>2020-09-17T14:30:52Z</time>
      </trkpt>
      <trkpt lat="45.39293" lon="3.37581">
        <ele>468.7</ele>
        <time>2020-09-17T14:30:53Z</time>
      </trkpt>
      <trkpt lat="45.39293" lon="3.37581">
        <ele>468.7</ele>
        <time>2020-09-17T14:30:54Z</time>
      </trkpt>
      <trkpt lat="45.39292" lon="3.3758">
        <ele>468.6</ele>
        <time>2020-09-17T14:30:55Z</time>
      </trkpt>
      <trkpt lat="45.39292" lon="3.3758">
        <ele>468.6</ele>
        <time>2020-09-17T14:30:56Z</time>
      </trkpt>
      <trkpt lat="45.39292" lon="3.37579">
        <ele>468.5</ele>
        <time>2020-09-17T14:30:57Z</time>
      </trkpt>
      <trkpt lat="45.39291" lon="3.37578">
        <ele>468.4</ele>
        <time>2020-09-17T14:30:58Z</time>
      </trkpt>
      <trkpt lat="45.39291" lon="3.37577">
        <ele>468.3</ele>
        <time>2020-09-17T14:30:59Z</time>
      </trkpt>
      <trkpt lat="45.3929" lon="3.37576">
        <ele>468.2</ele>
        <time>2020-09-17T14:31:00Z</time>
      </trkpt>
      <trkpt lat="45.3929" lon="3.37575">
        <ele>468.1</ele>
        <time>2020-09-17T14:31:01Z</time>
      </trkpt>
      <trkpt lat="45.39289" lon="3.37574">
        <ele>468.1</ele>
        <time>2020-09-17T14:31:02Z</time>
      </trkpt>
      <trkpt lat="45.39288" lon="3.37574">
        <ele>468</ele>
        <time>2020-09-17T14:31:03Z</time>
      </trkpt>
      <trkpt lat="45.39288" lon="3.37574">
        <ele>467.9</ele>
        <time>2020-09-17T14:31:04Z</time>
      </trkpt>
      <trkpt lat="45.39288" lon="3.37574">
        <ele>467.9</ele>
        <time>2020-09-17T14:31:05Z</time>
      </trkpt>
      <trkpt lat="45.39288" lon="3.37574">
        <ele>467.9</ele>
        <time>2020-09-17T14:31:06Z</time>
      </trkpt>
      <trkpt lat="45.39288" lon="3.37573">
        <ele>467.9</ele>
        <time>2020-09-17T14:31:07Z</time>
      </trkpt>
      <trkpt lat="45.39287" lon="3.37573">
        <ele>467.9</ele>
        <time>2020-09-17T14:31:08Z</time>
      </trkpt>
      <trkpt lat="45.39287" lon="3.37573">
        <ele>467.9</ele>
        <time>2020-09-17T14:31:09Z</time>
      </trkpt>
      <trkpt lat="45.39287" lon="3.37573">
        <ele>467.9</ele>
        <time>2020-09-17T14:31:10Z</time>
      </trkpt>
      <trkpt lat="45.39287" lon="3.37573">
        <ele>467.8</ele>
        <time>2020-09-17T14:31:11Z</time>
      </trkpt>
      <trkpt lat="45.39287" lon="3.37573">
        <ele>467.8</ele>
        <time>2020-09-17T14:31:12Z</time>
      </trkpt>
      <trkpt lat="45.39287" lon="3.37572">
        <ele>467.8</ele>
        <time>2020-09-17T14:31:13Z</time>
      </trkpt>
      <trkpt lat="45.39286" lon="3.37572">
        <ele>467.8</ele>
        <time>2020-09-17T14:31:14Z</time>
      </trkpt>
      <trkpt lat="45.39286" lon="3.37571">
        <ele>467.8</ele>
        <time>2020-09-17T14:31:15Z</time>
      </trkpt>
      <trkpt lat="45.39285" lon="3.3757">
        <ele>467.8</ele>
        <time>2020-09-17T14:31:16Z</time>
      </trkpt>
      <trkpt lat="45.39285" lon="3.37568">
        <ele>467.8</ele>
        <time>2020-09-17T14:31:17Z</time>
      </trkpt>
      <trkpt lat="45.39284" lon="3.37567">
        <ele>467.9</ele>
        <time>2020-09-17T14:31:18Z</time>
      </trkpt>
      <trkpt lat="45.39284" lon="3.37566">
        <ele>467.9</ele>
        <time>2020-09-17T14:31:19Z</time>
      </trkpt>
      <trkpt lat="45.39283" lon="3.37565">
        <ele>468</ele>
        <time>2020-09-17T14:31:20Z</time>
      </trkpt>
      <trkpt lat="45.39283" lon="3.37564">
        <ele>468</ele>
        <time>2020-09-17T14:31:21Z</time>
      </trkpt>
      <trkpt lat="45.39282" lon="3.37563">
        <ele>468.1</ele>
        <time>2020-09-17T14:31:22Z</time>
      </trkpt>
      <trkpt lat="45.39282" lon="3.37562">
        <ele>468.2</ele>
        <time>2020-09-17T14:31:23Z</time>
      </trkpt>
      <trkpt lat="45.39281" lon="3.37561">
        <ele>468.3</ele>
        <time>2020-09-17T14:31:24Z</time>
      </trkpt>
      <trkpt lat="45.39281" lon="3.3756">
        <ele>468.4</ele>
        <time>2020-09-17T14:31:25Z</time>
      </trkpt>
      <trkpt lat="45.3928" lon="3.37559">
        <ele>468.5</ele>
        <time>2020-09-17T14:31:26Z</time>
      </trkpt>
      <trkpt lat="45.3928" lon="3.37558">
        <ele>468.6</ele>
        <time>2020-09-17T14:31:27Z</time>
      </trkpt>
      <trkpt lat="45.39279" lon="3.37557">
        <ele>468.8</ele>
        <time>2020-09-17T14:31:28Z</time>
      </trkpt>
      <trkpt lat="45.39279" lon="3.37556">
        <ele>469</ele>
        <time>2020-09-17T14:31:29Z</time>
      </trkpt>
      <trkpt lat="45.39278" lon="3.37555">
        <ele>469.1</ele>
        <time>2020-09-17T14:31:30Z</time>
      </trkpt>
      <trkpt lat="45.39278" lon="3.37553">
        <ele>469.2</ele>
        <time>2020-09-17T14:31:31Z</time>
      </trkpt>
      <trkpt lat="45.39278" lon="3.37552">
        <ele>469.1</ele>
        <time>2020-09-17T14:31:32Z</time>
      </trkpt>
      <trkpt lat="45.39277" lon="3.37551">
        <ele>469.1</ele>
        <time>2020-09-17T14:31:33Z</time>
      </trkpt>
      <trkpt lat="45.39277" lon="3.3755">
        <ele>469.1</ele>
        <time>2020-09-17T14:31:34Z</time>
      </trkpt>
      <trkpt lat="45.39276" lon="3.37548">
        <ele>469</ele>
        <time>2020-09-17T14:31:35Z</time>
      </trkpt>
      <trkpt lat="45.39276" lon="3.37547">
        <ele>469</ele>
        <time>2020-09-17T14:31:36Z</time>
      </trkpt>
      <trkpt lat="45.39276" lon="3.37546">
        <ele>469.1</ele>
        <time>2020-09-17T14:31:37Z</time>
      </trkpt>
      <trkpt lat="45.39276" lon="3.37545">
        <ele>469.1</ele>
        <time>2020-09-17T14:31:38Z</time>
      </trkpt>
      <trkpt lat="45.39276" lon="3.37545">
        <ele>469</ele>
        <time>2020-09-17T14:31:39Z</time>
      </trkpt>
      <trkpt lat="45.39275" lon="3.37544">
        <ele>469</ele>
        <time>2020-09-17T14:31:40Z</time>
      </trkpt>
      <trkpt lat="45.39275" lon="3.37543">
        <ele>468.9</ele>
        <time>2020-09-17T14:31:41Z</time>
      </trkpt>
      <trkpt lat="45.39275" lon="3.37542">
        <ele>468.9</ele>
        <time>2020-09-17T14:31:42Z</time>
      </trkpt>
      <trkpt lat="45.39274" lon="3.37541">
        <ele>468.9</ele>
        <time>2020-09-17T14:31:43Z</time>
      </trkpt>
      <trkpt lat="45.39274" lon="3.3754">
        <ele>468.8</ele>
        <time>2020-09-17T14:31:44Z</time>
      </trkpt>
      <trkpt lat="45.39273" lon="3.37539">
        <ele>468.8</ele>
        <time>2020-09-17T14:31:45Z</time>
      </trkpt>
      <trkpt lat="45.39273" lon="3.37537">
        <ele>468.8</ele>
        <time>2020-09-17T14:31:46Z</time>
      </trkpt>
      <trkpt lat="45.39273" lon="3.37536">
        <ele>468.7</ele>
        <time>2020-09-17T14:31:47Z</time>
      </trkpt>
      <trkpt lat="45.39272" lon="3.37535">
        <ele>468.7</ele>
        <time>2020-09-17T14:31:48Z</time>
      </trkpt>
      <trkpt lat="45.39272" lon="3.37534">
        <ele>468.7</ele>
        <time>2020-09-17T14:31:49Z</time>
      </trkpt>
      <trkpt lat="45.39272" lon="3.37533">
        <ele>468.7</ele>
        <time>2020-09-17T14:31:50Z</time>
      </trkpt>
      <trkpt lat="45.39271" lon="3.37532">
        <ele>468.7</ele>
        <time>2020-09-17T14:31:51Z</time>
      </trkpt>
      <trkpt lat="45.39271" lon="3.37531">
        <ele>468.7</ele>
        <time>2020-09-17T14:31:52Z</time>
      </trkpt>
      <trkpt lat="45.39271" lon="3.3753">
        <ele>468.7</ele>
        <time>2020-09-17T14:31:53Z</time>
      </trkpt>
      <trkpt lat="45.39271" lon="3.37529">
        <ele>468.8</ele>
        <time>2020-09-17T14:31:54Z</time>
      </trkpt>
      <trkpt lat="45.3927" lon="3.37528">
        <ele>468.8</ele>
        <time>2020-09-17T14:31:55Z</time>
      </trkpt>
      <trkpt lat="45.3927" lon="3.37527">
        <ele>468.8</ele>
        <time>2020-09-17T14:31:56Z</time>
      </trkpt>
      <trkpt lat="45.3927" lon="3.37527">
        <ele>468.8</ele>
        <time>2020-09-17T14:31:57Z</time>
      </trkpt>
      <trkpt lat="45.3927" lon="3.37527">
        <ele>468.8</ele>
        <time>2020-09-17T14:31:58Z</time>
      </trkpt>
      <trkpt lat="45.3927" lon="3.37527">
        <ele>468.8</ele>
        <time>2020-09-17T14:31:59Z</time>
      </trkpt>
      <trkpt lat="45.3927" lon="3.37527">
        <ele>468.8</ele>
        <time>2020-09-17T14:32:00Z</time>
      </trkpt>
      <trkpt lat="45.3927" lon="3.37527">
        <ele>468.8</ele>
        <time>2020-09-17T14:32:01Z</time>
      </trkpt>
      <trkpt lat="45.3927" lon="3.37527">
        <ele>468.8</ele>
        <time>2020-09-17T14:32:02Z</time>
      </trkpt>
      <trkpt lat="45.3927" lon="3.37527">
        <ele>468.8</ele>
        <time>2020-09-17T14:32:03Z</time>
      </trkpt>
      <trkpt lat="45.3927" lon="3.37527">
        <ele>468.8</ele>
        <time>2020-09-17T14:32:04Z</time>
      </trkpt>
      <trkpt lat="45.3927" lon="3.37526">
        <ele>468.8</ele>
        <time>2020-09-17T14:32:05Z</time>
      </trkpt>
      <trkpt lat="45.3927" lon="3.37526">
        <ele>468.9</ele>
        <time>2020-09-17T14:32:06Z</time>
      </trkpt>
      <trkpt lat="45.3927" lon="3.37525">
        <ele>468.9</ele>
        <time>2020-09-17T14:32:07Z</time>
      </trkpt>
      <trkpt lat="45.3927" lon="3.37524">
        <ele>468.9</ele>
        <time>2020-09-17T14:32:08Z</time>
      </trkpt>
      <trkpt lat="45.3927" lon="3.37523">
        <ele>468.9</ele>
        <time>2020-09-17T14:32:09Z</time>
      </trkpt>
      <trkpt lat="45.3927" lon="3.37523">
        <ele>468.9</ele>
        <time>2020-09-17T14:32:10Z</time>
      </trkpt>
      <trkpt lat="45.3927" lon="3.37522">
        <ele>469</ele>
        <time>2020-09-17T14:32:11Z</time>
      </trkpt>
      <trkpt lat="45.3927" lon="3.37521">
        <ele>469</ele>
        <time>2020-09-17T14:32:12Z</time>
      </trkpt>
      <trkpt lat="45.3927" lon="3.3752">
        <ele>469</ele>
        <time>2020-09-17T14:32:13Z</time>
      </trkpt>
      <trkpt lat="45.3927" lon="3.37519">
        <ele>469</ele>
        <time>2020-09-17T14:32:14Z</time>
      </trkpt>
      <trkpt lat="45.3927" lon="3.37519">
        <ele>469.1</ele>
        <time>2020-09-17T14:32:15Z</time>
      </trkpt>
      <trkpt lat="45.39271" lon="3.37518">
        <ele>469.1</ele>
        <time>2020-09-17T14:32:16Z</time>
      </trkpt>
      <trkpt lat="45.39271" lon="3.37517">
        <ele>469.2</ele>
        <time>2020-09-17T14:32:17Z</time>
      </trkpt>
      <trkpt lat="45.39271" lon="3.37516">
        <ele>469.2</ele>
        <time>2020-09-17T14:32:18Z</time>
      </trkpt>
      <trkpt lat="45.39271" lon="3.37515">
        <ele>469.3</ele>
        <time>2020-09-17T14:32:19Z</time>
      </trkpt>
      <trkpt lat="45.39271" lon="3.37514">
        <ele>469.3</ele>
        <time>2020-09-17T14:32:20Z</time>
      </trkpt>
      <trkpt lat="45.39272" lon="3.37513">
        <ele>469.4</ele>
        <time>2020-09-17T14:32:21Z</time>
      </trkpt>
      <trkpt lat="45.39272" lon="3.37512">
        <ele>469.5</ele>
        <time>2020-09-17T14:32:22Z</time>
      </trkpt>
      <trkpt lat="45.39272" lon="3.3751">
        <ele>469.5</ele>
        <time>2020-09-17T14:32:23Z</time>
      </trkpt>
      <trkpt lat="45.39273" lon="3.37509">
        <ele>469.6</ele>
        <time>2020-09-17T14:32:24Z</time>
      </trkpt>
      <trkpt lat="45.39273" lon="3.37507">
        <ele>469.6</ele>
        <time>2020-09-17T14:32:25Z</time>
      </trkpt>
      <trkpt lat="45.39273" lon="3.37506">
        <ele>469.7</ele>
        <time>2020-09-17T14:32:26Z</time>
      </trkpt>
      <trkpt lat="45.39274" lon="3.37505">
        <ele>469.7</ele>
        <time>2020-09-17T14:32:27Z</time>
      </trkpt>
      <trkpt lat="45.39274" lon="3.37504">
        <ele>469.8</ele>
        <time>2020-09-17T14:32:28Z</time>
      </trkpt>
      <trkpt lat="45.39274" lon="3.37503">
        <ele>469.8</ele>
        <time>2020-09-17T14:32:29Z</time>
      </trkpt>
      <trkpt lat="45.39274" lon="3.37501">
        <ele>469.7</ele>
        <time>2020-09-17T14:32:30Z</time>
      </trkpt>
      <trkpt lat="45.39274" lon="3.375">
        <ele>469.7</ele>
        <time>2020-09-17T14:32:31Z</time>
      </trkpt>
      <trkpt lat="45.39274" lon="3.37499">
        <ele>469.4</ele>
        <time>2020-09-17T14:32:32Z</time>
      </trkpt>
      <trkpt lat="45.39273" lon="3.37497">
        <ele>469.1</ele>
        <time>2020-09-17T14:32:33Z</time>
      </trkpt>
      <trkpt lat="45.39272" lon="3.37496">
        <ele>468.8</ele>
        <time>2020-09-17T14:32:34Z</time>
      </trkpt>
      <trkpt lat="45.39272" lon="3.37495">
        <ele>468.6</ele>
        <time>2020-09-17T14:32:35Z</time>
      </trkpt>
      <trkpt lat="45.39271" lon="3.37494">
        <ele>468.4</ele>
        <time>2020-09-17T14:32:36Z</time>
      </trkpt>
      <trkpt lat="45.3927" lon="3.37493">
        <ele>468.2</ele>
        <time>2020-09-17T14:32:37Z</time>
      </trkpt>
      <trkpt lat="45.3927" lon="3.37492">
        <ele>468</ele>
        <time>2020-09-17T14:32:38Z</time>
      </trkpt>
      <trkpt lat="45.39269" lon="3.3749">
        <ele>467.8</ele>
        <time>2020-09-17T14:32:39Z</time>
      </trkpt>
      <trkpt lat="45.39268" lon="3.37489">
        <ele>467.7</ele>
        <time>2020-09-17T14:32:40Z</time>
      </trkpt>
      <trkpt lat="45.39268" lon="3.37488">
        <ele>467.6</ele>
        <time>2020-09-17T14:32:41Z</time>
      </trkpt>
      <trkpt lat="45.39267" lon="3.37488">
        <ele>467.5</ele>
        <time>2020-09-17T14:32:42Z</time>
      </trkpt>
      <trkpt lat="45.39266" lon="3.37487">
        <ele>467.4</ele>
        <time>2020-09-17T14:32:43Z</time>
      </trkpt>
      <trkpt lat="45.39265" lon="3.37486">
        <ele>467.3</ele>
        <time>2020-09-17T14:32:44Z</time>
      </trkpt>
      <trkpt lat="45.39265" lon="3.37485">
        <ele>467.3</ele>
        <time>2020-09-17T14:32:45Z</time>
      </trkpt>
      <trkpt lat="45.39264" lon="3.37484">
        <ele>467.3</ele>
        <time>2020-09-17T14:32:46Z</time>
      </trkpt>
      <trkpt lat="45.39263" lon="3.37483">
        <ele>467.3</ele>
        <time>2020-09-17T14:32:47Z</time>
      </trkpt>
      <trkpt lat="45.39263" lon="3.37483">
        <ele>467.3</ele>
        <time>2020-09-17T14:32:48Z</time>
      </trkpt>
      <trkpt lat="45.39262" lon="3.37483">
        <ele>467.3</ele>
        <time>2020-09-17T14:32:49Z</time>
      </trkpt>
      <trkpt lat="45.39261" lon="3.37482">
        <ele>467.4</ele>
        <time>2020-09-17T14:32:50Z</time>
      </trkpt>
      <trkpt lat="45.39261" lon="3.37483">
        <ele>467.5</ele>
        <time>2020-09-17T14:32:51Z</time>
      </trkpt>
      <trkpt lat="45.3926" lon="3.37483">
        <ele>467.6</ele>
        <time>2020-09-17T14:32:52Z</time>
      </trkpt>
      <trkpt lat="45.39259" lon="3.37483">
        <ele>467.7</ele>
        <time>2020-09-17T14:32:53Z</time>
      </trkpt>
      <trkpt lat="45.39258" lon="3.37483">
        <ele>467.8</ele>
        <time>2020-09-17T14:32:54Z</time>
      </trkpt>
      <trkpt lat="45.39257" lon="3.37484">
        <ele>467.9</ele>
        <time>2020-09-17T14:32:55Z</time>
      </trkpt>
      <trkpt lat="45.39257" lon="3.37484">
        <ele>468</ele>
        <time>2020-09-17T14:32:56Z</time>
      </trkpt>
      <trkpt lat="45.39256" lon="3.37485">
        <ele>468</ele>
        <time>2020-09-17T14:32:57Z</time>
      </trkpt>
      <trkpt lat="45.39255" lon="3.37485">
        <ele>468.1</ele>
        <time>2020-09-17T14:32:58Z</time>
      </trkpt>
      <trkpt lat="45.39254" lon="3.37486">
        <ele>468.2</ele>
        <time>2020-09-17T14:32:59Z</time>
      </trkpt>
      <trkpt lat="45.39254" lon="3.37486">
        <ele>468.2</ele>
        <time>2020-09-17T14:33:00Z</time>
      </trkpt>
      <trkpt lat="45.39253" lon="3.37487">
        <ele>468.3</ele>
        <time>2020-09-17T14:33:01Z</time>
      </trkpt>
      <trkpt lat="45.39252" lon="3.37487">
        <ele>468.4</ele>
        <time>2020-09-17T14:33:02Z</time>
      </trkpt>
      <trkpt lat="45.39251" lon="3.37488">
        <ele>468.4</ele>
        <time>2020-09-17T14:33:03Z</time>
      </trkpt>
      <trkpt lat="45.3925" lon="3.37488">
        <ele>468.4</ele>
        <time>2020-09-17T14:33:04Z</time>
      </trkpt>
      <trkpt lat="45.39249" lon="3.37488">
        <ele>468.2</ele>
        <time>2020-09-17T14:33:05Z</time>
      </trkpt>
      <trkpt lat="45.39248" lon="3.37487">
        <ele>468</ele>
        <time>2020-09-17T14:33:06Z</time>
      </trkpt>
      <trkpt lat="45.39248" lon="3.37487">
        <ele>467.9</ele>
        <time>2020-09-17T14:33:07Z</time>
      </trkpt>
      <trkpt lat="45.39247" lon="3.37487">
        <ele>467.7</ele>
        <time>2020-09-17T14:33:08Z</time>
      </trkpt>
      <trkpt lat="45.39246" lon="3.37486">
        <ele>467.5</ele>
        <time>2020-09-17T14:33:09Z</time>
      </trkpt>
      <trkpt lat="45.39245" lon="3.37486">
        <ele>467.3</ele>
        <time>2020-09-17T14:33:10Z</time>
      </trkpt>
      <trkpt lat="45.39244" lon="3.37486">
        <ele>467.2</ele>
        <time>2020-09-17T14:33:11Z</time>
      </trkpt>
      <trkpt lat="45.39244" lon="3.37486">
        <ele>467</ele>
        <time>2020-09-17T14:33:12Z</time>
      </trkpt>
      <trkpt lat="45.39243" lon="3.37487">
        <ele>466.8</ele>
        <time>2020-09-17T14:33:13Z</time>
      </trkpt>
      <trkpt lat="45.39243" lon="3.37487">
        <ele>466.6</ele>
        <time>2020-09-17T14:33:14Z</time>
      </trkpt>
      <trkpt lat="45.39242" lon="3.37488">
        <ele>466.4</ele>
        <time>2020-09-17T14:33:15Z</time>
      </trkpt>
      <trkpt lat="45.39242" lon="3.37489">
        <ele>466.2</ele>
        <time>2020-09-17T14:33:16Z</time>
      </trkpt>
      <trkpt lat="45.39241" lon="3.37489">
        <ele>466.1</ele>
        <time>2020-09-17T14:33:17Z</time>
      </trkpt>
      <trkpt lat="45.39241" lon="3.37489">
        <ele>466</ele>
        <time>2020-09-17T14:33:18Z</time>
      </trkpt>
      <trkpt lat="45.39241" lon="3.37489">
        <ele>466</ele>
        <time>2020-09-17T14:33:19Z</time>
      </trkpt>
      <trkpt lat="45.39241" lon="3.37489">
        <ele>466</ele>
        <time>2020-09-17T14:33:20Z</time>
      </trkpt>
      <trkpt lat="45.39241" lon="3.37489">
        <ele>466</ele>
        <time>2020-09-17T14:33:21Z</time>
      </trkpt>
      <trkpt lat="45.39241" lon="3.37489">
        <ele>466</ele>
        <time>2020-09-17T14:33:22Z</time>
      </trkpt>
      <trkpt lat="45.39241" lon="3.37489">
        <ele>466</ele>
        <time>2020-09-17T14:33:23Z</time>
      </trkpt>
      <trkpt lat="45.39241" lon="3.37489">
        <ele>465.9</ele>
        <time>2020-09-17T14:33:24Z</time>
      </trkpt>
      <trkpt lat="45.39241" lon="3.37489">
        <ele>465.9</ele>
        <time>2020-09-17T14:33:25Z</time>
      </trkpt>
      <trkpt lat="45.3924" lon="3.37489">
        <ele>465.9</ele>
        <time>2020-09-17T14:33:26Z</time>
      </trkpt>
      <trkpt lat="45.3924" lon="3.37488">
        <ele>465.9</ele>
        <time>2020-09-17T14:33:27Z</time>
      </trkpt>
      <trkpt lat="45.3924" lon="3.37487">
        <ele>466</ele>
        <time>2020-09-17T14:33:28Z</time>
      </trkpt>
      <trkpt lat="45.3924" lon="3.37487">
        <ele>466</ele>
        <time>2020-09-17T14:33:29Z</time>
      </trkpt>
      <trkpt lat="45.3924" lon="3.37487">
        <ele>465.9</ele>
        <time>2020-09-17T14:33:30Z</time>
      </trkpt>
      <trkpt lat="45.3924" lon="3.37487">
        <ele>466</ele>
        <time>2020-09-17T14:33:31Z</time>
      </trkpt>
      <trkpt lat="45.39239" lon="3.37486">
        <ele>465.9</ele>
        <time>2020-09-17T14:33:32Z</time>
      </trkpt>
      <trkpt lat="45.39239" lon="3.37486">
        <ele>466</ele>
        <time>2020-09-17T14:33:33Z</time>
      </trkpt>
      <trkpt lat="45.39238" lon="3.37485">
        <ele>466</ele>
        <time>2020-09-17T14:33:34Z</time>
      </trkpt>
      <trkpt lat="45.39238" lon="3.37484">
        <ele>466</ele>
        <time>2020-09-17T14:33:35Z</time>
      </trkpt>
      <trkpt lat="45.39238" lon="3.37484">
        <ele>466</ele>
        <time>2020-09-17T14:33:36Z</time>
      </trkpt>
      <trkpt lat="45.39237" lon="3.37484">
        <ele>466</ele>
        <time>2020-09-17T14:33:37Z</time>
      </trkpt>
      <trkpt lat="45.39237" lon="3.37483">
        <ele>465.9</ele>
        <time>2020-09-17T14:33:38Z</time>
      </trkpt>
      <trkpt lat="45.39236" lon="3.37483">
        <ele>465.9</ele>
        <time>2020-09-17T14:33:39Z</time>
      </trkpt>
      <trkpt lat="45.39235" lon="3.37482">
        <ele>465.9</ele>
        <time>2020-09-17T14:33:40Z</time>
      </trkpt>
      <trkpt lat="45.39234" lon="3.37481">
        <ele>465.9</ele>
        <time>2020-09-17T14:33:41Z</time>
      </trkpt>
      <trkpt lat="45.39234" lon="3.3748">
        <ele>466</ele>
        <time>2020-09-17T14:33:42Z</time>
      </trkpt>
      <trkpt lat="45.39233" lon="3.3748">
        <ele>466</ele>
        <time>2020-09-17T14:33:43Z</time>
      </trkpt>
      <trkpt lat="45.39232" lon="3.37479">
        <ele>466</ele>
        <time>2020-09-17T14:33:44Z</time>
      </trkpt>
      <trkpt lat="45.39231" lon="3.37479">
        <ele>466</ele>
        <time>2020-09-17T14:33:45Z</time>
      </trkpt>
      <trkpt lat="45.3923" lon="3.37478">
        <ele>466.1</ele>
        <time>2020-09-17T14:33:46Z</time>
      </trkpt>
      <trkpt lat="45.3923" lon="3.37478">
        <ele>466.1</ele>
        <time>2020-09-17T14:33:47Z</time>
      </trkpt>
      <trkpt lat="45.39229" lon="3.37477">
        <ele>466.1</ele>
        <time>2020-09-17T14:33:48Z</time>
      </trkpt>
      <trkpt lat="45.39228" lon="3.37477">
        <ele>466.1</ele>
        <time>2020-09-17T14:33:49Z</time>
      </trkpt>
      <trkpt lat="45.39227" lon="3.37477">
        <ele>466</ele>
        <time>2020-09-17T14:33:50Z</time>
      </trkpt>
      <trkpt lat="45.39227" lon="3.37476">
        <ele>466.1</ele>
        <time>2020-09-17T14:33:51Z</time>
      </trkpt>
      <trkpt lat="45.39226" lon="3.37476">
        <ele>466.2</ele>
        <time>2020-09-17T14:33:52Z</time>
      </trkpt>
      <trkpt lat="45.39225" lon="3.37475">
        <ele>466.4</ele>
        <time>2020-09-17T14:33:53Z</time>
      </trkpt>
      <trkpt lat="45.39224" lon="3.37474">
        <ele>466.6</ele>
        <time>2020-09-17T14:33:54Z</time>
      </trkpt>
      <trkpt lat="45.39223" lon="3.37473">
        <ele>466.9</ele>
        <time>2020-09-17T14:33:55Z</time>
      </trkpt>
      <trkpt lat="45.39223" lon="3.37472">
        <ele>467.1</ele>
        <time>2020-09-17T14:33:56Z</time>
      </trkpt>
      <trkpt lat="45.39222" lon="3.37471">
        <ele>467.3</ele>
        <time>2020-09-17T14:33:57Z</time>
      </trkpt>
      <trkpt lat="45.39222" lon="3.3747">
        <ele>467.3</ele>
        <time>2020-09-17T14:33:58Z</time>
      </trkpt>
      <trkpt lat="45.39222" lon="3.3747">
        <ele>467.4</ele>
        <time>2020-09-17T14:33:59Z</time>
      </trkpt>
      <trkpt lat="45.39222" lon="3.37469">
        <ele>467.6</ele>
        <time>2020-09-17T14:34:00Z</time>
      </trkpt>
      <trkpt lat="45.39222" lon="3.37469">
        <ele>467.7</ele>
        <time>2020-09-17T14:34:01Z</time>
      </trkpt>
      <trkpt lat="45.39222" lon="3.37468">
        <ele>467.7</ele>
        <time>2020-09-17T14:34:02Z</time>
      </trkpt>
      <trkpt lat="45.39222" lon="3.37467">
        <ele>467.8</ele>
        <time>2020-09-17T14:34:03Z</time>
      </trkpt>
      <trkpt lat="45.39222" lon="3.37467">
        <ele>467.7</ele>
        <time>2020-09-17T14:34:04Z</time>
      </trkpt>
      <trkpt lat="45.39222" lon="3.37467">
        <ele>467.8</ele>
        <time>2020-09-17T14:34:05Z</time>
      </trkpt>
      <trkpt lat="45.39221" lon="3.37466">
        <ele>467.7</ele>
        <time>2020-09-17T14:34:06Z</time>
      </trkpt>
      <trkpt lat="45.39221" lon="3.37466">
        <ele>467.8</ele>
        <time>2020-09-17T14:34:07Z</time>
      </trkpt>
      <trkpt lat="45.39221" lon="3.37465">
        <ele>467.8</ele>
        <time>2020-09-17T14:34:08Z</time>
      </trkpt>
      <trkpt lat="45.39221" lon="3.37464">
        <ele>467.9</ele>
        <time>2020-09-17T14:34:09Z</time>
      </trkpt>
      <trkpt lat="45.39221" lon="3.37464">
        <ele>468</ele>
        <time>2020-09-17T14:34:10Z</time>
      </trkpt>
      <trkpt lat="45.39221" lon="3.37463">
        <ele>468.2</ele>
        <time>2020-09-17T14:34:11Z</time>
      </trkpt>
      <trkpt lat="45.39221" lon="3.37462">
        <ele>468.3</ele>
        <time>2020-09-17T14:34:12Z</time>
      </trkpt>
      <trkpt lat="45.3922" lon="3.37461">
        <ele>468.4</ele>
        <time>2020-09-17T14:34:13Z</time>
      </trkpt>
      <trkpt lat="45.3922" lon="3.3746">
        <ele>468.4</ele>
        <time>2020-09-17T14:34:14Z</time>
      </trkpt>
      <trkpt lat="45.3922" lon="3.37458">
        <ele>468.5</ele>
        <time>2020-09-17T14:34:15Z</time>
      </trkpt>
      <trkpt lat="45.39219" lon="3.37457">
        <ele>468.5</ele>
        <time>2020-09-17T14:34:16Z</time>
      </trkpt>
      <trkpt lat="45.39219" lon="3.37456">
        <ele>468.5</ele>
        <time>2020-09-17T14:34:17Z</time>
      </trkpt>
      <trkpt lat="45.39218" lon="3.37455">
        <ele>468.5</ele>
        <time>2020-09-17T14:34:18Z</time>
      </trkpt>
      <trkpt lat="45.39218" lon="3.37454">
        <ele>468.4</ele>
        <time>2020-09-17T14:34:19Z</time>
      </trkpt>
      <trkpt lat="45.39217" lon="3.37454">
        <ele>468.2</ele>
        <time>2020-09-17T14:34:20Z</time>
      </trkpt>
      <trkpt lat="45.39216" lon="3.37453">
        <ele>468.1</ele>
        <time>2020-09-17T14:34:21Z</time>
      </trkpt>
      <trkpt lat="45.39216" lon="3.37452">
        <ele>468</ele>
        <time>2020-09-17T14:34:22Z</time>
      </trkpt>
      <trkpt lat="45.39215" lon="3.37451">
        <ele>468</ele>
        <time>2020-09-17T14:34:23Z</time>
      </trkpt>
      <trkpt lat="45.39215" lon="3.3745">
        <ele>468</ele>
        <time>2020-09-17T14:34:24Z</time>
      </trkpt>
      <trkpt lat="45.39215" lon="3.37449">
        <ele>468</ele>
        <time>2020-09-17T14:34:25Z</time>
      </trkpt>
      <trkpt lat="45.39214" lon="3.37448">
        <ele>468</ele>
        <time>2020-09-17T14:34:26Z</time>
      </trkpt>
      <trkpt lat="45.39214" lon="3.37447">
        <ele>468.1</ele>
        <time>2020-09-17T14:34:27Z</time>
      </trkpt>
      <trkpt lat="45.39214" lon="3.37446">
        <ele>468.2</ele>
        <time>2020-09-17T14:34:28Z</time>
      </trkpt>
      <trkpt lat="45.39214" lon="3.37445">
        <ele>468.2</ele>
        <time>2020-09-17T14:34:29Z</time>
      </trkpt>
      <trkpt lat="45.39214" lon="3.37444">
        <ele>468.2</ele>
        <time>2020-09-17T14:34:30Z</time>
      </trkpt>
      <trkpt lat="45.39214" lon="3.37443">
        <ele>468</ele>
        <time>2020-09-17T14:34:31Z</time>
      </trkpt>
      <trkpt lat="45.39214" lon="3.37442">
        <ele>467.9</ele>
        <time>2020-09-17T14:34:32Z</time>
      </trkpt>
      <trkpt lat="45.39213" lon="3.3744">
        <ele>467.7</ele>
        <time>2020-09-17T14:34:33Z</time>
      </trkpt>
      <trkpt lat="45.39213" lon="3.37439">
        <ele>467.5</ele>
        <time>2020-09-17T14:34:34Z</time>
      </trkpt>
      <trkpt lat="45.39213" lon="3.37438">
        <ele>467.3</ele>
        <time>2020-09-17T14:34:35Z</time>
      </trkpt>
      <trkpt lat="45.39213" lon="3.37437">
        <ele>467</ele>
        <time>2020-09-17T14:34:36Z</time>
      </trkpt>
      <trkpt lat="45.39212" lon="3.37436">
        <ele>466.7</ele>
        <time>2020-09-17T14:34:37Z</time>
      </trkpt>
      <trkpt lat="45.39212" lon="3.37434">
        <ele>466.4</ele>
        <time>2020-09-17T14:34:38Z</time>
      </trkpt>
      <trkpt lat="45.39212" lon="3.37433">
        <ele>466.2</ele>
        <time>2020-09-17T14:34:39Z</time>
      </trkpt>
      <trkpt lat="45.39212" lon="3.37432">
        <ele>466.1</ele>
        <time>2020-09-17T14:34:40Z</time>
      </trkpt>
      <trkpt lat="45.39212" lon="3.3743">
        <ele>465.8</ele>
        <time>2020-09-17T14:34:41Z</time>
      </trkpt>
      <trkpt lat="45.39212" lon="3.37429">
        <ele>465.6</ele>
        <time>2020-09-17T14:34:42Z</time>
      </trkpt>
      <trkpt lat="45.39211" lon="3.37428">
        <ele>465.3</ele>
        <time>2020-09-17T14:34:43Z</time>
      </trkpt>
      <trkpt lat="45.39211" lon="3.37426">
        <ele>465.1</ele>
        <time>2020-09-17T14:34:44Z</time>
      </trkpt>
      <trkpt lat="45.39211" lon="3.37425">
        <ele>464.9</ele>
        <time>2020-09-17T14:34:45Z</time>
      </trkpt>
      <trkpt lat="45.39211" lon="3.37423">
        <ele>464.7</ele>
        <time>2020-09-17T14:34:46Z</time>
      </trkpt>
      <trkpt lat="45.39211" lon="3.37422">
        <ele>464.5</ele>
        <time>2020-09-17T14:34:47Z</time>
      </trkpt>
      <trkpt lat="45.39211" lon="3.37421">
        <ele>464.3</ele>
        <time>2020-09-17T14:34:48Z</time>
      </trkpt>
      <trkpt lat="45.39211" lon="3.37419">
        <ele>464.1</ele>
        <time>2020-09-17T14:34:49Z</time>
      </trkpt>
      <trkpt lat="45.3921" lon="3.37418">
        <ele>463.9</ele>
        <time>2020-09-17T14:34:50Z</time>
      </trkpt>
      <trkpt lat="45.3921" lon="3.37417">
        <ele>463.8</ele>
        <time>2020-09-17T14:34:51Z</time>
      </trkpt>
      <trkpt lat="45.39211" lon="3.37416">
        <ele>463.7</ele>
        <time>2020-09-17T14:34:52Z</time>
      </trkpt>
      <trkpt lat="45.3921" lon="3.37416">
        <ele>463.6</ele>
        <time>2020-09-17T14:34:53Z</time>
      </trkpt>
      <trkpt lat="45.3921" lon="3.37415">
        <ele>463.6</ele>
        <time>2020-09-17T14:34:54Z</time>
      </trkpt>
      <trkpt lat="45.3921" lon="3.37415">
        <ele>463.6</ele>
        <time>2020-09-17T14:34:55Z</time>
      </trkpt>
      <trkpt lat="45.3921" lon="3.37416">
        <ele>463.6</ele>
        <time>2020-09-17T14:34:56Z</time>
      </trkpt>
      <trkpt lat="45.3921" lon="3.37416">
        <ele>463.6</ele>
        <time>2020-09-17T14:34:57Z</time>
      </trkpt>
      <trkpt lat="45.3921" lon="3.37416">
        <ele>463.5</ele>
        <time>2020-09-17T14:34:58Z</time>
      </trkpt>
      <trkpt lat="45.3921" lon="3.37415">
        <ele>463.4</ele>
        <time>2020-09-17T14:34:59Z</time>
      </trkpt>
      <trkpt lat="45.3921" lon="3.37414">
        <ele>463.3</ele>
        <time>2020-09-17T14:35:00Z</time>
      </trkpt>
      <trkpt lat="45.3921" lon="3.37413">
        <ele>463.2</ele>
        <time>2020-09-17T14:35:01Z</time>
      </trkpt>
      <trkpt lat="45.3921" lon="3.37412">
        <ele>463.1</ele>
        <time>2020-09-17T14:35:02Z</time>
      </trkpt>
      <trkpt lat="45.39211" lon="3.3741">
        <ele>463</ele>
        <time>2020-09-17T14:35:03Z</time>
      </trkpt>
      <trkpt lat="45.39211" lon="3.37409">
        <ele>463</ele>
        <time>2020-09-17T14:35:04Z</time>
      </trkpt>
      <trkpt lat="45.39212" lon="3.37408">
        <ele>463</ele>
        <time>2020-09-17T14:35:05Z</time>
      </trkpt>
      <trkpt lat="45.39212" lon="3.37407">
        <ele>463</ele>
        <time>2020-09-17T14:35:06Z</time>
      </trkpt>
      <trkpt lat="45.39213" lon="3.37406">
        <ele>463</ele>
        <time>2020-09-17T14:35:07Z</time>
      </trkpt>
      <trkpt lat="45.39214" lon="3.37404">
        <ele>463</ele>
        <time>2020-09-17T14:35:08Z</time>
      </trkpt>
      <trkpt lat="45.39214" lon="3.37403">
        <ele>463</ele>
        <time>2020-09-17T14:35:09Z</time>
      </trkpt>
      <trkpt lat="45.39215" lon="3.37402">
        <ele>463.1</ele>
        <time>2020-09-17T14:35:10Z</time>
      </trkpt>
      <trkpt lat="45.39215" lon="3.37401">
        <ele>463</ele>
        <time>2020-09-17T14:35:11Z</time>
      </trkpt>
      <trkpt lat="45.39216" lon="3.374">
        <ele>463</ele>
        <time>2020-09-17T14:35:12Z</time>
      </trkpt>
      <trkpt lat="45.39216" lon="3.37399">
        <ele>462.7</ele>
        <time>2020-09-17T14:35:13Z</time>
      </trkpt>
      <trkpt lat="45.39216" lon="3.37398">
        <ele>462.5</ele>
        <time>2020-09-17T14:35:14Z</time>
      </trkpt>
      <trkpt lat="45.39216" lon="3.37397">
        <ele>462.3</ele>
        <time>2020-09-17T14:35:15Z</time>
      </trkpt>
      <trkpt lat="45.39215" lon="3.37395">
        <ele>462</ele>
        <time>2020-09-17T14:35:16Z</time>
      </trkpt>
      <trkpt lat="45.39215" lon="3.37394">
        <ele>461.8</ele>
        <time>2020-09-17T14:35:17Z</time>
      </trkpt>
      <trkpt lat="45.39215" lon="3.37392">
        <ele>461.4</ele>
        <time>2020-09-17T14:35:18Z</time>
      </trkpt>
      <trkpt lat="45.39215" lon="3.37391">
        <ele>461.2</ele>
        <time>2020-09-17T14:35:19Z</time>
      </trkpt>
      <trkpt lat="45.39214" lon="3.37389">
        <ele>460.9</ele>
        <time>2020-09-17T14:35:20Z</time>
      </trkpt>
      <trkpt lat="45.39214" lon="3.37388">
        <ele>460.8</ele>
        <time>2020-09-17T14:35:21Z</time>
      </trkpt>
      <trkpt lat="45.39213" lon="3.37386">
        <ele>460.7</ele>
        <time>2020-09-17T14:35:22Z</time>
      </trkpt>
      <trkpt lat="45.39213" lon="3.37385">
        <ele>460.7</ele>
        <time>2020-09-17T14:35:23Z</time>
      </trkpt>
      <trkpt lat="45.39213" lon="3.37384">
        <ele>460.7</ele>
        <time>2020-09-17T14:35:24Z</time>
      </trkpt>
      <trkpt lat="45.39212" lon="3.37382">
        <ele>460.7</ele>
        <time>2020-09-17T14:35:25Z</time>
      </trkpt>
      <trkpt lat="45.39212" lon="3.37381">
        <ele>460.6</ele>
        <time>2020-09-17T14:35:26Z</time>
      </trkpt>
      <trkpt lat="45.39211" lon="3.37379">
        <ele>460.6</ele>
        <time>2020-09-17T14:35:27Z</time>
      </trkpt>
      <trkpt lat="45.39211" lon="3.37378">
        <ele>460.6</ele>
        <time>2020-09-17T14:35:28Z</time>
      </trkpt>
      <trkpt lat="45.3921" lon="3.37377">
        <ele>460.6</ele>
        <time>2020-09-17T14:35:29Z</time>
      </trkpt>
      <trkpt lat="45.3921" lon="3.37375">
        <ele>460.6</ele>
        <time>2020-09-17T14:35:30Z</time>
      </trkpt>
      <trkpt lat="45.3921" lon="3.37374">
        <ele>460.6</ele>
        <time>2020-09-17T14:35:31Z</time>
      </trkpt>
      <trkpt lat="45.3921" lon="3.37373">
        <ele>460.6</ele>
        <time>2020-09-17T14:35:32Z</time>
      </trkpt>
      <trkpt lat="45.39209" lon="3.37372">
        <ele>460.7</ele>
        <time>2020-09-17T14:35:33Z</time>
      </trkpt>
      <trkpt lat="45.39209" lon="3.37371">
        <ele>460.7</ele>
        <time>2020-09-17T14:35:34Z</time>
      </trkpt>
      <trkpt lat="45.39208" lon="3.37369">
        <ele>460.7</ele>
        <time>2020-09-17T14:35:35Z</time>
      </trkpt>
      <trkpt lat="45.39208" lon="3.37368">
        <ele>460.7</ele>
        <time>2020-09-17T14:35:36Z</time>
      </trkpt>
      <trkpt lat="45.39207" lon="3.37367">
        <ele>460.8</ele>
        <time>2020-09-17T14:35:37Z</time>
      </trkpt>
      <trkpt lat="45.39207" lon="3.37365">
        <ele>460.8</ele>
        <time>2020-09-17T14:35:38Z</time>
      </trkpt>
      <trkpt lat="45.39207" lon="3.37364">
        <ele>460.9</ele>
        <time>2020-09-17T14:35:39Z</time>
      </trkpt>
      <trkpt lat="45.39206" lon="3.37363">
        <ele>460.9</ele>
        <time>2020-09-17T14:35:40Z</time>
      </trkpt>
      <trkpt lat="45.39206" lon="3.37361">
        <ele>461</ele>
        <time>2020-09-17T14:35:41Z</time>
      </trkpt>
      <trkpt lat="45.39206" lon="3.3736">
        <ele>461</ele>
        <time>2020-09-17T14:35:42Z</time>
      </trkpt>
      <trkpt lat="45.39206" lon="3.37358">
        <ele>461.1</ele>
        <time>2020-09-17T14:35:43Z</time>
      </trkpt>
      <trkpt lat="45.39205" lon="3.37357">
        <ele>461.2</ele>
        <time>2020-09-17T14:35:44Z</time>
      </trkpt>
      <trkpt lat="45.39205" lon="3.37356">
        <ele>461.2</ele>
        <time>2020-09-17T14:35:45Z</time>
      </trkpt>
      <trkpt lat="45.39205" lon="3.37355">
        <ele>461.3</ele>
        <time>2020-09-17T14:35:46Z</time>
      </trkpt>
      <trkpt lat="45.39205" lon="3.37353">
        <ele>461.3</ele>
        <time>2020-09-17T14:35:47Z</time>
      </trkpt>
      <trkpt lat="45.39205" lon="3.37352">
        <ele>461.4</ele>
        <time>2020-09-17T14:35:48Z</time>
      </trkpt>
      <trkpt lat="45.39204" lon="3.37351">
        <ele>461.5</ele>
        <time>2020-09-17T14:35:49Z</time>
      </trkpt>
      <trkpt lat="45.39204" lon="3.3735">
        <ele>461.5</ele>
        <time>2020-09-17T14:35:50Z</time>
      </trkpt>
      <trkpt lat="45.39204" lon="3.3735">
        <ele>461.5</ele>
        <time>2020-09-17T14:35:51Z</time>
      </trkpt>
      <trkpt lat="45.39204" lon="3.37349">
        <ele>461.6</ele>
        <time>2020-09-17T14:35:52Z</time>
      </trkpt>
      <trkpt lat="45.39204" lon="3.37349">
        <ele>461.6</ele>
        <time>2020-09-17T14:35:53Z</time>
      </trkpt>
      <trkpt lat="45.39204" lon="3.37349">
        <ele>461.6</ele>
        <time>2020-09-17T14:35:54Z</time>
      </trkpt>
      <trkpt lat="45.39203" lon="3.37348">
        <ele>461.6</ele>
        <time>2020-09-17T14:35:55Z</time>
      </trkpt>
      <trkpt lat="45.39203" lon="3.37347">
        <ele>461.7</ele>
        <time>2020-09-17T14:35:56Z</time>
      </trkpt>
      <trkpt lat="45.39203" lon="3.37346">
        <ele>461.8</ele>
        <time>2020-09-17T14:35:57Z</time>
      </trkpt>
      <trkpt lat="45.39203" lon="3.37344">
        <ele>461.9</ele>
        <time>2020-09-17T14:35:58Z</time>
      </trkpt>
      <trkpt lat="45.39202" lon="3.37343">
        <ele>462</ele>
        <time>2020-09-17T14:35:59Z</time>
      </trkpt>
      <trkpt lat="45.39202" lon="3.37342">
        <ele>462.2</ele>
        <time>2020-09-17T14:36:00Z</time>
      </trkpt>
      <trkpt lat="45.39201" lon="3.37341">
        <ele>462.3</ele>
        <time>2020-09-17T14:36:01Z</time>
      </trkpt>
      <trkpt lat="45.39201" lon="3.37339">
        <ele>462.5</ele>
        <time>2020-09-17T14:36:02Z</time>
      </trkpt>
      <trkpt lat="45.39201" lon="3.37338">
        <ele>462.6</ele>
        <time>2020-09-17T14:36:03Z</time>
      </trkpt>
      <trkpt lat="45.392" lon="3.37337">
        <ele>462.7</ele>
        <time>2020-09-17T14:36:04Z</time>
      </trkpt>
      <trkpt lat="45.392" lon="3.37336">
        <ele>462.9</ele>
        <time>2020-09-17T14:36:05Z</time>
      </trkpt>
      <trkpt lat="45.39199" lon="3.37335">
        <ele>463.1</ele>
        <time>2020-09-17T14:36:06Z</time>
      </trkpt>
      <trkpt lat="45.39199" lon="3.37334">
        <ele>463.1</ele>
        <time>2020-09-17T14:36:07Z</time>
      </trkpt>
      <trkpt lat="45.39199" lon="3.37334">
        <ele>463.2</ele>
        <time>2020-09-17T14:36:08Z</time>
      </trkpt>
      <trkpt lat="45.39198" lon="3.37334">
        <ele>463.2</ele>
        <time>2020-09-17T14:36:09Z</time>
      </trkpt>
      <trkpt lat="45.39198" lon="3.37334">
        <ele>463.3</ele>
        <time>2020-09-17T14:36:10Z</time>
      </trkpt>
      <trkpt lat="45.39198" lon="3.37334">
        <ele>463.3</ele>
        <time>2020-09-17T14:36:11Z</time>
      </trkpt>
      <trkpt lat="45.39198" lon="3.37334">
        <ele>463.4</ele>
        <time>2020-09-17T14:36:12Z</time>
      </trkpt>
      <trkpt lat="45.39197" lon="3.37333">
        <ele>463.5</ele>
        <time>2020-09-17T14:36:13Z</time>
      </trkpt>
      <trkpt lat="45.39197" lon="3.37333">
        <ele>463.5</ele>
        <time>2020-09-17T14:36:14Z</time>
      </trkpt>
      <trkpt lat="45.39197" lon="3.37332">
        <ele>463.6</ele>
        <time>2020-09-17T14:36:15Z</time>
      </trkpt>
      <trkpt lat="45.39197" lon="3.37332">
        <ele>463.7</ele>
        <time>2020-09-17T14:36:16Z</time>
      </trkpt>
      <trkpt lat="45.39196" lon="3.37331">
        <ele>463.8</ele>
        <time>2020-09-17T14:36:17Z</time>
      </trkpt>
      <trkpt lat="45.39195" lon="3.3733">
        <ele>464</ele>
        <time>2020-09-17T14:36:18Z</time>
      </trkpt>
      <trkpt lat="45.39195" lon="3.37329">
        <ele>464.1</ele>
        <time>2020-09-17T14:36:19Z</time>
      </trkpt>
      <trkpt lat="45.39194" lon="3.37328">
        <ele>464</ele>
        <time>2020-09-17T14:36:20Z</time>
      </trkpt>
      <trkpt lat="45.39193" lon="3.37327">
        <ele>463.9</ele>
        <time>2020-09-17T14:36:21Z</time>
      </trkpt>
      <trkpt lat="45.39192" lon="3.37327">
        <ele>463.7</ele>
        <time>2020-09-17T14:36:22Z</time>
      </trkpt>
      <trkpt lat="45.39192" lon="3.37326">
        <ele>463.6</ele>
        <time>2020-09-17T14:36:23Z</time>
      </trkpt>
      <trkpt lat="45.39191" lon="3.37325">
        <ele>463.6</ele>
        <time>2020-09-17T14:36:24Z</time>
      </trkpt>
      <trkpt lat="45.39191" lon="3.37324">
        <ele>463.5</ele>
        <time>2020-09-17T14:36:25Z</time>
      </trkpt>
      <trkpt lat="45.39191" lon="3.37323">
        <ele>463.5</ele>
        <time>2020-09-17T14:36:26Z</time>
      </trkpt>
      <trkpt lat="45.39191" lon="3.37322">
        <ele>463.5</ele>
        <time>2020-09-17T14:36:27Z</time>
      </trkpt>
      <trkpt lat="45.39191" lon="3.37321">
        <ele>463.6</ele>
        <time>2020-09-17T14:36:28Z</time>
      </trkpt>
      <trkpt lat="45.39191" lon="3.3732">
        <ele>463.6</ele>
        <time>2020-09-17T14:36:29Z</time>
      </trkpt>
      <trkpt lat="45.39191" lon="3.37318">
        <ele>463.7</ele>
        <time>2020-09-17T14:36:30Z</time>
      </trkpt>
      <trkpt lat="45.39191" lon="3.37317">
        <ele>463.8</ele>
        <time>2020-09-17T14:36:31Z</time>
      </trkpt>
      <trkpt lat="45.39191" lon="3.37316">
        <ele>463.8</ele>
        <time>2020-09-17T14:36:32Z</time>
      </trkpt>
      <trkpt lat="45.39191" lon="3.37315">
        <ele>463.9</ele>
        <time>2020-09-17T14:36:33Z</time>
      </trkpt>
      <trkpt lat="45.39191" lon="3.37314">
        <ele>464</ele>
        <time>2020-09-17T14:36:34Z</time>
      </trkpt>
      <trkpt lat="45.39191" lon="3.37313">
        <ele>464</ele>
        <time>2020-09-17T14:36:35Z</time>
      </trkpt>
      <trkpt lat="45.39191" lon="3.37313">
        <ele>464</ele>
        <time>2020-09-17T14:36:36Z</time>
      </trkpt>
      <trkpt lat="45.39191" lon="3.37313">
        <ele>464</ele>
        <time>2020-09-17T14:36:37Z</time>
      </trkpt>
      <trkpt lat="45.39191" lon="3.37313">
        <ele>464</ele>
        <time>2020-09-17T14:36:38Z</time>
      </trkpt>
      <trkpt lat="45.39191" lon="3.37313">
        <ele>464</ele>
        <time>2020-09-17T14:36:39Z</time>
      </trkpt>
      <trkpt lat="45.39191" lon="3.37312">
        <ele>464.1</ele>
        <time>2020-09-17T14:36:40Z</time>
      </trkpt>
      <trkpt lat="45.39191" lon="3.37312">
        <ele>464</ele>
        <time>2020-09-17T14:36:41Z</time>
      </trkpt>
      <trkpt lat="45.39191" lon="3.37311">
        <ele>464.1</ele>
        <time>2020-09-17T14:36:42Z</time>
      </trkpt>
      <trkpt lat="45.39191" lon="3.37311">
        <ele>464.1</ele>
        <time>2020-09-17T14:36:43Z</time>
      </trkpt>
      <trkpt lat="45.39191" lon="3.3731">
        <ele>464.1</ele>
        <time>2020-09-17T14:36:44Z</time>
      </trkpt>
      <trkpt lat="45.39191" lon="3.3731">
        <ele>464.1</ele>
        <time>2020-09-17T14:36:45Z</time>
      </trkpt>
      <trkpt lat="45.39191" lon="3.37309">
        <ele>464.2</ele>
        <time>2020-09-17T14:36:46Z</time>
      </trkpt>
      <trkpt lat="45.39191" lon="3.37309">
        <ele>464.2</ele>
        <time>2020-09-17T14:36:47Z</time>
      </trkpt>
      <trkpt lat="45.39191" lon="3.37308">
        <ele>464.2</ele>
        <time>2020-09-17T14:36:48Z</time>
      </trkpt>
      <trkpt lat="45.39191" lon="3.37308">
        <ele>464.3</ele>
        <time>2020-09-17T14:36:49Z</time>
      </trkpt>
      <trkpt lat="45.39191" lon="3.37307">
        <ele>464.3</ele>
        <time>2020-09-17T14:36:50Z</time>
      </trkpt>
      <trkpt lat="45.39191" lon="3.37307">
        <ele>464.3</ele>
        <time>2020-09-17T14:36:51Z</time>
      </trkpt>
      <trkpt lat="45.39191" lon="3.37307">
        <ele>464.3</ele>
        <time>2020-09-17T14:36:52Z</time>
      </trkpt>
      <trkpt lat="45.39191" lon="3.37306">
        <ele>464.4</ele>
        <time>2020-09-17T14:36:53Z</time>
      </trkpt>
      <trkpt lat="45.39191" lon="3.37305">
        <ele>464.4</ele>
        <time>2020-09-17T14:36:54Z</time>
      </trkpt>
      <trkpt lat="45.39191" lon="3.37304">
        <ele>464.5</ele>
        <time>2020-09-17T14:36:55Z</time>
      </trkpt>
      <trkpt lat="45.39191" lon="3.37304">
        <ele>464.5</ele>
        <time>2020-09-17T14:36:56Z</time>
      </trkpt>
      <trkpt lat="45.39191" lon="3.37303">
        <ele>464.5</ele>
        <time>2020-09-17T14:36:57Z</time>
      </trkpt>
      <trkpt lat="45.39191" lon="3.37303">
        <ele>464.5</ele>
        <time>2020-09-17T14:36:58Z</time>
      </trkpt>
      <trkpt lat="45.39191" lon="3.37302">
        <ele>464.5</ele>
        <time>2020-09-17T14:36:59Z</time>
      </trkpt>
      <trkpt lat="45.39191" lon="3.37302">
        <ele>464.6</ele>
        <time>2020-09-17T14:37:00Z</time>
      </trkpt>
      <trkpt lat="45.39192" lon="3.37302">
        <ele>464.6</ele>
        <time>2020-09-17T14:37:01Z</time>
      </trkpt>
      <trkpt lat="45.39191" lon="3.37301">
        <ele>464.6</ele>
        <time>2020-09-17T14:37:02Z</time>
      </trkpt>
      <trkpt lat="45.39192" lon="3.37301">
        <ele>464.6</ele>
        <time>2020-09-17T14:37:03Z</time>
      </trkpt>
      <trkpt lat="45.39192" lon="3.37301">
        <ele>464.7</ele>
        <time>2020-09-17T14:37:04Z</time>
      </trkpt>
      <trkpt lat="45.39192" lon="3.37301">
        <ele>464.7</ele>
        <time>2020-09-17T14:37:05Z</time>
      </trkpt>
      <trkpt lat="45.39192" lon="3.373">
        <ele>464.7</ele>
        <time>2020-09-17T14:37:06Z</time>
      </trkpt>
      <trkpt lat="45.39192" lon="3.373">
        <ele>464.8</ele>
        <time>2020-09-17T14:37:07Z</time>
      </trkpt>
      <trkpt lat="45.39192" lon="3.373">
        <ele>464.8</ele>
        <time>2020-09-17T14:37:08Z</time>
      </trkpt>
      <trkpt lat="45.39192" lon="3.37299">
        <ele>464.8</ele>
        <time>2020-09-17T14:37:09Z</time>
      </trkpt>
      <trkpt lat="45.39193" lon="3.37299">
        <ele>464.9</ele>
        <time>2020-09-17T14:37:10Z</time>
      </trkpt>
      <trkpt lat="45.39193" lon="3.37298">
        <ele>464.9</ele>
        <time>2020-09-17T14:37:11Z</time>
      </trkpt>
      <trkpt lat="45.39193" lon="3.37297">
        <ele>465</ele>
        <time>2020-09-17T14:37:12Z</time>
      </trkpt>
      <trkpt lat="45.39193" lon="3.37297">
        <ele>465</ele>
        <time>2020-09-17T14:37:13Z</time>
      </trkpt>
      <trkpt lat="45.39193" lon="3.37297">
        <ele>465.1</ele>
        <time>2020-09-17T14:37:14Z</time>
      </trkpt>
      <trkpt lat="45.39193" lon="3.37297">
        <ele>465.1</ele>
        <time>2020-09-17T14:37:15Z</time>
      </trkpt>
      <trkpt lat="45.39194" lon="3.37297">
        <ele>465.2</ele>
        <time>2020-09-17T14:37:16Z</time>
      </trkpt>
      <trkpt lat="45.39194" lon="3.37296">
        <ele>465.2</ele>
        <time>2020-09-17T14:37:17Z</time>
      </trkpt>
      <trkpt lat="45.39193" lon="3.37297">
        <ele>465.1</ele>
        <time>2020-09-17T14:37:18Z</time>
      </trkpt>
      <trkpt lat="45.39194" lon="3.37296">
        <ele>465.2</ele>
        <time>2020-09-17T14:37:19Z</time>
      </trkpt>
      <trkpt lat="45.39194" lon="3.37296">
        <ele>465.2</ele>
        <time>2020-09-17T14:37:20Z</time>
      </trkpt>
      <trkpt lat="45.39194" lon="3.37296">
        <ele>465.2</ele>
        <time>2020-09-17T14:37:21Z</time>
      </trkpt>
      <trkpt lat="45.39194" lon="3.37296">
        <ele>465.3</ele>
        <time>2020-09-17T14:37:22Z</time>
      </trkpt>
      <trkpt lat="45.39194" lon="3.37296">
        <ele>465.3</ele>
        <time>2020-09-17T14:37:23Z</time>
      </trkpt>
      <trkpt lat="45.39194" lon="3.37296">
        <ele>465.3</ele>
        <time>2020-09-17T14:37:24Z</time>
      </trkpt>
      <trkpt lat="45.39195" lon="3.37296">
        <ele>465.3</ele>
        <time>2020-09-17T14:37:25Z</time>
      </trkpt>
      <trkpt lat="45.39195" lon="3.37295">
        <ele>465.2</ele>
        <time>2020-09-17T14:37:26Z</time>
      </trkpt>
      <trkpt lat="45.39195" lon="3.37295">
        <ele>465.1</ele>
        <time>2020-09-17T14:37:27Z</time>
      </trkpt>
      <trkpt lat="45.39195" lon="3.37295">
        <ele>465.1</ele>
        <time>2020-09-17T14:37:28Z</time>
      </trkpt>
      <trkpt lat="45.39195" lon="3.37295">
        <ele>465</ele>
        <time>2020-09-17T14:37:29Z</time>
      </trkpt>
      <trkpt lat="45.39195" lon="3.37295">
        <ele>465.1</ele>
        <time>2020-09-17T14:37:30Z</time>
      </trkpt>
      <trkpt lat="45.39195" lon="3.37295">
        <ele>465.1</ele>
        <time>2020-09-17T14:37:31Z</time>
      </trkpt>
      <trkpt lat="45.39195" lon="3.37295">
        <ele>465.1</ele>
        <time>2020-09-17T14:37:32Z</time>
      </trkpt>
      <trkpt lat="45.39195" lon="3.37295">
        <ele>465.1</ele>
        <time>2020-09-17T14:37:33Z</time>
      </trkpt>
      <trkpt lat="45.39195" lon="3.37295">
        <ele>465.2</ele>
        <time>2020-09-17T14:37:34Z</time>
      </trkpt>
      <trkpt lat="45.39195" lon="3.37295">
        <ele>465.2</ele>
        <time>2020-09-17T14:37:35Z</time>
      </trkpt>
      <trkpt lat="45.39195" lon="3.37295">
        <ele>465.1</ele>
        <time>2020-09-17T14:37:36Z</time>
      </trkpt>
      <trkpt lat="45.39195" lon="3.37295">
        <ele>465</ele>
        <time>2020-09-17T14:37:37Z</time>
      </trkpt>
      <trkpt lat="45.39196" lon="3.37295">
        <ele>464.9</ele>
        <time>2020-09-17T14:37:38Z</time>
      </trkpt>
      <trkpt lat="45.39196" lon="3.37295">
        <ele>464.8</ele>
        <time>2020-09-17T14:37:39Z</time>
      </trkpt>
      <trkpt lat="45.39196" lon="3.37295">
        <ele>464.9</ele>
        <time>2020-09-17T14:37:40Z</time>
      </trkpt>
      <trkpt lat="45.39196" lon="3.37295">
        <ele>464.9</ele>
        <time>2020-09-17T14:37:41Z</time>
      </trkpt>
      <trkpt lat="45.39196" lon="3.37295">
        <ele>465</ele>
        <time>2020-09-17T14:37:42Z</time>
      </trkpt>
      <trkpt lat="45.39196" lon="3.37295">
        <ele>465</ele>
        <time>2020-09-17T14:37:43Z</time>
      </trkpt>
      <trkpt lat="45.39196" lon="3.37296">
        <ele>464.9</ele>
        <time>2020-09-17T14:37:44Z</time>
      </trkpt>
      <trkpt lat="45.39196" lon="3.37296">
        <ele>464.9</ele>
        <time>2020-09-17T14:37:45Z</time>
      </trkpt>
      <trkpt lat="45.39196" lon="3.37296">
        <ele>464.9</ele>
        <time>2020-09-17T14:37:46Z</time>
      </trkpt>
      <trkpt lat="45.39196" lon="3.37296">
        <ele>464.9</ele>
        <time>2020-09-17T14:37:47Z</time>
      </trkpt>
      <trkpt lat="45.39195" lon="3.37296">
        <ele>465</ele>
        <time>2020-09-17T14:37:48Z</time>
      </trkpt>
      <trkpt lat="45.39195" lon="3.37296">
        <ele>465.1</ele>
        <time>2020-09-17T14:37:49Z</time>
      </trkpt>
      <trkpt lat="45.39195" lon="3.37296">
        <ele>465.1</ele>
        <time>2020-09-17T14:37:50Z</time>
      </trkpt>
      <trkpt lat="45.39195" lon="3.37296">
        <ele>465.3</ele>
        <time>2020-09-17T14:37:51Z</time>
      </trkpt>
      <trkpt lat="45.39195" lon="3.37296">
        <ele>465.3</ele>
        <time>2020-09-17T14:37:52Z</time>
      </trkpt>
      <trkpt lat="45.39195" lon="3.37296">
        <ele>465.3</ele>
        <time>2020-09-17T14:37:53Z</time>
      </trkpt>
      <trkpt lat="45.39194" lon="3.37296">
        <ele>465.3</ele>
        <time>2020-09-17T14:37:54Z</time>
      </trkpt>
      <trkpt lat="45.39195" lon="3.37296">
        <ele>465.3</ele>
        <time>2020-09-17T14:37:55Z</time>
      </trkpt>
      <trkpt lat="45.39195" lon="3.37296">
        <ele>465.3</ele>
        <time>2020-09-17T14:37:56Z</time>
      </trkpt>
      <trkpt lat="45.39195" lon="3.37296">
        <ele>465.3</ele>
        <time>2020-09-17T14:37:57Z</time>
      </trkpt>
      <trkpt lat="45.39195" lon="3.37296">
        <ele>465.2</ele>
        <time>2020-09-17T14:37:58Z</time>
      </trkpt>
      <trkpt lat="45.39195" lon="3.37295">
        <ele>465.2</ele>
        <time>2020-09-17T14:37:59Z</time>
      </trkpt>
      <trkpt lat="45.39195" lon="3.37296">
        <ele>465.1</ele>
        <time>2020-09-17T14:38:00Z</time>
      </trkpt>
      <trkpt lat="45.39196" lon="3.37296">
        <ele>465</ele>
        <time>2020-09-17T14:38:01Z</time>
      </trkpt>
      <trkpt lat="45.39196" lon="3.37296">
        <ele>464.8</ele>
        <time>2020-09-17T14:38:02Z</time>
      </trkpt>
      <trkpt lat="45.39196" lon="3.37295">
        <ele>464.7</ele>
        <time>2020-09-17T14:38:03Z</time>
      </trkpt>
      <trkpt lat="45.39196" lon="3.37295">
        <ele>464.6</ele>
        <time>2020-09-17T14:38:04Z</time>
      </trkpt>
      <trkpt lat="45.39197" lon="3.37295">
        <ele>464.5</ele>
        <time>2020-09-17T14:38:05Z</time>
      </trkpt>
      <trkpt lat="45.39197" lon="3.37294">
        <ele>464.5</ele>
        <time>2020-09-17T14:38:06Z</time>
      </trkpt>
      <trkpt lat="45.39197" lon="3.37294">
        <ele>464.5</ele>
        <time>2020-09-17T14:38:07Z</time>
      </trkpt>
      <trkpt lat="45.39197" lon="3.37293">
        <ele>464.5</ele>
        <time>2020-09-17T14:38:08Z</time>
      </trkpt>
      <trkpt lat="45.39197" lon="3.37293">
        <ele>464.4</ele>
        <time>2020-09-17T14:38:09Z</time>
      </trkpt>
      <trkpt lat="45.39197" lon="3.37293">
        <ele>464.3</ele>
        <time>2020-09-17T14:38:10Z</time>
      </trkpt>
      <trkpt lat="45.39197" lon="3.37292">
        <ele>464.3</ele>
        <time>2020-09-17T14:38:11Z</time>
      </trkpt>
      <trkpt lat="45.39197" lon="3.37292">
        <ele>464.3</ele>
        <time>2020-09-17T14:38:12Z</time>
      </trkpt>
      <trkpt lat="45.39198" lon="3.37292">
        <ele>464.2</ele>
        <time>2020-09-17T14:38:13Z</time>
      </trkpt>
      <trkpt lat="45.39198" lon="3.37292">
        <ele>464.2</ele>
        <time>2020-09-17T14:38:14Z</time>
      </trkpt>
      <trkpt lat="45.39198" lon="3.37292">
        <ele>464</ele>
        <time>2020-09-17T14:38:15Z</time>
      </trkpt>
      <trkpt lat="45.39198" lon="3.37292">
        <ele>464</ele>
        <time>2020-09-17T14:38:16Z</time>
      </trkpt>
      <trkpt lat="45.39199" lon="3.37292">
        <ele>463.8</ele>
        <time>2020-09-17T14:38:17Z</time>
      </trkpt>
      <trkpt lat="45.39199" lon="3.37292">
        <ele>463.6</ele>
        <time>2020-09-17T14:38:18Z</time>
      </trkpt>
      <trkpt lat="45.39199" lon="3.37292">
        <ele>463.5</ele>
        <time>2020-09-17T14:38:19Z</time>
      </trkpt>
      <trkpt lat="45.39199" lon="3.37292">
        <ele>463.5</ele>
        <time>2020-09-17T14:38:20Z</time>
      </trkpt>
      <trkpt lat="45.39199" lon="3.37292">
        <ele>463.5</ele>
        <time>2020-09-17T14:38:21Z</time>
      </trkpt>
      <trkpt lat="45.39199" lon="3.37293">
        <ele>463.5</ele>
        <time>2020-09-17T14:38:22Z</time>
      </trkpt>
      <trkpt lat="45.39199" lon="3.37293">
        <ele>463.7</ele>
        <time>2020-09-17T14:38:23Z</time>
      </trkpt>
      <trkpt lat="45.39199" lon="3.37293">
        <ele>463.7</ele>
        <time>2020-09-17T14:38:24Z</time>
      </trkpt>
      <trkpt lat="45.39199" lon="3.37293">
        <ele>463.7</ele>
        <time>2020-09-17T14:38:25Z</time>
      </trkpt>
      <trkpt lat="45.39199" lon="3.37293">
        <ele>463.8</ele>
        <time>2020-09-17T14:38:26Z</time>
      </trkpt>
      <trkpt lat="45.39199" lon="3.37293">
        <ele>463.8</ele>
        <time>2020-09-17T14:38:27Z</time>
      </trkpt>
      <trkpt lat="45.39198" lon="3.37293">
        <ele>463.9</ele>
        <time>2020-09-17T14:38:28Z</time>
      </trkpt>
      <trkpt lat="45.39198" lon="3.37294">
        <ele>463.9</ele>
        <time>2020-09-17T14:38:29Z</time>
      </trkpt>
      <trkpt lat="45.39198" lon="3.37294">
        <ele>464.1</ele>
        <time>2020-09-17T14:38:30Z</time>
      </trkpt>
      <trkpt lat="45.39198" lon="3.37295">
        <ele>464.1</ele>
        <time>2020-09-17T14:38:31Z</time>
      </trkpt>
      <trkpt lat="45.39198" lon="3.37295">
        <ele>464.2</ele>
        <time>2020-09-17T14:38:32Z</time>
      </trkpt>
      <trkpt lat="45.39198" lon="3.37295">
        <ele>464.2</ele>
        <time>2020-09-17T14:38:33Z</time>
      </trkpt>
      <trkpt lat="45.39198" lon="3.37295">
        <ele>464.1</ele>
        <time>2020-09-17T14:38:34Z</time>
      </trkpt>
      <trkpt lat="45.39198" lon="3.37295">
        <ele>464.1</ele>
        <time>2020-09-17T14:38:35Z</time>
      </trkpt>
      <trkpt lat="45.39198" lon="3.37295">
        <ele>464.1</ele>
        <time>2020-09-17T14:38:36Z</time>
      </trkpt>
      <trkpt lat="45.39198" lon="3.37295">
        <ele>464.1</ele>
        <time>2020-09-17T14:38:37Z</time>
      </trkpt>
      <trkpt lat="45.39198" lon="3.37296">
        <ele>464.1</ele>
        <time>2020-09-17T14:38:38Z</time>
      </trkpt>
      <trkpt lat="45.39198" lon="3.37296">
        <ele>464.1</ele>
        <time>2020-09-17T14:38:39Z</time>
      </trkpt>
      <trkpt lat="45.39198" lon="3.37296">
        <ele>464.1</ele>
        <time>2020-09-17T14:38:40Z</time>
      </trkpt>
      <trkpt lat="45.39198" lon="3.37296">
        <ele>464.1</ele>
        <time>2020-09-17T14:38:41Z</time>
      </trkpt>
      <trkpt lat="45.39198" lon="3.37296">
        <ele>464.1</ele>
        <time>2020-09-17T14:38:42Z</time>
      </trkpt>
      <trkpt lat="45.39198" lon="3.37296">
        <ele>464</ele>
        <time>2020-09-17T14:38:43Z</time>
      </trkpt>
      <trkpt lat="45.39198" lon="3.37296">
        <ele>464</ele>
        <time>2020-09-17T14:38:44Z</time>
      </trkpt>
      <trkpt lat="45.39198" lon="3.37296">
        <ele>464</ele>
        <time>2020-09-17T14:38:45Z</time>
      </trkpt>
      <trkpt lat="45.39198" lon="3.37296">
        <ele>464</ele>
        <time>2020-09-17T14:38:46Z</time>
      </trkpt>
      <trkpt lat="45.39198" lon="3.37297">
        <ele>464</ele>
        <time>2020-09-17T14:38:47Z</time>
      </trkpt>
      <trkpt lat="45.39198" lon="3.37297">
        <ele>464</ele>
        <time>2020-09-17T14:38:48Z</time>
      </trkpt>
      <trkpt lat="45.39198" lon="3.37297">
        <ele>464</ele>
        <time>2020-09-17T14:38:49Z</time>
      </trkpt>
      <trkpt lat="45.39198" lon="3.37297">
        <ele>464.1</ele>
        <time>2020-09-17T14:38:50Z</time>
      </trkpt>
      <trkpt lat="45.39198" lon="3.37297">
        <ele>464.2</ele>
        <time>2020-09-17T14:38:51Z</time>
      </trkpt>
      <trkpt lat="45.39197" lon="3.37297">
        <ele>464.3</ele>
        <time>2020-09-17T14:38:52Z</time>
      </trkpt>
      <trkpt lat="45.39197" lon="3.37297">
        <ele>464.3</ele>
        <time>2020-09-17T14:38:53Z</time>
      </trkpt>
      <trkpt lat="45.39197" lon="3.37297">
        <ele>464.4</ele>
        <time>2020-09-17T14:38:54Z</time>
      </trkpt>
      <trkpt lat="45.39197" lon="3.37297">
        <ele>464.4</ele>
        <time>2020-09-17T14:38:55Z</time>
      </trkpt>
      <trkpt lat="45.39197" lon="3.37296">
        <ele>464.4</ele>
        <time>2020-09-17T14:38:56Z</time>
      </trkpt>
      <trkpt lat="45.39197" lon="3.37296">
        <ele>464.4</ele>
        <time>2020-09-17T14:38:57Z</time>
      </trkpt>
      <trkpt lat="45.39197" lon="3.37296">
        <ele>464.5</ele>
        <time>2020-09-17T14:38:58Z</time>
      </trkpt>
      <trkpt lat="45.39197" lon="3.37296">
        <ele>464.5</ele>
        <time>2020-09-17T14:38:59Z</time>
      </trkpt>
      <trkpt lat="45.39197" lon="3.37296">
        <ele>464.5</ele>
        <time>2020-09-17T14:39:00Z</time>
      </trkpt>
      <trkpt lat="45.39197" lon="3.37296">
        <ele>464.5</ele>
        <time>2020-09-17T14:39:01Z</time>
      </trkpt>
      <trkpt lat="45.39197" lon="3.37296">
        <ele>464.5</ele>
        <time>2020-09-17T14:39:02Z</time>
      </trkpt>
      <trkpt lat="45.39197" lon="3.37296">
        <ele>464.5</ele>
        <time>2020-09-17T14:39:03Z</time>
      </trkpt>
      <trkpt lat="45.39197" lon="3.37296">
        <ele>464.5</ele>
        <time>2020-09-17T14:39:04Z</time>
      </trkpt>
      <trkpt lat="45.39196" lon="3.37296">
        <ele>464.6</ele>
        <time>2020-09-17T14:39:05Z</time>
      </trkpt>
      <trkpt lat="45.39196" lon="3.37296">
        <ele>464.7</ele>
        <time>2020-09-17T14:39:06Z</time>
      </trkpt>
      <trkpt lat="45.39196" lon="3.37296">
        <ele>464.8</ele>
        <time>2020-09-17T14:39:07Z</time>
      </trkpt>
      <trkpt lat="45.39196" lon="3.37296">
        <ele>464.9</ele>
        <time>2020-09-17T14:39:08Z</time>
      </trkpt>
      <trkpt lat="45.39196" lon="3.37296">
        <ele>464.9</ele>
        <time>2020-09-17T14:39:09Z</time>
      </trkpt>
      <trkpt lat="45.39196" lon="3.37295">
        <ele>464.8</ele>
        <time>2020-09-17T14:39:10Z</time>
      </trkpt>
      <trkpt lat="45.39196" lon="3.37295">
        <ele>464.6</ele>
        <time>2020-09-17T14:39:11Z</time>
      </trkpt>
      <trkpt lat="45.39197" lon="3.37295">
        <ele>464.5</ele>
        <time>2020-09-17T14:39:12Z</time>
      </trkpt>
      <trkpt lat="45.39197" lon="3.37294">
        <ele>464.3</ele>
        <time>2020-09-17T14:39:13Z</time>
      </trkpt>
      <trkpt lat="45.39197" lon="3.37294">
        <ele>464.3</ele>
        <time>2020-09-17T14:39:14Z</time>
      </trkpt>
      <trkpt lat="45.39198" lon="3.37293">
        <ele>464.2</ele>
        <time>2020-09-17T14:39:15Z</time>
      </trkpt>
      <trkpt lat="45.39198" lon="3.37293">
        <ele>464.2</ele>
        <time>2020-09-17T14:39:16Z</time>
      </trkpt>
      <trkpt lat="45.39198" lon="3.37292">
        <ele>464.2</ele>
        <time>2020-09-17T14:39:17Z</time>
      </trkpt>
      <trkpt lat="45.39198" lon="3.37293">
        <ele>464.2</ele>
        <time>2020-09-17T14:39:18Z</time>
      </trkpt>
      <trkpt lat="45.39198" lon="3.37293">
        <ele>464.1</ele>
        <time>2020-09-17T14:39:19Z</time>
      </trkpt>
      <trkpt lat="45.39198" lon="3.37294">
        <ele>464.1</ele>
        <time>2020-09-17T14:39:20Z</time>
      </trkpt>
      <trkpt lat="45.39198" lon="3.37294">
        <ele>464.1</ele>
        <time>2020-09-17T14:39:21Z</time>
      </trkpt>
      <trkpt lat="45.39198" lon="3.37295">
        <ele>464.1</ele>
        <time>2020-09-17T14:39:22Z</time>
      </trkpt>
      <trkpt lat="45.39198" lon="3.37296">
        <ele>464.2</ele>
        <time>2020-09-17T14:39:23Z</time>
      </trkpt>
      <trkpt lat="45.39198" lon="3.37296">
        <ele>464.2</ele>
        <time>2020-09-17T14:39:24Z</time>
      </trkpt>
      <trkpt lat="45.39198" lon="3.37296">
        <ele>464.2</ele>
        <time>2020-09-17T14:39:25Z</time>
      </trkpt>
      <trkpt lat="45.39198" lon="3.37297">
        <ele>464.1</ele>
        <time>2020-09-17T14:39:26Z</time>
      </trkpt>
      <trkpt lat="45.39198" lon="3.37297">
        <ele>464</ele>
        <time>2020-09-17T14:39:27Z</time>
      </trkpt>
      <trkpt lat="45.39198" lon="3.37297">
        <ele>464</ele>
        <time>2020-09-17T14:39:28Z</time>
      </trkpt>
      <trkpt lat="45.39198" lon="3.37297">
        <ele>464</ele>
        <time>2020-09-17T14:39:29Z</time>
      </trkpt>
      <trkpt lat="45.39198" lon="3.37297">
        <ele>464</ele>
        <time>2020-09-17T14:39:30Z</time>
      </trkpt>
      <trkpt lat="45.39198" lon="3.37296">
        <ele>464</ele>
        <time>2020-09-17T14:39:31Z</time>
      </trkpt>
      <trkpt lat="45.39198" lon="3.37296">
        <ele>464.2</ele>
        <time>2020-09-17T14:39:32Z</time>
      </trkpt>
      <trkpt lat="45.39198" lon="3.37296">
        <ele>464.2</ele>
        <time>2020-09-17T14:39:33Z</time>
      </trkpt>
      <trkpt lat="45.39197" lon="3.37295">
        <ele>464.2</ele>
        <time>2020-09-17T14:39:34Z</time>
      </trkpt>
      <trkpt lat="45.39197" lon="3.37295">
        <ele>464.2</ele>
        <time>2020-09-17T14:39:35Z</time>
      </trkpt>
      <trkpt lat="45.39197" lon="3.37295">
        <ele>464.3</ele>
        <time>2020-09-17T14:39:36Z</time>
      </trkpt>
      <trkpt lat="45.39197" lon="3.37296">
        <ele>464.3</ele>
        <time>2020-09-17T14:39:37Z</time>
      </trkpt>
      <trkpt lat="45.39197" lon="3.37296">
        <ele>464.4</ele>
        <time>2020-09-17T14:39:38Z</time>
      </trkpt>
      <trkpt lat="45.39197" lon="3.37297">
        <ele>464.4</ele>
        <time>2020-09-17T14:39:39Z</time>
      </trkpt>
      <trkpt lat="45.39197" lon="3.37298">
        <ele>464.5</ele>
        <time>2020-09-17T14:39:40Z</time>
      </trkpt>
      <trkpt lat="45.39196" lon="3.37299">
        <ele>464.6</ele>
        <time>2020-09-17T14:39:41Z</time>
      </trkpt>
      <trkpt lat="45.39196" lon="3.373">
        <ele>464.7</ele>
        <time>2020-09-17T14:39:42Z</time>
      </trkpt>
      <trkpt lat="45.39196" lon="3.373">
        <ele>464.8</ele>
        <time>2020-09-17T14:39:43Z</time>
      </trkpt>
      <trkpt lat="45.39196" lon="3.373">
        <ele>464.8</ele>
        <time>2020-09-17T14:39:44Z</time>
      </trkpt>
      <trkpt lat="45.39196" lon="3.373">
        <ele>464.8</ele>
        <time>2020-09-17T14:39:45Z</time>
      </trkpt>
      <trkpt lat="45.39196" lon="3.373">
        <ele>464.8</ele>
        <time>2020-09-17T14:39:46Z</time>
      </trkpt>
      <trkpt lat="45.39196" lon="3.373">
        <ele>464.8</ele>
        <time>2020-09-17T14:39:47Z</time>
      </trkpt>
      <trkpt lat="45.39196" lon="3.373">
        <ele>464.8</ele>
        <time>2020-09-17T14:39:48Z</time>
      </trkpt>
      <trkpt lat="45.39196" lon="3.373">
        <ele>464.7</ele>
        <time>2020-09-17T14:39:49Z</time>
      </trkpt>
      <trkpt lat="45.39196" lon="3.373">
        <ele>464.6</ele>
        <time>2020-09-17T14:39:50Z</time>
      </trkpt>
      <trkpt lat="45.39196" lon="3.373">
        <ele>464.6</ele>
        <time>2020-09-17T14:39:51Z</time>
      </trkpt>
      <trkpt lat="45.39196" lon="3.373">
        <ele>464.6</ele>
        <time>2020-09-17T14:39:52Z</time>
      </trkpt>
      <trkpt lat="45.39196" lon="3.373">
        <ele>464.7</ele>
        <time>2020-09-17T14:39:53Z</time>
      </trkpt>
      <trkpt lat="45.39196" lon="3.37299">
        <ele>464.7</ele>
        <time>2020-09-17T14:39:54Z</time>
      </trkpt>
      <trkpt lat="45.39196" lon="3.37299">
        <ele>464.7</ele>
        <time>2020-09-17T14:39:55Z</time>
      </trkpt>
      <trkpt lat="45.39196" lon="3.37299">
        <ele>464.7</ele>
        <time>2020-09-17T14:39:56Z</time>
      </trkpt>
      <trkpt lat="45.39196" lon="3.373">
        <ele>464.8</ele>
        <time>2020-09-17T14:39:57Z</time>
      </trkpt>
      <trkpt lat="45.39196" lon="3.373">
        <ele>464.8</ele>
        <time>2020-09-17T14:39:58Z</time>
      </trkpt>
      <trkpt lat="45.39196" lon="3.373">
        <ele>464.8</ele>
        <time>2020-09-17T14:39:59Z</time>
      </trkpt>
      <trkpt lat="45.39196" lon="3.373">
        <ele>464.8</ele>
        <time>2020-09-17T14:40:00Z</time>
      </trkpt>
      <trkpt lat="45.39196" lon="3.37299">
        <ele>464.8</ele>
        <time>2020-09-17T14:40:01Z</time>
      </trkpt>
      <trkpt lat="45.39196" lon="3.37299">
        <ele>464.6</ele>
        <time>2020-09-17T14:40:02Z</time>
      </trkpt>
      <trkpt lat="45.39196" lon="3.37298">
        <ele>464.6</ele>
        <time>2020-09-17T14:40:03Z</time>
      </trkpt>
      <trkpt lat="45.39197" lon="3.37298">
        <ele>464.5</ele>
        <time>2020-09-17T14:40:04Z</time>
      </trkpt>
      <trkpt lat="45.39197" lon="3.37298">
        <ele>464.5</ele>
        <time>2020-09-17T14:40:05Z</time>
      </trkpt>
      <trkpt lat="45.39197" lon="3.37298">
        <ele>464.4</ele>
        <time>2020-09-17T14:40:06Z</time>
      </trkpt>
      <trkpt lat="45.39197" lon="3.37298">
        <ele>464.4</ele>
        <time>2020-09-17T14:40:07Z</time>
      </trkpt>
      <trkpt lat="45.39197" lon="3.37298">
        <ele>464.3</ele>
        <time>2020-09-17T14:40:08Z</time>
      </trkpt>
      <trkpt lat="45.39197" lon="3.37297">
        <ele>464.3</ele>
        <time>2020-09-17T14:40:09Z</time>
      </trkpt>
      <trkpt lat="45.39197" lon="3.37297">
        <ele>464.3</ele>
        <time>2020-09-17T14:40:10Z</time>
      </trkpt>
      <trkpt lat="45.39197" lon="3.37297">
        <ele>464.5</ele>
        <time>2020-09-17T14:40:11Z</time>
      </trkpt>
      <trkpt lat="45.39197" lon="3.37297">
        <ele>464.5</ele>
        <time>2020-09-17T14:40:12Z</time>
      </trkpt>
      <trkpt lat="45.39196" lon="3.37297">
        <ele>464.6</ele>
        <time>2020-09-17T14:40:13Z</time>
      </trkpt>
      <trkpt lat="45.39196" lon="3.37297">
        <ele>464.8</ele>
        <time>2020-09-17T14:40:14Z</time>
      </trkpt>
      <trkpt lat="45.39196" lon="3.37297">
        <ele>464.9</ele>
        <time>2020-09-17T14:40:15Z</time>
      </trkpt>
      <trkpt lat="45.39195" lon="3.37296">
        <ele>465</ele>
        <time>2020-09-17T14:40:16Z</time>
      </trkpt>
      <trkpt lat="45.39195" lon="3.37296">
        <ele>465.1</ele>
        <time>2020-09-17T14:40:17Z</time>
      </trkpt>
      <trkpt lat="45.39195" lon="3.37296">
        <ele>465.3</ele>
        <time>2020-09-17T14:40:18Z</time>
      </trkpt>
      <trkpt lat="45.39195" lon="3.37296">
        <ele>465.3</ele>
        <time>2020-09-17T14:40:19Z</time>
      </trkpt>
      <trkpt lat="45.39194" lon="3.37296">
        <ele>465.3</ele>
        <time>2020-09-17T14:40:20Z</time>
      </trkpt>
      <trkpt lat="45.39194" lon="3.37296">
        <ele>465.2</ele>
        <time>2020-09-17T14:40:21Z</time>
      </trkpt>
      <trkpt lat="45.39193" lon="3.37296">
        <ele>465.1</ele>
        <time>2020-09-17T14:40:22Z</time>
      </trkpt>
      <trkpt lat="45.39192" lon="3.37296">
        <ele>465</ele>
        <time>2020-09-17T14:40:23Z</time>
      </trkpt>
      <trkpt lat="45.39192" lon="3.37296">
        <ele>464.8</ele>
        <time>2020-09-17T14:40:24Z</time>
      </trkpt>
      <trkpt lat="45.39191" lon="3.37296">
        <ele>464.7</ele>
        <time>2020-09-17T14:40:25Z</time>
      </trkpt>
      <trkpt lat="45.3919" lon="3.37297">
        <ele>464.6</ele>
        <time>2020-09-17T14:40:26Z</time>
      </trkpt>
      <trkpt lat="45.3919" lon="3.37297">
        <ele>464.4</ele>
        <time>2020-09-17T14:40:27Z</time>
      </trkpt>
      <trkpt lat="45.39189" lon="3.37297">
        <ele>464.3</ele>
        <time>2020-09-17T14:40:28Z</time>
      </trkpt>
      <trkpt lat="45.39189" lon="3.37297">
        <ele>464.3</ele>
        <time>2020-09-17T14:40:29Z</time>
      </trkpt>
      <trkpt lat="45.39188" lon="3.37297">
        <ele>464.2</ele>
        <time>2020-09-17T14:40:30Z</time>
      </trkpt>
      <trkpt lat="45.39188" lon="3.37297">
        <ele>464.1</ele>
        <time>2020-09-17T14:40:31Z</time>
      </trkpt>
      <trkpt lat="45.39188" lon="3.37297">
        <ele>464.1</ele>
        <time>2020-09-17T14:40:32Z</time>
      </trkpt>
      <trkpt lat="45.39188" lon="3.37297">
        <ele>464.1</ele>
        <time>2020-09-17T14:40:33Z</time>
      </trkpt>
      <trkpt lat="45.39188" lon="3.37297">
        <ele>464.1</ele>
        <time>2020-09-17T14:40:34Z</time>
      </trkpt>
      <trkpt lat="45.39187" lon="3.37297">
        <ele>464</ele>
        <time>2020-09-17T14:40:35Z</time>
      </trkpt>
      <trkpt lat="45.39187" lon="3.37297">
        <ele>464</ele>
        <time>2020-09-17T14:40:36Z</time>
      </trkpt>
      <trkpt lat="45.39187" lon="3.37297">
        <ele>464</ele>
        <time>2020-09-17T14:40:37Z</time>
      </trkpt>
      <trkpt lat="45.39187" lon="3.37297">
        <ele>464</ele>
        <time>2020-09-17T14:40:38Z</time>
      </trkpt>
      <trkpt lat="45.39187" lon="3.37297">
        <ele>464</ele>
        <time>2020-09-17T14:40:39Z</time>
      </trkpt>
      <trkpt lat="45.39187" lon="3.37297">
        <ele>464</ele>
        <time>2020-09-17T14:40:40Z</time>
      </trkpt>
      <trkpt lat="45.39187" lon="3.37297">
        <ele>464</ele>
        <time>2020-09-17T14:40:41Z</time>
      </trkpt>
      <trkpt lat="45.39187" lon="3.37297">
        <ele>464</ele>
        <time>2020-09-17T14:40:42Z</time>
      </trkpt>
      <trkpt lat="45.39187" lon="3.37297">
        <ele>464</ele>
        <time>2020-09-17T14:40:43Z</time>
      </trkpt>
      <trkpt lat="45.39187" lon="3.37297">
        <ele>463.9</ele>
        <time>2020-09-17T14:40:44Z</time>
      </trkpt>
      <trkpt lat="45.39187" lon="3.37297">
        <ele>463.9</ele>
        <time>2020-09-17T14:40:45Z</time>
      </trkpt>
      <trkpt lat="45.39187" lon="3.37297">
        <ele>463.9</ele>
        <time>2020-09-17T14:40:46Z</time>
      </trkpt>
      <trkpt lat="45.39187" lon="3.37297">
        <ele>463.9</ele>
        <time>2020-09-17T14:40:47Z</time>
      </trkpt>
      <trkpt lat="45.39187" lon="3.37297">
        <ele>463.9</ele>
        <time>2020-09-17T14:40:48Z</time>
      </trkpt>
      <trkpt lat="45.39187" lon="3.37297">
        <ele>463.9</ele>
        <time>2020-09-17T14:40:49Z</time>
      </trkpt>
      <trkpt lat="45.39187" lon="3.37297">
        <ele>463.9</ele>
        <time>2020-09-17T14:40:50Z</time>
      </trkpt>
      <trkpt lat="45.39186" lon="3.37297">
        <ele>463.8</ele>
        <time>2020-09-17T14:40:51Z</time>
      </trkpt>
      <trkpt lat="45.39186" lon="3.37297">
        <ele>463.8</ele>
        <time>2020-09-17T14:40:52Z</time>
      </trkpt>
      <trkpt lat="45.39186" lon="3.37297">
        <ele>463.8</ele>
        <time>2020-09-17T14:40:53Z</time>
      </trkpt>
      <trkpt lat="45.39186" lon="3.37297">
        <ele>463.8</ele>
        <time>2020-09-17T14:40:54Z</time>
      </trkpt>
      <trkpt lat="45.39186" lon="3.37297">
        <ele>463.9</ele>
        <time>2020-09-17T14:40:55Z</time>
      </trkpt>
      <trkpt lat="45.39187" lon="3.37297">
        <ele>463.9</ele>
        <time>2020-09-17T14:40:56Z</time>
      </trkpt>
      <trkpt lat="45.39187" lon="3.37297">
        <ele>463.9</ele>
        <time>2020-09-17T14:40:57Z</time>
      </trkpt>
      <trkpt lat="45.39187" lon="3.37297">
        <ele>463.9</ele>
        <time>2020-09-17T14:40:58Z</time>
      </trkpt>
      <trkpt lat="45.39187" lon="3.37297">
        <ele>463.9</ele>
        <time>2020-09-17T14:40:59Z</time>
      </trkpt>
      <trkpt lat="45.39187" lon="3.37297">
        <ele>463.9</ele>
        <time>2020-09-17T14:41:00Z</time>
      </trkpt>
      <trkpt lat="45.39187" lon="3.37297">
        <ele>463.9</ele>
        <time>2020-09-17T14:41:01Z</time>
      </trkpt>
      <trkpt lat="45.39187" lon="3.37297">
        <ele>463.9</ele>
        <time>2020-09-17T14:41:02Z</time>
      </trkpt>
      <trkpt lat="45.39187" lon="3.37298">
        <ele>463.9</ele>
        <time>2020-09-17T14:41:03Z</time>
      </trkpt>
      <trkpt lat="45.39187" lon="3.37298">
        <ele>464</ele>
        <time>2020-09-17T14:41:04Z</time>
      </trkpt>
      <trkpt lat="45.39187" lon="3.37298">
        <ele>463.9</ele>
        <time>2020-09-17T14:41:05Z</time>
      </trkpt>
      <trkpt lat="45.39187" lon="3.37298">
        <ele>463.9</ele>
        <time>2020-09-17T14:41:06Z</time>
      </trkpt>
      <trkpt lat="45.39186" lon="3.37298">
        <ele>463.8</ele>
        <time>2020-09-17T14:41:07Z</time>
      </trkpt>
      <trkpt lat="45.39186" lon="3.37298">
        <ele>463.7</ele>
        <time>2020-09-17T14:41:08Z</time>
      </trkpt>
      <trkpt lat="45.39186" lon="3.37298">
        <ele>463.7</ele>
        <time>2020-09-17T14:41:09Z</time>
      </trkpt>
      <trkpt lat="45.39185" lon="3.37298">
        <ele>463.6</ele>
        <time>2020-09-17T14:41:10Z</time>
      </trkpt>
      <trkpt lat="45.39185" lon="3.37298">
        <ele>463.6</ele>
        <time>2020-09-17T14:41:11Z</time>
      </trkpt>
      <trkpt lat="45.39185" lon="3.37298">
        <ele>463.6</ele>
        <time>2020-09-17T14:41:12Z</time>
      </trkpt>
      <trkpt lat="45.39185" lon="3.37298">
        <ele>463.6</ele>
        <time>2020-09-17T14:41:13Z</time>
      </trkpt>
      <trkpt lat="45.39185" lon="3.37298">
        <ele>463.6</ele>
        <time>2020-09-17T14:41:14Z</time>
      </trkpt>
      <trkpt lat="45.39185" lon="3.37298">
        <ele>463.6</ele>
        <time>2020-09-17T14:41:15Z</time>
      </trkpt>
      <trkpt lat="45.39185" lon="3.37298">
        <ele>463.6</ele>
        <time>2020-09-17T14:41:16Z</time>
      </trkpt>
      <trkpt lat="45.39185" lon="3.37298">
        <ele>463.6</ele>
        <time>2020-09-17T14:41:17Z</time>
      </trkpt>
      <trkpt lat="45.39185" lon="3.37297">
        <ele>463.6</ele>
        <time>2020-09-17T14:41:18Z</time>
      </trkpt>
      <trkpt lat="45.39185" lon="3.37297">
        <ele>463.7</ele>
        <time>2020-09-17T14:41:19Z</time>
      </trkpt>
      <trkpt lat="45.39185" lon="3.37297">
        <ele>463.7</ele>
        <time>2020-09-17T14:41:20Z</time>
      </trkpt>
      <trkpt lat="45.39186" lon="3.37297">
        <ele>463.7</ele>
        <time>2020-09-17T14:41:21Z</time>
      </trkpt>
      <trkpt lat="45.39186" lon="3.37297">
        <ele>463.7</ele>
        <time>2020-09-17T14:41:22Z</time>
      </trkpt>
      <trkpt lat="45.39186" lon="3.37297">
        <ele>463.7</ele>
        <time>2020-09-17T14:41:23Z</time>
      </trkpt>
      <trkpt lat="45.39186" lon="3.37297">
        <ele>463.7</ele>
        <time>2020-09-17T14:41:24Z</time>
      </trkpt>
      <trkpt lat="45.39186" lon="3.37297">
        <ele>463.7</ele>
        <time>2020-09-17T14:41:25Z</time>
      </trkpt>
      <trkpt lat="45.39186" lon="3.37297">
        <ele>463.7</ele>
        <time>2020-09-17T14:41:26Z</time>
      </trkpt>
      <trkpt lat="45.39186" lon="3.37297">
        <ele>463.7</ele>
        <time>2020-09-17T14:41:27Z</time>
      </trkpt>
      <trkpt lat="45.39185" lon="3.37297">
        <ele>463.7</ele>
        <time>2020-09-17T14:41:28Z</time>
      </trkpt>
      <trkpt lat="45.39185" lon="3.37297">
        <ele>463.6</ele>
        <time>2020-09-17T14:41:29Z</time>
      </trkpt>
      <trkpt lat="45.39185" lon="3.37297">
        <ele>463.6</ele>
        <time>2020-09-17T14:41:30Z</time>
      </trkpt>
      <trkpt lat="45.39185" lon="3.37297">
        <ele>463.6</ele>
        <time>2020-09-17T14:41:31Z</time>
      </trkpt>
      <trkpt lat="45.39185" lon="3.37297">
        <ele>463.7</ele>
        <time>2020-09-17T14:41:32Z</time>
      </trkpt>
      <trkpt lat="45.39185" lon="3.37297">
        <ele>463.7</ele>
        <time>2020-09-17T14:41:33Z</time>
      </trkpt>
      <trkpt lat="45.39185" lon="3.37297">
        <ele>463.7</ele>
        <time>2020-09-17T14:41:34Z</time>
      </trkpt>
      <trkpt lat="45.39185" lon="3.37297">
        <ele>463.7</ele>
        <time>2020-09-17T14:41:35Z</time>
      </trkpt>
      <trkpt lat="45.39185" lon="3.37297">
        <ele>463.7</ele>
        <time>2020-09-17T14:41:36Z</time>
      </trkpt>
      <trkpt lat="45.39185" lon="3.37297">
        <ele>463.7</ele>
        <time>2020-09-17T14:41:37Z</time>
      </trkpt>
      <trkpt lat="45.39185" lon="3.37297">
        <ele>463.7</ele>
        <time>2020-09-17T14:41:38Z</time>
      </trkpt>
      <trkpt lat="45.39185" lon="3.37297">
        <ele>463.7</ele>
        <time>2020-09-17T14:41:39Z</time>
      </trkpt>
      <trkpt lat="45.39185" lon="3.37297">
        <ele>463.7</ele>
        <time>2020-09-17T14:41:40Z</time>
      </trkpt>
      <trkpt lat="45.39185" lon="3.37297">
        <ele>463.7</ele>
        <time>2020-09-17T14:41:41Z</time>
      </trkpt>
      <trkpt lat="45.39185" lon="3.37297">
        <ele>463.7</ele>
        <time>2020-09-17T14:41:42Z</time>
      </trkpt>
      <trkpt lat="45.39186" lon="3.37297">
        <ele>463.7</ele>
        <time>2020-09-17T14:41:43Z</time>
      </trkpt>
      <trkpt lat="45.39186" lon="3.37297">
        <ele>463.7</ele>
        <time>2020-09-17T14:41:44Z</time>
      </trkpt>
      <trkpt lat="45.39186" lon="3.37297">
        <ele>463.7</ele>
        <time>2020-09-17T14:41:45Z</time>
      </trkpt>
      <trkpt lat="45.39186" lon="3.37297">
        <ele>463.7</ele>
        <time>2020-09-17T14:41:46Z</time>
      </trkpt>
      <trkpt lat="45.39186" lon="3.37297">
        <ele>463.7</ele>
        <time>2020-09-17T14:41:47Z</time>
      </trkpt>
      <trkpt lat="45.39186" lon="3.37297">
        <ele>463.8</ele>
        <time>2020-09-17T14:41:48Z</time>
      </trkpt>
      <trkpt lat="45.39186" lon="3.37297">
        <ele>463.8</ele>
        <time>2020-09-17T14:41:49Z</time>
      </trkpt>
      <trkpt lat="45.39186" lon="3.37296">
        <ele>463.8</ele>
        <time>2020-09-17T14:41:50Z</time>
      </trkpt>
      <trkpt lat="45.39186" lon="3.37296">
        <ele>463.8</ele>
        <time>2020-09-17T14:41:51Z</time>
      </trkpt>
      <trkpt lat="45.39186" lon="3.37296">
        <ele>463.8</ele>
        <time>2020-09-17T14:41:52Z</time>
      </trkpt>
      <trkpt lat="45.39186" lon="3.37295">
        <ele>463.8</ele>
        <time>2020-09-17T14:41:53Z</time>
      </trkpt>
      <trkpt lat="45.39186" lon="3.37295">
        <ele>463.8</ele>
        <time>2020-09-17T14:41:54Z</time>
      </trkpt>
      <trkpt lat="45.39185" lon="3.37295">
        <ele>463.7</ele>
        <time>2020-09-17T14:41:55Z</time>
      </trkpt>
      <trkpt lat="45.39185" lon="3.37295">
        <ele>463.7</ele>
        <time>2020-09-17T14:41:56Z</time>
      </trkpt>
      <trkpt lat="45.39185" lon="3.37295">
        <ele>463.7</ele>
        <time>2020-09-17T14:41:57Z</time>
      </trkpt>
      <trkpt lat="45.39185" lon="3.37295">
        <ele>463.7</ele>
        <time>2020-09-17T14:41:58Z</time>
      </trkpt>
      <trkpt lat="45.39185" lon="3.37295">
        <ele>463.6</ele>
        <time>2020-09-17T14:41:59Z</time>
      </trkpt>
      <trkpt lat="45.39185" lon="3.37295">
        <ele>463.6</ele>
        <time>2020-09-17T14:42:00Z</time>
      </trkpt>
      <trkpt lat="45.39185" lon="3.37295">
        <ele>463.6</ele>
        <time>2020-09-17T14:42:01Z</time>
      </trkpt>
      <trkpt lat="45.39184" lon="3.37295">
        <ele>463.6</ele>
        <time>2020-09-17T14:42:02Z</time>
      </trkpt>
      <trkpt lat="45.39184" lon="3.37295">
        <ele>463.5</ele>
        <time>2020-09-17T14:42:03Z</time>
      </trkpt>
      <trkpt lat="45.39184" lon="3.37295">
        <ele>463.5</ele>
        <time>2020-09-17T14:42:04Z</time>
      </trkpt>
      <trkpt lat="45.39184" lon="3.37295">
        <ele>463.5</ele>
        <time>2020-09-17T14:42:05Z</time>
      </trkpt>
      <trkpt lat="45.39184" lon="3.37295">
        <ele>463.5</ele>
        <time>2020-09-17T14:42:06Z</time>
      </trkpt>
      <trkpt lat="45.39184" lon="3.37295">
        <ele>463.5</ele>
        <time>2020-09-17T14:42:07Z</time>
      </trkpt>
      <trkpt lat="45.39184" lon="3.37295">
        <ele>463.4</ele>
        <time>2020-09-17T14:42:08Z</time>
      </trkpt>
      <trkpt lat="45.39184" lon="3.37295">
        <ele>463.4</ele>
        <time>2020-09-17T14:42:09Z</time>
      </trkpt>
      <trkpt lat="45.39184" lon="3.37295">
        <ele>463.5</ele>
        <time>2020-09-17T14:42:10Z</time>
      </trkpt>
      <trkpt lat="45.39184" lon="3.37295">
        <ele>463.5</ele>
        <time>2020-09-17T14:42:11Z</time>
      </trkpt>
      <trkpt lat="45.39184" lon="3.37294">
        <ele>463.5</ele>
        <time>2020-09-17T14:42:12Z</time>
      </trkpt>
      <trkpt lat="45.39184" lon="3.37294">
        <ele>463.5</ele>
        <time>2020-09-17T14:42:13Z</time>
      </trkpt>
      <trkpt lat="45.39184" lon="3.37293">
        <ele>463.6</ele>
        <time>2020-09-17T14:42:14Z</time>
      </trkpt>
      <trkpt lat="45.39184" lon="3.37293">
        <ele>463.6</ele>
        <time>2020-09-17T14:42:15Z</time>
      </trkpt>
      <trkpt lat="45.39184" lon="3.37292">
        <ele>463.7</ele>
        <time>2020-09-17T14:42:16Z</time>
      </trkpt>
      <trkpt lat="45.39184" lon="3.37292">
        <ele>463.7</ele>
        <time>2020-09-17T14:42:17Z</time>
      </trkpt>
      <trkpt lat="45.39184" lon="3.37292">
        <ele>463.7</ele>
        <time>2020-09-17T14:42:18Z</time>
      </trkpt>
      <trkpt lat="45.39184" lon="3.37291">
        <ele>463.7</ele>
        <time>2020-09-17T14:42:19Z</time>
      </trkpt>
      <trkpt lat="45.39184" lon="3.3729">
        <ele>463.8</ele>
        <time>2020-09-17T14:42:20Z</time>
      </trkpt>
      <trkpt lat="45.39185" lon="3.37289">
        <ele>463.8</ele>
        <time>2020-09-17T14:42:21Z</time>
      </trkpt>
      <trkpt lat="45.39185" lon="3.37288">
        <ele>463.9</ele>
        <time>2020-09-17T14:42:22Z</time>
      </trkpt>
      <trkpt lat="45.39185" lon="3.37287">
        <ele>464</ele>
        <time>2020-09-17T14:42:23Z</time>
      </trkpt>
      <trkpt lat="45.39185" lon="3.37286">
        <ele>464</ele>
        <time>2020-09-17T14:42:24Z</time>
      </trkpt>
      <trkpt lat="45.39185" lon="3.37286">
        <ele>464</ele>
        <time>2020-09-17T14:42:25Z</time>
      </trkpt>
      <trkpt lat="45.39185" lon="3.37286">
        <ele>464.1</ele>
        <time>2020-09-17T14:42:26Z</time>
      </trkpt>
      <trkpt lat="45.39185" lon="3.37286">
        <ele>464.1</ele>
        <time>2020-09-17T14:42:27Z</time>
      </trkpt>
      <trkpt lat="45.39186" lon="3.37286">
        <ele>464.1</ele>
        <time>2020-09-17T14:42:28Z</time>
      </trkpt>
      <trkpt lat="45.39186" lon="3.37285">
        <ele>464.1</ele>
        <time>2020-09-17T14:42:29Z</time>
      </trkpt>
      <trkpt lat="45.39186" lon="3.37285">
        <ele>464.1</ele>
        <time>2020-09-17T14:42:30Z</time>
      </trkpt>
      <trkpt lat="45.39186" lon="3.37284">
        <ele>464.2</ele>
        <time>2020-09-17T14:42:31Z</time>
      </trkpt>
      <trkpt lat="45.39186" lon="3.37284">
        <ele>464.2</ele>
        <time>2020-09-17T14:42:32Z</time>
      </trkpt>
      <trkpt lat="45.39186" lon="3.37283">
        <ele>464.2</ele>
        <time>2020-09-17T14:42:33Z</time>
      </trkpt>
      <trkpt lat="45.39186" lon="3.37283">
        <ele>464.3</ele>
        <time>2020-09-17T14:42:34Z</time>
      </trkpt>
      <trkpt lat="45.39186" lon="3.37282">
        <ele>464.3</ele>
        <time>2020-09-17T14:42:35Z</time>
      </trkpt>
      <trkpt lat="45.39186" lon="3.37282">
        <ele>464.3</ele>
        <time>2020-09-17T14:42:36Z</time>
      </trkpt>
      <trkpt lat="45.39186" lon="3.37281">
        <ele>464.3</ele>
        <time>2020-09-17T14:42:37Z</time>
      </trkpt>
      <trkpt lat="45.39186" lon="3.3728">
        <ele>464.4</ele>
        <time>2020-09-17T14:42:38Z</time>
      </trkpt>
      <trkpt lat="45.39186" lon="3.3728">
        <ele>464.4</ele>
        <time>2020-09-17T14:42:39Z</time>
      </trkpt>
      <trkpt lat="45.39186" lon="3.37279">
        <ele>464.4</ele>
        <time>2020-09-17T14:42:40Z</time>
      </trkpt>
      <trkpt lat="45.39186" lon="3.37279">
        <ele>464.4</ele>
        <time>2020-09-17T14:42:41Z</time>
      </trkpt>
      <trkpt lat="45.39186" lon="3.37278">
        <ele>464.4</ele>
        <time>2020-09-17T14:42:42Z</time>
      </trkpt>
      <trkpt lat="45.39186" lon="3.37278">
        <ele>464.4</ele>
        <time>2020-09-17T14:42:43Z</time>
      </trkpt>
      <trkpt lat="45.39185" lon="3.37277">
        <ele>464.4</ele>
        <time>2020-09-17T14:42:44Z</time>
      </trkpt>
      <trkpt lat="45.39185" lon="3.37277">
        <ele>464.4</ele>
        <time>2020-09-17T14:42:45Z</time>
      </trkpt>
      <trkpt lat="45.39185" lon="3.37276">
        <ele>464.4</ele>
        <time>2020-09-17T14:42:46Z</time>
      </trkpt>
      <trkpt lat="45.39185" lon="3.37276">
        <ele>464.4</ele>
        <time>2020-09-17T14:42:47Z</time>
      </trkpt>
      <trkpt lat="45.39185" lon="3.37275">
        <ele>464.4</ele>
        <time>2020-09-17T14:42:48Z</time>
      </trkpt>
    </trkseg>
  </trk>
</gpx>